<?xml version="1.0" encoding="UTF-8" standalone="no" ?>
<gpx xmlns="http://www.topografix.com/GPX/1/1" xmlns:xsi="http://www.w3.org/2001/XMLSchema-instance" xsi:schemaLocation="http://www.topografix.com/GPX/1/1 http://www.topografix.com/GPX/1/1/gpx.xsd" version="1.1" creator="VisuGPX - https://www.visugpx.com">
  <metadata>
    <name>St Fuscien </name>
    <desc><![CDATA[15 pax]]></desc>
  </metadata>
  <trk>
    <name><![CDATA[St Fuscien _1]]></name>
    <trkseg>
      <trkpt lat="49.83674" lon="2.31361">
        <ele>106.2</ele>
        <time>2023-08-10T07:00:06Z</time>
      </trkpt>
      <trkpt lat="49.83668" lon="2.31358">
        <ele>106.2</ele>
        <time>2023-08-10T07:00:08Z</time>
      </trkpt>
      <trkpt lat="49.83666" lon="2.31357">
        <ele>106.3</ele>
        <time>2023-08-10T07:00:09Z</time>
      </trkpt>
      <trkpt lat="49.83666" lon="2.31357">
        <ele>106.3</ele>
        <time>2023-08-10T07:00:10Z</time>
      </trkpt>
      <trkpt lat="49.83665" lon="2.31356">
        <ele>106.3</ele>
        <time>2023-08-10T07:00:11Z</time>
      </trkpt>
      <trkpt lat="49.83665" lon="2.31353">
        <ele>106.3</ele>
        <time>2023-08-10T07:00:13Z</time>
      </trkpt>
      <trkpt lat="49.83664" lon="2.31352">
        <ele>106.3</ele>
        <time>2023-08-10T07:00:14Z</time>
      </trkpt>
      <trkpt lat="49.83662" lon="2.31349">
        <ele>106.3</ele>
        <time>2023-08-10T07:00:15Z</time>
      </trkpt>
      <trkpt lat="49.8366" lon="2.31348">
        <ele>106.3</ele>
        <time>2023-08-10T07:00:16Z</time>
      </trkpt>
      <trkpt lat="49.83659" lon="2.31346">
        <ele>106.4</ele>
        <time>2023-08-10T07:00:17Z</time>
      </trkpt>
      <trkpt lat="49.83657" lon="2.31345">
        <ele>106.4</ele>
        <time>2023-08-10T07:00:18Z</time>
      </trkpt>
      <trkpt lat="49.83656" lon="2.31344">
        <ele>106.4</ele>
        <time>2023-08-10T07:00:20Z</time>
      </trkpt>
      <trkpt lat="49.83655" lon="2.31343">
        <ele>106.4</ele>
        <time>2023-08-10T07:00:21Z</time>
      </trkpt>
      <trkpt lat="49.83654" lon="2.31342">
        <ele>106.4</ele>
        <time>2023-08-10T07:00:22Z</time>
      </trkpt>
      <trkpt lat="49.83653" lon="2.31341">
        <ele>106.4</ele>
        <time>2023-08-10T07:00:23Z</time>
      </trkpt>
      <trkpt lat="49.83652" lon="2.3134">
        <ele>106.4</ele>
        <time>2023-08-10T07:00:24Z</time>
      </trkpt>
      <trkpt lat="49.83651" lon="2.31339">
        <ele>106.5</ele>
        <time>2023-08-10T07:00:25Z</time>
      </trkpt>
      <trkpt lat="49.83651" lon="2.31338">
        <ele>106.5</ele>
        <time>2023-08-10T07:00:26Z</time>
      </trkpt>
      <trkpt lat="49.8365" lon="2.31337">
        <ele>106.5</ele>
        <time>2023-08-10T07:00:28Z</time>
      </trkpt>
      <trkpt lat="49.83649" lon="2.31336">
        <ele>106.5</ele>
        <time>2023-08-10T07:00:29Z</time>
      </trkpt>
      <trkpt lat="49.8365" lon="2.31336">
        <ele>106.5</ele>
        <time>2023-08-10T07:00:30Z</time>
      </trkpt>
      <trkpt lat="49.8365" lon="2.31336">
        <ele>106.5</ele>
        <time>2023-08-10T07:00:31Z</time>
      </trkpt>
      <trkpt lat="49.83649" lon="2.31336">
        <ele>106.5</ele>
        <time>2023-08-10T07:00:32Z</time>
      </trkpt>
      <trkpt lat="49.83649" lon="2.31335">
        <ele>106.5</ele>
        <time>2023-08-10T07:00:33Z</time>
      </trkpt>
      <trkpt lat="49.83648" lon="2.31334">
        <ele>106.5</ele>
        <time>2023-08-10T07:00:34Z</time>
      </trkpt>
      <trkpt lat="49.83647" lon="2.31333">
        <ele>106.5</ele>
        <time>2023-08-10T07:00:36Z</time>
      </trkpt>
      <trkpt lat="49.83647" lon="2.31332">
        <ele>106.5</ele>
        <time>2023-08-10T07:00:37Z</time>
      </trkpt>
      <trkpt lat="49.83646" lon="2.31332">
        <ele>106.5</ele>
        <time>2023-08-10T07:00:38Z</time>
      </trkpt>
      <trkpt lat="49.83646" lon="2.31331">
        <ele>106.5</ele>
        <time>2023-08-10T07:00:39Z</time>
      </trkpt>
      <trkpt lat="49.83645" lon="2.31331">
        <ele>106.6</ele>
        <time>2023-08-10T07:00:40Z</time>
      </trkpt>
      <trkpt lat="49.83643" lon="2.31329">
        <ele>106.6</ele>
        <time>2023-08-10T07:00:42Z</time>
      </trkpt>
      <trkpt lat="49.83642" lon="2.31329">
        <ele>106.6</ele>
        <time>2023-08-10T07:00:43Z</time>
      </trkpt>
      <trkpt lat="49.83641" lon="2.31328">
        <ele>106.6</ele>
        <time>2023-08-10T07:00:44Z</time>
      </trkpt>
      <trkpt lat="49.83639" lon="2.31327">
        <ele>106.6</ele>
        <time>2023-08-10T07:00:45Z</time>
      </trkpt>
      <trkpt lat="49.83637" lon="2.31326">
        <ele>106.6</ele>
        <time>2023-08-10T07:00:46Z</time>
      </trkpt>
      <trkpt lat="49.83636" lon="2.31325">
        <ele>106.7</ele>
        <time>2023-08-10T07:00:47Z</time>
      </trkpt>
      <trkpt lat="49.83635" lon="2.31324">
        <ele>106.7</ele>
        <time>2023-08-10T07:00:48Z</time>
      </trkpt>
      <trkpt lat="49.83634" lon="2.31323">
        <ele>106.7</ele>
        <time>2023-08-10T07:00:50Z</time>
      </trkpt>
      <trkpt lat="49.83633" lon="2.31322">
        <ele>106.7</ele>
        <time>2023-08-10T07:00:51Z</time>
      </trkpt>
      <trkpt lat="49.83632" lon="2.31321">
        <ele>106.7</ele>
        <time>2023-08-10T07:00:52Z</time>
      </trkpt>
      <trkpt lat="49.83631" lon="2.3132">
        <ele>106.7</ele>
        <time>2023-08-10T07:00:53Z</time>
      </trkpt>
      <trkpt lat="49.8363" lon="2.31319">
        <ele>106.7</ele>
        <time>2023-08-10T07:00:54Z</time>
      </trkpt>
      <trkpt lat="49.83629" lon="2.31318">
        <ele>106.7</ele>
        <time>2023-08-10T07:00:55Z</time>
      </trkpt>
      <trkpt lat="49.83628" lon="2.31317">
        <ele>106.7</ele>
        <time>2023-08-10T07:00:57Z</time>
      </trkpt>
      <trkpt lat="49.83627" lon="2.31317">
        <ele>106.7</ele>
        <time>2023-08-10T07:00:58Z</time>
      </trkpt>
      <trkpt lat="49.83627" lon="2.31317">
        <ele>106.7</ele>
        <time>2023-08-10T07:01:00Z</time>
      </trkpt>
      <trkpt lat="49.83626" lon="2.31317">
        <ele>106.7</ele>
        <time>2023-08-10T07:01:01Z</time>
      </trkpt>
      <trkpt lat="49.83625" lon="2.31317">
        <ele>106.8</ele>
        <time>2023-08-10T07:01:02Z</time>
      </trkpt>
      <trkpt lat="49.83625" lon="2.31318">
        <ele>106.8</ele>
        <time>2023-08-10T07:01:03Z</time>
      </trkpt>
      <trkpt lat="49.83624" lon="2.31318">
        <ele>106.8</ele>
        <time>2023-08-10T07:01:04Z</time>
      </trkpt>
      <trkpt lat="49.83623" lon="2.31318">
        <ele>106.8</ele>
        <time>2023-08-10T07:01:05Z</time>
      </trkpt>
      <trkpt lat="49.83622" lon="2.31318">
        <ele>106.8</ele>
        <time>2023-08-10T07:01:06Z</time>
      </trkpt>
      <trkpt lat="49.83621" lon="2.31318">
        <ele>106.8</ele>
        <time>2023-08-10T07:01:08Z</time>
      </trkpt>
      <trkpt lat="49.8362" lon="2.31318">
        <ele>106.8</ele>
        <time>2023-08-10T07:01:09Z</time>
      </trkpt>
      <trkpt lat="49.83619" lon="2.31317">
        <ele>106.8</ele>
        <time>2023-08-10T07:01:10Z</time>
      </trkpt>
      <trkpt lat="49.83618" lon="2.31317">
        <ele>106.8</ele>
        <time>2023-08-10T07:01:11Z</time>
      </trkpt>
      <trkpt lat="49.83617" lon="2.31317">
        <ele>106.8</ele>
        <time>2023-08-10T07:01:12Z</time>
      </trkpt>
      <trkpt lat="49.83617" lon="2.31317">
        <ele>106.8</ele>
        <time>2023-08-10T07:01:13Z</time>
      </trkpt>
      <trkpt lat="49.83616" lon="2.31317">
        <ele>106.8</ele>
        <time>2023-08-10T07:01:15Z</time>
      </trkpt>
      <trkpt lat="49.83615" lon="2.31317">
        <ele>106.8</ele>
        <time>2023-08-10T07:01:16Z</time>
      </trkpt>
      <trkpt lat="49.83614" lon="2.31317">
        <ele>106.9</ele>
        <time>2023-08-10T07:01:17Z</time>
      </trkpt>
      <trkpt lat="49.83614" lon="2.31317">
        <ele>106.9</ele>
        <time>2023-08-10T07:01:18Z</time>
      </trkpt>
      <trkpt lat="49.83613" lon="2.31316">
        <ele>106.9</ele>
        <time>2023-08-10T07:01:19Z</time>
      </trkpt>
      <trkpt lat="49.83611" lon="2.31316">
        <ele>106.9</ele>
        <time>2023-08-10T07:01:20Z</time>
      </trkpt>
      <trkpt lat="49.8361" lon="2.31316">
        <ele>106.9</ele>
        <time>2023-08-10T07:01:21Z</time>
      </trkpt>
      <trkpt lat="49.83608" lon="2.31317">
        <ele>106.9</ele>
        <time>2023-08-10T07:01:23Z</time>
      </trkpt>
      <trkpt lat="49.83607" lon="2.31318">
        <ele>106.9</ele>
        <time>2023-08-10T07:01:24Z</time>
      </trkpt>
      <trkpt lat="49.83605" lon="2.31318">
        <ele>106.9</ele>
        <time>2023-08-10T07:01:25Z</time>
      </trkpt>
      <trkpt lat="49.83604" lon="2.31319">
        <ele>107</ele>
        <time>2023-08-10T07:01:26Z</time>
      </trkpt>
      <trkpt lat="49.83603" lon="2.3132">
        <ele>107</ele>
        <time>2023-08-10T07:01:27Z</time>
      </trkpt>
      <trkpt lat="49.83602" lon="2.3132">
        <ele>107</ele>
        <time>2023-08-10T07:01:28Z</time>
      </trkpt>
      <trkpt lat="49.83601" lon="2.31321">
        <ele>107</ele>
        <time>2023-08-10T07:01:29Z</time>
      </trkpt>
      <trkpt lat="49.836" lon="2.31322">
        <ele>107</ele>
        <time>2023-08-10T07:01:31Z</time>
      </trkpt>
      <trkpt lat="49.83599" lon="2.31323">
        <ele>107</ele>
        <time>2023-08-10T07:01:32Z</time>
      </trkpt>
      <trkpt lat="49.83598" lon="2.31324">
        <ele>107</ele>
        <time>2023-08-10T07:01:33Z</time>
      </trkpt>
      <trkpt lat="49.83597" lon="2.31325">
        <ele>107</ele>
        <time>2023-08-10T07:01:34Z</time>
      </trkpt>
      <trkpt lat="49.83597" lon="2.31326">
        <ele>107</ele>
        <time>2023-08-10T07:01:35Z</time>
      </trkpt>
      <trkpt lat="49.83596" lon="2.31327">
        <ele>107</ele>
        <time>2023-08-10T07:01:36Z</time>
      </trkpt>
      <trkpt lat="49.83595" lon="2.31327">
        <ele>107</ele>
        <time>2023-08-10T07:01:37Z</time>
      </trkpt>
      <trkpt lat="49.83594" lon="2.31327">
        <ele>107</ele>
        <time>2023-08-10T07:01:39Z</time>
      </trkpt>
      <trkpt lat="49.83593" lon="2.31328">
        <ele>107.1</ele>
        <time>2023-08-10T07:01:40Z</time>
      </trkpt>
      <trkpt lat="49.83592" lon="2.31328">
        <ele>107.1</ele>
        <time>2023-08-10T07:01:41Z</time>
      </trkpt>
      <trkpt lat="49.8359" lon="2.31329">
        <ele>107.1</ele>
        <time>2023-08-10T07:01:42Z</time>
      </trkpt>
      <trkpt lat="49.83588" lon="2.31329">
        <ele>107.1</ele>
        <time>2023-08-10T07:01:43Z</time>
      </trkpt>
      <trkpt lat="49.83586" lon="2.3133">
        <ele>107.1</ele>
        <time>2023-08-10T07:01:45Z</time>
      </trkpt>
      <trkpt lat="49.83584" lon="2.3133">
        <ele>107.1</ele>
        <time>2023-08-10T07:01:46Z</time>
      </trkpt>
      <trkpt lat="49.83582" lon="2.3133">
        <ele>107.1</ele>
        <time>2023-08-10T07:01:47Z</time>
      </trkpt>
      <trkpt lat="49.83581" lon="2.3133">
        <ele>107.1</ele>
        <time>2023-08-10T07:01:48Z</time>
      </trkpt>
      <trkpt lat="49.83579" lon="2.3133">
        <ele>107.1</ele>
        <time>2023-08-10T07:01:49Z</time>
      </trkpt>
      <trkpt lat="49.83578" lon="2.31331">
        <ele>107.2</ele>
        <time>2023-08-10T07:01:50Z</time>
      </trkpt>
      <trkpt lat="49.83576" lon="2.31332">
        <ele>107.2</ele>
        <time>2023-08-10T07:01:52Z</time>
      </trkpt>
      <trkpt lat="49.83575" lon="2.31333">
        <ele>107.2</ele>
        <time>2023-08-10T07:01:53Z</time>
      </trkpt>
      <trkpt lat="49.83574" lon="2.31333">
        <ele>107.2</ele>
        <time>2023-08-10T07:01:54Z</time>
      </trkpt>
      <trkpt lat="49.83574" lon="2.31333">
        <ele>107.2</ele>
        <time>2023-08-10T07:01:55Z</time>
      </trkpt>
      <trkpt lat="49.83573" lon="2.31333">
        <ele>107.2</ele>
        <time>2023-08-10T07:01:57Z</time>
      </trkpt>
      <trkpt lat="49.83572" lon="2.31333">
        <ele>107.2</ele>
        <time>2023-08-10T07:01:58Z</time>
      </trkpt>
      <trkpt lat="49.83571" lon="2.31332">
        <ele>107.2</ele>
        <time>2023-08-10T07:01:59Z</time>
      </trkpt>
      <trkpt lat="49.8357" lon="2.31332">
        <ele>107.2</ele>
        <time>2023-08-10T07:02:00Z</time>
      </trkpt>
      <trkpt lat="49.8357" lon="2.31332">
        <ele>107.2</ele>
        <time>2023-08-10T07:02:01Z</time>
      </trkpt>
      <trkpt lat="49.83569" lon="2.31332">
        <ele>107.2</ele>
        <time>2023-08-10T07:02:02Z</time>
      </trkpt>
      <trkpt lat="49.83568" lon="2.31333">
        <ele>107.2</ele>
        <time>2023-08-10T07:02:04Z</time>
      </trkpt>
      <trkpt lat="49.83567" lon="2.31334">
        <ele>107.2</ele>
        <time>2023-08-10T07:02:05Z</time>
      </trkpt>
      <trkpt lat="49.83566" lon="2.31335">
        <ele>107.2</ele>
        <time>2023-08-10T07:02:06Z</time>
      </trkpt>
      <trkpt lat="49.83565" lon="2.31336">
        <ele>107.2</ele>
        <time>2023-08-10T07:02:07Z</time>
      </trkpt>
      <trkpt lat="49.83564" lon="2.31337">
        <ele>107.2</ele>
        <time>2023-08-10T07:02:08Z</time>
      </trkpt>
      <trkpt lat="49.83564" lon="2.31339">
        <ele>107.2</ele>
        <time>2023-08-10T07:02:09Z</time>
      </trkpt>
      <trkpt lat="49.83563" lon="2.3134">
        <ele>107.3</ele>
        <time>2023-08-10T07:02:10Z</time>
      </trkpt>
      <trkpt lat="49.83563" lon="2.31341">
        <ele>107.3</ele>
        <time>2023-08-10T07:02:11Z</time>
      </trkpt>
      <trkpt lat="49.83562" lon="2.31342">
        <ele>107.3</ele>
        <time>2023-08-10T07:02:13Z</time>
      </trkpt>
      <trkpt lat="49.83561" lon="2.31344">
        <ele>107.3</ele>
        <time>2023-08-10T07:02:14Z</time>
      </trkpt>
      <trkpt lat="49.83561" lon="2.31345">
        <ele>107.3</ele>
        <time>2023-08-10T07:02:15Z</time>
      </trkpt>
      <trkpt lat="49.83561" lon="2.31346">
        <ele>107.3</ele>
        <time>2023-08-10T07:02:16Z</time>
      </trkpt>
      <trkpt lat="49.8356" lon="2.31347">
        <ele>107.3</ele>
        <time>2023-08-10T07:02:17Z</time>
      </trkpt>
      <trkpt lat="49.83559" lon="2.31348">
        <ele>107.3</ele>
        <time>2023-08-10T07:02:19Z</time>
      </trkpt>
      <trkpt lat="49.83559" lon="2.31349">
        <ele>107.3</ele>
        <time>2023-08-10T07:02:20Z</time>
      </trkpt>
      <trkpt lat="49.83558" lon="2.31351">
        <ele>107.3</ele>
        <time>2023-08-10T07:02:21Z</time>
      </trkpt>
      <trkpt lat="49.83557" lon="2.31352">
        <ele>107.3</ele>
        <time>2023-08-10T07:02:22Z</time>
      </trkpt>
      <trkpt lat="49.83557" lon="2.31354">
        <ele>107.3</ele>
        <time>2023-08-10T07:02:23Z</time>
      </trkpt>
      <trkpt lat="49.83556" lon="2.31355">
        <ele>107.4</ele>
        <time>2023-08-10T07:02:24Z</time>
      </trkpt>
      <trkpt lat="49.83555" lon="2.31357">
        <ele>107.4</ele>
        <time>2023-08-10T07:02:26Z</time>
      </trkpt>
      <trkpt lat="49.83555" lon="2.31358">
        <ele>107.4</ele>
        <time>2023-08-10T07:02:27Z</time>
      </trkpt>
      <trkpt lat="49.83554" lon="2.3136">
        <ele>107.4</ele>
        <time>2023-08-10T07:02:28Z</time>
      </trkpt>
      <trkpt lat="49.83553" lon="2.31361">
        <ele>107.4</ele>
        <time>2023-08-10T07:02:29Z</time>
      </trkpt>
      <trkpt lat="49.83553" lon="2.31362">
        <ele>107.4</ele>
        <time>2023-08-10T07:02:30Z</time>
      </trkpt>
      <trkpt lat="49.83552" lon="2.31363">
        <ele>107.4</ele>
        <time>2023-08-10T07:02:32Z</time>
      </trkpt>
      <trkpt lat="49.83551" lon="2.31364">
        <ele>107.4</ele>
        <time>2023-08-10T07:02:33Z</time>
      </trkpt>
      <trkpt lat="49.83551" lon="2.31365">
        <ele>107.4</ele>
        <time>2023-08-10T07:02:34Z</time>
      </trkpt>
      <trkpt lat="49.8355" lon="2.31367">
        <ele>107.4</ele>
        <time>2023-08-10T07:02:35Z</time>
      </trkpt>
      <trkpt lat="49.8355" lon="2.31368">
        <ele>107.4</ele>
        <time>2023-08-10T07:02:36Z</time>
      </trkpt>
      <trkpt lat="49.83549" lon="2.31369">
        <ele>107.4</ele>
        <time>2023-08-10T07:02:37Z</time>
      </trkpt>
      <trkpt lat="49.83549" lon="2.31371">
        <ele>107.4</ele>
        <time>2023-08-10T07:02:39Z</time>
      </trkpt>
      <trkpt lat="49.83548" lon="2.31372">
        <ele>107.5</ele>
        <time>2023-08-10T07:02:40Z</time>
      </trkpt>
      <trkpt lat="49.83548" lon="2.31374">
        <ele>107.5</ele>
        <time>2023-08-10T07:02:41Z</time>
      </trkpt>
      <trkpt lat="49.83547" lon="2.31375">
        <ele>107.5</ele>
        <time>2023-08-10T07:02:42Z</time>
      </trkpt>
      <trkpt lat="49.83547" lon="2.31376">
        <ele>107.5</ele>
        <time>2023-08-10T07:02:43Z</time>
      </trkpt>
      <trkpt lat="49.83545" lon="2.31378">
        <ele>107.5</ele>
        <time>2023-08-10T07:02:44Z</time>
      </trkpt>
      <trkpt lat="49.83544" lon="2.31379">
        <ele>107.5</ele>
        <time>2023-08-10T07:02:46Z</time>
      </trkpt>
      <trkpt lat="49.83544" lon="2.3138">
        <ele>107.5</ele>
        <time>2023-08-10T07:02:47Z</time>
      </trkpt>
      <trkpt lat="49.83543" lon="2.31381">
        <ele>107.5</ele>
        <time>2023-08-10T07:02:48Z</time>
      </trkpt>
      <trkpt lat="49.83542" lon="2.31382">
        <ele>107.5</ele>
        <time>2023-08-10T07:02:49Z</time>
      </trkpt>
      <trkpt lat="49.83541" lon="2.31383">
        <ele>107.5</ele>
        <time>2023-08-10T07:02:50Z</time>
      </trkpt>
      <trkpt lat="49.83541" lon="2.31385">
        <ele>107.5</ele>
        <time>2023-08-10T07:02:52Z</time>
      </trkpt>
      <trkpt lat="49.8354" lon="2.31387">
        <ele>107.6</ele>
        <time>2023-08-10T07:02:53Z</time>
      </trkpt>
      <trkpt lat="49.83539" lon="2.31389">
        <ele>107.6</ele>
        <time>2023-08-10T07:02:54Z</time>
      </trkpt>
      <trkpt lat="49.83539" lon="2.31391">
        <ele>107.6</ele>
        <time>2023-08-10T07:02:55Z</time>
      </trkpt>
      <trkpt lat="49.83539" lon="2.31392">
        <ele>107.6</ele>
        <time>2023-08-10T07:02:56Z</time>
      </trkpt>
      <trkpt lat="49.83537" lon="2.31395">
        <ele>107.6</ele>
        <time>2023-08-10T07:02:57Z</time>
      </trkpt>
      <trkpt lat="49.83537" lon="2.31396">
        <ele>107.6</ele>
        <time>2023-08-10T07:02:59Z</time>
      </trkpt>
      <trkpt lat="49.83536" lon="2.31397">
        <ele>107.6</ele>
        <time>2023-08-10T07:03:00Z</time>
      </trkpt>
      <trkpt lat="49.83535" lon="2.31398">
        <ele>107.6</ele>
        <time>2023-08-10T07:03:01Z</time>
      </trkpt>
      <trkpt lat="49.83534" lon="2.31399">
        <ele>107.6</ele>
        <time>2023-08-10T07:03:02Z</time>
      </trkpt>
      <trkpt lat="49.83533" lon="2.314">
        <ele>107.6</ele>
        <time>2023-08-10T07:03:03Z</time>
      </trkpt>
      <trkpt lat="49.83533" lon="2.31402">
        <ele>107.6</ele>
        <time>2023-08-10T07:03:04Z</time>
      </trkpt>
      <trkpt lat="49.83532" lon="2.31403">
        <ele>107.7</ele>
        <time>2023-08-10T07:03:05Z</time>
      </trkpt>
      <trkpt lat="49.83531" lon="2.31405">
        <ele>107.7</ele>
        <time>2023-08-10T07:03:07Z</time>
      </trkpt>
      <trkpt lat="49.8353" lon="2.31407">
        <ele>107.7</ele>
        <time>2023-08-10T07:03:08Z</time>
      </trkpt>
      <trkpt lat="49.83529" lon="2.31408">
        <ele>107.7</ele>
        <time>2023-08-10T07:03:09Z</time>
      </trkpt>
      <trkpt lat="49.83528" lon="2.31411">
        <ele>107.7</ele>
        <time>2023-08-10T07:03:10Z</time>
      </trkpt>
      <trkpt lat="49.83528" lon="2.31412">
        <ele>107.7</ele>
        <time>2023-08-10T07:03:12Z</time>
      </trkpt>
      <trkpt lat="49.83527" lon="2.31414">
        <ele>107.7</ele>
        <time>2023-08-10T07:03:13Z</time>
      </trkpt>
      <trkpt lat="49.83526" lon="2.31416">
        <ele>107.7</ele>
        <time>2023-08-10T07:03:14Z</time>
      </trkpt>
      <trkpt lat="49.83525" lon="2.31417">
        <ele>107.7</ele>
        <time>2023-08-10T07:03:15Z</time>
      </trkpt>
      <trkpt lat="49.83525" lon="2.31418">
        <ele>107.8</ele>
        <time>2023-08-10T07:03:16Z</time>
      </trkpt>
      <trkpt lat="49.83523" lon="2.31421">
        <ele>107.8</ele>
        <time>2023-08-10T07:03:17Z</time>
      </trkpt>
      <trkpt lat="49.83522" lon="2.31422">
        <ele>107.8</ele>
        <time>2023-08-10T07:03:19Z</time>
      </trkpt>
      <trkpt lat="49.83521" lon="2.31422">
        <ele>107.8</ele>
        <time>2023-08-10T07:03:20Z</time>
      </trkpt>
      <trkpt lat="49.8352" lon="2.31423">
        <ele>107.8</ele>
        <time>2023-08-10T07:03:21Z</time>
      </trkpt>
      <trkpt lat="49.83519" lon="2.31424">
        <ele>107.8</ele>
        <time>2023-08-10T07:03:22Z</time>
      </trkpt>
      <trkpt lat="49.83518" lon="2.31424">
        <ele>107.8</ele>
        <time>2023-08-10T07:03:23Z</time>
      </trkpt>
      <trkpt lat="49.83516" lon="2.31424">
        <ele>107.9</ele>
        <time>2023-08-10T07:03:24Z</time>
      </trkpt>
      <trkpt lat="49.83515" lon="2.31424">
        <ele>107.9</ele>
        <time>2023-08-10T07:03:26Z</time>
      </trkpt>
      <trkpt lat="49.83514" lon="2.31424">
        <ele>107.9</ele>
        <time>2023-08-10T07:03:27Z</time>
      </trkpt>
      <trkpt lat="49.83513" lon="2.31424">
        <ele>107.9</ele>
        <time>2023-08-10T07:03:28Z</time>
      </trkpt>
      <trkpt lat="49.83512" lon="2.31422">
        <ele>107.9</ele>
        <time>2023-08-10T07:03:29Z</time>
      </trkpt>
      <trkpt lat="49.83511" lon="2.31421">
        <ele>107.9</ele>
        <time>2023-08-10T07:03:30Z</time>
      </trkpt>
      <trkpt lat="49.8351" lon="2.3142">
        <ele>107.9</ele>
        <time>2023-08-10T07:03:31Z</time>
      </trkpt>
      <trkpt lat="49.8351" lon="2.31419">
        <ele>107.9</ele>
        <time>2023-08-10T07:03:32Z</time>
      </trkpt>
      <trkpt lat="49.83509" lon="2.31418">
        <ele>107.9</ele>
        <time>2023-08-10T07:03:33Z</time>
      </trkpt>
      <trkpt lat="49.83508" lon="2.31416">
        <ele>108</ele>
        <time>2023-08-10T07:03:35Z</time>
      </trkpt>
      <trkpt lat="49.83507" lon="2.31415">
        <ele>108</ele>
        <time>2023-08-10T07:03:36Z</time>
      </trkpt>
      <trkpt lat="49.83506" lon="2.31413">
        <ele>108</ele>
        <time>2023-08-10T07:03:37Z</time>
      </trkpt>
      <trkpt lat="49.83504" lon="2.31411">
        <ele>108</ele>
        <time>2023-08-10T07:03:38Z</time>
      </trkpt>
      <trkpt lat="49.83504" lon="2.31409">
        <ele>108</ele>
        <time>2023-08-10T07:03:39Z</time>
      </trkpt>
      <trkpt lat="49.83503" lon="2.31408">
        <ele>108</ele>
        <time>2023-08-10T07:03:40Z</time>
      </trkpt>
      <trkpt lat="49.83502" lon="2.31406">
        <ele>108</ele>
        <time>2023-08-10T07:03:42Z</time>
      </trkpt>
      <trkpt lat="49.83502" lon="2.31404">
        <ele>108</ele>
        <time>2023-08-10T07:03:43Z</time>
      </trkpt>
      <trkpt lat="49.83501" lon="2.31403">
        <ele>108</ele>
        <time>2023-08-10T07:03:44Z</time>
      </trkpt>
      <trkpt lat="49.835" lon="2.31401">
        <ele>108</ele>
        <time>2023-08-10T07:03:45Z</time>
      </trkpt>
      <trkpt lat="49.83499" lon="2.31399">
        <ele>108</ele>
        <time>2023-08-10T07:03:46Z</time>
      </trkpt>
      <trkpt lat="49.83499" lon="2.31397">
        <ele>108</ele>
        <time>2023-08-10T07:03:47Z</time>
      </trkpt>
      <trkpt lat="49.83498" lon="2.31395">
        <ele>108</ele>
        <time>2023-08-10T07:03:48Z</time>
      </trkpt>
      <trkpt lat="49.83497" lon="2.31393">
        <ele>108</ele>
        <time>2023-08-10T07:03:49Z</time>
      </trkpt>
      <trkpt lat="49.83496" lon="2.31391">
        <ele>108</ele>
        <time>2023-08-10T07:03:50Z</time>
      </trkpt>
      <trkpt lat="49.83495" lon="2.31389">
        <ele>108</ele>
        <time>2023-08-10T07:03:51Z</time>
      </trkpt>
      <trkpt lat="49.83494" lon="2.31387">
        <ele>108</ele>
        <time>2023-08-10T07:03:53Z</time>
      </trkpt>
      <trkpt lat="49.83493" lon="2.31385">
        <ele>108.1</ele>
        <time>2023-08-10T07:03:54Z</time>
      </trkpt>
      <trkpt lat="49.83492" lon="2.31383">
        <ele>108.1</ele>
        <time>2023-08-10T07:03:55Z</time>
      </trkpt>
      <trkpt lat="49.83492" lon="2.31381">
        <ele>108.1</ele>
        <time>2023-08-10T07:03:56Z</time>
      </trkpt>
      <trkpt lat="49.83491" lon="2.31379">
        <ele>108.1</ele>
        <time>2023-08-10T07:03:57Z</time>
      </trkpt>
      <trkpt lat="49.8349" lon="2.31378">
        <ele>108.1</ele>
        <time>2023-08-10T07:03:58Z</time>
      </trkpt>
      <trkpt lat="49.83489" lon="2.31375">
        <ele>108.1</ele>
        <time>2023-08-10T07:03:59Z</time>
      </trkpt>
      <trkpt lat="49.83488" lon="2.31374">
        <ele>108.1</ele>
        <time>2023-08-10T07:04:01Z</time>
      </trkpt>
      <trkpt lat="49.83487" lon="2.31373">
        <ele>108.1</ele>
        <time>2023-08-10T07:04:02Z</time>
      </trkpt>
      <trkpt lat="49.83486" lon="2.31371">
        <ele>108.1</ele>
        <time>2023-08-10T07:04:03Z</time>
      </trkpt>
      <trkpt lat="49.83486" lon="2.3137">
        <ele>108.1</ele>
        <time>2023-08-10T07:04:04Z</time>
      </trkpt>
      <trkpt lat="49.83485" lon="2.31369">
        <ele>108.1</ele>
        <time>2023-08-10T07:04:05Z</time>
      </trkpt>
      <trkpt lat="49.83484" lon="2.31366">
        <ele>108.2</ele>
        <time>2023-08-10T07:04:06Z</time>
      </trkpt>
      <trkpt lat="49.83483" lon="2.31365">
        <ele>108.2</ele>
        <time>2023-08-10T07:04:07Z</time>
      </trkpt>
      <trkpt lat="49.83483" lon="2.31364">
        <ele>108.2</ele>
        <time>2023-08-10T07:04:08Z</time>
      </trkpt>
      <trkpt lat="49.83482" lon="2.31363">
        <ele>108.2</ele>
        <time>2023-08-10T07:04:09Z</time>
      </trkpt>
      <trkpt lat="49.83481" lon="2.31361">
        <ele>108.2</ele>
        <time>2023-08-10T07:04:11Z</time>
      </trkpt>
      <trkpt lat="49.8348" lon="2.31359">
        <ele>108.2</ele>
        <time>2023-08-10T07:04:12Z</time>
      </trkpt>
      <trkpt lat="49.83479" lon="2.31358">
        <ele>108.2</ele>
        <time>2023-08-10T07:04:13Z</time>
      </trkpt>
      <trkpt lat="49.83478" lon="2.31356">
        <ele>108.2</ele>
        <time>2023-08-10T07:04:14Z</time>
      </trkpt>
      <trkpt lat="49.83477" lon="2.31355">
        <ele>108.2</ele>
        <time>2023-08-10T07:04:15Z</time>
      </trkpt>
      <trkpt lat="49.83477" lon="2.31353">
        <ele>108.2</ele>
        <time>2023-08-10T07:04:17Z</time>
      </trkpt>
      <trkpt lat="49.83475" lon="2.31351">
        <ele>108.3</ele>
        <time>2023-08-10T07:04:18Z</time>
      </trkpt>
      <trkpt lat="49.83474" lon="2.3135">
        <ele>108.3</ele>
        <time>2023-08-10T07:04:19Z</time>
      </trkpt>
      <trkpt lat="49.83474" lon="2.31349">
        <ele>108.3</ele>
        <time>2023-08-10T07:04:20Z</time>
      </trkpt>
      <trkpt lat="49.83472" lon="2.31347">
        <ele>108.3</ele>
        <time>2023-08-10T07:04:21Z</time>
      </trkpt>
      <trkpt lat="49.83471" lon="2.31346">
        <ele>108.3</ele>
        <time>2023-08-10T07:04:22Z</time>
      </trkpt>
      <trkpt lat="49.83471" lon="2.31346">
        <ele>108.3</ele>
        <time>2023-08-10T07:04:23Z</time>
      </trkpt>
      <trkpt lat="49.8347" lon="2.31344">
        <ele>108.3</ele>
        <time>2023-08-10T07:04:24Z</time>
      </trkpt>
      <trkpt lat="49.83469" lon="2.31343">
        <ele>108.3</ele>
        <time>2023-08-10T07:04:25Z</time>
      </trkpt>
      <trkpt lat="49.83468" lon="2.31342">
        <ele>108.3</ele>
        <time>2023-08-10T07:04:26Z</time>
      </trkpt>
      <trkpt lat="49.83467" lon="2.3134">
        <ele>108.3</ele>
        <time>2023-08-10T07:04:28Z</time>
      </trkpt>
      <trkpt lat="49.83466" lon="2.31339">
        <ele>108.3</ele>
        <time>2023-08-10T07:04:29Z</time>
      </trkpt>
      <trkpt lat="49.83465" lon="2.31337">
        <ele>108.3</ele>
        <time>2023-08-10T07:04:30Z</time>
      </trkpt>
      <trkpt lat="49.83464" lon="2.31336">
        <ele>108.3</ele>
        <time>2023-08-10T07:04:31Z</time>
      </trkpt>
      <trkpt lat="49.83463" lon="2.31335">
        <ele>108.3</ele>
        <time>2023-08-10T07:04:32Z</time>
      </trkpt>
      <trkpt lat="49.83462" lon="2.31333">
        <ele>108.3</ele>
        <time>2023-08-10T07:04:33Z</time>
      </trkpt>
      <trkpt lat="49.83461" lon="2.31332">
        <ele>108.3</ele>
        <time>2023-08-10T07:04:34Z</time>
      </trkpt>
      <trkpt lat="49.8346" lon="2.31331">
        <ele>108.3</ele>
        <time>2023-08-10T07:04:35Z</time>
      </trkpt>
      <trkpt lat="49.8346" lon="2.31329">
        <ele>108.3</ele>
        <time>2023-08-10T07:04:36Z</time>
      </trkpt>
      <trkpt lat="49.83459" lon="2.31328">
        <ele>108.3</ele>
        <time>2023-08-10T07:04:37Z</time>
      </trkpt>
      <trkpt lat="49.83457" lon="2.31326">
        <ele>108.3</ele>
        <time>2023-08-10T07:04:39Z</time>
      </trkpt>
      <trkpt lat="49.83457" lon="2.31325">
        <ele>108.3</ele>
        <time>2023-08-10T07:04:40Z</time>
      </trkpt>
      <trkpt lat="49.83456" lon="2.31324">
        <ele>108.3</ele>
        <time>2023-08-10T07:04:41Z</time>
      </trkpt>
      <trkpt lat="49.83455" lon="2.31323">
        <ele>108.3</ele>
        <time>2023-08-10T07:04:42Z</time>
      </trkpt>
      <trkpt lat="49.83454" lon="2.31321">
        <ele>108.3</ele>
        <time>2023-08-10T07:04:43Z</time>
      </trkpt>
      <trkpt lat="49.83454" lon="2.3132">
        <ele>108.3</ele>
        <time>2023-08-10T07:04:44Z</time>
      </trkpt>
      <trkpt lat="49.83452" lon="2.31318">
        <ele>108.3</ele>
        <time>2023-08-10T07:04:46Z</time>
      </trkpt>
      <trkpt lat="49.83452" lon="2.31317">
        <ele>108.3</ele>
        <time>2023-08-10T07:04:47Z</time>
      </trkpt>
      <trkpt lat="49.83451" lon="2.31316">
        <ele>108.3</ele>
        <time>2023-08-10T07:04:48Z</time>
      </trkpt>
      <trkpt lat="49.8345" lon="2.31313">
        <ele>108.3</ele>
        <time>2023-08-10T07:04:49Z</time>
      </trkpt>
      <trkpt lat="49.8345" lon="2.31312">
        <ele>108.3</ele>
        <time>2023-08-10T07:04:50Z</time>
      </trkpt>
      <trkpt lat="49.83449" lon="2.31311">
        <ele>108.3</ele>
        <time>2023-08-10T07:04:51Z</time>
      </trkpt>
      <trkpt lat="49.83448" lon="2.31309">
        <ele>108.3</ele>
        <time>2023-08-10T07:04:52Z</time>
      </trkpt>
      <trkpt lat="49.83447" lon="2.31307">
        <ele>108.3</ele>
        <time>2023-08-10T07:04:53Z</time>
      </trkpt>
      <trkpt lat="49.83447" lon="2.31306">
        <ele>108.3</ele>
        <time>2023-08-10T07:04:54Z</time>
      </trkpt>
      <trkpt lat="49.83446" lon="2.31305">
        <ele>108.3</ele>
        <time>2023-08-10T07:04:55Z</time>
      </trkpt>
      <trkpt lat="49.83445" lon="2.31303">
        <ele>108.3</ele>
        <time>2023-08-10T07:04:57Z</time>
      </trkpt>
      <trkpt lat="49.83445" lon="2.31301">
        <ele>108.3</ele>
        <time>2023-08-10T07:04:58Z</time>
      </trkpt>
      <trkpt lat="49.83444" lon="2.313">
        <ele>108.3</ele>
        <time>2023-08-10T07:04:59Z</time>
      </trkpt>
      <trkpt lat="49.83444" lon="2.31299">
        <ele>108.3</ele>
        <time>2023-08-10T07:05:00Z</time>
      </trkpt>
      <trkpt lat="49.83443" lon="2.31297">
        <ele>108.3</ele>
        <time>2023-08-10T07:05:01Z</time>
      </trkpt>
      <trkpt lat="49.83442" lon="2.31296">
        <ele>108.3</ele>
        <time>2023-08-10T07:05:02Z</time>
      </trkpt>
      <trkpt lat="49.83441" lon="2.31294">
        <ele>108.3</ele>
        <time>2023-08-10T07:05:04Z</time>
      </trkpt>
      <trkpt lat="49.8344" lon="2.31292">
        <ele>108.3</ele>
        <time>2023-08-10T07:05:05Z</time>
      </trkpt>
      <trkpt lat="49.83439" lon="2.31291">
        <ele>108.3</ele>
        <time>2023-08-10T07:05:06Z</time>
      </trkpt>
      <trkpt lat="49.83438" lon="2.31289">
        <ele>108.3</ele>
        <time>2023-08-10T07:05:08Z</time>
      </trkpt>
      <trkpt lat="49.83438" lon="2.31288">
        <ele>108.3</ele>
        <time>2023-08-10T07:05:09Z</time>
      </trkpt>
      <trkpt lat="49.83437" lon="2.31287">
        <ele>108.3</ele>
        <time>2023-08-10T07:05:10Z</time>
      </trkpt>
      <trkpt lat="49.83436" lon="2.31286">
        <ele>108.3</ele>
        <time>2023-08-10T07:05:11Z</time>
      </trkpt>
      <trkpt lat="49.83435" lon="2.31283">
        <ele>108.3</ele>
        <time>2023-08-10T07:05:12Z</time>
      </trkpt>
      <trkpt lat="49.83435" lon="2.31282">
        <ele>108.3</ele>
        <time>2023-08-10T07:05:14Z</time>
      </trkpt>
      <trkpt lat="49.83434" lon="2.31281">
        <ele>108.3</ele>
        <time>2023-08-10T07:05:15Z</time>
      </trkpt>
      <trkpt lat="49.83433" lon="2.31278">
        <ele>108.3</ele>
        <time>2023-08-10T07:05:16Z</time>
      </trkpt>
      <trkpt lat="49.83432" lon="2.31277">
        <ele>108.3</ele>
        <time>2023-08-10T07:05:17Z</time>
      </trkpt>
      <trkpt lat="49.83432" lon="2.31277">
        <ele>108.3</ele>
        <time>2023-08-10T07:05:18Z</time>
      </trkpt>
      <trkpt lat="49.8343" lon="2.31274">
        <ele>108.3</ele>
        <time>2023-08-10T07:05:19Z</time>
      </trkpt>
      <trkpt lat="49.8343" lon="2.31273">
        <ele>108.3</ele>
        <time>2023-08-10T07:05:20Z</time>
      </trkpt>
      <trkpt lat="49.83429" lon="2.31272">
        <ele>108.3</ele>
        <time>2023-08-10T07:05:22Z</time>
      </trkpt>
      <trkpt lat="49.83428" lon="2.31271">
        <ele>108.3</ele>
        <time>2023-08-10T07:05:23Z</time>
      </trkpt>
      <trkpt lat="49.83428" lon="2.31269">
        <ele>108.3</ele>
        <time>2023-08-10T07:05:24Z</time>
      </trkpt>
      <trkpt lat="49.83427" lon="2.31268">
        <ele>108.3</ele>
        <time>2023-08-10T07:05:25Z</time>
      </trkpt>
      <trkpt lat="49.83426" lon="2.31267">
        <ele>108.3</ele>
        <time>2023-08-10T07:05:26Z</time>
      </trkpt>
      <trkpt lat="49.83425" lon="2.31266">
        <ele>108.3</ele>
        <time>2023-08-10T07:05:27Z</time>
      </trkpt>
      <trkpt lat="49.83424" lon="2.31264">
        <ele>108.3</ele>
        <time>2023-08-10T07:05:29Z</time>
      </trkpt>
      <trkpt lat="49.83423" lon="2.31263">
        <ele>108.3</ele>
        <time>2023-08-10T07:05:30Z</time>
      </trkpt>
      <trkpt lat="49.83423" lon="2.31261">
        <ele>108.3</ele>
        <time>2023-08-10T07:05:31Z</time>
      </trkpt>
      <trkpt lat="49.83422" lon="2.3126">
        <ele>108.3</ele>
        <time>2023-08-10T07:05:32Z</time>
      </trkpt>
      <trkpt lat="49.83421" lon="2.31259">
        <ele>108.3</ele>
        <time>2023-08-10T07:05:33Z</time>
      </trkpt>
      <trkpt lat="49.8342" lon="2.31258">
        <ele>108.3</ele>
        <time>2023-08-10T07:05:34Z</time>
      </trkpt>
      <trkpt lat="49.83419" lon="2.31257">
        <ele>108.3</ele>
        <time>2023-08-10T07:05:35Z</time>
      </trkpt>
      <trkpt lat="49.83418" lon="2.31256">
        <ele>108.3</ele>
        <time>2023-08-10T07:05:36Z</time>
      </trkpt>
      <trkpt lat="49.83418" lon="2.31254">
        <ele>108.3</ele>
        <time>2023-08-10T07:05:37Z</time>
      </trkpt>
      <trkpt lat="49.83417" lon="2.31253">
        <ele>108.3</ele>
        <time>2023-08-10T07:05:39Z</time>
      </trkpt>
      <trkpt lat="49.83415" lon="2.31251">
        <ele>108.3</ele>
        <time>2023-08-10T07:05:40Z</time>
      </trkpt>
      <trkpt lat="49.83415" lon="2.3125">
        <ele>108.3</ele>
        <time>2023-08-10T07:05:41Z</time>
      </trkpt>
      <trkpt lat="49.83414" lon="2.31249">
        <ele>108.3</ele>
        <time>2023-08-10T07:05:42Z</time>
      </trkpt>
      <trkpt lat="49.83413" lon="2.31248">
        <ele>108.3</ele>
        <time>2023-08-10T07:05:43Z</time>
      </trkpt>
      <trkpt lat="49.83412" lon="2.31247">
        <ele>108.3</ele>
        <time>2023-08-10T07:05:44Z</time>
      </trkpt>
      <trkpt lat="49.83411" lon="2.31245">
        <ele>108.3</ele>
        <time>2023-08-10T07:05:46Z</time>
      </trkpt>
      <trkpt lat="49.8341" lon="2.31244">
        <ele>108.3</ele>
        <time>2023-08-10T07:05:47Z</time>
      </trkpt>
      <trkpt lat="49.83409" lon="2.31243">
        <ele>108.3</ele>
        <time>2023-08-10T07:05:48Z</time>
      </trkpt>
      <trkpt lat="49.83408" lon="2.31241">
        <ele>108.3</ele>
        <time>2023-08-10T07:05:49Z</time>
      </trkpt>
      <trkpt lat="49.83407" lon="2.3124">
        <ele>108.3</ele>
        <time>2023-08-10T07:05:50Z</time>
      </trkpt>
      <trkpt lat="49.83407" lon="2.31239">
        <ele>108.3</ele>
        <time>2023-08-10T07:05:51Z</time>
      </trkpt>
      <trkpt lat="49.83405" lon="2.31237">
        <ele>108.3</ele>
        <time>2023-08-10T07:05:53Z</time>
      </trkpt>
      <trkpt lat="49.83404" lon="2.31236">
        <ele>108.3</ele>
        <time>2023-08-10T07:05:54Z</time>
      </trkpt>
      <trkpt lat="49.83404" lon="2.31235">
        <ele>108.3</ele>
        <time>2023-08-10T07:05:55Z</time>
      </trkpt>
      <trkpt lat="49.83403" lon="2.31234">
        <ele>108.3</ele>
        <time>2023-08-10T07:05:56Z</time>
      </trkpt>
      <trkpt lat="49.83402" lon="2.31233">
        <ele>108.3</ele>
        <time>2023-08-10T07:05:57Z</time>
      </trkpt>
      <trkpt lat="49.83401" lon="2.31231">
        <ele>108.3</ele>
        <time>2023-08-10T07:05:59Z</time>
      </trkpt>
      <trkpt lat="49.834" lon="2.3123">
        <ele>108.3</ele>
        <time>2023-08-10T07:06:00Z</time>
      </trkpt>
      <trkpt lat="49.83399" lon="2.31228">
        <ele>108.3</ele>
        <time>2023-08-10T07:06:01Z</time>
      </trkpt>
      <trkpt lat="49.83398" lon="2.31227">
        <ele>108.3</ele>
        <time>2023-08-10T07:06:02Z</time>
      </trkpt>
      <trkpt lat="49.83398" lon="2.31226">
        <ele>108.3</ele>
        <time>2023-08-10T07:06:03Z</time>
      </trkpt>
      <trkpt lat="49.83396" lon="2.31223">
        <ele>108.3</ele>
        <time>2023-08-10T07:06:04Z</time>
      </trkpt>
      <trkpt lat="49.83396" lon="2.31222">
        <ele>108.3</ele>
        <time>2023-08-10T07:06:05Z</time>
      </trkpt>
      <trkpt lat="49.83395" lon="2.31221">
        <ele>108.3</ele>
        <time>2023-08-10T07:06:06Z</time>
      </trkpt>
      <trkpt lat="49.83394" lon="2.31219">
        <ele>108.3</ele>
        <time>2023-08-10T07:06:07Z</time>
      </trkpt>
      <trkpt lat="49.83393" lon="2.31218">
        <ele>108.3</ele>
        <time>2023-08-10T07:06:09Z</time>
      </trkpt>
      <trkpt lat="49.83393" lon="2.31216">
        <ele>108.3</ele>
        <time>2023-08-10T07:06:10Z</time>
      </trkpt>
      <trkpt lat="49.83392" lon="2.31214">
        <ele>108.3</ele>
        <time>2023-08-10T07:06:11Z</time>
      </trkpt>
      <trkpt lat="49.83391" lon="2.31213">
        <ele>108.3</ele>
        <time>2023-08-10T07:06:12Z</time>
      </trkpt>
      <trkpt lat="49.8339" lon="2.31211">
        <ele>108.3</ele>
        <time>2023-08-10T07:06:13Z</time>
      </trkpt>
      <trkpt lat="49.83389" lon="2.31209">
        <ele>108.3</ele>
        <time>2023-08-10T07:06:14Z</time>
      </trkpt>
      <trkpt lat="49.83389" lon="2.31207">
        <ele>108.3</ele>
        <time>2023-08-10T07:06:15Z</time>
      </trkpt>
      <trkpt lat="49.83388" lon="2.31205">
        <ele>108.3</ele>
        <time>2023-08-10T07:06:17Z</time>
      </trkpt>
      <trkpt lat="49.83388" lon="2.31203">
        <ele>108.4</ele>
        <time>2023-08-10T07:06:18Z</time>
      </trkpt>
      <trkpt lat="49.83389" lon="2.31201">
        <ele>108.4</ele>
        <time>2023-08-10T07:06:19Z</time>
      </trkpt>
      <trkpt lat="49.8339" lon="2.31198">
        <ele>108.4</ele>
        <time>2023-08-10T07:06:21Z</time>
      </trkpt>
      <trkpt lat="49.8339" lon="2.31196">
        <ele>108.4</ele>
        <time>2023-08-10T07:06:23Z</time>
      </trkpt>
      <trkpt lat="49.83389" lon="2.31195">
        <ele>108.4</ele>
        <time>2023-08-10T07:06:24Z</time>
      </trkpt>
      <trkpt lat="49.83388" lon="2.31194">
        <ele>108.4</ele>
        <time>2023-08-10T07:06:25Z</time>
      </trkpt>
      <trkpt lat="49.83387" lon="2.31193">
        <ele>108.4</ele>
        <time>2023-08-10T07:06:27Z</time>
      </trkpt>
      <trkpt lat="49.83386" lon="2.31192">
        <ele>108.4</ele>
        <time>2023-08-10T07:06:28Z</time>
      </trkpt>
      <trkpt lat="49.83385" lon="2.31192">
        <ele>108.4</ele>
        <time>2023-08-10T07:06:29Z</time>
      </trkpt>
      <trkpt lat="49.83384" lon="2.31193">
        <ele>108.5</ele>
        <time>2023-08-10T07:06:30Z</time>
      </trkpt>
      <trkpt lat="49.83383" lon="2.31193">
        <ele>108.5</ele>
        <time>2023-08-10T07:06:31Z</time>
      </trkpt>
      <trkpt lat="49.83382" lon="2.31194">
        <ele>108.5</ele>
        <time>2023-08-10T07:06:32Z</time>
      </trkpt>
      <trkpt lat="49.83381" lon="2.31196">
        <ele>108.5</ele>
        <time>2023-08-10T07:06:33Z</time>
      </trkpt>
      <trkpt lat="49.8338" lon="2.31197">
        <ele>108.5</ele>
        <time>2023-08-10T07:06:35Z</time>
      </trkpt>
      <trkpt lat="49.8338" lon="2.31198">
        <ele>108.5</ele>
        <time>2023-08-10T07:06:36Z</time>
      </trkpt>
      <trkpt lat="49.83379" lon="2.312">
        <ele>108.5</ele>
        <time>2023-08-10T07:06:37Z</time>
      </trkpt>
      <trkpt lat="49.83379" lon="2.31203">
        <ele>108.5</ele>
        <time>2023-08-10T07:06:38Z</time>
      </trkpt>
      <trkpt lat="49.83378" lon="2.31206">
        <ele>108.6</ele>
        <time>2023-08-10T07:06:40Z</time>
      </trkpt>
      <trkpt lat="49.83377" lon="2.31207">
        <ele>108.6</ele>
        <time>2023-08-10T07:06:41Z</time>
      </trkpt>
      <trkpt lat="49.83377" lon="2.31208">
        <ele>108.6</ele>
        <time>2023-08-10T07:06:42Z</time>
      </trkpt>
      <trkpt lat="49.83377" lon="2.3121">
        <ele>108.6</ele>
        <time>2023-08-10T07:06:43Z</time>
      </trkpt>
      <trkpt lat="49.83376" lon="2.31213">
        <ele>108.6</ele>
        <time>2023-08-10T07:06:44Z</time>
      </trkpt>
      <trkpt lat="49.83376" lon="2.31215">
        <ele>108.6</ele>
        <time>2023-08-10T07:06:46Z</time>
      </trkpt>
      <trkpt lat="49.83375" lon="2.31218">
        <ele>108.6</ele>
        <time>2023-08-10T07:06:47Z</time>
      </trkpt>
      <trkpt lat="49.83374" lon="2.3122">
        <ele>108.6</ele>
        <time>2023-08-10T07:06:48Z</time>
      </trkpt>
      <trkpt lat="49.83374" lon="2.31222">
        <ele>108.7</ele>
        <time>2023-08-10T07:06:49Z</time>
      </trkpt>
      <trkpt lat="49.83373" lon="2.31224">
        <ele>108.7</ele>
        <time>2023-08-10T07:06:50Z</time>
      </trkpt>
      <trkpt lat="49.83373" lon="2.31226">
        <ele>108.7</ele>
        <time>2023-08-10T07:06:51Z</time>
      </trkpt>
      <trkpt lat="49.83372" lon="2.31229">
        <ele>108.7</ele>
        <time>2023-08-10T07:06:53Z</time>
      </trkpt>
      <trkpt lat="49.83371" lon="2.31231">
        <ele>108.7</ele>
        <time>2023-08-10T07:06:54Z</time>
      </trkpt>
      <trkpt lat="49.83371" lon="2.31233">
        <ele>108.7</ele>
        <time>2023-08-10T07:06:55Z</time>
      </trkpt>
      <trkpt lat="49.8337" lon="2.31235">
        <ele>108.7</ele>
        <time>2023-08-10T07:06:56Z</time>
      </trkpt>
      <trkpt lat="49.83369" lon="2.31237">
        <ele>108.8</ele>
        <time>2023-08-10T07:06:57Z</time>
      </trkpt>
      <trkpt lat="49.83368" lon="2.31239">
        <ele>108.8</ele>
        <time>2023-08-10T07:06:59Z</time>
      </trkpt>
      <trkpt lat="49.83368" lon="2.31241">
        <ele>108.8</ele>
        <time>2023-08-10T07:07:00Z</time>
      </trkpt>
      <trkpt lat="49.83367" lon="2.31243">
        <ele>108.8</ele>
        <time>2023-08-10T07:07:01Z</time>
      </trkpt>
      <trkpt lat="49.83366" lon="2.31245">
        <ele>108.8</ele>
        <time>2023-08-10T07:07:02Z</time>
      </trkpt>
      <trkpt lat="49.83365" lon="2.31247">
        <ele>108.8</ele>
        <time>2023-08-10T07:07:03Z</time>
      </trkpt>
      <trkpt lat="49.83365" lon="2.31248">
        <ele>108.8</ele>
        <time>2023-08-10T07:07:04Z</time>
      </trkpt>
      <trkpt lat="49.83363" lon="2.3125">
        <ele>108.8</ele>
        <time>2023-08-10T07:07:06Z</time>
      </trkpt>
      <trkpt lat="49.83363" lon="2.31251">
        <ele>108.8</ele>
        <time>2023-08-10T07:07:07Z</time>
      </trkpt>
      <trkpt lat="49.83363" lon="2.31252">
        <ele>108.9</ele>
        <time>2023-08-10T07:07:08Z</time>
      </trkpt>
      <trkpt lat="49.83362" lon="2.31253">
        <ele>108.9</ele>
        <time>2023-08-10T07:07:09Z</time>
      </trkpt>
      <trkpt lat="49.83361" lon="2.31255">
        <ele>108.9</ele>
        <time>2023-08-10T07:07:10Z</time>
      </trkpt>
      <trkpt lat="49.8336" lon="2.31256">
        <ele>108.9</ele>
        <time>2023-08-10T07:07:11Z</time>
      </trkpt>
      <trkpt lat="49.83359" lon="2.31257">
        <ele>108.9</ele>
        <time>2023-08-10T07:07:12Z</time>
      </trkpt>
      <trkpt lat="49.83359" lon="2.31258">
        <ele>108.9</ele>
        <time>2023-08-10T07:07:13Z</time>
      </trkpt>
      <trkpt lat="49.83358" lon="2.31259">
        <ele>108.9</ele>
        <time>2023-08-10T07:07:14Z</time>
      </trkpt>
      <trkpt lat="49.83357" lon="2.31261">
        <ele>108.9</ele>
        <time>2023-08-10T07:07:15Z</time>
      </trkpt>
      <trkpt lat="49.83355" lon="2.31262">
        <ele>108.9</ele>
        <time>2023-08-10T07:07:17Z</time>
      </trkpt>
      <trkpt lat="49.83354" lon="2.31263">
        <ele>108.9</ele>
        <time>2023-08-10T07:07:18Z</time>
      </trkpt>
      <trkpt lat="49.83354" lon="2.31264">
        <ele>108.9</ele>
        <time>2023-08-10T07:07:19Z</time>
      </trkpt>
      <trkpt lat="49.83353" lon="2.31265">
        <ele>109</ele>
        <time>2023-08-10T07:07:20Z</time>
      </trkpt>
      <trkpt lat="49.83351" lon="2.31268">
        <ele>109</ele>
        <time>2023-08-10T07:07:22Z</time>
      </trkpt>
      <trkpt lat="49.83351" lon="2.31269">
        <ele>109</ele>
        <time>2023-08-10T07:07:23Z</time>
      </trkpt>
      <trkpt lat="49.8335" lon="2.3127">
        <ele>109</ele>
        <time>2023-08-10T07:07:24Z</time>
      </trkpt>
      <trkpt lat="49.83349" lon="2.31272">
        <ele>109</ele>
        <time>2023-08-10T07:07:25Z</time>
      </trkpt>
      <trkpt lat="49.83348" lon="2.31273">
        <ele>109</ele>
        <time>2023-08-10T07:07:26Z</time>
      </trkpt>
      <trkpt lat="49.83348" lon="2.31274">
        <ele>109</ele>
        <time>2023-08-10T07:07:27Z</time>
      </trkpt>
      <trkpt lat="49.83346" lon="2.31277">
        <ele>109</ele>
        <time>2023-08-10T07:07:28Z</time>
      </trkpt>
      <trkpt lat="49.83345" lon="2.31278">
        <ele>109</ele>
        <time>2023-08-10T07:07:30Z</time>
      </trkpt>
      <trkpt lat="49.83345" lon="2.3128">
        <ele>109</ele>
        <time>2023-08-10T07:07:31Z</time>
      </trkpt>
      <trkpt lat="49.83344" lon="2.31281">
        <ele>109</ele>
        <time>2023-08-10T07:07:32Z</time>
      </trkpt>
      <trkpt lat="49.83343" lon="2.31282">
        <ele>109</ele>
        <time>2023-08-10T07:07:33Z</time>
      </trkpt>
      <trkpt lat="49.83342" lon="2.31284">
        <ele>109</ele>
        <time>2023-08-10T07:07:34Z</time>
      </trkpt>
      <trkpt lat="49.83341" lon="2.31285">
        <ele>109</ele>
        <time>2023-08-10T07:07:35Z</time>
      </trkpt>
      <trkpt lat="49.8334" lon="2.31288">
        <ele>109</ele>
        <time>2023-08-10T07:07:36Z</time>
      </trkpt>
      <trkpt lat="49.8334" lon="2.31289">
        <ele>109</ele>
        <time>2023-08-10T07:07:38Z</time>
      </trkpt>
      <trkpt lat="49.83339" lon="2.3129">
        <ele>109</ele>
        <time>2023-08-10T07:07:39Z</time>
      </trkpt>
      <trkpt lat="49.83338" lon="2.31291">
        <ele>109</ele>
        <time>2023-08-10T07:07:40Z</time>
      </trkpt>
      <trkpt lat="49.83337" lon="2.31292">
        <ele>109</ele>
        <time>2023-08-10T07:07:41Z</time>
      </trkpt>
      <trkpt lat="49.83337" lon="2.31293">
        <ele>109</ele>
        <time>2023-08-10T07:07:42Z</time>
      </trkpt>
      <trkpt lat="49.83336" lon="2.31294">
        <ele>109</ele>
        <time>2023-08-10T07:07:43Z</time>
      </trkpt>
      <trkpt lat="49.83335" lon="2.31295">
        <ele>109</ele>
        <time>2023-08-10T07:07:45Z</time>
      </trkpt>
      <trkpt lat="49.83334" lon="2.31297">
        <ele>109</ele>
        <time>2023-08-10T07:07:46Z</time>
      </trkpt>
      <trkpt lat="49.83333" lon="2.31299">
        <ele>109</ele>
        <time>2023-08-10T07:07:47Z</time>
      </trkpt>
      <trkpt lat="49.83332" lon="2.313">
        <ele>109</ele>
        <time>2023-08-10T07:07:48Z</time>
      </trkpt>
      <trkpt lat="49.83331" lon="2.31301">
        <ele>109</ele>
        <time>2023-08-10T07:07:49Z</time>
      </trkpt>
      <trkpt lat="49.83331" lon="2.31302">
        <ele>109</ele>
        <time>2023-08-10T07:07:50Z</time>
      </trkpt>
      <trkpt lat="49.8333" lon="2.31303">
        <ele>109</ele>
        <time>2023-08-10T07:07:51Z</time>
      </trkpt>
      <trkpt lat="49.83329" lon="2.31304">
        <ele>109</ele>
        <time>2023-08-10T07:07:52Z</time>
      </trkpt>
      <trkpt lat="49.83328" lon="2.31306">
        <ele>109</ele>
        <time>2023-08-10T07:07:54Z</time>
      </trkpt>
      <trkpt lat="49.83327" lon="2.31307">
        <ele>109</ele>
        <time>2023-08-10T07:07:55Z</time>
      </trkpt>
      <trkpt lat="49.83327" lon="2.31308">
        <ele>109</ele>
        <time>2023-08-10T07:07:56Z</time>
      </trkpt>
      <trkpt lat="49.83326" lon="2.3131">
        <ele>109</ele>
        <time>2023-08-10T07:07:57Z</time>
      </trkpt>
      <trkpt lat="49.83326" lon="2.31311">
        <ele>109</ele>
        <time>2023-08-10T07:07:58Z</time>
      </trkpt>
      <trkpt lat="49.83325" lon="2.31313">
        <ele>109</ele>
        <time>2023-08-10T07:07:59Z</time>
      </trkpt>
      <trkpt lat="49.83325" lon="2.31314">
        <ele>109</ele>
        <time>2023-08-10T07:08:00Z</time>
      </trkpt>
      <trkpt lat="49.83324" lon="2.31315">
        <ele>109</ele>
        <time>2023-08-10T07:08:01Z</time>
      </trkpt>
      <trkpt lat="49.83324" lon="2.31317">
        <ele>109</ele>
        <time>2023-08-10T07:08:02Z</time>
      </trkpt>
      <trkpt lat="49.83323" lon="2.31318">
        <ele>109</ele>
        <time>2023-08-10T07:08:03Z</time>
      </trkpt>
      <trkpt lat="49.83322" lon="2.31319">
        <ele>109</ele>
        <time>2023-08-10T07:08:04Z</time>
      </trkpt>
      <trkpt lat="49.83322" lon="2.31321">
        <ele>109</ele>
        <time>2023-08-10T07:08:06Z</time>
      </trkpt>
      <trkpt lat="49.83321" lon="2.31322">
        <ele>109</ele>
        <time>2023-08-10T07:08:07Z</time>
      </trkpt>
      <trkpt lat="49.83321" lon="2.31323">
        <ele>109</ele>
        <time>2023-08-10T07:08:08Z</time>
      </trkpt>
      <trkpt lat="49.8332" lon="2.31324">
        <ele>109</ele>
        <time>2023-08-10T07:08:09Z</time>
      </trkpt>
      <trkpt lat="49.8332" lon="2.31326">
        <ele>109</ele>
        <time>2023-08-10T07:08:10Z</time>
      </trkpt>
      <trkpt lat="49.83319" lon="2.31327">
        <ele>109</ele>
        <time>2023-08-10T07:08:11Z</time>
      </trkpt>
      <trkpt lat="49.83319" lon="2.31329">
        <ele>109</ele>
        <time>2023-08-10T07:08:12Z</time>
      </trkpt>
      <trkpt lat="49.83318" lon="2.3133">
        <ele>109</ele>
        <time>2023-08-10T07:08:13Z</time>
      </trkpt>
      <trkpt lat="49.83317" lon="2.31332">
        <ele>109</ele>
        <time>2023-08-10T07:08:15Z</time>
      </trkpt>
      <trkpt lat="49.83317" lon="2.31334">
        <ele>109</ele>
        <time>2023-08-10T07:08:16Z</time>
      </trkpt>
      <trkpt lat="49.83316" lon="2.31336">
        <ele>109</ele>
        <time>2023-08-10T07:08:17Z</time>
      </trkpt>
      <trkpt lat="49.83315" lon="2.31337">
        <ele>109</ele>
        <time>2023-08-10T07:08:18Z</time>
      </trkpt>
      <trkpt lat="49.83315" lon="2.31339">
        <ele>109</ele>
        <time>2023-08-10T07:08:19Z</time>
      </trkpt>
      <trkpt lat="49.83314" lon="2.31342">
        <ele>109</ele>
        <time>2023-08-10T07:08:20Z</time>
      </trkpt>
      <trkpt lat="49.83314" lon="2.31343">
        <ele>109</ele>
        <time>2023-08-10T07:08:22Z</time>
      </trkpt>
      <trkpt lat="49.83313" lon="2.31344">
        <ele>109</ele>
        <time>2023-08-10T07:08:23Z</time>
      </trkpt>
      <trkpt lat="49.83312" lon="2.31347">
        <ele>109.1</ele>
        <time>2023-08-10T07:08:24Z</time>
      </trkpt>
      <trkpt lat="49.83312" lon="2.31348">
        <ele>109.1</ele>
        <time>2023-08-10T07:08:25Z</time>
      </trkpt>
      <trkpt lat="49.83312" lon="2.31349">
        <ele>109.1</ele>
        <time>2023-08-10T07:08:26Z</time>
      </trkpt>
      <trkpt lat="49.83311" lon="2.31351">
        <ele>109.1</ele>
        <time>2023-08-10T07:08:27Z</time>
      </trkpt>
      <trkpt lat="49.83311" lon="2.31352">
        <ele>109.1</ele>
        <time>2023-08-10T07:08:28Z</time>
      </trkpt>
      <trkpt lat="49.8331" lon="2.31355">
        <ele>109.1</ele>
        <time>2023-08-10T07:08:30Z</time>
      </trkpt>
      <trkpt lat="49.83309" lon="2.31358">
        <ele>109.1</ele>
        <time>2023-08-10T07:08:31Z</time>
      </trkpt>
      <trkpt lat="49.83309" lon="2.31359">
        <ele>109.1</ele>
        <time>2023-08-10T07:08:32Z</time>
      </trkpt>
      <trkpt lat="49.83309" lon="2.3136">
        <ele>109.1</ele>
        <time>2023-08-10T07:08:33Z</time>
      </trkpt>
      <trkpt lat="49.83308" lon="2.31361">
        <ele>109.1</ele>
        <time>2023-08-10T07:08:35Z</time>
      </trkpt>
      <trkpt lat="49.83307" lon="2.31363">
        <ele>109.2</ele>
        <time>2023-08-10T07:08:36Z</time>
      </trkpt>
      <trkpt lat="49.83307" lon="2.31364">
        <ele>109.2</ele>
        <time>2023-08-10T07:08:37Z</time>
      </trkpt>
      <trkpt lat="49.83306" lon="2.31365">
        <ele>109.2</ele>
        <time>2023-08-10T07:08:38Z</time>
      </trkpt>
      <trkpt lat="49.83305" lon="2.31367">
        <ele>109.2</ele>
        <time>2023-08-10T07:08:39Z</time>
      </trkpt>
      <trkpt lat="49.83305" lon="2.31368">
        <ele>109.2</ele>
        <time>2023-08-10T07:08:40Z</time>
      </trkpt>
      <trkpt lat="49.83304" lon="2.3137">
        <ele>109.2</ele>
        <time>2023-08-10T07:08:41Z</time>
      </trkpt>
      <trkpt lat="49.83303" lon="2.31371">
        <ele>109.2</ele>
        <time>2023-08-10T07:08:42Z</time>
      </trkpt>
      <trkpt lat="49.83303" lon="2.31373">
        <ele>109.2</ele>
        <time>2023-08-10T07:08:44Z</time>
      </trkpt>
      <trkpt lat="49.83302" lon="2.31374">
        <ele>109.2</ele>
        <time>2023-08-10T07:08:45Z</time>
      </trkpt>
      <trkpt lat="49.83302" lon="2.31376">
        <ele>109.2</ele>
        <time>2023-08-10T07:08:46Z</time>
      </trkpt>
      <trkpt lat="49.83301" lon="2.31377">
        <ele>109.2</ele>
        <time>2023-08-10T07:08:47Z</time>
      </trkpt>
      <trkpt lat="49.83299" lon="2.3138">
        <ele>109.3</ele>
        <time>2023-08-10T07:08:48Z</time>
      </trkpt>
      <trkpt lat="49.83299" lon="2.31381">
        <ele>109.3</ele>
        <time>2023-08-10T07:08:49Z</time>
      </trkpt>
      <trkpt lat="49.83298" lon="2.31382">
        <ele>109.3</ele>
        <time>2023-08-10T07:08:50Z</time>
      </trkpt>
      <trkpt lat="49.83297" lon="2.31383">
        <ele>109.3</ele>
        <time>2023-08-10T07:08:51Z</time>
      </trkpt>
      <trkpt lat="49.83296" lon="2.31385">
        <ele>109.3</ele>
        <time>2023-08-10T07:08:52Z</time>
      </trkpt>
      <trkpt lat="49.83295" lon="2.31386">
        <ele>109.3</ele>
        <time>2023-08-10T07:08:54Z</time>
      </trkpt>
      <trkpt lat="49.83294" lon="2.31388">
        <ele>109.3</ele>
        <time>2023-08-10T07:08:55Z</time>
      </trkpt>
      <trkpt lat="49.83293" lon="2.3139">
        <ele>109.3</ele>
        <time>2023-08-10T07:08:56Z</time>
      </trkpt>
      <trkpt lat="49.83292" lon="2.31391">
        <ele>109.3</ele>
        <time>2023-08-10T07:08:57Z</time>
      </trkpt>
      <trkpt lat="49.83292" lon="2.31392">
        <ele>109.3</ele>
        <time>2023-08-10T07:08:58Z</time>
      </trkpt>
      <trkpt lat="49.8329" lon="2.31394">
        <ele>109.4</ele>
        <time>2023-08-10T07:08:59Z</time>
      </trkpt>
      <trkpt lat="49.8329" lon="2.31395">
        <ele>109.4</ele>
        <time>2023-08-10T07:09:00Z</time>
      </trkpt>
      <trkpt lat="49.83289" lon="2.31396">
        <ele>109.4</ele>
        <time>2023-08-10T07:09:01Z</time>
      </trkpt>
      <trkpt lat="49.83288" lon="2.31398">
        <ele>109.4</ele>
        <time>2023-08-10T07:09:03Z</time>
      </trkpt>
      <trkpt lat="49.83288" lon="2.31399">
        <ele>109.4</ele>
        <time>2023-08-10T07:09:04Z</time>
      </trkpt>
      <trkpt lat="49.83287" lon="2.314">
        <ele>109.4</ele>
        <time>2023-08-10T07:09:05Z</time>
      </trkpt>
      <trkpt lat="49.83286" lon="2.31401">
        <ele>109.4</ele>
        <time>2023-08-10T07:09:06Z</time>
      </trkpt>
      <trkpt lat="49.83285" lon="2.31403">
        <ele>109.4</ele>
        <time>2023-08-10T07:09:07Z</time>
      </trkpt>
      <trkpt lat="49.83284" lon="2.31404">
        <ele>109.4</ele>
        <time>2023-08-10T07:09:09Z</time>
      </trkpt>
      <trkpt lat="49.83283" lon="2.31406">
        <ele>109.5</ele>
        <time>2023-08-10T07:09:10Z</time>
      </trkpt>
      <trkpt lat="49.83282" lon="2.31407">
        <ele>109.5</ele>
        <time>2023-08-10T07:09:11Z</time>
      </trkpt>
      <trkpt lat="49.83281" lon="2.31409">
        <ele>109.5</ele>
        <time>2023-08-10T07:09:12Z</time>
      </trkpt>
      <trkpt lat="49.8328" lon="2.3141">
        <ele>109.5</ele>
        <time>2023-08-10T07:09:13Z</time>
      </trkpt>
      <trkpt lat="49.8328" lon="2.31411">
        <ele>109.5</ele>
        <time>2023-08-10T07:09:14Z</time>
      </trkpt>
      <trkpt lat="49.83278" lon="2.31413">
        <ele>109.5</ele>
        <time>2023-08-10T07:09:16Z</time>
      </trkpt>
      <trkpt lat="49.83278" lon="2.31414">
        <ele>109.5</ele>
        <time>2023-08-10T07:09:17Z</time>
      </trkpt>
      <trkpt lat="49.83277" lon="2.31415">
        <ele>109.5</ele>
        <time>2023-08-10T07:09:18Z</time>
      </trkpt>
      <trkpt lat="49.83277" lon="2.31417">
        <ele>109.5</ele>
        <time>2023-08-10T07:09:19Z</time>
      </trkpt>
      <trkpt lat="49.83276" lon="2.31418">
        <ele>109.6</ele>
        <time>2023-08-10T07:09:20Z</time>
      </trkpt>
      <trkpt lat="49.83275" lon="2.31419">
        <ele>109.6</ele>
        <time>2023-08-10T07:09:21Z</time>
      </trkpt>
      <trkpt lat="49.83275" lon="2.3142">
        <ele>109.6</ele>
        <time>2023-08-10T07:09:22Z</time>
      </trkpt>
      <trkpt lat="49.83274" lon="2.31421">
        <ele>109.6</ele>
        <time>2023-08-10T07:09:23Z</time>
      </trkpt>
      <trkpt lat="49.83274" lon="2.31422">
        <ele>109.6</ele>
        <time>2023-08-10T07:09:24Z</time>
      </trkpt>
      <trkpt lat="49.83273" lon="2.31424">
        <ele>109.6</ele>
        <time>2023-08-10T07:09:26Z</time>
      </trkpt>
      <trkpt lat="49.83273" lon="2.31425">
        <ele>109.6</ele>
        <time>2023-08-10T07:09:27Z</time>
      </trkpt>
      <trkpt lat="49.83272" lon="2.31427">
        <ele>109.6</ele>
        <time>2023-08-10T07:09:28Z</time>
      </trkpt>
      <trkpt lat="49.83271" lon="2.31428">
        <ele>109.6</ele>
        <time>2023-08-10T07:09:29Z</time>
      </trkpt>
      <trkpt lat="49.83271" lon="2.3143">
        <ele>109.6</ele>
        <time>2023-08-10T07:09:30Z</time>
      </trkpt>
      <trkpt lat="49.8327" lon="2.31431">
        <ele>109.7</ele>
        <time>2023-08-10T07:09:31Z</time>
      </trkpt>
      <trkpt lat="49.83269" lon="2.31432">
        <ele>109.7</ele>
        <time>2023-08-10T07:09:33Z</time>
      </trkpt>
      <trkpt lat="49.83269" lon="2.31434">
        <ele>109.7</ele>
        <time>2023-08-10T07:09:34Z</time>
      </trkpt>
      <trkpt lat="49.83268" lon="2.31435">
        <ele>109.7</ele>
        <time>2023-08-10T07:09:35Z</time>
      </trkpt>
      <trkpt lat="49.83267" lon="2.31437">
        <ele>109.7</ele>
        <time>2023-08-10T07:09:36Z</time>
      </trkpt>
      <trkpt lat="49.83266" lon="2.3144">
        <ele>109.7</ele>
        <time>2023-08-10T07:09:37Z</time>
      </trkpt>
      <trkpt lat="49.83266" lon="2.31441">
        <ele>109.7</ele>
        <time>2023-08-10T07:09:38Z</time>
      </trkpt>
      <trkpt lat="49.83266" lon="2.31442">
        <ele>109.7</ele>
        <time>2023-08-10T07:09:39Z</time>
      </trkpt>
      <trkpt lat="49.83264" lon="2.31445">
        <ele>109.8</ele>
        <time>2023-08-10T07:09:40Z</time>
      </trkpt>
      <trkpt lat="49.83264" lon="2.31446">
        <ele>109.8</ele>
        <time>2023-08-10T07:09:41Z</time>
      </trkpt>
      <trkpt lat="49.83263" lon="2.31447">
        <ele>109.8</ele>
        <time>2023-08-10T07:09:42Z</time>
      </trkpt>
      <trkpt lat="49.83263" lon="2.31449">
        <ele>109.8</ele>
        <time>2023-08-10T07:09:44Z</time>
      </trkpt>
      <trkpt lat="49.83262" lon="2.3145">
        <ele>109.8</ele>
        <time>2023-08-10T07:09:45Z</time>
      </trkpt>
      <trkpt lat="49.83262" lon="2.31451">
        <ele>109.8</ele>
        <time>2023-08-10T07:09:46Z</time>
      </trkpt>
      <trkpt lat="49.83261" lon="2.31452">
        <ele>109.8</ele>
        <time>2023-08-10T07:09:47Z</time>
      </trkpt>
      <trkpt lat="49.8326" lon="2.31454">
        <ele>109.8</ele>
        <time>2023-08-10T07:09:48Z</time>
      </trkpt>
      <trkpt lat="49.8326" lon="2.31455">
        <ele>109.8</ele>
        <time>2023-08-10T07:09:49Z</time>
      </trkpt>
      <trkpt lat="49.83259" lon="2.31458">
        <ele>109.8</ele>
        <time>2023-08-10T07:09:50Z</time>
      </trkpt>
      <trkpt lat="49.83258" lon="2.31459">
        <ele>109.8</ele>
        <time>2023-08-10T07:09:52Z</time>
      </trkpt>
      <trkpt lat="49.83258" lon="2.3146">
        <ele>109.8</ele>
        <time>2023-08-10T07:09:53Z</time>
      </trkpt>
      <trkpt lat="49.83257" lon="2.31462">
        <ele>109.8</ele>
        <time>2023-08-10T07:09:54Z</time>
      </trkpt>
      <trkpt lat="49.83256" lon="2.31463">
        <ele>109.8</ele>
        <time>2023-08-10T07:09:55Z</time>
      </trkpt>
      <trkpt lat="49.83256" lon="2.31465">
        <ele>109.8</ele>
        <time>2023-08-10T07:09:56Z</time>
      </trkpt>
      <trkpt lat="49.83255" lon="2.31467">
        <ele>109.9</ele>
        <time>2023-08-10T07:09:57Z</time>
      </trkpt>
      <trkpt lat="49.83254" lon="2.31469">
        <ele>109.9</ele>
        <time>2023-08-10T07:09:58Z</time>
      </trkpt>
      <trkpt lat="49.83254" lon="2.3147">
        <ele>109.9</ele>
        <time>2023-08-10T07:10:00Z</time>
      </trkpt>
      <trkpt lat="49.83253" lon="2.31471">
        <ele>109.9</ele>
        <time>2023-08-10T07:10:01Z</time>
      </trkpt>
      <trkpt lat="49.83253" lon="2.31472">
        <ele>109.9</ele>
        <time>2023-08-10T07:10:02Z</time>
      </trkpt>
      <trkpt lat="49.83252" lon="2.31474">
        <ele>109.9</ele>
        <time>2023-08-10T07:10:03Z</time>
      </trkpt>
      <trkpt lat="49.83251" lon="2.31475">
        <ele>109.9</ele>
        <time>2023-08-10T07:10:04Z</time>
      </trkpt>
      <trkpt lat="49.83251" lon="2.31476">
        <ele>109.9</ele>
        <time>2023-08-10T07:10:05Z</time>
      </trkpt>
      <trkpt lat="49.8325" lon="2.31478">
        <ele>109.9</ele>
        <time>2023-08-10T07:10:06Z</time>
      </trkpt>
      <trkpt lat="49.83249" lon="2.31479">
        <ele>109.9</ele>
        <time>2023-08-10T07:10:07Z</time>
      </trkpt>
      <trkpt lat="49.83249" lon="2.3148">
        <ele>109.9</ele>
        <time>2023-08-10T07:10:08Z</time>
      </trkpt>
      <trkpt lat="49.83248" lon="2.31481">
        <ele>109.9</ele>
        <time>2023-08-10T07:10:10Z</time>
      </trkpt>
      <trkpt lat="49.83247" lon="2.31483">
        <ele>109.9</ele>
        <time>2023-08-10T07:10:11Z</time>
      </trkpt>
      <trkpt lat="49.83246" lon="2.31484">
        <ele>109.9</ele>
        <time>2023-08-10T07:10:12Z</time>
      </trkpt>
      <trkpt lat="49.83245" lon="2.31485">
        <ele>109.9</ele>
        <time>2023-08-10T07:10:13Z</time>
      </trkpt>
      <trkpt lat="49.83244" lon="2.31487">
        <ele>109.9</ele>
        <time>2023-08-10T07:10:14Z</time>
      </trkpt>
      <trkpt lat="49.83243" lon="2.31488">
        <ele>109.9</ele>
        <time>2023-08-10T07:10:15Z</time>
      </trkpt>
      <trkpt lat="49.83242" lon="2.31489">
        <ele>109.9</ele>
        <time>2023-08-10T07:10:16Z</time>
      </trkpt>
      <trkpt lat="49.8324" lon="2.31491">
        <ele>109.9</ele>
        <time>2023-08-10T07:10:17Z</time>
      </trkpt>
      <trkpt lat="49.8324" lon="2.31493">
        <ele>109.9</ele>
        <time>2023-08-10T07:10:19Z</time>
      </trkpt>
      <trkpt lat="49.83239" lon="2.31494">
        <ele>109.8</ele>
        <time>2023-08-10T07:10:20Z</time>
      </trkpt>
      <trkpt lat="49.83238" lon="2.31495">
        <ele>109.8</ele>
        <time>2023-08-10T07:10:21Z</time>
      </trkpt>
      <trkpt lat="49.83237" lon="2.31496">
        <ele>109.8</ele>
        <time>2023-08-10T07:10:22Z</time>
      </trkpt>
      <trkpt lat="49.83236" lon="2.31499">
        <ele>109.8</ele>
        <time>2023-08-10T07:10:23Z</time>
      </trkpt>
      <trkpt lat="49.83236" lon="2.315">
        <ele>109.8</ele>
        <time>2023-08-10T07:10:24Z</time>
      </trkpt>
      <trkpt lat="49.83235" lon="2.31502">
        <ele>109.8</ele>
        <time>2023-08-10T07:10:25Z</time>
      </trkpt>
      <trkpt lat="49.83234" lon="2.31505">
        <ele>109.8</ele>
        <time>2023-08-10T07:10:26Z</time>
      </trkpt>
      <trkpt lat="49.83234" lon="2.31506">
        <ele>109.8</ele>
        <time>2023-08-10T07:10:27Z</time>
      </trkpt>
      <trkpt lat="49.83234" lon="2.31507">
        <ele>109.8</ele>
        <time>2023-08-10T07:10:28Z</time>
      </trkpt>
      <trkpt lat="49.83233" lon="2.31509">
        <ele>109.8</ele>
        <time>2023-08-10T07:10:29Z</time>
      </trkpt>
      <trkpt lat="49.83232" lon="2.31512">
        <ele>109.8</ele>
        <time>2023-08-10T07:10:31Z</time>
      </trkpt>
      <trkpt lat="49.83231" lon="2.31514">
        <ele>109.7</ele>
        <time>2023-08-10T07:10:32Z</time>
      </trkpt>
      <trkpt lat="49.83231" lon="2.31516">
        <ele>109.7</ele>
        <time>2023-08-10T07:10:33Z</time>
      </trkpt>
      <trkpt lat="49.8323" lon="2.31517">
        <ele>109.7</ele>
        <time>2023-08-10T07:10:34Z</time>
      </trkpt>
      <trkpt lat="49.8323" lon="2.31519">
        <ele>109.7</ele>
        <time>2023-08-10T07:10:35Z</time>
      </trkpt>
      <trkpt lat="49.83229" lon="2.31521">
        <ele>109.7</ele>
        <time>2023-08-10T07:10:37Z</time>
      </trkpt>
      <trkpt lat="49.83228" lon="2.31523">
        <ele>109.7</ele>
        <time>2023-08-10T07:10:38Z</time>
      </trkpt>
      <trkpt lat="49.83227" lon="2.31526">
        <ele>109.7</ele>
        <time>2023-08-10T07:10:39Z</time>
      </trkpt>
      <trkpt lat="49.83226" lon="2.31527">
        <ele>109.7</ele>
        <time>2023-08-10T07:10:40Z</time>
      </trkpt>
      <trkpt lat="49.83226" lon="2.31528">
        <ele>109.6</ele>
        <time>2023-08-10T07:10:41Z</time>
      </trkpt>
      <trkpt lat="49.83225" lon="2.31529">
        <ele>109.6</ele>
        <time>2023-08-10T07:10:42Z</time>
      </trkpt>
      <trkpt lat="49.83223" lon="2.31532">
        <ele>109.6</ele>
        <time>2023-08-10T07:10:44Z</time>
      </trkpt>
      <trkpt lat="49.83223" lon="2.31533">
        <ele>109.6</ele>
        <time>2023-08-10T07:10:45Z</time>
      </trkpt>
      <trkpt lat="49.83221" lon="2.31535">
        <ele>109.6</ele>
        <time>2023-08-10T07:10:47Z</time>
      </trkpt>
      <trkpt lat="49.8322" lon="2.31536">
        <ele>109.6</ele>
        <time>2023-08-10T07:10:48Z</time>
      </trkpt>
      <trkpt lat="49.83219" lon="2.31538">
        <ele>109.6</ele>
        <time>2023-08-10T07:10:49Z</time>
      </trkpt>
      <trkpt lat="49.83218" lon="2.3154">
        <ele>109.5</ele>
        <time>2023-08-10T07:10:50Z</time>
      </trkpt>
      <trkpt lat="49.83217" lon="2.31541">
        <ele>109.5</ele>
        <time>2023-08-10T07:10:51Z</time>
      </trkpt>
      <trkpt lat="49.83216" lon="2.31542">
        <ele>109.5</ele>
        <time>2023-08-10T07:10:52Z</time>
      </trkpt>
      <trkpt lat="49.83215" lon="2.31543">
        <ele>109.5</ele>
        <time>2023-08-10T07:10:53Z</time>
      </trkpt>
      <trkpt lat="49.83214" lon="2.31546">
        <ele>109.5</ele>
        <time>2023-08-10T07:10:55Z</time>
      </trkpt>
      <trkpt lat="49.83213" lon="2.31547">
        <ele>109.5</ele>
        <time>2023-08-10T07:10:56Z</time>
      </trkpt>
      <trkpt lat="49.83211" lon="2.31548">
        <ele>109.5</ele>
        <time>2023-08-10T07:10:57Z</time>
      </trkpt>
      <trkpt lat="49.8321" lon="2.31551">
        <ele>109.5</ele>
        <time>2023-08-10T07:10:58Z</time>
      </trkpt>
      <trkpt lat="49.83209" lon="2.31552">
        <ele>109.4</ele>
        <time>2023-08-10T07:11:00Z</time>
      </trkpt>
      <trkpt lat="49.83208" lon="2.31553">
        <ele>109.4</ele>
        <time>2023-08-10T07:11:01Z</time>
      </trkpt>
      <trkpt lat="49.83207" lon="2.31554">
        <ele>109.4</ele>
        <time>2023-08-10T07:11:02Z</time>
      </trkpt>
      <trkpt lat="49.83207" lon="2.31555">
        <ele>109.4</ele>
        <time>2023-08-10T07:11:03Z</time>
      </trkpt>
      <trkpt lat="49.83206" lon="2.31557">
        <ele>109.4</ele>
        <time>2023-08-10T07:11:04Z</time>
      </trkpt>
      <trkpt lat="49.83205" lon="2.31558">
        <ele>109.4</ele>
        <time>2023-08-10T07:11:05Z</time>
      </trkpt>
      <trkpt lat="49.83204" lon="2.31559">
        <ele>109.4</ele>
        <time>2023-08-10T07:11:06Z</time>
      </trkpt>
      <trkpt lat="49.83203" lon="2.31561">
        <ele>109.4</ele>
        <time>2023-08-10T07:11:08Z</time>
      </trkpt>
      <trkpt lat="49.83202" lon="2.31562">
        <ele>109.4</ele>
        <time>2023-08-10T07:11:09Z</time>
      </trkpt>
      <trkpt lat="49.83201" lon="2.31564">
        <ele>109.4</ele>
        <time>2023-08-10T07:11:10Z</time>
      </trkpt>
      <trkpt lat="49.832" lon="2.31565">
        <ele>109.4</ele>
        <time>2023-08-10T07:11:11Z</time>
      </trkpt>
      <trkpt lat="49.83199" lon="2.31566">
        <ele>109.4</ele>
        <time>2023-08-10T07:11:12Z</time>
      </trkpt>
      <trkpt lat="49.83198" lon="2.31568">
        <ele>109.3</ele>
        <time>2023-08-10T07:11:13Z</time>
      </trkpt>
      <trkpt lat="49.83197" lon="2.31569">
        <ele>109.3</ele>
        <time>2023-08-10T07:11:14Z</time>
      </trkpt>
      <trkpt lat="49.83196" lon="2.3157">
        <ele>109.3</ele>
        <time>2023-08-10T07:11:15Z</time>
      </trkpt>
      <trkpt lat="49.83195" lon="2.31571">
        <ele>109.3</ele>
        <time>2023-08-10T07:11:17Z</time>
      </trkpt>
      <trkpt lat="49.83194" lon="2.31573">
        <ele>109.3</ele>
        <time>2023-08-10T07:11:18Z</time>
      </trkpt>
      <trkpt lat="49.83193" lon="2.31574">
        <ele>109.3</ele>
        <time>2023-08-10T07:11:19Z</time>
      </trkpt>
      <trkpt lat="49.83192" lon="2.31576">
        <ele>109.3</ele>
        <time>2023-08-10T07:11:20Z</time>
      </trkpt>
      <trkpt lat="49.83191" lon="2.31577">
        <ele>109.3</ele>
        <time>2023-08-10T07:11:21Z</time>
      </trkpt>
      <trkpt lat="49.8319" lon="2.31579">
        <ele>109.3</ele>
        <time>2023-08-10T07:11:22Z</time>
      </trkpt>
      <trkpt lat="49.83188" lon="2.31581">
        <ele>109.2</ele>
        <time>2023-08-10T07:11:24Z</time>
      </trkpt>
      <trkpt lat="49.83187" lon="2.31583">
        <ele>109.2</ele>
        <time>2023-08-10T07:11:25Z</time>
      </trkpt>
      <trkpt lat="49.83186" lon="2.31585">
        <ele>109.2</ele>
        <time>2023-08-10T07:11:26Z</time>
      </trkpt>
      <trkpt lat="49.83185" lon="2.31586">
        <ele>109.2</ele>
        <time>2023-08-10T07:11:27Z</time>
      </trkpt>
      <trkpt lat="49.83185" lon="2.31587">
        <ele>109.2</ele>
        <time>2023-08-10T07:11:28Z</time>
      </trkpt>
      <trkpt lat="49.83183" lon="2.31589">
        <ele>109.1</ele>
        <time>2023-08-10T07:11:30Z</time>
      </trkpt>
      <trkpt lat="49.83182" lon="2.3159">
        <ele>109.1</ele>
        <time>2023-08-10T07:11:31Z</time>
      </trkpt>
      <trkpt lat="49.83182" lon="2.31591">
        <ele>109.1</ele>
        <time>2023-08-10T07:11:32Z</time>
      </trkpt>
      <trkpt lat="49.8318" lon="2.31593">
        <ele>109.1</ele>
        <time>2023-08-10T07:11:33Z</time>
      </trkpt>
      <trkpt lat="49.83179" lon="2.31594">
        <ele>109.1</ele>
        <time>2023-08-10T07:11:34Z</time>
      </trkpt>
      <trkpt lat="49.83179" lon="2.31595">
        <ele>109.1</ele>
        <time>2023-08-10T07:11:35Z</time>
      </trkpt>
      <trkpt lat="49.83177" lon="2.31597">
        <ele>109</ele>
        <time>2023-08-10T07:11:37Z</time>
      </trkpt>
      <trkpt lat="49.83176" lon="2.31598">
        <ele>109</ele>
        <time>2023-08-10T07:11:38Z</time>
      </trkpt>
      <trkpt lat="49.83175" lon="2.31599">
        <ele>109</ele>
        <time>2023-08-10T07:11:39Z</time>
      </trkpt>
      <trkpt lat="49.83174" lon="2.316">
        <ele>109</ele>
        <time>2023-08-10T07:11:40Z</time>
      </trkpt>
      <trkpt lat="49.83173" lon="2.31601">
        <ele>109</ele>
        <time>2023-08-10T07:11:41Z</time>
      </trkpt>
      <trkpt lat="49.83172" lon="2.31602">
        <ele>109</ele>
        <time>2023-08-10T07:11:42Z</time>
      </trkpt>
      <trkpt lat="49.83171" lon="2.31603">
        <ele>109</ele>
        <time>2023-08-10T07:11:43Z</time>
      </trkpt>
      <trkpt lat="49.8317" lon="2.31604">
        <ele>109</ele>
        <time>2023-08-10T07:11:44Z</time>
      </trkpt>
      <trkpt lat="49.83169" lon="2.31605">
        <ele>109</ele>
        <time>2023-08-10T07:11:46Z</time>
      </trkpt>
      <trkpt lat="49.83167" lon="2.31607">
        <ele>109</ele>
        <time>2023-08-10T07:11:47Z</time>
      </trkpt>
      <trkpt lat="49.83166" lon="2.31608">
        <ele>109</ele>
        <time>2023-08-10T07:11:48Z</time>
      </trkpt>
      <trkpt lat="49.83166" lon="2.31608">
        <ele>109</ele>
        <time>2023-08-10T07:11:49Z</time>
      </trkpt>
      <trkpt lat="49.83164" lon="2.3161">
        <ele>109</ele>
        <time>2023-08-10T07:11:50Z</time>
      </trkpt>
      <trkpt lat="49.83163" lon="2.3161">
        <ele>109</ele>
        <time>2023-08-10T07:11:51Z</time>
      </trkpt>
      <trkpt lat="49.83162" lon="2.31611">
        <ele>109</ele>
        <time>2023-08-10T07:11:52Z</time>
      </trkpt>
      <trkpt lat="49.83161" lon="2.31612">
        <ele>109</ele>
        <time>2023-08-10T07:11:53Z</time>
      </trkpt>
      <trkpt lat="49.8316" lon="2.31612">
        <ele>109</ele>
        <time>2023-08-10T07:11:55Z</time>
      </trkpt>
      <trkpt lat="49.83159" lon="2.31613">
        <ele>109</ele>
        <time>2023-08-10T07:11:56Z</time>
      </trkpt>
      <trkpt lat="49.83158" lon="2.31613">
        <ele>109</ele>
        <time>2023-08-10T07:11:57Z</time>
      </trkpt>
      <trkpt lat="49.83157" lon="2.31613">
        <ele>109</ele>
        <time>2023-08-10T07:11:58Z</time>
      </trkpt>
      <trkpt lat="49.83155" lon="2.31613">
        <ele>109</ele>
        <time>2023-08-10T07:11:59Z</time>
      </trkpt>
      <trkpt lat="49.83154" lon="2.31613">
        <ele>109</ele>
        <time>2023-08-10T07:12:00Z</time>
      </trkpt>
      <trkpt lat="49.83152" lon="2.31613">
        <ele>109.1</ele>
        <time>2023-08-10T07:12:02Z</time>
      </trkpt>
      <trkpt lat="49.83151" lon="2.31613">
        <ele>109.1</ele>
        <time>2023-08-10T07:12:03Z</time>
      </trkpt>
      <trkpt lat="49.83149" lon="2.31613">
        <ele>109.1</ele>
        <time>2023-08-10T07:12:04Z</time>
      </trkpt>
      <trkpt lat="49.83148" lon="2.31614">
        <ele>109.1</ele>
        <time>2023-08-10T07:12:05Z</time>
      </trkpt>
      <trkpt lat="49.83146" lon="2.31614">
        <ele>109.1</ele>
        <time>2023-08-10T07:12:06Z</time>
      </trkpt>
      <trkpt lat="49.83145" lon="2.31615">
        <ele>109</ele>
        <time>2023-08-10T07:12:08Z</time>
      </trkpt>
      <trkpt lat="49.83143" lon="2.31615">
        <ele>109</ele>
        <time>2023-08-10T07:12:09Z</time>
      </trkpt>
      <trkpt lat="49.83142" lon="2.31616">
        <ele>109</ele>
        <time>2023-08-10T07:12:10Z</time>
      </trkpt>
      <trkpt lat="49.8314" lon="2.31616">
        <ele>109</ele>
        <time>2023-08-10T07:12:11Z</time>
      </trkpt>
      <trkpt lat="49.83139" lon="2.31616">
        <ele>109</ele>
        <time>2023-08-10T07:12:12Z</time>
      </trkpt>
      <trkpt lat="49.83137" lon="2.31617">
        <ele>109</ele>
        <time>2023-08-10T07:12:13Z</time>
      </trkpt>
      <trkpt lat="49.83136" lon="2.31617">
        <ele>109</ele>
        <time>2023-08-10T07:12:14Z</time>
      </trkpt>
      <trkpt lat="49.83135" lon="2.31618">
        <ele>108.9</ele>
        <time>2023-08-10T07:12:15Z</time>
      </trkpt>
      <trkpt lat="49.83134" lon="2.31618">
        <ele>108.9</ele>
        <time>2023-08-10T07:12:16Z</time>
      </trkpt>
      <trkpt lat="49.83132" lon="2.31619">
        <ele>108.9</ele>
        <time>2023-08-10T07:12:18Z</time>
      </trkpt>
      <trkpt lat="49.83131" lon="2.31619">
        <ele>108.9</ele>
        <time>2023-08-10T07:12:19Z</time>
      </trkpt>
      <trkpt lat="49.8313" lon="2.3162">
        <ele>108.9</ele>
        <time>2023-08-10T07:12:20Z</time>
      </trkpt>
      <trkpt lat="49.83129" lon="2.3162">
        <ele>108.9</ele>
        <time>2023-08-10T07:12:21Z</time>
      </trkpt>
      <trkpt lat="49.83127" lon="2.31621">
        <ele>108.9</ele>
        <time>2023-08-10T07:12:22Z</time>
      </trkpt>
      <trkpt lat="49.83126" lon="2.31622">
        <ele>108.9</ele>
        <time>2023-08-10T07:12:23Z</time>
      </trkpt>
      <trkpt lat="49.83126" lon="2.31622">
        <ele>108.9</ele>
        <time>2023-08-10T07:12:24Z</time>
      </trkpt>
      <trkpt lat="49.83124" lon="2.31623">
        <ele>108.9</ele>
        <time>2023-08-10T07:12:26Z</time>
      </trkpt>
      <trkpt lat="49.83123" lon="2.31624">
        <ele>108.9</ele>
        <time>2023-08-10T07:12:27Z</time>
      </trkpt>
      <trkpt lat="49.83122" lon="2.31624">
        <ele>108.9</ele>
        <time>2023-08-10T07:12:28Z</time>
      </trkpt>
      <trkpt lat="49.83121" lon="2.31625">
        <ele>108.8</ele>
        <time>2023-08-10T07:12:29Z</time>
      </trkpt>
      <trkpt lat="49.8312" lon="2.31625">
        <ele>108.8</ele>
        <time>2023-08-10T07:12:31Z</time>
      </trkpt>
      <trkpt lat="49.83119" lon="2.31626">
        <ele>108.8</ele>
        <time>2023-08-10T07:12:32Z</time>
      </trkpt>
      <trkpt lat="49.83117" lon="2.31626">
        <ele>108.8</ele>
        <time>2023-08-10T07:12:33Z</time>
      </trkpt>
      <trkpt lat="49.83116" lon="2.31626">
        <ele>108.8</ele>
        <time>2023-08-10T07:12:34Z</time>
      </trkpt>
      <trkpt lat="49.83115" lon="2.31627">
        <ele>108.8</ele>
        <time>2023-08-10T07:12:35Z</time>
      </trkpt>
      <trkpt lat="49.83114" lon="2.31628">
        <ele>108.8</ele>
        <time>2023-08-10T07:12:36Z</time>
      </trkpt>
      <trkpt lat="49.83113" lon="2.31628">
        <ele>108.8</ele>
        <time>2023-08-10T07:12:37Z</time>
      </trkpt>
      <trkpt lat="49.83112" lon="2.31628">
        <ele>108.8</ele>
        <time>2023-08-10T07:12:39Z</time>
      </trkpt>
      <trkpt lat="49.83111" lon="2.31629">
        <ele>108.8</ele>
        <time>2023-08-10T07:12:40Z</time>
      </trkpt>
      <trkpt lat="49.8311" lon="2.31629">
        <ele>108.7</ele>
        <time>2023-08-10T07:12:41Z</time>
      </trkpt>
      <trkpt lat="49.83108" lon="2.31629">
        <ele>108.7</ele>
        <time>2023-08-10T07:12:42Z</time>
      </trkpt>
      <trkpt lat="49.83108" lon="2.31629">
        <ele>108.7</ele>
        <time>2023-08-10T07:12:43Z</time>
      </trkpt>
      <trkpt lat="49.83107" lon="2.3163">
        <ele>108.7</ele>
        <time>2023-08-10T07:12:44Z</time>
      </trkpt>
      <trkpt lat="49.83105" lon="2.3163">
        <ele>108.7</ele>
        <time>2023-08-10T07:12:46Z</time>
      </trkpt>
      <trkpt lat="49.83104" lon="2.31631">
        <ele>108.7</ele>
        <time>2023-08-10T07:12:47Z</time>
      </trkpt>
      <trkpt lat="49.83102" lon="2.31632">
        <ele>108.7</ele>
        <time>2023-08-10T07:12:48Z</time>
      </trkpt>
      <trkpt lat="49.83101" lon="2.31632">
        <ele>108.6</ele>
        <time>2023-08-10T07:12:49Z</time>
      </trkpt>
      <trkpt lat="49.831" lon="2.31633">
        <ele>108.6</ele>
        <time>2023-08-10T07:12:50Z</time>
      </trkpt>
      <trkpt lat="49.83098" lon="2.31634">
        <ele>108.6</ele>
        <time>2023-08-10T07:12:51Z</time>
      </trkpt>
      <trkpt lat="49.83097" lon="2.31635">
        <ele>108.6</ele>
        <time>2023-08-10T07:12:52Z</time>
      </trkpt>
      <trkpt lat="49.83096" lon="2.31635">
        <ele>108.6</ele>
        <time>2023-08-10T07:12:53Z</time>
      </trkpt>
      <trkpt lat="49.83094" lon="2.31636">
        <ele>108.6</ele>
        <time>2023-08-10T07:12:54Z</time>
      </trkpt>
      <trkpt lat="49.83094" lon="2.31637">
        <ele>108.6</ele>
        <time>2023-08-10T07:12:56Z</time>
      </trkpt>
      <trkpt lat="49.83093" lon="2.31638">
        <ele>108.6</ele>
        <time>2023-08-10T07:12:57Z</time>
      </trkpt>
      <trkpt lat="49.83092" lon="2.31638">
        <ele>108.6</ele>
        <time>2023-08-10T07:12:58Z</time>
      </trkpt>
      <trkpt lat="49.83091" lon="2.31639">
        <ele>108.5</ele>
        <time>2023-08-10T07:12:59Z</time>
      </trkpt>
      <trkpt lat="49.8309" lon="2.3164">
        <ele>108.5</ele>
        <time>2023-08-10T07:13:00Z</time>
      </trkpt>
      <trkpt lat="49.83088" lon="2.31641">
        <ele>108.5</ele>
        <time>2023-08-10T07:13:01Z</time>
      </trkpt>
      <trkpt lat="49.83087" lon="2.31641">
        <ele>108.5</ele>
        <time>2023-08-10T07:13:02Z</time>
      </trkpt>
      <trkpt lat="49.83086" lon="2.31642">
        <ele>108.5</ele>
        <time>2023-08-10T07:13:04Z</time>
      </trkpt>
      <trkpt lat="49.83084" lon="2.31643">
        <ele>108.5</ele>
        <time>2023-08-10T07:13:05Z</time>
      </trkpt>
      <trkpt lat="49.83083" lon="2.31644">
        <ele>108.5</ele>
        <time>2023-08-10T07:13:06Z</time>
      </trkpt>
      <trkpt lat="49.83082" lon="2.31645">
        <ele>108.5</ele>
        <time>2023-08-10T07:13:07Z</time>
      </trkpt>
      <trkpt lat="49.83081" lon="2.31645">
        <ele>108.5</ele>
        <time>2023-08-10T07:13:08Z</time>
      </trkpt>
      <trkpt lat="49.8308" lon="2.31646">
        <ele>108.5</ele>
        <time>2023-08-10T07:13:09Z</time>
      </trkpt>
      <trkpt lat="49.83078" lon="2.31647">
        <ele>108.4</ele>
        <time>2023-08-10T07:13:10Z</time>
      </trkpt>
      <trkpt lat="49.83076" lon="2.31648">
        <ele>108.4</ele>
        <time>2023-08-10T07:13:12Z</time>
      </trkpt>
      <trkpt lat="49.83074" lon="2.31649">
        <ele>108.4</ele>
        <time>2023-08-10T07:13:13Z</time>
      </trkpt>
      <trkpt lat="49.83074" lon="2.31649">
        <ele>108.4</ele>
        <time>2023-08-10T07:13:14Z</time>
      </trkpt>
      <trkpt lat="49.83073" lon="2.31649">
        <ele>108.4</ele>
        <time>2023-08-10T07:13:15Z</time>
      </trkpt>
      <trkpt lat="49.83071" lon="2.3165">
        <ele>108.4</ele>
        <time>2023-08-10T07:13:17Z</time>
      </trkpt>
      <trkpt lat="49.8307" lon="2.3165">
        <ele>108.4</ele>
        <time>2023-08-10T07:13:18Z</time>
      </trkpt>
      <trkpt lat="49.83069" lon="2.3165">
        <ele>108.4</ele>
        <time>2023-08-10T07:13:19Z</time>
      </trkpt>
      <trkpt lat="49.83068" lon="2.3165">
        <ele>108.4</ele>
        <time>2023-08-10T07:13:20Z</time>
      </trkpt>
      <trkpt lat="49.83067" lon="2.31651">
        <ele>108.4</ele>
        <time>2023-08-10T07:13:21Z</time>
      </trkpt>
      <trkpt lat="49.83066" lon="2.31651">
        <ele>108.4</ele>
        <time>2023-08-10T07:13:22Z</time>
      </trkpt>
      <trkpt lat="49.83065" lon="2.31651">
        <ele>108.3</ele>
        <time>2023-08-10T07:13:23Z</time>
      </trkpt>
      <trkpt lat="49.83064" lon="2.31651">
        <ele>108.3</ele>
        <time>2023-08-10T07:13:24Z</time>
      </trkpt>
      <trkpt lat="49.83062" lon="2.31652">
        <ele>108.3</ele>
        <time>2023-08-10T07:13:25Z</time>
      </trkpt>
      <trkpt lat="49.83062" lon="2.31652">
        <ele>108.3</ele>
        <time>2023-08-10T07:13:27Z</time>
      </trkpt>
      <trkpt lat="49.83061" lon="2.31652">
        <ele>108.3</ele>
        <time>2023-08-10T07:13:28Z</time>
      </trkpt>
      <trkpt lat="49.83059" lon="2.31652">
        <ele>108.3</ele>
        <time>2023-08-10T07:13:29Z</time>
      </trkpt>
      <trkpt lat="49.83059" lon="2.31653">
        <ele>108.3</ele>
        <time>2023-08-10T07:13:30Z</time>
      </trkpt>
      <trkpt lat="49.83057" lon="2.31653">
        <ele>108.3</ele>
        <time>2023-08-10T07:13:31Z</time>
      </trkpt>
      <trkpt lat="49.83056" lon="2.31653">
        <ele>108.3</ele>
        <time>2023-08-10T07:13:32Z</time>
      </trkpt>
      <trkpt lat="49.83055" lon="2.31653">
        <ele>108.3</ele>
        <time>2023-08-10T07:13:33Z</time>
      </trkpt>
      <trkpt lat="49.83054" lon="2.31653">
        <ele>108.3</ele>
        <time>2023-08-10T07:13:34Z</time>
      </trkpt>
      <trkpt lat="49.83053" lon="2.31654">
        <ele>108.3</ele>
        <time>2023-08-10T07:13:35Z</time>
      </trkpt>
      <trkpt lat="49.83052" lon="2.31654">
        <ele>108.3</ele>
        <time>2023-08-10T07:13:36Z</time>
      </trkpt>
      <trkpt lat="49.83051" lon="2.31654">
        <ele>108.3</ele>
        <time>2023-08-10T07:13:38Z</time>
      </trkpt>
      <trkpt lat="49.8305" lon="2.31655">
        <ele>108.3</ele>
        <time>2023-08-10T07:13:39Z</time>
      </trkpt>
      <trkpt lat="49.83049" lon="2.31655">
        <ele>108.2</ele>
        <time>2023-08-10T07:13:40Z</time>
      </trkpt>
      <trkpt lat="49.83048" lon="2.31655">
        <ele>108.2</ele>
        <time>2023-08-10T07:13:41Z</time>
      </trkpt>
      <trkpt lat="49.83047" lon="2.31656">
        <ele>108.2</ele>
        <time>2023-08-10T07:13:42Z</time>
      </trkpt>
      <trkpt lat="49.83046" lon="2.31656">
        <ele>108.2</ele>
        <time>2023-08-10T07:13:43Z</time>
      </trkpt>
      <trkpt lat="49.83045" lon="2.31656">
        <ele>108.2</ele>
        <time>2023-08-10T07:13:44Z</time>
      </trkpt>
      <trkpt lat="49.83044" lon="2.31656">
        <ele>108.2</ele>
        <time>2023-08-10T07:13:45Z</time>
      </trkpt>
      <trkpt lat="49.83043" lon="2.31656">
        <ele>108.2</ele>
        <time>2023-08-10T07:13:47Z</time>
      </trkpt>
      <trkpt lat="49.83041" lon="2.31656">
        <ele>108.2</ele>
        <time>2023-08-10T07:13:48Z</time>
      </trkpt>
      <trkpt lat="49.8304" lon="2.31656">
        <ele>108.2</ele>
        <time>2023-08-10T07:13:49Z</time>
      </trkpt>
      <trkpt lat="49.83039" lon="2.31657">
        <ele>108.2</ele>
        <time>2023-08-10T07:13:50Z</time>
      </trkpt>
      <trkpt lat="49.83038" lon="2.31657">
        <ele>108.2</ele>
        <time>2023-08-10T07:13:51Z</time>
      </trkpt>
      <trkpt lat="49.83037" lon="2.31657">
        <ele>108.2</ele>
        <time>2023-08-10T07:13:52Z</time>
      </trkpt>
      <trkpt lat="49.83035" lon="2.31657">
        <ele>108.2</ele>
        <time>2023-08-10T07:13:53Z</time>
      </trkpt>
      <trkpt lat="49.83034" lon="2.31657">
        <ele>108.2</ele>
        <time>2023-08-10T07:13:54Z</time>
      </trkpt>
      <trkpt lat="49.83033" lon="2.31657">
        <ele>108.2</ele>
        <time>2023-08-10T07:13:56Z</time>
      </trkpt>
      <trkpt lat="49.83032" lon="2.31658">
        <ele>108.1</ele>
        <time>2023-08-10T07:13:57Z</time>
      </trkpt>
      <trkpt lat="49.83031" lon="2.31658">
        <ele>108.1</ele>
        <time>2023-08-10T07:13:58Z</time>
      </trkpt>
      <trkpt lat="49.8303" lon="2.31658">
        <ele>108.1</ele>
        <time>2023-08-10T07:13:59Z</time>
      </trkpt>
      <trkpt lat="49.83028" lon="2.31658">
        <ele>108.1</ele>
        <time>2023-08-10T07:14:00Z</time>
      </trkpt>
      <trkpt lat="49.83027" lon="2.31659">
        <ele>108.1</ele>
        <time>2023-08-10T07:14:01Z</time>
      </trkpt>
      <trkpt lat="49.83026" lon="2.31659">
        <ele>108.1</ele>
        <time>2023-08-10T07:14:02Z</time>
      </trkpt>
      <trkpt lat="49.83025" lon="2.31659">
        <ele>108.1</ele>
        <time>2023-08-10T07:14:03Z</time>
      </trkpt>
      <trkpt lat="49.83024" lon="2.31659">
        <ele>108.1</ele>
        <time>2023-08-10T07:14:04Z</time>
      </trkpt>
      <trkpt lat="49.83022" lon="2.3166">
        <ele>108.1</ele>
        <time>2023-08-10T07:14:06Z</time>
      </trkpt>
      <trkpt lat="49.8302" lon="2.31661">
        <ele>108.1</ele>
        <time>2023-08-10T07:14:07Z</time>
      </trkpt>
      <trkpt lat="49.83019" lon="2.31661">
        <ele>108.1</ele>
        <time>2023-08-10T07:14:08Z</time>
      </trkpt>
      <trkpt lat="49.83019" lon="2.31661">
        <ele>108.1</ele>
        <time>2023-08-10T07:14:09Z</time>
      </trkpt>
      <trkpt lat="49.83017" lon="2.31661">
        <ele>108.1</ele>
        <time>2023-08-10T07:14:10Z</time>
      </trkpt>
      <trkpt lat="49.83016" lon="2.31662">
        <ele>108.1</ele>
        <time>2023-08-10T07:14:11Z</time>
      </trkpt>
      <trkpt lat="49.83015" lon="2.31662">
        <ele>108.1</ele>
        <time>2023-08-10T07:14:12Z</time>
      </trkpt>
      <trkpt lat="49.83013" lon="2.31662">
        <ele>108.1</ele>
        <time>2023-08-10T07:14:13Z</time>
      </trkpt>
      <trkpt lat="49.83012" lon="2.31663">
        <ele>108</ele>
        <time>2023-08-10T07:14:14Z</time>
      </trkpt>
      <trkpt lat="49.83011" lon="2.31663">
        <ele>108</ele>
        <time>2023-08-10T07:14:15Z</time>
      </trkpt>
      <trkpt lat="49.83009" lon="2.31663">
        <ele>108</ele>
        <time>2023-08-10T07:14:17Z</time>
      </trkpt>
      <trkpt lat="49.83008" lon="2.31663">
        <ele>108</ele>
        <time>2023-08-10T07:14:18Z</time>
      </trkpt>
      <trkpt lat="49.83007" lon="2.31663">
        <ele>108</ele>
        <time>2023-08-10T07:14:19Z</time>
      </trkpt>
      <trkpt lat="49.83006" lon="2.31663">
        <ele>108</ele>
        <time>2023-08-10T07:14:20Z</time>
      </trkpt>
      <trkpt lat="49.83005" lon="2.31663">
        <ele>108</ele>
        <time>2023-08-10T07:14:21Z</time>
      </trkpt>
      <trkpt lat="49.83004" lon="2.31663">
        <ele>108</ele>
        <time>2023-08-10T07:14:22Z</time>
      </trkpt>
      <trkpt lat="49.83003" lon="2.31664">
        <ele>108</ele>
        <time>2023-08-10T07:14:23Z</time>
      </trkpt>
      <trkpt lat="49.83002" lon="2.31664">
        <ele>108</ele>
        <time>2023-08-10T07:14:24Z</time>
      </trkpt>
      <trkpt lat="49.83" lon="2.31664">
        <ele>108</ele>
        <time>2023-08-10T07:14:25Z</time>
      </trkpt>
      <trkpt lat="49.82999" lon="2.31664">
        <ele>108</ele>
        <time>2023-08-10T07:14:27Z</time>
      </trkpt>
      <trkpt lat="49.82997" lon="2.31665">
        <ele>108</ele>
        <time>2023-08-10T07:14:28Z</time>
      </trkpt>
      <trkpt lat="49.82996" lon="2.31666">
        <ele>108</ele>
        <time>2023-08-10T07:14:29Z</time>
      </trkpt>
      <trkpt lat="49.82995" lon="2.31666">
        <ele>108</ele>
        <time>2023-08-10T07:14:30Z</time>
      </trkpt>
      <trkpt lat="49.82994" lon="2.31667">
        <ele>108</ele>
        <time>2023-08-10T07:14:31Z</time>
      </trkpt>
      <trkpt lat="49.82993" lon="2.31668">
        <ele>108</ele>
        <time>2023-08-10T07:14:32Z</time>
      </trkpt>
      <trkpt lat="49.82992" lon="2.31668">
        <ele>108</ele>
        <time>2023-08-10T07:14:33Z</time>
      </trkpt>
      <trkpt lat="49.82991" lon="2.31668">
        <ele>108</ele>
        <time>2023-08-10T07:14:34Z</time>
      </trkpt>
      <trkpt lat="49.8299" lon="2.31669">
        <ele>108</ele>
        <time>2023-08-10T07:14:35Z</time>
      </trkpt>
      <trkpt lat="49.82989" lon="2.31669">
        <ele>108</ele>
        <time>2023-08-10T07:14:37Z</time>
      </trkpt>
      <trkpt lat="49.82988" lon="2.31669">
        <ele>107.9</ele>
        <time>2023-08-10T07:14:38Z</time>
      </trkpt>
      <trkpt lat="49.82987" lon="2.31669">
        <ele>107.9</ele>
        <time>2023-08-10T07:14:39Z</time>
      </trkpt>
      <trkpt lat="49.82986" lon="2.31669">
        <ele>107.9</ele>
        <time>2023-08-10T07:14:40Z</time>
      </trkpt>
      <trkpt lat="49.82984" lon="2.31669">
        <ele>107.9</ele>
        <time>2023-08-10T07:14:41Z</time>
      </trkpt>
      <trkpt lat="49.82983" lon="2.31669">
        <ele>107.9</ele>
        <time>2023-08-10T07:14:42Z</time>
      </trkpt>
      <trkpt lat="49.82982" lon="2.31669">
        <ele>107.9</ele>
        <time>2023-08-10T07:14:43Z</time>
      </trkpt>
      <trkpt lat="49.8298" lon="2.31668">
        <ele>107.9</ele>
        <time>2023-08-10T07:14:44Z</time>
      </trkpt>
      <trkpt lat="49.82979" lon="2.31668">
        <ele>107.9</ele>
        <time>2023-08-10T07:14:45Z</time>
      </trkpt>
      <trkpt lat="49.82978" lon="2.31668">
        <ele>107.9</ele>
        <time>2023-08-10T07:14:47Z</time>
      </trkpt>
      <trkpt lat="49.82977" lon="2.31668">
        <ele>107.9</ele>
        <time>2023-08-10T07:14:48Z</time>
      </trkpt>
      <trkpt lat="49.82976" lon="2.31668">
        <ele>107.9</ele>
        <time>2023-08-10T07:14:49Z</time>
      </trkpt>
      <trkpt lat="49.82975" lon="2.31668">
        <ele>107.9</ele>
        <time>2023-08-10T07:14:50Z</time>
      </trkpt>
      <trkpt lat="49.82974" lon="2.31668">
        <ele>107.9</ele>
        <time>2023-08-10T07:14:51Z</time>
      </trkpt>
      <trkpt lat="49.82972" lon="2.31668">
        <ele>107.9</ele>
        <time>2023-08-10T07:14:52Z</time>
      </trkpt>
      <trkpt lat="49.8297" lon="2.31668">
        <ele>107.9</ele>
        <time>2023-08-10T07:14:53Z</time>
      </trkpt>
      <trkpt lat="49.82969" lon="2.31669">
        <ele>107.9</ele>
        <time>2023-08-10T07:14:55Z</time>
      </trkpt>
      <trkpt lat="49.82968" lon="2.31669">
        <ele>107.9</ele>
        <time>2023-08-10T07:14:56Z</time>
      </trkpt>
      <trkpt lat="49.82967" lon="2.31669">
        <ele>107.9</ele>
        <time>2023-08-10T07:14:57Z</time>
      </trkpt>
      <trkpt lat="49.82966" lon="2.31669">
        <ele>107.9</ele>
        <time>2023-08-10T07:14:58Z</time>
      </trkpt>
      <trkpt lat="49.82964" lon="2.31669">
        <ele>107.9</ele>
        <time>2023-08-10T07:14:59Z</time>
      </trkpt>
      <trkpt lat="49.82963" lon="2.31669">
        <ele>107.8</ele>
        <time>2023-08-10T07:15:00Z</time>
      </trkpt>
      <trkpt lat="49.82961" lon="2.31669">
        <ele>107.8</ele>
        <time>2023-08-10T07:15:02Z</time>
      </trkpt>
      <trkpt lat="49.8296" lon="2.3167">
        <ele>107.8</ele>
        <time>2023-08-10T07:15:03Z</time>
      </trkpt>
      <trkpt lat="49.82958" lon="2.3167">
        <ele>107.8</ele>
        <time>2023-08-10T07:15:04Z</time>
      </trkpt>
      <trkpt lat="49.82957" lon="2.3167">
        <ele>107.8</ele>
        <time>2023-08-10T07:15:05Z</time>
      </trkpt>
      <trkpt lat="49.82956" lon="2.3167">
        <ele>107.8</ele>
        <time>2023-08-10T07:15:06Z</time>
      </trkpt>
      <trkpt lat="49.82954" lon="2.3167">
        <ele>107.8</ele>
        <time>2023-08-10T07:15:07Z</time>
      </trkpt>
      <trkpt lat="49.82953" lon="2.3167">
        <ele>107.8</ele>
        <time>2023-08-10T07:15:08Z</time>
      </trkpt>
      <trkpt lat="49.82952" lon="2.31671">
        <ele>107.8</ele>
        <time>2023-08-10T07:15:10Z</time>
      </trkpt>
      <trkpt lat="49.8295" lon="2.31671">
        <ele>107.8</ele>
        <time>2023-08-10T07:15:11Z</time>
      </trkpt>
      <trkpt lat="49.82949" lon="2.31672">
        <ele>107.8</ele>
        <time>2023-08-10T07:15:12Z</time>
      </trkpt>
      <trkpt lat="49.82947" lon="2.31672">
        <ele>107.8</ele>
        <time>2023-08-10T07:15:13Z</time>
      </trkpt>
      <trkpt lat="49.82946" lon="2.31673">
        <ele>107.8</ele>
        <time>2023-08-10T07:15:14Z</time>
      </trkpt>
      <trkpt lat="49.82945" lon="2.31673">
        <ele>107.8</ele>
        <time>2023-08-10T07:15:15Z</time>
      </trkpt>
      <trkpt lat="49.82944" lon="2.31674">
        <ele>107.8</ele>
        <time>2023-08-10T07:15:16Z</time>
      </trkpt>
      <trkpt lat="49.82943" lon="2.31674">
        <ele>107.8</ele>
        <time>2023-08-10T07:15:17Z</time>
      </trkpt>
      <trkpt lat="49.82941" lon="2.31675">
        <ele>107.8</ele>
        <time>2023-08-10T07:15:19Z</time>
      </trkpt>
      <trkpt lat="49.8294" lon="2.31676">
        <ele>107.8</ele>
        <time>2023-08-10T07:15:20Z</time>
      </trkpt>
      <trkpt lat="49.82939" lon="2.31676">
        <ele>107.8</ele>
        <time>2023-08-10T07:15:21Z</time>
      </trkpt>
      <trkpt lat="49.82937" lon="2.31677">
        <ele>107.7</ele>
        <time>2023-08-10T07:15:22Z</time>
      </trkpt>
      <trkpt lat="49.82936" lon="2.31678">
        <ele>107.7</ele>
        <time>2023-08-10T07:15:23Z</time>
      </trkpt>
      <trkpt lat="49.82936" lon="2.31678">
        <ele>107.7</ele>
        <time>2023-08-10T07:15:24Z</time>
      </trkpt>
      <trkpt lat="49.82934" lon="2.31679">
        <ele>107.7</ele>
        <time>2023-08-10T07:15:26Z</time>
      </trkpt>
      <trkpt lat="49.82933" lon="2.3168">
        <ele>107.7</ele>
        <time>2023-08-10T07:15:27Z</time>
      </trkpt>
      <trkpt lat="49.82932" lon="2.31681">
        <ele>107.7</ele>
        <time>2023-08-10T07:15:28Z</time>
      </trkpt>
      <trkpt lat="49.8293" lon="2.31682">
        <ele>107.7</ele>
        <time>2023-08-10T07:15:29Z</time>
      </trkpt>
      <trkpt lat="49.82929" lon="2.31683">
        <ele>107.7</ele>
        <time>2023-08-10T07:15:30Z</time>
      </trkpt>
      <trkpt lat="49.82928" lon="2.31684">
        <ele>107.7</ele>
        <time>2023-08-10T07:15:31Z</time>
      </trkpt>
      <trkpt lat="49.82926" lon="2.31685">
        <ele>107.6</ele>
        <time>2023-08-10T07:15:32Z</time>
      </trkpt>
      <trkpt lat="49.82925" lon="2.31686">
        <ele>107.6</ele>
        <time>2023-08-10T07:15:33Z</time>
      </trkpt>
      <trkpt lat="49.82924" lon="2.31687">
        <ele>107.6</ele>
        <time>2023-08-10T07:15:35Z</time>
      </trkpt>
      <trkpt lat="49.82922" lon="2.31688">
        <ele>107.6</ele>
        <time>2023-08-10T07:15:36Z</time>
      </trkpt>
      <trkpt lat="49.82921" lon="2.31688">
        <ele>107.6</ele>
        <time>2023-08-10T07:15:37Z</time>
      </trkpt>
      <trkpt lat="49.8292" lon="2.31689">
        <ele>107.6</ele>
        <time>2023-08-10T07:15:38Z</time>
      </trkpt>
      <trkpt lat="49.82919" lon="2.3169">
        <ele>107.6</ele>
        <time>2023-08-10T07:15:39Z</time>
      </trkpt>
      <trkpt lat="49.82918" lon="2.3169">
        <ele>107.6</ele>
        <time>2023-08-10T07:15:40Z</time>
      </trkpt>
      <trkpt lat="49.82917" lon="2.31691">
        <ele>107.6</ele>
        <time>2023-08-10T07:15:41Z</time>
      </trkpt>
      <trkpt lat="49.82915" lon="2.31691">
        <ele>107.6</ele>
        <time>2023-08-10T07:15:43Z</time>
      </trkpt>
      <trkpt lat="49.82913" lon="2.31692">
        <ele>107.6</ele>
        <time>2023-08-10T07:15:44Z</time>
      </trkpt>
      <trkpt lat="49.82912" lon="2.31692">
        <ele>107.6</ele>
        <time>2023-08-10T07:15:45Z</time>
      </trkpt>
      <trkpt lat="49.82911" lon="2.31692">
        <ele>107.6</ele>
        <time>2023-08-10T07:15:46Z</time>
      </trkpt>
      <trkpt lat="49.8291" lon="2.31692">
        <ele>107.6</ele>
        <time>2023-08-10T07:15:47Z</time>
      </trkpt>
      <trkpt lat="49.82909" lon="2.31692">
        <ele>107.6</ele>
        <time>2023-08-10T07:15:49Z</time>
      </trkpt>
      <trkpt lat="49.82908" lon="2.31693">
        <ele>107.6</ele>
        <time>2023-08-10T07:15:50Z</time>
      </trkpt>
      <trkpt lat="49.82907" lon="2.31693">
        <ele>107.6</ele>
        <time>2023-08-10T07:15:51Z</time>
      </trkpt>
      <trkpt lat="49.82906" lon="2.31693">
        <ele>107.6</ele>
        <time>2023-08-10T07:15:52Z</time>
      </trkpt>
      <trkpt lat="49.82904" lon="2.31693">
        <ele>107.6</ele>
        <time>2023-08-10T07:15:53Z</time>
      </trkpt>
      <trkpt lat="49.82903" lon="2.31694">
        <ele>107.6</ele>
        <time>2023-08-10T07:15:54Z</time>
      </trkpt>
      <trkpt lat="49.82902" lon="2.31694">
        <ele>107.6</ele>
        <time>2023-08-10T07:15:55Z</time>
      </trkpt>
      <trkpt lat="49.82901" lon="2.31694">
        <ele>107.6</ele>
        <time>2023-08-10T07:15:57Z</time>
      </trkpt>
      <trkpt lat="49.829" lon="2.31694">
        <ele>107.6</ele>
        <time>2023-08-10T07:15:58Z</time>
      </trkpt>
      <trkpt lat="49.82899" lon="2.31694">
        <ele>107.6</ele>
        <time>2023-08-10T07:15:59Z</time>
      </trkpt>
      <trkpt lat="49.82898" lon="2.31694">
        <ele>107.6</ele>
        <time>2023-08-10T07:16:00Z</time>
      </trkpt>
      <trkpt lat="49.82897" lon="2.31695">
        <ele>107.6</ele>
        <time>2023-08-10T07:16:01Z</time>
      </trkpt>
      <trkpt lat="49.82896" lon="2.31695">
        <ele>107.6</ele>
        <time>2023-08-10T07:16:02Z</time>
      </trkpt>
      <trkpt lat="49.82895" lon="2.31695">
        <ele>107.6</ele>
        <time>2023-08-10T07:16:03Z</time>
      </trkpt>
      <trkpt lat="49.82893" lon="2.31696">
        <ele>107.6</ele>
        <time>2023-08-10T07:16:05Z</time>
      </trkpt>
      <trkpt lat="49.82892" lon="2.31696">
        <ele>107.6</ele>
        <time>2023-08-10T07:16:06Z</time>
      </trkpt>
      <trkpt lat="49.8289" lon="2.31696">
        <ele>107.6</ele>
        <time>2023-08-10T07:16:07Z</time>
      </trkpt>
      <trkpt lat="49.82889" lon="2.31696">
        <ele>107.6</ele>
        <time>2023-08-10T07:16:09Z</time>
      </trkpt>
      <trkpt lat="49.82888" lon="2.31697">
        <ele>107.6</ele>
        <time>2023-08-10T07:16:10Z</time>
      </trkpt>
      <trkpt lat="49.82887" lon="2.31697">
        <ele>107.6</ele>
        <time>2023-08-10T07:16:11Z</time>
      </trkpt>
      <trkpt lat="49.82886" lon="2.31697">
        <ele>107.6</ele>
        <time>2023-08-10T07:16:12Z</time>
      </trkpt>
      <trkpt lat="49.82884" lon="2.31697">
        <ele>107.6</ele>
        <time>2023-08-10T07:16:13Z</time>
      </trkpt>
      <trkpt lat="49.82883" lon="2.31698">
        <ele>107.6</ele>
        <time>2023-08-10T07:16:14Z</time>
      </trkpt>
      <trkpt lat="49.82882" lon="2.31698">
        <ele>107.7</ele>
        <time>2023-08-10T07:16:15Z</time>
      </trkpt>
      <trkpt lat="49.8288" lon="2.31698">
        <ele>107.7</ele>
        <time>2023-08-10T07:16:17Z</time>
      </trkpt>
      <trkpt lat="49.82879" lon="2.31698">
        <ele>107.7</ele>
        <time>2023-08-10T07:16:18Z</time>
      </trkpt>
      <trkpt lat="49.82879" lon="2.31699">
        <ele>107.7</ele>
        <time>2023-08-10T07:16:19Z</time>
      </trkpt>
      <trkpt lat="49.82876" lon="2.31699">
        <ele>107.7</ele>
        <time>2023-08-10T07:16:20Z</time>
      </trkpt>
      <trkpt lat="49.82876" lon="2.31699">
        <ele>107.7</ele>
        <time>2023-08-10T07:16:21Z</time>
      </trkpt>
      <trkpt lat="49.82875" lon="2.31699">
        <ele>107.7</ele>
        <time>2023-08-10T07:16:22Z</time>
      </trkpt>
      <trkpt lat="49.82874" lon="2.31699">
        <ele>107.7</ele>
        <time>2023-08-10T07:16:23Z</time>
      </trkpt>
      <trkpt lat="49.82873" lon="2.31698">
        <ele>107.7</ele>
        <time>2023-08-10T07:16:24Z</time>
      </trkpt>
      <trkpt lat="49.82871" lon="2.31698">
        <ele>107.7</ele>
        <time>2023-08-10T07:16:25Z</time>
      </trkpt>
      <trkpt lat="49.82869" lon="2.31698">
        <ele>107.7</ele>
        <time>2023-08-10T07:16:27Z</time>
      </trkpt>
      <trkpt lat="49.82869" lon="2.31698">
        <ele>107.7</ele>
        <time>2023-08-10T07:16:28Z</time>
      </trkpt>
      <trkpt lat="49.82868" lon="2.31698">
        <ele>107.7</ele>
        <time>2023-08-10T07:16:29Z</time>
      </trkpt>
      <trkpt lat="49.82866" lon="2.31698">
        <ele>107.7</ele>
        <time>2023-08-10T07:16:30Z</time>
      </trkpt>
      <trkpt lat="49.82865" lon="2.31697">
        <ele>107.7</ele>
        <time>2023-08-10T07:16:31Z</time>
      </trkpt>
      <trkpt lat="49.82864" lon="2.31697">
        <ele>107.7</ele>
        <time>2023-08-10T07:16:32Z</time>
      </trkpt>
      <trkpt lat="49.82861" lon="2.31697">
        <ele>107.8</ele>
        <time>2023-08-10T07:16:34Z</time>
      </trkpt>
      <trkpt lat="49.8286" lon="2.31697">
        <ele>107.8</ele>
        <time>2023-08-10T07:16:35Z</time>
      </trkpt>
      <trkpt lat="49.82859" lon="2.31697">
        <ele>107.8</ele>
        <time>2023-08-10T07:16:36Z</time>
      </trkpt>
      <trkpt lat="49.82857" lon="2.31697">
        <ele>107.8</ele>
        <time>2023-08-10T07:16:38Z</time>
      </trkpt>
      <trkpt lat="49.82856" lon="2.31697">
        <ele>107.8</ele>
        <time>2023-08-10T07:16:39Z</time>
      </trkpt>
      <trkpt lat="49.82855" lon="2.31697">
        <ele>107.8</ele>
        <time>2023-08-10T07:16:40Z</time>
      </trkpt>
      <trkpt lat="49.82853" lon="2.31697">
        <ele>107.8</ele>
        <time>2023-08-10T07:16:41Z</time>
      </trkpt>
      <trkpt lat="49.82852" lon="2.31697">
        <ele>107.8</ele>
        <time>2023-08-10T07:16:42Z</time>
      </trkpt>
      <trkpt lat="49.82851" lon="2.31697">
        <ele>107.8</ele>
        <time>2023-08-10T07:16:43Z</time>
      </trkpt>
      <trkpt lat="49.8285" lon="2.31697">
        <ele>107.8</ele>
        <time>2023-08-10T07:16:44Z</time>
      </trkpt>
      <trkpt lat="49.82849" lon="2.31698">
        <ele>107.8</ele>
        <time>2023-08-10T07:16:46Z</time>
      </trkpt>
      <trkpt lat="49.82847" lon="2.31698">
        <ele>107.8</ele>
        <time>2023-08-10T07:16:47Z</time>
      </trkpt>
      <trkpt lat="49.82846" lon="2.31698">
        <ele>107.8</ele>
        <time>2023-08-10T07:16:48Z</time>
      </trkpt>
      <trkpt lat="49.82845" lon="2.31698">
        <ele>107.8</ele>
        <time>2023-08-10T07:16:49Z</time>
      </trkpt>
      <trkpt lat="49.82843" lon="2.31699">
        <ele>107.9</ele>
        <time>2023-08-10T07:16:50Z</time>
      </trkpt>
      <trkpt lat="49.82842" lon="2.31699">
        <ele>107.9</ele>
        <time>2023-08-10T07:16:51Z</time>
      </trkpt>
      <trkpt lat="49.82842" lon="2.31699">
        <ele>107.9</ele>
        <time>2023-08-10T07:16:52Z</time>
      </trkpt>
      <trkpt lat="49.8284" lon="2.317">
        <ele>107.9</ele>
        <time>2023-08-10T07:16:54Z</time>
      </trkpt>
      <trkpt lat="49.82839" lon="2.317">
        <ele>107.9</ele>
        <time>2023-08-10T07:16:55Z</time>
      </trkpt>
      <trkpt lat="49.82838" lon="2.317">
        <ele>107.9</ele>
        <time>2023-08-10T07:16:56Z</time>
      </trkpt>
      <trkpt lat="49.82837" lon="2.317">
        <ele>107.9</ele>
        <time>2023-08-10T07:16:57Z</time>
      </trkpt>
      <trkpt lat="49.82836" lon="2.31701">
        <ele>107.9</ele>
        <time>2023-08-10T07:16:58Z</time>
      </trkpt>
      <trkpt lat="49.82835" lon="2.31701">
        <ele>107.9</ele>
        <time>2023-08-10T07:16:59Z</time>
      </trkpt>
      <trkpt lat="49.82834" lon="2.31701">
        <ele>107.9</ele>
        <time>2023-08-10T07:17:00Z</time>
      </trkpt>
      <trkpt lat="49.82832" lon="2.31702">
        <ele>108</ele>
        <time>2023-08-10T07:17:02Z</time>
      </trkpt>
      <trkpt lat="49.82831" lon="2.31702">
        <ele>108</ele>
        <time>2023-08-10T07:17:03Z</time>
      </trkpt>
      <trkpt lat="49.8283" lon="2.31703">
        <ele>108</ele>
        <time>2023-08-10T07:17:04Z</time>
      </trkpt>
      <trkpt lat="49.82828" lon="2.31703">
        <ele>108</ele>
        <time>2023-08-10T07:17:05Z</time>
      </trkpt>
      <trkpt lat="49.82826" lon="2.31704">
        <ele>108</ele>
        <time>2023-08-10T07:17:06Z</time>
      </trkpt>
      <trkpt lat="49.82825" lon="2.31704">
        <ele>108</ele>
        <time>2023-08-10T07:17:08Z</time>
      </trkpt>
      <trkpt lat="49.82825" lon="2.31705">
        <ele>108</ele>
        <time>2023-08-10T07:17:09Z</time>
      </trkpt>
      <trkpt lat="49.82822" lon="2.31705">
        <ele>108</ele>
        <time>2023-08-10T07:17:10Z</time>
      </trkpt>
      <trkpt lat="49.82822" lon="2.31705">
        <ele>108</ele>
        <time>2023-08-10T07:17:11Z</time>
      </trkpt>
      <trkpt lat="49.82821" lon="2.31706">
        <ele>108.1</ele>
        <time>2023-08-10T07:17:12Z</time>
      </trkpt>
      <trkpt lat="49.82819" lon="2.31706">
        <ele>108.1</ele>
        <time>2023-08-10T07:17:13Z</time>
      </trkpt>
      <trkpt lat="49.82818" lon="2.31706">
        <ele>108.1</ele>
        <time>2023-08-10T07:17:14Z</time>
      </trkpt>
      <trkpt lat="49.82817" lon="2.31707">
        <ele>108.1</ele>
        <time>2023-08-10T07:17:15Z</time>
      </trkpt>
      <trkpt lat="49.82815" lon="2.31708">
        <ele>108.1</ele>
        <time>2023-08-10T07:17:16Z</time>
      </trkpt>
      <trkpt lat="49.82814" lon="2.31708">
        <ele>108.1</ele>
        <time>2023-08-10T07:17:18Z</time>
      </trkpt>
      <trkpt lat="49.82814" lon="2.31708">
        <ele>108.1</ele>
        <time>2023-08-10T07:17:19Z</time>
      </trkpt>
      <trkpt lat="49.82812" lon="2.31709">
        <ele>108.1</ele>
        <time>2023-08-10T07:17:20Z</time>
      </trkpt>
      <trkpt lat="49.82811" lon="2.31709">
        <ele>108.2</ele>
        <time>2023-08-10T07:17:21Z</time>
      </trkpt>
      <trkpt lat="49.8281" lon="2.31709">
        <ele>108.2</ele>
        <time>2023-08-10T07:17:22Z</time>
      </trkpt>
      <trkpt lat="49.82809" lon="2.3171">
        <ele>108.2</ele>
        <time>2023-08-10T07:17:23Z</time>
      </trkpt>
      <trkpt lat="49.82808" lon="2.3171">
        <ele>108.2</ele>
        <time>2023-08-10T07:17:24Z</time>
      </trkpt>
      <trkpt lat="49.82807" lon="2.3171">
        <ele>108.2</ele>
        <time>2023-08-10T07:17:25Z</time>
      </trkpt>
      <trkpt lat="49.82806" lon="2.31711">
        <ele>108.2</ele>
        <time>2023-08-10T07:17:26Z</time>
      </trkpt>
      <trkpt lat="49.82805" lon="2.31711">
        <ele>108.2</ele>
        <time>2023-08-10T07:17:28Z</time>
      </trkpt>
      <trkpt lat="49.82803" lon="2.31711">
        <ele>108.2</ele>
        <time>2023-08-10T07:17:29Z</time>
      </trkpt>
      <trkpt lat="49.82803" lon="2.31711">
        <ele>108.2</ele>
        <time>2023-08-10T07:17:30Z</time>
      </trkpt>
      <trkpt lat="49.82802" lon="2.31711">
        <ele>108.2</ele>
        <time>2023-08-10T07:17:31Z</time>
      </trkpt>
      <trkpt lat="49.82801" lon="2.3171">
        <ele>108.3</ele>
        <time>2023-08-10T07:17:32Z</time>
      </trkpt>
      <trkpt lat="49.828" lon="2.3171">
        <ele>108.3</ele>
        <time>2023-08-10T07:17:33Z</time>
      </trkpt>
      <trkpt lat="49.82799" lon="2.3171">
        <ele>108.3</ele>
        <time>2023-08-10T07:17:34Z</time>
      </trkpt>
      <trkpt lat="49.82798" lon="2.3171">
        <ele>108.3</ele>
        <time>2023-08-10T07:17:35Z</time>
      </trkpt>
      <trkpt lat="49.82796" lon="2.31711">
        <ele>108.3</ele>
        <time>2023-08-10T07:17:36Z</time>
      </trkpt>
      <trkpt lat="49.82795" lon="2.31711">
        <ele>108.3</ele>
        <time>2023-08-10T07:17:38Z</time>
      </trkpt>
      <trkpt lat="49.82794" lon="2.31711">
        <ele>108.3</ele>
        <time>2023-08-10T07:17:39Z</time>
      </trkpt>
      <trkpt lat="49.82793" lon="2.31711">
        <ele>108.3</ele>
        <time>2023-08-10T07:17:40Z</time>
      </trkpt>
      <trkpt lat="49.82792" lon="2.31711">
        <ele>108.3</ele>
        <time>2023-08-10T07:17:41Z</time>
      </trkpt>
      <trkpt lat="49.82791" lon="2.31711">
        <ele>108.4</ele>
        <time>2023-08-10T07:17:42Z</time>
      </trkpt>
      <trkpt lat="49.82789" lon="2.31711">
        <ele>108.4</ele>
        <time>2023-08-10T07:17:43Z</time>
      </trkpt>
      <trkpt lat="49.82788" lon="2.31711">
        <ele>108.4</ele>
        <time>2023-08-10T07:17:44Z</time>
      </trkpt>
      <trkpt lat="49.82787" lon="2.31711">
        <ele>108.4</ele>
        <time>2023-08-10T07:17:45Z</time>
      </trkpt>
      <trkpt lat="49.82784" lon="2.31712">
        <ele>108.4</ele>
        <time>2023-08-10T07:17:47Z</time>
      </trkpt>
      <trkpt lat="49.82784" lon="2.31712">
        <ele>108.4</ele>
        <time>2023-08-10T07:17:48Z</time>
      </trkpt>
      <trkpt lat="49.82783" lon="2.31712">
        <ele>108.4</ele>
        <time>2023-08-10T07:17:49Z</time>
      </trkpt>
      <trkpt lat="49.82781" lon="2.31712">
        <ele>108.4</ele>
        <time>2023-08-10T07:17:50Z</time>
      </trkpt>
      <trkpt lat="49.8278" lon="2.31713">
        <ele>108.5</ele>
        <time>2023-08-10T07:17:51Z</time>
      </trkpt>
      <trkpt lat="49.82779" lon="2.31713">
        <ele>108.5</ele>
        <time>2023-08-10T07:17:52Z</time>
      </trkpt>
      <trkpt lat="49.82777" lon="2.31713">
        <ele>108.5</ele>
        <time>2023-08-10T07:17:53Z</time>
      </trkpt>
      <trkpt lat="49.82776" lon="2.31714">
        <ele>108.5</ele>
        <time>2023-08-10T07:17:54Z</time>
      </trkpt>
      <trkpt lat="49.82775" lon="2.31714">
        <ele>108.5</ele>
        <time>2023-08-10T07:17:55Z</time>
      </trkpt>
      <trkpt lat="49.82774" lon="2.31714">
        <ele>108.5</ele>
        <time>2023-08-10T07:17:56Z</time>
      </trkpt>
      <trkpt lat="49.82772" lon="2.31715">
        <ele>108.5</ele>
        <time>2023-08-10T07:17:58Z</time>
      </trkpt>
      <trkpt lat="49.82771" lon="2.31715">
        <ele>108.5</ele>
        <time>2023-08-10T07:17:59Z</time>
      </trkpt>
      <trkpt lat="49.8277" lon="2.31715">
        <ele>108.5</ele>
        <time>2023-08-10T07:18:00Z</time>
      </trkpt>
      <trkpt lat="49.82768" lon="2.31716">
        <ele>108.5</ele>
        <time>2023-08-10T07:18:01Z</time>
      </trkpt>
      <trkpt lat="49.82767" lon="2.31716">
        <ele>108.5</ele>
        <time>2023-08-10T07:18:02Z</time>
      </trkpt>
      <trkpt lat="49.82766" lon="2.31717">
        <ele>108.5</ele>
        <time>2023-08-10T07:18:03Z</time>
      </trkpt>
      <trkpt lat="49.82764" lon="2.31717">
        <ele>108.5</ele>
        <time>2023-08-10T07:18:04Z</time>
      </trkpt>
      <trkpt lat="49.82763" lon="2.31718">
        <ele>108.5</ele>
        <time>2023-08-10T07:18:05Z</time>
      </trkpt>
      <trkpt lat="49.82762" lon="2.31718">
        <ele>108.5</ele>
        <time>2023-08-10T07:18:06Z</time>
      </trkpt>
      <trkpt lat="49.82761" lon="2.31718">
        <ele>108.5</ele>
        <time>2023-08-10T07:18:08Z</time>
      </trkpt>
      <trkpt lat="49.82759" lon="2.31719">
        <ele>108.5</ele>
        <time>2023-08-10T07:18:09Z</time>
      </trkpt>
      <trkpt lat="49.82757" lon="2.3172">
        <ele>108.5</ele>
        <time>2023-08-10T07:18:10Z</time>
      </trkpt>
      <trkpt lat="49.82756" lon="2.3172">
        <ele>108.5</ele>
        <time>2023-08-10T07:18:11Z</time>
      </trkpt>
      <trkpt lat="49.82755" lon="2.3172">
        <ele>108.5</ele>
        <time>2023-08-10T07:18:12Z</time>
      </trkpt>
      <trkpt lat="49.82754" lon="2.31721">
        <ele>108.5</ele>
        <time>2023-08-10T07:18:13Z</time>
      </trkpt>
      <trkpt lat="49.82753" lon="2.31722">
        <ele>108.5</ele>
        <time>2023-08-10T07:18:14Z</time>
      </trkpt>
      <trkpt lat="49.82752" lon="2.31722">
        <ele>108.5</ele>
        <time>2023-08-10T07:18:15Z</time>
      </trkpt>
      <trkpt lat="49.8275" lon="2.31723">
        <ele>108.5</ele>
        <time>2023-08-10T07:18:16Z</time>
      </trkpt>
      <trkpt lat="49.82749" lon="2.31724">
        <ele>108.5</ele>
        <time>2023-08-10T07:18:18Z</time>
      </trkpt>
      <trkpt lat="49.82748" lon="2.31724">
        <ele>108.5</ele>
        <time>2023-08-10T07:18:19Z</time>
      </trkpt>
      <trkpt lat="49.82746" lon="2.31725">
        <ele>108.5</ele>
        <time>2023-08-10T07:18:20Z</time>
      </trkpt>
      <trkpt lat="49.82744" lon="2.31725">
        <ele>108.5</ele>
        <time>2023-08-10T07:18:21Z</time>
      </trkpt>
      <trkpt lat="49.82744" lon="2.31725">
        <ele>108.5</ele>
        <time>2023-08-10T07:18:22Z</time>
      </trkpt>
      <trkpt lat="49.82743" lon="2.31726">
        <ele>108.5</ele>
        <time>2023-08-10T07:18:23Z</time>
      </trkpt>
      <trkpt lat="49.82741" lon="2.31726">
        <ele>108.5</ele>
        <time>2023-08-10T07:18:24Z</time>
      </trkpt>
      <trkpt lat="49.8274" lon="2.31726">
        <ele>108.5</ele>
        <time>2023-08-10T07:18:25Z</time>
      </trkpt>
      <trkpt lat="49.82739" lon="2.31726">
        <ele>108.5</ele>
        <time>2023-08-10T07:18:26Z</time>
      </trkpt>
      <trkpt lat="49.82737" lon="2.31727">
        <ele>108.5</ele>
        <time>2023-08-10T07:18:28Z</time>
      </trkpt>
      <trkpt lat="49.82736" lon="2.31727">
        <ele>108.5</ele>
        <time>2023-08-10T07:18:29Z</time>
      </trkpt>
      <trkpt lat="49.82735" lon="2.31727">
        <ele>108.6</ele>
        <time>2023-08-10T07:18:30Z</time>
      </trkpt>
      <trkpt lat="49.82733" lon="2.31727">
        <ele>108.6</ele>
        <time>2023-08-10T07:18:31Z</time>
      </trkpt>
      <trkpt lat="49.82732" lon="2.31727">
        <ele>108.6</ele>
        <time>2023-08-10T07:18:32Z</time>
      </trkpt>
      <trkpt lat="49.82732" lon="2.31727">
        <ele>108.6</ele>
        <time>2023-08-10T07:18:33Z</time>
      </trkpt>
      <trkpt lat="49.82731" lon="2.31727">
        <ele>108.6</ele>
        <time>2023-08-10T07:18:34Z</time>
      </trkpt>
      <trkpt lat="49.8273" lon="2.31728">
        <ele>108.6</ele>
        <time>2023-08-10T07:18:35Z</time>
      </trkpt>
      <trkpt lat="49.82728" lon="2.31728">
        <ele>108.6</ele>
        <time>2023-08-10T07:18:36Z</time>
      </trkpt>
      <trkpt lat="49.82727" lon="2.31728">
        <ele>108.6</ele>
        <time>2023-08-10T07:18:37Z</time>
      </trkpt>
      <trkpt lat="49.82726" lon="2.31728">
        <ele>108.6</ele>
        <time>2023-08-10T07:18:39Z</time>
      </trkpt>
      <trkpt lat="49.82724" lon="2.31729">
        <ele>108.6</ele>
        <time>2023-08-10T07:18:40Z</time>
      </trkpt>
      <trkpt lat="49.82723" lon="2.31729">
        <ele>108.6</ele>
        <time>2023-08-10T07:18:41Z</time>
      </trkpt>
      <trkpt lat="49.82722" lon="2.31729">
        <ele>108.7</ele>
        <time>2023-08-10T07:18:42Z</time>
      </trkpt>
      <trkpt lat="49.82721" lon="2.31729">
        <ele>108.7</ele>
        <time>2023-08-10T07:18:43Z</time>
      </trkpt>
      <trkpt lat="49.8272" lon="2.3173">
        <ele>108.7</ele>
        <time>2023-08-10T07:18:44Z</time>
      </trkpt>
      <trkpt lat="49.82719" lon="2.3173">
        <ele>108.7</ele>
        <time>2023-08-10T07:18:45Z</time>
      </trkpt>
      <trkpt lat="49.82718" lon="2.3173">
        <ele>108.7</ele>
        <time>2023-08-10T07:18:46Z</time>
      </trkpt>
      <trkpt lat="49.82717" lon="2.31731">
        <ele>108.7</ele>
        <time>2023-08-10T07:18:48Z</time>
      </trkpt>
      <trkpt lat="49.82716" lon="2.31732">
        <ele>108.7</ele>
        <time>2023-08-10T07:18:49Z</time>
      </trkpt>
      <trkpt lat="49.82714" lon="2.31733">
        <ele>108.7</ele>
        <time>2023-08-10T07:18:50Z</time>
      </trkpt>
      <trkpt lat="49.82713" lon="2.31733">
        <ele>108.7</ele>
        <time>2023-08-10T07:18:51Z</time>
      </trkpt>
      <trkpt lat="49.82712" lon="2.31733">
        <ele>108.7</ele>
        <time>2023-08-10T07:18:52Z</time>
      </trkpt>
      <trkpt lat="49.82711" lon="2.31734">
        <ele>108.7</ele>
        <time>2023-08-10T07:18:53Z</time>
      </trkpt>
      <trkpt lat="49.82709" lon="2.31734">
        <ele>108.7</ele>
        <time>2023-08-10T07:18:54Z</time>
      </trkpt>
      <trkpt lat="49.82708" lon="2.31734">
        <ele>108.7</ele>
        <time>2023-08-10T07:18:55Z</time>
      </trkpt>
      <trkpt lat="49.82707" lon="2.31734">
        <ele>108.7</ele>
        <time>2023-08-10T07:18:56Z</time>
      </trkpt>
      <trkpt lat="49.82706" lon="2.31734">
        <ele>108.7</ele>
        <time>2023-08-10T07:18:58Z</time>
      </trkpt>
      <trkpt lat="49.82704" lon="2.31734">
        <ele>108.7</ele>
        <time>2023-08-10T07:18:59Z</time>
      </trkpt>
      <trkpt lat="49.82703" lon="2.31734">
        <ele>108.7</ele>
        <time>2023-08-10T07:19:00Z</time>
      </trkpt>
      <trkpt lat="49.82702" lon="2.31734">
        <ele>108.7</ele>
        <time>2023-08-10T07:19:01Z</time>
      </trkpt>
      <trkpt lat="49.82701" lon="2.31734">
        <ele>108.7</ele>
        <time>2023-08-10T07:19:02Z</time>
      </trkpt>
      <trkpt lat="49.827" lon="2.31734">
        <ele>108.7</ele>
        <time>2023-08-10T07:19:03Z</time>
      </trkpt>
      <trkpt lat="49.82699" lon="2.31734">
        <ele>108.7</ele>
        <time>2023-08-10T07:19:04Z</time>
      </trkpt>
      <trkpt lat="49.82698" lon="2.31735">
        <ele>108.7</ele>
        <time>2023-08-10T07:19:05Z</time>
      </trkpt>
      <trkpt lat="49.82697" lon="2.31736">
        <ele>108.7</ele>
        <time>2023-08-10T07:19:06Z</time>
      </trkpt>
      <trkpt lat="49.82695" lon="2.31736">
        <ele>108.7</ele>
        <time>2023-08-10T07:19:07Z</time>
      </trkpt>
      <trkpt lat="49.82694" lon="2.31736">
        <ele>108.7</ele>
        <time>2023-08-10T07:19:09Z</time>
      </trkpt>
      <trkpt lat="49.82693" lon="2.31737">
        <ele>108.7</ele>
        <time>2023-08-10T07:19:10Z</time>
      </trkpt>
      <trkpt lat="49.82692" lon="2.31737">
        <ele>108.7</ele>
        <time>2023-08-10T07:19:11Z</time>
      </trkpt>
      <trkpt lat="49.82691" lon="2.31737">
        <ele>108.7</ele>
        <time>2023-08-10T07:19:12Z</time>
      </trkpt>
      <trkpt lat="49.82689" lon="2.31738">
        <ele>108.7</ele>
        <time>2023-08-10T07:19:13Z</time>
      </trkpt>
      <trkpt lat="49.82688" lon="2.31738">
        <ele>108.7</ele>
        <time>2023-08-10T07:19:15Z</time>
      </trkpt>
      <trkpt lat="49.82686" lon="2.31739">
        <ele>108.7</ele>
        <time>2023-08-10T07:19:16Z</time>
      </trkpt>
      <trkpt lat="49.82685" lon="2.31739">
        <ele>108.7</ele>
        <time>2023-08-10T07:19:17Z</time>
      </trkpt>
      <trkpt lat="49.82684" lon="2.3174">
        <ele>108.7</ele>
        <time>2023-08-10T07:19:18Z</time>
      </trkpt>
      <trkpt lat="49.82682" lon="2.31741">
        <ele>108.7</ele>
        <time>2023-08-10T07:19:19Z</time>
      </trkpt>
      <trkpt lat="49.82681" lon="2.31741">
        <ele>108.7</ele>
        <time>2023-08-10T07:19:20Z</time>
      </trkpt>
      <trkpt lat="49.8268" lon="2.31741">
        <ele>108.7</ele>
        <time>2023-08-10T07:19:21Z</time>
      </trkpt>
      <trkpt lat="49.82678" lon="2.31742">
        <ele>108.7</ele>
        <time>2023-08-10T07:19:23Z</time>
      </trkpt>
      <trkpt lat="49.82677" lon="2.31743">
        <ele>108.7</ele>
        <time>2023-08-10T07:19:24Z</time>
      </trkpt>
      <trkpt lat="49.82675" lon="2.31743">
        <ele>108.8</ele>
        <time>2023-08-10T07:19:25Z</time>
      </trkpt>
      <trkpt lat="49.82674" lon="2.31744">
        <ele>108.8</ele>
        <time>2023-08-10T07:19:26Z</time>
      </trkpt>
      <trkpt lat="49.82673" lon="2.31744">
        <ele>108.8</ele>
        <time>2023-08-10T07:19:27Z</time>
      </trkpt>
      <trkpt lat="49.82672" lon="2.31744">
        <ele>108.8</ele>
        <time>2023-08-10T07:19:28Z</time>
      </trkpt>
      <trkpt lat="49.8267" lon="2.31744">
        <ele>108.8</ele>
        <time>2023-08-10T07:19:30Z</time>
      </trkpt>
      <trkpt lat="49.82669" lon="2.31744">
        <ele>108.7</ele>
        <time>2023-08-10T07:19:31Z</time>
      </trkpt>
      <trkpt lat="49.82668" lon="2.31745">
        <ele>108.7</ele>
        <time>2023-08-10T07:19:32Z</time>
      </trkpt>
      <trkpt lat="49.82667" lon="2.31745">
        <ele>108.7</ele>
        <time>2023-08-10T07:19:33Z</time>
      </trkpt>
      <trkpt lat="49.82666" lon="2.31745">
        <ele>108.6</ele>
        <time>2023-08-10T07:19:35Z</time>
      </trkpt>
      <trkpt lat="49.82664" lon="2.31745">
        <ele>108.6</ele>
        <time>2023-08-10T07:19:36Z</time>
      </trkpt>
      <trkpt lat="49.82664" lon="2.31745">
        <ele>108.5</ele>
        <time>2023-08-10T07:19:37Z</time>
      </trkpt>
      <trkpt lat="49.82663" lon="2.31744">
        <ele>108.5</ele>
        <time>2023-08-10T07:19:38Z</time>
      </trkpt>
      <trkpt lat="49.82662" lon="2.31742">
        <ele>108.5</ele>
        <time>2023-08-10T07:19:39Z</time>
      </trkpt>
      <trkpt lat="49.82662" lon="2.3174">
        <ele>108.4</ele>
        <time>2023-08-10T07:19:40Z</time>
      </trkpt>
      <trkpt lat="49.82662" lon="2.31738">
        <ele>108.4</ele>
        <time>2023-08-10T07:19:41Z</time>
      </trkpt>
      <trkpt lat="49.82662" lon="2.31736">
        <ele>108.4</ele>
        <time>2023-08-10T07:19:42Z</time>
      </trkpt>
      <trkpt lat="49.82662" lon="2.31734">
        <ele>108.3</ele>
        <time>2023-08-10T07:19:44Z</time>
      </trkpt>
      <trkpt lat="49.82662" lon="2.31731">
        <ele>108.3</ele>
        <time>2023-08-10T07:19:45Z</time>
      </trkpt>
      <trkpt lat="49.82662" lon="2.31729">
        <ele>108.3</ele>
        <time>2023-08-10T07:19:46Z</time>
      </trkpt>
      <trkpt lat="49.82662" lon="2.31727">
        <ele>108.2</ele>
        <time>2023-08-10T07:19:47Z</time>
      </trkpt>
      <trkpt lat="49.82662" lon="2.31724">
        <ele>108.2</ele>
        <time>2023-08-10T07:19:48Z</time>
      </trkpt>
      <trkpt lat="49.82662" lon="2.31722">
        <ele>108.2</ele>
        <time>2023-08-10T07:19:49Z</time>
      </trkpt>
      <trkpt lat="49.82662" lon="2.3172">
        <ele>108.2</ele>
        <time>2023-08-10T07:19:51Z</time>
      </trkpt>
      <trkpt lat="49.82662" lon="2.31718">
        <ele>108.1</ele>
        <time>2023-08-10T07:19:52Z</time>
      </trkpt>
      <trkpt lat="49.82662" lon="2.31714">
        <ele>108.1</ele>
        <time>2023-08-10T07:19:53Z</time>
      </trkpt>
      <trkpt lat="49.82662" lon="2.31712">
        <ele>108.1</ele>
        <time>2023-08-10T07:19:55Z</time>
      </trkpt>
      <trkpt lat="49.82662" lon="2.31711">
        <ele>108.1</ele>
        <time>2023-08-10T07:19:56Z</time>
      </trkpt>
      <trkpt lat="49.82662" lon="2.31709">
        <ele>108.1</ele>
        <time>2023-08-10T07:19:57Z</time>
      </trkpt>
      <trkpt lat="49.82662" lon="2.31707">
        <ele>108.1</ele>
        <time>2023-08-10T07:19:58Z</time>
      </trkpt>
      <trkpt lat="49.82662" lon="2.31705">
        <ele>108</ele>
        <time>2023-08-10T07:19:59Z</time>
      </trkpt>
      <trkpt lat="49.82662" lon="2.31703">
        <ele>108</ele>
        <time>2023-08-10T07:20:00Z</time>
      </trkpt>
      <trkpt lat="49.82661" lon="2.31701">
        <ele>108</ele>
        <time>2023-08-10T07:20:01Z</time>
      </trkpt>
      <trkpt lat="49.82661" lon="2.31699">
        <ele>108</ele>
        <time>2023-08-10T07:20:02Z</time>
      </trkpt>
      <trkpt lat="49.82661" lon="2.31695">
        <ele>108</ele>
        <time>2023-08-10T07:20:03Z</time>
      </trkpt>
      <trkpt lat="49.82661" lon="2.31694">
        <ele>107.9</ele>
        <time>2023-08-10T07:20:05Z</time>
      </trkpt>
      <trkpt lat="49.82661" lon="2.31693">
        <ele>107.9</ele>
        <time>2023-08-10T07:20:06Z</time>
      </trkpt>
      <trkpt lat="49.82661" lon="2.31691">
        <ele>107.9</ele>
        <time>2023-08-10T07:20:07Z</time>
      </trkpt>
      <trkpt lat="49.82661" lon="2.31688">
        <ele>107.9</ele>
        <time>2023-08-10T07:20:08Z</time>
      </trkpt>
      <trkpt lat="49.82661" lon="2.31685">
        <ele>107.9</ele>
        <time>2023-08-10T07:20:09Z</time>
      </trkpt>
      <trkpt lat="49.82661" lon="2.31684">
        <ele>107.9</ele>
        <time>2023-08-10T07:20:11Z</time>
      </trkpt>
      <trkpt lat="49.82661" lon="2.31682">
        <ele>107.9</ele>
        <time>2023-08-10T07:20:12Z</time>
      </trkpt>
      <trkpt lat="49.82661" lon="2.31681">
        <ele>107.9</ele>
        <time>2023-08-10T07:20:13Z</time>
      </trkpt>
      <trkpt lat="49.82661" lon="2.31679">
        <ele>107.8</ele>
        <time>2023-08-10T07:20:14Z</time>
      </trkpt>
      <trkpt lat="49.82661" lon="2.31677">
        <ele>107.8</ele>
        <time>2023-08-10T07:20:15Z</time>
      </trkpt>
      <trkpt lat="49.8266" lon="2.31674">
        <ele>107.8</ele>
        <time>2023-08-10T07:20:17Z</time>
      </trkpt>
      <trkpt lat="49.8266" lon="2.31673">
        <ele>107.8</ele>
        <time>2023-08-10T07:20:18Z</time>
      </trkpt>
      <trkpt lat="49.8266" lon="2.31671">
        <ele>107.8</ele>
        <time>2023-08-10T07:20:19Z</time>
      </trkpt>
      <trkpt lat="49.82659" lon="2.3167">
        <ele>107.8</ele>
        <time>2023-08-10T07:20:20Z</time>
      </trkpt>
      <trkpt lat="49.82659" lon="2.31668">
        <ele>107.8</ele>
        <time>2023-08-10T07:20:21Z</time>
      </trkpt>
      <trkpt lat="49.82659" lon="2.31666">
        <ele>107.8</ele>
        <time>2023-08-10T07:20:22Z</time>
      </trkpt>
      <trkpt lat="49.82658" lon="2.31664">
        <ele>107.7</ele>
        <time>2023-08-10T07:20:23Z</time>
      </trkpt>
      <trkpt lat="49.82658" lon="2.31662">
        <ele>107.7</ele>
        <time>2023-08-10T07:20:24Z</time>
      </trkpt>
      <trkpt lat="49.82658" lon="2.31661">
        <ele>107.7</ele>
        <time>2023-08-10T07:20:26Z</time>
      </trkpt>
      <trkpt lat="49.82657" lon="2.31659">
        <ele>107.7</ele>
        <time>2023-08-10T07:20:27Z</time>
      </trkpt>
      <trkpt lat="49.82657" lon="2.31657">
        <ele>107.7</ele>
        <time>2023-08-10T07:20:28Z</time>
      </trkpt>
      <trkpt lat="49.82657" lon="2.31655">
        <ele>107.7</ele>
        <time>2023-08-10T07:20:29Z</time>
      </trkpt>
      <trkpt lat="49.82657" lon="2.31653">
        <ele>107.7</ele>
        <time>2023-08-10T07:20:30Z</time>
      </trkpt>
      <trkpt lat="49.82657" lon="2.31651">
        <ele>107.7</ele>
        <time>2023-08-10T07:20:31Z</time>
      </trkpt>
      <trkpt lat="49.82656" lon="2.31649">
        <ele>107.7</ele>
        <time>2023-08-10T07:20:32Z</time>
      </trkpt>
      <trkpt lat="49.82656" lon="2.31647">
        <ele>107.7</ele>
        <time>2023-08-10T07:20:34Z</time>
      </trkpt>
      <trkpt lat="49.82656" lon="2.31646">
        <ele>107.7</ele>
        <time>2023-08-10T07:20:35Z</time>
      </trkpt>
      <trkpt lat="49.82656" lon="2.31644">
        <ele>107.6</ele>
        <time>2023-08-10T07:20:36Z</time>
      </trkpt>
      <trkpt lat="49.82656" lon="2.31643">
        <ele>107.6</ele>
        <time>2023-08-10T07:20:37Z</time>
      </trkpt>
      <trkpt lat="49.82656" lon="2.31641">
        <ele>107.6</ele>
        <time>2023-08-10T07:20:38Z</time>
      </trkpt>
      <trkpt lat="49.82656" lon="2.31638">
        <ele>107.6</ele>
        <time>2023-08-10T07:20:40Z</time>
      </trkpt>
      <trkpt lat="49.82655" lon="2.31636">
        <ele>107.6</ele>
        <time>2023-08-10T07:20:41Z</time>
      </trkpt>
      <trkpt lat="49.82655" lon="2.31633">
        <ele>107.6</ele>
        <time>2023-08-10T07:20:42Z</time>
      </trkpt>
      <trkpt lat="49.82655" lon="2.31631">
        <ele>107.6</ele>
        <time>2023-08-10T07:20:44Z</time>
      </trkpt>
      <trkpt lat="49.82654" lon="2.31629">
        <ele>107.6</ele>
        <time>2023-08-10T07:20:46Z</time>
      </trkpt>
      <trkpt lat="49.82654" lon="2.31627">
        <ele>107.6</ele>
        <time>2023-08-10T07:20:47Z</time>
      </trkpt>
      <trkpt lat="49.82654" lon="2.31625">
        <ele>107.5</ele>
        <time>2023-08-10T07:20:48Z</time>
      </trkpt>
      <trkpt lat="49.82653" lon="2.31622">
        <ele>107.5</ele>
        <time>2023-08-10T07:20:49Z</time>
      </trkpt>
      <trkpt lat="49.82653" lon="2.31621">
        <ele>107.5</ele>
        <time>2023-08-10T07:20:50Z</time>
      </trkpt>
      <trkpt lat="49.82653" lon="2.3162">
        <ele>107.5</ele>
        <time>2023-08-10T07:20:51Z</time>
      </trkpt>
      <trkpt lat="49.82652" lon="2.31617">
        <ele>107.5</ele>
        <time>2023-08-10T07:20:52Z</time>
      </trkpt>
      <trkpt lat="49.82652" lon="2.31615">
        <ele>107.5</ele>
        <time>2023-08-10T07:20:54Z</time>
      </trkpt>
      <trkpt lat="49.82652" lon="2.31614">
        <ele>107.5</ele>
        <time>2023-08-10T07:20:55Z</time>
      </trkpt>
      <trkpt lat="49.82652" lon="2.31611">
        <ele>107.5</ele>
        <time>2023-08-10T07:20:56Z</time>
      </trkpt>
      <trkpt lat="49.82651" lon="2.3161">
        <ele>107.5</ele>
        <time>2023-08-10T07:20:57Z</time>
      </trkpt>
      <trkpt lat="49.82651" lon="2.31609">
        <ele>107.5</ele>
        <time>2023-08-10T07:20:58Z</time>
      </trkpt>
      <trkpt lat="49.82651" lon="2.31607">
        <ele>107.4</ele>
        <time>2023-08-10T07:20:59Z</time>
      </trkpt>
      <trkpt lat="49.82651" lon="2.31605">
        <ele>107.4</ele>
        <time>2023-08-10T07:21:00Z</time>
      </trkpt>
      <trkpt lat="49.82651" lon="2.31603">
        <ele>107.4</ele>
        <time>2023-08-10T07:21:02Z</time>
      </trkpt>
      <trkpt lat="49.8265" lon="2.31601">
        <ele>107.4</ele>
        <time>2023-08-10T07:21:03Z</time>
      </trkpt>
      <trkpt lat="49.8265" lon="2.31599">
        <ele>107.4</ele>
        <time>2023-08-10T07:21:04Z</time>
      </trkpt>
      <trkpt lat="49.82649" lon="2.31596">
        <ele>107.4</ele>
        <time>2023-08-10T07:21:05Z</time>
      </trkpt>
      <trkpt lat="49.82649" lon="2.31594">
        <ele>107.4</ele>
        <time>2023-08-10T07:21:06Z</time>
      </trkpt>
      <trkpt lat="49.82649" lon="2.31593">
        <ele>107.4</ele>
        <time>2023-08-10T07:21:07Z</time>
      </trkpt>
      <trkpt lat="49.82649" lon="2.31591">
        <ele>107.3</ele>
        <time>2023-08-10T07:21:08Z</time>
      </trkpt>
      <trkpt lat="49.82648" lon="2.3159">
        <ele>107.3</ele>
        <time>2023-08-10T07:21:10Z</time>
      </trkpt>
      <trkpt lat="49.82648" lon="2.31588">
        <ele>107.3</ele>
        <time>2023-08-10T07:21:11Z</time>
      </trkpt>
      <trkpt lat="49.82648" lon="2.31585">
        <ele>107.3</ele>
        <time>2023-08-10T07:21:12Z</time>
      </trkpt>
      <trkpt lat="49.82648" lon="2.31583">
        <ele>107.3</ele>
        <time>2023-08-10T07:21:13Z</time>
      </trkpt>
      <trkpt lat="49.82647" lon="2.31582">
        <ele>107.3</ele>
        <time>2023-08-10T07:21:14Z</time>
      </trkpt>
      <trkpt lat="49.82647" lon="2.3158">
        <ele>107.3</ele>
        <time>2023-08-10T07:21:15Z</time>
      </trkpt>
      <trkpt lat="49.82647" lon="2.31579">
        <ele>107.2</ele>
        <time>2023-08-10T07:21:16Z</time>
      </trkpt>
      <trkpt lat="49.82647" lon="2.31577">
        <ele>107.2</ele>
        <time>2023-08-10T07:21:17Z</time>
      </trkpt>
      <trkpt lat="49.82647" lon="2.31575">
        <ele>107.2</ele>
        <time>2023-08-10T07:21:19Z</time>
      </trkpt>
      <trkpt lat="49.82646" lon="2.31573">
        <ele>107.2</ele>
        <time>2023-08-10T07:21:20Z</time>
      </trkpt>
      <trkpt lat="49.82646" lon="2.31572">
        <ele>107.2</ele>
        <time>2023-08-10T07:21:21Z</time>
      </trkpt>
      <trkpt lat="49.82646" lon="2.31569">
        <ele>107.2</ele>
        <time>2023-08-10T07:21:22Z</time>
      </trkpt>
      <trkpt lat="49.82646" lon="2.31567">
        <ele>107.2</ele>
        <time>2023-08-10T07:21:23Z</time>
      </trkpt>
      <trkpt lat="49.82646" lon="2.31566">
        <ele>107.2</ele>
        <time>2023-08-10T07:21:24Z</time>
      </trkpt>
      <trkpt lat="49.82646" lon="2.31565">
        <ele>107.1</ele>
        <time>2023-08-10T07:21:25Z</time>
      </trkpt>
      <trkpt lat="49.82646" lon="2.31563">
        <ele>107.1</ele>
        <time>2023-08-10T07:21:26Z</time>
      </trkpt>
      <trkpt lat="49.82646" lon="2.31561">
        <ele>107.1</ele>
        <time>2023-08-10T07:21:28Z</time>
      </trkpt>
      <trkpt lat="49.82645" lon="2.31557">
        <ele>107.1</ele>
        <time>2023-08-10T07:21:29Z</time>
      </trkpt>
      <trkpt lat="49.82645" lon="2.31555">
        <ele>107.1</ele>
        <time>2023-08-10T07:21:31Z</time>
      </trkpt>
      <trkpt lat="49.82645" lon="2.31553">
        <ele>107.1</ele>
        <time>2023-08-10T07:21:32Z</time>
      </trkpt>
      <trkpt lat="49.82644" lon="2.31552">
        <ele>107</ele>
        <time>2023-08-10T07:21:33Z</time>
      </trkpt>
      <trkpt lat="49.82644" lon="2.3155">
        <ele>107</ele>
        <time>2023-08-10T07:21:34Z</time>
      </trkpt>
      <trkpt lat="49.82644" lon="2.31548">
        <ele>107</ele>
        <time>2023-08-10T07:21:35Z</time>
      </trkpt>
      <trkpt lat="49.82643" lon="2.31546">
        <ele>107</ele>
        <time>2023-08-10T07:21:36Z</time>
      </trkpt>
      <trkpt lat="49.82643" lon="2.31542">
        <ele>107</ele>
        <time>2023-08-10T07:21:37Z</time>
      </trkpt>
      <trkpt lat="49.82642" lon="2.31541">
        <ele>107</ele>
        <time>2023-08-10T07:21:39Z</time>
      </trkpt>
      <trkpt lat="49.82642" lon="2.31539">
        <ele>106.9</ele>
        <time>2023-08-10T07:21:41Z</time>
      </trkpt>
      <trkpt lat="49.82642" lon="2.31537">
        <ele>106.9</ele>
        <time>2023-08-10T07:21:42Z</time>
      </trkpt>
      <trkpt lat="49.82641" lon="2.31535">
        <ele>106.9</ele>
        <time>2023-08-10T07:21:43Z</time>
      </trkpt>
      <trkpt lat="49.82641" lon="2.31532">
        <ele>106.9</ele>
        <time>2023-08-10T07:21:44Z</time>
      </trkpt>
      <trkpt lat="49.82641" lon="2.31531">
        <ele>106.9</ele>
        <time>2023-08-10T07:21:45Z</time>
      </trkpt>
      <trkpt lat="49.82641" lon="2.31529">
        <ele>106.9</ele>
        <time>2023-08-10T07:21:46Z</time>
      </trkpt>
      <trkpt lat="49.82641" lon="2.31527">
        <ele>106.8</ele>
        <time>2023-08-10T07:21:47Z</time>
      </trkpt>
      <trkpt lat="49.82641" lon="2.31525">
        <ele>106.8</ele>
        <time>2023-08-10T07:21:48Z</time>
      </trkpt>
      <trkpt lat="49.8264" lon="2.31523">
        <ele>106.8</ele>
        <time>2023-08-10T07:21:50Z</time>
      </trkpt>
      <trkpt lat="49.8264" lon="2.31521">
        <ele>106.8</ele>
        <time>2023-08-10T07:21:51Z</time>
      </trkpt>
      <trkpt lat="49.82641" lon="2.31519">
        <ele>106.8</ele>
        <time>2023-08-10T07:21:52Z</time>
      </trkpt>
      <trkpt lat="49.82641" lon="2.31518">
        <ele>106.8</ele>
        <time>2023-08-10T07:21:53Z</time>
      </trkpt>
      <trkpt lat="49.82641" lon="2.31517">
        <ele>106.7</ele>
        <time>2023-08-10T07:21:54Z</time>
      </trkpt>
      <trkpt lat="49.82641" lon="2.31516">
        <ele>106.7</ele>
        <time>2023-08-10T07:21:55Z</time>
      </trkpt>
      <trkpt lat="49.8264" lon="2.31515">
        <ele>106.7</ele>
        <time>2023-08-10T07:21:56Z</time>
      </trkpt>
      <trkpt lat="49.8264" lon="2.31515">
        <ele>106.7</ele>
        <time>2023-08-10T07:21:57Z</time>
      </trkpt>
      <trkpt lat="49.8264" lon="2.31516">
        <ele>106.7</ele>
        <time>2023-08-10T07:21:58Z</time>
      </trkpt>
      <trkpt lat="49.8264" lon="2.31515">
        <ele>106.7</ele>
        <time>2023-08-10T07:22:00Z</time>
      </trkpt>
      <trkpt lat="49.8264" lon="2.31514">
        <ele>106.7</ele>
        <time>2023-08-10T07:22:01Z</time>
      </trkpt>
      <trkpt lat="49.8264" lon="2.31513">
        <ele>106.7</ele>
        <time>2023-08-10T07:22:02Z</time>
      </trkpt>
      <trkpt lat="49.8264" lon="2.31511">
        <ele>106.7</ele>
        <time>2023-08-10T07:22:03Z</time>
      </trkpt>
      <trkpt lat="49.8264" lon="2.3151">
        <ele>106.7</ele>
        <time>2023-08-10T07:22:04Z</time>
      </trkpt>
      <trkpt lat="49.82639" lon="2.31508">
        <ele>106.6</ele>
        <time>2023-08-10T07:22:05Z</time>
      </trkpt>
      <trkpt lat="49.82639" lon="2.31506">
        <ele>106.6</ele>
        <time>2023-08-10T07:22:06Z</time>
      </trkpt>
      <trkpt lat="49.82639" lon="2.31503">
        <ele>106.6</ele>
        <time>2023-08-10T07:22:08Z</time>
      </trkpt>
      <trkpt lat="49.82638" lon="2.315">
        <ele>106.6</ele>
        <time>2023-08-10T07:22:09Z</time>
      </trkpt>
      <trkpt lat="49.82638" lon="2.31495">
        <ele>106.5</ele>
        <time>2023-08-10T07:22:10Z</time>
      </trkpt>
      <trkpt lat="49.82637" lon="2.31494">
        <ele>106.5</ele>
        <time>2023-08-10T07:22:11Z</time>
      </trkpt>
      <trkpt lat="49.82637" lon="2.31491">
        <ele>106.4</ele>
        <time>2023-08-10T07:22:12Z</time>
      </trkpt>
      <trkpt lat="49.82637" lon="2.31488">
        <ele>106.4</ele>
        <time>2023-08-10T07:22:13Z</time>
      </trkpt>
      <trkpt lat="49.82636" lon="2.31486">
        <ele>106.4</ele>
        <time>2023-08-10T07:22:14Z</time>
      </trkpt>
      <trkpt lat="49.82636" lon="2.31484">
        <ele>106.4</ele>
        <time>2023-08-10T07:22:15Z</time>
      </trkpt>
      <trkpt lat="49.82636" lon="2.31482">
        <ele>106.4</ele>
        <time>2023-08-10T07:22:16Z</time>
      </trkpt>
      <trkpt lat="49.82636" lon="2.3148">
        <ele>106.3</ele>
        <time>2023-08-10T07:22:17Z</time>
      </trkpt>
      <trkpt lat="49.82635" lon="2.31478">
        <ele>106.3</ele>
        <time>2023-08-10T07:22:19Z</time>
      </trkpt>
      <trkpt lat="49.82635" lon="2.31475">
        <ele>106.3</ele>
        <time>2023-08-10T07:22:20Z</time>
      </trkpt>
      <trkpt lat="49.82634" lon="2.31473">
        <ele>106.2</ele>
        <time>2023-08-10T07:22:21Z</time>
      </trkpt>
      <trkpt lat="49.82634" lon="2.31471">
        <ele>106.2</ele>
        <time>2023-08-10T07:22:22Z</time>
      </trkpt>
      <trkpt lat="49.82634" lon="2.31468">
        <ele>106.2</ele>
        <time>2023-08-10T07:22:23Z</time>
      </trkpt>
      <trkpt lat="49.82633" lon="2.31466">
        <ele>106.2</ele>
        <time>2023-08-10T07:22:25Z</time>
      </trkpt>
      <trkpt lat="49.82633" lon="2.31464">
        <ele>106.1</ele>
        <time>2023-08-10T07:22:26Z</time>
      </trkpt>
      <trkpt lat="49.82633" lon="2.3146">
        <ele>106.1</ele>
        <time>2023-08-10T07:22:27Z</time>
      </trkpt>
      <trkpt lat="49.82633" lon="2.31459">
        <ele>106.1</ele>
        <time>2023-08-10T07:22:28Z</time>
      </trkpt>
      <trkpt lat="49.82632" lon="2.31458">
        <ele>106.1</ele>
        <time>2023-08-10T07:22:29Z</time>
      </trkpt>
      <trkpt lat="49.82632" lon="2.31454">
        <ele>106</ele>
        <time>2023-08-10T07:22:30Z</time>
      </trkpt>
      <trkpt lat="49.82632" lon="2.31453">
        <ele>106</ele>
        <time>2023-08-10T07:22:31Z</time>
      </trkpt>
      <trkpt lat="49.82632" lon="2.31452">
        <ele>106</ele>
        <time>2023-08-10T07:22:32Z</time>
      </trkpt>
      <trkpt lat="49.82632" lon="2.31449">
        <ele>106</ele>
        <time>2023-08-10T07:22:33Z</time>
      </trkpt>
      <trkpt lat="49.82631" lon="2.31447">
        <ele>106</ele>
        <time>2023-08-10T07:22:35Z</time>
      </trkpt>
      <trkpt lat="49.82631" lon="2.31445">
        <ele>106</ele>
        <time>2023-08-10T07:22:36Z</time>
      </trkpt>
      <trkpt lat="49.82631" lon="2.31444">
        <ele>106</ele>
        <time>2023-08-10T07:22:37Z</time>
      </trkpt>
      <trkpt lat="49.82631" lon="2.31442">
        <ele>105.9</ele>
        <time>2023-08-10T07:22:38Z</time>
      </trkpt>
      <trkpt lat="49.82631" lon="2.3144">
        <ele>105.9</ele>
        <time>2023-08-10T07:22:39Z</time>
      </trkpt>
      <trkpt lat="49.82631" lon="2.31437">
        <ele>105.9</ele>
        <time>2023-08-10T07:22:41Z</time>
      </trkpt>
      <trkpt lat="49.82631" lon="2.31435">
        <ele>105.9</ele>
        <time>2023-08-10T07:22:43Z</time>
      </trkpt>
      <trkpt lat="49.82631" lon="2.31434">
        <ele>105.9</ele>
        <time>2023-08-10T07:22:44Z</time>
      </trkpt>
      <trkpt lat="49.82632" lon="2.31433">
        <ele>105.9</ele>
        <time>2023-08-10T07:22:46Z</time>
      </trkpt>
      <trkpt lat="49.82632" lon="2.31433">
        <ele>105.9</ele>
        <time>2023-08-10T07:22:47Z</time>
      </trkpt>
      <trkpt lat="49.82632" lon="2.31433">
        <ele>105.8</ele>
        <time>2023-08-10T07:22:49Z</time>
      </trkpt>
      <trkpt lat="49.82632" lon="2.31433">
        <ele>105.8</ele>
        <time>2023-08-10T07:22:50Z</time>
      </trkpt>
      <trkpt lat="49.82633" lon="2.31433">
        <ele>105.8</ele>
        <time>2023-08-10T07:22:51Z</time>
      </trkpt>
      <trkpt lat="49.82633" lon="2.31434">
        <ele>105.8</ele>
        <time>2023-08-10T07:22:53Z</time>
      </trkpt>
      <trkpt lat="49.82633" lon="2.31434">
        <ele>105.8</ele>
        <time>2023-08-10T07:22:54Z</time>
      </trkpt>
      <trkpt lat="49.82633" lon="2.31435">
        <ele>105.8</ele>
        <time>2023-08-10T07:22:56Z</time>
      </trkpt>
      <trkpt lat="49.82633" lon="2.31435">
        <ele>105.8</ele>
        <time>2023-08-10T07:22:57Z</time>
      </trkpt>
      <trkpt lat="49.82633" lon="2.31436">
        <ele>105.8</ele>
        <time>2023-08-10T07:22:59Z</time>
      </trkpt>
      <trkpt lat="49.82633" lon="2.31437">
        <ele>105.8</ele>
        <time>2023-08-10T07:23:00Z</time>
      </trkpt>
      <trkpt lat="49.82633" lon="2.31438">
        <ele>105.8</ele>
        <time>2023-08-10T07:23:01Z</time>
      </trkpt>
      <trkpt lat="49.82633" lon="2.31438">
        <ele>105.7</ele>
        <time>2023-08-10T07:23:02Z</time>
      </trkpt>
      <trkpt lat="49.82632" lon="2.3144">
        <ele>105.7</ele>
        <time>2023-08-10T07:23:03Z</time>
      </trkpt>
      <trkpt lat="49.82632" lon="2.31441">
        <ele>105.7</ele>
        <time>2023-08-10T07:23:04Z</time>
      </trkpt>
      <trkpt lat="49.82632" lon="2.31441">
        <ele>105.7</ele>
        <time>2023-08-10T07:23:06Z</time>
      </trkpt>
      <trkpt lat="49.82631" lon="2.31442">
        <ele>105.7</ele>
        <time>2023-08-10T07:23:07Z</time>
      </trkpt>
      <trkpt lat="49.82631" lon="2.31443">
        <ele>105.7</ele>
        <time>2023-08-10T07:23:09Z</time>
      </trkpt>
      <trkpt lat="49.82631" lon="2.31443">
        <ele>105.7</ele>
        <time>2023-08-10T07:23:10Z</time>
      </trkpt>
      <trkpt lat="49.82631" lon="2.31443">
        <ele>105.7</ele>
        <time>2023-08-10T07:23:12Z</time>
      </trkpt>
      <trkpt lat="49.82631" lon="2.31444">
        <ele>105.7</ele>
        <time>2023-08-10T07:23:13Z</time>
      </trkpt>
      <trkpt lat="49.82631" lon="2.31444">
        <ele>105.7</ele>
        <time>2023-08-10T07:23:15Z</time>
      </trkpt>
      <trkpt lat="49.82631" lon="2.31444">
        <ele>105.7</ele>
        <time>2023-08-10T07:23:16Z</time>
      </trkpt>
      <trkpt lat="49.82631" lon="2.31444">
        <ele>105.6</ele>
        <time>2023-08-10T07:23:17Z</time>
      </trkpt>
      <trkpt lat="49.82631" lon="2.31445">
        <ele>105.6</ele>
        <time>2023-08-10T07:23:19Z</time>
      </trkpt>
      <trkpt lat="49.82631" lon="2.31445">
        <ele>105.6</ele>
        <time>2023-08-10T07:23:20Z</time>
      </trkpt>
      <trkpt lat="49.82631" lon="2.31444">
        <ele>105.6</ele>
        <time>2023-08-10T07:23:21Z</time>
      </trkpt>
      <trkpt lat="49.82631" lon="2.31444">
        <ele>105.6</ele>
        <time>2023-08-10T07:23:22Z</time>
      </trkpt>
      <trkpt lat="49.82631" lon="2.31444">
        <ele>105.6</ele>
        <time>2023-08-10T07:23:23Z</time>
      </trkpt>
      <trkpt lat="49.82631" lon="2.31444">
        <ele>105.6</ele>
        <time>2023-08-10T07:23:24Z</time>
      </trkpt>
      <trkpt lat="49.82631" lon="2.31444">
        <ele>105.6</ele>
        <time>2023-08-10T07:23:25Z</time>
      </trkpt>
      <trkpt lat="49.82631" lon="2.31444">
        <ele>105.6</ele>
        <time>2023-08-10T07:23:26Z</time>
      </trkpt>
      <trkpt lat="49.82631" lon="2.31444">
        <ele>105.6</ele>
        <time>2023-08-10T07:23:27Z</time>
      </trkpt>
      <trkpt lat="49.82631" lon="2.31444">
        <ele>105.6</ele>
        <time>2023-08-10T07:23:28Z</time>
      </trkpt>
      <trkpt lat="49.82631" lon="2.31444">
        <ele>105.6</ele>
        <time>2023-08-10T07:23:29Z</time>
      </trkpt>
      <trkpt lat="49.82631" lon="2.31444">
        <ele>105.6</ele>
        <time>2023-08-10T07:23:30Z</time>
      </trkpt>
      <trkpt lat="49.82631" lon="2.31444">
        <ele>105.6</ele>
        <time>2023-08-10T07:23:31Z</time>
      </trkpt>
      <trkpt lat="49.82631" lon="2.31444">
        <ele>105.6</ele>
        <time>2023-08-10T07:23:32Z</time>
      </trkpt>
      <trkpt lat="49.82631" lon="2.31444">
        <ele>105.6</ele>
        <time>2023-08-10T07:23:33Z</time>
      </trkpt>
      <trkpt lat="49.82631" lon="2.31444">
        <ele>105.6</ele>
        <time>2023-08-10T07:23:34Z</time>
      </trkpt>
      <trkpt lat="49.82631" lon="2.31444">
        <ele>105.6</ele>
        <time>2023-08-10T07:23:35Z</time>
      </trkpt>
      <trkpt lat="49.82631" lon="2.31444">
        <ele>105.6</ele>
        <time>2023-08-10T07:23:36Z</time>
      </trkpt>
      <trkpt lat="49.82631" lon="2.31444">
        <ele>105.6</ele>
        <time>2023-08-10T07:23:37Z</time>
      </trkpt>
      <trkpt lat="49.82631" lon="2.31444">
        <ele>105.6</ele>
        <time>2023-08-10T07:23:38Z</time>
      </trkpt>
      <trkpt lat="49.82631" lon="2.31444">
        <ele>105.6</ele>
        <time>2023-08-10T07:23:39Z</time>
      </trkpt>
      <trkpt lat="49.82631" lon="2.31444">
        <ele>105.6</ele>
        <time>2023-08-10T07:23:40Z</time>
      </trkpt>
      <trkpt lat="49.82631" lon="2.31444">
        <ele>105.6</ele>
        <time>2023-08-10T07:23:41Z</time>
      </trkpt>
      <trkpt lat="49.82631" lon="2.31444">
        <ele>105.6</ele>
        <time>2023-08-10T07:23:42Z</time>
      </trkpt>
      <trkpt lat="49.82631" lon="2.31444">
        <ele>105.6</ele>
        <time>2023-08-10T07:23:43Z</time>
      </trkpt>
      <trkpt lat="49.82631" lon="2.31444">
        <ele>105.6</ele>
        <time>2023-08-10T07:23:44Z</time>
      </trkpt>
      <trkpt lat="49.82631" lon="2.31444">
        <ele>105.6</ele>
        <time>2023-08-10T07:23:45Z</time>
      </trkpt>
      <trkpt lat="49.82631" lon="2.31444">
        <ele>105.6</ele>
        <time>2023-08-10T07:23:46Z</time>
      </trkpt>
      <trkpt lat="49.82631" lon="2.31444">
        <ele>105.6</ele>
        <time>2023-08-10T07:23:47Z</time>
      </trkpt>
      <trkpt lat="49.82631" lon="2.31444">
        <ele>105.6</ele>
        <time>2023-08-10T07:23:48Z</time>
      </trkpt>
      <trkpt lat="49.82631" lon="2.31444">
        <ele>105.6</ele>
        <time>2023-08-10T07:23:49Z</time>
      </trkpt>
      <trkpt lat="49.82631" lon="2.31444">
        <ele>105.6</ele>
        <time>2023-08-10T07:23:50Z</time>
      </trkpt>
      <trkpt lat="49.82631" lon="2.31444">
        <ele>105.6</ele>
        <time>2023-08-10T07:23:51Z</time>
      </trkpt>
      <trkpt lat="49.82631" lon="2.31444">
        <ele>105.6</ele>
        <time>2023-08-10T07:23:52Z</time>
      </trkpt>
      <trkpt lat="49.82631" lon="2.31444">
        <ele>105.6</ele>
        <time>2023-08-10T07:23:53Z</time>
      </trkpt>
      <trkpt lat="49.82631" lon="2.31444">
        <ele>105.6</ele>
        <time>2023-08-10T07:23:54Z</time>
      </trkpt>
      <trkpt lat="49.82631" lon="2.31444">
        <ele>105.6</ele>
        <time>2023-08-10T07:23:55Z</time>
      </trkpt>
      <trkpt lat="49.82631" lon="2.31444">
        <ele>105.6</ele>
        <time>2023-08-10T07:23:56Z</time>
      </trkpt>
      <trkpt lat="49.82631" lon="2.31444">
        <ele>105.6</ele>
        <time>2023-08-10T07:23:57Z</time>
      </trkpt>
      <trkpt lat="49.82631" lon="2.31444">
        <ele>105.6</ele>
        <time>2023-08-10T07:23:58Z</time>
      </trkpt>
      <trkpt lat="49.82631" lon="2.31444">
        <ele>105.6</ele>
        <time>2023-08-10T07:23:59Z</time>
      </trkpt>
      <trkpt lat="49.82631" lon="2.31444">
        <ele>105.6</ele>
        <time>2023-08-10T07:24:00Z</time>
      </trkpt>
      <trkpt lat="49.82631" lon="2.31444">
        <ele>105.6</ele>
        <time>2023-08-10T07:24:01Z</time>
      </trkpt>
      <trkpt lat="49.82631" lon="2.31444">
        <ele>105.6</ele>
        <time>2023-08-10T07:24:02Z</time>
      </trkpt>
      <trkpt lat="49.82631" lon="2.31444">
        <ele>105.6</ele>
        <time>2023-08-10T07:24:03Z</time>
      </trkpt>
      <trkpt lat="49.82631" lon="2.31444">
        <ele>105.6</ele>
        <time>2023-08-10T07:24:04Z</time>
      </trkpt>
      <trkpt lat="49.82631" lon="2.31444">
        <ele>105.6</ele>
        <time>2023-08-10T07:24:05Z</time>
      </trkpt>
      <trkpt lat="49.82631" lon="2.31444">
        <ele>105.6</ele>
        <time>2023-08-10T07:24:06Z</time>
      </trkpt>
      <trkpt lat="49.82631" lon="2.31444">
        <ele>105.6</ele>
        <time>2023-08-10T07:24:07Z</time>
      </trkpt>
      <trkpt lat="49.82631" lon="2.31444">
        <ele>105.6</ele>
        <time>2023-08-10T07:24:08Z</time>
      </trkpt>
      <trkpt lat="49.8263" lon="2.31445">
        <ele>105.6</ele>
        <time>2023-08-10T07:24:09Z</time>
      </trkpt>
      <trkpt lat="49.8263" lon="2.31446">
        <ele>105.6</ele>
        <time>2023-08-10T07:24:10Z</time>
      </trkpt>
      <trkpt lat="49.82629" lon="2.31446">
        <ele>105.6</ele>
        <time>2023-08-10T07:24:11Z</time>
      </trkpt>
      <trkpt lat="49.82629" lon="2.31446">
        <ele>105.6</ele>
        <time>2023-08-10T07:24:12Z</time>
      </trkpt>
      <trkpt lat="49.8263" lon="2.31446">
        <ele>105.6</ele>
        <time>2023-08-10T07:24:13Z</time>
      </trkpt>
      <trkpt lat="49.8263" lon="2.31446">
        <ele>105.6</ele>
        <time>2023-08-10T07:24:15Z</time>
      </trkpt>
      <trkpt lat="49.8263" lon="2.31445">
        <ele>105.6</ele>
        <time>2023-08-10T07:24:16Z</time>
      </trkpt>
      <trkpt lat="49.8263" lon="2.31445">
        <ele>105.6</ele>
        <time>2023-08-10T07:24:18Z</time>
      </trkpt>
      <trkpt lat="49.8263" lon="2.31445">
        <ele>105.6</ele>
        <time>2023-08-10T07:24:19Z</time>
      </trkpt>
      <trkpt lat="49.8263" lon="2.31445">
        <ele>105.6</ele>
        <time>2023-08-10T07:24:20Z</time>
      </trkpt>
      <trkpt lat="49.8263" lon="2.31445">
        <ele>105.5</ele>
        <time>2023-08-10T07:24:22Z</time>
      </trkpt>
      <trkpt lat="49.8263" lon="2.31445">
        <ele>105.5</ele>
        <time>2023-08-10T07:24:23Z</time>
      </trkpt>
      <trkpt lat="49.8263" lon="2.31445">
        <ele>105.5</ele>
        <time>2023-08-10T07:24:25Z</time>
      </trkpt>
      <trkpt lat="49.8263" lon="2.31445">
        <ele>105.5</ele>
        <time>2023-08-10T07:24:26Z</time>
      </trkpt>
      <trkpt lat="49.8263" lon="2.31445">
        <ele>105.5</ele>
        <time>2023-08-10T07:24:28Z</time>
      </trkpt>
      <trkpt lat="49.8263" lon="2.31445">
        <ele>105.5</ele>
        <time>2023-08-10T07:24:29Z</time>
      </trkpt>
      <trkpt lat="49.8263" lon="2.31445">
        <ele>105.5</ele>
        <time>2023-08-10T07:24:30Z</time>
      </trkpt>
      <trkpt lat="49.8263" lon="2.31445">
        <ele>105.5</ele>
        <time>2023-08-10T07:24:32Z</time>
      </trkpt>
      <trkpt lat="49.8263" lon="2.31445">
        <ele>105.5</ele>
        <time>2023-08-10T07:24:33Z</time>
      </trkpt>
      <trkpt lat="49.8263" lon="2.31445">
        <ele>105.5</ele>
        <time>2023-08-10T07:24:35Z</time>
      </trkpt>
      <trkpt lat="49.8263" lon="2.31445">
        <ele>105.5</ele>
        <time>2023-08-10T07:24:36Z</time>
      </trkpt>
      <trkpt lat="49.8263" lon="2.31445">
        <ele>105.5</ele>
        <time>2023-08-10T07:24:37Z</time>
      </trkpt>
      <trkpt lat="49.8263" lon="2.31445">
        <ele>105.5</ele>
        <time>2023-08-10T07:24:38Z</time>
      </trkpt>
      <trkpt lat="49.8263" lon="2.31445">
        <ele>105.5</ele>
        <time>2023-08-10T07:24:39Z</time>
      </trkpt>
      <trkpt lat="49.8263" lon="2.31445">
        <ele>105.5</ele>
        <time>2023-08-10T07:24:40Z</time>
      </trkpt>
      <trkpt lat="49.8263" lon="2.31445">
        <ele>105.5</ele>
        <time>2023-08-10T07:24:41Z</time>
      </trkpt>
      <trkpt lat="49.8263" lon="2.31445">
        <ele>105.5</ele>
        <time>2023-08-10T07:24:42Z</time>
      </trkpt>
      <trkpt lat="49.8263" lon="2.31445">
        <ele>105.5</ele>
        <time>2023-08-10T07:24:43Z</time>
      </trkpt>
      <trkpt lat="49.8263" lon="2.31445">
        <ele>105.5</ele>
        <time>2023-08-10T07:24:44Z</time>
      </trkpt>
      <trkpt lat="49.8263" lon="2.31445">
        <ele>105.5</ele>
        <time>2023-08-10T07:24:45Z</time>
      </trkpt>
      <trkpt lat="49.8263" lon="2.31445">
        <ele>105.5</ele>
        <time>2023-08-10T07:24:46Z</time>
      </trkpt>
      <trkpt lat="49.8263" lon="2.31445">
        <ele>105.5</ele>
        <time>2023-08-10T07:24:47Z</time>
      </trkpt>
      <trkpt lat="49.8263" lon="2.31445">
        <ele>105.5</ele>
        <time>2023-08-10T07:24:48Z</time>
      </trkpt>
      <trkpt lat="49.8263" lon="2.31445">
        <ele>105.5</ele>
        <time>2023-08-10T07:24:49Z</time>
      </trkpt>
      <trkpt lat="49.8263" lon="2.31445">
        <ele>105.5</ele>
        <time>2023-08-10T07:24:50Z</time>
      </trkpt>
      <trkpt lat="49.8263" lon="2.31445">
        <ele>105.5</ele>
        <time>2023-08-10T07:24:51Z</time>
      </trkpt>
      <trkpt lat="49.8263" lon="2.31445">
        <ele>105.5</ele>
        <time>2023-08-10T07:24:52Z</time>
      </trkpt>
      <trkpt lat="49.8263" lon="2.31445">
        <ele>105.5</ele>
        <time>2023-08-10T07:24:53Z</time>
      </trkpt>
      <trkpt lat="49.8263" lon="2.31445">
        <ele>105.5</ele>
        <time>2023-08-10T07:24:54Z</time>
      </trkpt>
      <trkpt lat="49.8263" lon="2.31445">
        <ele>105.5</ele>
        <time>2023-08-10T07:24:55Z</time>
      </trkpt>
      <trkpt lat="49.8263" lon="2.31445">
        <ele>105.5</ele>
        <time>2023-08-10T07:24:56Z</time>
      </trkpt>
      <trkpt lat="49.8263" lon="2.31445">
        <ele>105.5</ele>
        <time>2023-08-10T07:24:57Z</time>
      </trkpt>
      <trkpt lat="49.8263" lon="2.31445">
        <ele>105.5</ele>
        <time>2023-08-10T07:24:58Z</time>
      </trkpt>
      <trkpt lat="49.8263" lon="2.31445">
        <ele>105.5</ele>
        <time>2023-08-10T07:24:59Z</time>
      </trkpt>
      <trkpt lat="49.8263" lon="2.31445">
        <ele>105.5</ele>
        <time>2023-08-10T07:25:00Z</time>
      </trkpt>
      <trkpt lat="49.8263" lon="2.31445">
        <ele>105.5</ele>
        <time>2023-08-10T07:25:01Z</time>
      </trkpt>
      <trkpt lat="49.8263" lon="2.31445">
        <ele>105.5</ele>
        <time>2023-08-10T07:25:02Z</time>
      </trkpt>
      <trkpt lat="49.8263" lon="2.31445">
        <ele>105.5</ele>
        <time>2023-08-10T07:25:03Z</time>
      </trkpt>
      <trkpt lat="49.8263" lon="2.31445">
        <ele>105.5</ele>
        <time>2023-08-10T07:25:04Z</time>
      </trkpt>
      <trkpt lat="49.8263" lon="2.31445">
        <ele>105.5</ele>
        <time>2023-08-10T07:25:05Z</time>
      </trkpt>
      <trkpt lat="49.8263" lon="2.31445">
        <ele>105.5</ele>
        <time>2023-08-10T07:25:06Z</time>
      </trkpt>
      <trkpt lat="49.8263" lon="2.31445">
        <ele>105.5</ele>
        <time>2023-08-10T07:25:07Z</time>
      </trkpt>
      <trkpt lat="49.8263" lon="2.31445">
        <ele>105.5</ele>
        <time>2023-08-10T07:25:08Z</time>
      </trkpt>
      <trkpt lat="49.8263" lon="2.31445">
        <ele>105.5</ele>
        <time>2023-08-10T07:25:09Z</time>
      </trkpt>
      <trkpt lat="49.8263" lon="2.31445">
        <ele>105.5</ele>
        <time>2023-08-10T07:25:10Z</time>
      </trkpt>
      <trkpt lat="49.8263" lon="2.31445">
        <ele>105.5</ele>
        <time>2023-08-10T07:25:11Z</time>
      </trkpt>
      <trkpt lat="49.8263" lon="2.31445">
        <ele>105.5</ele>
        <time>2023-08-10T07:25:12Z</time>
      </trkpt>
      <trkpt lat="49.8263" lon="2.31445">
        <ele>105.5</ele>
        <time>2023-08-10T07:25:13Z</time>
      </trkpt>
      <trkpt lat="49.8263" lon="2.31445">
        <ele>105.5</ele>
        <time>2023-08-10T07:25:14Z</time>
      </trkpt>
      <trkpt lat="49.8263" lon="2.31445">
        <ele>105.5</ele>
        <time>2023-08-10T07:25:15Z</time>
      </trkpt>
      <trkpt lat="49.8263" lon="2.31445">
        <ele>105.5</ele>
        <time>2023-08-10T07:25:16Z</time>
      </trkpt>
      <trkpt lat="49.8263" lon="2.31445">
        <ele>105.5</ele>
        <time>2023-08-10T07:25:17Z</time>
      </trkpt>
      <trkpt lat="49.8263" lon="2.31445">
        <ele>105.5</ele>
        <time>2023-08-10T07:25:18Z</time>
      </trkpt>
      <trkpt lat="49.8263" lon="2.31445">
        <ele>105.5</ele>
        <time>2023-08-10T07:25:19Z</time>
      </trkpt>
      <trkpt lat="49.8263" lon="2.31445">
        <ele>105.5</ele>
        <time>2023-08-10T07:25:20Z</time>
      </trkpt>
      <trkpt lat="49.8263" lon="2.31445">
        <ele>105.5</ele>
        <time>2023-08-10T07:25:21Z</time>
      </trkpt>
      <trkpt lat="49.8263" lon="2.31445">
        <ele>105.5</ele>
        <time>2023-08-10T07:25:22Z</time>
      </trkpt>
      <trkpt lat="49.8263" lon="2.31445">
        <ele>105.5</ele>
        <time>2023-08-10T07:25:23Z</time>
      </trkpt>
      <trkpt lat="49.8263" lon="2.31445">
        <ele>105.5</ele>
        <time>2023-08-10T07:25:24Z</time>
      </trkpt>
      <trkpt lat="49.8263" lon="2.31445">
        <ele>105.5</ele>
        <time>2023-08-10T07:25:25Z</time>
      </trkpt>
      <trkpt lat="49.8263" lon="2.31445">
        <ele>105.5</ele>
        <time>2023-08-10T07:25:26Z</time>
      </trkpt>
      <trkpt lat="49.8263" lon="2.31445">
        <ele>105.5</ele>
        <time>2023-08-10T07:25:27Z</time>
      </trkpt>
      <trkpt lat="49.8263" lon="2.31445">
        <ele>105.5</ele>
        <time>2023-08-10T07:25:28Z</time>
      </trkpt>
      <trkpt lat="49.8263" lon="2.31445">
        <ele>105.5</ele>
        <time>2023-08-10T07:25:29Z</time>
      </trkpt>
      <trkpt lat="49.8263" lon="2.31445">
        <ele>105.5</ele>
        <time>2023-08-10T07:25:30Z</time>
      </trkpt>
      <trkpt lat="49.8263" lon="2.31445">
        <ele>105.5</ele>
        <time>2023-08-10T07:25:31Z</time>
      </trkpt>
      <trkpt lat="49.8263" lon="2.31445">
        <ele>105.5</ele>
        <time>2023-08-10T07:25:32Z</time>
      </trkpt>
      <trkpt lat="49.8263" lon="2.31445">
        <ele>105.5</ele>
        <time>2023-08-10T07:25:33Z</time>
      </trkpt>
      <trkpt lat="49.8263" lon="2.31445">
        <ele>105.5</ele>
        <time>2023-08-10T07:25:34Z</time>
      </trkpt>
      <trkpt lat="49.8263" lon="2.31445">
        <ele>105.5</ele>
        <time>2023-08-10T07:25:35Z</time>
      </trkpt>
      <trkpt lat="49.8263" lon="2.31445">
        <ele>105.5</ele>
        <time>2023-08-10T07:25:36Z</time>
      </trkpt>
      <trkpt lat="49.8263" lon="2.31445">
        <ele>105.5</ele>
        <time>2023-08-10T07:25:37Z</time>
      </trkpt>
      <trkpt lat="49.8263" lon="2.31445">
        <ele>105.5</ele>
        <time>2023-08-10T07:25:38Z</time>
      </trkpt>
      <trkpt lat="49.8263" lon="2.31445">
        <ele>105.5</ele>
        <time>2023-08-10T07:25:39Z</time>
      </trkpt>
      <trkpt lat="49.8263" lon="2.31445">
        <ele>105.5</ele>
        <time>2023-08-10T07:25:40Z</time>
      </trkpt>
      <trkpt lat="49.8263" lon="2.31445">
        <ele>105.5</ele>
        <time>2023-08-10T07:25:41Z</time>
      </trkpt>
      <trkpt lat="49.8263" lon="2.31445">
        <ele>105.5</ele>
        <time>2023-08-10T07:25:42Z</time>
      </trkpt>
      <trkpt lat="49.8263" lon="2.31445">
        <ele>105.5</ele>
        <time>2023-08-10T07:25:43Z</time>
      </trkpt>
      <trkpt lat="49.8263" lon="2.31445">
        <ele>105.5</ele>
        <time>2023-08-10T07:25:44Z</time>
      </trkpt>
      <trkpt lat="49.8263" lon="2.31445">
        <ele>105.5</ele>
        <time>2023-08-10T07:25:45Z</time>
      </trkpt>
      <trkpt lat="49.8263" lon="2.31445">
        <ele>105.5</ele>
        <time>2023-08-10T07:25:46Z</time>
      </trkpt>
      <trkpt lat="49.8263" lon="2.31445">
        <ele>105.5</ele>
        <time>2023-08-10T07:25:47Z</time>
      </trkpt>
      <trkpt lat="49.82629" lon="2.31444">
        <ele>105.5</ele>
        <time>2023-08-10T07:25:48Z</time>
      </trkpt>
      <trkpt lat="49.82628" lon="2.31444">
        <ele>105.5</ele>
        <time>2023-08-10T07:25:49Z</time>
      </trkpt>
      <trkpt lat="49.82628" lon="2.31443">
        <ele>105.5</ele>
        <time>2023-08-10T07:25:51Z</time>
      </trkpt>
      <trkpt lat="49.82627" lon="2.31443">
        <ele>105.4</ele>
        <time>2023-08-10T07:25:52Z</time>
      </trkpt>
      <trkpt lat="49.82626" lon="2.31443">
        <ele>105.4</ele>
        <time>2023-08-10T07:25:53Z</time>
      </trkpt>
      <trkpt lat="49.82625" lon="2.31443">
        <ele>105.4</ele>
        <time>2023-08-10T07:25:54Z</time>
      </trkpt>
      <trkpt lat="49.82622" lon="2.31444">
        <ele>105.3</ele>
        <time>2023-08-10T07:25:56Z</time>
      </trkpt>
      <trkpt lat="49.82621" lon="2.31444">
        <ele>105.3</ele>
        <time>2023-08-10T07:25:57Z</time>
      </trkpt>
      <trkpt lat="49.82619" lon="2.31445">
        <ele>105.3</ele>
        <time>2023-08-10T07:25:59Z</time>
      </trkpt>
      <trkpt lat="49.82618" lon="2.31446">
        <ele>105.2</ele>
        <time>2023-08-10T07:26:00Z</time>
      </trkpt>
      <trkpt lat="49.82617" lon="2.31447">
        <ele>105.2</ele>
        <time>2023-08-10T07:26:01Z</time>
      </trkpt>
      <trkpt lat="49.82615" lon="2.31447">
        <ele>105.2</ele>
        <time>2023-08-10T07:26:02Z</time>
      </trkpt>
      <trkpt lat="49.82614" lon="2.31448">
        <ele>105.1</ele>
        <time>2023-08-10T07:26:03Z</time>
      </trkpt>
      <trkpt lat="49.82614" lon="2.31449">
        <ele>105.1</ele>
        <time>2023-08-10T07:26:04Z</time>
      </trkpt>
      <trkpt lat="49.82612" lon="2.31451">
        <ele>105.1</ele>
        <time>2023-08-10T07:26:06Z</time>
      </trkpt>
      <trkpt lat="49.8261" lon="2.31452">
        <ele>105</ele>
        <time>2023-08-10T07:26:07Z</time>
      </trkpt>
      <trkpt lat="49.8261" lon="2.31452">
        <ele>105</ele>
        <time>2023-08-10T07:26:08Z</time>
      </trkpt>
      <trkpt lat="49.82609" lon="2.31453">
        <ele>105</ele>
        <time>2023-08-10T07:26:09Z</time>
      </trkpt>
      <trkpt lat="49.82607" lon="2.31454">
        <ele>105</ele>
        <time>2023-08-10T07:26:10Z</time>
      </trkpt>
      <trkpt lat="49.82606" lon="2.31455">
        <ele>104.9</ele>
        <time>2023-08-10T07:26:11Z</time>
      </trkpt>
      <trkpt lat="49.82604" lon="2.31455">
        <ele>104.9</ele>
        <time>2023-08-10T07:26:12Z</time>
      </trkpt>
      <trkpt lat="49.82602" lon="2.31456">
        <ele>104.9</ele>
        <time>2023-08-10T07:26:14Z</time>
      </trkpt>
      <trkpt lat="49.82601" lon="2.31457">
        <ele>104.8</ele>
        <time>2023-08-10T07:26:15Z</time>
      </trkpt>
      <trkpt lat="49.82599" lon="2.31458">
        <ele>104.8</ele>
        <time>2023-08-10T07:26:16Z</time>
      </trkpt>
      <trkpt lat="49.82598" lon="2.31458">
        <ele>104.8</ele>
        <time>2023-08-10T07:26:17Z</time>
      </trkpt>
      <trkpt lat="49.82597" lon="2.31459">
        <ele>104.7</ele>
        <time>2023-08-10T07:26:18Z</time>
      </trkpt>
      <trkpt lat="49.82595" lon="2.31459">
        <ele>104.7</ele>
        <time>2023-08-10T07:26:19Z</time>
      </trkpt>
      <trkpt lat="49.82594" lon="2.3146">
        <ele>104.7</ele>
        <time>2023-08-10T07:26:20Z</time>
      </trkpt>
      <trkpt lat="49.82592" lon="2.31461">
        <ele>104.7</ele>
        <time>2023-08-10T07:26:21Z</time>
      </trkpt>
      <trkpt lat="49.82591" lon="2.31461">
        <ele>104.6</ele>
        <time>2023-08-10T07:26:23Z</time>
      </trkpt>
      <trkpt lat="49.8259" lon="2.31462">
        <ele>104.6</ele>
        <time>2023-08-10T07:26:24Z</time>
      </trkpt>
      <trkpt lat="49.82588" lon="2.31463">
        <ele>104.6</ele>
        <time>2023-08-10T07:26:25Z</time>
      </trkpt>
      <trkpt lat="49.82588" lon="2.31464">
        <ele>104.6</ele>
        <time>2023-08-10T07:26:26Z</time>
      </trkpt>
      <trkpt lat="49.82587" lon="2.31464">
        <ele>104.6</ele>
        <time>2023-08-10T07:26:27Z</time>
      </trkpt>
      <trkpt lat="49.82585" lon="2.31465">
        <ele>104.5</ele>
        <time>2023-08-10T07:26:29Z</time>
      </trkpt>
      <trkpt lat="49.82584" lon="2.31466">
        <ele>104.5</ele>
        <time>2023-08-10T07:26:30Z</time>
      </trkpt>
      <trkpt lat="49.82582" lon="2.31468">
        <ele>104.5</ele>
        <time>2023-08-10T07:26:31Z</time>
      </trkpt>
      <trkpt lat="49.82581" lon="2.31469">
        <ele>104.4</ele>
        <time>2023-08-10T07:26:32Z</time>
      </trkpt>
      <trkpt lat="49.82581" lon="2.31469">
        <ele>104.4</ele>
        <time>2023-08-10T07:26:33Z</time>
      </trkpt>
      <trkpt lat="49.8258" lon="2.3147">
        <ele>104.4</ele>
        <time>2023-08-10T07:26:34Z</time>
      </trkpt>
      <trkpt lat="49.82578" lon="2.31471">
        <ele>104.4</ele>
        <time>2023-08-10T07:26:35Z</time>
      </trkpt>
      <trkpt lat="49.82577" lon="2.31473">
        <ele>104.3</ele>
        <time>2023-08-10T07:26:37Z</time>
      </trkpt>
      <trkpt lat="49.82576" lon="2.31473">
        <ele>104.3</ele>
        <time>2023-08-10T07:26:38Z</time>
      </trkpt>
      <trkpt lat="49.82575" lon="2.31474">
        <ele>104.3</ele>
        <time>2023-08-10T07:26:39Z</time>
      </trkpt>
      <trkpt lat="49.82574" lon="2.31475">
        <ele>104.2</ele>
        <time>2023-08-10T07:26:40Z</time>
      </trkpt>
      <trkpt lat="49.82573" lon="2.31476">
        <ele>104.2</ele>
        <time>2023-08-10T07:26:41Z</time>
      </trkpt>
      <trkpt lat="49.82572" lon="2.31477">
        <ele>104.2</ele>
        <time>2023-08-10T07:26:42Z</time>
      </trkpt>
      <trkpt lat="49.82571" lon="2.31478">
        <ele>104.1</ele>
        <time>2023-08-10T07:26:43Z</time>
      </trkpt>
      <trkpt lat="49.8257" lon="2.31479">
        <ele>104.1</ele>
        <time>2023-08-10T07:26:45Z</time>
      </trkpt>
      <trkpt lat="49.82569" lon="2.3148">
        <ele>104.1</ele>
        <time>2023-08-10T07:26:46Z</time>
      </trkpt>
      <trkpt lat="49.82568" lon="2.31481">
        <ele>104</ele>
        <time>2023-08-10T07:26:47Z</time>
      </trkpt>
      <trkpt lat="49.82567" lon="2.31481">
        <ele>104</ele>
        <time>2023-08-10T07:26:48Z</time>
      </trkpt>
      <trkpt lat="49.82566" lon="2.31482">
        <ele>104</ele>
        <time>2023-08-10T07:26:49Z</time>
      </trkpt>
      <trkpt lat="49.82565" lon="2.31483">
        <ele>103.9</ele>
        <time>2023-08-10T07:26:50Z</time>
      </trkpt>
      <trkpt lat="49.82564" lon="2.31483">
        <ele>103.9</ele>
        <time>2023-08-10T07:26:51Z</time>
      </trkpt>
      <trkpt lat="49.82563" lon="2.31484">
        <ele>103.8</ele>
        <time>2023-08-10T07:26:53Z</time>
      </trkpt>
      <trkpt lat="49.82562" lon="2.31484">
        <ele>103.8</ele>
        <time>2023-08-10T07:26:54Z</time>
      </trkpt>
      <trkpt lat="49.82561" lon="2.31484">
        <ele>103.8</ele>
        <time>2023-08-10T07:26:55Z</time>
      </trkpt>
      <trkpt lat="49.8256" lon="2.31485">
        <ele>103.7</ele>
        <time>2023-08-10T07:26:56Z</time>
      </trkpt>
      <trkpt lat="49.82559" lon="2.31485">
        <ele>103.7</ele>
        <time>2023-08-10T07:26:57Z</time>
      </trkpt>
      <trkpt lat="49.82558" lon="2.31485">
        <ele>103.6</ele>
        <time>2023-08-10T07:26:58Z</time>
      </trkpt>
      <trkpt lat="49.82557" lon="2.31486">
        <ele>103.6</ele>
        <time>2023-08-10T07:26:59Z</time>
      </trkpt>
      <trkpt lat="49.82556" lon="2.31486">
        <ele>103.6</ele>
        <time>2023-08-10T07:27:01Z</time>
      </trkpt>
      <trkpt lat="49.82555" lon="2.31486">
        <ele>103.5</ele>
        <time>2023-08-10T07:27:02Z</time>
      </trkpt>
      <trkpt lat="49.82554" lon="2.31486">
        <ele>103.5</ele>
        <time>2023-08-10T07:27:03Z</time>
      </trkpt>
      <trkpt lat="49.82553" lon="2.31486">
        <ele>103.4</ele>
        <time>2023-08-10T07:27:04Z</time>
      </trkpt>
      <trkpt lat="49.82552" lon="2.31487">
        <ele>103.4</ele>
        <time>2023-08-10T07:27:05Z</time>
      </trkpt>
      <trkpt lat="49.82551" lon="2.31487">
        <ele>103.4</ele>
        <time>2023-08-10T07:27:06Z</time>
      </trkpt>
      <trkpt lat="49.82551" lon="2.31487">
        <ele>103.3</ele>
        <time>2023-08-10T07:27:07Z</time>
      </trkpt>
      <trkpt lat="49.8255" lon="2.31487">
        <ele>103.3</ele>
        <time>2023-08-10T07:27:08Z</time>
      </trkpt>
      <trkpt lat="49.82548" lon="2.31488">
        <ele>103.2</ele>
        <time>2023-08-10T07:27:10Z</time>
      </trkpt>
      <trkpt lat="49.82547" lon="2.31488">
        <ele>103.2</ele>
        <time>2023-08-10T07:27:11Z</time>
      </trkpt>
      <trkpt lat="49.82545" lon="2.31488">
        <ele>103.1</ele>
        <time>2023-08-10T07:27:12Z</time>
      </trkpt>
      <trkpt lat="49.82544" lon="2.31489">
        <ele>103.1</ele>
        <time>2023-08-10T07:27:13Z</time>
      </trkpt>
      <trkpt lat="49.82543" lon="2.31489">
        <ele>103</ele>
        <time>2023-08-10T07:27:15Z</time>
      </trkpt>
      <trkpt lat="49.82542" lon="2.3149">
        <ele>103</ele>
        <time>2023-08-10T07:27:16Z</time>
      </trkpt>
      <trkpt lat="49.82541" lon="2.3149">
        <ele>103</ele>
        <time>2023-08-10T07:27:17Z</time>
      </trkpt>
      <trkpt lat="49.8254" lon="2.31491">
        <ele>102.9</ele>
        <time>2023-08-10T07:27:18Z</time>
      </trkpt>
      <trkpt lat="49.82538" lon="2.31492">
        <ele>102.8</ele>
        <time>2023-08-10T07:27:19Z</time>
      </trkpt>
      <trkpt lat="49.82537" lon="2.31492">
        <ele>102.8</ele>
        <time>2023-08-10T07:27:21Z</time>
      </trkpt>
      <trkpt lat="49.82536" lon="2.31492">
        <ele>102.8</ele>
        <time>2023-08-10T07:27:22Z</time>
      </trkpt>
      <trkpt lat="49.82535" lon="2.31493">
        <ele>102.8</ele>
        <time>2023-08-10T07:27:23Z</time>
      </trkpt>
      <trkpt lat="49.82534" lon="2.31493">
        <ele>102.7</ele>
        <time>2023-08-10T07:27:24Z</time>
      </trkpt>
      <trkpt lat="49.82533" lon="2.31494">
        <ele>102.7</ele>
        <time>2023-08-10T07:27:25Z</time>
      </trkpt>
      <trkpt lat="49.82532" lon="2.31495">
        <ele>102.6</ele>
        <time>2023-08-10T07:27:26Z</time>
      </trkpt>
      <trkpt lat="49.8253" lon="2.31495">
        <ele>102.6</ele>
        <time>2023-08-10T07:27:27Z</time>
      </trkpt>
      <trkpt lat="49.82529" lon="2.31496">
        <ele>102.6</ele>
        <time>2023-08-10T07:27:28Z</time>
      </trkpt>
      <trkpt lat="49.82527" lon="2.31498">
        <ele>102.5</ele>
        <time>2023-08-10T07:27:30Z</time>
      </trkpt>
      <trkpt lat="49.82525" lon="2.31499">
        <ele>102.5</ele>
        <time>2023-08-10T07:27:31Z</time>
      </trkpt>
      <trkpt lat="49.82524" lon="2.315">
        <ele>102.5</ele>
        <time>2023-08-10T07:27:33Z</time>
      </trkpt>
      <trkpt lat="49.82523" lon="2.315">
        <ele>102.4</ele>
        <time>2023-08-10T07:27:34Z</time>
      </trkpt>
      <trkpt lat="49.82521" lon="2.31501">
        <ele>102.4</ele>
        <time>2023-08-10T07:27:35Z</time>
      </trkpt>
      <trkpt lat="49.82519" lon="2.31502">
        <ele>102.4</ele>
        <time>2023-08-10T07:27:36Z</time>
      </trkpt>
      <trkpt lat="49.82518" lon="2.31502">
        <ele>102.4</ele>
        <time>2023-08-10T07:27:37Z</time>
      </trkpt>
      <trkpt lat="49.82518" lon="2.31502">
        <ele>102.4</ele>
        <time>2023-08-10T07:27:38Z</time>
      </trkpt>
      <trkpt lat="49.82515" lon="2.31503">
        <ele>102.4</ele>
        <time>2023-08-10T07:27:39Z</time>
      </trkpt>
      <trkpt lat="49.82515" lon="2.31504">
        <ele>102.4</ele>
        <time>2023-08-10T07:27:40Z</time>
      </trkpt>
      <trkpt lat="49.82514" lon="2.31505">
        <ele>102.4</ele>
        <time>2023-08-10T07:27:42Z</time>
      </trkpt>
      <trkpt lat="49.82513" lon="2.31505">
        <ele>102.4</ele>
        <time>2023-08-10T07:27:43Z</time>
      </trkpt>
      <trkpt lat="49.82512" lon="2.31506">
        <ele>102.4</ele>
        <time>2023-08-10T07:27:44Z</time>
      </trkpt>
      <trkpt lat="49.82511" lon="2.31506">
        <ele>102.4</ele>
        <time>2023-08-10T07:27:45Z</time>
      </trkpt>
      <trkpt lat="49.8251" lon="2.31507">
        <ele>102.5</ele>
        <time>2023-08-10T07:27:46Z</time>
      </trkpt>
      <trkpt lat="49.82509" lon="2.31508">
        <ele>102.5</ele>
        <time>2023-08-10T07:27:47Z</time>
      </trkpt>
      <trkpt lat="49.82507" lon="2.31509">
        <ele>102.5</ele>
        <time>2023-08-10T07:27:49Z</time>
      </trkpt>
      <trkpt lat="49.82506" lon="2.3151">
        <ele>102.5</ele>
        <time>2023-08-10T07:27:50Z</time>
      </trkpt>
      <trkpt lat="49.82505" lon="2.31511">
        <ele>102.5</ele>
        <time>2023-08-10T07:27:51Z</time>
      </trkpt>
      <trkpt lat="49.82504" lon="2.31512">
        <ele>102.5</ele>
        <time>2023-08-10T07:27:52Z</time>
      </trkpt>
      <trkpt lat="49.82503" lon="2.31513">
        <ele>102.6</ele>
        <time>2023-08-10T07:27:53Z</time>
      </trkpt>
      <trkpt lat="49.82502" lon="2.31514">
        <ele>102.6</ele>
        <time>2023-08-10T07:27:55Z</time>
      </trkpt>
      <trkpt lat="49.82501" lon="2.31515">
        <ele>102.6</ele>
        <time>2023-08-10T07:27:56Z</time>
      </trkpt>
      <trkpt lat="49.82501" lon="2.31515">
        <ele>102.6</ele>
        <time>2023-08-10T07:27:57Z</time>
      </trkpt>
      <trkpt lat="49.825" lon="2.31515">
        <ele>102.7</ele>
        <time>2023-08-10T07:27:58Z</time>
      </trkpt>
      <trkpt lat="49.82499" lon="2.31515">
        <ele>102.7</ele>
        <time>2023-08-10T07:27:59Z</time>
      </trkpt>
      <trkpt lat="49.82498" lon="2.31516">
        <ele>102.7</ele>
        <time>2023-08-10T07:28:00Z</time>
      </trkpt>
      <trkpt lat="49.82497" lon="2.31517">
        <ele>102.7</ele>
        <time>2023-08-10T07:28:01Z</time>
      </trkpt>
      <trkpt lat="49.82496" lon="2.31517">
        <ele>102.7</ele>
        <time>2023-08-10T07:28:03Z</time>
      </trkpt>
      <trkpt lat="49.82495" lon="2.31518">
        <ele>102.8</ele>
        <time>2023-08-10T07:28:04Z</time>
      </trkpt>
      <trkpt lat="49.82495" lon="2.31518">
        <ele>102.8</ele>
        <time>2023-08-10T07:28:05Z</time>
      </trkpt>
      <trkpt lat="49.82494" lon="2.31518">
        <ele>102.8</ele>
        <time>2023-08-10T07:28:06Z</time>
      </trkpt>
      <trkpt lat="49.82493" lon="2.31518">
        <ele>102.8</ele>
        <time>2023-08-10T07:28:07Z</time>
      </trkpt>
      <trkpt lat="49.82491" lon="2.31518">
        <ele>102.9</ele>
        <time>2023-08-10T07:28:08Z</time>
      </trkpt>
      <trkpt lat="49.82489" lon="2.31518">
        <ele>102.9</ele>
        <time>2023-08-10T07:28:09Z</time>
      </trkpt>
      <trkpt lat="49.82488" lon="2.31518">
        <ele>102.9</ele>
        <time>2023-08-10T07:28:11Z</time>
      </trkpt>
      <trkpt lat="49.82487" lon="2.31518">
        <ele>103</ele>
        <time>2023-08-10T07:28:12Z</time>
      </trkpt>
      <trkpt lat="49.82486" lon="2.31518">
        <ele>103</ele>
        <time>2023-08-10T07:28:13Z</time>
      </trkpt>
      <trkpt lat="49.82485" lon="2.31519">
        <ele>103</ele>
        <time>2023-08-10T07:28:14Z</time>
      </trkpt>
      <trkpt lat="49.82484" lon="2.31519">
        <ele>103.1</ele>
        <time>2023-08-10T07:28:15Z</time>
      </trkpt>
      <trkpt lat="49.82483" lon="2.31519">
        <ele>103.1</ele>
        <time>2023-08-10T07:28:16Z</time>
      </trkpt>
      <trkpt lat="49.82481" lon="2.3152">
        <ele>103.2</ele>
        <time>2023-08-10T07:28:18Z</time>
      </trkpt>
      <trkpt lat="49.8248" lon="2.31521">
        <ele>103.2</ele>
        <time>2023-08-10T07:28:19Z</time>
      </trkpt>
      <trkpt lat="49.82478" lon="2.31521">
        <ele>103.3</ele>
        <time>2023-08-10T07:28:20Z</time>
      </trkpt>
      <trkpt lat="49.82477" lon="2.31521">
        <ele>103.3</ele>
        <time>2023-08-10T07:28:22Z</time>
      </trkpt>
      <trkpt lat="49.82475" lon="2.31522">
        <ele>103.4</ele>
        <time>2023-08-10T07:28:23Z</time>
      </trkpt>
      <trkpt lat="49.82474" lon="2.31522">
        <ele>103.5</ele>
        <time>2023-08-10T07:28:24Z</time>
      </trkpt>
      <trkpt lat="49.82473" lon="2.31522">
        <ele>103.5</ele>
        <time>2023-08-10T07:28:25Z</time>
      </trkpt>
      <trkpt lat="49.82471" lon="2.31523">
        <ele>103.6</ele>
        <time>2023-08-10T07:28:26Z</time>
      </trkpt>
      <trkpt lat="49.8247" lon="2.31523">
        <ele>103.7</ele>
        <time>2023-08-10T07:28:27Z</time>
      </trkpt>
      <trkpt lat="49.82469" lon="2.31524">
        <ele>103.7</ele>
        <time>2023-08-10T07:28:28Z</time>
      </trkpt>
      <trkpt lat="49.82468" lon="2.31524">
        <ele>103.8</ele>
        <time>2023-08-10T07:28:29Z</time>
      </trkpt>
      <trkpt lat="49.82467" lon="2.31525">
        <ele>103.8</ele>
        <time>2023-08-10T07:28:31Z</time>
      </trkpt>
      <trkpt lat="49.82466" lon="2.31525">
        <ele>103.9</ele>
        <time>2023-08-10T07:28:32Z</time>
      </trkpt>
      <trkpt lat="49.82465" lon="2.31526">
        <ele>103.9</ele>
        <time>2023-08-10T07:28:33Z</time>
      </trkpt>
      <trkpt lat="49.82464" lon="2.31526">
        <ele>104</ele>
        <time>2023-08-10T07:28:34Z</time>
      </trkpt>
      <trkpt lat="49.82463" lon="2.31527">
        <ele>104</ele>
        <time>2023-08-10T07:28:35Z</time>
      </trkpt>
      <trkpt lat="49.82462" lon="2.31528">
        <ele>104.1</ele>
        <time>2023-08-10T07:28:37Z</time>
      </trkpt>
      <trkpt lat="49.82461" lon="2.31529">
        <ele>104.2</ele>
        <time>2023-08-10T07:28:38Z</time>
      </trkpt>
      <trkpt lat="49.8246" lon="2.31529">
        <ele>104.2</ele>
        <time>2023-08-10T07:28:39Z</time>
      </trkpt>
      <trkpt lat="49.82459" lon="2.3153">
        <ele>104.3</ele>
        <time>2023-08-10T07:28:40Z</time>
      </trkpt>
      <trkpt lat="49.82458" lon="2.3153">
        <ele>104.3</ele>
        <time>2023-08-10T07:28:41Z</time>
      </trkpt>
      <trkpt lat="49.82457" lon="2.31531">
        <ele>104.3</ele>
        <time>2023-08-10T07:28:43Z</time>
      </trkpt>
      <trkpt lat="49.82455" lon="2.31531">
        <ele>104.4</ele>
        <time>2023-08-10T07:28:44Z</time>
      </trkpt>
      <trkpt lat="49.82454" lon="2.31532">
        <ele>104.5</ele>
        <time>2023-08-10T07:28:46Z</time>
      </trkpt>
      <trkpt lat="49.82453" lon="2.31532">
        <ele>104.5</ele>
        <time>2023-08-10T07:28:47Z</time>
      </trkpt>
      <trkpt lat="49.82452" lon="2.31533">
        <ele>104.6</ele>
        <time>2023-08-10T07:28:48Z</time>
      </trkpt>
      <trkpt lat="49.82451" lon="2.31533">
        <ele>104.6</ele>
        <time>2023-08-10T07:28:49Z</time>
      </trkpt>
      <trkpt lat="49.8245" lon="2.31534">
        <ele>104.6</ele>
        <time>2023-08-10T07:28:50Z</time>
      </trkpt>
      <trkpt lat="49.82449" lon="2.31535">
        <ele>104.7</ele>
        <time>2023-08-10T07:28:52Z</time>
      </trkpt>
      <trkpt lat="49.82448" lon="2.31535">
        <ele>104.7</ele>
        <time>2023-08-10T07:28:53Z</time>
      </trkpt>
      <trkpt lat="49.82447" lon="2.31536">
        <ele>104.8</ele>
        <time>2023-08-10T07:28:54Z</time>
      </trkpt>
      <trkpt lat="49.82446" lon="2.31536">
        <ele>104.8</ele>
        <time>2023-08-10T07:28:55Z</time>
      </trkpt>
      <trkpt lat="49.82445" lon="2.31537">
        <ele>104.8</ele>
        <time>2023-08-10T07:28:56Z</time>
      </trkpt>
      <trkpt lat="49.82443" lon="2.31538">
        <ele>104.9</ele>
        <time>2023-08-10T07:28:57Z</time>
      </trkpt>
      <trkpt lat="49.82442" lon="2.31539">
        <ele>104.9</ele>
        <time>2023-08-10T07:28:59Z</time>
      </trkpt>
      <trkpt lat="49.82441" lon="2.3154">
        <ele>105</ele>
        <time>2023-08-10T07:29:00Z</time>
      </trkpt>
      <trkpt lat="49.8244" lon="2.31541">
        <ele>105</ele>
        <time>2023-08-10T07:29:02Z</time>
      </trkpt>
      <trkpt lat="49.82439" lon="2.31541">
        <ele>105</ele>
        <time>2023-08-10T07:29:03Z</time>
      </trkpt>
      <trkpt lat="49.82437" lon="2.31542">
        <ele>105.1</ele>
        <time>2023-08-10T07:29:04Z</time>
      </trkpt>
      <trkpt lat="49.82436" lon="2.31543">
        <ele>105.1</ele>
        <time>2023-08-10T07:29:05Z</time>
      </trkpt>
      <trkpt lat="49.82434" lon="2.31544">
        <ele>105.2</ele>
        <time>2023-08-10T07:29:06Z</time>
      </trkpt>
      <trkpt lat="49.82433" lon="2.31545">
        <ele>105.2</ele>
        <time>2023-08-10T07:29:07Z</time>
      </trkpt>
      <trkpt lat="49.82433" lon="2.31545">
        <ele>105.2</ele>
        <time>2023-08-10T07:29:08Z</time>
      </trkpt>
      <trkpt lat="49.82431" lon="2.31546">
        <ele>105.3</ele>
        <time>2023-08-10T07:29:10Z</time>
      </trkpt>
      <trkpt lat="49.8243" lon="2.31547">
        <ele>105.3</ele>
        <time>2023-08-10T07:29:11Z</time>
      </trkpt>
      <trkpt lat="49.82428" lon="2.31548">
        <ele>105.3</ele>
        <time>2023-08-10T07:29:12Z</time>
      </trkpt>
      <trkpt lat="49.82427" lon="2.31548">
        <ele>105.4</ele>
        <time>2023-08-10T07:29:13Z</time>
      </trkpt>
      <trkpt lat="49.82427" lon="2.31548">
        <ele>105.4</ele>
        <time>2023-08-10T07:29:14Z</time>
      </trkpt>
      <trkpt lat="49.82426" lon="2.31549">
        <ele>105.4</ele>
        <time>2023-08-10T07:29:15Z</time>
      </trkpt>
      <trkpt lat="49.82424" lon="2.3155">
        <ele>105.4</ele>
        <time>2023-08-10T07:29:16Z</time>
      </trkpt>
      <trkpt lat="49.82423" lon="2.31551">
        <ele>105.5</ele>
        <time>2023-08-10T07:29:18Z</time>
      </trkpt>
      <trkpt lat="49.82421" lon="2.31552">
        <ele>105.5</ele>
        <time>2023-08-10T07:29:19Z</time>
      </trkpt>
      <trkpt lat="49.82421" lon="2.31553">
        <ele>105.6</ele>
        <time>2023-08-10T07:29:20Z</time>
      </trkpt>
      <trkpt lat="49.8242" lon="2.31554">
        <ele>105.6</ele>
        <time>2023-08-10T07:29:21Z</time>
      </trkpt>
      <trkpt lat="49.8242" lon="2.31555">
        <ele>105.6</ele>
        <time>2023-08-10T07:29:22Z</time>
      </trkpt>
      <trkpt lat="49.8242" lon="2.31558">
        <ele>105.7</ele>
        <time>2023-08-10T07:29:24Z</time>
      </trkpt>
      <trkpt lat="49.82419" lon="2.3156">
        <ele>105.7</ele>
        <time>2023-08-10T07:29:26Z</time>
      </trkpt>
      <trkpt lat="49.82419" lon="2.31561">
        <ele>105.7</ele>
        <time>2023-08-10T07:29:27Z</time>
      </trkpt>
      <trkpt lat="49.8242" lon="2.31562">
        <ele>105.7</ele>
        <time>2023-08-10T07:29:29Z</time>
      </trkpt>
      <trkpt lat="49.8242" lon="2.31562">
        <ele>105.7</ele>
        <time>2023-08-10T07:29:30Z</time>
      </trkpt>
      <trkpt lat="49.8242" lon="2.31562">
        <ele>105.7</ele>
        <time>2023-08-10T07:29:32Z</time>
      </trkpt>
      <trkpt lat="49.8242" lon="2.31562">
        <ele>105.7</ele>
        <time>2023-08-10T07:29:33Z</time>
      </trkpt>
      <trkpt lat="49.8242" lon="2.31562">
        <ele>105.7</ele>
        <time>2023-08-10T07:29:35Z</time>
      </trkpt>
      <trkpt lat="49.8242" lon="2.31562">
        <ele>105.7</ele>
        <time>2023-08-10T07:29:36Z</time>
      </trkpt>
      <trkpt lat="49.8242" lon="2.31562">
        <ele>105.7</ele>
        <time>2023-08-10T07:29:37Z</time>
      </trkpt>
      <trkpt lat="49.8242" lon="2.31562">
        <ele>105.7</ele>
        <time>2023-08-10T07:29:39Z</time>
      </trkpt>
      <trkpt lat="49.8242" lon="2.31562">
        <ele>105.7</ele>
        <time>2023-08-10T07:29:40Z</time>
      </trkpt>
      <trkpt lat="49.82419" lon="2.31562">
        <ele>105.7</ele>
        <time>2023-08-10T07:29:42Z</time>
      </trkpt>
      <trkpt lat="49.8242" lon="2.31562">
        <ele>105.7</ele>
        <time>2023-08-10T07:29:43Z</time>
      </trkpt>
      <trkpt lat="49.8242" lon="2.31562">
        <ele>105.8</ele>
        <time>2023-08-10T07:29:44Z</time>
      </trkpt>
      <trkpt lat="49.8242" lon="2.31562">
        <ele>105.8</ele>
        <time>2023-08-10T07:29:45Z</time>
      </trkpt>
      <trkpt lat="49.8242" lon="2.31562">
        <ele>105.8</ele>
        <time>2023-08-10T07:29:46Z</time>
      </trkpt>
      <trkpt lat="49.8242" lon="2.31562">
        <ele>105.8</ele>
        <time>2023-08-10T07:29:47Z</time>
      </trkpt>
      <trkpt lat="49.8242" lon="2.31562">
        <ele>105.8</ele>
        <time>2023-08-10T07:29:48Z</time>
      </trkpt>
      <trkpt lat="49.8242" lon="2.31562">
        <ele>105.8</ele>
        <time>2023-08-10T07:29:49Z</time>
      </trkpt>
      <trkpt lat="49.8242" lon="2.31562">
        <ele>105.8</ele>
        <time>2023-08-10T07:29:50Z</time>
      </trkpt>
      <trkpt lat="49.8242" lon="2.31562">
        <ele>105.8</ele>
        <time>2023-08-10T07:29:51Z</time>
      </trkpt>
      <trkpt lat="49.8242" lon="2.31562">
        <ele>105.8</ele>
        <time>2023-08-10T07:29:52Z</time>
      </trkpt>
      <trkpt lat="49.8242" lon="2.31562">
        <ele>105.8</ele>
        <time>2023-08-10T07:29:53Z</time>
      </trkpt>
      <trkpt lat="49.8242" lon="2.31562">
        <ele>105.8</ele>
        <time>2023-08-10T07:29:54Z</time>
      </trkpt>
      <trkpt lat="49.8242" lon="2.31562">
        <ele>105.8</ele>
        <time>2023-08-10T07:29:55Z</time>
      </trkpt>
      <trkpt lat="49.8242" lon="2.31562">
        <ele>105.8</ele>
        <time>2023-08-10T07:29:56Z</time>
      </trkpt>
      <trkpt lat="49.8242" lon="2.31562">
        <ele>105.8</ele>
        <time>2023-08-10T07:29:57Z</time>
      </trkpt>
      <trkpt lat="49.8242" lon="2.31562">
        <ele>105.8</ele>
        <time>2023-08-10T07:29:58Z</time>
      </trkpt>
      <trkpt lat="49.8242" lon="2.31562">
        <ele>105.8</ele>
        <time>2023-08-10T07:29:59Z</time>
      </trkpt>
      <trkpt lat="49.8242" lon="2.31562">
        <ele>105.8</ele>
        <time>2023-08-10T07:30:00Z</time>
      </trkpt>
      <trkpt lat="49.8242" lon="2.31562">
        <ele>105.8</ele>
        <time>2023-08-10T07:30:01Z</time>
      </trkpt>
      <trkpt lat="49.8242" lon="2.31562">
        <ele>105.8</ele>
        <time>2023-08-10T07:30:02Z</time>
      </trkpt>
      <trkpt lat="49.8242" lon="2.31562">
        <ele>105.8</ele>
        <time>2023-08-10T07:30:03Z</time>
      </trkpt>
      <trkpt lat="49.8242" lon="2.31562">
        <ele>105.8</ele>
        <time>2023-08-10T07:30:04Z</time>
      </trkpt>
      <trkpt lat="49.8242" lon="2.31562">
        <ele>105.8</ele>
        <time>2023-08-10T07:30:05Z</time>
      </trkpt>
      <trkpt lat="49.8242" lon="2.31562">
        <ele>105.8</ele>
        <time>2023-08-10T07:30:06Z</time>
      </trkpt>
      <trkpt lat="49.8242" lon="2.31562">
        <ele>105.8</ele>
        <time>2023-08-10T07:30:07Z</time>
      </trkpt>
      <trkpt lat="49.82419" lon="2.31561">
        <ele>105.8</ele>
        <time>2023-08-10T07:30:08Z</time>
      </trkpt>
      <trkpt lat="49.82418" lon="2.3156">
        <ele>105.8</ele>
        <time>2023-08-10T07:30:09Z</time>
      </trkpt>
      <trkpt lat="49.82418" lon="2.3156">
        <ele>105.8</ele>
        <time>2023-08-10T07:30:10Z</time>
      </trkpt>
      <trkpt lat="49.82417" lon="2.3156">
        <ele>105.9</ele>
        <time>2023-08-10T07:30:11Z</time>
      </trkpt>
      <trkpt lat="49.82416" lon="2.31561">
        <ele>105.9</ele>
        <time>2023-08-10T07:30:12Z</time>
      </trkpt>
      <trkpt lat="49.82415" lon="2.31561">
        <ele>105.9</ele>
        <time>2023-08-10T07:30:13Z</time>
      </trkpt>
      <trkpt lat="49.82414" lon="2.31562">
        <ele>106</ele>
        <time>2023-08-10T07:30:14Z</time>
      </trkpt>
      <trkpt lat="49.82412" lon="2.31563">
        <ele>106</ele>
        <time>2023-08-10T07:30:15Z</time>
      </trkpt>
      <trkpt lat="49.82411" lon="2.31563">
        <ele>106</ele>
        <time>2023-08-10T07:30:16Z</time>
      </trkpt>
      <trkpt lat="49.82411" lon="2.31563">
        <ele>106.1</ele>
        <time>2023-08-10T07:30:18Z</time>
      </trkpt>
      <trkpt lat="49.8241" lon="2.31563">
        <ele>106.1</ele>
        <time>2023-08-10T07:30:19Z</time>
      </trkpt>
      <trkpt lat="49.82408" lon="2.31564">
        <ele>106.2</ele>
        <time>2023-08-10T07:30:20Z</time>
      </trkpt>
      <trkpt lat="49.82406" lon="2.31565">
        <ele>106.2</ele>
        <time>2023-08-10T07:30:22Z</time>
      </trkpt>
      <trkpt lat="49.82404" lon="2.31566">
        <ele>106.3</ele>
        <time>2023-08-10T07:30:23Z</time>
      </trkpt>
      <trkpt lat="49.82403" lon="2.31567">
        <ele>106.3</ele>
        <time>2023-08-10T07:30:24Z</time>
      </trkpt>
      <trkpt lat="49.82402" lon="2.31568">
        <ele>106.4</ele>
        <time>2023-08-10T07:30:25Z</time>
      </trkpt>
      <trkpt lat="49.824" lon="2.31569">
        <ele>106.4</ele>
        <time>2023-08-10T07:30:27Z</time>
      </trkpt>
      <trkpt lat="49.82399" lon="2.31569">
        <ele>106.5</ele>
        <time>2023-08-10T07:30:28Z</time>
      </trkpt>
      <trkpt lat="49.82398" lon="2.3157">
        <ele>106.5</ele>
        <time>2023-08-10T07:30:29Z</time>
      </trkpt>
      <trkpt lat="49.82397" lon="2.3157">
        <ele>106.5</ele>
        <time>2023-08-10T07:30:30Z</time>
      </trkpt>
      <trkpt lat="49.82396" lon="2.31569">
        <ele>106.5</ele>
        <time>2023-08-10T07:30:31Z</time>
      </trkpt>
      <trkpt lat="49.82395" lon="2.31569">
        <ele>106.5</ele>
        <time>2023-08-10T07:30:32Z</time>
      </trkpt>
      <trkpt lat="49.82394" lon="2.31569">
        <ele>106.6</ele>
        <time>2023-08-10T07:30:34Z</time>
      </trkpt>
      <trkpt lat="49.82394" lon="2.31568">
        <ele>106.6</ele>
        <time>2023-08-10T07:30:35Z</time>
      </trkpt>
      <trkpt lat="49.82393" lon="2.31568">
        <ele>106.6</ele>
        <time>2023-08-10T07:30:36Z</time>
      </trkpt>
      <trkpt lat="49.82392" lon="2.31568">
        <ele>106.6</ele>
        <time>2023-08-10T07:30:37Z</time>
      </trkpt>
      <trkpt lat="49.82391" lon="2.31568">
        <ele>106.6</ele>
        <time>2023-08-10T07:30:38Z</time>
      </trkpt>
      <trkpt lat="49.8239" lon="2.31568">
        <ele>106.6</ele>
        <time>2023-08-10T07:30:40Z</time>
      </trkpt>
      <trkpt lat="49.8239" lon="2.31566">
        <ele>106.7</ele>
        <time>2023-08-10T07:30:41Z</time>
      </trkpt>
      <trkpt lat="49.8239" lon="2.31565">
        <ele>106.7</ele>
        <time>2023-08-10T07:30:43Z</time>
      </trkpt>
      <trkpt lat="49.8239" lon="2.31564">
        <ele>106.7</ele>
        <time>2023-08-10T07:30:44Z</time>
      </trkpt>
      <trkpt lat="49.8239" lon="2.31563">
        <ele>106.7</ele>
        <time>2023-08-10T07:30:45Z</time>
      </trkpt>
      <trkpt lat="49.8239" lon="2.31563">
        <ele>106.7</ele>
        <time>2023-08-10T07:30:47Z</time>
      </trkpt>
      <trkpt lat="49.8239" lon="2.31563">
        <ele>106.7</ele>
        <time>2023-08-10T07:30:48Z</time>
      </trkpt>
      <trkpt lat="49.82389" lon="2.31563">
        <ele>106.7</ele>
        <time>2023-08-10T07:30:50Z</time>
      </trkpt>
      <trkpt lat="49.82389" lon="2.31563">
        <ele>106.7</ele>
        <time>2023-08-10T07:30:51Z</time>
      </trkpt>
      <trkpt lat="49.82389" lon="2.31563">
        <ele>106.7</ele>
        <time>2023-08-10T07:30:53Z</time>
      </trkpt>
      <trkpt lat="49.82389" lon="2.31563">
        <ele>106.7</ele>
        <time>2023-08-10T07:30:54Z</time>
      </trkpt>
      <trkpt lat="49.82388" lon="2.31563">
        <ele>106.7</ele>
        <time>2023-08-10T07:30:55Z</time>
      </trkpt>
      <trkpt lat="49.82388" lon="2.31563">
        <ele>106.7</ele>
        <time>2023-08-10T07:30:56Z</time>
      </trkpt>
      <trkpt lat="49.82388" lon="2.31563">
        <ele>106.7</ele>
        <time>2023-08-10T07:30:57Z</time>
      </trkpt>
      <trkpt lat="49.82388" lon="2.31563">
        <ele>106.7</ele>
        <time>2023-08-10T07:30:59Z</time>
      </trkpt>
      <trkpt lat="49.82387" lon="2.31563">
        <ele>106.8</ele>
        <time>2023-08-10T07:31:00Z</time>
      </trkpt>
      <trkpt lat="49.82387" lon="2.31563">
        <ele>106.8</ele>
        <time>2023-08-10T07:31:01Z</time>
      </trkpt>
      <trkpt lat="49.82387" lon="2.31563">
        <ele>106.8</ele>
        <time>2023-08-10T07:31:02Z</time>
      </trkpt>
      <trkpt lat="49.82386" lon="2.31563">
        <ele>106.8</ele>
        <time>2023-08-10T07:31:03Z</time>
      </trkpt>
      <trkpt lat="49.82384" lon="2.31564">
        <ele>106.8</ele>
        <time>2023-08-10T07:31:05Z</time>
      </trkpt>
      <trkpt lat="49.82382" lon="2.31564">
        <ele>106.8</ele>
        <time>2023-08-10T07:31:06Z</time>
      </trkpt>
      <trkpt lat="49.82381" lon="2.31564">
        <ele>106.8</ele>
        <time>2023-08-10T07:31:07Z</time>
      </trkpt>
      <trkpt lat="49.82379" lon="2.31564">
        <ele>106.9</ele>
        <time>2023-08-10T07:31:08Z</time>
      </trkpt>
      <trkpt lat="49.82377" lon="2.31564">
        <ele>106.9</ele>
        <time>2023-08-10T07:31:09Z</time>
      </trkpt>
      <trkpt lat="49.82375" lon="2.31563">
        <ele>106.9</ele>
        <time>2023-08-10T07:31:10Z</time>
      </trkpt>
      <trkpt lat="49.82374" lon="2.31563">
        <ele>106.9</ele>
        <time>2023-08-10T07:31:11Z</time>
      </trkpt>
      <trkpt lat="49.82373" lon="2.31563">
        <ele>106.9</ele>
        <time>2023-08-10T07:31:12Z</time>
      </trkpt>
      <trkpt lat="49.82372" lon="2.31562">
        <ele>106.9</ele>
        <time>2023-08-10T07:31:13Z</time>
      </trkpt>
      <trkpt lat="49.8237" lon="2.31562">
        <ele>107</ele>
        <time>2023-08-10T07:31:15Z</time>
      </trkpt>
      <trkpt lat="49.82369" lon="2.31562">
        <ele>107</ele>
        <time>2023-08-10T07:31:16Z</time>
      </trkpt>
      <trkpt lat="49.82367" lon="2.31561">
        <ele>107</ele>
        <time>2023-08-10T07:31:17Z</time>
      </trkpt>
      <trkpt lat="49.82365" lon="2.31561">
        <ele>107</ele>
        <time>2023-08-10T07:31:18Z</time>
      </trkpt>
      <trkpt lat="49.82364" lon="2.31561">
        <ele>107</ele>
        <time>2023-08-10T07:31:19Z</time>
      </trkpt>
      <trkpt lat="49.82364" lon="2.3156">
        <ele>107</ele>
        <time>2023-08-10T07:31:20Z</time>
      </trkpt>
      <trkpt lat="49.82361" lon="2.31559">
        <ele>107.1</ele>
        <time>2023-08-10T07:31:21Z</time>
      </trkpt>
      <trkpt lat="49.82361" lon="2.31559">
        <ele>107.1</ele>
        <time>2023-08-10T07:31:22Z</time>
      </trkpt>
      <trkpt lat="49.8236" lon="2.31559">
        <ele>107.1</ele>
        <time>2023-08-10T07:31:23Z</time>
      </trkpt>
      <trkpt lat="49.82359" lon="2.31558">
        <ele>107.1</ele>
        <time>2023-08-10T07:31:24Z</time>
      </trkpt>
      <trkpt lat="49.82357" lon="2.31557">
        <ele>107.1</ele>
        <time>2023-08-10T07:31:25Z</time>
      </trkpt>
      <trkpt lat="49.82356" lon="2.31556">
        <ele>107.1</ele>
        <time>2023-08-10T07:31:27Z</time>
      </trkpt>
      <trkpt lat="49.82355" lon="2.31556">
        <ele>107.1</ele>
        <time>2023-08-10T07:31:28Z</time>
      </trkpt>
      <trkpt lat="49.82353" lon="2.31556">
        <ele>107.2</ele>
        <time>2023-08-10T07:31:29Z</time>
      </trkpt>
      <trkpt lat="49.82351" lon="2.31555">
        <ele>107.2</ele>
        <time>2023-08-10T07:31:30Z</time>
      </trkpt>
      <trkpt lat="49.8235" lon="2.31554">
        <ele>107.2</ele>
        <time>2023-08-10T07:31:31Z</time>
      </trkpt>
      <trkpt lat="49.8235" lon="2.31554">
        <ele>107.2</ele>
        <time>2023-08-10T07:31:32Z</time>
      </trkpt>
      <trkpt lat="49.82347" lon="2.31552">
        <ele>107.2</ele>
        <time>2023-08-10T07:31:33Z</time>
      </trkpt>
      <trkpt lat="49.82347" lon="2.31551">
        <ele>107.2</ele>
        <time>2023-08-10T07:31:35Z</time>
      </trkpt>
      <trkpt lat="49.82346" lon="2.3155">
        <ele>107.2</ele>
        <time>2023-08-10T07:31:36Z</time>
      </trkpt>
      <trkpt lat="49.82345" lon="2.31549">
        <ele>107.3</ele>
        <time>2023-08-10T07:31:37Z</time>
      </trkpt>
      <trkpt lat="49.82344" lon="2.31548">
        <ele>107.3</ele>
        <time>2023-08-10T07:31:38Z</time>
      </trkpt>
      <trkpt lat="49.82343" lon="2.31548">
        <ele>107.3</ele>
        <time>2023-08-10T07:31:39Z</time>
      </trkpt>
      <trkpt lat="49.82342" lon="2.31547">
        <ele>107.3</ele>
        <time>2023-08-10T07:31:40Z</time>
      </trkpt>
      <trkpt lat="49.82341" lon="2.31546">
        <ele>107.3</ele>
        <time>2023-08-10T07:31:41Z</time>
      </trkpt>
      <trkpt lat="49.82339" lon="2.31545">
        <ele>107.3</ele>
        <time>2023-08-10T07:31:43Z</time>
      </trkpt>
      <trkpt lat="49.82338" lon="2.31544">
        <ele>107.3</ele>
        <time>2023-08-10T07:31:44Z</time>
      </trkpt>
      <trkpt lat="49.82337" lon="2.31543">
        <ele>107.3</ele>
        <time>2023-08-10T07:31:45Z</time>
      </trkpt>
      <trkpt lat="49.82336" lon="2.31543">
        <ele>107.3</ele>
        <time>2023-08-10T07:31:46Z</time>
      </trkpt>
      <trkpt lat="49.82334" lon="2.31542">
        <ele>107.3</ele>
        <time>2023-08-10T07:31:47Z</time>
      </trkpt>
      <trkpt lat="49.82333" lon="2.31541">
        <ele>107.3</ele>
        <time>2023-08-10T07:31:48Z</time>
      </trkpt>
      <trkpt lat="49.82332" lon="2.31541">
        <ele>107.4</ele>
        <time>2023-08-10T07:31:49Z</time>
      </trkpt>
      <trkpt lat="49.82329" lon="2.3154">
        <ele>107.4</ele>
        <time>2023-08-10T07:31:50Z</time>
      </trkpt>
      <trkpt lat="49.82328" lon="2.31539">
        <ele>107.4</ele>
        <time>2023-08-10T07:31:52Z</time>
      </trkpt>
      <trkpt lat="49.82327" lon="2.31538">
        <ele>107.4</ele>
        <time>2023-08-10T07:31:54Z</time>
      </trkpt>
      <trkpt lat="49.82326" lon="2.31538">
        <ele>107.4</ele>
        <time>2023-08-10T07:31:55Z</time>
      </trkpt>
      <trkpt lat="49.82325" lon="2.31537">
        <ele>107.4</ele>
        <time>2023-08-10T07:31:56Z</time>
      </trkpt>
      <trkpt lat="49.82323" lon="2.31536">
        <ele>107.4</ele>
        <time>2023-08-10T07:31:57Z</time>
      </trkpt>
      <trkpt lat="49.82322" lon="2.31536">
        <ele>107.4</ele>
        <time>2023-08-10T07:31:58Z</time>
      </trkpt>
      <trkpt lat="49.82321" lon="2.31535">
        <ele>107.4</ele>
        <time>2023-08-10T07:31:59Z</time>
      </trkpt>
      <trkpt lat="49.8232" lon="2.31534">
        <ele>107.4</ele>
        <time>2023-08-10T07:32:00Z</time>
      </trkpt>
      <trkpt lat="49.82319" lon="2.31533">
        <ele>107.4</ele>
        <time>2023-08-10T07:32:01Z</time>
      </trkpt>
      <trkpt lat="49.82318" lon="2.31533">
        <ele>107.4</ele>
        <time>2023-08-10T07:32:03Z</time>
      </trkpt>
      <trkpt lat="49.82318" lon="2.31532">
        <ele>107.4</ele>
        <time>2023-08-10T07:32:04Z</time>
      </trkpt>
      <trkpt lat="49.82317" lon="2.31531">
        <ele>107.4</ele>
        <time>2023-08-10T07:32:05Z</time>
      </trkpt>
      <trkpt lat="49.82316" lon="2.31531">
        <ele>107.4</ele>
        <time>2023-08-10T07:32:06Z</time>
      </trkpt>
      <trkpt lat="49.82315" lon="2.3153">
        <ele>107.4</ele>
        <time>2023-08-10T07:32:07Z</time>
      </trkpt>
      <trkpt lat="49.82314" lon="2.31529">
        <ele>107.4</ele>
        <time>2023-08-10T07:32:08Z</time>
      </trkpt>
      <trkpt lat="49.82313" lon="2.31528">
        <ele>107.4</ele>
        <time>2023-08-10T07:32:09Z</time>
      </trkpt>
      <trkpt lat="49.82312" lon="2.31528">
        <ele>107.4</ele>
        <time>2023-08-10T07:32:11Z</time>
      </trkpt>
      <trkpt lat="49.8231" lon="2.31527">
        <ele>107.4</ele>
        <time>2023-08-10T07:32:12Z</time>
      </trkpt>
      <trkpt lat="49.82309" lon="2.31526">
        <ele>107.4</ele>
        <time>2023-08-10T07:32:13Z</time>
      </trkpt>
      <trkpt lat="49.82308" lon="2.31526">
        <ele>107.4</ele>
        <time>2023-08-10T07:32:14Z</time>
      </trkpt>
      <trkpt lat="49.82306" lon="2.31526">
        <ele>107.4</ele>
        <time>2023-08-10T07:32:15Z</time>
      </trkpt>
      <trkpt lat="49.82305" lon="2.31525">
        <ele>107.4</ele>
        <time>2023-08-10T07:32:17Z</time>
      </trkpt>
      <trkpt lat="49.82303" lon="2.31525">
        <ele>107.4</ele>
        <time>2023-08-10T07:32:18Z</time>
      </trkpt>
      <trkpt lat="49.82302" lon="2.31525">
        <ele>107.4</ele>
        <time>2023-08-10T07:32:19Z</time>
      </trkpt>
      <trkpt lat="49.82301" lon="2.31525">
        <ele>107.4</ele>
        <time>2023-08-10T07:32:20Z</time>
      </trkpt>
      <trkpt lat="49.823" lon="2.31525">
        <ele>107.4</ele>
        <time>2023-08-10T07:32:21Z</time>
      </trkpt>
      <trkpt lat="49.82299" lon="2.31525">
        <ele>107.4</ele>
        <time>2023-08-10T07:32:22Z</time>
      </trkpt>
      <trkpt lat="49.82297" lon="2.31525">
        <ele>107.4</ele>
        <time>2023-08-10T07:32:24Z</time>
      </trkpt>
      <trkpt lat="49.82296" lon="2.31524">
        <ele>107.4</ele>
        <time>2023-08-10T07:32:25Z</time>
      </trkpt>
      <trkpt lat="49.82294" lon="2.31524">
        <ele>107.4</ele>
        <time>2023-08-10T07:32:26Z</time>
      </trkpt>
      <trkpt lat="49.82293" lon="2.31524">
        <ele>107.4</ele>
        <time>2023-08-10T07:32:27Z</time>
      </trkpt>
      <trkpt lat="49.82291" lon="2.31523">
        <ele>107.4</ele>
        <time>2023-08-10T07:32:28Z</time>
      </trkpt>
      <trkpt lat="49.8229" lon="2.31523">
        <ele>107.4</ele>
        <time>2023-08-10T07:32:29Z</time>
      </trkpt>
      <trkpt lat="49.82288" lon="2.31523">
        <ele>107.4</ele>
        <time>2023-08-10T07:32:30Z</time>
      </trkpt>
      <trkpt lat="49.82287" lon="2.31523">
        <ele>107.4</ele>
        <time>2023-08-10T07:32:31Z</time>
      </trkpt>
      <trkpt lat="49.82286" lon="2.31522">
        <ele>107.4</ele>
        <time>2023-08-10T07:32:32Z</time>
      </trkpt>
      <trkpt lat="49.82284" lon="2.31522">
        <ele>107.4</ele>
        <time>2023-08-10T07:32:34Z</time>
      </trkpt>
      <trkpt lat="49.82282" lon="2.31522">
        <ele>107.4</ele>
        <time>2023-08-10T07:32:35Z</time>
      </trkpt>
      <trkpt lat="49.82281" lon="2.31522">
        <ele>107.4</ele>
        <time>2023-08-10T07:32:36Z</time>
      </trkpt>
      <trkpt lat="49.8228" lon="2.31522">
        <ele>107.4</ele>
        <time>2023-08-10T07:32:38Z</time>
      </trkpt>
      <trkpt lat="49.82279" lon="2.31522">
        <ele>107.4</ele>
        <time>2023-08-10T07:32:39Z</time>
      </trkpt>
      <trkpt lat="49.82278" lon="2.31521">
        <ele>107.4</ele>
        <time>2023-08-10T07:32:40Z</time>
      </trkpt>
      <trkpt lat="49.82277" lon="2.31521">
        <ele>107.4</ele>
        <time>2023-08-10T07:32:41Z</time>
      </trkpt>
      <trkpt lat="49.82276" lon="2.3152">
        <ele>107.4</ele>
        <time>2023-08-10T07:32:42Z</time>
      </trkpt>
      <trkpt lat="49.82275" lon="2.3152">
        <ele>107.4</ele>
        <time>2023-08-10T07:32:43Z</time>
      </trkpt>
      <trkpt lat="49.82273" lon="2.31519">
        <ele>107.4</ele>
        <time>2023-08-10T07:32:44Z</time>
      </trkpt>
      <trkpt lat="49.82272" lon="2.31519">
        <ele>107.4</ele>
        <time>2023-08-10T07:32:45Z</time>
      </trkpt>
      <trkpt lat="49.82271" lon="2.31519">
        <ele>107.4</ele>
        <time>2023-08-10T07:32:47Z</time>
      </trkpt>
      <trkpt lat="49.8227" lon="2.31518">
        <ele>107.4</ele>
        <time>2023-08-10T07:32:48Z</time>
      </trkpt>
      <trkpt lat="49.82269" lon="2.31518">
        <ele>107.4</ele>
        <time>2023-08-10T07:32:49Z</time>
      </trkpt>
      <trkpt lat="49.82267" lon="2.31517">
        <ele>107.4</ele>
        <time>2023-08-10T07:32:50Z</time>
      </trkpt>
      <trkpt lat="49.82266" lon="2.31517">
        <ele>107.4</ele>
        <time>2023-08-10T07:32:51Z</time>
      </trkpt>
      <trkpt lat="49.82265" lon="2.31517">
        <ele>107.3</ele>
        <time>2023-08-10T07:32:53Z</time>
      </trkpt>
      <trkpt lat="49.82263" lon="2.31516">
        <ele>107.3</ele>
        <time>2023-08-10T07:32:54Z</time>
      </trkpt>
      <trkpt lat="49.82261" lon="2.31516">
        <ele>107.3</ele>
        <time>2023-08-10T07:32:55Z</time>
      </trkpt>
      <trkpt lat="49.82259" lon="2.31517">
        <ele>107.3</ele>
        <time>2023-08-10T07:32:57Z</time>
      </trkpt>
      <trkpt lat="49.82259" lon="2.31517">
        <ele>107.3</ele>
        <time>2023-08-10T07:32:58Z</time>
      </trkpt>
      <trkpt lat="49.82258" lon="2.31518">
        <ele>107.3</ele>
        <time>2023-08-10T07:32:59Z</time>
      </trkpt>
      <trkpt lat="49.82257" lon="2.31517">
        <ele>107.3</ele>
        <time>2023-08-10T07:33:00Z</time>
      </trkpt>
      <trkpt lat="49.82256" lon="2.31517">
        <ele>107.3</ele>
        <time>2023-08-10T07:33:02Z</time>
      </trkpt>
      <trkpt lat="49.82255" lon="2.31517">
        <ele>107.3</ele>
        <time>2023-08-10T07:33:03Z</time>
      </trkpt>
      <trkpt lat="49.82254" lon="2.31517">
        <ele>107.3</ele>
        <time>2023-08-10T07:33:04Z</time>
      </trkpt>
      <trkpt lat="49.82253" lon="2.31516">
        <ele>107.3</ele>
        <time>2023-08-10T07:33:05Z</time>
      </trkpt>
      <trkpt lat="49.82252" lon="2.31515">
        <ele>107.3</ele>
        <time>2023-08-10T07:33:06Z</time>
      </trkpt>
      <trkpt lat="49.82251" lon="2.31514">
        <ele>107.3</ele>
        <time>2023-08-10T07:33:07Z</time>
      </trkpt>
      <trkpt lat="49.8225" lon="2.31514">
        <ele>107.3</ele>
        <time>2023-08-10T07:33:08Z</time>
      </trkpt>
      <trkpt lat="49.82249" lon="2.31513">
        <ele>107.3</ele>
        <time>2023-08-10T07:33:09Z</time>
      </trkpt>
      <trkpt lat="49.82248" lon="2.31513">
        <ele>107.3</ele>
        <time>2023-08-10T07:33:10Z</time>
      </trkpt>
      <trkpt lat="49.82246" lon="2.31512">
        <ele>107.3</ele>
        <time>2023-08-10T07:33:12Z</time>
      </trkpt>
      <trkpt lat="49.82246" lon="2.31512">
        <ele>107.3</ele>
        <time>2023-08-10T07:33:13Z</time>
      </trkpt>
      <trkpt lat="49.82245" lon="2.31511">
        <ele>107.3</ele>
        <time>2023-08-10T07:33:14Z</time>
      </trkpt>
      <trkpt lat="49.82244" lon="2.3151">
        <ele>107.3</ele>
        <time>2023-08-10T07:33:15Z</time>
      </trkpt>
      <trkpt lat="49.82243" lon="2.3151">
        <ele>107.2</ele>
        <time>2023-08-10T07:33:16Z</time>
      </trkpt>
      <trkpt lat="49.82242" lon="2.3151">
        <ele>107.2</ele>
        <time>2023-08-10T07:33:18Z</time>
      </trkpt>
      <trkpt lat="49.82241" lon="2.31509">
        <ele>107.2</ele>
        <time>2023-08-10T07:33:19Z</time>
      </trkpt>
      <trkpt lat="49.8224" lon="2.3151">
        <ele>107.2</ele>
        <time>2023-08-10T07:33:20Z</time>
      </trkpt>
      <trkpt lat="49.8224" lon="2.31512">
        <ele>107.2</ele>
        <time>2023-08-10T07:33:22Z</time>
      </trkpt>
      <trkpt lat="49.82241" lon="2.31513">
        <ele>107.2</ele>
        <time>2023-08-10T07:33:23Z</time>
      </trkpt>
      <trkpt lat="49.82241" lon="2.31514">
        <ele>107.2</ele>
        <time>2023-08-10T07:33:25Z</time>
      </trkpt>
      <trkpt lat="49.82241" lon="2.31514">
        <ele>107.2</ele>
        <time>2023-08-10T07:33:26Z</time>
      </trkpt>
      <trkpt lat="49.82241" lon="2.31514">
        <ele>107.2</ele>
        <time>2023-08-10T07:33:27Z</time>
      </trkpt>
      <trkpt lat="49.82241" lon="2.31514">
        <ele>107.2</ele>
        <time>2023-08-10T07:33:28Z</time>
      </trkpt>
      <trkpt lat="49.82241" lon="2.31515">
        <ele>107.2</ele>
        <time>2023-08-10T07:33:29Z</time>
      </trkpt>
      <trkpt lat="49.8224" lon="2.31515">
        <ele>107.2</ele>
        <time>2023-08-10T07:33:31Z</time>
      </trkpt>
      <trkpt lat="49.82239" lon="2.31515">
        <ele>107.2</ele>
        <time>2023-08-10T07:33:32Z</time>
      </trkpt>
      <trkpt lat="49.82238" lon="2.31515">
        <ele>107.2</ele>
        <time>2023-08-10T07:33:33Z</time>
      </trkpt>
      <trkpt lat="49.82236" lon="2.31514">
        <ele>107.2</ele>
        <time>2023-08-10T07:33:34Z</time>
      </trkpt>
      <trkpt lat="49.82235" lon="2.31514">
        <ele>107.2</ele>
        <time>2023-08-10T07:33:35Z</time>
      </trkpt>
      <trkpt lat="49.82234" lon="2.31514">
        <ele>107.2</ele>
        <time>2023-08-10T07:33:36Z</time>
      </trkpt>
      <trkpt lat="49.82233" lon="2.31514">
        <ele>107.2</ele>
        <time>2023-08-10T07:33:38Z</time>
      </trkpt>
      <trkpt lat="49.82231" lon="2.31513">
        <ele>107.2</ele>
        <time>2023-08-10T07:33:39Z</time>
      </trkpt>
      <trkpt lat="49.82229" lon="2.31513">
        <ele>107.1</ele>
        <time>2023-08-10T07:33:40Z</time>
      </trkpt>
      <trkpt lat="49.82228" lon="2.31513">
        <ele>107.1</ele>
        <time>2023-08-10T07:33:41Z</time>
      </trkpt>
      <trkpt lat="49.82227" lon="2.31513">
        <ele>107.1</ele>
        <time>2023-08-10T07:33:42Z</time>
      </trkpt>
      <trkpt lat="49.82226" lon="2.31512">
        <ele>107.1</ele>
        <time>2023-08-10T07:33:43Z</time>
      </trkpt>
      <trkpt lat="49.82225" lon="2.31512">
        <ele>107.1</ele>
        <time>2023-08-10T07:33:44Z</time>
      </trkpt>
      <trkpt lat="49.82224" lon="2.31512">
        <ele>107.1</ele>
        <time>2023-08-10T07:33:46Z</time>
      </trkpt>
      <trkpt lat="49.82223" lon="2.31511">
        <ele>107.1</ele>
        <time>2023-08-10T07:33:47Z</time>
      </trkpt>
      <trkpt lat="49.82222" lon="2.31511">
        <ele>107.1</ele>
        <time>2023-08-10T07:33:48Z</time>
      </trkpt>
      <trkpt lat="49.82221" lon="2.3151">
        <ele>107</ele>
        <time>2023-08-10T07:33:49Z</time>
      </trkpt>
      <trkpt lat="49.8222" lon="2.31509">
        <ele>107</ele>
        <time>2023-08-10T07:33:50Z</time>
      </trkpt>
      <trkpt lat="49.82219" lon="2.31508">
        <ele>107</ele>
        <time>2023-08-10T07:33:51Z</time>
      </trkpt>
      <trkpt lat="49.82218" lon="2.31507">
        <ele>107</ele>
        <time>2023-08-10T07:33:52Z</time>
      </trkpt>
      <trkpt lat="49.82217" lon="2.31506">
        <ele>107</ele>
        <time>2023-08-10T07:33:53Z</time>
      </trkpt>
      <trkpt lat="49.82216" lon="2.31505">
        <ele>107</ele>
        <time>2023-08-10T07:33:55Z</time>
      </trkpt>
      <trkpt lat="49.82215" lon="2.31504">
        <ele>107</ele>
        <time>2023-08-10T07:33:56Z</time>
      </trkpt>
      <trkpt lat="49.82214" lon="2.31504">
        <ele>107</ele>
        <time>2023-08-10T07:33:57Z</time>
      </trkpt>
      <trkpt lat="49.82213" lon="2.31503">
        <ele>107</ele>
        <time>2023-08-10T07:33:58Z</time>
      </trkpt>
      <trkpt lat="49.82212" lon="2.31503">
        <ele>107</ele>
        <time>2023-08-10T07:33:59Z</time>
      </trkpt>
      <trkpt lat="49.82211" lon="2.31501">
        <ele>107</ele>
        <time>2023-08-10T07:34:00Z</time>
      </trkpt>
      <trkpt lat="49.8221" lon="2.31501">
        <ele>107</ele>
        <time>2023-08-10T07:34:01Z</time>
      </trkpt>
      <trkpt lat="49.82209" lon="2.315">
        <ele>107</ele>
        <time>2023-08-10T07:34:03Z</time>
      </trkpt>
      <trkpt lat="49.82208" lon="2.31499">
        <ele>106.9</ele>
        <time>2023-08-10T07:34:04Z</time>
      </trkpt>
      <trkpt lat="49.82207" lon="2.31498">
        <ele>106.9</ele>
        <time>2023-08-10T07:34:05Z</time>
      </trkpt>
      <trkpt lat="49.82206" lon="2.31498">
        <ele>106.9</ele>
        <time>2023-08-10T07:34:06Z</time>
      </trkpt>
      <trkpt lat="49.82205" lon="2.31497">
        <ele>106.9</ele>
        <time>2023-08-10T07:34:07Z</time>
      </trkpt>
      <trkpt lat="49.82203" lon="2.31497">
        <ele>106.9</ele>
        <time>2023-08-10T07:34:08Z</time>
      </trkpt>
      <trkpt lat="49.82202" lon="2.31497">
        <ele>106.9</ele>
        <time>2023-08-10T07:34:09Z</time>
      </trkpt>
      <trkpt lat="49.822" lon="2.31497">
        <ele>106.8</ele>
        <time>2023-08-10T07:34:11Z</time>
      </trkpt>
      <trkpt lat="49.82199" lon="2.31497">
        <ele>106.8</ele>
        <time>2023-08-10T07:34:12Z</time>
      </trkpt>
      <trkpt lat="49.82198" lon="2.31496">
        <ele>106.8</ele>
        <time>2023-08-10T07:34:13Z</time>
      </trkpt>
      <trkpt lat="49.82196" lon="2.31496">
        <ele>106.8</ele>
        <time>2023-08-10T07:34:14Z</time>
      </trkpt>
      <trkpt lat="49.82196" lon="2.31496">
        <ele>106.8</ele>
        <time>2023-08-10T07:34:15Z</time>
      </trkpt>
      <trkpt lat="49.82195" lon="2.31496">
        <ele>106.7</ele>
        <time>2023-08-10T07:34:16Z</time>
      </trkpt>
      <trkpt lat="49.82192" lon="2.31496">
        <ele>106.7</ele>
        <time>2023-08-10T07:34:18Z</time>
      </trkpt>
      <trkpt lat="49.82192" lon="2.31496">
        <ele>106.7</ele>
        <time>2023-08-10T07:34:19Z</time>
      </trkpt>
      <trkpt lat="49.82191" lon="2.31496">
        <ele>106.6</ele>
        <time>2023-08-10T07:34:20Z</time>
      </trkpt>
      <trkpt lat="49.8219" lon="2.31496">
        <ele>106.6</ele>
        <time>2023-08-10T07:34:21Z</time>
      </trkpt>
      <trkpt lat="49.82188" lon="2.31496">
        <ele>106.6</ele>
        <time>2023-08-10T07:34:22Z</time>
      </trkpt>
      <trkpt lat="49.82187" lon="2.31496">
        <ele>106.6</ele>
        <time>2023-08-10T07:34:24Z</time>
      </trkpt>
      <trkpt lat="49.82186" lon="2.31495">
        <ele>106.5</ele>
        <time>2023-08-10T07:34:25Z</time>
      </trkpt>
      <trkpt lat="49.82185" lon="2.31495">
        <ele>106.5</ele>
        <time>2023-08-10T07:34:26Z</time>
      </trkpt>
      <trkpt lat="49.82184" lon="2.31495">
        <ele>106.5</ele>
        <time>2023-08-10T07:34:27Z</time>
      </trkpt>
      <trkpt lat="49.82183" lon="2.31494">
        <ele>106.5</ele>
        <time>2023-08-10T07:34:28Z</time>
      </trkpt>
      <trkpt lat="49.82182" lon="2.31494">
        <ele>106.4</ele>
        <time>2023-08-10T07:34:29Z</time>
      </trkpt>
      <trkpt lat="49.82181" lon="2.31493">
        <ele>106.4</ele>
        <time>2023-08-10T07:34:31Z</time>
      </trkpt>
      <trkpt lat="49.8218" lon="2.31493">
        <ele>106.4</ele>
        <time>2023-08-10T07:34:32Z</time>
      </trkpt>
      <trkpt lat="49.82179" lon="2.31493">
        <ele>106.3</ele>
        <time>2023-08-10T07:34:33Z</time>
      </trkpt>
      <trkpt lat="49.82178" lon="2.31493">
        <ele>106.3</ele>
        <time>2023-08-10T07:34:34Z</time>
      </trkpt>
      <trkpt lat="49.82176" lon="2.31493">
        <ele>106.3</ele>
        <time>2023-08-10T07:34:35Z</time>
      </trkpt>
      <trkpt lat="49.82175" lon="2.31492">
        <ele>106.2</ele>
        <time>2023-08-10T07:34:36Z</time>
      </trkpt>
      <trkpt lat="49.82175" lon="2.31491">
        <ele>106.2</ele>
        <time>2023-08-10T07:34:38Z</time>
      </trkpt>
      <trkpt lat="49.82174" lon="2.31491">
        <ele>106.2</ele>
        <time>2023-08-10T07:34:39Z</time>
      </trkpt>
      <trkpt lat="49.82173" lon="2.3149">
        <ele>106.1</ele>
        <time>2023-08-10T07:34:40Z</time>
      </trkpt>
      <trkpt lat="49.82172" lon="2.3149">
        <ele>106.1</ele>
        <time>2023-08-10T07:34:41Z</time>
      </trkpt>
      <trkpt lat="49.82171" lon="2.3149">
        <ele>106.1</ele>
        <time>2023-08-10T07:34:42Z</time>
      </trkpt>
      <trkpt lat="49.8217" lon="2.3149">
        <ele>106</ele>
        <time>2023-08-10T07:34:43Z</time>
      </trkpt>
      <trkpt lat="49.82169" lon="2.3149">
        <ele>106</ele>
        <time>2023-08-10T07:34:44Z</time>
      </trkpt>
      <trkpt lat="49.82168" lon="2.3149">
        <ele>106</ele>
        <time>2023-08-10T07:34:45Z</time>
      </trkpt>
      <trkpt lat="49.82167" lon="2.31489">
        <ele>105.9</ele>
        <time>2023-08-10T07:34:47Z</time>
      </trkpt>
      <trkpt lat="49.82166" lon="2.31489">
        <ele>105.9</ele>
        <time>2023-08-10T07:34:48Z</time>
      </trkpt>
      <trkpt lat="49.82166" lon="2.31489">
        <ele>105.9</ele>
        <time>2023-08-10T07:34:50Z</time>
      </trkpt>
      <trkpt lat="49.82165" lon="2.31488">
        <ele>105.8</ele>
        <time>2023-08-10T07:34:51Z</time>
      </trkpt>
      <trkpt lat="49.82164" lon="2.31488">
        <ele>105.8</ele>
        <time>2023-08-10T07:34:52Z</time>
      </trkpt>
      <trkpt lat="49.82163" lon="2.31487">
        <ele>105.7</ele>
        <time>2023-08-10T07:34:53Z</time>
      </trkpt>
      <trkpt lat="49.82163" lon="2.31487">
        <ele>105.7</ele>
        <time>2023-08-10T07:34:54Z</time>
      </trkpt>
      <trkpt lat="49.82163" lon="2.31486">
        <ele>105.7</ele>
        <time>2023-08-10T07:34:56Z</time>
      </trkpt>
      <trkpt lat="49.82162" lon="2.31485">
        <ele>105.7</ele>
        <time>2023-08-10T07:34:57Z</time>
      </trkpt>
      <trkpt lat="49.82162" lon="2.31485">
        <ele>105.6</ele>
        <time>2023-08-10T07:34:58Z</time>
      </trkpt>
      <trkpt lat="49.82161" lon="2.31484">
        <ele>105.6</ele>
        <time>2023-08-10T07:34:59Z</time>
      </trkpt>
      <trkpt lat="49.82159" lon="2.31483">
        <ele>105.5</ele>
        <time>2023-08-10T07:35:00Z</time>
      </trkpt>
      <trkpt lat="49.82157" lon="2.31482">
        <ele>105.4</ele>
        <time>2023-08-10T07:35:01Z</time>
      </trkpt>
      <trkpt lat="49.82155" lon="2.31481">
        <ele>105.3</ele>
        <time>2023-08-10T07:35:02Z</time>
      </trkpt>
      <trkpt lat="49.82154" lon="2.3148">
        <ele>105.3</ele>
        <time>2023-08-10T07:35:03Z</time>
      </trkpt>
      <trkpt lat="49.8215" lon="2.31479">
        <ele>105.1</ele>
        <time>2023-08-10T07:35:05Z</time>
      </trkpt>
      <trkpt lat="49.82149" lon="2.31478">
        <ele>105.1</ele>
        <time>2023-08-10T07:35:06Z</time>
      </trkpt>
      <trkpt lat="49.82145" lon="2.31476">
        <ele>105</ele>
        <time>2023-08-10T07:35:08Z</time>
      </trkpt>
      <trkpt lat="49.82144" lon="2.31475">
        <ele>104.9</ele>
        <time>2023-08-10T07:35:09Z</time>
      </trkpt>
      <trkpt lat="49.82143" lon="2.31474">
        <ele>104.9</ele>
        <time>2023-08-10T07:35:10Z</time>
      </trkpt>
      <trkpt lat="49.82142" lon="2.31474">
        <ele>104.8</ele>
        <time>2023-08-10T07:35:11Z</time>
      </trkpt>
      <trkpt lat="49.8214" lon="2.31473">
        <ele>104.8</ele>
        <time>2023-08-10T07:35:12Z</time>
      </trkpt>
      <trkpt lat="49.82139" lon="2.31473">
        <ele>104.8</ele>
        <time>2023-08-10T07:35:14Z</time>
      </trkpt>
      <trkpt lat="49.82137" lon="2.31473">
        <ele>104.7</ele>
        <time>2023-08-10T07:35:15Z</time>
      </trkpt>
      <trkpt lat="49.82136" lon="2.31473">
        <ele>104.7</ele>
        <time>2023-08-10T07:35:16Z</time>
      </trkpt>
      <trkpt lat="49.82134" lon="2.31473">
        <ele>104.7</ele>
        <time>2023-08-10T07:35:17Z</time>
      </trkpt>
      <trkpt lat="49.82133" lon="2.31472">
        <ele>104.7</ele>
        <time>2023-08-10T07:35:18Z</time>
      </trkpt>
      <trkpt lat="49.82131" lon="2.31471">
        <ele>104.6</ele>
        <time>2023-08-10T07:35:20Z</time>
      </trkpt>
      <trkpt lat="49.8213" lon="2.31471">
        <ele>104.6</ele>
        <time>2023-08-10T07:35:22Z</time>
      </trkpt>
      <trkpt lat="49.82129" lon="2.3147">
        <ele>104.6</ele>
        <time>2023-08-10T07:35:23Z</time>
      </trkpt>
      <trkpt lat="49.82129" lon="2.3147">
        <ele>104.6</ele>
        <time>2023-08-10T07:35:24Z</time>
      </trkpt>
      <trkpt lat="49.82128" lon="2.3147">
        <ele>104.5</ele>
        <time>2023-08-10T07:35:25Z</time>
      </trkpt>
      <trkpt lat="49.82127" lon="2.3147">
        <ele>104.5</ele>
        <time>2023-08-10T07:35:26Z</time>
      </trkpt>
      <trkpt lat="49.82126" lon="2.31469">
        <ele>104.5</ele>
        <time>2023-08-10T07:35:27Z</time>
      </trkpt>
      <trkpt lat="49.82124" lon="2.31469">
        <ele>104.5</ele>
        <time>2023-08-10T07:35:28Z</time>
      </trkpt>
      <trkpt lat="49.82123" lon="2.31468">
        <ele>104.5</ele>
        <time>2023-08-10T07:35:30Z</time>
      </trkpt>
      <trkpt lat="49.82122" lon="2.31467">
        <ele>104.4</ele>
        <time>2023-08-10T07:35:31Z</time>
      </trkpt>
      <trkpt lat="49.82121" lon="2.31467">
        <ele>104.4</ele>
        <time>2023-08-10T07:35:32Z</time>
      </trkpt>
      <trkpt lat="49.8212" lon="2.31466">
        <ele>104.4</ele>
        <time>2023-08-10T07:35:33Z</time>
      </trkpt>
      <trkpt lat="49.82119" lon="2.31466">
        <ele>104.4</ele>
        <time>2023-08-10T07:35:34Z</time>
      </trkpt>
      <trkpt lat="49.82118" lon="2.31466">
        <ele>104.4</ele>
        <time>2023-08-10T07:35:35Z</time>
      </trkpt>
      <trkpt lat="49.82118" lon="2.31465">
        <ele>104.4</ele>
        <time>2023-08-10T07:35:36Z</time>
      </trkpt>
      <trkpt lat="49.82117" lon="2.31465">
        <ele>104.4</ele>
        <time>2023-08-10T07:35:37Z</time>
      </trkpt>
      <trkpt lat="49.82116" lon="2.31464">
        <ele>104.3</ele>
        <time>2023-08-10T07:35:38Z</time>
      </trkpt>
      <trkpt lat="49.82115" lon="2.31464">
        <ele>104.3</ele>
        <time>2023-08-10T07:35:40Z</time>
      </trkpt>
      <trkpt lat="49.82114" lon="2.31463">
        <ele>104.3</ele>
        <time>2023-08-10T07:35:41Z</time>
      </trkpt>
      <trkpt lat="49.82112" lon="2.31463">
        <ele>104.3</ele>
        <time>2023-08-10T07:35:42Z</time>
      </trkpt>
      <trkpt lat="49.82111" lon="2.31462">
        <ele>104.3</ele>
        <time>2023-08-10T07:35:43Z</time>
      </trkpt>
      <trkpt lat="49.8211" lon="2.31462">
        <ele>104.3</ele>
        <time>2023-08-10T07:35:44Z</time>
      </trkpt>
      <trkpt lat="49.82108" lon="2.31461">
        <ele>104.2</ele>
        <time>2023-08-10T07:35:45Z</time>
      </trkpt>
      <trkpt lat="49.82107" lon="2.3146">
        <ele>104.2</ele>
        <time>2023-08-10T07:35:46Z</time>
      </trkpt>
      <trkpt lat="49.82107" lon="2.3146">
        <ele>104.2</ele>
        <time>2023-08-10T07:35:47Z</time>
      </trkpt>
      <trkpt lat="49.82105" lon="2.31459">
        <ele>104.2</ele>
        <time>2023-08-10T07:35:48Z</time>
      </trkpt>
      <trkpt lat="49.82104" lon="2.31458">
        <ele>104.2</ele>
        <time>2023-08-10T07:35:50Z</time>
      </trkpt>
      <trkpt lat="49.82103" lon="2.31458">
        <ele>104.1</ele>
        <time>2023-08-10T07:35:51Z</time>
      </trkpt>
      <trkpt lat="49.82102" lon="2.31457">
        <ele>104.1</ele>
        <time>2023-08-10T07:35:52Z</time>
      </trkpt>
      <trkpt lat="49.82101" lon="2.31457">
        <ele>104.1</ele>
        <time>2023-08-10T07:35:53Z</time>
      </trkpt>
      <trkpt lat="49.821" lon="2.31456">
        <ele>104.1</ele>
        <time>2023-08-10T07:35:54Z</time>
      </trkpt>
      <trkpt lat="49.82098" lon="2.31456">
        <ele>104</ele>
        <time>2023-08-10T07:35:55Z</time>
      </trkpt>
      <trkpt lat="49.82097" lon="2.31455">
        <ele>104</ele>
        <time>2023-08-10T07:35:56Z</time>
      </trkpt>
      <trkpt lat="49.82096" lon="2.31455">
        <ele>104</ele>
        <time>2023-08-10T07:35:57Z</time>
      </trkpt>
      <trkpt lat="49.82094" lon="2.31454">
        <ele>103.9</ele>
        <time>2023-08-10T07:35:59Z</time>
      </trkpt>
      <trkpt lat="49.82093" lon="2.31453">
        <ele>103.9</ele>
        <time>2023-08-10T07:36:00Z</time>
      </trkpt>
      <trkpt lat="49.82092" lon="2.31453">
        <ele>103.9</ele>
        <time>2023-08-10T07:36:01Z</time>
      </trkpt>
      <trkpt lat="49.82091" lon="2.31452">
        <ele>103.8</ele>
        <time>2023-08-10T07:36:02Z</time>
      </trkpt>
      <trkpt lat="49.82088" lon="2.31451">
        <ele>103.8</ele>
        <time>2023-08-10T07:36:03Z</time>
      </trkpt>
      <trkpt lat="49.82087" lon="2.31451">
        <ele>103.7</ele>
        <time>2023-08-10T07:36:05Z</time>
      </trkpt>
      <trkpt lat="49.82086" lon="2.3145">
        <ele>103.7</ele>
        <time>2023-08-10T07:36:06Z</time>
      </trkpt>
      <trkpt lat="49.82085" lon="2.3145">
        <ele>103.7</ele>
        <time>2023-08-10T07:36:07Z</time>
      </trkpt>
      <trkpt lat="49.82084" lon="2.3145">
        <ele>103.6</ele>
        <time>2023-08-10T07:36:08Z</time>
      </trkpt>
      <trkpt lat="49.82082" lon="2.31448">
        <ele>103.6</ele>
        <time>2023-08-10T07:36:09Z</time>
      </trkpt>
      <trkpt lat="49.8208" lon="2.31447">
        <ele>103.5</ele>
        <time>2023-08-10T07:36:11Z</time>
      </trkpt>
      <trkpt lat="49.82077" lon="2.31446">
        <ele>103.4</ele>
        <time>2023-08-10T07:36:12Z</time>
      </trkpt>
      <trkpt lat="49.82076" lon="2.31445">
        <ele>103.3</ele>
        <time>2023-08-10T07:36:13Z</time>
      </trkpt>
      <trkpt lat="49.82075" lon="2.31444">
        <ele>103.3</ele>
        <time>2023-08-10T07:36:14Z</time>
      </trkpt>
      <trkpt lat="49.82072" lon="2.31443">
        <ele>103.2</ele>
        <time>2023-08-10T07:36:16Z</time>
      </trkpt>
      <trkpt lat="49.82071" lon="2.31442">
        <ele>103.2</ele>
        <time>2023-08-10T07:36:17Z</time>
      </trkpt>
      <trkpt lat="49.82069" lon="2.31441">
        <ele>103.1</ele>
        <time>2023-08-10T07:36:18Z</time>
      </trkpt>
      <trkpt lat="49.82068" lon="2.3144">
        <ele>103.1</ele>
        <time>2023-08-10T07:36:19Z</time>
      </trkpt>
      <trkpt lat="49.82067" lon="2.3144">
        <ele>103.1</ele>
        <time>2023-08-10T07:36:20Z</time>
      </trkpt>
      <trkpt lat="49.82066" lon="2.31439">
        <ele>103</ele>
        <time>2023-08-10T07:36:22Z</time>
      </trkpt>
      <trkpt lat="49.82064" lon="2.31438">
        <ele>103</ele>
        <time>2023-08-10T07:36:23Z</time>
      </trkpt>
      <trkpt lat="49.82063" lon="2.31437">
        <ele>103</ele>
        <time>2023-08-10T07:36:24Z</time>
      </trkpt>
      <trkpt lat="49.82062" lon="2.31437">
        <ele>102.9</ele>
        <time>2023-08-10T07:36:25Z</time>
      </trkpt>
      <trkpt lat="49.82061" lon="2.31436">
        <ele>102.9</ele>
        <time>2023-08-10T07:36:26Z</time>
      </trkpt>
      <trkpt lat="49.8206" lon="2.31436">
        <ele>102.9</ele>
        <time>2023-08-10T07:36:27Z</time>
      </trkpt>
      <trkpt lat="49.82059" lon="2.31436">
        <ele>102.9</ele>
        <time>2023-08-10T07:36:29Z</time>
      </trkpt>
      <trkpt lat="49.82057" lon="2.31435">
        <ele>102.8</ele>
        <time>2023-08-10T07:36:30Z</time>
      </trkpt>
      <trkpt lat="49.82055" lon="2.31434">
        <ele>102.8</ele>
        <time>2023-08-10T07:36:31Z</time>
      </trkpt>
      <trkpt lat="49.82054" lon="2.31433">
        <ele>102.8</ele>
        <time>2023-08-10T07:36:32Z</time>
      </trkpt>
      <trkpt lat="49.82053" lon="2.31433">
        <ele>102.7</ele>
        <time>2023-08-10T07:36:33Z</time>
      </trkpt>
      <trkpt lat="49.82052" lon="2.31433">
        <ele>102.7</ele>
        <time>2023-08-10T07:36:34Z</time>
      </trkpt>
      <trkpt lat="49.82051" lon="2.31432">
        <ele>102.7</ele>
        <time>2023-08-10T07:36:35Z</time>
      </trkpt>
      <trkpt lat="49.8205" lon="2.31432">
        <ele>102.7</ele>
        <time>2023-08-10T07:36:37Z</time>
      </trkpt>
      <trkpt lat="49.82048" lon="2.31433">
        <ele>102.6</ele>
        <time>2023-08-10T07:36:38Z</time>
      </trkpt>
      <trkpt lat="49.82047" lon="2.31433">
        <ele>102.6</ele>
        <time>2023-08-10T07:36:39Z</time>
      </trkpt>
      <trkpt lat="49.82046" lon="2.31433">
        <ele>102.6</ele>
        <time>2023-08-10T07:36:40Z</time>
      </trkpt>
      <trkpt lat="49.82045" lon="2.31433">
        <ele>102.6</ele>
        <time>2023-08-10T07:36:41Z</time>
      </trkpt>
      <trkpt lat="49.82044" lon="2.31433">
        <ele>102.6</ele>
        <time>2023-08-10T07:36:42Z</time>
      </trkpt>
      <trkpt lat="49.82043" lon="2.31433">
        <ele>102.6</ele>
        <time>2023-08-10T07:36:43Z</time>
      </trkpt>
      <trkpt lat="49.82042" lon="2.31432">
        <ele>102.5</ele>
        <time>2023-08-10T07:36:44Z</time>
      </trkpt>
      <trkpt lat="49.8204" lon="2.31431">
        <ele>102.5</ele>
        <time>2023-08-10T07:36:46Z</time>
      </trkpt>
      <trkpt lat="49.82039" lon="2.31431">
        <ele>102.5</ele>
        <time>2023-08-10T07:36:47Z</time>
      </trkpt>
      <trkpt lat="49.82037" lon="2.3143">
        <ele>102.4</ele>
        <time>2023-08-10T07:36:49Z</time>
      </trkpt>
      <trkpt lat="49.82036" lon="2.3143">
        <ele>102.4</ele>
        <time>2023-08-10T07:36:50Z</time>
      </trkpt>
      <trkpt lat="49.82035" lon="2.3143">
        <ele>102.4</ele>
        <time>2023-08-10T07:36:51Z</time>
      </trkpt>
      <trkpt lat="49.82034" lon="2.3143">
        <ele>102.4</ele>
        <time>2023-08-10T07:36:52Z</time>
      </trkpt>
      <trkpt lat="49.82033" lon="2.3143">
        <ele>102.4</ele>
        <time>2023-08-10T07:36:53Z</time>
      </trkpt>
      <trkpt lat="49.82032" lon="2.31429">
        <ele>102.4</ele>
        <time>2023-08-10T07:36:54Z</time>
      </trkpt>
      <trkpt lat="49.8203" lon="2.31429">
        <ele>102.4</ele>
        <time>2023-08-10T07:36:55Z</time>
      </trkpt>
      <trkpt lat="49.82029" lon="2.31429">
        <ele>102.4</ele>
        <time>2023-08-10T07:36:56Z</time>
      </trkpt>
      <trkpt lat="49.82028" lon="2.31429">
        <ele>102.4</ele>
        <time>2023-08-10T07:36:57Z</time>
      </trkpt>
      <trkpt lat="49.82027" lon="2.31429">
        <ele>102.3</ele>
        <time>2023-08-10T07:36:58Z</time>
      </trkpt>
      <trkpt lat="49.82025" lon="2.31429">
        <ele>102.3</ele>
        <time>2023-08-10T07:36:59Z</time>
      </trkpt>
      <trkpt lat="49.82024" lon="2.31428">
        <ele>102.3</ele>
        <time>2023-08-10T07:37:01Z</time>
      </trkpt>
      <trkpt lat="49.82023" lon="2.31428">
        <ele>102.3</ele>
        <time>2023-08-10T07:37:02Z</time>
      </trkpt>
      <trkpt lat="49.82022" lon="2.31427">
        <ele>102.3</ele>
        <time>2023-08-10T07:37:03Z</time>
      </trkpt>
      <trkpt lat="49.82021" lon="2.31427">
        <ele>102.3</ele>
        <time>2023-08-10T07:37:04Z</time>
      </trkpt>
      <trkpt lat="49.82019" lon="2.31426">
        <ele>102.3</ele>
        <time>2023-08-10T07:37:05Z</time>
      </trkpt>
      <trkpt lat="49.82018" lon="2.31426">
        <ele>102.3</ele>
        <time>2023-08-10T07:37:07Z</time>
      </trkpt>
      <trkpt lat="49.82017" lon="2.31426">
        <ele>102.3</ele>
        <time>2023-08-10T07:37:08Z</time>
      </trkpt>
      <trkpt lat="49.82015" lon="2.31425">
        <ele>102.3</ele>
        <time>2023-08-10T07:37:09Z</time>
      </trkpt>
      <trkpt lat="49.82014" lon="2.31425">
        <ele>102.3</ele>
        <time>2023-08-10T07:37:10Z</time>
      </trkpt>
      <trkpt lat="49.82013" lon="2.31425">
        <ele>102.3</ele>
        <time>2023-08-10T07:37:11Z</time>
      </trkpt>
      <trkpt lat="49.82012" lon="2.31424">
        <ele>102.3</ele>
        <time>2023-08-10T07:37:12Z</time>
      </trkpt>
      <trkpt lat="49.82011" lon="2.31423">
        <ele>102.3</ele>
        <time>2023-08-10T07:37:13Z</time>
      </trkpt>
      <trkpt lat="49.8201" lon="2.31423">
        <ele>102.3</ele>
        <time>2023-08-10T07:37:14Z</time>
      </trkpt>
      <trkpt lat="49.82008" lon="2.31422">
        <ele>102.3</ele>
        <time>2023-08-10T07:37:16Z</time>
      </trkpt>
      <trkpt lat="49.82008" lon="2.31421">
        <ele>102.3</ele>
        <time>2023-08-10T07:37:17Z</time>
      </trkpt>
      <trkpt lat="49.82007" lon="2.31421">
        <ele>102.3</ele>
        <time>2023-08-10T07:37:18Z</time>
      </trkpt>
      <trkpt lat="49.82006" lon="2.3142">
        <ele>102.3</ele>
        <time>2023-08-10T07:37:19Z</time>
      </trkpt>
      <trkpt lat="49.82004" lon="2.3142">
        <ele>102.3</ele>
        <time>2023-08-10T07:37:20Z</time>
      </trkpt>
      <trkpt lat="49.82003" lon="2.3142">
        <ele>102.3</ele>
        <time>2023-08-10T07:37:21Z</time>
      </trkpt>
      <trkpt lat="49.82002" lon="2.31419">
        <ele>102.3</ele>
        <time>2023-08-10T07:37:22Z</time>
      </trkpt>
      <trkpt lat="49.82001" lon="2.31418">
        <ele>102.3</ele>
        <time>2023-08-10T07:37:23Z</time>
      </trkpt>
      <trkpt lat="49.82" lon="2.31418">
        <ele>102.3</ele>
        <time>2023-08-10T07:37:25Z</time>
      </trkpt>
      <trkpt lat="49.81999" lon="2.31417">
        <ele>102.3</ele>
        <time>2023-08-10T07:37:26Z</time>
      </trkpt>
      <trkpt lat="49.81998" lon="2.31416">
        <ele>102.3</ele>
        <time>2023-08-10T07:37:27Z</time>
      </trkpt>
      <trkpt lat="49.81997" lon="2.31416">
        <ele>102.3</ele>
        <time>2023-08-10T07:37:28Z</time>
      </trkpt>
      <trkpt lat="49.81995" lon="2.31416">
        <ele>102.4</ele>
        <time>2023-08-10T07:37:29Z</time>
      </trkpt>
      <trkpt lat="49.81994" lon="2.31416">
        <ele>102.4</ele>
        <time>2023-08-10T07:37:30Z</time>
      </trkpt>
      <trkpt lat="49.81993" lon="2.31415">
        <ele>102.4</ele>
        <time>2023-08-10T07:37:31Z</time>
      </trkpt>
      <trkpt lat="49.81991" lon="2.31414">
        <ele>102.4</ele>
        <time>2023-08-10T07:37:33Z</time>
      </trkpt>
      <trkpt lat="49.81991" lon="2.31413">
        <ele>102.4</ele>
        <time>2023-08-10T07:37:34Z</time>
      </trkpt>
      <trkpt lat="49.8199" lon="2.31413">
        <ele>102.4</ele>
        <time>2023-08-10T07:37:35Z</time>
      </trkpt>
      <trkpt lat="49.81988" lon="2.31411">
        <ele>102.4</ele>
        <time>2023-08-10T07:37:36Z</time>
      </trkpt>
      <trkpt lat="49.81988" lon="2.3141">
        <ele>102.4</ele>
        <time>2023-08-10T07:37:37Z</time>
      </trkpt>
      <trkpt lat="49.81987" lon="2.31409">
        <ele>102.4</ele>
        <time>2023-08-10T07:37:38Z</time>
      </trkpt>
      <trkpt lat="49.81985" lon="2.31407">
        <ele>102.4</ele>
        <time>2023-08-10T07:37:39Z</time>
      </trkpt>
      <trkpt lat="49.81985" lon="2.31406">
        <ele>102.4</ele>
        <time>2023-08-10T07:37:40Z</time>
      </trkpt>
      <trkpt lat="49.81984" lon="2.31405">
        <ele>102.4</ele>
        <time>2023-08-10T07:37:42Z</time>
      </trkpt>
      <trkpt lat="49.81983" lon="2.31405">
        <ele>102.4</ele>
        <time>2023-08-10T07:37:43Z</time>
      </trkpt>
      <trkpt lat="49.81982" lon="2.31404">
        <ele>102.4</ele>
        <time>2023-08-10T07:37:44Z</time>
      </trkpt>
      <trkpt lat="49.81981" lon="2.31403">
        <ele>102.4</ele>
        <time>2023-08-10T07:37:45Z</time>
      </trkpt>
      <trkpt lat="49.81979" lon="2.31402">
        <ele>102.4</ele>
        <time>2023-08-10T07:37:46Z</time>
      </trkpt>
      <trkpt lat="49.81978" lon="2.31402">
        <ele>102.4</ele>
        <time>2023-08-10T07:37:47Z</time>
      </trkpt>
      <trkpt lat="49.81978" lon="2.31402">
        <ele>102.4</ele>
        <time>2023-08-10T07:37:48Z</time>
      </trkpt>
      <trkpt lat="49.81976" lon="2.31401">
        <ele>102.4</ele>
        <time>2023-08-10T07:37:50Z</time>
      </trkpt>
      <trkpt lat="49.81975" lon="2.31401">
        <ele>102.4</ele>
        <time>2023-08-10T07:37:51Z</time>
      </trkpt>
      <trkpt lat="49.81973" lon="2.31401">
        <ele>102.3</ele>
        <time>2023-08-10T07:37:52Z</time>
      </trkpt>
      <trkpt lat="49.81972" lon="2.31401">
        <ele>102.3</ele>
        <time>2023-08-10T07:37:53Z</time>
      </trkpt>
      <trkpt lat="49.81971" lon="2.31401">
        <ele>102.3</ele>
        <time>2023-08-10T07:37:55Z</time>
      </trkpt>
      <trkpt lat="49.8197" lon="2.314">
        <ele>102.3</ele>
        <time>2023-08-10T07:37:56Z</time>
      </trkpt>
      <trkpt lat="49.81968" lon="2.314">
        <ele>102.3</ele>
        <time>2023-08-10T07:37:57Z</time>
      </trkpt>
      <trkpt lat="49.81967" lon="2.314">
        <ele>102.2</ele>
        <time>2023-08-10T07:37:58Z</time>
      </trkpt>
      <trkpt lat="49.81966" lon="2.314">
        <ele>102.2</ele>
        <time>2023-08-10T07:37:59Z</time>
      </trkpt>
      <trkpt lat="49.81965" lon="2.314">
        <ele>102.2</ele>
        <time>2023-08-10T07:38:00Z</time>
      </trkpt>
      <trkpt lat="49.81964" lon="2.314">
        <ele>102.2</ele>
        <time>2023-08-10T07:38:01Z</time>
      </trkpt>
      <trkpt lat="49.81963" lon="2.314">
        <ele>102.1</ele>
        <time>2023-08-10T07:38:02Z</time>
      </trkpt>
      <trkpt lat="49.81962" lon="2.314">
        <ele>102.2</ele>
        <time>2023-08-10T07:38:04Z</time>
      </trkpt>
      <trkpt lat="49.8196" lon="2.314">
        <ele>102.2</ele>
        <time>2023-08-10T07:38:05Z</time>
      </trkpt>
      <trkpt lat="49.81959" lon="2.31399">
        <ele>102.2</ele>
        <time>2023-08-10T07:38:06Z</time>
      </trkpt>
      <trkpt lat="49.81958" lon="2.31398">
        <ele>102.2</ele>
        <time>2023-08-10T07:38:07Z</time>
      </trkpt>
      <trkpt lat="49.81958" lon="2.31397">
        <ele>102.3</ele>
        <time>2023-08-10T07:38:08Z</time>
      </trkpt>
      <trkpt lat="49.81957" lon="2.31397">
        <ele>102.3</ele>
        <time>2023-08-10T07:38:09Z</time>
      </trkpt>
      <trkpt lat="49.81956" lon="2.31397">
        <ele>102.4</ele>
        <time>2023-08-10T07:38:11Z</time>
      </trkpt>
      <trkpt lat="49.81955" lon="2.31397">
        <ele>102.4</ele>
        <time>2023-08-10T07:38:12Z</time>
      </trkpt>
      <trkpt lat="49.81954" lon="2.31398">
        <ele>102.5</ele>
        <time>2023-08-10T07:38:13Z</time>
      </trkpt>
      <trkpt lat="49.81953" lon="2.31398">
        <ele>102.6</ele>
        <time>2023-08-10T07:38:14Z</time>
      </trkpt>
      <trkpt lat="49.81952" lon="2.31399">
        <ele>102.6</ele>
        <time>2023-08-10T07:38:15Z</time>
      </trkpt>
      <trkpt lat="49.81951" lon="2.314">
        <ele>102.7</ele>
        <time>2023-08-10T07:38:17Z</time>
      </trkpt>
      <trkpt lat="49.8195" lon="2.31401">
        <ele>102.7</ele>
        <time>2023-08-10T07:38:18Z</time>
      </trkpt>
      <trkpt lat="49.81948" lon="2.31402">
        <ele>102.8</ele>
        <time>2023-08-10T07:38:19Z</time>
      </trkpt>
      <trkpt lat="49.81947" lon="2.31402">
        <ele>102.9</ele>
        <time>2023-08-10T07:38:20Z</time>
      </trkpt>
      <trkpt lat="49.81946" lon="2.31403">
        <ele>102.9</ele>
        <time>2023-08-10T07:38:21Z</time>
      </trkpt>
      <trkpt lat="49.81945" lon="2.31404">
        <ele>103</ele>
        <time>2023-08-10T07:38:22Z</time>
      </trkpt>
      <trkpt lat="49.81944" lon="2.31404">
        <ele>103</ele>
        <time>2023-08-10T07:38:23Z</time>
      </trkpt>
      <trkpt lat="49.81943" lon="2.31405">
        <ele>103.1</ele>
        <time>2023-08-10T07:38:25Z</time>
      </trkpt>
      <trkpt lat="49.81942" lon="2.31406">
        <ele>103.2</ele>
        <time>2023-08-10T07:38:26Z</time>
      </trkpt>
      <trkpt lat="49.81941" lon="2.31406">
        <ele>103.2</ele>
        <time>2023-08-10T07:38:27Z</time>
      </trkpt>
      <trkpt lat="49.8194" lon="2.31407">
        <ele>103.3</ele>
        <time>2023-08-10T07:38:28Z</time>
      </trkpt>
      <trkpt lat="49.81938" lon="2.31408">
        <ele>103.3</ele>
        <time>2023-08-10T07:38:29Z</time>
      </trkpt>
      <trkpt lat="49.81937" lon="2.31408">
        <ele>103.4</ele>
        <time>2023-08-10T07:38:30Z</time>
      </trkpt>
      <trkpt lat="49.81936" lon="2.31409">
        <ele>103.4</ele>
        <time>2023-08-10T07:38:32Z</time>
      </trkpt>
      <trkpt lat="49.81935" lon="2.31409">
        <ele>103.5</ele>
        <time>2023-08-10T07:38:33Z</time>
      </trkpt>
      <trkpt lat="49.81934" lon="2.3141">
        <ele>103.5</ele>
        <time>2023-08-10T07:38:34Z</time>
      </trkpt>
      <trkpt lat="49.81933" lon="2.3141">
        <ele>103.6</ele>
        <time>2023-08-10T07:38:35Z</time>
      </trkpt>
      <trkpt lat="49.81932" lon="2.3141">
        <ele>103.7</ele>
        <time>2023-08-10T07:38:36Z</time>
      </trkpt>
      <trkpt lat="49.81931" lon="2.31411">
        <ele>103.7</ele>
        <time>2023-08-10T07:38:37Z</time>
      </trkpt>
      <trkpt lat="49.81929" lon="2.31411">
        <ele>103.8</ele>
        <time>2023-08-10T07:38:38Z</time>
      </trkpt>
      <trkpt lat="49.81928" lon="2.31411">
        <ele>103.8</ele>
        <time>2023-08-10T07:38:40Z</time>
      </trkpt>
      <trkpt lat="49.81927" lon="2.31411">
        <ele>103.9</ele>
        <time>2023-08-10T07:38:41Z</time>
      </trkpt>
      <trkpt lat="49.81926" lon="2.31411">
        <ele>103.9</ele>
        <time>2023-08-10T07:38:42Z</time>
      </trkpt>
      <trkpt lat="49.81924" lon="2.3141">
        <ele>104</ele>
        <time>2023-08-10T07:38:43Z</time>
      </trkpt>
      <trkpt lat="49.81923" lon="2.3141">
        <ele>104.1</ele>
        <time>2023-08-10T07:38:44Z</time>
      </trkpt>
      <trkpt lat="49.81922" lon="2.3141">
        <ele>104.1</ele>
        <time>2023-08-10T07:38:45Z</time>
      </trkpt>
      <trkpt lat="49.8192" lon="2.31409">
        <ele>104.2</ele>
        <time>2023-08-10T07:38:46Z</time>
      </trkpt>
      <trkpt lat="49.81919" lon="2.31409">
        <ele>104.3</ele>
        <time>2023-08-10T07:38:48Z</time>
      </trkpt>
      <trkpt lat="49.81918" lon="2.31409">
        <ele>104.3</ele>
        <time>2023-08-10T07:38:49Z</time>
      </trkpt>
      <trkpt lat="49.81916" lon="2.31409">
        <ele>104.4</ele>
        <time>2023-08-10T07:38:50Z</time>
      </trkpt>
      <trkpt lat="49.81916" lon="2.31408">
        <ele>104.7</ele>
        <time>2023-08-10T07:38:51Z</time>
      </trkpt>
      <trkpt lat="49.81915" lon="2.31408">
        <ele>104.8</ele>
        <time>2023-08-10T07:38:52Z</time>
      </trkpt>
      <trkpt lat="49.81914" lon="2.31408">
        <ele>104.8</ele>
        <time>2023-08-10T07:38:54Z</time>
      </trkpt>
      <trkpt lat="49.81912" lon="2.31408">
        <ele>104.9</ele>
        <time>2023-08-10T07:38:55Z</time>
      </trkpt>
      <trkpt lat="49.81911" lon="2.31408">
        <ele>104.9</ele>
        <time>2023-08-10T07:38:56Z</time>
      </trkpt>
      <trkpt lat="49.81911" lon="2.31409">
        <ele>105</ele>
        <time>2023-08-10T07:38:57Z</time>
      </trkpt>
      <trkpt lat="49.8191" lon="2.31409">
        <ele>105</ele>
        <time>2023-08-10T07:38:59Z</time>
      </trkpt>
      <trkpt lat="49.81909" lon="2.3141">
        <ele>105.1</ele>
        <time>2023-08-10T07:39:00Z</time>
      </trkpt>
      <trkpt lat="49.81908" lon="2.31411">
        <ele>105.1</ele>
        <time>2023-08-10T07:39:01Z</time>
      </trkpt>
      <trkpt lat="49.81908" lon="2.31413">
        <ele>105.2</ele>
        <time>2023-08-10T07:39:02Z</time>
      </trkpt>
      <trkpt lat="49.81907" lon="2.31414">
        <ele>105.3</ele>
        <time>2023-08-10T07:39:03Z</time>
      </trkpt>
      <trkpt lat="49.81907" lon="2.31415">
        <ele>105.3</ele>
        <time>2023-08-10T07:39:04Z</time>
      </trkpt>
      <trkpt lat="49.81907" lon="2.31416">
        <ele>105.4</ele>
        <time>2023-08-10T07:39:05Z</time>
      </trkpt>
      <trkpt lat="49.81907" lon="2.31419">
        <ele>105.5</ele>
        <time>2023-08-10T07:39:06Z</time>
      </trkpt>
      <trkpt lat="49.81907" lon="2.31421">
        <ele>105.5</ele>
        <time>2023-08-10T07:39:08Z</time>
      </trkpt>
      <trkpt lat="49.81907" lon="2.31422">
        <ele>105.6</ele>
        <time>2023-08-10T07:39:09Z</time>
      </trkpt>
      <trkpt lat="49.81907" lon="2.31425">
        <ele>105.7</ele>
        <time>2023-08-10T07:39:10Z</time>
      </trkpt>
      <trkpt lat="49.81907" lon="2.31426">
        <ele>105.7</ele>
        <time>2023-08-10T07:39:11Z</time>
      </trkpt>
      <trkpt lat="49.81907" lon="2.31428">
        <ele>105.8</ele>
        <time>2023-08-10T07:39:12Z</time>
      </trkpt>
      <trkpt lat="49.81907" lon="2.31429">
        <ele>105.8</ele>
        <time>2023-08-10T07:39:13Z</time>
      </trkpt>
      <trkpt lat="49.81907" lon="2.31432">
        <ele>105.9</ele>
        <time>2023-08-10T07:39:14Z</time>
      </trkpt>
      <trkpt lat="49.81907" lon="2.31433">
        <ele>106</ele>
        <time>2023-08-10T07:39:16Z</time>
      </trkpt>
      <trkpt lat="49.81907" lon="2.31436">
        <ele>106.1</ele>
        <time>2023-08-10T07:39:17Z</time>
      </trkpt>
      <trkpt lat="49.81907" lon="2.31437">
        <ele>106.1</ele>
        <time>2023-08-10T07:39:18Z</time>
      </trkpt>
      <trkpt lat="49.81907" lon="2.31438">
        <ele>106.2</ele>
        <time>2023-08-10T07:39:19Z</time>
      </trkpt>
      <trkpt lat="49.81907" lon="2.3144">
        <ele>106.2</ele>
        <time>2023-08-10T07:39:21Z</time>
      </trkpt>
      <trkpt lat="49.81907" lon="2.31442">
        <ele>106.3</ele>
        <time>2023-08-10T07:39:22Z</time>
      </trkpt>
      <trkpt lat="49.81907" lon="2.31443">
        <ele>106.3</ele>
        <time>2023-08-10T07:39:23Z</time>
      </trkpt>
      <trkpt lat="49.81907" lon="2.31444">
        <ele>106.4</ele>
        <time>2023-08-10T07:39:24Z</time>
      </trkpt>
      <trkpt lat="49.81907" lon="2.31446">
        <ele>106.4</ele>
        <time>2023-08-10T07:39:25Z</time>
      </trkpt>
      <trkpt lat="49.81907" lon="2.31447">
        <ele>106.5</ele>
        <time>2023-08-10T07:39:26Z</time>
      </trkpt>
      <trkpt lat="49.81906" lon="2.31449">
        <ele>106.5</ele>
        <time>2023-08-10T07:39:28Z</time>
      </trkpt>
      <trkpt lat="49.81906" lon="2.3145">
        <ele>106.6</ele>
        <time>2023-08-10T07:39:29Z</time>
      </trkpt>
      <trkpt lat="49.81906" lon="2.31452">
        <ele>106.7</ele>
        <time>2023-08-10T07:39:30Z</time>
      </trkpt>
      <trkpt lat="49.81906" lon="2.31453">
        <ele>106.7</ele>
        <time>2023-08-10T07:39:31Z</time>
      </trkpt>
      <trkpt lat="49.81907" lon="2.31455">
        <ele>106.8</ele>
        <time>2023-08-10T07:39:32Z</time>
      </trkpt>
      <trkpt lat="49.81907" lon="2.31457">
        <ele>106.8</ele>
        <time>2023-08-10T07:39:34Z</time>
      </trkpt>
      <trkpt lat="49.81907" lon="2.31459">
        <ele>106.9</ele>
        <time>2023-08-10T07:39:35Z</time>
      </trkpt>
      <trkpt lat="49.81907" lon="2.3146">
        <ele>106.9</ele>
        <time>2023-08-10T07:39:36Z</time>
      </trkpt>
      <trkpt lat="49.81908" lon="2.31462">
        <ele>107</ele>
        <time>2023-08-10T07:39:37Z</time>
      </trkpt>
      <trkpt lat="49.81908" lon="2.31463">
        <ele>107</ele>
        <time>2023-08-10T07:39:38Z</time>
      </trkpt>
      <trkpt lat="49.81908" lon="2.31465">
        <ele>107.1</ele>
        <time>2023-08-10T07:39:39Z</time>
      </trkpt>
      <trkpt lat="49.81909" lon="2.31466">
        <ele>107.1</ele>
        <time>2023-08-10T07:39:41Z</time>
      </trkpt>
      <trkpt lat="49.81909" lon="2.31468">
        <ele>107.2</ele>
        <time>2023-08-10T07:39:42Z</time>
      </trkpt>
      <trkpt lat="49.81909" lon="2.3147">
        <ele>107.2</ele>
        <time>2023-08-10T07:39:43Z</time>
      </trkpt>
      <trkpt lat="49.81909" lon="2.31471">
        <ele>107.3</ele>
        <time>2023-08-10T07:39:44Z</time>
      </trkpt>
      <trkpt lat="49.8191" lon="2.31473">
        <ele>107.3</ele>
        <time>2023-08-10T07:39:45Z</time>
      </trkpt>
      <trkpt lat="49.8191" lon="2.31474">
        <ele>107.4</ele>
        <time>2023-08-10T07:39:46Z</time>
      </trkpt>
      <trkpt lat="49.81911" lon="2.31476">
        <ele>107.4</ele>
        <time>2023-08-10T07:39:48Z</time>
      </trkpt>
      <trkpt lat="49.81911" lon="2.31477">
        <ele>107.5</ele>
        <time>2023-08-10T07:39:49Z</time>
      </trkpt>
      <trkpt lat="49.81912" lon="2.31477">
        <ele>107.5</ele>
        <time>2023-08-10T07:39:50Z</time>
      </trkpt>
      <trkpt lat="49.81913" lon="2.31477">
        <ele>107.5</ele>
        <time>2023-08-10T07:39:52Z</time>
      </trkpt>
      <trkpt lat="49.81914" lon="2.31477">
        <ele>107.6</ele>
        <time>2023-08-10T07:39:53Z</time>
      </trkpt>
      <trkpt lat="49.81915" lon="2.31478">
        <ele>107.6</ele>
        <time>2023-08-10T07:39:54Z</time>
      </trkpt>
      <trkpt lat="49.81916" lon="2.31479">
        <ele>107.7</ele>
        <time>2023-08-10T07:39:56Z</time>
      </trkpt>
      <trkpt lat="49.81916" lon="2.3148">
        <ele>107.7</ele>
        <time>2023-08-10T07:39:57Z</time>
      </trkpt>
      <trkpt lat="49.81917" lon="2.31481">
        <ele>107.7</ele>
        <time>2023-08-10T07:39:59Z</time>
      </trkpt>
      <trkpt lat="49.81916" lon="2.31481">
        <ele>107.7</ele>
        <time>2023-08-10T07:40:00Z</time>
      </trkpt>
      <trkpt lat="49.81916" lon="2.31481">
        <ele>107.7</ele>
        <time>2023-08-10T07:40:01Z</time>
      </trkpt>
      <trkpt lat="49.81916" lon="2.31481">
        <ele>107.7</ele>
        <time>2023-08-10T07:40:03Z</time>
      </trkpt>
      <trkpt lat="49.81916" lon="2.31481">
        <ele>107.8</ele>
        <time>2023-08-10T07:40:04Z</time>
      </trkpt>
      <trkpt lat="49.81915" lon="2.31482">
        <ele>107.8</ele>
        <time>2023-08-10T07:40:05Z</time>
      </trkpt>
      <trkpt lat="49.81915" lon="2.31484">
        <ele>107.8</ele>
        <time>2023-08-10T07:40:06Z</time>
      </trkpt>
      <trkpt lat="49.81915" lon="2.31485">
        <ele>107.9</ele>
        <time>2023-08-10T07:40:07Z</time>
      </trkpt>
      <trkpt lat="49.81914" lon="2.31487">
        <ele>107.9</ele>
        <time>2023-08-10T07:40:08Z</time>
      </trkpt>
      <trkpt lat="49.81913" lon="2.31489">
        <ele>108</ele>
        <time>2023-08-10T07:40:09Z</time>
      </trkpt>
      <trkpt lat="49.81912" lon="2.31491">
        <ele>108</ele>
        <time>2023-08-10T07:40:11Z</time>
      </trkpt>
      <trkpt lat="49.81911" lon="2.31492">
        <ele>108.1</ele>
        <time>2023-08-10T07:40:12Z</time>
      </trkpt>
      <trkpt lat="49.8191" lon="2.31494">
        <ele>108.1</ele>
        <time>2023-08-10T07:40:13Z</time>
      </trkpt>
      <trkpt lat="49.81908" lon="2.31496">
        <ele>108.2</ele>
        <time>2023-08-10T07:40:14Z</time>
      </trkpt>
      <trkpt lat="49.81907" lon="2.31497">
        <ele>108.3</ele>
        <time>2023-08-10T07:40:15Z</time>
      </trkpt>
      <trkpt lat="49.81906" lon="2.31499">
        <ele>108.3</ele>
        <time>2023-08-10T07:40:16Z</time>
      </trkpt>
      <trkpt lat="49.81905" lon="2.315">
        <ele>108.3</ele>
        <time>2023-08-10T07:40:17Z</time>
      </trkpt>
      <trkpt lat="49.81903" lon="2.31503">
        <ele>108.4</ele>
        <time>2023-08-10T07:40:19Z</time>
      </trkpt>
      <trkpt lat="49.81903" lon="2.31505">
        <ele>108.4</ele>
        <time>2023-08-10T07:40:20Z</time>
      </trkpt>
      <trkpt lat="49.81902" lon="2.31507">
        <ele>108.4</ele>
        <time>2023-08-10T07:40:21Z</time>
      </trkpt>
      <trkpt lat="49.81901" lon="2.3151">
        <ele>108.5</ele>
        <time>2023-08-10T07:40:22Z</time>
      </trkpt>
      <trkpt lat="49.819" lon="2.31512">
        <ele>108.5</ele>
        <time>2023-08-10T07:40:23Z</time>
      </trkpt>
      <trkpt lat="49.81899" lon="2.31514">
        <ele>108.5</ele>
        <time>2023-08-10T07:40:25Z</time>
      </trkpt>
      <trkpt lat="49.81898" lon="2.31516">
        <ele>108.5</ele>
        <time>2023-08-10T07:40:26Z</time>
      </trkpt>
      <trkpt lat="49.81898" lon="2.31517">
        <ele>108.6</ele>
        <time>2023-08-10T07:40:27Z</time>
      </trkpt>
      <trkpt lat="49.81897" lon="2.3152">
        <ele>108.6</ele>
        <time>2023-08-10T07:40:28Z</time>
      </trkpt>
      <trkpt lat="49.81896" lon="2.31522">
        <ele>108.6</ele>
        <time>2023-08-10T07:40:29Z</time>
      </trkpt>
      <trkpt lat="49.81895" lon="2.31524">
        <ele>108.7</ele>
        <time>2023-08-10T07:40:31Z</time>
      </trkpt>
      <trkpt lat="49.81895" lon="2.31526">
        <ele>108.7</ele>
        <time>2023-08-10T07:40:32Z</time>
      </trkpt>
      <trkpt lat="49.81895" lon="2.31528">
        <ele>108.7</ele>
        <time>2023-08-10T07:40:33Z</time>
      </trkpt>
      <trkpt lat="49.81894" lon="2.31531">
        <ele>108.7</ele>
        <time>2023-08-10T07:40:34Z</time>
      </trkpt>
      <trkpt lat="49.81894" lon="2.31533">
        <ele>108.7</ele>
        <time>2023-08-10T07:40:35Z</time>
      </trkpt>
      <trkpt lat="49.81894" lon="2.31534">
        <ele>108.7</ele>
        <time>2023-08-10T07:40:36Z</time>
      </trkpt>
      <trkpt lat="49.81894" lon="2.31537">
        <ele>108.8</ele>
        <time>2023-08-10T07:40:37Z</time>
      </trkpt>
      <trkpt lat="49.81894" lon="2.31539">
        <ele>108.8</ele>
        <time>2023-08-10T07:40:39Z</time>
      </trkpt>
      <trkpt lat="49.81894" lon="2.3154">
        <ele>108.8</ele>
        <time>2023-08-10T07:40:40Z</time>
      </trkpt>
      <trkpt lat="49.81894" lon="2.31542">
        <ele>108.8</ele>
        <time>2023-08-10T07:40:41Z</time>
      </trkpt>
      <trkpt lat="49.81894" lon="2.31544">
        <ele>108.8</ele>
        <time>2023-08-10T07:40:42Z</time>
      </trkpt>
      <trkpt lat="49.81894" lon="2.31545">
        <ele>108.8</ele>
        <time>2023-08-10T07:40:43Z</time>
      </trkpt>
      <trkpt lat="49.81894" lon="2.31547">
        <ele>108.8</ele>
        <time>2023-08-10T07:40:44Z</time>
      </trkpt>
      <trkpt lat="49.81894" lon="2.31549">
        <ele>108.8</ele>
        <time>2023-08-10T07:40:45Z</time>
      </trkpt>
      <trkpt lat="49.81894" lon="2.3155">
        <ele>108.8</ele>
        <time>2023-08-10T07:40:46Z</time>
      </trkpt>
      <trkpt lat="49.81893" lon="2.31552">
        <ele>108.8</ele>
        <time>2023-08-10T07:40:47Z</time>
      </trkpt>
      <trkpt lat="49.81892" lon="2.31554">
        <ele>108.8</ele>
        <time>2023-08-10T07:40:48Z</time>
      </trkpt>
      <trkpt lat="49.81892" lon="2.31556">
        <ele>108.8</ele>
        <time>2023-08-10T07:40:50Z</time>
      </trkpt>
      <trkpt lat="49.81891" lon="2.31559">
        <ele>108.9</ele>
        <time>2023-08-10T07:40:51Z</time>
      </trkpt>
      <trkpt lat="49.81891" lon="2.31561">
        <ele>108.9</ele>
        <time>2023-08-10T07:40:52Z</time>
      </trkpt>
      <trkpt lat="49.8189" lon="2.31564">
        <ele>108.9</ele>
        <time>2023-08-10T07:40:53Z</time>
      </trkpt>
      <trkpt lat="49.8189" lon="2.31566">
        <ele>108.9</ele>
        <time>2023-08-10T07:40:55Z</time>
      </trkpt>
      <trkpt lat="49.8189" lon="2.31567">
        <ele>108.9</ele>
        <time>2023-08-10T07:40:56Z</time>
      </trkpt>
      <trkpt lat="49.8189" lon="2.31569">
        <ele>108.9</ele>
        <time>2023-08-10T07:40:57Z</time>
      </trkpt>
      <trkpt lat="49.8189" lon="2.31571">
        <ele>108.9</ele>
        <time>2023-08-10T07:40:58Z</time>
      </trkpt>
      <trkpt lat="49.81889" lon="2.31574">
        <ele>108.9</ele>
        <time>2023-08-10T07:40:59Z</time>
      </trkpt>
      <trkpt lat="49.81889" lon="2.31575">
        <ele>108.9</ele>
        <time>2023-08-10T07:41:00Z</time>
      </trkpt>
      <trkpt lat="49.81889" lon="2.31576">
        <ele>108.9</ele>
        <time>2023-08-10T07:41:01Z</time>
      </trkpt>
      <trkpt lat="49.81888" lon="2.31578">
        <ele>108.9</ele>
        <time>2023-08-10T07:41:02Z</time>
      </trkpt>
      <trkpt lat="49.81888" lon="2.31579">
        <ele>108.9</ele>
        <time>2023-08-10T07:41:03Z</time>
      </trkpt>
      <trkpt lat="49.81888" lon="2.31581">
        <ele>108.9</ele>
        <time>2023-08-10T07:41:04Z</time>
      </trkpt>
      <trkpt lat="49.81887" lon="2.31584">
        <ele>108.9</ele>
        <time>2023-08-10T07:41:06Z</time>
      </trkpt>
      <trkpt lat="49.81887" lon="2.31586">
        <ele>108.9</ele>
        <time>2023-08-10T07:41:07Z</time>
      </trkpt>
      <trkpt lat="49.81887" lon="2.31587">
        <ele>108.9</ele>
        <time>2023-08-10T07:41:08Z</time>
      </trkpt>
      <trkpt lat="49.81886" lon="2.31589">
        <ele>108.9</ele>
        <time>2023-08-10T07:41:09Z</time>
      </trkpt>
      <trkpt lat="49.81886" lon="2.31591">
        <ele>108.9</ele>
        <time>2023-08-10T07:41:10Z</time>
      </trkpt>
      <trkpt lat="49.81886" lon="2.31593">
        <ele>108.9</ele>
        <time>2023-08-10T07:41:12Z</time>
      </trkpt>
      <trkpt lat="49.81885" lon="2.31595">
        <ele>108.9</ele>
        <time>2023-08-10T07:41:13Z</time>
      </trkpt>
      <trkpt lat="49.81884" lon="2.31597">
        <ele>108.9</ele>
        <time>2023-08-10T07:41:14Z</time>
      </trkpt>
      <trkpt lat="49.81883" lon="2.31598">
        <ele>108.9</ele>
        <time>2023-08-10T07:41:15Z</time>
      </trkpt>
      <trkpt lat="49.81883" lon="2.31599">
        <ele>108.9</ele>
        <time>2023-08-10T07:41:16Z</time>
      </trkpt>
      <trkpt lat="49.81882" lon="2.31603">
        <ele>108.9</ele>
        <time>2023-08-10T07:41:17Z</time>
      </trkpt>
      <trkpt lat="49.81881" lon="2.31604">
        <ele>108.9</ele>
        <time>2023-08-10T07:41:19Z</time>
      </trkpt>
      <trkpt lat="49.81881" lon="2.31606">
        <ele>108.9</ele>
        <time>2023-08-10T07:41:20Z</time>
      </trkpt>
      <trkpt lat="49.8188" lon="2.31607">
        <ele>108.9</ele>
        <time>2023-08-10T07:41:21Z</time>
      </trkpt>
      <trkpt lat="49.81879" lon="2.31609">
        <ele>108.9</ele>
        <time>2023-08-10T07:41:22Z</time>
      </trkpt>
      <trkpt lat="49.81879" lon="2.3161">
        <ele>108.9</ele>
        <time>2023-08-10T07:41:23Z</time>
      </trkpt>
      <trkpt lat="49.81878" lon="2.31612">
        <ele>108.9</ele>
        <time>2023-08-10T07:41:25Z</time>
      </trkpt>
      <trkpt lat="49.81877" lon="2.31614">
        <ele>108.9</ele>
        <time>2023-08-10T07:41:26Z</time>
      </trkpt>
      <trkpt lat="49.81876" lon="2.31616">
        <ele>108.9</ele>
        <time>2023-08-10T07:41:27Z</time>
      </trkpt>
      <trkpt lat="49.81876" lon="2.31618">
        <ele>108.9</ele>
        <time>2023-08-10T07:41:28Z</time>
      </trkpt>
      <trkpt lat="49.81875" lon="2.3162">
        <ele>108.9</ele>
        <time>2023-08-10T07:41:29Z</time>
      </trkpt>
      <trkpt lat="49.81874" lon="2.31621">
        <ele>108.9</ele>
        <time>2023-08-10T07:41:30Z</time>
      </trkpt>
      <trkpt lat="49.81873" lon="2.31623">
        <ele>108.9</ele>
        <time>2023-08-10T07:41:31Z</time>
      </trkpt>
      <trkpt lat="49.81873" lon="2.31625">
        <ele>108.9</ele>
        <time>2023-08-10T07:41:32Z</time>
      </trkpt>
      <trkpt lat="49.81873" lon="2.31626">
        <ele>108.9</ele>
        <time>2023-08-10T07:41:33Z</time>
      </trkpt>
      <trkpt lat="49.81872" lon="2.31628">
        <ele>108.9</ele>
        <time>2023-08-10T07:41:35Z</time>
      </trkpt>
      <trkpt lat="49.81872" lon="2.3163">
        <ele>108.9</ele>
        <time>2023-08-10T07:41:36Z</time>
      </trkpt>
      <trkpt lat="49.81871" lon="2.31632">
        <ele>108.9</ele>
        <time>2023-08-10T07:41:37Z</time>
      </trkpt>
      <trkpt lat="49.81871" lon="2.31634">
        <ele>108.9</ele>
        <time>2023-08-10T07:41:38Z</time>
      </trkpt>
      <trkpt lat="49.81871" lon="2.31637">
        <ele>108.9</ele>
        <time>2023-08-10T07:41:39Z</time>
      </trkpt>
      <trkpt lat="49.81871" lon="2.31639">
        <ele>108.9</ele>
        <time>2023-08-10T07:41:40Z</time>
      </trkpt>
      <trkpt lat="49.81871" lon="2.3164">
        <ele>108.9</ele>
        <time>2023-08-10T07:41:41Z</time>
      </trkpt>
      <trkpt lat="49.8187" lon="2.31643">
        <ele>108.9</ele>
        <time>2023-08-10T07:41:43Z</time>
      </trkpt>
      <trkpt lat="49.8187" lon="2.31645">
        <ele>108.9</ele>
        <time>2023-08-10T07:41:44Z</time>
      </trkpt>
      <trkpt lat="49.81871" lon="2.31649">
        <ele>108.9</ele>
        <time>2023-08-10T07:41:45Z</time>
      </trkpt>
      <trkpt lat="49.81871" lon="2.3165">
        <ele>108.9</ele>
        <time>2023-08-10T07:41:46Z</time>
      </trkpt>
      <trkpt lat="49.81871" lon="2.31651">
        <ele>108.9</ele>
        <time>2023-08-10T07:41:47Z</time>
      </trkpt>
      <trkpt lat="49.81871" lon="2.31654">
        <ele>108.9</ele>
        <time>2023-08-10T07:41:48Z</time>
      </trkpt>
      <trkpt lat="49.81871" lon="2.31656">
        <ele>108.9</ele>
        <time>2023-08-10T07:41:50Z</time>
      </trkpt>
      <trkpt lat="49.81871" lon="2.31657">
        <ele>108.9</ele>
        <time>2023-08-10T07:41:51Z</time>
      </trkpt>
      <trkpt lat="49.81872" lon="2.31661">
        <ele>108.9</ele>
        <time>2023-08-10T07:41:52Z</time>
      </trkpt>
      <trkpt lat="49.81872" lon="2.31662">
        <ele>108.9</ele>
        <time>2023-08-10T07:41:53Z</time>
      </trkpt>
      <trkpt lat="49.81873" lon="2.31664">
        <ele>108.9</ele>
        <time>2023-08-10T07:41:54Z</time>
      </trkpt>
      <trkpt lat="49.81873" lon="2.31667">
        <ele>108.9</ele>
        <time>2023-08-10T07:41:56Z</time>
      </trkpt>
      <trkpt lat="49.81873" lon="2.31668">
        <ele>108.9</ele>
        <time>2023-08-10T07:41:57Z</time>
      </trkpt>
      <trkpt lat="49.81874" lon="2.31672">
        <ele>108.9</ele>
        <time>2023-08-10T07:41:58Z</time>
      </trkpt>
      <trkpt lat="49.81873" lon="2.31673">
        <ele>108.9</ele>
        <time>2023-08-10T07:42:00Z</time>
      </trkpt>
      <trkpt lat="49.81873" lon="2.31674">
        <ele>108.9</ele>
        <time>2023-08-10T07:42:01Z</time>
      </trkpt>
      <trkpt lat="49.81873" lon="2.31678">
        <ele>108.9</ele>
        <time>2023-08-10T07:42:02Z</time>
      </trkpt>
      <trkpt lat="49.81872" lon="2.31679">
        <ele>108.9</ele>
        <time>2023-08-10T07:42:03Z</time>
      </trkpt>
      <trkpt lat="49.81872" lon="2.3168">
        <ele>108.9</ele>
        <time>2023-08-10T07:42:04Z</time>
      </trkpt>
      <trkpt lat="49.81871" lon="2.31683">
        <ele>108.9</ele>
        <time>2023-08-10T07:42:05Z</time>
      </trkpt>
      <trkpt lat="49.81871" lon="2.31684">
        <ele>108.9</ele>
        <time>2023-08-10T07:42:06Z</time>
      </trkpt>
      <trkpt lat="49.81871" lon="2.31685">
        <ele>108.9</ele>
        <time>2023-08-10T07:42:07Z</time>
      </trkpt>
      <trkpt lat="49.8187" lon="2.31688">
        <ele>108.9</ele>
        <time>2023-08-10T07:42:09Z</time>
      </trkpt>
      <trkpt lat="49.8187" lon="2.3169">
        <ele>108.9</ele>
        <time>2023-08-10T07:42:10Z</time>
      </trkpt>
      <trkpt lat="49.81869" lon="2.31693">
        <ele>108.9</ele>
        <time>2023-08-10T07:42:11Z</time>
      </trkpt>
      <trkpt lat="49.81869" lon="2.31694">
        <ele>108.9</ele>
        <time>2023-08-10T07:42:12Z</time>
      </trkpt>
      <trkpt lat="49.81869" lon="2.31695">
        <ele>108.9</ele>
        <time>2023-08-10T07:42:13Z</time>
      </trkpt>
      <trkpt lat="49.81869" lon="2.31699">
        <ele>108.9</ele>
        <time>2023-08-10T07:42:14Z</time>
      </trkpt>
      <trkpt lat="49.81869" lon="2.317">
        <ele>108.9</ele>
        <time>2023-08-10T07:42:15Z</time>
      </trkpt>
      <trkpt lat="49.81869" lon="2.31702">
        <ele>108.9</ele>
        <time>2023-08-10T07:42:17Z</time>
      </trkpt>
      <trkpt lat="49.81869" lon="2.31704">
        <ele>108.9</ele>
        <time>2023-08-10T07:42:18Z</time>
      </trkpt>
      <trkpt lat="49.81869" lon="2.31705">
        <ele>108.9</ele>
        <time>2023-08-10T07:42:19Z</time>
      </trkpt>
      <trkpt lat="49.81869" lon="2.31707">
        <ele>108.9</ele>
        <time>2023-08-10T07:42:20Z</time>
      </trkpt>
      <trkpt lat="49.81869" lon="2.31709">
        <ele>108.9</ele>
        <time>2023-08-10T07:42:21Z</time>
      </trkpt>
      <trkpt lat="49.81869" lon="2.31711">
        <ele>108.9</ele>
        <time>2023-08-10T07:42:22Z</time>
      </trkpt>
      <trkpt lat="49.81869" lon="2.31713">
        <ele>108.9</ele>
        <time>2023-08-10T07:42:23Z</time>
      </trkpt>
      <trkpt lat="49.81869" lon="2.31716">
        <ele>108.9</ele>
        <time>2023-08-10T07:42:25Z</time>
      </trkpt>
      <trkpt lat="49.81869" lon="2.31718">
        <ele>108.9</ele>
        <time>2023-08-10T07:42:26Z</time>
      </trkpt>
      <trkpt lat="49.81868" lon="2.31718">
        <ele>108.9</ele>
        <time>2023-08-10T07:42:27Z</time>
      </trkpt>
      <trkpt lat="49.81868" lon="2.3172">
        <ele>108.9</ele>
        <time>2023-08-10T07:42:29Z</time>
      </trkpt>
      <trkpt lat="49.81868" lon="2.31721">
        <ele>108.9</ele>
        <time>2023-08-10T07:42:30Z</time>
      </trkpt>
      <trkpt lat="49.81867" lon="2.31722">
        <ele>108.9</ele>
        <time>2023-08-10T07:42:31Z</time>
      </trkpt>
      <trkpt lat="49.81867" lon="2.31724">
        <ele>108.9</ele>
        <time>2023-08-10T07:42:33Z</time>
      </trkpt>
      <trkpt lat="49.81867" lon="2.31725">
        <ele>108.9</ele>
        <time>2023-08-10T07:42:34Z</time>
      </trkpt>
      <trkpt lat="49.81867" lon="2.31729">
        <ele>108.9</ele>
        <time>2023-08-10T07:42:35Z</time>
      </trkpt>
      <trkpt lat="49.81867" lon="2.3173">
        <ele>108.9</ele>
        <time>2023-08-10T07:42:36Z</time>
      </trkpt>
      <trkpt lat="49.81867" lon="2.31731">
        <ele>108.9</ele>
        <time>2023-08-10T07:42:37Z</time>
      </trkpt>
      <trkpt lat="49.81867" lon="2.31733">
        <ele>108.9</ele>
        <time>2023-08-10T07:42:38Z</time>
      </trkpt>
      <trkpt lat="49.81867" lon="2.31734">
        <ele>108.9</ele>
        <time>2023-08-10T07:42:39Z</time>
      </trkpt>
      <trkpt lat="49.81867" lon="2.31736">
        <ele>108.8</ele>
        <time>2023-08-10T07:42:40Z</time>
      </trkpt>
      <trkpt lat="49.81868" lon="2.31739">
        <ele>108.8</ele>
        <time>2023-08-10T07:42:42Z</time>
      </trkpt>
      <trkpt lat="49.81868" lon="2.31741">
        <ele>108.8</ele>
        <time>2023-08-10T07:42:43Z</time>
      </trkpt>
      <trkpt lat="49.81869" lon="2.31743">
        <ele>108.8</ele>
        <time>2023-08-10T07:42:44Z</time>
      </trkpt>
      <trkpt lat="49.81869" lon="2.31745">
        <ele>108.8</ele>
        <time>2023-08-10T07:42:45Z</time>
      </trkpt>
      <trkpt lat="49.8187" lon="2.31748">
        <ele>108.8</ele>
        <time>2023-08-10T07:42:46Z</time>
      </trkpt>
      <trkpt lat="49.8187" lon="2.31749">
        <ele>108.8</ele>
        <time>2023-08-10T07:42:47Z</time>
      </trkpt>
      <trkpt lat="49.8187" lon="2.3175">
        <ele>108.8</ele>
        <time>2023-08-10T07:42:48Z</time>
      </trkpt>
      <trkpt lat="49.81871" lon="2.31753">
        <ele>108.8</ele>
        <time>2023-08-10T07:42:49Z</time>
      </trkpt>
      <trkpt lat="49.81872" lon="2.31755">
        <ele>108.8</ele>
        <time>2023-08-10T07:42:51Z</time>
      </trkpt>
      <trkpt lat="49.81872" lon="2.31756">
        <ele>108.8</ele>
        <time>2023-08-10T07:42:52Z</time>
      </trkpt>
      <trkpt lat="49.81872" lon="2.31757">
        <ele>108.8</ele>
        <time>2023-08-10T07:42:53Z</time>
      </trkpt>
      <trkpt lat="49.81873" lon="2.31759">
        <ele>108.8</ele>
        <time>2023-08-10T07:42:54Z</time>
      </trkpt>
      <trkpt lat="49.81874" lon="2.3176">
        <ele>108.8</ele>
        <time>2023-08-10T07:42:55Z</time>
      </trkpt>
      <trkpt lat="49.81874" lon="2.31762">
        <ele>108.8</ele>
        <time>2023-08-10T07:42:56Z</time>
      </trkpt>
      <trkpt lat="49.81875" lon="2.31763">
        <ele>108.8</ele>
        <time>2023-08-10T07:42:57Z</time>
      </trkpt>
      <trkpt lat="49.81875" lon="2.31765">
        <ele>108.8</ele>
        <time>2023-08-10T07:42:58Z</time>
      </trkpt>
      <trkpt lat="49.81876" lon="2.31766">
        <ele>108.8</ele>
        <time>2023-08-10T07:42:59Z</time>
      </trkpt>
      <trkpt lat="49.81876" lon="2.31768">
        <ele>108.8</ele>
        <time>2023-08-10T07:43:00Z</time>
      </trkpt>
      <trkpt lat="49.81876" lon="2.3177">
        <ele>108.8</ele>
        <time>2023-08-10T07:43:01Z</time>
      </trkpt>
      <trkpt lat="49.81876" lon="2.31772">
        <ele>108.9</ele>
        <time>2023-08-10T07:43:03Z</time>
      </trkpt>
      <trkpt lat="49.81877" lon="2.31773">
        <ele>108.9</ele>
        <time>2023-08-10T07:43:04Z</time>
      </trkpt>
      <trkpt lat="49.81877" lon="2.31774">
        <ele>108.9</ele>
        <time>2023-08-10T07:43:05Z</time>
      </trkpt>
      <trkpt lat="49.81877" lon="2.31776">
        <ele>108.9</ele>
        <time>2023-08-10T07:43:06Z</time>
      </trkpt>
      <trkpt lat="49.81877" lon="2.31777">
        <ele>108.9</ele>
        <time>2023-08-10T07:43:07Z</time>
      </trkpt>
      <trkpt lat="49.81878" lon="2.31779">
        <ele>108.9</ele>
        <time>2023-08-10T07:43:08Z</time>
      </trkpt>
      <trkpt lat="49.81878" lon="2.3178">
        <ele>108.9</ele>
        <time>2023-08-10T07:43:09Z</time>
      </trkpt>
      <trkpt lat="49.81879" lon="2.31782">
        <ele>108.9</ele>
        <time>2023-08-10T07:43:10Z</time>
      </trkpt>
      <trkpt lat="49.81879" lon="2.31783">
        <ele>108.9</ele>
        <time>2023-08-10T07:43:11Z</time>
      </trkpt>
      <trkpt lat="49.8188" lon="2.31786">
        <ele>108.9</ele>
        <time>2023-08-10T07:43:12Z</time>
      </trkpt>
      <trkpt lat="49.8188" lon="2.31787">
        <ele>108.9</ele>
        <time>2023-08-10T07:43:14Z</time>
      </trkpt>
      <trkpt lat="49.8188" lon="2.31789">
        <ele>108.9</ele>
        <time>2023-08-10T07:43:15Z</time>
      </trkpt>
      <trkpt lat="49.81881" lon="2.3179">
        <ele>108.9</ele>
        <time>2023-08-10T07:43:16Z</time>
      </trkpt>
      <trkpt lat="49.81881" lon="2.31792">
        <ele>108.9</ele>
        <time>2023-08-10T07:43:17Z</time>
      </trkpt>
      <trkpt lat="49.81882" lon="2.31794">
        <ele>108.9</ele>
        <time>2023-08-10T07:43:18Z</time>
      </trkpt>
      <trkpt lat="49.81882" lon="2.31797">
        <ele>108.9</ele>
        <time>2023-08-10T07:43:19Z</time>
      </trkpt>
      <trkpt lat="49.81883" lon="2.31798">
        <ele>109</ele>
        <time>2023-08-10T07:43:21Z</time>
      </trkpt>
      <trkpt lat="49.81883" lon="2.31799">
        <ele>109</ele>
        <time>2023-08-10T07:43:22Z</time>
      </trkpt>
      <trkpt lat="49.81884" lon="2.31802">
        <ele>109</ele>
        <time>2023-08-10T07:43:23Z</time>
      </trkpt>
      <trkpt lat="49.81884" lon="2.31803">
        <ele>109</ele>
        <time>2023-08-10T07:43:24Z</time>
      </trkpt>
      <trkpt lat="49.81884" lon="2.31804">
        <ele>109</ele>
        <time>2023-08-10T07:43:25Z</time>
      </trkpt>
      <trkpt lat="49.81885" lon="2.31806">
        <ele>109</ele>
        <time>2023-08-10T07:43:26Z</time>
      </trkpt>
      <trkpt lat="49.81886" lon="2.31807">
        <ele>109</ele>
        <time>2023-08-10T07:43:27Z</time>
      </trkpt>
      <trkpt lat="49.81886" lon="2.31809">
        <ele>109</ele>
        <time>2023-08-10T07:43:28Z</time>
      </trkpt>
      <trkpt lat="49.81886" lon="2.31811">
        <ele>109</ele>
        <time>2023-08-10T07:43:29Z</time>
      </trkpt>
      <trkpt lat="49.81887" lon="2.31812">
        <ele>109</ele>
        <time>2023-08-10T07:43:30Z</time>
      </trkpt>
      <trkpt lat="49.81887" lon="2.31814">
        <ele>109</ele>
        <time>2023-08-10T07:43:31Z</time>
      </trkpt>
      <trkpt lat="49.81888" lon="2.31816">
        <ele>109</ele>
        <time>2023-08-10T07:43:33Z</time>
      </trkpt>
      <trkpt lat="49.81888" lon="2.31819">
        <ele>109.1</ele>
        <time>2023-08-10T07:43:34Z</time>
      </trkpt>
      <trkpt lat="49.81888" lon="2.3182">
        <ele>109.1</ele>
        <time>2023-08-10T07:43:35Z</time>
      </trkpt>
      <trkpt lat="49.81888" lon="2.31822">
        <ele>109.1</ele>
        <time>2023-08-10T07:43:36Z</time>
      </trkpt>
      <trkpt lat="49.81888" lon="2.31824">
        <ele>109.1</ele>
        <time>2023-08-10T07:43:37Z</time>
      </trkpt>
      <trkpt lat="49.81888" lon="2.31827">
        <ele>109.1</ele>
        <time>2023-08-10T07:43:38Z</time>
      </trkpt>
      <trkpt lat="49.81889" lon="2.31829">
        <ele>109.1</ele>
        <time>2023-08-10T07:43:40Z</time>
      </trkpt>
      <trkpt lat="49.81889" lon="2.31831">
        <ele>109.1</ele>
        <time>2023-08-10T07:43:41Z</time>
      </trkpt>
      <trkpt lat="49.81889" lon="2.31832">
        <ele>109.1</ele>
        <time>2023-08-10T07:43:42Z</time>
      </trkpt>
      <trkpt lat="49.81889" lon="2.31834">
        <ele>109.1</ele>
        <time>2023-08-10T07:43:43Z</time>
      </trkpt>
      <trkpt lat="49.8189" lon="2.31837">
        <ele>109.1</ele>
        <time>2023-08-10T07:43:44Z</time>
      </trkpt>
      <trkpt lat="49.81891" lon="2.31838">
        <ele>109.1</ele>
        <time>2023-08-10T07:43:45Z</time>
      </trkpt>
      <trkpt lat="49.81892" lon="2.31839">
        <ele>109.2</ele>
        <time>2023-08-10T07:43:46Z</time>
      </trkpt>
      <trkpt lat="49.81893" lon="2.31842">
        <ele>109.2</ele>
        <time>2023-08-10T07:43:47Z</time>
      </trkpt>
      <trkpt lat="49.81893" lon="2.31844">
        <ele>109.2</ele>
        <time>2023-08-10T07:43:49Z</time>
      </trkpt>
      <trkpt lat="49.81894" lon="2.31845">
        <ele>109.2</ele>
        <time>2023-08-10T07:43:50Z</time>
      </trkpt>
      <trkpt lat="49.81894" lon="2.31846">
        <ele>109.2</ele>
        <time>2023-08-10T07:43:51Z</time>
      </trkpt>
      <trkpt lat="49.81895" lon="2.31848">
        <ele>109.2</ele>
        <time>2023-08-10T07:43:52Z</time>
      </trkpt>
      <trkpt lat="49.81895" lon="2.31849">
        <ele>109.2</ele>
        <time>2023-08-10T07:43:53Z</time>
      </trkpt>
      <trkpt lat="49.81896" lon="2.31851">
        <ele>109.2</ele>
        <time>2023-08-10T07:43:54Z</time>
      </trkpt>
      <trkpt lat="49.81896" lon="2.31853">
        <ele>109.2</ele>
        <time>2023-08-10T07:43:55Z</time>
      </trkpt>
      <trkpt lat="49.81897" lon="2.31856">
        <ele>109.2</ele>
        <time>2023-08-10T07:43:57Z</time>
      </trkpt>
      <trkpt lat="49.81897" lon="2.31857">
        <ele>109.2</ele>
        <time>2023-08-10T07:43:58Z</time>
      </trkpt>
      <trkpt lat="49.81897" lon="2.31858">
        <ele>109.2</ele>
        <time>2023-08-10T07:43:59Z</time>
      </trkpt>
      <trkpt lat="49.81898" lon="2.3186">
        <ele>109.2</ele>
        <time>2023-08-10T07:44:00Z</time>
      </trkpt>
      <trkpt lat="49.81898" lon="2.31862">
        <ele>109.2</ele>
        <time>2023-08-10T07:44:01Z</time>
      </trkpt>
      <trkpt lat="49.81899" lon="2.31863">
        <ele>109.2</ele>
        <time>2023-08-10T07:44:02Z</time>
      </trkpt>
      <trkpt lat="49.819" lon="2.31865">
        <ele>109.2</ele>
        <time>2023-08-10T07:44:03Z</time>
      </trkpt>
      <trkpt lat="49.819" lon="2.31867">
        <ele>109.2</ele>
        <time>2023-08-10T07:44:05Z</time>
      </trkpt>
      <trkpt lat="49.819" lon="2.31869">
        <ele>109.2</ele>
        <time>2023-08-10T07:44:06Z</time>
      </trkpt>
      <trkpt lat="49.819" lon="2.3187">
        <ele>109.2</ele>
        <time>2023-08-10T07:44:07Z</time>
      </trkpt>
      <trkpt lat="49.819" lon="2.31872">
        <ele>109.2</ele>
        <time>2023-08-10T07:44:08Z</time>
      </trkpt>
      <trkpt lat="49.81899" lon="2.31873">
        <ele>109.2</ele>
        <time>2023-08-10T07:44:09Z</time>
      </trkpt>
      <trkpt lat="49.81899" lon="2.31875">
        <ele>109.2</ele>
        <time>2023-08-10T07:44:10Z</time>
      </trkpt>
      <trkpt lat="49.81899" lon="2.31877">
        <ele>109.2</ele>
        <time>2023-08-10T07:44:12Z</time>
      </trkpt>
      <trkpt lat="49.81899" lon="2.31878">
        <ele>109.2</ele>
        <time>2023-08-10T07:44:13Z</time>
      </trkpt>
      <trkpt lat="49.81898" lon="2.31879">
        <ele>109.2</ele>
        <time>2023-08-10T07:44:14Z</time>
      </trkpt>
      <trkpt lat="49.81898" lon="2.31881">
        <ele>109.2</ele>
        <time>2023-08-10T07:44:15Z</time>
      </trkpt>
      <trkpt lat="49.81898" lon="2.31882">
        <ele>109.2</ele>
        <time>2023-08-10T07:44:17Z</time>
      </trkpt>
      <trkpt lat="49.81898" lon="2.31884">
        <ele>109.2</ele>
        <time>2023-08-10T07:44:18Z</time>
      </trkpt>
      <trkpt lat="49.81898" lon="2.31885">
        <ele>109.2</ele>
        <time>2023-08-10T07:44:19Z</time>
      </trkpt>
      <trkpt lat="49.81898" lon="2.31887">
        <ele>109.2</ele>
        <time>2023-08-10T07:44:20Z</time>
      </trkpt>
      <trkpt lat="49.81898" lon="2.31888">
        <ele>109.2</ele>
        <time>2023-08-10T07:44:21Z</time>
      </trkpt>
      <trkpt lat="49.81898" lon="2.3189">
        <ele>109.2</ele>
        <time>2023-08-10T07:44:22Z</time>
      </trkpt>
      <trkpt lat="49.81899" lon="2.31892">
        <ele>109.2</ele>
        <time>2023-08-10T07:44:24Z</time>
      </trkpt>
      <trkpt lat="49.81899" lon="2.31893">
        <ele>109.2</ele>
        <time>2023-08-10T07:44:25Z</time>
      </trkpt>
      <trkpt lat="49.819" lon="2.31895">
        <ele>109.2</ele>
        <time>2023-08-10T07:44:26Z</time>
      </trkpt>
      <trkpt lat="49.819" lon="2.31896">
        <ele>109.2</ele>
        <time>2023-08-10T07:44:27Z</time>
      </trkpt>
      <trkpt lat="49.81902" lon="2.31899">
        <ele>109.2</ele>
        <time>2023-08-10T07:44:28Z</time>
      </trkpt>
      <trkpt lat="49.81902" lon="2.319">
        <ele>109.2</ele>
        <time>2023-08-10T07:44:29Z</time>
      </trkpt>
      <trkpt lat="49.81903" lon="2.31901">
        <ele>109.2</ele>
        <time>2023-08-10T07:44:30Z</time>
      </trkpt>
      <trkpt lat="49.81904" lon="2.31903">
        <ele>109.2</ele>
        <time>2023-08-10T07:44:32Z</time>
      </trkpt>
      <trkpt lat="49.81905" lon="2.31904">
        <ele>109.2</ele>
        <time>2023-08-10T07:44:33Z</time>
      </trkpt>
      <trkpt lat="49.81906" lon="2.31905">
        <ele>109.1</ele>
        <time>2023-08-10T07:44:34Z</time>
      </trkpt>
      <trkpt lat="49.81906" lon="2.31907">
        <ele>109.1</ele>
        <time>2023-08-10T07:44:35Z</time>
      </trkpt>
      <trkpt lat="49.81907" lon="2.31908">
        <ele>109.1</ele>
        <time>2023-08-10T07:44:36Z</time>
      </trkpt>
      <trkpt lat="49.81907" lon="2.3191">
        <ele>109.1</ele>
        <time>2023-08-10T07:44:37Z</time>
      </trkpt>
      <trkpt lat="49.81907" lon="2.31912">
        <ele>109.1</ele>
        <time>2023-08-10T07:44:39Z</time>
      </trkpt>
      <trkpt lat="49.81907" lon="2.31914">
        <ele>109.1</ele>
        <time>2023-08-10T07:44:41Z</time>
      </trkpt>
      <trkpt lat="49.81906" lon="2.31915">
        <ele>109.1</ele>
        <time>2023-08-10T07:44:42Z</time>
      </trkpt>
      <trkpt lat="49.81905" lon="2.31916">
        <ele>109.1</ele>
        <time>2023-08-10T07:44:43Z</time>
      </trkpt>
      <trkpt lat="49.81904" lon="2.31916">
        <ele>109.1</ele>
        <time>2023-08-10T07:44:44Z</time>
      </trkpt>
      <trkpt lat="49.81903" lon="2.31916">
        <ele>109.1</ele>
        <time>2023-08-10T07:44:46Z</time>
      </trkpt>
      <trkpt lat="49.81901" lon="2.31915">
        <ele>109.1</ele>
        <time>2023-08-10T07:44:47Z</time>
      </trkpt>
      <trkpt lat="49.81901" lon="2.31915">
        <ele>109.1</ele>
        <time>2023-08-10T07:44:48Z</time>
      </trkpt>
      <trkpt lat="49.81901" lon="2.31915">
        <ele>109.1</ele>
        <time>2023-08-10T07:44:50Z</time>
      </trkpt>
      <trkpt lat="49.81901" lon="2.31915">
        <ele>109.1</ele>
        <time>2023-08-10T07:44:51Z</time>
      </trkpt>
      <trkpt lat="49.81901" lon="2.31915">
        <ele>109.1</ele>
        <time>2023-08-10T07:44:53Z</time>
      </trkpt>
      <trkpt lat="49.81901" lon="2.31915">
        <ele>109.1</ele>
        <time>2023-08-10T07:44:54Z</time>
      </trkpt>
      <trkpt lat="49.81901" lon="2.31915">
        <ele>109.1</ele>
        <time>2023-08-10T07:44:55Z</time>
      </trkpt>
      <trkpt lat="49.81901" lon="2.31915">
        <ele>109.1</ele>
        <time>2023-08-10T07:44:57Z</time>
      </trkpt>
      <trkpt lat="49.81901" lon="2.31915">
        <ele>109.1</ele>
        <time>2023-08-10T07:44:59Z</time>
      </trkpt>
      <trkpt lat="49.81901" lon="2.31915">
        <ele>109.1</ele>
        <time>2023-08-10T07:45:00Z</time>
      </trkpt>
      <trkpt lat="49.81901" lon="2.31915">
        <ele>109.1</ele>
        <time>2023-08-10T07:45:02Z</time>
      </trkpt>
      <trkpt lat="49.81901" lon="2.31915">
        <ele>109.1</ele>
        <time>2023-08-10T07:45:03Z</time>
      </trkpt>
      <trkpt lat="49.81901" lon="2.31915">
        <ele>109.1</ele>
        <time>2023-08-10T07:45:05Z</time>
      </trkpt>
      <trkpt lat="49.81901" lon="2.31915">
        <ele>109.1</ele>
        <time>2023-08-10T07:45:06Z</time>
      </trkpt>
      <trkpt lat="49.81901" lon="2.31915">
        <ele>109.1</ele>
        <time>2023-08-10T07:45:08Z</time>
      </trkpt>
      <trkpt lat="49.81901" lon="2.31915">
        <ele>109.1</ele>
        <time>2023-08-10T07:45:09Z</time>
      </trkpt>
      <trkpt lat="49.81901" lon="2.31915">
        <ele>109.1</ele>
        <time>2023-08-10T07:45:11Z</time>
      </trkpt>
      <trkpt lat="49.81901" lon="2.31915">
        <ele>109.1</ele>
        <time>2023-08-10T07:45:12Z</time>
      </trkpt>
      <trkpt lat="49.81901" lon="2.31915">
        <ele>109.1</ele>
        <time>2023-08-10T07:45:14Z</time>
      </trkpt>
      <trkpt lat="49.81901" lon="2.31915">
        <ele>109.1</ele>
        <time>2023-08-10T07:45:15Z</time>
      </trkpt>
      <trkpt lat="49.81901" lon="2.31915">
        <ele>109.1</ele>
        <time>2023-08-10T07:45:16Z</time>
      </trkpt>
      <trkpt lat="49.819" lon="2.31915">
        <ele>109.1</ele>
        <time>2023-08-10T07:45:17Z</time>
      </trkpt>
      <trkpt lat="49.819" lon="2.31915">
        <ele>109.1</ele>
        <time>2023-08-10T07:45:18Z</time>
      </trkpt>
      <trkpt lat="49.819" lon="2.31915">
        <ele>109.1</ele>
        <time>2023-08-10T07:45:19Z</time>
      </trkpt>
      <trkpt lat="49.819" lon="2.31915">
        <ele>109.1</ele>
        <time>2023-08-10T07:45:20Z</time>
      </trkpt>
      <trkpt lat="49.819" lon="2.31915">
        <ele>109.1</ele>
        <time>2023-08-10T07:45:21Z</time>
      </trkpt>
      <trkpt lat="49.819" lon="2.31915">
        <ele>109.1</ele>
        <time>2023-08-10T07:45:22Z</time>
      </trkpt>
      <trkpt lat="49.819" lon="2.31915">
        <ele>109.1</ele>
        <time>2023-08-10T07:45:23Z</time>
      </trkpt>
      <trkpt lat="49.819" lon="2.31915">
        <ele>109.1</ele>
        <time>2023-08-10T07:45:24Z</time>
      </trkpt>
      <trkpt lat="49.819" lon="2.31915">
        <ele>109.1</ele>
        <time>2023-08-10T07:45:25Z</time>
      </trkpt>
      <trkpt lat="49.819" lon="2.31915">
        <ele>109.1</ele>
        <time>2023-08-10T07:45:26Z</time>
      </trkpt>
      <trkpt lat="49.819" lon="2.31915">
        <ele>109.1</ele>
        <time>2023-08-10T07:45:27Z</time>
      </trkpt>
      <trkpt lat="49.819" lon="2.31915">
        <ele>109.1</ele>
        <time>2023-08-10T07:45:28Z</time>
      </trkpt>
      <trkpt lat="49.819" lon="2.31915">
        <ele>109.1</ele>
        <time>2023-08-10T07:45:29Z</time>
      </trkpt>
      <trkpt lat="49.819" lon="2.31915">
        <ele>109.1</ele>
        <time>2023-08-10T07:45:30Z</time>
      </trkpt>
      <trkpt lat="49.819" lon="2.31915">
        <ele>109.1</ele>
        <time>2023-08-10T07:45:31Z</time>
      </trkpt>
      <trkpt lat="49.819" lon="2.31915">
        <ele>109.1</ele>
        <time>2023-08-10T07:45:32Z</time>
      </trkpt>
      <trkpt lat="49.819" lon="2.31915">
        <ele>109.1</ele>
        <time>2023-08-10T07:45:33Z</time>
      </trkpt>
      <trkpt lat="49.819" lon="2.31915">
        <ele>109.1</ele>
        <time>2023-08-10T07:45:34Z</time>
      </trkpt>
      <trkpt lat="49.819" lon="2.31915">
        <ele>109.1</ele>
        <time>2023-08-10T07:45:35Z</time>
      </trkpt>
      <trkpt lat="49.819" lon="2.31915">
        <ele>109.1</ele>
        <time>2023-08-10T07:45:36Z</time>
      </trkpt>
      <trkpt lat="49.819" lon="2.31915">
        <ele>109.1</ele>
        <time>2023-08-10T07:45:37Z</time>
      </trkpt>
      <trkpt lat="49.819" lon="2.31915">
        <ele>109.1</ele>
        <time>2023-08-10T07:45:38Z</time>
      </trkpt>
      <trkpt lat="49.819" lon="2.31915">
        <ele>109.1</ele>
        <time>2023-08-10T07:45:39Z</time>
      </trkpt>
      <trkpt lat="49.81899" lon="2.31915">
        <ele>109.1</ele>
        <time>2023-08-10T07:45:40Z</time>
      </trkpt>
      <trkpt lat="49.81899" lon="2.31915">
        <ele>109.1</ele>
        <time>2023-08-10T07:45:41Z</time>
      </trkpt>
      <trkpt lat="49.81899" lon="2.31915">
        <ele>109.1</ele>
        <time>2023-08-10T07:45:42Z</time>
      </trkpt>
      <trkpt lat="49.81899" lon="2.31915">
        <ele>109.1</ele>
        <time>2023-08-10T07:45:43Z</time>
      </trkpt>
      <trkpt lat="49.81899" lon="2.31915">
        <ele>109.1</ele>
        <time>2023-08-10T07:45:44Z</time>
      </trkpt>
      <trkpt lat="49.81899" lon="2.31915">
        <ele>109.1</ele>
        <time>2023-08-10T07:45:45Z</time>
      </trkpt>
      <trkpt lat="49.81899" lon="2.31915">
        <ele>109.1</ele>
        <time>2023-08-10T07:45:46Z</time>
      </trkpt>
      <trkpt lat="49.81899" lon="2.31915">
        <ele>109.1</ele>
        <time>2023-08-10T07:45:47Z</time>
      </trkpt>
      <trkpt lat="49.81899" lon="2.31915">
        <ele>109.1</ele>
        <time>2023-08-10T07:45:48Z</time>
      </trkpt>
      <trkpt lat="49.81899" lon="2.31915">
        <ele>109.1</ele>
        <time>2023-08-10T07:45:49Z</time>
      </trkpt>
      <trkpt lat="49.81899" lon="2.31915">
        <ele>109.1</ele>
        <time>2023-08-10T07:45:50Z</time>
      </trkpt>
      <trkpt lat="49.81899" lon="2.31915">
        <ele>109.1</ele>
        <time>2023-08-10T07:45:51Z</time>
      </trkpt>
      <trkpt lat="49.81899" lon="2.31915">
        <ele>109.1</ele>
        <time>2023-08-10T07:45:52Z</time>
      </trkpt>
      <trkpt lat="49.81899" lon="2.31915">
        <ele>109.1</ele>
        <time>2023-08-10T07:45:53Z</time>
      </trkpt>
      <trkpt lat="49.81899" lon="2.31915">
        <ele>109.1</ele>
        <time>2023-08-10T07:45:54Z</time>
      </trkpt>
      <trkpt lat="49.81899" lon="2.31915">
        <ele>109.1</ele>
        <time>2023-08-10T07:45:55Z</time>
      </trkpt>
      <trkpt lat="49.81899" lon="2.31915">
        <ele>109.1</ele>
        <time>2023-08-10T07:45:56Z</time>
      </trkpt>
      <trkpt lat="49.81899" lon="2.31915">
        <ele>109.1</ele>
        <time>2023-08-10T07:45:57Z</time>
      </trkpt>
      <trkpt lat="49.81899" lon="2.31915">
        <ele>109.1</ele>
        <time>2023-08-10T07:45:58Z</time>
      </trkpt>
      <trkpt lat="49.81899" lon="2.31915">
        <ele>109.1</ele>
        <time>2023-08-10T07:45:59Z</time>
      </trkpt>
      <trkpt lat="49.81899" lon="2.31915">
        <ele>109.1</ele>
        <time>2023-08-10T07:46:00Z</time>
      </trkpt>
      <trkpt lat="49.81899" lon="2.31915">
        <ele>109.1</ele>
        <time>2023-08-10T07:46:01Z</time>
      </trkpt>
      <trkpt lat="49.81899" lon="2.31915">
        <ele>109.1</ele>
        <time>2023-08-10T07:46:02Z</time>
      </trkpt>
      <trkpt lat="49.81899" lon="2.31915">
        <ele>109.1</ele>
        <time>2023-08-10T07:46:03Z</time>
      </trkpt>
      <trkpt lat="49.81898" lon="2.31915">
        <ele>109.1</ele>
        <time>2023-08-10T07:46:04Z</time>
      </trkpt>
      <trkpt lat="49.81898" lon="2.31915">
        <ele>109.1</ele>
        <time>2023-08-10T07:46:05Z</time>
      </trkpt>
      <trkpt lat="49.81898" lon="2.31915">
        <ele>109.1</ele>
        <time>2023-08-10T07:46:06Z</time>
      </trkpt>
      <trkpt lat="49.81898" lon="2.31915">
        <ele>109.1</ele>
        <time>2023-08-10T07:46:07Z</time>
      </trkpt>
      <trkpt lat="49.81898" lon="2.31915">
        <ele>109.1</ele>
        <time>2023-08-10T07:46:08Z</time>
      </trkpt>
      <trkpt lat="49.81898" lon="2.31915">
        <ele>109.1</ele>
        <time>2023-08-10T07:46:09Z</time>
      </trkpt>
      <trkpt lat="49.81898" lon="2.31915">
        <ele>109.1</ele>
        <time>2023-08-10T07:46:10Z</time>
      </trkpt>
      <trkpt lat="49.81898" lon="2.31915">
        <ele>109.1</ele>
        <time>2023-08-10T07:46:11Z</time>
      </trkpt>
      <trkpt lat="49.81898" lon="2.31915">
        <ele>109.1</ele>
        <time>2023-08-10T07:46:12Z</time>
      </trkpt>
      <trkpt lat="49.81898" lon="2.31915">
        <ele>109.1</ele>
        <time>2023-08-10T07:46:13Z</time>
      </trkpt>
      <trkpt lat="49.81898" lon="2.31915">
        <ele>109.1</ele>
        <time>2023-08-10T07:46:14Z</time>
      </trkpt>
      <trkpt lat="49.81898" lon="2.31915">
        <ele>109.1</ele>
        <time>2023-08-10T07:46:15Z</time>
      </trkpt>
      <trkpt lat="49.81898" lon="2.31915">
        <ele>109.1</ele>
        <time>2023-08-10T07:46:16Z</time>
      </trkpt>
      <trkpt lat="49.81898" lon="2.31915">
        <ele>109.1</ele>
        <time>2023-08-10T07:46:17Z</time>
      </trkpt>
      <trkpt lat="49.81898" lon="2.31915">
        <ele>109.1</ele>
        <time>2023-08-10T07:46:18Z</time>
      </trkpt>
      <trkpt lat="49.81898" lon="2.31915">
        <ele>109.1</ele>
        <time>2023-08-10T07:46:19Z</time>
      </trkpt>
      <trkpt lat="49.81898" lon="2.31915">
        <ele>109.1</ele>
        <time>2023-08-10T07:46:20Z</time>
      </trkpt>
      <trkpt lat="49.81898" lon="2.31915">
        <ele>109.1</ele>
        <time>2023-08-10T07:46:21Z</time>
      </trkpt>
      <trkpt lat="49.81898" lon="2.31915">
        <ele>109.1</ele>
        <time>2023-08-10T07:46:22Z</time>
      </trkpt>
      <trkpt lat="49.81898" lon="2.31915">
        <ele>109.1</ele>
        <time>2023-08-10T07:46:23Z</time>
      </trkpt>
      <trkpt lat="49.81898" lon="2.31915">
        <ele>109.1</ele>
        <time>2023-08-10T07:46:24Z</time>
      </trkpt>
      <trkpt lat="49.81898" lon="2.31915">
        <ele>109.1</ele>
        <time>2023-08-10T07:46:25Z</time>
      </trkpt>
      <trkpt lat="49.81898" lon="2.31915">
        <ele>109.1</ele>
        <time>2023-08-10T07:46:26Z</time>
      </trkpt>
      <trkpt lat="49.81898" lon="2.31915">
        <ele>109.1</ele>
        <time>2023-08-10T07:46:27Z</time>
      </trkpt>
      <trkpt lat="49.81897" lon="2.31915">
        <ele>109.1</ele>
        <time>2023-08-10T07:46:28Z</time>
      </trkpt>
      <trkpt lat="49.81897" lon="2.31915">
        <ele>109.1</ele>
        <time>2023-08-10T07:46:29Z</time>
      </trkpt>
      <trkpt lat="49.81897" lon="2.31915">
        <ele>109.1</ele>
        <time>2023-08-10T07:46:30Z</time>
      </trkpt>
      <trkpt lat="49.81897" lon="2.31915">
        <ele>109.1</ele>
        <time>2023-08-10T07:46:31Z</time>
      </trkpt>
      <trkpt lat="49.81897" lon="2.31915">
        <ele>109.1</ele>
        <time>2023-08-10T07:46:32Z</time>
      </trkpt>
      <trkpt lat="49.81897" lon="2.31915">
        <ele>109.1</ele>
        <time>2023-08-10T07:46:33Z</time>
      </trkpt>
      <trkpt lat="49.81897" lon="2.31915">
        <ele>109.1</ele>
        <time>2023-08-10T07:46:34Z</time>
      </trkpt>
      <trkpt lat="49.81897" lon="2.31915">
        <ele>109.1</ele>
        <time>2023-08-10T07:46:35Z</time>
      </trkpt>
      <trkpt lat="49.81897" lon="2.31915">
        <ele>109.1</ele>
        <time>2023-08-10T07:46:36Z</time>
      </trkpt>
      <trkpt lat="49.81897" lon="2.31915">
        <ele>109.1</ele>
        <time>2023-08-10T07:46:37Z</time>
      </trkpt>
      <trkpt lat="49.81897" lon="2.31915">
        <ele>109.1</ele>
        <time>2023-08-10T07:46:38Z</time>
      </trkpt>
      <trkpt lat="49.81897" lon="2.31915">
        <ele>109.1</ele>
        <time>2023-08-10T07:46:39Z</time>
      </trkpt>
      <trkpt lat="49.81897" lon="2.31915">
        <ele>109.1</ele>
        <time>2023-08-10T07:46:40Z</time>
      </trkpt>
      <trkpt lat="49.81897" lon="2.31915">
        <ele>109.1</ele>
        <time>2023-08-10T07:46:41Z</time>
      </trkpt>
      <trkpt lat="49.81897" lon="2.31915">
        <ele>109.1</ele>
        <time>2023-08-10T07:46:42Z</time>
      </trkpt>
      <trkpt lat="49.81897" lon="2.31915">
        <ele>109.1</ele>
        <time>2023-08-10T07:46:43Z</time>
      </trkpt>
      <trkpt lat="49.81897" lon="2.31915">
        <ele>109.1</ele>
        <time>2023-08-10T07:46:44Z</time>
      </trkpt>
      <trkpt lat="49.81897" lon="2.31915">
        <ele>109.1</ele>
        <time>2023-08-10T07:46:45Z</time>
      </trkpt>
      <trkpt lat="49.81897" lon="2.31915">
        <ele>109.1</ele>
        <time>2023-08-10T07:46:46Z</time>
      </trkpt>
      <trkpt lat="49.81897" lon="2.31915">
        <ele>109.1</ele>
        <time>2023-08-10T07:46:47Z</time>
      </trkpt>
      <trkpt lat="49.81897" lon="2.31915">
        <ele>109.1</ele>
        <time>2023-08-10T07:46:48Z</time>
      </trkpt>
      <trkpt lat="49.81897" lon="2.31915">
        <ele>109.1</ele>
        <time>2023-08-10T07:46:49Z</time>
      </trkpt>
      <trkpt lat="49.81897" lon="2.31915">
        <ele>109.1</ele>
        <time>2023-08-10T07:46:50Z</time>
      </trkpt>
      <trkpt lat="49.81897" lon="2.31915">
        <ele>109.1</ele>
        <time>2023-08-10T07:46:51Z</time>
      </trkpt>
      <trkpt lat="49.81896" lon="2.31915">
        <ele>109.1</ele>
        <time>2023-08-10T07:46:52Z</time>
      </trkpt>
      <trkpt lat="49.81896" lon="2.31915">
        <ele>109.1</ele>
        <time>2023-08-10T07:46:53Z</time>
      </trkpt>
      <trkpt lat="49.81896" lon="2.31915">
        <ele>109.1</ele>
        <time>2023-08-10T07:46:54Z</time>
      </trkpt>
      <trkpt lat="49.81896" lon="2.31915">
        <ele>109.1</ele>
        <time>2023-08-10T07:46:55Z</time>
      </trkpt>
      <trkpt lat="49.81896" lon="2.31915">
        <ele>109.1</ele>
        <time>2023-08-10T07:46:56Z</time>
      </trkpt>
      <trkpt lat="49.81896" lon="2.31915">
        <ele>109.1</ele>
        <time>2023-08-10T07:46:57Z</time>
      </trkpt>
      <trkpt lat="49.81896" lon="2.31915">
        <ele>109.1</ele>
        <time>2023-08-10T07:46:58Z</time>
      </trkpt>
      <trkpt lat="49.81896" lon="2.31915">
        <ele>109.1</ele>
        <time>2023-08-10T07:46:59Z</time>
      </trkpt>
      <trkpt lat="49.81896" lon="2.31915">
        <ele>109.1</ele>
        <time>2023-08-10T07:47:00Z</time>
      </trkpt>
      <trkpt lat="49.81896" lon="2.31915">
        <ele>109.1</ele>
        <time>2023-08-10T07:47:01Z</time>
      </trkpt>
      <trkpt lat="49.81896" lon="2.31915">
        <ele>109.1</ele>
        <time>2023-08-10T07:47:02Z</time>
      </trkpt>
      <trkpt lat="49.81896" lon="2.31915">
        <ele>109.1</ele>
        <time>2023-08-10T07:47:03Z</time>
      </trkpt>
      <trkpt lat="49.81896" lon="2.31915">
        <ele>109.1</ele>
        <time>2023-08-10T07:47:04Z</time>
      </trkpt>
      <trkpt lat="49.81896" lon="2.31915">
        <ele>109.1</ele>
        <time>2023-08-10T07:47:05Z</time>
      </trkpt>
      <trkpt lat="49.81896" lon="2.31915">
        <ele>109.1</ele>
        <time>2023-08-10T07:47:06Z</time>
      </trkpt>
      <trkpt lat="49.81896" lon="2.31915">
        <ele>109.1</ele>
        <time>2023-08-10T07:47:07Z</time>
      </trkpt>
      <trkpt lat="49.81896" lon="2.31915">
        <ele>109.1</ele>
        <time>2023-08-10T07:47:08Z</time>
      </trkpt>
      <trkpt lat="49.81896" lon="2.31915">
        <ele>109.1</ele>
        <time>2023-08-10T07:47:09Z</time>
      </trkpt>
      <trkpt lat="49.81896" lon="2.31915">
        <ele>109.1</ele>
        <time>2023-08-10T07:47:10Z</time>
      </trkpt>
      <trkpt lat="49.81896" lon="2.31915">
        <ele>109.1</ele>
        <time>2023-08-10T07:47:11Z</time>
      </trkpt>
      <trkpt lat="49.81896" lon="2.31915">
        <ele>109.1</ele>
        <time>2023-08-10T07:47:12Z</time>
      </trkpt>
      <trkpt lat="49.81896" lon="2.31915">
        <ele>109.1</ele>
        <time>2023-08-10T07:47:13Z</time>
      </trkpt>
      <trkpt lat="49.81896" lon="2.31915">
        <ele>109.1</ele>
        <time>2023-08-10T07:47:14Z</time>
      </trkpt>
      <trkpt lat="49.81896" lon="2.31915">
        <ele>109.1</ele>
        <time>2023-08-10T07:47:15Z</time>
      </trkpt>
      <trkpt lat="49.81895" lon="2.31915">
        <ele>109.1</ele>
        <time>2023-08-10T07:47:16Z</time>
      </trkpt>
      <trkpt lat="49.81895" lon="2.31915">
        <ele>109.1</ele>
        <time>2023-08-10T07:47:17Z</time>
      </trkpt>
      <trkpt lat="49.81895" lon="2.31915">
        <ele>109.1</ele>
        <time>2023-08-10T07:47:18Z</time>
      </trkpt>
      <trkpt lat="49.81895" lon="2.31915">
        <ele>109.1</ele>
        <time>2023-08-10T07:47:19Z</time>
      </trkpt>
      <trkpt lat="49.81895" lon="2.31915">
        <ele>109.1</ele>
        <time>2023-08-10T07:47:20Z</time>
      </trkpt>
      <trkpt lat="49.81895" lon="2.31915">
        <ele>109.1</ele>
        <time>2023-08-10T07:47:21Z</time>
      </trkpt>
      <trkpt lat="49.81895" lon="2.31915">
        <ele>109.1</ele>
        <time>2023-08-10T07:47:22Z</time>
      </trkpt>
      <trkpt lat="49.81895" lon="2.31915">
        <ele>109.1</ele>
        <time>2023-08-10T07:47:23Z</time>
      </trkpt>
      <trkpt lat="49.81895" lon="2.31915">
        <ele>109.1</ele>
        <time>2023-08-10T07:47:24Z</time>
      </trkpt>
      <trkpt lat="49.81895" lon="2.31915">
        <ele>109.1</ele>
        <time>2023-08-10T07:47:25Z</time>
      </trkpt>
      <trkpt lat="49.81895" lon="2.31915">
        <ele>109.1</ele>
        <time>2023-08-10T07:47:26Z</time>
      </trkpt>
      <trkpt lat="49.81895" lon="2.31915">
        <ele>109.1</ele>
        <time>2023-08-10T07:47:27Z</time>
      </trkpt>
      <trkpt lat="49.81895" lon="2.31915">
        <ele>109.1</ele>
        <time>2023-08-10T07:47:28Z</time>
      </trkpt>
      <trkpt lat="49.81895" lon="2.31915">
        <ele>109.1</ele>
        <time>2023-08-10T07:47:29Z</time>
      </trkpt>
      <trkpt lat="49.81895" lon="2.31915">
        <ele>109.1</ele>
        <time>2023-08-10T07:47:30Z</time>
      </trkpt>
      <trkpt lat="49.81895" lon="2.31915">
        <ele>109.1</ele>
        <time>2023-08-10T07:47:31Z</time>
      </trkpt>
      <trkpt lat="49.81895" lon="2.31915">
        <ele>109.1</ele>
        <time>2023-08-10T07:47:32Z</time>
      </trkpt>
      <trkpt lat="49.81895" lon="2.31915">
        <ele>109.1</ele>
        <time>2023-08-10T07:47:33Z</time>
      </trkpt>
      <trkpt lat="49.81895" lon="2.31914">
        <ele>109.1</ele>
        <time>2023-08-10T07:47:34Z</time>
      </trkpt>
      <trkpt lat="49.81891" lon="2.31912">
        <ele>109.1</ele>
        <time>2023-08-10T07:47:35Z</time>
      </trkpt>
      <trkpt lat="49.8189" lon="2.31911">
        <ele>109.1</ele>
        <time>2023-08-10T07:47:36Z</time>
      </trkpt>
      <trkpt lat="49.8189" lon="2.31911">
        <ele>109.1</ele>
        <time>2023-08-10T07:47:37Z</time>
      </trkpt>
      <trkpt lat="49.81891" lon="2.31912">
        <ele>109.1</ele>
        <time>2023-08-10T07:47:38Z</time>
      </trkpt>
      <trkpt lat="49.81891" lon="2.31911">
        <ele>109.1</ele>
        <time>2023-08-10T07:47:39Z</time>
      </trkpt>
      <trkpt lat="49.81892" lon="2.31912">
        <ele>109.1</ele>
        <time>2023-08-10T07:47:40Z</time>
      </trkpt>
      <trkpt lat="49.81893" lon="2.31913">
        <ele>109.1</ele>
        <time>2023-08-10T07:47:42Z</time>
      </trkpt>
      <trkpt lat="49.81894" lon="2.31913">
        <ele>109.1</ele>
        <time>2023-08-10T07:47:43Z</time>
      </trkpt>
      <trkpt lat="49.81895" lon="2.31913">
        <ele>109.1</ele>
        <time>2023-08-10T07:47:44Z</time>
      </trkpt>
      <trkpt lat="49.81897" lon="2.31914">
        <ele>109.1</ele>
        <time>2023-08-10T07:47:45Z</time>
      </trkpt>
      <trkpt lat="49.81899" lon="2.31915">
        <ele>109.1</ele>
        <time>2023-08-10T07:47:46Z</time>
      </trkpt>
      <trkpt lat="49.81902" lon="2.31916">
        <ele>109.1</ele>
        <time>2023-08-10T07:47:48Z</time>
      </trkpt>
      <trkpt lat="49.81904" lon="2.31916">
        <ele>109.1</ele>
        <time>2023-08-10T07:47:49Z</time>
      </trkpt>
      <trkpt lat="49.81905" lon="2.31916">
        <ele>109.1</ele>
        <time>2023-08-10T07:47:50Z</time>
      </trkpt>
      <trkpt lat="49.81907" lon="2.31915">
        <ele>109.1</ele>
        <time>2023-08-10T07:47:52Z</time>
      </trkpt>
      <trkpt lat="49.81908" lon="2.31915">
        <ele>109.1</ele>
        <time>2023-08-10T07:47:53Z</time>
      </trkpt>
      <trkpt lat="49.81909" lon="2.31914">
        <ele>109.1</ele>
        <time>2023-08-10T07:47:54Z</time>
      </trkpt>
      <trkpt lat="49.81911" lon="2.31914">
        <ele>109</ele>
        <time>2023-08-10T07:47:55Z</time>
      </trkpt>
      <trkpt lat="49.81912" lon="2.31914">
        <ele>109</ele>
        <time>2023-08-10T07:47:56Z</time>
      </trkpt>
      <trkpt lat="49.81913" lon="2.31914">
        <ele>109</ele>
        <time>2023-08-10T07:47:57Z</time>
      </trkpt>
      <trkpt lat="49.81915" lon="2.31914">
        <ele>109</ele>
        <time>2023-08-10T07:47:58Z</time>
      </trkpt>
      <trkpt lat="49.81915" lon="2.31914">
        <ele>109</ele>
        <time>2023-08-10T07:47:59Z</time>
      </trkpt>
      <trkpt lat="49.81916" lon="2.31914">
        <ele>109</ele>
        <time>2023-08-10T07:48:00Z</time>
      </trkpt>
      <trkpt lat="49.81918" lon="2.31914">
        <ele>109</ele>
        <time>2023-08-10T07:48:02Z</time>
      </trkpt>
      <trkpt lat="49.81919" lon="2.31914">
        <ele>109</ele>
        <time>2023-08-10T07:48:03Z</time>
      </trkpt>
      <trkpt lat="49.8192" lon="2.31913">
        <ele>109</ele>
        <time>2023-08-10T07:48:04Z</time>
      </trkpt>
      <trkpt lat="49.81922" lon="2.31913">
        <ele>109</ele>
        <time>2023-08-10T07:48:05Z</time>
      </trkpt>
      <trkpt lat="49.81924" lon="2.31912">
        <ele>109</ele>
        <time>2023-08-10T07:48:06Z</time>
      </trkpt>
      <trkpt lat="49.81925" lon="2.31912">
        <ele>109</ele>
        <time>2023-08-10T07:48:07Z</time>
      </trkpt>
      <trkpt lat="49.81925" lon="2.31912">
        <ele>109</ele>
        <time>2023-08-10T07:48:08Z</time>
      </trkpt>
      <trkpt lat="49.81927" lon="2.31911">
        <ele>108.9</ele>
        <time>2023-08-10T07:48:09Z</time>
      </trkpt>
      <trkpt lat="49.81928" lon="2.31911">
        <ele>108.9</ele>
        <time>2023-08-10T07:48:10Z</time>
      </trkpt>
      <trkpt lat="49.81929" lon="2.3191">
        <ele>108.9</ele>
        <time>2023-08-10T07:48:11Z</time>
      </trkpt>
      <trkpt lat="49.81931" lon="2.31909">
        <ele>108.9</ele>
        <time>2023-08-10T07:48:13Z</time>
      </trkpt>
      <trkpt lat="49.81932" lon="2.31909">
        <ele>108.9</ele>
        <time>2023-08-10T07:48:14Z</time>
      </trkpt>
      <trkpt lat="49.81933" lon="2.31908">
        <ele>108.9</ele>
        <time>2023-08-10T07:48:15Z</time>
      </trkpt>
      <trkpt lat="49.81934" lon="2.31908">
        <ele>108.9</ele>
        <time>2023-08-10T07:48:16Z</time>
      </trkpt>
      <trkpt lat="49.81935" lon="2.31907">
        <ele>108.9</ele>
        <time>2023-08-10T07:48:17Z</time>
      </trkpt>
      <trkpt lat="49.81936" lon="2.31907">
        <ele>108.9</ele>
        <time>2023-08-10T07:48:18Z</time>
      </trkpt>
      <trkpt lat="49.81937" lon="2.31907">
        <ele>108.9</ele>
        <time>2023-08-10T07:48:19Z</time>
      </trkpt>
      <trkpt lat="49.81938" lon="2.31907">
        <ele>108.9</ele>
        <time>2023-08-10T07:48:20Z</time>
      </trkpt>
      <trkpt lat="49.81939" lon="2.31907">
        <ele>108.9</ele>
        <time>2023-08-10T07:48:21Z</time>
      </trkpt>
      <trkpt lat="49.81941" lon="2.31907">
        <ele>108.8</ele>
        <time>2023-08-10T07:48:22Z</time>
      </trkpt>
      <trkpt lat="49.81942" lon="2.31907">
        <ele>108.8</ele>
        <time>2023-08-10T07:48:24Z</time>
      </trkpt>
      <trkpt lat="49.81943" lon="2.31907">
        <ele>108.8</ele>
        <time>2023-08-10T07:48:25Z</time>
      </trkpt>
      <trkpt lat="49.81944" lon="2.31907">
        <ele>108.8</ele>
        <time>2023-08-10T07:48:26Z</time>
      </trkpt>
      <trkpt lat="49.81946" lon="2.31908">
        <ele>108.8</ele>
        <time>2023-08-10T07:48:27Z</time>
      </trkpt>
      <trkpt lat="49.81947" lon="2.31908">
        <ele>108.8</ele>
        <time>2023-08-10T07:48:28Z</time>
      </trkpt>
      <trkpt lat="49.81949" lon="2.31908">
        <ele>108.8</ele>
        <time>2023-08-10T07:48:29Z</time>
      </trkpt>
      <trkpt lat="49.8195" lon="2.31909">
        <ele>108.8</ele>
        <time>2023-08-10T07:48:31Z</time>
      </trkpt>
      <trkpt lat="49.81952" lon="2.31909">
        <ele>108.8</ele>
        <time>2023-08-10T07:48:32Z</time>
      </trkpt>
      <trkpt lat="49.81953" lon="2.31909">
        <ele>108.8</ele>
        <time>2023-08-10T07:48:33Z</time>
      </trkpt>
      <trkpt lat="49.81955" lon="2.3191">
        <ele>108.8</ele>
        <time>2023-08-10T07:48:34Z</time>
      </trkpt>
      <trkpt lat="49.81956" lon="2.3191">
        <ele>108.8</ele>
        <time>2023-08-10T07:48:35Z</time>
      </trkpt>
      <trkpt lat="49.81958" lon="2.3191">
        <ele>108.8</ele>
        <time>2023-08-10T07:48:36Z</time>
      </trkpt>
      <trkpt lat="49.81959" lon="2.31911">
        <ele>108.8</ele>
        <time>2023-08-10T07:48:37Z</time>
      </trkpt>
      <trkpt lat="49.81961" lon="2.31911">
        <ele>108.8</ele>
        <time>2023-08-10T07:48:39Z</time>
      </trkpt>
      <trkpt lat="49.81963" lon="2.31911">
        <ele>108.8</ele>
        <time>2023-08-10T07:48:40Z</time>
      </trkpt>
      <trkpt lat="49.81964" lon="2.31911">
        <ele>108.8</ele>
        <time>2023-08-10T07:48:41Z</time>
      </trkpt>
      <trkpt lat="49.81966" lon="2.31911">
        <ele>108.8</ele>
        <time>2023-08-10T07:48:42Z</time>
      </trkpt>
      <trkpt lat="49.81967" lon="2.3191">
        <ele>108.8</ele>
        <time>2023-08-10T07:48:43Z</time>
      </trkpt>
      <trkpt lat="49.81968" lon="2.3191">
        <ele>108.8</ele>
        <time>2023-08-10T07:48:44Z</time>
      </trkpt>
      <trkpt lat="49.8197" lon="2.3191">
        <ele>108.8</ele>
        <time>2023-08-10T07:48:45Z</time>
      </trkpt>
      <trkpt lat="49.81972" lon="2.31909">
        <ele>108.8</ele>
        <time>2023-08-10T07:48:46Z</time>
      </trkpt>
      <trkpt lat="49.81973" lon="2.31909">
        <ele>108.8</ele>
        <time>2023-08-10T07:48:47Z</time>
      </trkpt>
      <trkpt lat="49.81973" lon="2.31909">
        <ele>108.8</ele>
        <time>2023-08-10T07:48:48Z</time>
      </trkpt>
      <trkpt lat="49.81975" lon="2.31909">
        <ele>108.8</ele>
        <time>2023-08-10T07:48:49Z</time>
      </trkpt>
      <trkpt lat="49.81976" lon="2.31909">
        <ele>108.9</ele>
        <time>2023-08-10T07:48:50Z</time>
      </trkpt>
      <trkpt lat="49.81977" lon="2.31908">
        <ele>108.9</ele>
        <time>2023-08-10T07:48:52Z</time>
      </trkpt>
      <trkpt lat="49.81979" lon="2.31908">
        <ele>108.9</ele>
        <time>2023-08-10T07:48:53Z</time>
      </trkpt>
      <trkpt lat="49.8198" lon="2.31907">
        <ele>108.9</ele>
        <time>2023-08-10T07:48:54Z</time>
      </trkpt>
      <trkpt lat="49.81982" lon="2.31907">
        <ele>108.9</ele>
        <time>2023-08-10T07:48:55Z</time>
      </trkpt>
      <trkpt lat="49.81983" lon="2.31906">
        <ele>108.9</ele>
        <time>2023-08-10T07:48:56Z</time>
      </trkpt>
      <trkpt lat="49.81984" lon="2.31906">
        <ele>108.9</ele>
        <time>2023-08-10T07:48:57Z</time>
      </trkpt>
      <trkpt lat="49.81985" lon="2.31905">
        <ele>108.9</ele>
        <time>2023-08-10T07:48:58Z</time>
      </trkpt>
      <trkpt lat="49.81986" lon="2.31904">
        <ele>108.9</ele>
        <time>2023-08-10T07:48:59Z</time>
      </trkpt>
      <trkpt lat="49.81988" lon="2.31904">
        <ele>108.9</ele>
        <time>2023-08-10T07:49:00Z</time>
      </trkpt>
      <trkpt lat="49.81989" lon="2.31903">
        <ele>108.9</ele>
        <time>2023-08-10T07:49:01Z</time>
      </trkpt>
      <trkpt lat="49.8199" lon="2.31903">
        <ele>108.9</ele>
        <time>2023-08-10T07:49:02Z</time>
      </trkpt>
      <trkpt lat="49.81992" lon="2.31903">
        <ele>108.9</ele>
        <time>2023-08-10T07:49:03Z</time>
      </trkpt>
      <trkpt lat="49.81993" lon="2.31902">
        <ele>108.9</ele>
        <time>2023-08-10T07:49:05Z</time>
      </trkpt>
      <trkpt lat="49.81994" lon="2.31902">
        <ele>108.9</ele>
        <time>2023-08-10T07:49:06Z</time>
      </trkpt>
      <trkpt lat="49.81996" lon="2.31901">
        <ele>108.9</ele>
        <time>2023-08-10T07:49:07Z</time>
      </trkpt>
      <trkpt lat="49.81997" lon="2.31901">
        <ele>108.9</ele>
        <time>2023-08-10T07:49:08Z</time>
      </trkpt>
      <trkpt lat="49.81997" lon="2.319">
        <ele>108.9</ele>
        <time>2023-08-10T07:49:09Z</time>
      </trkpt>
      <trkpt lat="49.81999" lon="2.31899">
        <ele>108.9</ele>
        <time>2023-08-10T07:49:10Z</time>
      </trkpt>
      <trkpt lat="49.82" lon="2.31899">
        <ele>108.9</ele>
        <time>2023-08-10T07:49:11Z</time>
      </trkpt>
      <trkpt lat="49.82001" lon="2.31898">
        <ele>108.9</ele>
        <time>2023-08-10T07:49:12Z</time>
      </trkpt>
      <trkpt lat="49.82003" lon="2.31897">
        <ele>108.9</ele>
        <time>2023-08-10T07:49:13Z</time>
      </trkpt>
      <trkpt lat="49.82004" lon="2.31897">
        <ele>108.9</ele>
        <time>2023-08-10T07:49:14Z</time>
      </trkpt>
      <trkpt lat="49.82005" lon="2.31897">
        <ele>108.9</ele>
        <time>2023-08-10T07:49:15Z</time>
      </trkpt>
      <trkpt lat="49.82007" lon="2.31896">
        <ele>108.9</ele>
        <time>2023-08-10T07:49:17Z</time>
      </trkpt>
      <trkpt lat="49.82008" lon="2.31896">
        <ele>108.9</ele>
        <time>2023-08-10T07:49:18Z</time>
      </trkpt>
      <trkpt lat="49.82008" lon="2.31896">
        <ele>108.9</ele>
        <time>2023-08-10T07:49:19Z</time>
      </trkpt>
      <trkpt lat="49.8201" lon="2.31895">
        <ele>108.9</ele>
        <time>2023-08-10T07:49:20Z</time>
      </trkpt>
      <trkpt lat="49.82011" lon="2.31895">
        <ele>108.9</ele>
        <time>2023-08-10T07:49:21Z</time>
      </trkpt>
      <trkpt lat="49.82012" lon="2.31895">
        <ele>108.9</ele>
        <time>2023-08-10T07:49:22Z</time>
      </trkpt>
      <trkpt lat="49.82014" lon="2.31894">
        <ele>108.9</ele>
        <time>2023-08-10T07:49:23Z</time>
      </trkpt>
      <trkpt lat="49.82015" lon="2.31894">
        <ele>108.9</ele>
        <time>2023-08-10T07:49:24Z</time>
      </trkpt>
      <trkpt lat="49.82015" lon="2.31894">
        <ele>108.9</ele>
        <time>2023-08-10T07:49:25Z</time>
      </trkpt>
      <trkpt lat="49.82018" lon="2.31894">
        <ele>108.9</ele>
        <time>2023-08-10T07:49:26Z</time>
      </trkpt>
      <trkpt lat="49.82018" lon="2.31894">
        <ele>108.9</ele>
        <time>2023-08-10T07:49:28Z</time>
      </trkpt>
      <trkpt lat="49.82019" lon="2.31894">
        <ele>108.9</ele>
        <time>2023-08-10T07:49:29Z</time>
      </trkpt>
      <trkpt lat="49.8202" lon="2.31894">
        <ele>108.9</ele>
        <time>2023-08-10T07:49:30Z</time>
      </trkpt>
      <trkpt lat="49.82021" lon="2.31894">
        <ele>108.9</ele>
        <time>2023-08-10T07:49:31Z</time>
      </trkpt>
      <trkpt lat="49.82023" lon="2.31894">
        <ele>108.9</ele>
        <time>2023-08-10T07:49:32Z</time>
      </trkpt>
      <trkpt lat="49.82025" lon="2.31893">
        <ele>108.9</ele>
        <time>2023-08-10T07:49:33Z</time>
      </trkpt>
      <trkpt lat="49.82026" lon="2.31893">
        <ele>108.9</ele>
        <time>2023-08-10T07:49:35Z</time>
      </trkpt>
      <trkpt lat="49.82027" lon="2.31893">
        <ele>108.9</ele>
        <time>2023-08-10T07:49:36Z</time>
      </trkpt>
      <trkpt lat="49.82028" lon="2.31892">
        <ele>108.9</ele>
        <time>2023-08-10T07:49:37Z</time>
      </trkpt>
      <trkpt lat="49.82029" lon="2.31892">
        <ele>108.9</ele>
        <time>2023-08-10T07:49:38Z</time>
      </trkpt>
      <trkpt lat="49.8203" lon="2.31891">
        <ele>108.9</ele>
        <time>2023-08-10T07:49:39Z</time>
      </trkpt>
      <trkpt lat="49.82031" lon="2.31891">
        <ele>108.9</ele>
        <time>2023-08-10T07:49:40Z</time>
      </trkpt>
      <trkpt lat="49.82032" lon="2.3189">
        <ele>108.9</ele>
        <time>2023-08-10T07:49:41Z</time>
      </trkpt>
      <trkpt lat="49.82034" lon="2.3189">
        <ele>108.9</ele>
        <time>2023-08-10T07:49:43Z</time>
      </trkpt>
      <trkpt lat="49.82036" lon="2.31889">
        <ele>108.9</ele>
        <time>2023-08-10T07:49:44Z</time>
      </trkpt>
      <trkpt lat="49.82037" lon="2.31888">
        <ele>108.9</ele>
        <time>2023-08-10T07:49:45Z</time>
      </trkpt>
      <trkpt lat="49.82037" lon="2.31888">
        <ele>108.9</ele>
        <time>2023-08-10T07:49:46Z</time>
      </trkpt>
      <trkpt lat="49.82039" lon="2.31887">
        <ele>108.9</ele>
        <time>2023-08-10T07:49:47Z</time>
      </trkpt>
      <trkpt lat="49.8204" lon="2.31887">
        <ele>108.9</ele>
        <time>2023-08-10T07:49:49Z</time>
      </trkpt>
      <trkpt lat="49.82041" lon="2.31887">
        <ele>108.9</ele>
        <time>2023-08-10T07:49:50Z</time>
      </trkpt>
      <trkpt lat="49.82041" lon="2.31886">
        <ele>108.9</ele>
        <time>2023-08-10T07:49:51Z</time>
      </trkpt>
      <trkpt lat="49.82042" lon="2.31886">
        <ele>108.9</ele>
        <time>2023-08-10T07:49:52Z</time>
      </trkpt>
      <trkpt lat="49.82043" lon="2.31886">
        <ele>108.9</ele>
        <time>2023-08-10T07:49:53Z</time>
      </trkpt>
      <trkpt lat="49.82044" lon="2.31886">
        <ele>108.9</ele>
        <time>2023-08-10T07:49:54Z</time>
      </trkpt>
      <trkpt lat="49.82045" lon="2.31885">
        <ele>108.9</ele>
        <time>2023-08-10T07:49:55Z</time>
      </trkpt>
      <trkpt lat="49.82046" lon="2.31885">
        <ele>108.9</ele>
        <time>2023-08-10T07:49:56Z</time>
      </trkpt>
      <trkpt lat="49.82048" lon="2.31885">
        <ele>108.9</ele>
        <time>2023-08-10T07:49:58Z</time>
      </trkpt>
      <trkpt lat="49.82049" lon="2.31884">
        <ele>108.9</ele>
        <time>2023-08-10T07:49:59Z</time>
      </trkpt>
      <trkpt lat="49.8205" lon="2.31884">
        <ele>108.9</ele>
        <time>2023-08-10T07:50:00Z</time>
      </trkpt>
      <trkpt lat="49.82051" lon="2.31884">
        <ele>108.9</ele>
        <time>2023-08-10T07:50:01Z</time>
      </trkpt>
      <trkpt lat="49.82052" lon="2.31884">
        <ele>108.9</ele>
        <time>2023-08-10T07:50:02Z</time>
      </trkpt>
      <trkpt lat="49.82053" lon="2.31883">
        <ele>108.9</ele>
        <time>2023-08-10T07:50:04Z</time>
      </trkpt>
      <trkpt lat="49.82055" lon="2.31883">
        <ele>108.9</ele>
        <time>2023-08-10T07:50:05Z</time>
      </trkpt>
      <trkpt lat="49.82056" lon="2.31882">
        <ele>108.9</ele>
        <time>2023-08-10T07:50:06Z</time>
      </trkpt>
      <trkpt lat="49.82057" lon="2.31882">
        <ele>108.9</ele>
        <time>2023-08-10T07:50:07Z</time>
      </trkpt>
      <trkpt lat="49.82059" lon="2.31882">
        <ele>108.9</ele>
        <time>2023-08-10T07:50:08Z</time>
      </trkpt>
      <trkpt lat="49.8206" lon="2.31882">
        <ele>108.9</ele>
        <time>2023-08-10T07:50:10Z</time>
      </trkpt>
      <trkpt lat="49.82061" lon="2.31881">
        <ele>108.9</ele>
        <time>2023-08-10T07:50:11Z</time>
      </trkpt>
      <trkpt lat="49.82062" lon="2.31881">
        <ele>108.9</ele>
        <time>2023-08-10T07:50:12Z</time>
      </trkpt>
      <trkpt lat="49.82063" lon="2.31881">
        <ele>108.9</ele>
        <time>2023-08-10T07:50:13Z</time>
      </trkpt>
      <trkpt lat="49.82064" lon="2.31881">
        <ele>108.9</ele>
        <time>2023-08-10T07:50:14Z</time>
      </trkpt>
      <trkpt lat="49.82065" lon="2.3188">
        <ele>108.9</ele>
        <time>2023-08-10T07:50:15Z</time>
      </trkpt>
      <trkpt lat="49.82066" lon="2.3188">
        <ele>108.9</ele>
        <time>2023-08-10T07:50:16Z</time>
      </trkpt>
      <trkpt lat="49.82068" lon="2.31879">
        <ele>108.9</ele>
        <time>2023-08-10T07:50:17Z</time>
      </trkpt>
      <trkpt lat="49.82069" lon="2.31879">
        <ele>108.9</ele>
        <time>2023-08-10T07:50:18Z</time>
      </trkpt>
      <trkpt lat="49.82071" lon="2.31878">
        <ele>108.9</ele>
        <time>2023-08-10T07:50:20Z</time>
      </trkpt>
      <trkpt lat="49.82072" lon="2.31878">
        <ele>108.9</ele>
        <time>2023-08-10T07:50:21Z</time>
      </trkpt>
      <trkpt lat="49.82073" lon="2.31878">
        <ele>108.9</ele>
        <time>2023-08-10T07:50:22Z</time>
      </trkpt>
      <trkpt lat="49.82074" lon="2.31877">
        <ele>109</ele>
        <time>2023-08-10T07:50:23Z</time>
      </trkpt>
      <trkpt lat="49.82075" lon="2.31877">
        <ele>109</ele>
        <time>2023-08-10T07:50:24Z</time>
      </trkpt>
      <trkpt lat="49.82076" lon="2.31876">
        <ele>109</ele>
        <time>2023-08-10T07:50:26Z</time>
      </trkpt>
      <trkpt lat="49.82077" lon="2.31876">
        <ele>109</ele>
        <time>2023-08-10T07:50:27Z</time>
      </trkpt>
      <trkpt lat="49.82079" lon="2.31875">
        <ele>109</ele>
        <time>2023-08-10T07:50:28Z</time>
      </trkpt>
      <trkpt lat="49.8208" lon="2.31875">
        <ele>109</ele>
        <time>2023-08-10T07:50:29Z</time>
      </trkpt>
      <trkpt lat="49.82081" lon="2.31875">
        <ele>109</ele>
        <time>2023-08-10T07:50:30Z</time>
      </trkpt>
      <trkpt lat="49.82082" lon="2.31875">
        <ele>109</ele>
        <time>2023-08-10T07:50:31Z</time>
      </trkpt>
      <trkpt lat="49.82083" lon="2.31875">
        <ele>109</ele>
        <time>2023-08-10T07:50:32Z</time>
      </trkpt>
      <trkpt lat="49.82084" lon="2.31875">
        <ele>109</ele>
        <time>2023-08-10T07:50:33Z</time>
      </trkpt>
      <trkpt lat="49.82085" lon="2.31875">
        <ele>109</ele>
        <time>2023-08-10T07:50:35Z</time>
      </trkpt>
      <trkpt lat="49.82086" lon="2.31875">
        <ele>109</ele>
        <time>2023-08-10T07:50:36Z</time>
      </trkpt>
      <trkpt lat="49.82087" lon="2.31875">
        <ele>109</ele>
        <time>2023-08-10T07:50:37Z</time>
      </trkpt>
      <trkpt lat="49.82089" lon="2.31874">
        <ele>109</ele>
        <time>2023-08-10T07:50:38Z</time>
      </trkpt>
      <trkpt lat="49.8209" lon="2.31874">
        <ele>109</ele>
        <time>2023-08-10T07:50:39Z</time>
      </trkpt>
      <trkpt lat="49.82091" lon="2.31874">
        <ele>109</ele>
        <time>2023-08-10T07:50:40Z</time>
      </trkpt>
      <trkpt lat="49.82092" lon="2.31873">
        <ele>109</ele>
        <time>2023-08-10T07:50:41Z</time>
      </trkpt>
      <trkpt lat="49.82094" lon="2.31873">
        <ele>109</ele>
        <time>2023-08-10T07:50:42Z</time>
      </trkpt>
      <trkpt lat="49.82095" lon="2.31872">
        <ele>109</ele>
        <time>2023-08-10T07:50:43Z</time>
      </trkpt>
      <trkpt lat="49.82097" lon="2.31872">
        <ele>109</ele>
        <time>2023-08-10T07:50:44Z</time>
      </trkpt>
      <trkpt lat="49.82098" lon="2.31872">
        <ele>109</ele>
        <time>2023-08-10T07:50:46Z</time>
      </trkpt>
      <trkpt lat="49.82099" lon="2.31871">
        <ele>109</ele>
        <time>2023-08-10T07:50:47Z</time>
      </trkpt>
      <trkpt lat="49.821" lon="2.31871">
        <ele>109</ele>
        <time>2023-08-10T07:50:48Z</time>
      </trkpt>
      <trkpt lat="49.82101" lon="2.31871">
        <ele>109</ele>
        <time>2023-08-10T07:50:49Z</time>
      </trkpt>
      <trkpt lat="49.82103" lon="2.3187">
        <ele>109</ele>
        <time>2023-08-10T07:50:50Z</time>
      </trkpt>
      <trkpt lat="49.82104" lon="2.3187">
        <ele>109</ele>
        <time>2023-08-10T07:50:51Z</time>
      </trkpt>
      <trkpt lat="49.82106" lon="2.31869">
        <ele>109</ele>
        <time>2023-08-10T07:50:52Z</time>
      </trkpt>
      <trkpt lat="49.82107" lon="2.31869">
        <ele>109</ele>
        <time>2023-08-10T07:50:53Z</time>
      </trkpt>
      <trkpt lat="49.82108" lon="2.31869">
        <ele>109</ele>
        <time>2023-08-10T07:50:55Z</time>
      </trkpt>
      <trkpt lat="49.82109" lon="2.31868">
        <ele>109</ele>
        <time>2023-08-10T07:50:56Z</time>
      </trkpt>
      <trkpt lat="49.8211" lon="2.31868">
        <ele>108.9</ele>
        <time>2023-08-10T07:50:57Z</time>
      </trkpt>
      <trkpt lat="49.82111" lon="2.31868">
        <ele>108.9</ele>
        <time>2023-08-10T07:50:58Z</time>
      </trkpt>
      <trkpt lat="49.82112" lon="2.31868">
        <ele>108.9</ele>
        <time>2023-08-10T07:50:59Z</time>
      </trkpt>
      <trkpt lat="49.82114" lon="2.31867">
        <ele>108.9</ele>
        <time>2023-08-10T07:51:00Z</time>
      </trkpt>
      <trkpt lat="49.82115" lon="2.31867">
        <ele>108.9</ele>
        <time>2023-08-10T07:51:01Z</time>
      </trkpt>
      <trkpt lat="49.82116" lon="2.31866">
        <ele>108.9</ele>
        <time>2023-08-10T07:51:02Z</time>
      </trkpt>
      <trkpt lat="49.82117" lon="2.31866">
        <ele>108.9</ele>
        <time>2023-08-10T07:51:04Z</time>
      </trkpt>
      <trkpt lat="49.82118" lon="2.31866">
        <ele>108.9</ele>
        <time>2023-08-10T07:51:05Z</time>
      </trkpt>
      <trkpt lat="49.82119" lon="2.31865">
        <ele>108.9</ele>
        <time>2023-08-10T07:51:06Z</time>
      </trkpt>
      <trkpt lat="49.82121" lon="2.31864">
        <ele>108.9</ele>
        <time>2023-08-10T07:51:07Z</time>
      </trkpt>
      <trkpt lat="49.82122" lon="2.31864">
        <ele>108.9</ele>
        <time>2023-08-10T07:51:08Z</time>
      </trkpt>
      <trkpt lat="49.82123" lon="2.31864">
        <ele>108.8</ele>
        <time>2023-08-10T07:51:09Z</time>
      </trkpt>
      <trkpt lat="49.82125" lon="2.31864">
        <ele>108.8</ele>
        <time>2023-08-10T07:51:11Z</time>
      </trkpt>
      <trkpt lat="49.82126" lon="2.31863">
        <ele>108.8</ele>
        <time>2023-08-10T07:51:13Z</time>
      </trkpt>
      <trkpt lat="49.82127" lon="2.31863">
        <ele>108.8</ele>
        <time>2023-08-10T07:51:14Z</time>
      </trkpt>
      <trkpt lat="49.8213" lon="2.31862">
        <ele>108.8</ele>
        <time>2023-08-10T07:51:15Z</time>
      </trkpt>
      <trkpt lat="49.8213" lon="2.31861">
        <ele>108.8</ele>
        <time>2023-08-10T07:51:16Z</time>
      </trkpt>
      <trkpt lat="49.82131" lon="2.31861">
        <ele>108.8</ele>
        <time>2023-08-10T07:51:17Z</time>
      </trkpt>
      <trkpt lat="49.82133" lon="2.3186">
        <ele>108.8</ele>
        <time>2023-08-10T07:51:18Z</time>
      </trkpt>
      <trkpt lat="49.82134" lon="2.3186">
        <ele>108.8</ele>
        <time>2023-08-10T07:51:19Z</time>
      </trkpt>
      <trkpt lat="49.82135" lon="2.3186">
        <ele>108.8</ele>
        <time>2023-08-10T07:51:20Z</time>
      </trkpt>
      <trkpt lat="49.82137" lon="2.31858">
        <ele>108.8</ele>
        <time>2023-08-10T07:51:21Z</time>
      </trkpt>
      <trkpt lat="49.82138" lon="2.31858">
        <ele>108.8</ele>
        <time>2023-08-10T07:51:23Z</time>
      </trkpt>
      <trkpt lat="49.82139" lon="2.31857">
        <ele>108.8</ele>
        <time>2023-08-10T07:51:24Z</time>
      </trkpt>
      <trkpt lat="49.82141" lon="2.31857">
        <ele>108.8</ele>
        <time>2023-08-10T07:51:25Z</time>
      </trkpt>
      <trkpt lat="49.82142" lon="2.31856">
        <ele>108.8</ele>
        <time>2023-08-10T07:51:26Z</time>
      </trkpt>
      <trkpt lat="49.82143" lon="2.31856">
        <ele>108.8</ele>
        <time>2023-08-10T07:51:27Z</time>
      </trkpt>
      <trkpt lat="49.82144" lon="2.31856">
        <ele>108.8</ele>
        <time>2023-08-10T07:51:28Z</time>
      </trkpt>
      <trkpt lat="49.82145" lon="2.31856">
        <ele>108.8</ele>
        <time>2023-08-10T07:51:29Z</time>
      </trkpt>
      <trkpt lat="49.82147" lon="2.31856">
        <ele>108.9</ele>
        <time>2023-08-10T07:51:30Z</time>
      </trkpt>
      <trkpt lat="49.82148" lon="2.31856">
        <ele>108.9</ele>
        <time>2023-08-10T07:51:31Z</time>
      </trkpt>
      <trkpt lat="49.82149" lon="2.31856">
        <ele>108.9</ele>
        <time>2023-08-10T07:51:33Z</time>
      </trkpt>
      <trkpt lat="49.8215" lon="2.31856">
        <ele>108.9</ele>
        <time>2023-08-10T07:51:34Z</time>
      </trkpt>
      <trkpt lat="49.82151" lon="2.31856">
        <ele>108.9</ele>
        <time>2023-08-10T07:51:35Z</time>
      </trkpt>
      <trkpt lat="49.82152" lon="2.31855">
        <ele>108.9</ele>
        <time>2023-08-10T07:51:36Z</time>
      </trkpt>
      <trkpt lat="49.82153" lon="2.31855">
        <ele>108.9</ele>
        <time>2023-08-10T07:51:37Z</time>
      </trkpt>
      <trkpt lat="49.82155" lon="2.31855">
        <ele>108.9</ele>
        <time>2023-08-10T07:51:38Z</time>
      </trkpt>
      <trkpt lat="49.82156" lon="2.31855">
        <ele>108.9</ele>
        <time>2023-08-10T07:51:39Z</time>
      </trkpt>
      <trkpt lat="49.82157" lon="2.31855">
        <ele>108.9</ele>
        <time>2023-08-10T07:51:40Z</time>
      </trkpt>
      <trkpt lat="49.82158" lon="2.31855">
        <ele>108.9</ele>
        <time>2023-08-10T07:51:42Z</time>
      </trkpt>
      <trkpt lat="49.82159" lon="2.31855">
        <ele>108.9</ele>
        <time>2023-08-10T07:51:43Z</time>
      </trkpt>
      <trkpt lat="49.8216" lon="2.31855">
        <ele>108.9</ele>
        <time>2023-08-10T07:51:44Z</time>
      </trkpt>
      <trkpt lat="49.82161" lon="2.31854">
        <ele>108.9</ele>
        <time>2023-08-10T07:51:45Z</time>
      </trkpt>
      <trkpt lat="49.82162" lon="2.31854">
        <ele>108.9</ele>
        <time>2023-08-10T07:51:46Z</time>
      </trkpt>
      <trkpt lat="49.82164" lon="2.31854">
        <ele>108.9</ele>
        <time>2023-08-10T07:51:47Z</time>
      </trkpt>
      <trkpt lat="49.82165" lon="2.31853">
        <ele>108.9</ele>
        <time>2023-08-10T07:51:49Z</time>
      </trkpt>
      <trkpt lat="49.82166" lon="2.31853">
        <ele>108.9</ele>
        <time>2023-08-10T07:51:50Z</time>
      </trkpt>
      <trkpt lat="49.82167" lon="2.31853">
        <ele>108.9</ele>
        <time>2023-08-10T07:51:51Z</time>
      </trkpt>
      <trkpt lat="49.82168" lon="2.31852">
        <ele>108.9</ele>
        <time>2023-08-10T07:51:52Z</time>
      </trkpt>
      <trkpt lat="49.82169" lon="2.31852">
        <ele>108.9</ele>
        <time>2023-08-10T07:51:53Z</time>
      </trkpt>
      <trkpt lat="49.82171" lon="2.31852">
        <ele>108.9</ele>
        <time>2023-08-10T07:51:54Z</time>
      </trkpt>
      <trkpt lat="49.82172" lon="2.31852">
        <ele>108.9</ele>
        <time>2023-08-10T07:51:55Z</time>
      </trkpt>
      <trkpt lat="49.82173" lon="2.31852">
        <ele>108.9</ele>
        <time>2023-08-10T07:51:56Z</time>
      </trkpt>
      <trkpt lat="49.82174" lon="2.31852">
        <ele>108.9</ele>
        <time>2023-08-10T07:51:58Z</time>
      </trkpt>
      <trkpt lat="49.82175" lon="2.31851">
        <ele>108.9</ele>
        <time>2023-08-10T07:51:59Z</time>
      </trkpt>
      <trkpt lat="49.82176" lon="2.31851">
        <ele>108.9</ele>
        <time>2023-08-10T07:52:00Z</time>
      </trkpt>
      <trkpt lat="49.82177" lon="2.31851">
        <ele>108.9</ele>
        <time>2023-08-10T07:52:01Z</time>
      </trkpt>
      <trkpt lat="49.82178" lon="2.3185">
        <ele>108.8</ele>
        <time>2023-08-10T07:52:02Z</time>
      </trkpt>
      <trkpt lat="49.8218" lon="2.3185">
        <ele>108.8</ele>
        <time>2023-08-10T07:52:03Z</time>
      </trkpt>
      <trkpt lat="49.82182" lon="2.3185">
        <ele>108.8</ele>
        <time>2023-08-10T07:52:04Z</time>
      </trkpt>
      <trkpt lat="49.82183" lon="2.31849">
        <ele>108.8</ele>
        <time>2023-08-10T07:52:05Z</time>
      </trkpt>
      <trkpt lat="49.82183" lon="2.31849">
        <ele>108.8</ele>
        <time>2023-08-10T07:52:06Z</time>
      </trkpt>
      <trkpt lat="49.82186" lon="2.31849">
        <ele>108.8</ele>
        <time>2023-08-10T07:52:07Z</time>
      </trkpt>
      <trkpt lat="49.82186" lon="2.31849">
        <ele>108.8</ele>
        <time>2023-08-10T07:52:09Z</time>
      </trkpt>
      <trkpt lat="49.82187" lon="2.31849">
        <ele>108.8</ele>
        <time>2023-08-10T07:52:10Z</time>
      </trkpt>
      <trkpt lat="49.82189" lon="2.31849">
        <ele>108.8</ele>
        <time>2023-08-10T07:52:11Z</time>
      </trkpt>
      <trkpt lat="49.8219" lon="2.31848">
        <ele>108.8</ele>
        <time>2023-08-10T07:52:12Z</time>
      </trkpt>
      <trkpt lat="49.82191" lon="2.31848">
        <ele>108.8</ele>
        <time>2023-08-10T07:52:13Z</time>
      </trkpt>
      <trkpt lat="49.82193" lon="2.31847">
        <ele>108.8</ele>
        <time>2023-08-10T07:52:14Z</time>
      </trkpt>
      <trkpt lat="49.82195" lon="2.31847">
        <ele>108.8</ele>
        <time>2023-08-10T07:52:16Z</time>
      </trkpt>
      <trkpt lat="49.82196" lon="2.31846">
        <ele>108.8</ele>
        <time>2023-08-10T07:52:17Z</time>
      </trkpt>
      <trkpt lat="49.82197" lon="2.31846">
        <ele>108.8</ele>
        <time>2023-08-10T07:52:18Z</time>
      </trkpt>
      <trkpt lat="49.82198" lon="2.31845">
        <ele>108.8</ele>
        <time>2023-08-10T07:52:19Z</time>
      </trkpt>
      <trkpt lat="49.822" lon="2.31845">
        <ele>108.8</ele>
        <time>2023-08-10T07:52:20Z</time>
      </trkpt>
      <trkpt lat="49.82201" lon="2.31845">
        <ele>108.8</ele>
        <time>2023-08-10T07:52:21Z</time>
      </trkpt>
      <trkpt lat="49.82202" lon="2.31844">
        <ele>108.8</ele>
        <time>2023-08-10T07:52:23Z</time>
      </trkpt>
      <trkpt lat="49.82203" lon="2.31844">
        <ele>108.8</ele>
        <time>2023-08-10T07:52:24Z</time>
      </trkpt>
      <trkpt lat="49.82204" lon="2.31844">
        <ele>108.8</ele>
        <time>2023-08-10T07:52:25Z</time>
      </trkpt>
      <trkpt lat="49.82205" lon="2.31844">
        <ele>108.8</ele>
        <time>2023-08-10T07:52:26Z</time>
      </trkpt>
      <trkpt lat="49.82206" lon="2.31843">
        <ele>108.8</ele>
        <time>2023-08-10T07:52:27Z</time>
      </trkpt>
      <trkpt lat="49.82207" lon="2.31843">
        <ele>108.7</ele>
        <time>2023-08-10T07:52:28Z</time>
      </trkpt>
      <trkpt lat="49.82209" lon="2.31843">
        <ele>108.7</ele>
        <time>2023-08-10T07:52:30Z</time>
      </trkpt>
      <trkpt lat="49.8221" lon="2.31843">
        <ele>108.7</ele>
        <time>2023-08-10T07:52:31Z</time>
      </trkpt>
      <trkpt lat="49.82211" lon="2.31843">
        <ele>108.7</ele>
        <time>2023-08-10T07:52:32Z</time>
      </trkpt>
      <trkpt lat="49.82212" lon="2.31843">
        <ele>108.7</ele>
        <time>2023-08-10T07:52:33Z</time>
      </trkpt>
      <trkpt lat="49.82213" lon="2.31843">
        <ele>108.7</ele>
        <time>2023-08-10T07:52:34Z</time>
      </trkpt>
      <trkpt lat="49.82214" lon="2.31843">
        <ele>108.7</ele>
        <time>2023-08-10T07:52:35Z</time>
      </trkpt>
      <trkpt lat="49.82216" lon="2.31842">
        <ele>108.7</ele>
        <time>2023-08-10T07:52:37Z</time>
      </trkpt>
      <trkpt lat="49.82218" lon="2.31842">
        <ele>108.7</ele>
        <time>2023-08-10T07:52:38Z</time>
      </trkpt>
      <trkpt lat="49.82219" lon="2.31842">
        <ele>108.7</ele>
        <time>2023-08-10T07:52:39Z</time>
      </trkpt>
      <trkpt lat="49.8222" lon="2.31842">
        <ele>108.7</ele>
        <time>2023-08-10T07:52:40Z</time>
      </trkpt>
      <trkpt lat="49.82222" lon="2.31841">
        <ele>108.7</ele>
        <time>2023-08-10T07:52:41Z</time>
      </trkpt>
      <trkpt lat="49.82222" lon="2.31841">
        <ele>108.7</ele>
        <time>2023-08-10T07:52:42Z</time>
      </trkpt>
      <trkpt lat="49.82223" lon="2.31841">
        <ele>108.7</ele>
        <time>2023-08-10T07:52:43Z</time>
      </trkpt>
      <trkpt lat="49.82224" lon="2.31841">
        <ele>108.7</ele>
        <time>2023-08-10T07:52:44Z</time>
      </trkpt>
      <trkpt lat="49.82225" lon="2.31841">
        <ele>108.7</ele>
        <time>2023-08-10T07:52:46Z</time>
      </trkpt>
      <trkpt lat="49.82227" lon="2.31841">
        <ele>108.7</ele>
        <time>2023-08-10T07:52:47Z</time>
      </trkpt>
      <trkpt lat="49.82229" lon="2.3184">
        <ele>108.7</ele>
        <time>2023-08-10T07:52:48Z</time>
      </trkpt>
      <trkpt lat="49.8223" lon="2.3184">
        <ele>108.7</ele>
        <time>2023-08-10T07:52:49Z</time>
      </trkpt>
      <trkpt lat="49.82231" lon="2.3184">
        <ele>108.7</ele>
        <time>2023-08-10T07:52:50Z</time>
      </trkpt>
      <trkpt lat="49.82233" lon="2.31839">
        <ele>108.7</ele>
        <time>2023-08-10T07:52:51Z</time>
      </trkpt>
      <trkpt lat="49.82234" lon="2.31839">
        <ele>108.7</ele>
        <time>2023-08-10T07:52:53Z</time>
      </trkpt>
      <trkpt lat="49.82235" lon="2.31839">
        <ele>108.7</ele>
        <time>2023-08-10T07:52:54Z</time>
      </trkpt>
      <trkpt lat="49.82236" lon="2.31838">
        <ele>108.7</ele>
        <time>2023-08-10T07:52:55Z</time>
      </trkpt>
      <trkpt lat="49.82237" lon="2.31838">
        <ele>108.7</ele>
        <time>2023-08-10T07:52:56Z</time>
      </trkpt>
      <trkpt lat="49.82238" lon="2.31838">
        <ele>108.7</ele>
        <time>2023-08-10T07:52:57Z</time>
      </trkpt>
      <trkpt lat="49.8224" lon="2.31837">
        <ele>108.7</ele>
        <time>2023-08-10T07:52:58Z</time>
      </trkpt>
      <trkpt lat="49.82242" lon="2.31837">
        <ele>108.7</ele>
        <time>2023-08-10T07:53:00Z</time>
      </trkpt>
      <trkpt lat="49.82243" lon="2.31837">
        <ele>108.7</ele>
        <time>2023-08-10T07:53:01Z</time>
      </trkpt>
      <trkpt lat="49.82245" lon="2.31836">
        <ele>108.7</ele>
        <time>2023-08-10T07:53:02Z</time>
      </trkpt>
      <trkpt lat="49.82246" lon="2.31836">
        <ele>108.7</ele>
        <time>2023-08-10T07:53:03Z</time>
      </trkpt>
      <trkpt lat="49.82247" lon="2.31836">
        <ele>108.7</ele>
        <time>2023-08-10T07:53:04Z</time>
      </trkpt>
      <trkpt lat="49.82249" lon="2.31835">
        <ele>108.8</ele>
        <time>2023-08-10T07:53:05Z</time>
      </trkpt>
      <trkpt lat="49.82249" lon="2.31835">
        <ele>108.8</ele>
        <time>2023-08-10T07:53:06Z</time>
      </trkpt>
      <trkpt lat="49.8225" lon="2.31834">
        <ele>108.8</ele>
        <time>2023-08-10T07:53:07Z</time>
      </trkpt>
      <trkpt lat="49.82252" lon="2.31834">
        <ele>108.8</ele>
        <time>2023-08-10T07:53:09Z</time>
      </trkpt>
      <trkpt lat="49.82253" lon="2.31834">
        <ele>108.8</ele>
        <time>2023-08-10T07:53:10Z</time>
      </trkpt>
      <trkpt lat="49.82254" lon="2.31833">
        <ele>108.8</ele>
        <time>2023-08-10T07:53:11Z</time>
      </trkpt>
      <trkpt lat="49.82256" lon="2.31833">
        <ele>108.8</ele>
        <time>2023-08-10T07:53:12Z</time>
      </trkpt>
      <trkpt lat="49.82257" lon="2.31833">
        <ele>108.8</ele>
        <time>2023-08-10T07:53:13Z</time>
      </trkpt>
      <trkpt lat="49.82258" lon="2.31832">
        <ele>108.8</ele>
        <time>2023-08-10T07:53:14Z</time>
      </trkpt>
      <trkpt lat="49.82259" lon="2.31832">
        <ele>108.8</ele>
        <time>2023-08-10T07:53:15Z</time>
      </trkpt>
      <trkpt lat="49.8226" lon="2.31831">
        <ele>108.8</ele>
        <time>2023-08-10T07:53:16Z</time>
      </trkpt>
      <trkpt lat="49.82261" lon="2.31831">
        <ele>108.8</ele>
        <time>2023-08-10T07:53:17Z</time>
      </trkpt>
      <trkpt lat="49.82263" lon="2.3183">
        <ele>108.8</ele>
        <time>2023-08-10T07:53:18Z</time>
      </trkpt>
      <trkpt lat="49.82263" lon="2.3183">
        <ele>108.8</ele>
        <time>2023-08-10T07:53:20Z</time>
      </trkpt>
      <trkpt lat="49.82264" lon="2.3183">
        <ele>108.8</ele>
        <time>2023-08-10T07:53:21Z</time>
      </trkpt>
      <trkpt lat="49.82265" lon="2.3183">
        <ele>108.8</ele>
        <time>2023-08-10T07:53:22Z</time>
      </trkpt>
      <trkpt lat="49.82266" lon="2.3183">
        <ele>108.8</ele>
        <time>2023-08-10T07:53:23Z</time>
      </trkpt>
      <trkpt lat="49.82268" lon="2.3183">
        <ele>108.8</ele>
        <time>2023-08-10T07:53:24Z</time>
      </trkpt>
      <trkpt lat="49.8227" lon="2.3183">
        <ele>108.8</ele>
        <time>2023-08-10T07:53:26Z</time>
      </trkpt>
      <trkpt lat="49.82271" lon="2.3183">
        <ele>108.8</ele>
        <time>2023-08-10T07:53:27Z</time>
      </trkpt>
      <trkpt lat="49.82272" lon="2.3183">
        <ele>108.8</ele>
        <time>2023-08-10T07:53:28Z</time>
      </trkpt>
      <trkpt lat="49.82273" lon="2.3183">
        <ele>108.8</ele>
        <time>2023-08-10T07:53:29Z</time>
      </trkpt>
      <trkpt lat="49.82274" lon="2.3183">
        <ele>108.8</ele>
        <time>2023-08-10T07:53:30Z</time>
      </trkpt>
      <trkpt lat="49.82275" lon="2.3183">
        <ele>108.8</ele>
        <time>2023-08-10T07:53:31Z</time>
      </trkpt>
      <trkpt lat="49.82276" lon="2.3183">
        <ele>108.8</ele>
        <time>2023-08-10T07:53:32Z</time>
      </trkpt>
      <trkpt lat="49.82278" lon="2.3183">
        <ele>108.8</ele>
        <time>2023-08-10T07:53:33Z</time>
      </trkpt>
      <trkpt lat="49.82279" lon="2.3183">
        <ele>108.8</ele>
        <time>2023-08-10T07:53:35Z</time>
      </trkpt>
      <trkpt lat="49.8228" lon="2.3183">
        <ele>108.8</ele>
        <time>2023-08-10T07:53:36Z</time>
      </trkpt>
      <trkpt lat="49.82281" lon="2.31831">
        <ele>108.8</ele>
        <time>2023-08-10T07:53:37Z</time>
      </trkpt>
      <trkpt lat="49.82283" lon="2.31831">
        <ele>108.8</ele>
        <time>2023-08-10T07:53:39Z</time>
      </trkpt>
      <trkpt lat="49.82284" lon="2.31831">
        <ele>108.9</ele>
        <time>2023-08-10T07:53:40Z</time>
      </trkpt>
      <trkpt lat="49.82285" lon="2.31831">
        <ele>108.9</ele>
        <time>2023-08-10T07:53:41Z</time>
      </trkpt>
      <trkpt lat="49.82286" lon="2.31831">
        <ele>108.9</ele>
        <time>2023-08-10T07:53:42Z</time>
      </trkpt>
      <trkpt lat="49.82287" lon="2.31831">
        <ele>108.9</ele>
        <time>2023-08-10T07:53:43Z</time>
      </trkpt>
      <trkpt lat="49.82288" lon="2.31831">
        <ele>108.9</ele>
        <time>2023-08-10T07:53:44Z</time>
      </trkpt>
      <trkpt lat="49.8229" lon="2.31831">
        <ele>108.9</ele>
        <time>2023-08-10T07:53:45Z</time>
      </trkpt>
      <trkpt lat="49.82292" lon="2.31831">
        <ele>108.9</ele>
        <time>2023-08-10T07:53:46Z</time>
      </trkpt>
      <trkpt lat="49.82293" lon="2.3183">
        <ele>108.9</ele>
        <time>2023-08-10T07:53:48Z</time>
      </trkpt>
      <trkpt lat="49.82293" lon="2.3183">
        <ele>108.9</ele>
        <time>2023-08-10T07:53:49Z</time>
      </trkpt>
      <trkpt lat="49.82295" lon="2.31829">
        <ele>108.9</ele>
        <time>2023-08-10T07:53:50Z</time>
      </trkpt>
      <trkpt lat="49.82296" lon="2.31829">
        <ele>108.9</ele>
        <time>2023-08-10T07:53:51Z</time>
      </trkpt>
      <trkpt lat="49.82297" lon="2.31828">
        <ele>108.9</ele>
        <time>2023-08-10T07:53:52Z</time>
      </trkpt>
      <trkpt lat="49.82298" lon="2.31828">
        <ele>109</ele>
        <time>2023-08-10T07:53:53Z</time>
      </trkpt>
      <trkpt lat="49.823" lon="2.31827">
        <ele>109</ele>
        <time>2023-08-10T07:53:55Z</time>
      </trkpt>
      <trkpt lat="49.82301" lon="2.31826">
        <ele>109</ele>
        <time>2023-08-10T07:53:56Z</time>
      </trkpt>
      <trkpt lat="49.82303" lon="2.31826">
        <ele>109</ele>
        <time>2023-08-10T07:53:57Z</time>
      </trkpt>
      <trkpt lat="49.82304" lon="2.31825">
        <ele>109</ele>
        <time>2023-08-10T07:53:58Z</time>
      </trkpt>
      <trkpt lat="49.82306" lon="2.31824">
        <ele>109</ele>
        <time>2023-08-10T07:53:59Z</time>
      </trkpt>
      <trkpt lat="49.82308" lon="2.31824">
        <ele>109</ele>
        <time>2023-08-10T07:54:00Z</time>
      </trkpt>
      <trkpt lat="49.82309" lon="2.31823">
        <ele>109</ele>
        <time>2023-08-10T07:54:01Z</time>
      </trkpt>
      <trkpt lat="49.82309" lon="2.31823">
        <ele>109</ele>
        <time>2023-08-10T07:54:02Z</time>
      </trkpt>
      <trkpt lat="49.82312" lon="2.31823">
        <ele>109</ele>
        <time>2023-08-10T07:54:03Z</time>
      </trkpt>
      <trkpt lat="49.82313" lon="2.31823">
        <ele>109</ele>
        <time>2023-08-10T07:54:05Z</time>
      </trkpt>
      <trkpt lat="49.82313" lon="2.31823">
        <ele>109</ele>
        <time>2023-08-10T07:54:06Z</time>
      </trkpt>
      <trkpt lat="49.82316" lon="2.31823">
        <ele>109</ele>
        <time>2023-08-10T07:54:07Z</time>
      </trkpt>
      <trkpt lat="49.82317" lon="2.31823">
        <ele>109</ele>
        <time>2023-08-10T07:54:08Z</time>
      </trkpt>
      <trkpt lat="49.82317" lon="2.31823">
        <ele>109</ele>
        <time>2023-08-10T07:54:09Z</time>
      </trkpt>
      <trkpt lat="49.82319" lon="2.31823">
        <ele>109</ele>
        <time>2023-08-10T07:54:11Z</time>
      </trkpt>
      <trkpt lat="49.8232" lon="2.31822">
        <ele>109</ele>
        <time>2023-08-10T07:54:12Z</time>
      </trkpt>
      <trkpt lat="49.82322" lon="2.31821">
        <ele>109</ele>
        <time>2023-08-10T07:54:13Z</time>
      </trkpt>
      <trkpt lat="49.82323" lon="2.31821">
        <ele>109</ele>
        <time>2023-08-10T07:54:14Z</time>
      </trkpt>
      <trkpt lat="49.82324" lon="2.31821">
        <ele>109</ele>
        <time>2023-08-10T07:54:15Z</time>
      </trkpt>
      <trkpt lat="49.82325" lon="2.3182">
        <ele>109</ele>
        <time>2023-08-10T07:54:16Z</time>
      </trkpt>
      <trkpt lat="49.82326" lon="2.3182">
        <ele>109</ele>
        <time>2023-08-10T07:54:17Z</time>
      </trkpt>
      <trkpt lat="49.82328" lon="2.31819">
        <ele>109.1</ele>
        <time>2023-08-10T07:54:19Z</time>
      </trkpt>
      <trkpt lat="49.8233" lon="2.31819">
        <ele>109.1</ele>
        <time>2023-08-10T07:54:20Z</time>
      </trkpt>
      <trkpt lat="49.82331" lon="2.31819">
        <ele>109.1</ele>
        <time>2023-08-10T07:54:21Z</time>
      </trkpt>
      <trkpt lat="49.82332" lon="2.31819">
        <ele>109.1</ele>
        <time>2023-08-10T07:54:22Z</time>
      </trkpt>
      <trkpt lat="49.82334" lon="2.31818">
        <ele>109.1</ele>
        <time>2023-08-10T07:54:23Z</time>
      </trkpt>
      <trkpt lat="49.82334" lon="2.31818">
        <ele>109.1</ele>
        <time>2023-08-10T07:54:24Z</time>
      </trkpt>
      <trkpt lat="49.82335" lon="2.31818">
        <ele>109.1</ele>
        <time>2023-08-10T07:54:25Z</time>
      </trkpt>
      <trkpt lat="49.82337" lon="2.31817">
        <ele>109.1</ele>
        <time>2023-08-10T07:54:27Z</time>
      </trkpt>
      <trkpt lat="49.82338" lon="2.31817">
        <ele>109.1</ele>
        <time>2023-08-10T07:54:28Z</time>
      </trkpt>
      <trkpt lat="49.8234" lon="2.31816">
        <ele>109.1</ele>
        <time>2023-08-10T07:54:29Z</time>
      </trkpt>
      <trkpt lat="49.82341" lon="2.31816">
        <ele>109.1</ele>
        <time>2023-08-10T07:54:30Z</time>
      </trkpt>
      <trkpt lat="49.82342" lon="2.31815">
        <ele>109.1</ele>
        <time>2023-08-10T07:54:31Z</time>
      </trkpt>
      <trkpt lat="49.82344" lon="2.31815">
        <ele>109.1</ele>
        <time>2023-08-10T07:54:32Z</time>
      </trkpt>
      <trkpt lat="49.82345" lon="2.31814">
        <ele>109.1</ele>
        <time>2023-08-10T07:54:33Z</time>
      </trkpt>
      <trkpt lat="49.82347" lon="2.31814">
        <ele>109.1</ele>
        <time>2023-08-10T07:54:35Z</time>
      </trkpt>
      <trkpt lat="49.82349" lon="2.31813">
        <ele>109.1</ele>
        <time>2023-08-10T07:54:36Z</time>
      </trkpt>
      <trkpt lat="49.8235" lon="2.31813">
        <ele>109.1</ele>
        <time>2023-08-10T07:54:37Z</time>
      </trkpt>
      <trkpt lat="49.82352" lon="2.31813">
        <ele>109.1</ele>
        <time>2023-08-10T07:54:39Z</time>
      </trkpt>
      <trkpt lat="49.82353" lon="2.31812">
        <ele>109.1</ele>
        <time>2023-08-10T07:54:40Z</time>
      </trkpt>
      <trkpt lat="49.82355" lon="2.31812">
        <ele>109.2</ele>
        <time>2023-08-10T07:54:41Z</time>
      </trkpt>
      <trkpt lat="49.82356" lon="2.31812">
        <ele>109.2</ele>
        <time>2023-08-10T07:54:42Z</time>
      </trkpt>
      <trkpt lat="49.82358" lon="2.31812">
        <ele>109.2</ele>
        <time>2023-08-10T07:54:44Z</time>
      </trkpt>
      <trkpt lat="49.82359" lon="2.31813">
        <ele>109.2</ele>
        <time>2023-08-10T07:54:45Z</time>
      </trkpt>
      <trkpt lat="49.8236" lon="2.31813">
        <ele>109.2</ele>
        <time>2023-08-10T07:54:46Z</time>
      </trkpt>
      <trkpt lat="49.82361" lon="2.31813">
        <ele>109.2</ele>
        <time>2023-08-10T07:54:47Z</time>
      </trkpt>
      <trkpt lat="49.82362" lon="2.31813">
        <ele>109.2</ele>
        <time>2023-08-10T07:54:48Z</time>
      </trkpt>
      <trkpt lat="49.82364" lon="2.31812">
        <ele>109.2</ele>
        <time>2023-08-10T07:54:49Z</time>
      </trkpt>
      <trkpt lat="49.82365" lon="2.31812">
        <ele>109.2</ele>
        <time>2023-08-10T07:54:51Z</time>
      </trkpt>
      <trkpt lat="49.82366" lon="2.31811">
        <ele>109.2</ele>
        <time>2023-08-10T07:54:52Z</time>
      </trkpt>
      <trkpt lat="49.82368" lon="2.31811">
        <ele>109.2</ele>
        <time>2023-08-10T07:54:53Z</time>
      </trkpt>
      <trkpt lat="49.82369" lon="2.31811">
        <ele>109.2</ele>
        <time>2023-08-10T07:54:54Z</time>
      </trkpt>
      <trkpt lat="49.8237" lon="2.3181">
        <ele>109.2</ele>
        <time>2023-08-10T07:54:55Z</time>
      </trkpt>
      <trkpt lat="49.82373" lon="2.31809">
        <ele>109.2</ele>
        <time>2023-08-10T07:54:56Z</time>
      </trkpt>
      <trkpt lat="49.82373" lon="2.31809">
        <ele>109.2</ele>
        <time>2023-08-10T07:54:57Z</time>
      </trkpt>
      <trkpt lat="49.82374" lon="2.31809">
        <ele>109.3</ele>
        <time>2023-08-10T07:54:58Z</time>
      </trkpt>
      <trkpt lat="49.82376" lon="2.31808">
        <ele>109.3</ele>
        <time>2023-08-10T07:54:59Z</time>
      </trkpt>
      <trkpt lat="49.82377" lon="2.31808">
        <ele>109.3</ele>
        <time>2023-08-10T07:55:00Z</time>
      </trkpt>
      <trkpt lat="49.82378" lon="2.31807">
        <ele>109.3</ele>
        <time>2023-08-10T07:55:01Z</time>
      </trkpt>
      <trkpt lat="49.8238" lon="2.31807">
        <ele>109.3</ele>
        <time>2023-08-10T07:55:03Z</time>
      </trkpt>
      <trkpt lat="49.82381" lon="2.31806">
        <ele>109.3</ele>
        <time>2023-08-10T07:55:04Z</time>
      </trkpt>
      <trkpt lat="49.82382" lon="2.31806">
        <ele>109.3</ele>
        <time>2023-08-10T07:55:05Z</time>
      </trkpt>
      <trkpt lat="49.82383" lon="2.31806">
        <ele>109.3</ele>
        <time>2023-08-10T07:55:06Z</time>
      </trkpt>
      <trkpt lat="49.82385" lon="2.31805">
        <ele>109.3</ele>
        <time>2023-08-10T07:55:08Z</time>
      </trkpt>
      <trkpt lat="49.82386" lon="2.31805">
        <ele>109.3</ele>
        <time>2023-08-10T07:55:09Z</time>
      </trkpt>
      <trkpt lat="49.82387" lon="2.31804">
        <ele>109.3</ele>
        <time>2023-08-10T07:55:10Z</time>
      </trkpt>
      <trkpt lat="49.82388" lon="2.31804">
        <ele>109.3</ele>
        <time>2023-08-10T07:55:11Z</time>
      </trkpt>
      <trkpt lat="49.82389" lon="2.31804">
        <ele>109.3</ele>
        <time>2023-08-10T07:55:13Z</time>
      </trkpt>
      <trkpt lat="49.8239" lon="2.31803">
        <ele>109.3</ele>
        <time>2023-08-10T07:55:14Z</time>
      </trkpt>
      <trkpt lat="49.82391" lon="2.31802">
        <ele>109.3</ele>
        <time>2023-08-10T07:55:15Z</time>
      </trkpt>
      <trkpt lat="49.82392" lon="2.31802">
        <ele>109.3</ele>
        <time>2023-08-10T07:55:16Z</time>
      </trkpt>
      <trkpt lat="49.82393" lon="2.31801">
        <ele>109.3</ele>
        <time>2023-08-10T07:55:17Z</time>
      </trkpt>
      <trkpt lat="49.82394" lon="2.318">
        <ele>109.3</ele>
        <time>2023-08-10T07:55:18Z</time>
      </trkpt>
      <trkpt lat="49.82395" lon="2.318">
        <ele>109.3</ele>
        <time>2023-08-10T07:55:19Z</time>
      </trkpt>
      <trkpt lat="49.82396" lon="2.31799">
        <ele>109.3</ele>
        <time>2023-08-10T07:55:21Z</time>
      </trkpt>
      <trkpt lat="49.82396" lon="2.31798">
        <ele>109.3</ele>
        <time>2023-08-10T07:55:22Z</time>
      </trkpt>
      <trkpt lat="49.82397" lon="2.31798">
        <ele>109.3</ele>
        <time>2023-08-10T07:55:23Z</time>
      </trkpt>
      <trkpt lat="49.82398" lon="2.31797">
        <ele>109.3</ele>
        <time>2023-08-10T07:55:24Z</time>
      </trkpt>
      <trkpt lat="49.82399" lon="2.31797">
        <ele>109.3</ele>
        <time>2023-08-10T07:55:25Z</time>
      </trkpt>
      <trkpt lat="49.824" lon="2.31796">
        <ele>109.3</ele>
        <time>2023-08-10T07:55:26Z</time>
      </trkpt>
      <trkpt lat="49.824" lon="2.31796">
        <ele>109.3</ele>
        <time>2023-08-10T07:55:27Z</time>
      </trkpt>
      <trkpt lat="49.82402" lon="2.31795">
        <ele>109.3</ele>
        <time>2023-08-10T07:55:29Z</time>
      </trkpt>
      <trkpt lat="49.82403" lon="2.31795">
        <ele>109.3</ele>
        <time>2023-08-10T07:55:30Z</time>
      </trkpt>
      <trkpt lat="49.82405" lon="2.31794">
        <ele>109.2</ele>
        <time>2023-08-10T07:55:31Z</time>
      </trkpt>
      <trkpt lat="49.82406" lon="2.31794">
        <ele>109.2</ele>
        <time>2023-08-10T07:55:32Z</time>
      </trkpt>
      <trkpt lat="49.82407" lon="2.31794">
        <ele>109.2</ele>
        <time>2023-08-10T07:55:33Z</time>
      </trkpt>
      <trkpt lat="49.82409" lon="2.31794">
        <ele>109.2</ele>
        <time>2023-08-10T07:55:34Z</time>
      </trkpt>
      <trkpt lat="49.8241" lon="2.31794">
        <ele>109.2</ele>
        <time>2023-08-10T07:55:35Z</time>
      </trkpt>
      <trkpt lat="49.8241" lon="2.31794">
        <ele>109.2</ele>
        <time>2023-08-10T07:55:36Z</time>
      </trkpt>
      <trkpt lat="49.82413" lon="2.31793">
        <ele>109.2</ele>
        <time>2023-08-10T07:55:38Z</time>
      </trkpt>
      <trkpt lat="49.82414" lon="2.31793">
        <ele>109.2</ele>
        <time>2023-08-10T07:55:39Z</time>
      </trkpt>
      <trkpt lat="49.82414" lon="2.31793">
        <ele>109.2</ele>
        <time>2023-08-10T07:55:40Z</time>
      </trkpt>
      <trkpt lat="49.82416" lon="2.31793">
        <ele>109.2</ele>
        <time>2023-08-10T07:55:41Z</time>
      </trkpt>
      <trkpt lat="49.82417" lon="2.31792">
        <ele>109.2</ele>
        <time>2023-08-10T07:55:42Z</time>
      </trkpt>
      <trkpt lat="49.82419" lon="2.31792">
        <ele>109.2</ele>
        <time>2023-08-10T07:55:43Z</time>
      </trkpt>
      <trkpt lat="49.82421" lon="2.31792">
        <ele>109.2</ele>
        <time>2023-08-10T07:55:45Z</time>
      </trkpt>
      <trkpt lat="49.82422" lon="2.31792">
        <ele>109.2</ele>
        <time>2023-08-10T07:55:46Z</time>
      </trkpt>
      <trkpt lat="49.82424" lon="2.31791">
        <ele>109.2</ele>
        <time>2023-08-10T07:55:47Z</time>
      </trkpt>
      <trkpt lat="49.82425" lon="2.31791">
        <ele>109.2</ele>
        <time>2023-08-10T07:55:48Z</time>
      </trkpt>
      <trkpt lat="49.82427" lon="2.31791">
        <ele>109.2</ele>
        <time>2023-08-10T07:55:49Z</time>
      </trkpt>
      <trkpt lat="49.82429" lon="2.3179">
        <ele>109.2</ele>
        <time>2023-08-10T07:55:50Z</time>
      </trkpt>
      <trkpt lat="49.8243" lon="2.3179">
        <ele>109.2</ele>
        <time>2023-08-10T07:55:51Z</time>
      </trkpt>
      <trkpt lat="49.82431" lon="2.3179">
        <ele>109.2</ele>
        <time>2023-08-10T07:55:52Z</time>
      </trkpt>
      <trkpt lat="49.82432" lon="2.3179">
        <ele>109.2</ele>
        <time>2023-08-10T07:55:53Z</time>
      </trkpt>
      <trkpt lat="49.82434" lon="2.3179">
        <ele>109.2</ele>
        <time>2023-08-10T07:55:54Z</time>
      </trkpt>
      <trkpt lat="49.82435" lon="2.31789">
        <ele>109.2</ele>
        <time>2023-08-10T07:55:56Z</time>
      </trkpt>
      <trkpt lat="49.82437" lon="2.31789">
        <ele>109.2</ele>
        <time>2023-08-10T07:55:57Z</time>
      </trkpt>
      <trkpt lat="49.82438" lon="2.31789">
        <ele>109.2</ele>
        <time>2023-08-10T07:55:58Z</time>
      </trkpt>
      <trkpt lat="49.82439" lon="2.3179">
        <ele>109.1</ele>
        <time>2023-08-10T07:55:59Z</time>
      </trkpt>
      <trkpt lat="49.82441" lon="2.3179">
        <ele>109.1</ele>
        <time>2023-08-10T07:56:00Z</time>
      </trkpt>
      <trkpt lat="49.82442" lon="2.3179">
        <ele>109.1</ele>
        <time>2023-08-10T07:56:01Z</time>
      </trkpt>
      <trkpt lat="49.82444" lon="2.3179">
        <ele>109.1</ele>
        <time>2023-08-10T07:56:03Z</time>
      </trkpt>
      <trkpt lat="49.82446" lon="2.3179">
        <ele>109.1</ele>
        <time>2023-08-10T07:56:04Z</time>
      </trkpt>
      <trkpt lat="49.82447" lon="2.3179">
        <ele>109.1</ele>
        <time>2023-08-10T07:56:05Z</time>
      </trkpt>
      <trkpt lat="49.82448" lon="2.3179">
        <ele>109.1</ele>
        <time>2023-08-10T07:56:06Z</time>
      </trkpt>
      <trkpt lat="49.82449" lon="2.3179">
        <ele>109.1</ele>
        <time>2023-08-10T07:56:07Z</time>
      </trkpt>
      <trkpt lat="49.8245" lon="2.31791">
        <ele>109.1</ele>
        <time>2023-08-10T07:56:08Z</time>
      </trkpt>
      <trkpt lat="49.82451" lon="2.3179">
        <ele>109.1</ele>
        <time>2023-08-10T07:56:09Z</time>
      </trkpt>
      <trkpt lat="49.82453" lon="2.3179">
        <ele>109.1</ele>
        <time>2023-08-10T07:56:10Z</time>
      </trkpt>
      <trkpt lat="49.82454" lon="2.31789">
        <ele>109.1</ele>
        <time>2023-08-10T07:56:12Z</time>
      </trkpt>
      <trkpt lat="49.82455" lon="2.31789">
        <ele>109.1</ele>
        <time>2023-08-10T07:56:13Z</time>
      </trkpt>
      <trkpt lat="49.82456" lon="2.31787">
        <ele>109.1</ele>
        <time>2023-08-10T07:56:14Z</time>
      </trkpt>
      <trkpt lat="49.82457" lon="2.31786">
        <ele>109.1</ele>
        <time>2023-08-10T07:56:15Z</time>
      </trkpt>
      <trkpt lat="49.82458" lon="2.31786">
        <ele>109.1</ele>
        <time>2023-08-10T07:56:16Z</time>
      </trkpt>
      <trkpt lat="49.8246" lon="2.31785">
        <ele>109.1</ele>
        <time>2023-08-10T07:56:17Z</time>
      </trkpt>
      <trkpt lat="49.82461" lon="2.31784">
        <ele>109.1</ele>
        <time>2023-08-10T07:56:18Z</time>
      </trkpt>
      <trkpt lat="49.82462" lon="2.31784">
        <ele>109.1</ele>
        <time>2023-08-10T07:56:19Z</time>
      </trkpt>
      <trkpt lat="49.82463" lon="2.31784">
        <ele>109.1</ele>
        <time>2023-08-10T07:56:20Z</time>
      </trkpt>
      <trkpt lat="49.82464" lon="2.31783">
        <ele>109.1</ele>
        <time>2023-08-10T07:56:21Z</time>
      </trkpt>
      <trkpt lat="49.82465" lon="2.31783">
        <ele>109.1</ele>
        <time>2023-08-10T07:56:22Z</time>
      </trkpt>
      <trkpt lat="49.82467" lon="2.31782">
        <ele>109.1</ele>
        <time>2023-08-10T07:56:24Z</time>
      </trkpt>
      <trkpt lat="49.82468" lon="2.31782">
        <ele>109.1</ele>
        <time>2023-08-10T07:56:25Z</time>
      </trkpt>
      <trkpt lat="49.82469" lon="2.31781">
        <ele>109.1</ele>
        <time>2023-08-10T07:56:26Z</time>
      </trkpt>
      <trkpt lat="49.82471" lon="2.31781">
        <ele>109.1</ele>
        <time>2023-08-10T07:56:27Z</time>
      </trkpt>
      <trkpt lat="49.82472" lon="2.3178">
        <ele>109</ele>
        <time>2023-08-10T07:56:28Z</time>
      </trkpt>
      <trkpt lat="49.82473" lon="2.31779">
        <ele>109</ele>
        <time>2023-08-10T07:56:29Z</time>
      </trkpt>
      <trkpt lat="49.82475" lon="2.31778">
        <ele>109</ele>
        <time>2023-08-10T07:56:31Z</time>
      </trkpt>
      <trkpt lat="49.82477" lon="2.31777">
        <ele>109</ele>
        <time>2023-08-10T07:56:32Z</time>
      </trkpt>
      <trkpt lat="49.82478" lon="2.31777">
        <ele>109</ele>
        <time>2023-08-10T07:56:34Z</time>
      </trkpt>
      <trkpt lat="49.82479" lon="2.31777">
        <ele>109</ele>
        <time>2023-08-10T07:56:35Z</time>
      </trkpt>
      <trkpt lat="49.8248" lon="2.31777">
        <ele>109</ele>
        <time>2023-08-10T07:56:36Z</time>
      </trkpt>
      <trkpt lat="49.82481" lon="2.31777">
        <ele>109</ele>
        <time>2023-08-10T07:56:37Z</time>
      </trkpt>
      <trkpt lat="49.82482" lon="2.31778">
        <ele>109</ele>
        <time>2023-08-10T07:56:38Z</time>
      </trkpt>
      <trkpt lat="49.82483" lon="2.31778">
        <ele>109</ele>
        <time>2023-08-10T07:56:39Z</time>
      </trkpt>
      <trkpt lat="49.82484" lon="2.31779">
        <ele>109</ele>
        <time>2023-08-10T07:56:40Z</time>
      </trkpt>
      <trkpt lat="49.82485" lon="2.31779">
        <ele>109</ele>
        <time>2023-08-10T07:56:41Z</time>
      </trkpt>
      <trkpt lat="49.82487" lon="2.31779">
        <ele>109</ele>
        <time>2023-08-10T07:56:43Z</time>
      </trkpt>
      <trkpt lat="49.82487" lon="2.31779">
        <ele>109</ele>
        <time>2023-08-10T07:56:44Z</time>
      </trkpt>
      <trkpt lat="49.82489" lon="2.31779">
        <ele>109</ele>
        <time>2023-08-10T07:56:45Z</time>
      </trkpt>
      <trkpt lat="49.8249" lon="2.31779">
        <ele>109</ele>
        <time>2023-08-10T07:56:47Z</time>
      </trkpt>
      <trkpt lat="49.82492" lon="2.31779">
        <ele>109</ele>
        <time>2023-08-10T07:56:48Z</time>
      </trkpt>
      <trkpt lat="49.82493" lon="2.31779">
        <ele>109</ele>
        <time>2023-08-10T07:56:49Z</time>
      </trkpt>
      <trkpt lat="49.82494" lon="2.31779">
        <ele>109</ele>
        <time>2023-08-10T07:56:50Z</time>
      </trkpt>
      <trkpt lat="49.82495" lon="2.31779">
        <ele>109</ele>
        <time>2023-08-10T07:56:51Z</time>
      </trkpt>
      <trkpt lat="49.82497" lon="2.31779">
        <ele>109</ele>
        <time>2023-08-10T07:56:52Z</time>
      </trkpt>
      <trkpt lat="49.82499" lon="2.31778">
        <ele>109</ele>
        <time>2023-08-10T07:56:54Z</time>
      </trkpt>
      <trkpt lat="49.825" lon="2.31778">
        <ele>109</ele>
        <time>2023-08-10T07:56:55Z</time>
      </trkpt>
      <trkpt lat="49.82502" lon="2.31778">
        <ele>109</ele>
        <time>2023-08-10T07:56:56Z</time>
      </trkpt>
      <trkpt lat="49.82503" lon="2.31778">
        <ele>109</ele>
        <time>2023-08-10T07:56:57Z</time>
      </trkpt>
      <trkpt lat="49.82504" lon="2.31778">
        <ele>109</ele>
        <time>2023-08-10T07:56:59Z</time>
      </trkpt>
      <trkpt lat="49.82505" lon="2.31778">
        <ele>109</ele>
        <time>2023-08-10T07:57:00Z</time>
      </trkpt>
      <trkpt lat="49.82507" lon="2.31777">
        <ele>109</ele>
        <time>2023-08-10T07:57:01Z</time>
      </trkpt>
      <trkpt lat="49.82508" lon="2.31777">
        <ele>109</ele>
        <time>2023-08-10T07:57:02Z</time>
      </trkpt>
      <trkpt lat="49.8251" lon="2.31777">
        <ele>109</ele>
        <time>2023-08-10T07:57:03Z</time>
      </trkpt>
      <trkpt lat="49.82511" lon="2.31776">
        <ele>109</ele>
        <time>2023-08-10T07:57:05Z</time>
      </trkpt>
      <trkpt lat="49.82512" lon="2.31775">
        <ele>109.1</ele>
        <time>2023-08-10T07:57:06Z</time>
      </trkpt>
      <trkpt lat="49.82514" lon="2.31774">
        <ele>109.1</ele>
        <time>2023-08-10T07:57:07Z</time>
      </trkpt>
      <trkpt lat="49.82515" lon="2.31774">
        <ele>109.1</ele>
        <time>2023-08-10T07:57:08Z</time>
      </trkpt>
      <trkpt lat="49.82516" lon="2.31774">
        <ele>109.1</ele>
        <time>2023-08-10T07:57:09Z</time>
      </trkpt>
      <trkpt lat="49.82517" lon="2.31773">
        <ele>109.1</ele>
        <time>2023-08-10T07:57:10Z</time>
      </trkpt>
      <trkpt lat="49.82518" lon="2.31773">
        <ele>109.1</ele>
        <time>2023-08-10T07:57:11Z</time>
      </trkpt>
      <trkpt lat="49.82518" lon="2.31773">
        <ele>109.1</ele>
        <time>2023-08-10T07:57:12Z</time>
      </trkpt>
      <trkpt lat="49.8252" lon="2.31773">
        <ele>109.1</ele>
        <time>2023-08-10T07:57:13Z</time>
      </trkpt>
      <trkpt lat="49.82521" lon="2.31773">
        <ele>109.1</ele>
        <time>2023-08-10T07:57:14Z</time>
      </trkpt>
      <trkpt lat="49.82523" lon="2.31772">
        <ele>109.1</ele>
        <time>2023-08-10T07:57:15Z</time>
      </trkpt>
      <trkpt lat="49.82524" lon="2.31772">
        <ele>109.1</ele>
        <time>2023-08-10T07:57:17Z</time>
      </trkpt>
      <trkpt lat="49.82525" lon="2.31772">
        <ele>109.1</ele>
        <time>2023-08-10T07:57:18Z</time>
      </trkpt>
      <trkpt lat="49.82526" lon="2.31771">
        <ele>109.1</ele>
        <time>2023-08-10T07:57:19Z</time>
      </trkpt>
      <trkpt lat="49.82527" lon="2.31771">
        <ele>109.1</ele>
        <time>2023-08-10T07:57:20Z</time>
      </trkpt>
      <trkpt lat="49.82528" lon="2.31771">
        <ele>109.1</ele>
        <time>2023-08-10T07:57:21Z</time>
      </trkpt>
      <trkpt lat="49.82529" lon="2.3177">
        <ele>109.1</ele>
        <time>2023-08-10T07:57:22Z</time>
      </trkpt>
      <trkpt lat="49.82531" lon="2.3177">
        <ele>109.1</ele>
        <time>2023-08-10T07:57:23Z</time>
      </trkpt>
      <trkpt lat="49.82532" lon="2.3177">
        <ele>109.1</ele>
        <time>2023-08-10T07:57:24Z</time>
      </trkpt>
      <trkpt lat="49.82533" lon="2.3177">
        <ele>109.1</ele>
        <time>2023-08-10T07:57:25Z</time>
      </trkpt>
      <trkpt lat="49.82534" lon="2.31769">
        <ele>109.1</ele>
        <time>2023-08-10T07:57:27Z</time>
      </trkpt>
      <trkpt lat="49.82536" lon="2.31769">
        <ele>109.1</ele>
        <time>2023-08-10T07:57:28Z</time>
      </trkpt>
      <trkpt lat="49.82538" lon="2.31768">
        <ele>109.1</ele>
        <time>2023-08-10T07:57:29Z</time>
      </trkpt>
      <trkpt lat="49.82539" lon="2.31768">
        <ele>109.1</ele>
        <time>2023-08-10T07:57:30Z</time>
      </trkpt>
      <trkpt lat="49.82539" lon="2.31768">
        <ele>109.1</ele>
        <time>2023-08-10T07:57:31Z</time>
      </trkpt>
      <trkpt lat="49.8254" lon="2.31768">
        <ele>109.1</ele>
        <time>2023-08-10T07:57:33Z</time>
      </trkpt>
      <trkpt lat="49.82541" lon="2.31767">
        <ele>109.1</ele>
        <time>2023-08-10T07:57:34Z</time>
      </trkpt>
      <trkpt lat="49.82542" lon="2.31767">
        <ele>109.1</ele>
        <time>2023-08-10T07:57:35Z</time>
      </trkpt>
      <trkpt lat="49.82543" lon="2.31766">
        <ele>109.1</ele>
        <time>2023-08-10T07:57:36Z</time>
      </trkpt>
      <trkpt lat="49.82544" lon="2.31766">
        <ele>109.1</ele>
        <time>2023-08-10T07:57:37Z</time>
      </trkpt>
      <trkpt lat="49.82545" lon="2.31766">
        <ele>109.1</ele>
        <time>2023-08-10T07:57:38Z</time>
      </trkpt>
      <trkpt lat="49.82546" lon="2.31765">
        <ele>109.1</ele>
        <time>2023-08-10T07:57:39Z</time>
      </trkpt>
      <trkpt lat="49.82549" lon="2.31764">
        <ele>109</ele>
        <time>2023-08-10T07:57:41Z</time>
      </trkpt>
      <trkpt lat="49.82551" lon="2.31764">
        <ele>109</ele>
        <time>2023-08-10T07:57:43Z</time>
      </trkpt>
      <trkpt lat="49.82552" lon="2.31763">
        <ele>109</ele>
        <time>2023-08-10T07:57:44Z</time>
      </trkpt>
      <trkpt lat="49.82554" lon="2.31763">
        <ele>109</ele>
        <time>2023-08-10T07:57:45Z</time>
      </trkpt>
      <trkpt lat="49.82555" lon="2.31763">
        <ele>109</ele>
        <time>2023-08-10T07:57:46Z</time>
      </trkpt>
      <trkpt lat="49.82556" lon="2.31763">
        <ele>109</ele>
        <time>2023-08-10T07:57:47Z</time>
      </trkpt>
      <trkpt lat="49.82558" lon="2.31762">
        <ele>109</ele>
        <time>2023-08-10T07:57:49Z</time>
      </trkpt>
      <trkpt lat="49.82559" lon="2.31762">
        <ele>109</ele>
        <time>2023-08-10T07:57:50Z</time>
      </trkpt>
      <trkpt lat="49.82561" lon="2.31762">
        <ele>109</ele>
        <time>2023-08-10T07:57:51Z</time>
      </trkpt>
      <trkpt lat="49.82562" lon="2.31762">
        <ele>109</ele>
        <time>2023-08-10T07:57:52Z</time>
      </trkpt>
      <trkpt lat="49.82563" lon="2.31762">
        <ele>109</ele>
        <time>2023-08-10T07:57:53Z</time>
      </trkpt>
      <trkpt lat="49.82565" lon="2.31762">
        <ele>109</ele>
        <time>2023-08-10T07:57:54Z</time>
      </trkpt>
      <trkpt lat="49.82566" lon="2.31762">
        <ele>109</ele>
        <time>2023-08-10T07:57:55Z</time>
      </trkpt>
      <trkpt lat="49.82567" lon="2.31762">
        <ele>109</ele>
        <time>2023-08-10T07:57:56Z</time>
      </trkpt>
      <trkpt lat="49.82568" lon="2.31761">
        <ele>109</ele>
        <time>2023-08-10T07:57:57Z</time>
      </trkpt>
      <trkpt lat="49.82569" lon="2.31761">
        <ele>109</ele>
        <time>2023-08-10T07:57:58Z</time>
      </trkpt>
      <trkpt lat="49.82571" lon="2.3176">
        <ele>109</ele>
        <time>2023-08-10T07:57:59Z</time>
      </trkpt>
      <trkpt lat="49.82572" lon="2.3176">
        <ele>109</ele>
        <time>2023-08-10T07:58:00Z</time>
      </trkpt>
      <trkpt lat="49.82573" lon="2.31759">
        <ele>109</ele>
        <time>2023-08-10T07:58:02Z</time>
      </trkpt>
      <trkpt lat="49.82574" lon="2.31758">
        <ele>109</ele>
        <time>2023-08-10T07:58:03Z</time>
      </trkpt>
      <trkpt lat="49.82576" lon="2.31758">
        <ele>109</ele>
        <time>2023-08-10T07:58:04Z</time>
      </trkpt>
      <trkpt lat="49.82578" lon="2.31757">
        <ele>109</ele>
        <time>2023-08-10T07:58:05Z</time>
      </trkpt>
      <trkpt lat="49.82578" lon="2.31757">
        <ele>109</ele>
        <time>2023-08-10T07:58:06Z</time>
      </trkpt>
      <trkpt lat="49.82579" lon="2.31757">
        <ele>109</ele>
        <time>2023-08-10T07:58:07Z</time>
      </trkpt>
      <trkpt lat="49.82581" lon="2.31756">
        <ele>109</ele>
        <time>2023-08-10T07:58:08Z</time>
      </trkpt>
      <trkpt lat="49.82582" lon="2.31756">
        <ele>109</ele>
        <time>2023-08-10T07:58:10Z</time>
      </trkpt>
      <trkpt lat="49.82583" lon="2.31755">
        <ele>109</ele>
        <time>2023-08-10T07:58:11Z</time>
      </trkpt>
      <trkpt lat="49.82585" lon="2.31755">
        <ele>109.1</ele>
        <time>2023-08-10T07:58:12Z</time>
      </trkpt>
      <trkpt lat="49.82586" lon="2.31755">
        <ele>109.1</ele>
        <time>2023-08-10T07:58:13Z</time>
      </trkpt>
      <trkpt lat="49.82587" lon="2.31755">
        <ele>109.1</ele>
        <time>2023-08-10T07:58:14Z</time>
      </trkpt>
      <trkpt lat="49.82588" lon="2.31754">
        <ele>109.1</ele>
        <time>2023-08-10T07:58:15Z</time>
      </trkpt>
      <trkpt lat="49.8259" lon="2.31754">
        <ele>109.1</ele>
        <time>2023-08-10T07:58:16Z</time>
      </trkpt>
      <trkpt lat="49.82591" lon="2.31754">
        <ele>109.1</ele>
        <time>2023-08-10T07:58:17Z</time>
      </trkpt>
      <trkpt lat="49.82593" lon="2.31753">
        <ele>109.1</ele>
        <time>2023-08-10T07:58:18Z</time>
      </trkpt>
      <trkpt lat="49.82594" lon="2.31753">
        <ele>109.1</ele>
        <time>2023-08-10T07:58:19Z</time>
      </trkpt>
      <trkpt lat="49.82595" lon="2.31753">
        <ele>109.1</ele>
        <time>2023-08-10T07:58:20Z</time>
      </trkpt>
      <trkpt lat="49.82596" lon="2.31753">
        <ele>109.1</ele>
        <time>2023-08-10T07:58:21Z</time>
      </trkpt>
      <trkpt lat="49.82598" lon="2.31753">
        <ele>109.1</ele>
        <time>2023-08-10T07:58:22Z</time>
      </trkpt>
      <trkpt lat="49.82599" lon="2.31752">
        <ele>109</ele>
        <time>2023-08-10T07:58:24Z</time>
      </trkpt>
      <trkpt lat="49.82601" lon="2.31752">
        <ele>109</ele>
        <time>2023-08-10T07:58:25Z</time>
      </trkpt>
      <trkpt lat="49.82602" lon="2.31752">
        <ele>109</ele>
        <time>2023-08-10T07:58:26Z</time>
      </trkpt>
      <trkpt lat="49.82603" lon="2.31751">
        <ele>109</ele>
        <time>2023-08-10T07:58:27Z</time>
      </trkpt>
      <trkpt lat="49.82604" lon="2.31751">
        <ele>109</ele>
        <time>2023-08-10T07:58:28Z</time>
      </trkpt>
      <trkpt lat="49.82606" lon="2.3175">
        <ele>109</ele>
        <time>2023-08-10T07:58:29Z</time>
      </trkpt>
      <trkpt lat="49.82607" lon="2.3175">
        <ele>109</ele>
        <time>2023-08-10T07:58:31Z</time>
      </trkpt>
      <trkpt lat="49.82608" lon="2.31749">
        <ele>109</ele>
        <time>2023-08-10T07:58:32Z</time>
      </trkpt>
      <trkpt lat="49.8261" lon="2.31749">
        <ele>109</ele>
        <time>2023-08-10T07:58:33Z</time>
      </trkpt>
      <trkpt lat="49.82611" lon="2.31748">
        <ele>109</ele>
        <time>2023-08-10T07:58:34Z</time>
      </trkpt>
      <trkpt lat="49.82612" lon="2.31748">
        <ele>109</ele>
        <time>2023-08-10T07:58:35Z</time>
      </trkpt>
      <trkpt lat="49.82613" lon="2.31748">
        <ele>109</ele>
        <time>2023-08-10T07:58:36Z</time>
      </trkpt>
      <trkpt lat="49.82614" lon="2.31747">
        <ele>109</ele>
        <time>2023-08-10T07:58:37Z</time>
      </trkpt>
      <trkpt lat="49.82616" lon="2.31747">
        <ele>109</ele>
        <time>2023-08-10T07:58:39Z</time>
      </trkpt>
      <trkpt lat="49.82617" lon="2.31747">
        <ele>109</ele>
        <time>2023-08-10T07:58:40Z</time>
      </trkpt>
      <trkpt lat="49.82618" lon="2.31746">
        <ele>109</ele>
        <time>2023-08-10T07:58:41Z</time>
      </trkpt>
      <trkpt lat="49.8262" lon="2.31746">
        <ele>109</ele>
        <time>2023-08-10T07:58:42Z</time>
      </trkpt>
      <trkpt lat="49.82621" lon="2.31746">
        <ele>109</ele>
        <time>2023-08-10T07:58:43Z</time>
      </trkpt>
      <trkpt lat="49.82622" lon="2.31745">
        <ele>109</ele>
        <time>2023-08-10T07:58:44Z</time>
      </trkpt>
      <trkpt lat="49.82624" lon="2.31745">
        <ele>109</ele>
        <time>2023-08-10T07:58:46Z</time>
      </trkpt>
      <trkpt lat="49.82626" lon="2.31744">
        <ele>109</ele>
        <time>2023-08-10T07:58:47Z</time>
      </trkpt>
      <trkpt lat="49.82627" lon="2.31744">
        <ele>109</ele>
        <time>2023-08-10T07:58:48Z</time>
      </trkpt>
      <trkpt lat="49.82629" lon="2.31744">
        <ele>109</ele>
        <time>2023-08-10T07:58:50Z</time>
      </trkpt>
      <trkpt lat="49.8263" lon="2.31744">
        <ele>109</ele>
        <time>2023-08-10T07:58:51Z</time>
      </trkpt>
      <trkpt lat="49.82632" lon="2.31744">
        <ele>108.9</ele>
        <time>2023-08-10T07:58:52Z</time>
      </trkpt>
      <trkpt lat="49.82633" lon="2.31744">
        <ele>108.9</ele>
        <time>2023-08-10T07:58:54Z</time>
      </trkpt>
      <trkpt lat="49.82634" lon="2.31744">
        <ele>108.9</ele>
        <time>2023-08-10T07:58:55Z</time>
      </trkpt>
      <trkpt lat="49.82636" lon="2.31743">
        <ele>108.9</ele>
        <time>2023-08-10T07:58:56Z</time>
      </trkpt>
      <trkpt lat="49.82637" lon="2.31743">
        <ele>108.9</ele>
        <time>2023-08-10T07:58:57Z</time>
      </trkpt>
      <trkpt lat="49.82638" lon="2.31743">
        <ele>108.9</ele>
        <time>2023-08-10T07:58:58Z</time>
      </trkpt>
      <trkpt lat="49.82639" lon="2.31743">
        <ele>108.9</ele>
        <time>2023-08-10T07:58:59Z</time>
      </trkpt>
      <trkpt lat="49.8264" lon="2.31743">
        <ele>108.9</ele>
        <time>2023-08-10T07:59:00Z</time>
      </trkpt>
      <trkpt lat="49.82641" lon="2.31743">
        <ele>108.9</ele>
        <time>2023-08-10T07:59:01Z</time>
      </trkpt>
      <trkpt lat="49.82643" lon="2.31743">
        <ele>108.9</ele>
        <time>2023-08-10T07:59:02Z</time>
      </trkpt>
      <trkpt lat="49.82644" lon="2.31743">
        <ele>108.9</ele>
        <time>2023-08-10T07:59:04Z</time>
      </trkpt>
      <trkpt lat="49.82645" lon="2.31742">
        <ele>108.9</ele>
        <time>2023-08-10T07:59:05Z</time>
      </trkpt>
      <trkpt lat="49.82647" lon="2.31742">
        <ele>108.9</ele>
        <time>2023-08-10T07:59:06Z</time>
      </trkpt>
      <trkpt lat="49.82648" lon="2.31742">
        <ele>108.9</ele>
        <time>2023-08-10T07:59:07Z</time>
      </trkpt>
      <trkpt lat="49.82649" lon="2.31741">
        <ele>108.9</ele>
        <time>2023-08-10T07:59:08Z</time>
      </trkpt>
      <trkpt lat="49.8265" lon="2.31741">
        <ele>108.8</ele>
        <time>2023-08-10T07:59:09Z</time>
      </trkpt>
      <trkpt lat="49.82651" lon="2.31741">
        <ele>108.8</ele>
        <time>2023-08-10T07:59:10Z</time>
      </trkpt>
      <trkpt lat="49.82652" lon="2.31741">
        <ele>108.8</ele>
        <time>2023-08-10T07:59:11Z</time>
      </trkpt>
      <trkpt lat="49.82654" lon="2.3174">
        <ele>108.8</ele>
        <time>2023-08-10T07:59:13Z</time>
      </trkpt>
      <trkpt lat="49.82655" lon="2.3174">
        <ele>108.8</ele>
        <time>2023-08-10T07:59:14Z</time>
      </trkpt>
      <trkpt lat="49.82656" lon="2.3174">
        <ele>108.8</ele>
        <time>2023-08-10T07:59:15Z</time>
      </trkpt>
      <trkpt lat="49.82658" lon="2.3174">
        <ele>108.8</ele>
        <time>2023-08-10T07:59:16Z</time>
      </trkpt>
      <trkpt lat="49.82659" lon="2.3174">
        <ele>108.8</ele>
        <time>2023-08-10T07:59:17Z</time>
      </trkpt>
      <trkpt lat="49.82659" lon="2.3174">
        <ele>108.8</ele>
        <time>2023-08-10T07:59:18Z</time>
      </trkpt>
      <trkpt lat="49.8266" lon="2.31739">
        <ele>108.8</ele>
        <time>2023-08-10T07:59:19Z</time>
      </trkpt>
      <trkpt lat="49.82662" lon="2.31739">
        <ele>108.8</ele>
        <time>2023-08-10T07:59:20Z</time>
      </trkpt>
      <trkpt lat="49.82663" lon="2.31738">
        <ele>108.8</ele>
        <time>2023-08-10T07:59:22Z</time>
      </trkpt>
      <trkpt lat="49.82664" lon="2.31737">
        <ele>108.8</ele>
        <time>2023-08-10T07:59:23Z</time>
      </trkpt>
      <trkpt lat="49.82665" lon="2.31736">
        <ele>108.8</ele>
        <time>2023-08-10T07:59:24Z</time>
      </trkpt>
      <trkpt lat="49.82666" lon="2.31735">
        <ele>108.8</ele>
        <time>2023-08-10T07:59:25Z</time>
      </trkpt>
      <trkpt lat="49.82666" lon="2.31733">
        <ele>108.8</ele>
        <time>2023-08-10T07:59:27Z</time>
      </trkpt>
      <trkpt lat="49.82665" lon="2.31733">
        <ele>108.5</ele>
        <time>2023-08-10T07:59:28Z</time>
      </trkpt>
      <trkpt lat="49.82665" lon="2.31732">
        <ele>108.4</ele>
        <time>2023-08-10T07:59:30Z</time>
      </trkpt>
      <trkpt lat="49.82664" lon="2.31732">
        <ele>108.4</ele>
        <time>2023-08-10T07:59:31Z</time>
      </trkpt>
      <trkpt lat="49.82664" lon="2.31732">
        <ele>108.4</ele>
        <time>2023-08-10T07:59:33Z</time>
      </trkpt>
      <trkpt lat="49.82664" lon="2.31732">
        <ele>108.4</ele>
        <time>2023-08-10T07:59:34Z</time>
      </trkpt>
      <trkpt lat="49.82664" lon="2.31732">
        <ele>108.4</ele>
        <time>2023-08-10T07:59:35Z</time>
      </trkpt>
      <trkpt lat="49.82663" lon="2.31732">
        <ele>108.4</ele>
        <time>2023-08-10T07:59:37Z</time>
      </trkpt>
      <trkpt lat="49.82663" lon="2.31732">
        <ele>108.4</ele>
        <time>2023-08-10T07:59:38Z</time>
      </trkpt>
      <trkpt lat="49.82662" lon="2.31732">
        <ele>108.4</ele>
        <time>2023-08-10T07:59:40Z</time>
      </trkpt>
      <trkpt lat="49.82662" lon="2.31732">
        <ele>108.4</ele>
        <time>2023-08-10T07:59:41Z</time>
      </trkpt>
      <trkpt lat="49.82662" lon="2.31732">
        <ele>108.4</ele>
        <time>2023-08-10T07:59:43Z</time>
      </trkpt>
      <trkpt lat="49.82662" lon="2.31732">
        <ele>108.4</ele>
        <time>2023-08-10T07:59:44Z</time>
      </trkpt>
      <trkpt lat="49.82662" lon="2.31732">
        <ele>108.4</ele>
        <time>2023-08-10T07:59:46Z</time>
      </trkpt>
      <trkpt lat="49.82662" lon="2.31732">
        <ele>108.4</ele>
        <time>2023-08-10T07:59:47Z</time>
      </trkpt>
      <trkpt lat="49.82662" lon="2.31732">
        <ele>108.4</ele>
        <time>2023-08-10T07:59:48Z</time>
      </trkpt>
      <trkpt lat="49.82662" lon="2.31732">
        <ele>108.4</ele>
        <time>2023-08-10T07:59:49Z</time>
      </trkpt>
      <trkpt lat="49.82662" lon="2.31732">
        <ele>108.4</ele>
        <time>2023-08-10T07:59:50Z</time>
      </trkpt>
      <trkpt lat="49.82662" lon="2.31732">
        <ele>108.4</ele>
        <time>2023-08-10T07:59:51Z</time>
      </trkpt>
      <trkpt lat="49.82662" lon="2.31732">
        <ele>108.4</ele>
        <time>2023-08-10T07:59:52Z</time>
      </trkpt>
      <trkpt lat="49.82662" lon="2.31732">
        <ele>108.4</ele>
        <time>2023-08-10T07:59:53Z</time>
      </trkpt>
      <trkpt lat="49.82662" lon="2.31732">
        <ele>108.4</ele>
        <time>2023-08-10T07:59:54Z</time>
      </trkpt>
      <trkpt lat="49.82662" lon="2.31732">
        <ele>108.4</ele>
        <time>2023-08-10T07:59:55Z</time>
      </trkpt>
      <trkpt lat="49.82662" lon="2.31732">
        <ele>108.4</ele>
        <time>2023-08-10T07:59:56Z</time>
      </trkpt>
      <trkpt lat="49.82662" lon="2.31732">
        <ele>108.4</ele>
        <time>2023-08-10T07:59:57Z</time>
      </trkpt>
      <trkpt lat="49.82662" lon="2.31732">
        <ele>108.4</ele>
        <time>2023-08-10T07:59:58Z</time>
      </trkpt>
      <trkpt lat="49.82662" lon="2.31732">
        <ele>108.4</ele>
        <time>2023-08-10T07:59:59Z</time>
      </trkpt>
      <trkpt lat="49.82662" lon="2.31732">
        <ele>108.4</ele>
        <time>2023-08-10T08:00:00Z</time>
      </trkpt>
      <trkpt lat="49.82662" lon="2.31732">
        <ele>108.4</ele>
        <time>2023-08-10T08:00:01Z</time>
      </trkpt>
      <trkpt lat="49.82662" lon="2.31732">
        <ele>108.4</ele>
        <time>2023-08-10T08:00:02Z</time>
      </trkpt>
      <trkpt lat="49.82662" lon="2.31732">
        <ele>108.4</ele>
        <time>2023-08-10T08:00:03Z</time>
      </trkpt>
      <trkpt lat="49.82662" lon="2.31732">
        <ele>108.4</ele>
        <time>2023-08-10T08:00:04Z</time>
      </trkpt>
      <trkpt lat="49.82662" lon="2.31732">
        <ele>108.4</ele>
        <time>2023-08-10T08:00:05Z</time>
      </trkpt>
      <trkpt lat="49.82662" lon="2.31732">
        <ele>108.4</ele>
        <time>2023-08-10T08:00:06Z</time>
      </trkpt>
      <trkpt lat="49.82662" lon="2.31732">
        <ele>108.4</ele>
        <time>2023-08-10T08:00:07Z</time>
      </trkpt>
      <trkpt lat="49.82662" lon="2.31732">
        <ele>108.4</ele>
        <time>2023-08-10T08:00:08Z</time>
      </trkpt>
      <trkpt lat="49.82662" lon="2.31732">
        <ele>108.4</ele>
        <time>2023-08-10T08:00:09Z</time>
      </trkpt>
      <trkpt lat="49.82662" lon="2.31732">
        <ele>108.4</ele>
        <time>2023-08-10T08:00:10Z</time>
      </trkpt>
      <trkpt lat="49.82662" lon="2.31732">
        <ele>108.4</ele>
        <time>2023-08-10T08:00:11Z</time>
      </trkpt>
      <trkpt lat="49.82662" lon="2.31732">
        <ele>108.4</ele>
        <time>2023-08-10T08:00:12Z</time>
      </trkpt>
      <trkpt lat="49.82662" lon="2.31732">
        <ele>108.4</ele>
        <time>2023-08-10T08:00:13Z</time>
      </trkpt>
      <trkpt lat="49.82662" lon="2.31732">
        <ele>108.4</ele>
        <time>2023-08-10T08:00:14Z</time>
      </trkpt>
      <trkpt lat="49.82662" lon="2.31732">
        <ele>108.4</ele>
        <time>2023-08-10T08:00:15Z</time>
      </trkpt>
      <trkpt lat="49.82662" lon="2.31732">
        <ele>108.4</ele>
        <time>2023-08-10T08:00:16Z</time>
      </trkpt>
      <trkpt lat="49.82662" lon="2.31732">
        <ele>108.4</ele>
        <time>2023-08-10T08:00:17Z</time>
      </trkpt>
      <trkpt lat="49.82662" lon="2.31732">
        <ele>108.4</ele>
        <time>2023-08-10T08:00:18Z</time>
      </trkpt>
      <trkpt lat="49.82662" lon="2.31732">
        <ele>108.4</ele>
        <time>2023-08-10T08:00:19Z</time>
      </trkpt>
      <trkpt lat="49.82662" lon="2.31732">
        <ele>108.4</ele>
        <time>2023-08-10T08:00:20Z</time>
      </trkpt>
      <trkpt lat="49.82662" lon="2.31732">
        <ele>108.4</ele>
        <time>2023-08-10T08:00:21Z</time>
      </trkpt>
      <trkpt lat="49.82662" lon="2.31732">
        <ele>108.4</ele>
        <time>2023-08-10T08:00:22Z</time>
      </trkpt>
      <trkpt lat="49.82662" lon="2.31732">
        <ele>108.4</ele>
        <time>2023-08-10T08:00:23Z</time>
      </trkpt>
      <trkpt lat="49.82662" lon="2.31732">
        <ele>108.4</ele>
        <time>2023-08-10T08:00:24Z</time>
      </trkpt>
      <trkpt lat="49.82662" lon="2.31732">
        <ele>108.4</ele>
        <time>2023-08-10T08:00:25Z</time>
      </trkpt>
      <trkpt lat="49.82662" lon="2.31732">
        <ele>108.4</ele>
        <time>2023-08-10T08:00:26Z</time>
      </trkpt>
      <trkpt lat="49.82662" lon="2.31732">
        <ele>108.4</ele>
        <time>2023-08-10T08:00:27Z</time>
      </trkpt>
      <trkpt lat="49.82662" lon="2.31732">
        <ele>108.4</ele>
        <time>2023-08-10T08:00:28Z</time>
      </trkpt>
      <trkpt lat="49.82662" lon="2.31732">
        <ele>108.4</ele>
        <time>2023-08-10T08:00:29Z</time>
      </trkpt>
      <trkpt lat="49.82662" lon="2.31732">
        <ele>108.4</ele>
        <time>2023-08-10T08:00:30Z</time>
      </trkpt>
      <trkpt lat="49.82662" lon="2.31732">
        <ele>108.4</ele>
        <time>2023-08-10T08:00:31Z</time>
      </trkpt>
      <trkpt lat="49.82662" lon="2.31732">
        <ele>108.4</ele>
        <time>2023-08-10T08:00:32Z</time>
      </trkpt>
      <trkpt lat="49.82662" lon="2.31732">
        <ele>108.4</ele>
        <time>2023-08-10T08:00:33Z</time>
      </trkpt>
      <trkpt lat="49.82662" lon="2.31732">
        <ele>108.4</ele>
        <time>2023-08-10T08:00:34Z</time>
      </trkpt>
      <trkpt lat="49.82662" lon="2.31732">
        <ele>108.4</ele>
        <time>2023-08-10T08:00:35Z</time>
      </trkpt>
      <trkpt lat="49.82663" lon="2.31734">
        <ele>108.3</ele>
        <time>2023-08-10T08:00:36Z</time>
      </trkpt>
      <trkpt lat="49.82664" lon="2.31735">
        <ele>108.3</ele>
        <time>2023-08-10T08:00:37Z</time>
      </trkpt>
      <trkpt lat="49.82664" lon="2.31735">
        <ele>108.3</ele>
        <time>2023-08-10T08:00:38Z</time>
      </trkpt>
      <trkpt lat="49.82664" lon="2.31736">
        <ele>108.3</ele>
        <time>2023-08-10T08:00:39Z</time>
      </trkpt>
      <trkpt lat="49.82664" lon="2.31736">
        <ele>108.3</ele>
        <time>2023-08-10T08:00:40Z</time>
      </trkpt>
      <trkpt lat="49.82664" lon="2.31736">
        <ele>108.3</ele>
        <time>2023-08-10T08:00:41Z</time>
      </trkpt>
      <trkpt lat="49.82664" lon="2.31736">
        <ele>108.3</ele>
        <time>2023-08-10T08:00:42Z</time>
      </trkpt>
      <trkpt lat="49.82664" lon="2.31736">
        <ele>108.3</ele>
        <time>2023-08-10T08:00:43Z</time>
      </trkpt>
      <trkpt lat="49.82664" lon="2.31736">
        <ele>108.3</ele>
        <time>2023-08-10T08:00:44Z</time>
      </trkpt>
      <trkpt lat="49.82664" lon="2.31736">
        <ele>108.3</ele>
        <time>2023-08-10T08:00:45Z</time>
      </trkpt>
      <trkpt lat="49.82664" lon="2.31736">
        <ele>108.3</ele>
        <time>2023-08-10T08:00:46Z</time>
      </trkpt>
      <trkpt lat="49.82664" lon="2.31736">
        <ele>108.3</ele>
        <time>2023-08-10T08:00:47Z</time>
      </trkpt>
      <trkpt lat="49.82664" lon="2.31736">
        <ele>108.3</ele>
        <time>2023-08-10T08:00:48Z</time>
      </trkpt>
      <trkpt lat="49.82664" lon="2.31736">
        <ele>108.3</ele>
        <time>2023-08-10T08:00:49Z</time>
      </trkpt>
      <trkpt lat="49.82664" lon="2.31736">
        <ele>108.3</ele>
        <time>2023-08-10T08:00:50Z</time>
      </trkpt>
      <trkpt lat="49.82664" lon="2.31736">
        <ele>108.3</ele>
        <time>2023-08-10T08:00:51Z</time>
      </trkpt>
      <trkpt lat="49.82664" lon="2.31736">
        <ele>108.3</ele>
        <time>2023-08-10T08:00:52Z</time>
      </trkpt>
      <trkpt lat="49.82664" lon="2.31736">
        <ele>108.3</ele>
        <time>2023-08-10T08:00:53Z</time>
      </trkpt>
      <trkpt lat="49.82664" lon="2.31736">
        <ele>108.3</ele>
        <time>2023-08-10T08:00:55Z</time>
      </trkpt>
      <trkpt lat="49.82664" lon="2.31736">
        <ele>108.3</ele>
        <time>2023-08-10T08:00:56Z</time>
      </trkpt>
      <trkpt lat="49.82664" lon="2.31736">
        <ele>108.3</ele>
        <time>2023-08-10T08:00:57Z</time>
      </trkpt>
      <trkpt lat="49.82664" lon="2.31736">
        <ele>108.3</ele>
        <time>2023-08-10T08:00:58Z</time>
      </trkpt>
      <trkpt lat="49.82664" lon="2.31735">
        <ele>108.3</ele>
        <time>2023-08-10T08:01:00Z</time>
      </trkpt>
      <trkpt lat="49.82665" lon="2.31735">
        <ele>108.3</ele>
        <time>2023-08-10T08:01:01Z</time>
      </trkpt>
      <trkpt lat="49.82665" lon="2.31734">
        <ele>108.2</ele>
        <time>2023-08-10T08:01:02Z</time>
      </trkpt>
      <trkpt lat="49.82665" lon="2.31732">
        <ele>108.2</ele>
        <time>2023-08-10T08:01:03Z</time>
      </trkpt>
      <trkpt lat="49.82665" lon="2.3173">
        <ele>108.2</ele>
        <time>2023-08-10T08:01:05Z</time>
      </trkpt>
      <trkpt lat="49.82664" lon="2.31728">
        <ele>108.2</ele>
        <time>2023-08-10T08:01:06Z</time>
      </trkpt>
      <trkpt lat="49.82664" lon="2.31726">
        <ele>108.2</ele>
        <time>2023-08-10T08:01:07Z</time>
      </trkpt>
      <trkpt lat="49.82664" lon="2.31724">
        <ele>108.1</ele>
        <time>2023-08-10T08:01:08Z</time>
      </trkpt>
      <trkpt lat="49.82664" lon="2.31722">
        <ele>108.1</ele>
        <time>2023-08-10T08:01:09Z</time>
      </trkpt>
      <trkpt lat="49.82663" lon="2.31719">
        <ele>108.1</ele>
        <time>2023-08-10T08:01:11Z</time>
      </trkpt>
      <trkpt lat="49.82663" lon="2.31718">
        <ele>108.1</ele>
        <time>2023-08-10T08:01:12Z</time>
      </trkpt>
      <trkpt lat="49.82663" lon="2.31716">
        <ele>108.1</ele>
        <time>2023-08-10T08:01:13Z</time>
      </trkpt>
      <trkpt lat="49.82663" lon="2.31714">
        <ele>108.1</ele>
        <time>2023-08-10T08:01:14Z</time>
      </trkpt>
      <trkpt lat="49.82662" lon="2.31713">
        <ele>108</ele>
        <time>2023-08-10T08:01:15Z</time>
      </trkpt>
      <trkpt lat="49.82662" lon="2.31711">
        <ele>108</ele>
        <time>2023-08-10T08:01:17Z</time>
      </trkpt>
      <trkpt lat="49.82662" lon="2.31709">
        <ele>108</ele>
        <time>2023-08-10T08:01:18Z</time>
      </trkpt>
      <trkpt lat="49.82662" lon="2.31707">
        <ele>108</ele>
        <time>2023-08-10T08:01:19Z</time>
      </trkpt>
      <trkpt lat="49.82662" lon="2.31705">
        <ele>108</ele>
        <time>2023-08-10T08:01:20Z</time>
      </trkpt>
      <trkpt lat="49.82662" lon="2.31704">
        <ele>108</ele>
        <time>2023-08-10T08:01:21Z</time>
      </trkpt>
      <trkpt lat="49.82662" lon="2.31703">
        <ele>108</ele>
        <time>2023-08-10T08:01:22Z</time>
      </trkpt>
      <trkpt lat="49.82662" lon="2.31701">
        <ele>108</ele>
        <time>2023-08-10T08:01:23Z</time>
      </trkpt>
      <trkpt lat="49.82662" lon="2.31699">
        <ele>107.9</ele>
        <time>2023-08-10T08:01:25Z</time>
      </trkpt>
      <trkpt lat="49.82663" lon="2.31696">
        <ele>107.9</ele>
        <time>2023-08-10T08:01:26Z</time>
      </trkpt>
      <trkpt lat="49.82662" lon="2.31694">
        <ele>107.9</ele>
        <time>2023-08-10T08:01:27Z</time>
      </trkpt>
      <trkpt lat="49.82662" lon="2.31691">
        <ele>107.9</ele>
        <time>2023-08-10T08:01:28Z</time>
      </trkpt>
      <trkpt lat="49.82662" lon="2.31689">
        <ele>107.9</ele>
        <time>2023-08-10T08:01:29Z</time>
      </trkpt>
      <trkpt lat="49.82661" lon="2.31687">
        <ele>107.9</ele>
        <time>2023-08-10T08:01:30Z</time>
      </trkpt>
      <trkpt lat="49.82661" lon="2.31684">
        <ele>107.8</ele>
        <time>2023-08-10T08:01:31Z</time>
      </trkpt>
      <trkpt lat="49.82661" lon="2.31682">
        <ele>107.8</ele>
        <time>2023-08-10T08:01:32Z</time>
      </trkpt>
      <trkpt lat="49.82661" lon="2.3168">
        <ele>107.8</ele>
        <time>2023-08-10T08:01:33Z</time>
      </trkpt>
      <trkpt lat="49.8266" lon="2.31677">
        <ele>107.8</ele>
        <time>2023-08-10T08:01:35Z</time>
      </trkpt>
      <trkpt lat="49.8266" lon="2.31676">
        <ele>107.8</ele>
        <time>2023-08-10T08:01:36Z</time>
      </trkpt>
      <trkpt lat="49.8266" lon="2.31672">
        <ele>107.8</ele>
        <time>2023-08-10T08:01:37Z</time>
      </trkpt>
      <trkpt lat="49.82659" lon="2.31671">
        <ele>107.8</ele>
        <time>2023-08-10T08:01:38Z</time>
      </trkpt>
      <trkpt lat="49.82659" lon="2.3167">
        <ele>107.7</ele>
        <time>2023-08-10T08:01:39Z</time>
      </trkpt>
      <trkpt lat="49.82658" lon="2.31667">
        <ele>107.7</ele>
        <time>2023-08-10T08:01:40Z</time>
      </trkpt>
      <trkpt lat="49.82658" lon="2.31666">
        <ele>107.7</ele>
        <time>2023-08-10T08:01:41Z</time>
      </trkpt>
      <trkpt lat="49.82658" lon="2.31664">
        <ele>107.7</ele>
        <time>2023-08-10T08:01:42Z</time>
      </trkpt>
      <trkpt lat="49.82658" lon="2.31663">
        <ele>107.7</ele>
        <time>2023-08-10T08:01:43Z</time>
      </trkpt>
      <trkpt lat="49.82657" lon="2.31661">
        <ele>107.7</ele>
        <time>2023-08-10T08:01:44Z</time>
      </trkpt>
      <trkpt lat="49.82657" lon="2.31659">
        <ele>107.7</ele>
        <time>2023-08-10T08:01:45Z</time>
      </trkpt>
      <trkpt lat="49.82657" lon="2.31657">
        <ele>107.7</ele>
        <time>2023-08-10T08:01:47Z</time>
      </trkpt>
      <trkpt lat="49.82657" lon="2.31656">
        <ele>107.7</ele>
        <time>2023-08-10T08:01:48Z</time>
      </trkpt>
      <trkpt lat="49.82656" lon="2.31654">
        <ele>107.7</ele>
        <time>2023-08-10T08:01:49Z</time>
      </trkpt>
      <trkpt lat="49.82656" lon="2.31651">
        <ele>107.6</ele>
        <time>2023-08-10T08:01:50Z</time>
      </trkpt>
      <trkpt lat="49.82655" lon="2.3165">
        <ele>107.6</ele>
        <time>2023-08-10T08:01:52Z</time>
      </trkpt>
      <trkpt lat="49.82655" lon="2.31648">
        <ele>107.6</ele>
        <time>2023-08-10T08:01:53Z</time>
      </trkpt>
      <trkpt lat="49.82654" lon="2.31645">
        <ele>107.6</ele>
        <time>2023-08-10T08:01:54Z</time>
      </trkpt>
      <trkpt lat="49.82654" lon="2.31644">
        <ele>107.6</ele>
        <time>2023-08-10T08:01:55Z</time>
      </trkpt>
      <trkpt lat="49.82654" lon="2.31643">
        <ele>107.6</ele>
        <time>2023-08-10T08:01:56Z</time>
      </trkpt>
      <trkpt lat="49.82653" lon="2.31641">
        <ele>107.6</ele>
        <time>2023-08-10T08:01:57Z</time>
      </trkpt>
      <trkpt lat="49.82653" lon="2.31639">
        <ele>107.6</ele>
        <time>2023-08-10T08:01:58Z</time>
      </trkpt>
      <trkpt lat="49.82652" lon="2.31637">
        <ele>107.6</ele>
        <time>2023-08-10T08:02:00Z</time>
      </trkpt>
      <trkpt lat="49.82652" lon="2.31634">
        <ele>107.6</ele>
        <time>2023-08-10T08:02:01Z</time>
      </trkpt>
      <trkpt lat="49.82652" lon="2.31632">
        <ele>107.6</ele>
        <time>2023-08-10T08:02:02Z</time>
      </trkpt>
      <trkpt lat="49.82652" lon="2.31631">
        <ele>107.5</ele>
        <time>2023-08-10T08:02:03Z</time>
      </trkpt>
      <trkpt lat="49.82652" lon="2.31629">
        <ele>107.5</ele>
        <time>2023-08-10T08:02:05Z</time>
      </trkpt>
      <trkpt lat="49.82651" lon="2.31628">
        <ele>107.5</ele>
        <time>2023-08-10T08:02:06Z</time>
      </trkpt>
      <trkpt lat="49.82651" lon="2.31626">
        <ele>107.5</ele>
        <time>2023-08-10T08:02:07Z</time>
      </trkpt>
      <trkpt lat="49.82651" lon="2.31624">
        <ele>107.5</ele>
        <time>2023-08-10T08:02:08Z</time>
      </trkpt>
      <trkpt lat="49.82651" lon="2.31622">
        <ele>107.5</ele>
        <time>2023-08-10T08:02:09Z</time>
      </trkpt>
      <trkpt lat="49.82651" lon="2.31621">
        <ele>107.5</ele>
        <time>2023-08-10T08:02:10Z</time>
      </trkpt>
      <trkpt lat="49.8265" lon="2.31618">
        <ele>107.5</ele>
        <time>2023-08-10T08:02:12Z</time>
      </trkpt>
      <trkpt lat="49.8265" lon="2.31616">
        <ele>107.5</ele>
        <time>2023-08-10T08:02:13Z</time>
      </trkpt>
      <trkpt lat="49.8265" lon="2.31613">
        <ele>107.4</ele>
        <time>2023-08-10T08:02:14Z</time>
      </trkpt>
      <trkpt lat="49.82649" lon="2.31612">
        <ele>107.4</ele>
        <time>2023-08-10T08:02:15Z</time>
      </trkpt>
      <trkpt lat="49.82649" lon="2.3161">
        <ele>107.4</ele>
        <time>2023-08-10T08:02:16Z</time>
      </trkpt>
      <trkpt lat="49.82649" lon="2.31608">
        <ele>107.4</ele>
        <time>2023-08-10T08:02:17Z</time>
      </trkpt>
      <trkpt lat="49.82649" lon="2.31606">
        <ele>107.4</ele>
        <time>2023-08-10T08:02:19Z</time>
      </trkpt>
      <trkpt lat="49.82648" lon="2.31605">
        <ele>107.4</ele>
        <time>2023-08-10T08:02:20Z</time>
      </trkpt>
      <trkpt lat="49.82648" lon="2.31601">
        <ele>107.4</ele>
        <time>2023-08-10T08:02:22Z</time>
      </trkpt>
      <trkpt lat="49.82648" lon="2.316">
        <ele>107.4</ele>
        <time>2023-08-10T08:02:23Z</time>
      </trkpt>
      <trkpt lat="49.82648" lon="2.31598">
        <ele>107.4</ele>
        <time>2023-08-10T08:02:24Z</time>
      </trkpt>
      <trkpt lat="49.82647" lon="2.31596">
        <ele>107.3</ele>
        <time>2023-08-10T08:02:25Z</time>
      </trkpt>
      <trkpt lat="49.82647" lon="2.31594">
        <ele>107.3</ele>
        <time>2023-08-10T08:02:26Z</time>
      </trkpt>
      <trkpt lat="49.82647" lon="2.31593">
        <ele>107.3</ele>
        <time>2023-08-10T08:02:27Z</time>
      </trkpt>
      <trkpt lat="49.82647" lon="2.31591">
        <ele>107.3</ele>
        <time>2023-08-10T08:02:28Z</time>
      </trkpt>
      <trkpt lat="49.82647" lon="2.31589">
        <ele>107.3</ele>
        <time>2023-08-10T08:02:29Z</time>
      </trkpt>
      <trkpt lat="49.82647" lon="2.31586">
        <ele>107.3</ele>
        <time>2023-08-10T08:02:31Z</time>
      </trkpt>
      <trkpt lat="49.82646" lon="2.31584">
        <ele>107.2</ele>
        <time>2023-08-10T08:02:32Z</time>
      </trkpt>
      <trkpt lat="49.82646" lon="2.31581">
        <ele>107.2</ele>
        <time>2023-08-10T08:02:33Z</time>
      </trkpt>
      <trkpt lat="49.82646" lon="2.3158">
        <ele>107.2</ele>
        <time>2023-08-10T08:02:34Z</time>
      </trkpt>
      <trkpt lat="49.82646" lon="2.31578">
        <ele>107.2</ele>
        <time>2023-08-10T08:02:35Z</time>
      </trkpt>
      <trkpt lat="49.82646" lon="2.31577">
        <ele>107.2</ele>
        <time>2023-08-10T08:02:36Z</time>
      </trkpt>
      <trkpt lat="49.82646" lon="2.31575">
        <ele>107.2</ele>
        <time>2023-08-10T08:02:38Z</time>
      </trkpt>
      <trkpt lat="49.82646" lon="2.31573">
        <ele>107.2</ele>
        <time>2023-08-10T08:02:39Z</time>
      </trkpt>
      <trkpt lat="49.82645" lon="2.31571">
        <ele>107.2</ele>
        <time>2023-08-10T08:02:40Z</time>
      </trkpt>
      <trkpt lat="49.82645" lon="2.31569">
        <ele>107.1</ele>
        <time>2023-08-10T08:02:41Z</time>
      </trkpt>
      <trkpt lat="49.82645" lon="2.31568">
        <ele>107.1</ele>
        <time>2023-08-10T08:02:42Z</time>
      </trkpt>
      <trkpt lat="49.82645" lon="2.31566">
        <ele>107.1</ele>
        <time>2023-08-10T08:02:43Z</time>
      </trkpt>
      <trkpt lat="49.82645" lon="2.31564">
        <ele>107.1</ele>
        <time>2023-08-10T08:02:44Z</time>
      </trkpt>
      <trkpt lat="49.82644" lon="2.31562">
        <ele>107.1</ele>
        <time>2023-08-10T08:02:46Z</time>
      </trkpt>
      <trkpt lat="49.82644" lon="2.3156">
        <ele>107.1</ele>
        <time>2023-08-10T08:02:47Z</time>
      </trkpt>
      <trkpt lat="49.82644" lon="2.31558">
        <ele>107.1</ele>
        <time>2023-08-10T08:02:48Z</time>
      </trkpt>
      <trkpt lat="49.82643" lon="2.31556">
        <ele>107</ele>
        <time>2023-08-10T08:02:49Z</time>
      </trkpt>
      <trkpt lat="49.82643" lon="2.31553">
        <ele>107</ele>
        <time>2023-08-10T08:02:50Z</time>
      </trkpt>
      <trkpt lat="49.82643" lon="2.31552">
        <ele>107</ele>
        <time>2023-08-10T08:02:51Z</time>
      </trkpt>
      <trkpt lat="49.82643" lon="2.31551">
        <ele>107</ele>
        <time>2023-08-10T08:02:52Z</time>
      </trkpt>
      <trkpt lat="49.82642" lon="2.31549">
        <ele>107</ele>
        <time>2023-08-10T08:02:53Z</time>
      </trkpt>
      <trkpt lat="49.82642" lon="2.31547">
        <ele>107</ele>
        <time>2023-08-10T08:02:54Z</time>
      </trkpt>
      <trkpt lat="49.82642" lon="2.31544">
        <ele>107</ele>
        <time>2023-08-10T08:02:56Z</time>
      </trkpt>
      <trkpt lat="49.82641" lon="2.31541">
        <ele>106.9</ele>
        <time>2023-08-10T08:02:57Z</time>
      </trkpt>
      <trkpt lat="49.82641" lon="2.3154">
        <ele>106.9</ele>
        <time>2023-08-10T08:02:58Z</time>
      </trkpt>
      <trkpt lat="49.82641" lon="2.31539">
        <ele>106.9</ele>
        <time>2023-08-10T08:02:59Z</time>
      </trkpt>
      <trkpt lat="49.82641" lon="2.31535">
        <ele>106.9</ele>
        <time>2023-08-10T08:03:00Z</time>
      </trkpt>
      <trkpt lat="49.82641" lon="2.31534">
        <ele>106.9</ele>
        <time>2023-08-10T08:03:02Z</time>
      </trkpt>
      <trkpt lat="49.8264" lon="2.31533">
        <ele>106.8</ele>
        <time>2023-08-10T08:03:03Z</time>
      </trkpt>
      <trkpt lat="49.8264" lon="2.31529">
        <ele>106.8</ele>
        <time>2023-08-10T08:03:04Z</time>
      </trkpt>
      <trkpt lat="49.8264" lon="2.31528">
        <ele>106.8</ele>
        <time>2023-08-10T08:03:05Z</time>
      </trkpt>
      <trkpt lat="49.8264" lon="2.31527">
        <ele>106.8</ele>
        <time>2023-08-10T08:03:06Z</time>
      </trkpt>
      <trkpt lat="49.82639" lon="2.31524">
        <ele>106.8</ele>
        <time>2023-08-10T08:03:07Z</time>
      </trkpt>
      <trkpt lat="49.82639" lon="2.31522">
        <ele>106.7</ele>
        <time>2023-08-10T08:03:09Z</time>
      </trkpt>
      <trkpt lat="49.82639" lon="2.3152">
        <ele>106.7</ele>
        <time>2023-08-10T08:03:10Z</time>
      </trkpt>
      <trkpt lat="49.82639" lon="2.31519">
        <ele>106.7</ele>
        <time>2023-08-10T08:03:11Z</time>
      </trkpt>
      <trkpt lat="49.82638" lon="2.31517">
        <ele>106.7</ele>
        <time>2023-08-10T08:03:12Z</time>
      </trkpt>
      <trkpt lat="49.82638" lon="2.31514">
        <ele>106.7</ele>
        <time>2023-08-10T08:03:13Z</time>
      </trkpt>
      <trkpt lat="49.82638" lon="2.31512">
        <ele>106.7</ele>
        <time>2023-08-10T08:03:15Z</time>
      </trkpt>
      <trkpt lat="49.82638" lon="2.31511">
        <ele>106.6</ele>
        <time>2023-08-10T08:03:16Z</time>
      </trkpt>
      <trkpt lat="49.82638" lon="2.31509">
        <ele>106.6</ele>
        <time>2023-08-10T08:03:17Z</time>
      </trkpt>
      <trkpt lat="49.82638" lon="2.31507">
        <ele>106.6</ele>
        <time>2023-08-10T08:03:18Z</time>
      </trkpt>
      <trkpt lat="49.82637" lon="2.31506">
        <ele>106.6</ele>
        <time>2023-08-10T08:03:19Z</time>
      </trkpt>
      <trkpt lat="49.82637" lon="2.31502">
        <ele>106.6</ele>
        <time>2023-08-10T08:03:20Z</time>
      </trkpt>
      <trkpt lat="49.82637" lon="2.31501">
        <ele>106.5</ele>
        <time>2023-08-10T08:03:21Z</time>
      </trkpt>
      <trkpt lat="49.82637" lon="2.315">
        <ele>106.5</ele>
        <time>2023-08-10T08:03:22Z</time>
      </trkpt>
      <trkpt lat="49.82637" lon="2.31498">
        <ele>106.5</ele>
        <time>2023-08-10T08:03:23Z</time>
      </trkpt>
      <trkpt lat="49.82637" lon="2.31496">
        <ele>106.5</ele>
        <time>2023-08-10T08:03:25Z</time>
      </trkpt>
      <trkpt lat="49.82636" lon="2.31494">
        <ele>106.5</ele>
        <time>2023-08-10T08:03:26Z</time>
      </trkpt>
      <trkpt lat="49.82636" lon="2.31493">
        <ele>106.4</ele>
        <time>2023-08-10T08:03:27Z</time>
      </trkpt>
      <trkpt lat="49.82636" lon="2.31491">
        <ele>106.4</ele>
        <time>2023-08-10T08:03:28Z</time>
      </trkpt>
      <trkpt lat="49.82635" lon="2.3149">
        <ele>106.4</ele>
        <time>2023-08-10T08:03:29Z</time>
      </trkpt>
      <trkpt lat="49.82635" lon="2.31488">
        <ele>106.4</ele>
        <time>2023-08-10T08:03:30Z</time>
      </trkpt>
      <trkpt lat="49.82635" lon="2.31486">
        <ele>106.4</ele>
        <time>2023-08-10T08:03:31Z</time>
      </trkpt>
      <trkpt lat="49.82635" lon="2.31484">
        <ele>106.4</ele>
        <time>2023-08-10T08:03:32Z</time>
      </trkpt>
      <trkpt lat="49.82635" lon="2.31482">
        <ele>106.3</ele>
        <time>2023-08-10T08:03:33Z</time>
      </trkpt>
      <trkpt lat="49.82635" lon="2.3148">
        <ele>106.3</ele>
        <time>2023-08-10T08:03:35Z</time>
      </trkpt>
      <trkpt lat="49.82635" lon="2.31478">
        <ele>106.3</ele>
        <time>2023-08-10T08:03:36Z</time>
      </trkpt>
      <trkpt lat="49.82635" lon="2.31477">
        <ele>106.3</ele>
        <time>2023-08-10T08:03:37Z</time>
      </trkpt>
      <trkpt lat="49.82634" lon="2.31475">
        <ele>106.2</ele>
        <time>2023-08-10T08:03:38Z</time>
      </trkpt>
      <trkpt lat="49.82634" lon="2.31471">
        <ele>106.2</ele>
        <time>2023-08-10T08:03:40Z</time>
      </trkpt>
      <trkpt lat="49.82634" lon="2.3147">
        <ele>106.2</ele>
        <time>2023-08-10T08:03:41Z</time>
      </trkpt>
      <trkpt lat="49.82634" lon="2.31469">
        <ele>106.2</ele>
        <time>2023-08-10T08:03:42Z</time>
      </trkpt>
      <trkpt lat="49.82633" lon="2.31467">
        <ele>106.2</ele>
        <time>2023-08-10T08:03:43Z</time>
      </trkpt>
      <trkpt lat="49.82633" lon="2.31465">
        <ele>106.1</ele>
        <time>2023-08-10T08:03:44Z</time>
      </trkpt>
      <trkpt lat="49.82633" lon="2.31463">
        <ele>106.1</ele>
        <time>2023-08-10T08:03:45Z</time>
      </trkpt>
      <trkpt lat="49.82633" lon="2.31461">
        <ele>106.1</ele>
        <time>2023-08-10T08:03:46Z</time>
      </trkpt>
      <trkpt lat="49.82633" lon="2.3146">
        <ele>106.1</ele>
        <time>2023-08-10T08:03:47Z</time>
      </trkpt>
      <trkpt lat="49.82633" lon="2.31458">
        <ele>106.1</ele>
        <time>2023-08-10T08:03:48Z</time>
      </trkpt>
      <trkpt lat="49.82633" lon="2.31456">
        <ele>106.1</ele>
        <time>2023-08-10T08:03:50Z</time>
      </trkpt>
      <trkpt lat="49.82633" lon="2.31454">
        <ele>106</ele>
        <time>2023-08-10T08:03:51Z</time>
      </trkpt>
      <trkpt lat="49.82632" lon="2.31451">
        <ele>106</ele>
        <time>2023-08-10T08:03:52Z</time>
      </trkpt>
      <trkpt lat="49.82632" lon="2.31449">
        <ele>106</ele>
        <time>2023-08-10T08:03:53Z</time>
      </trkpt>
      <trkpt lat="49.82632" lon="2.31448">
        <ele>106</ele>
        <time>2023-08-10T08:03:54Z</time>
      </trkpt>
      <trkpt lat="49.82631" lon="2.31445">
        <ele>106</ele>
        <time>2023-08-10T08:03:56Z</time>
      </trkpt>
      <trkpt lat="49.82631" lon="2.31443">
        <ele>105.9</ele>
        <time>2023-08-10T08:03:57Z</time>
      </trkpt>
      <trkpt lat="49.82631" lon="2.31441">
        <ele>105.9</ele>
        <time>2023-08-10T08:03:59Z</time>
      </trkpt>
      <trkpt lat="49.8263" lon="2.31438">
        <ele>105.9</ele>
        <time>2023-08-10T08:04:00Z</time>
      </trkpt>
      <trkpt lat="49.82631" lon="2.31435">
        <ele>105.9</ele>
        <time>2023-08-10T08:04:01Z</time>
      </trkpt>
      <trkpt lat="49.82631" lon="2.31434">
        <ele>105.9</ele>
        <time>2023-08-10T08:04:02Z</time>
      </trkpt>
      <trkpt lat="49.82631" lon="2.31433">
        <ele>105.9</ele>
        <time>2023-08-10T08:04:03Z</time>
      </trkpt>
      <trkpt lat="49.82632" lon="2.31431">
        <ele>106</ele>
        <time>2023-08-10T08:04:04Z</time>
      </trkpt>
      <trkpt lat="49.82632" lon="2.31429">
        <ele>106</ele>
        <time>2023-08-10T08:04:05Z</time>
      </trkpt>
      <trkpt lat="49.82633" lon="2.31427">
        <ele>106</ele>
        <time>2023-08-10T08:04:07Z</time>
      </trkpt>
      <trkpt lat="49.82634" lon="2.31426">
        <ele>106</ele>
        <time>2023-08-10T08:04:08Z</time>
      </trkpt>
      <trkpt lat="49.82635" lon="2.31424">
        <ele>106.1</ele>
        <time>2023-08-10T08:04:09Z</time>
      </trkpt>
      <trkpt lat="49.82637" lon="2.31423">
        <ele>106.1</ele>
        <time>2023-08-10T08:04:10Z</time>
      </trkpt>
      <trkpt lat="49.82638" lon="2.31422">
        <ele>106.1</ele>
        <time>2023-08-10T08:04:11Z</time>
      </trkpt>
      <trkpt lat="49.82639" lon="2.31422">
        <ele>106.2</ele>
        <time>2023-08-10T08:04:12Z</time>
      </trkpt>
      <trkpt lat="49.82641" lon="2.31422">
        <ele>106.2</ele>
        <time>2023-08-10T08:04:13Z</time>
      </trkpt>
      <trkpt lat="49.82642" lon="2.31422">
        <ele>106.2</ele>
        <time>2023-08-10T08:04:14Z</time>
      </trkpt>
      <trkpt lat="49.82643" lon="2.31422">
        <ele>106.2</ele>
        <time>2023-08-10T08:04:15Z</time>
      </trkpt>
      <trkpt lat="49.82644" lon="2.31421">
        <ele>106.3</ele>
        <time>2023-08-10T08:04:17Z</time>
      </trkpt>
      <trkpt lat="49.82646" lon="2.31421">
        <ele>106.3</ele>
        <time>2023-08-10T08:04:18Z</time>
      </trkpt>
      <trkpt lat="49.82647" lon="2.3142">
        <ele>106.3</ele>
        <time>2023-08-10T08:04:19Z</time>
      </trkpt>
      <trkpt lat="49.82648" lon="2.31419">
        <ele>106.4</ele>
        <time>2023-08-10T08:04:20Z</time>
      </trkpt>
      <trkpt lat="49.82649" lon="2.31419">
        <ele>106.4</ele>
        <time>2023-08-10T08:04:21Z</time>
      </trkpt>
      <trkpt lat="49.8265" lon="2.31418">
        <ele>106.4</ele>
        <time>2023-08-10T08:04:23Z</time>
      </trkpt>
      <trkpt lat="49.82651" lon="2.31418">
        <ele>106.4</ele>
        <time>2023-08-10T08:04:24Z</time>
      </trkpt>
      <trkpt lat="49.82652" lon="2.31418">
        <ele>106.5</ele>
        <time>2023-08-10T08:04:25Z</time>
      </trkpt>
      <trkpt lat="49.82653" lon="2.31418">
        <ele>106.5</ele>
        <time>2023-08-10T08:04:26Z</time>
      </trkpt>
      <trkpt lat="49.82654" lon="2.31418">
        <ele>106.5</ele>
        <time>2023-08-10T08:04:27Z</time>
      </trkpt>
      <trkpt lat="49.82656" lon="2.31418">
        <ele>106.6</ele>
        <time>2023-08-10T08:04:28Z</time>
      </trkpt>
      <trkpt lat="49.82658" lon="2.31417">
        <ele>106.6</ele>
        <time>2023-08-10T08:04:29Z</time>
      </trkpt>
      <trkpt lat="49.82659" lon="2.31417">
        <ele>106.6</ele>
        <time>2023-08-10T08:04:31Z</time>
      </trkpt>
      <trkpt lat="49.8266" lon="2.31417">
        <ele>106.7</ele>
        <time>2023-08-10T08:04:32Z</time>
      </trkpt>
      <trkpt lat="49.82661" lon="2.31417">
        <ele>106.7</ele>
        <time>2023-08-10T08:04:33Z</time>
      </trkpt>
      <trkpt lat="49.82662" lon="2.31416">
        <ele>106.7</ele>
        <time>2023-08-10T08:04:34Z</time>
      </trkpt>
      <trkpt lat="49.82663" lon="2.31416">
        <ele>106.7</ele>
        <time>2023-08-10T08:04:35Z</time>
      </trkpt>
      <trkpt lat="49.82664" lon="2.31415">
        <ele>106.7</ele>
        <time>2023-08-10T08:04:37Z</time>
      </trkpt>
      <trkpt lat="49.82665" lon="2.31415">
        <ele>106.7</ele>
        <time>2023-08-10T08:04:38Z</time>
      </trkpt>
      <trkpt lat="49.82666" lon="2.31414">
        <ele>106.7</ele>
        <time>2023-08-10T08:04:39Z</time>
      </trkpt>
      <trkpt lat="49.82667" lon="2.31413">
        <ele>106.8</ele>
        <time>2023-08-10T08:04:40Z</time>
      </trkpt>
      <trkpt lat="49.82668" lon="2.31413">
        <ele>106.8</ele>
        <time>2023-08-10T08:04:41Z</time>
      </trkpt>
      <trkpt lat="49.82669" lon="2.31412">
        <ele>106.8</ele>
        <time>2023-08-10T08:04:42Z</time>
      </trkpt>
      <trkpt lat="49.8267" lon="2.31412">
        <ele>106.8</ele>
        <time>2023-08-10T08:04:43Z</time>
      </trkpt>
      <trkpt lat="49.82671" lon="2.31411">
        <ele>106.8</ele>
        <time>2023-08-10T08:04:45Z</time>
      </trkpt>
      <trkpt lat="49.82672" lon="2.3141">
        <ele>106.8</ele>
        <time>2023-08-10T08:04:46Z</time>
      </trkpt>
      <trkpt lat="49.82674" lon="2.31409">
        <ele>106.8</ele>
        <time>2023-08-10T08:04:47Z</time>
      </trkpt>
      <trkpt lat="49.82674" lon="2.31408">
        <ele>106.8</ele>
        <time>2023-08-10T08:04:48Z</time>
      </trkpt>
      <trkpt lat="49.82675" lon="2.31408">
        <ele>106.8</ele>
        <time>2023-08-10T08:04:49Z</time>
      </trkpt>
      <trkpt lat="49.82676" lon="2.31408">
        <ele>106.8</ele>
        <time>2023-08-10T08:04:50Z</time>
      </trkpt>
      <trkpt lat="49.82677" lon="2.31407">
        <ele>106.8</ele>
        <time>2023-08-10T08:04:52Z</time>
      </trkpt>
      <trkpt lat="49.82678" lon="2.31407">
        <ele>106.8</ele>
        <time>2023-08-10T08:04:53Z</time>
      </trkpt>
      <trkpt lat="49.82679" lon="2.31407">
        <ele>106.8</ele>
        <time>2023-08-10T08:04:54Z</time>
      </trkpt>
      <trkpt lat="49.8268" lon="2.31406">
        <ele>106.8</ele>
        <time>2023-08-10T08:04:55Z</time>
      </trkpt>
      <trkpt lat="49.82681" lon="2.31405">
        <ele>106.8</ele>
        <time>2023-08-10T08:04:56Z</time>
      </trkpt>
      <trkpt lat="49.82683" lon="2.31403">
        <ele>106.8</ele>
        <time>2023-08-10T08:04:58Z</time>
      </trkpt>
      <trkpt lat="49.82684" lon="2.31403">
        <ele>106.8</ele>
        <time>2023-08-10T08:04:59Z</time>
      </trkpt>
      <trkpt lat="49.82684" lon="2.31402">
        <ele>106.8</ele>
        <time>2023-08-10T08:05:00Z</time>
      </trkpt>
      <trkpt lat="49.82686" lon="2.31401">
        <ele>106.8</ele>
        <time>2023-08-10T08:05:01Z</time>
      </trkpt>
      <trkpt lat="49.82687" lon="2.31401">
        <ele>106.8</ele>
        <time>2023-08-10T08:05:02Z</time>
      </trkpt>
      <trkpt lat="49.82688" lon="2.31401">
        <ele>106.8</ele>
        <time>2023-08-10T08:05:03Z</time>
      </trkpt>
      <trkpt lat="49.8269" lon="2.314">
        <ele>106.8</ele>
        <time>2023-08-10T08:05:04Z</time>
      </trkpt>
      <trkpt lat="49.82691" lon="2.314">
        <ele>106.8</ele>
        <time>2023-08-10T08:05:05Z</time>
      </trkpt>
      <trkpt lat="49.82692" lon="2.31399">
        <ele>106.8</ele>
        <time>2023-08-10T08:05:06Z</time>
      </trkpt>
      <trkpt lat="49.82693" lon="2.31399">
        <ele>106.8</ele>
        <time>2023-08-10T08:05:08Z</time>
      </trkpt>
      <trkpt lat="49.82694" lon="2.31398">
        <ele>106.8</ele>
        <time>2023-08-10T08:05:09Z</time>
      </trkpt>
      <trkpt lat="49.82696" lon="2.31397">
        <ele>106.8</ele>
        <time>2023-08-10T08:05:10Z</time>
      </trkpt>
      <trkpt lat="49.82697" lon="2.31396">
        <ele>106.8</ele>
        <time>2023-08-10T08:05:11Z</time>
      </trkpt>
      <trkpt lat="49.82699" lon="2.31394">
        <ele>106.8</ele>
        <time>2023-08-10T08:05:12Z</time>
      </trkpt>
      <trkpt lat="49.827" lon="2.31394">
        <ele>106.8</ele>
        <time>2023-08-10T08:05:14Z</time>
      </trkpt>
      <trkpt lat="49.82701" lon="2.31393">
        <ele>106.8</ele>
        <time>2023-08-10T08:05:15Z</time>
      </trkpt>
      <trkpt lat="49.82702" lon="2.31392">
        <ele>106.8</ele>
        <time>2023-08-10T08:05:17Z</time>
      </trkpt>
      <trkpt lat="49.82703" lon="2.31391">
        <ele>106.8</ele>
        <time>2023-08-10T08:05:18Z</time>
      </trkpt>
      <trkpt lat="49.82705" lon="2.3139">
        <ele>106.8</ele>
        <time>2023-08-10T08:05:19Z</time>
      </trkpt>
      <trkpt lat="49.82706" lon="2.31389">
        <ele>106.8</ele>
        <time>2023-08-10T08:05:20Z</time>
      </trkpt>
      <trkpt lat="49.82707" lon="2.31389">
        <ele>106.7</ele>
        <time>2023-08-10T08:05:21Z</time>
      </trkpt>
      <trkpt lat="49.82708" lon="2.31388">
        <ele>106.7</ele>
        <time>2023-08-10T08:05:22Z</time>
      </trkpt>
      <trkpt lat="49.82709" lon="2.31387">
        <ele>106.7</ele>
        <time>2023-08-10T08:05:23Z</time>
      </trkpt>
      <trkpt lat="49.8271" lon="2.31386">
        <ele>106.7</ele>
        <time>2023-08-10T08:05:25Z</time>
      </trkpt>
      <trkpt lat="49.82712" lon="2.31385">
        <ele>106.6</ele>
        <time>2023-08-10T08:05:26Z</time>
      </trkpt>
      <trkpt lat="49.82713" lon="2.31385">
        <ele>106.6</ele>
        <time>2023-08-10T08:05:27Z</time>
      </trkpt>
      <trkpt lat="49.82714" lon="2.31384">
        <ele>106.6</ele>
        <time>2023-08-10T08:05:28Z</time>
      </trkpt>
      <trkpt lat="49.82715" lon="2.31384">
        <ele>106.6</ele>
        <time>2023-08-10T08:05:29Z</time>
      </trkpt>
      <trkpt lat="49.82717" lon="2.31382">
        <ele>106.5</ele>
        <time>2023-08-10T08:05:31Z</time>
      </trkpt>
      <trkpt lat="49.82718" lon="2.31382">
        <ele>106.5</ele>
        <time>2023-08-10T08:05:32Z</time>
      </trkpt>
      <trkpt lat="49.82719" lon="2.31381">
        <ele>106.5</ele>
        <time>2023-08-10T08:05:33Z</time>
      </trkpt>
      <trkpt lat="49.82721" lon="2.31379">
        <ele>106.4</ele>
        <time>2023-08-10T08:05:35Z</time>
      </trkpt>
      <trkpt lat="49.82723" lon="2.31378">
        <ele>106.4</ele>
        <time>2023-08-10T08:05:36Z</time>
      </trkpt>
      <trkpt lat="49.82724" lon="2.31377">
        <ele>106.3</ele>
        <time>2023-08-10T08:05:37Z</time>
      </trkpt>
      <trkpt lat="49.82726" lon="2.31376">
        <ele>106.3</ele>
        <time>2023-08-10T08:05:39Z</time>
      </trkpt>
      <trkpt lat="49.82727" lon="2.31375">
        <ele>106.2</ele>
        <time>2023-08-10T08:05:40Z</time>
      </trkpt>
      <trkpt lat="49.82729" lon="2.31374">
        <ele>106.2</ele>
        <time>2023-08-10T08:05:41Z</time>
      </trkpt>
      <trkpt lat="49.8273" lon="2.31374">
        <ele>106.1</ele>
        <time>2023-08-10T08:05:42Z</time>
      </trkpt>
      <trkpt lat="49.82731" lon="2.31374">
        <ele>106.1</ele>
        <time>2023-08-10T08:05:43Z</time>
      </trkpt>
      <trkpt lat="49.82732" lon="2.31373">
        <ele>106</ele>
        <time>2023-08-10T08:05:44Z</time>
      </trkpt>
      <trkpt lat="49.82734" lon="2.31373">
        <ele>106</ele>
        <time>2023-08-10T08:05:46Z</time>
      </trkpt>
      <trkpt lat="49.82736" lon="2.31372">
        <ele>105.9</ele>
        <time>2023-08-10T08:05:47Z</time>
      </trkpt>
      <trkpt lat="49.82737" lon="2.31371">
        <ele>105.8</ele>
        <time>2023-08-10T08:05:48Z</time>
      </trkpt>
      <trkpt lat="49.82737" lon="2.31371">
        <ele>105.8</ele>
        <time>2023-08-10T08:05:49Z</time>
      </trkpt>
      <trkpt lat="49.82739" lon="2.31371">
        <ele>105.8</ele>
        <time>2023-08-10T08:05:50Z</time>
      </trkpt>
      <trkpt lat="49.8274" lon="2.3137">
        <ele>105.7</ele>
        <time>2023-08-10T08:05:51Z</time>
      </trkpt>
      <trkpt lat="49.82741" lon="2.31369">
        <ele>105.6</ele>
        <time>2023-08-10T08:05:53Z</time>
      </trkpt>
      <trkpt lat="49.82743" lon="2.31368">
        <ele>105.5</ele>
        <time>2023-08-10T08:05:55Z</time>
      </trkpt>
      <trkpt lat="49.82744" lon="2.31367">
        <ele>105.5</ele>
        <time>2023-08-10T08:05:56Z</time>
      </trkpt>
      <trkpt lat="49.82745" lon="2.31367">
        <ele>105.4</ele>
        <time>2023-08-10T08:05:57Z</time>
      </trkpt>
      <trkpt lat="49.82746" lon="2.31366">
        <ele>105.3</ele>
        <time>2023-08-10T08:05:58Z</time>
      </trkpt>
      <trkpt lat="49.82747" lon="2.31366">
        <ele>105.3</ele>
        <time>2023-08-10T08:05:59Z</time>
      </trkpt>
      <trkpt lat="49.82748" lon="2.31365">
        <ele>105.2</ele>
        <time>2023-08-10T08:06:00Z</time>
      </trkpt>
      <trkpt lat="49.82749" lon="2.31364">
        <ele>105.2</ele>
        <time>2023-08-10T08:06:01Z</time>
      </trkpt>
      <trkpt lat="49.8275" lon="2.31364">
        <ele>105.1</ele>
        <time>2023-08-10T08:06:02Z</time>
      </trkpt>
      <trkpt lat="49.82752" lon="2.31362">
        <ele>105</ele>
        <time>2023-08-10T08:06:04Z</time>
      </trkpt>
      <trkpt lat="49.82753" lon="2.31361">
        <ele>105</ele>
        <time>2023-08-10T08:06:05Z</time>
      </trkpt>
      <trkpt lat="49.82754" lon="2.31361">
        <ele>104.9</ele>
        <time>2023-08-10T08:06:06Z</time>
      </trkpt>
      <trkpt lat="49.82755" lon="2.3136">
        <ele>104.9</ele>
        <time>2023-08-10T08:06:08Z</time>
      </trkpt>
      <trkpt lat="49.82757" lon="2.31359">
        <ele>104.8</ele>
        <time>2023-08-10T08:06:09Z</time>
      </trkpt>
      <trkpt lat="49.82757" lon="2.31358">
        <ele>104.8</ele>
        <time>2023-08-10T08:06:10Z</time>
      </trkpt>
      <trkpt lat="49.82758" lon="2.31358">
        <ele>104.7</ele>
        <time>2023-08-10T08:06:11Z</time>
      </trkpt>
      <trkpt lat="49.82759" lon="2.31357">
        <ele>104.7</ele>
        <time>2023-08-10T08:06:12Z</time>
      </trkpt>
      <trkpt lat="49.8276" lon="2.31357">
        <ele>104.6</ele>
        <time>2023-08-10T08:06:13Z</time>
      </trkpt>
      <trkpt lat="49.82761" lon="2.31356">
        <ele>104.6</ele>
        <time>2023-08-10T08:06:14Z</time>
      </trkpt>
      <trkpt lat="49.82762" lon="2.31355">
        <ele>104.6</ele>
        <time>2023-08-10T08:06:15Z</time>
      </trkpt>
      <trkpt lat="49.82763" lon="2.31354">
        <ele>104.5</ele>
        <time>2023-08-10T08:06:16Z</time>
      </trkpt>
      <trkpt lat="49.82764" lon="2.31354">
        <ele>104.5</ele>
        <time>2023-08-10T08:06:18Z</time>
      </trkpt>
      <trkpt lat="49.82765" lon="2.31353">
        <ele>104.4</ele>
        <time>2023-08-10T08:06:19Z</time>
      </trkpt>
      <trkpt lat="49.82766" lon="2.31353">
        <ele>104.4</ele>
        <time>2023-08-10T08:06:20Z</time>
      </trkpt>
      <trkpt lat="49.82767" lon="2.31353">
        <ele>104.4</ele>
        <time>2023-08-10T08:06:21Z</time>
      </trkpt>
      <trkpt lat="49.82768" lon="2.31352">
        <ele>104.3</ele>
        <time>2023-08-10T08:06:22Z</time>
      </trkpt>
      <trkpt lat="49.82769" lon="2.31352">
        <ele>104.3</ele>
        <time>2023-08-10T08:06:23Z</time>
      </trkpt>
      <trkpt lat="49.8277" lon="2.3135">
        <ele>104.2</ele>
        <time>2023-08-10T08:06:25Z</time>
      </trkpt>
      <trkpt lat="49.82772" lon="2.3135">
        <ele>104.2</ele>
        <time>2023-08-10T08:06:26Z</time>
      </trkpt>
      <trkpt lat="49.82773" lon="2.3135">
        <ele>104.2</ele>
        <time>2023-08-10T08:06:27Z</time>
      </trkpt>
      <trkpt lat="49.82774" lon="2.3135">
        <ele>104.1</ele>
        <time>2023-08-10T08:06:28Z</time>
      </trkpt>
      <trkpt lat="49.82775" lon="2.31349">
        <ele>104.1</ele>
        <time>2023-08-10T08:06:30Z</time>
      </trkpt>
      <trkpt lat="49.82776" lon="2.31349">
        <ele>104</ele>
        <time>2023-08-10T08:06:31Z</time>
      </trkpt>
      <trkpt lat="49.82777" lon="2.31348">
        <ele>104</ele>
        <time>2023-08-10T08:06:32Z</time>
      </trkpt>
      <trkpt lat="49.82778" lon="2.31348">
        <ele>104</ele>
        <time>2023-08-10T08:06:33Z</time>
      </trkpt>
      <trkpt lat="49.82779" lon="2.31347">
        <ele>104</ele>
        <time>2023-08-10T08:06:34Z</time>
      </trkpt>
      <trkpt lat="49.82781" lon="2.31347">
        <ele>104</ele>
        <time>2023-08-10T08:06:35Z</time>
      </trkpt>
      <trkpt lat="49.82783" lon="2.31347">
        <ele>104</ele>
        <time>2023-08-10T08:06:36Z</time>
      </trkpt>
      <trkpt lat="49.82783" lon="2.31346">
        <ele>104</ele>
        <time>2023-08-10T08:06:38Z</time>
      </trkpt>
      <trkpt lat="49.82784" lon="2.31346">
        <ele>103.9</ele>
        <time>2023-08-10T08:06:39Z</time>
      </trkpt>
      <trkpt lat="49.82786" lon="2.31346">
        <ele>103.9</ele>
        <time>2023-08-10T08:06:40Z</time>
      </trkpt>
      <trkpt lat="49.82787" lon="2.31345">
        <ele>103.9</ele>
        <time>2023-08-10T08:06:41Z</time>
      </trkpt>
      <trkpt lat="49.82788" lon="2.31345">
        <ele>103.9</ele>
        <time>2023-08-10T08:06:42Z</time>
      </trkpt>
      <trkpt lat="49.8279" lon="2.31344">
        <ele>103.9</ele>
        <time>2023-08-10T08:06:43Z</time>
      </trkpt>
      <trkpt lat="49.82791" lon="2.31344">
        <ele>103.9</ele>
        <time>2023-08-10T08:06:44Z</time>
      </trkpt>
      <trkpt lat="49.82792" lon="2.31344">
        <ele>103.9</ele>
        <time>2023-08-10T08:06:46Z</time>
      </trkpt>
      <trkpt lat="49.82793" lon="2.31343">
        <ele>103.9</ele>
        <time>2023-08-10T08:06:47Z</time>
      </trkpt>
      <trkpt lat="49.82794" lon="2.31343">
        <ele>103.8</ele>
        <time>2023-08-10T08:06:48Z</time>
      </trkpt>
      <trkpt lat="49.82795" lon="2.31343">
        <ele>103.8</ele>
        <time>2023-08-10T08:06:49Z</time>
      </trkpt>
      <trkpt lat="49.82796" lon="2.31342">
        <ele>103.8</ele>
        <time>2023-08-10T08:06:50Z</time>
      </trkpt>
      <trkpt lat="49.82797" lon="2.31342">
        <ele>103.8</ele>
        <time>2023-08-10T08:06:51Z</time>
      </trkpt>
      <trkpt lat="49.82798" lon="2.31342">
        <ele>103.8</ele>
        <time>2023-08-10T08:06:53Z</time>
      </trkpt>
      <trkpt lat="49.82799" lon="2.31342">
        <ele>103.8</ele>
        <time>2023-08-10T08:06:54Z</time>
      </trkpt>
      <trkpt lat="49.828" lon="2.31341">
        <ele>103.8</ele>
        <time>2023-08-10T08:06:55Z</time>
      </trkpt>
      <trkpt lat="49.82801" lon="2.3134">
        <ele>103.8</ele>
        <time>2023-08-10T08:06:56Z</time>
      </trkpt>
      <trkpt lat="49.82802" lon="2.3134">
        <ele>103.8</ele>
        <time>2023-08-10T08:06:57Z</time>
      </trkpt>
      <trkpt lat="49.82803" lon="2.31339">
        <ele>103.8</ele>
        <time>2023-08-10T08:06:58Z</time>
      </trkpt>
      <trkpt lat="49.82804" lon="2.31338">
        <ele>103.8</ele>
        <time>2023-08-10T08:06:59Z</time>
      </trkpt>
      <trkpt lat="49.82805" lon="2.31338">
        <ele>103.8</ele>
        <time>2023-08-10T08:07:01Z</time>
      </trkpt>
      <trkpt lat="49.82806" lon="2.31337">
        <ele>103.8</ele>
        <time>2023-08-10T08:07:02Z</time>
      </trkpt>
      <trkpt lat="49.82807" lon="2.31336">
        <ele>103.8</ele>
        <time>2023-08-10T08:07:03Z</time>
      </trkpt>
      <trkpt lat="49.82808" lon="2.31335">
        <ele>103.8</ele>
        <time>2023-08-10T08:07:04Z</time>
      </trkpt>
      <trkpt lat="49.82809" lon="2.31335">
        <ele>103.8</ele>
        <time>2023-08-10T08:07:05Z</time>
      </trkpt>
      <trkpt lat="49.8281" lon="2.31335">
        <ele>103.8</ele>
        <time>2023-08-10T08:07:07Z</time>
      </trkpt>
      <trkpt lat="49.82812" lon="2.31334">
        <ele>103.8</ele>
        <time>2023-08-10T08:07:08Z</time>
      </trkpt>
      <trkpt lat="49.82813" lon="2.31333">
        <ele>103.8</ele>
        <time>2023-08-10T08:07:09Z</time>
      </trkpt>
      <trkpt lat="49.82814" lon="2.31333">
        <ele>103.8</ele>
        <time>2023-08-10T08:07:10Z</time>
      </trkpt>
      <trkpt lat="49.82815" lon="2.31332">
        <ele>103.9</ele>
        <time>2023-08-10T08:07:11Z</time>
      </trkpt>
      <trkpt lat="49.82816" lon="2.31332">
        <ele>103.9</ele>
        <time>2023-08-10T08:07:12Z</time>
      </trkpt>
      <trkpt lat="49.82818" lon="2.31331">
        <ele>103.9</ele>
        <time>2023-08-10T08:07:14Z</time>
      </trkpt>
      <trkpt lat="49.82819" lon="2.3133">
        <ele>103.9</ele>
        <time>2023-08-10T08:07:15Z</time>
      </trkpt>
      <trkpt lat="49.8282" lon="2.3133">
        <ele>103.9</ele>
        <time>2023-08-10T08:07:16Z</time>
      </trkpt>
      <trkpt lat="49.82821" lon="2.31329">
        <ele>103.9</ele>
        <time>2023-08-10T08:07:17Z</time>
      </trkpt>
      <trkpt lat="49.82822" lon="2.31329">
        <ele>103.9</ele>
        <time>2023-08-10T08:07:18Z</time>
      </trkpt>
      <trkpt lat="49.82823" lon="2.31328">
        <ele>103.9</ele>
        <time>2023-08-10T08:07:20Z</time>
      </trkpt>
      <trkpt lat="49.82824" lon="2.31327">
        <ele>103.9</ele>
        <time>2023-08-10T08:07:21Z</time>
      </trkpt>
      <trkpt lat="49.82825" lon="2.31327">
        <ele>104</ele>
        <time>2023-08-10T08:07:22Z</time>
      </trkpt>
      <trkpt lat="49.82825" lon="2.31326">
        <ele>104</ele>
        <time>2023-08-10T08:07:23Z</time>
      </trkpt>
      <trkpt lat="49.82827" lon="2.31323">
        <ele>104</ele>
        <time>2023-08-10T08:07:24Z</time>
      </trkpt>
      <trkpt lat="49.82827" lon="2.31322">
        <ele>104</ele>
        <time>2023-08-10T08:07:25Z</time>
      </trkpt>
      <trkpt lat="49.82827" lon="2.3132">
        <ele>103.9</ele>
        <time>2023-08-10T08:07:27Z</time>
      </trkpt>
      <trkpt lat="49.82828" lon="2.31319">
        <ele>103.9</ele>
        <time>2023-08-10T08:07:28Z</time>
      </trkpt>
      <trkpt lat="49.82828" lon="2.31318">
        <ele>103.9</ele>
        <time>2023-08-10T08:07:29Z</time>
      </trkpt>
      <trkpt lat="49.82829" lon="2.31316">
        <ele>103.9</ele>
        <time>2023-08-10T08:07:30Z</time>
      </trkpt>
      <trkpt lat="49.82829" lon="2.31315">
        <ele>103.9</ele>
        <time>2023-08-10T08:07:31Z</time>
      </trkpt>
      <trkpt lat="49.82829" lon="2.31313">
        <ele>103.9</ele>
        <time>2023-08-10T08:07:32Z</time>
      </trkpt>
      <trkpt lat="49.82829" lon="2.31311">
        <ele>103.9</ele>
        <time>2023-08-10T08:07:34Z</time>
      </trkpt>
      <trkpt lat="49.82829" lon="2.31309">
        <ele>103.8</ele>
        <time>2023-08-10T08:07:35Z</time>
      </trkpt>
      <trkpt lat="49.82829" lon="2.31307">
        <ele>103.8</ele>
        <time>2023-08-10T08:07:36Z</time>
      </trkpt>
      <trkpt lat="49.8283" lon="2.31306">
        <ele>103.8</ele>
        <time>2023-08-10T08:07:37Z</time>
      </trkpt>
      <trkpt lat="49.8283" lon="2.31305">
        <ele>103.8</ele>
        <time>2023-08-10T08:07:38Z</time>
      </trkpt>
      <trkpt lat="49.8283" lon="2.31303">
        <ele>103.7</ele>
        <time>2023-08-10T08:07:39Z</time>
      </trkpt>
      <trkpt lat="49.8283" lon="2.31301">
        <ele>103.7</ele>
        <time>2023-08-10T08:07:41Z</time>
      </trkpt>
      <trkpt lat="49.8283" lon="2.31299">
        <ele>103.7</ele>
        <time>2023-08-10T08:07:42Z</time>
      </trkpt>
      <trkpt lat="49.8283" lon="2.31298">
        <ele>103.6</ele>
        <time>2023-08-10T08:07:43Z</time>
      </trkpt>
      <trkpt lat="49.82831" lon="2.31296">
        <ele>103.6</ele>
        <time>2023-08-10T08:07:44Z</time>
      </trkpt>
      <trkpt lat="49.82831" lon="2.31293">
        <ele>103.5</ele>
        <time>2023-08-10T08:07:46Z</time>
      </trkpt>
      <trkpt lat="49.82831" lon="2.31292">
        <ele>103.5</ele>
        <time>2023-08-10T08:07:47Z</time>
      </trkpt>
      <trkpt lat="49.82831" lon="2.31291">
        <ele>103.4</ele>
        <time>2023-08-10T08:07:48Z</time>
      </trkpt>
      <trkpt lat="49.82831" lon="2.31288">
        <ele>103.4</ele>
        <time>2023-08-10T08:07:50Z</time>
      </trkpt>
      <trkpt lat="49.82831" lon="2.31286">
        <ele>103.3</ele>
        <time>2023-08-10T08:07:51Z</time>
      </trkpt>
      <trkpt lat="49.82831" lon="2.31285">
        <ele>103.2</ele>
        <time>2023-08-10T08:07:52Z</time>
      </trkpt>
      <trkpt lat="49.82831" lon="2.31283">
        <ele>103.2</ele>
        <time>2023-08-10T08:07:54Z</time>
      </trkpt>
      <trkpt lat="49.82831" lon="2.31281">
        <ele>103.1</ele>
        <time>2023-08-10T08:07:55Z</time>
      </trkpt>
      <trkpt lat="49.82832" lon="2.31279">
        <ele>103</ele>
        <time>2023-08-10T08:07:56Z</time>
      </trkpt>
      <trkpt lat="49.82832" lon="2.31277">
        <ele>103</ele>
        <time>2023-08-10T08:07:57Z</time>
      </trkpt>
      <trkpt lat="49.82831" lon="2.31276">
        <ele>102.9</ele>
        <time>2023-08-10T08:07:58Z</time>
      </trkpt>
      <trkpt lat="49.82831" lon="2.31274">
        <ele>102.9</ele>
        <time>2023-08-10T08:07:59Z</time>
      </trkpt>
      <trkpt lat="49.82832" lon="2.31272">
        <ele>102.8</ele>
        <time>2023-08-10T08:08:00Z</time>
      </trkpt>
      <trkpt lat="49.82832" lon="2.3127">
        <ele>102.7</ele>
        <time>2023-08-10T08:08:02Z</time>
      </trkpt>
      <trkpt lat="49.82832" lon="2.31268">
        <ele>102.6</ele>
        <time>2023-08-10T08:08:03Z</time>
      </trkpt>
      <trkpt lat="49.82832" lon="2.31267">
        <ele>102.6</ele>
        <time>2023-08-10T08:08:04Z</time>
      </trkpt>
      <trkpt lat="49.82832" lon="2.31265">
        <ele>102.5</ele>
        <time>2023-08-10T08:08:06Z</time>
      </trkpt>
      <trkpt lat="49.82832" lon="2.31263">
        <ele>102.4</ele>
        <time>2023-08-10T08:08:07Z</time>
      </trkpt>
      <trkpt lat="49.82832" lon="2.31261">
        <ele>102.3</ele>
        <time>2023-08-10T08:08:08Z</time>
      </trkpt>
      <trkpt lat="49.82832" lon="2.3126">
        <ele>102.3</ele>
        <time>2023-08-10T08:08:09Z</time>
      </trkpt>
      <trkpt lat="49.82832" lon="2.31257">
        <ele>102.2</ele>
        <time>2023-08-10T08:08:10Z</time>
      </trkpt>
      <trkpt lat="49.82832" lon="2.31255">
        <ele>102.1</ele>
        <time>2023-08-10T08:08:12Z</time>
      </trkpt>
      <trkpt lat="49.82832" lon="2.31254">
        <ele>102.1</ele>
        <time>2023-08-10T08:08:13Z</time>
      </trkpt>
      <trkpt lat="49.82833" lon="2.31251">
        <ele>102</ele>
        <time>2023-08-10T08:08:14Z</time>
      </trkpt>
      <trkpt lat="49.82833" lon="2.31249">
        <ele>101.9</ele>
        <time>2023-08-10T08:08:15Z</time>
      </trkpt>
      <trkpt lat="49.82833" lon="2.31248">
        <ele>101.9</ele>
        <time>2023-08-10T08:08:16Z</time>
      </trkpt>
      <trkpt lat="49.82833" lon="2.31246">
        <ele>101.8</ele>
        <time>2023-08-10T08:08:17Z</time>
      </trkpt>
      <trkpt lat="49.82833" lon="2.31245">
        <ele>101.8</ele>
        <time>2023-08-10T08:08:18Z</time>
      </trkpt>
      <trkpt lat="49.82834" lon="2.31243">
        <ele>101.7</ele>
        <time>2023-08-10T08:08:19Z</time>
      </trkpt>
      <trkpt lat="49.82834" lon="2.31241">
        <ele>101.7</ele>
        <time>2023-08-10T08:08:21Z</time>
      </trkpt>
      <trkpt lat="49.82835" lon="2.3124">
        <ele>101.6</ele>
        <time>2023-08-10T08:08:22Z</time>
      </trkpt>
      <trkpt lat="49.82835" lon="2.31238">
        <ele>101.6</ele>
        <time>2023-08-10T08:08:23Z</time>
      </trkpt>
      <trkpt lat="49.82836" lon="2.31236">
        <ele>101.5</ele>
        <time>2023-08-10T08:08:24Z</time>
      </trkpt>
      <trkpt lat="49.82836" lon="2.31235">
        <ele>101.4</ele>
        <time>2023-08-10T08:08:25Z</time>
      </trkpt>
      <trkpt lat="49.82837" lon="2.31233">
        <ele>101.4</ele>
        <time>2023-08-10T08:08:27Z</time>
      </trkpt>
      <trkpt lat="49.82838" lon="2.3123">
        <ele>101.3</ele>
        <time>2023-08-10T08:08:28Z</time>
      </trkpt>
      <trkpt lat="49.82838" lon="2.31229">
        <ele>101.3</ele>
        <time>2023-08-10T08:08:29Z</time>
      </trkpt>
      <trkpt lat="49.82839" lon="2.31227">
        <ele>101.2</ele>
        <time>2023-08-10T08:08:30Z</time>
      </trkpt>
      <trkpt lat="49.82839" lon="2.31226">
        <ele>101.2</ele>
        <time>2023-08-10T08:08:31Z</time>
      </trkpt>
      <trkpt lat="49.8284" lon="2.31224">
        <ele>101.2</ele>
        <time>2023-08-10T08:08:32Z</time>
      </trkpt>
      <trkpt lat="49.82841" lon="2.31223">
        <ele>101.1</ele>
        <time>2023-08-10T08:08:34Z</time>
      </trkpt>
      <trkpt lat="49.82842" lon="2.3122">
        <ele>101.1</ele>
        <time>2023-08-10T08:08:35Z</time>
      </trkpt>
      <trkpt lat="49.82842" lon="2.31219">
        <ele>101.1</ele>
        <time>2023-08-10T08:08:36Z</time>
      </trkpt>
      <trkpt lat="49.82843" lon="2.31218">
        <ele>101.1</ele>
        <time>2023-08-10T08:08:37Z</time>
      </trkpt>
      <trkpt lat="49.82843" lon="2.31216">
        <ele>101</ele>
        <time>2023-08-10T08:08:38Z</time>
      </trkpt>
      <trkpt lat="49.82844" lon="2.31215">
        <ele>101</ele>
        <time>2023-08-10T08:08:39Z</time>
      </trkpt>
      <trkpt lat="49.82844" lon="2.31213">
        <ele>101</ele>
        <time>2023-08-10T08:08:41Z</time>
      </trkpt>
      <trkpt lat="49.82844" lon="2.31211">
        <ele>101</ele>
        <time>2023-08-10T08:08:42Z</time>
      </trkpt>
      <trkpt lat="49.82844" lon="2.31209">
        <ele>101</ele>
        <time>2023-08-10T08:08:43Z</time>
      </trkpt>
      <trkpt lat="49.82845" lon="2.31208">
        <ele>101</ele>
        <time>2023-08-10T08:08:44Z</time>
      </trkpt>
      <trkpt lat="49.82845" lon="2.31207">
        <ele>101</ele>
        <time>2023-08-10T08:08:45Z</time>
      </trkpt>
      <trkpt lat="49.82846" lon="2.31205">
        <ele>101.1</ele>
        <time>2023-08-10T08:08:47Z</time>
      </trkpt>
      <trkpt lat="49.82846" lon="2.31203">
        <ele>101.1</ele>
        <time>2023-08-10T08:08:48Z</time>
      </trkpt>
      <trkpt lat="49.82846" lon="2.31202">
        <ele>101.1</ele>
        <time>2023-08-10T08:08:49Z</time>
      </trkpt>
      <trkpt lat="49.82846" lon="2.312">
        <ele>101.1</ele>
        <time>2023-08-10T08:08:50Z</time>
      </trkpt>
      <trkpt lat="49.82847" lon="2.31198">
        <ele>101.2</ele>
        <time>2023-08-10T08:08:51Z</time>
      </trkpt>
      <trkpt lat="49.82847" lon="2.31197">
        <ele>101.2</ele>
        <time>2023-08-10T08:08:52Z</time>
      </trkpt>
      <trkpt lat="49.82847" lon="2.31196">
        <ele>101.2</ele>
        <time>2023-08-10T08:08:53Z</time>
      </trkpt>
      <trkpt lat="49.82848" lon="2.31193">
        <ele>101.3</ele>
        <time>2023-08-10T08:08:55Z</time>
      </trkpt>
      <trkpt lat="49.82849" lon="2.31191">
        <ele>101.3</ele>
        <time>2023-08-10T08:08:57Z</time>
      </trkpt>
      <trkpt lat="49.82849" lon="2.3119">
        <ele>101.4</ele>
        <time>2023-08-10T08:08:58Z</time>
      </trkpt>
      <trkpt lat="49.82849" lon="2.31188">
        <ele>101.4</ele>
        <time>2023-08-10T08:08:59Z</time>
      </trkpt>
      <trkpt lat="49.8285" lon="2.31187">
        <ele>101.5</ele>
        <time>2023-08-10T08:09:00Z</time>
      </trkpt>
      <trkpt lat="49.8285" lon="2.31185">
        <ele>101.5</ele>
        <time>2023-08-10T08:09:02Z</time>
      </trkpt>
      <trkpt lat="49.8285" lon="2.31183">
        <ele>101.6</ele>
        <time>2023-08-10T08:09:03Z</time>
      </trkpt>
      <trkpt lat="49.82851" lon="2.31182">
        <ele>101.6</ele>
        <time>2023-08-10T08:09:04Z</time>
      </trkpt>
      <trkpt lat="49.82851" lon="2.31182">
        <ele>101.7</ele>
        <time>2023-08-10T08:09:05Z</time>
      </trkpt>
      <trkpt lat="49.82852" lon="2.3118">
        <ele>101.7</ele>
        <time>2023-08-10T08:09:06Z</time>
      </trkpt>
      <trkpt lat="49.82852" lon="2.31179">
        <ele>101.8</ele>
        <time>2023-08-10T08:09:07Z</time>
      </trkpt>
      <trkpt lat="49.82852" lon="2.31178">
        <ele>101.8</ele>
        <time>2023-08-10T08:09:09Z</time>
      </trkpt>
      <trkpt lat="49.82853" lon="2.31176">
        <ele>101.9</ele>
        <time>2023-08-10T08:09:10Z</time>
      </trkpt>
      <trkpt lat="49.82853" lon="2.31175">
        <ele>101.9</ele>
        <time>2023-08-10T08:09:11Z</time>
      </trkpt>
      <trkpt lat="49.82853" lon="2.31174">
        <ele>101.9</ele>
        <time>2023-08-10T08:09:12Z</time>
      </trkpt>
      <trkpt lat="49.82854" lon="2.31173">
        <ele>102</ele>
        <time>2023-08-10T08:09:13Z</time>
      </trkpt>
      <trkpt lat="49.82854" lon="2.31171">
        <ele>102</ele>
        <time>2023-08-10T08:09:14Z</time>
      </trkpt>
      <trkpt lat="49.82855" lon="2.3117">
        <ele>102.1</ele>
        <time>2023-08-10T08:09:16Z</time>
      </trkpt>
      <trkpt lat="49.82855" lon="2.31168">
        <ele>102.1</ele>
        <time>2023-08-10T08:09:17Z</time>
      </trkpt>
      <trkpt lat="49.82856" lon="2.31167">
        <ele>102.1</ele>
        <time>2023-08-10T08:09:18Z</time>
      </trkpt>
      <trkpt lat="49.82856" lon="2.31165">
        <ele>102.2</ele>
        <time>2023-08-10T08:09:19Z</time>
      </trkpt>
      <trkpt lat="49.82857" lon="2.31164">
        <ele>102.2</ele>
        <time>2023-08-10T08:09:20Z</time>
      </trkpt>
      <trkpt lat="49.82857" lon="2.31162">
        <ele>102.2</ele>
        <time>2023-08-10T08:09:22Z</time>
      </trkpt>
      <trkpt lat="49.82857" lon="2.3116">
        <ele>102.2</ele>
        <time>2023-08-10T08:09:23Z</time>
      </trkpt>
      <trkpt lat="49.82857" lon="2.31158">
        <ele>102.3</ele>
        <time>2023-08-10T08:09:24Z</time>
      </trkpt>
      <trkpt lat="49.82857" lon="2.31156">
        <ele>102.3</ele>
        <time>2023-08-10T08:09:25Z</time>
      </trkpt>
      <trkpt lat="49.82857" lon="2.31154">
        <ele>102.3</ele>
        <time>2023-08-10T08:09:27Z</time>
      </trkpt>
      <trkpt lat="49.82857" lon="2.31152">
        <ele>102.3</ele>
        <time>2023-08-10T08:09:28Z</time>
      </trkpt>
      <trkpt lat="49.82857" lon="2.31151">
        <ele>102.3</ele>
        <time>2023-08-10T08:09:29Z</time>
      </trkpt>
      <trkpt lat="49.82857" lon="2.31149">
        <ele>102.3</ele>
        <time>2023-08-10T08:09:30Z</time>
      </trkpt>
      <trkpt lat="49.82857" lon="2.31147">
        <ele>102.3</ele>
        <time>2023-08-10T08:09:32Z</time>
      </trkpt>
      <trkpt lat="49.82858" lon="2.31146">
        <ele>102.3</ele>
        <time>2023-08-10T08:09:33Z</time>
      </trkpt>
      <trkpt lat="49.82858" lon="2.31145">
        <ele>102.3</ele>
        <time>2023-08-10T08:09:35Z</time>
      </trkpt>
      <trkpt lat="49.82858" lon="2.31144">
        <ele>102.3</ele>
        <time>2023-08-10T08:09:36Z</time>
      </trkpt>
      <trkpt lat="49.82858" lon="2.31142">
        <ele>102.3</ele>
        <time>2023-08-10T08:09:37Z</time>
      </trkpt>
      <trkpt lat="49.82858" lon="2.31141">
        <ele>102.3</ele>
        <time>2023-08-10T08:09:38Z</time>
      </trkpt>
      <trkpt lat="49.82858" lon="2.31139">
        <ele>102.3</ele>
        <time>2023-08-10T08:09:40Z</time>
      </trkpt>
      <trkpt lat="49.82857" lon="2.31137">
        <ele>102.3</ele>
        <time>2023-08-10T08:09:41Z</time>
      </trkpt>
      <trkpt lat="49.82857" lon="2.31136">
        <ele>102.3</ele>
        <time>2023-08-10T08:09:42Z</time>
      </trkpt>
      <trkpt lat="49.82857" lon="2.31134">
        <ele>102.3</ele>
        <time>2023-08-10T08:09:43Z</time>
      </trkpt>
      <trkpt lat="49.82856" lon="2.31132">
        <ele>102.2</ele>
        <time>2023-08-10T08:09:44Z</time>
      </trkpt>
      <trkpt lat="49.82856" lon="2.3113">
        <ele>102.2</ele>
        <time>2023-08-10T08:09:46Z</time>
      </trkpt>
      <trkpt lat="49.82856" lon="2.31128">
        <ele>102.1</ele>
        <time>2023-08-10T08:09:47Z</time>
      </trkpt>
      <trkpt lat="49.82855" lon="2.31126">
        <ele>102.1</ele>
        <time>2023-08-10T08:09:48Z</time>
      </trkpt>
      <trkpt lat="49.82855" lon="2.31125">
        <ele>102</ele>
        <time>2023-08-10T08:09:49Z</time>
      </trkpt>
      <trkpt lat="49.82855" lon="2.31123">
        <ele>102</ele>
        <time>2023-08-10T08:09:50Z</time>
      </trkpt>
      <trkpt lat="49.82855" lon="2.31121">
        <ele>101.9</ele>
        <time>2023-08-10T08:09:52Z</time>
      </trkpt>
      <trkpt lat="49.82854" lon="2.3112">
        <ele>101.9</ele>
        <time>2023-08-10T08:09:53Z</time>
      </trkpt>
      <trkpt lat="49.82854" lon="2.31118">
        <ele>101.8</ele>
        <time>2023-08-10T08:09:54Z</time>
      </trkpt>
      <trkpt lat="49.82854" lon="2.31117">
        <ele>101.8</ele>
        <time>2023-08-10T08:09:55Z</time>
      </trkpt>
      <trkpt lat="49.82854" lon="2.31115">
        <ele>101.7</ele>
        <time>2023-08-10T08:09:56Z</time>
      </trkpt>
      <trkpt lat="49.82854" lon="2.31113">
        <ele>101.7</ele>
        <time>2023-08-10T08:09:57Z</time>
      </trkpt>
      <trkpt lat="49.82854" lon="2.31112">
        <ele>101.6</ele>
        <time>2023-08-10T08:09:58Z</time>
      </trkpt>
      <trkpt lat="49.82854" lon="2.3111">
        <ele>101.5</ele>
        <time>2023-08-10T08:10:00Z</time>
      </trkpt>
      <trkpt lat="49.82854" lon="2.31108">
        <ele>101.5</ele>
        <time>2023-08-10T08:10:01Z</time>
      </trkpt>
      <trkpt lat="49.82855" lon="2.31106">
        <ele>101.4</ele>
        <time>2023-08-10T08:10:02Z</time>
      </trkpt>
      <trkpt lat="49.82855" lon="2.31104">
        <ele>101.3</ele>
        <time>2023-08-10T08:10:03Z</time>
      </trkpt>
      <trkpt lat="49.82854" lon="2.31102">
        <ele>101.2</ele>
        <time>2023-08-10T08:10:04Z</time>
      </trkpt>
      <trkpt lat="49.82854" lon="2.311">
        <ele>101.2</ele>
        <time>2023-08-10T08:10:05Z</time>
      </trkpt>
      <trkpt lat="49.82854" lon="2.31098">
        <ele>101.1</ele>
        <time>2023-08-10T08:10:06Z</time>
      </trkpt>
      <trkpt lat="49.82855" lon="2.31097">
        <ele>101</ele>
        <time>2023-08-10T08:10:07Z</time>
      </trkpt>
      <trkpt lat="49.82855" lon="2.31095">
        <ele>101</ele>
        <time>2023-08-10T08:10:08Z</time>
      </trkpt>
      <trkpt lat="49.82856" lon="2.31092">
        <ele>100.8</ele>
        <time>2023-08-10T08:10:10Z</time>
      </trkpt>
      <trkpt lat="49.82856" lon="2.31091">
        <ele>100.8</ele>
        <time>2023-08-10T08:10:11Z</time>
      </trkpt>
      <trkpt lat="49.82856" lon="2.3109">
        <ele>100.7</ele>
        <time>2023-08-10T08:10:12Z</time>
      </trkpt>
      <trkpt lat="49.82856" lon="2.31088">
        <ele>100.7</ele>
        <time>2023-08-10T08:10:13Z</time>
      </trkpt>
      <trkpt lat="49.82857" lon="2.31086">
        <ele>100.6</ele>
        <time>2023-08-10T08:10:14Z</time>
      </trkpt>
      <trkpt lat="49.82857" lon="2.31085">
        <ele>100.5</ele>
        <time>2023-08-10T08:10:15Z</time>
      </trkpt>
      <trkpt lat="49.82857" lon="2.31081">
        <ele>100.4</ele>
        <time>2023-08-10T08:10:16Z</time>
      </trkpt>
      <trkpt lat="49.82857" lon="2.3108">
        <ele>100.3</ele>
        <time>2023-08-10T08:10:18Z</time>
      </trkpt>
      <trkpt lat="49.82857" lon="2.31078">
        <ele>100.2</ele>
        <time>2023-08-10T08:10:19Z</time>
      </trkpt>
      <trkpt lat="49.82858" lon="2.31077">
        <ele>100.2</ele>
        <time>2023-08-10T08:10:20Z</time>
      </trkpt>
      <trkpt lat="49.82858" lon="2.31075">
        <ele>100.1</ele>
        <time>2023-08-10T08:10:21Z</time>
      </trkpt>
      <trkpt lat="49.82858" lon="2.31072">
        <ele>100</ele>
        <time>2023-08-10T08:10:23Z</time>
      </trkpt>
      <trkpt lat="49.82859" lon="2.3107">
        <ele>99.8</ele>
        <time>2023-08-10T08:10:24Z</time>
      </trkpt>
      <trkpt lat="49.82859" lon="2.31068">
        <ele>99.7</ele>
        <time>2023-08-10T08:10:25Z</time>
      </trkpt>
      <trkpt lat="49.8286" lon="2.31065">
        <ele>99.6</ele>
        <time>2023-08-10T08:10:26Z</time>
      </trkpt>
      <trkpt lat="49.8286" lon="2.31064">
        <ele>99.5</ele>
        <time>2023-08-10T08:10:28Z</time>
      </trkpt>
      <trkpt lat="49.82861" lon="2.31062">
        <ele>99.4</ele>
        <time>2023-08-10T08:10:29Z</time>
      </trkpt>
      <trkpt lat="49.82862" lon="2.31061">
        <ele>99.3</ele>
        <time>2023-08-10T08:10:30Z</time>
      </trkpt>
      <trkpt lat="49.82862" lon="2.31059">
        <ele>99.3</ele>
        <time>2023-08-10T08:10:31Z</time>
      </trkpt>
      <trkpt lat="49.82863" lon="2.31059">
        <ele>99.2</ele>
        <time>2023-08-10T08:10:32Z</time>
      </trkpt>
      <trkpt lat="49.82864" lon="2.31056">
        <ele>99</ele>
        <time>2023-08-10T08:10:33Z</time>
      </trkpt>
      <trkpt lat="49.82865" lon="2.31055">
        <ele>98.9</ele>
        <time>2023-08-10T08:10:34Z</time>
      </trkpt>
      <trkpt lat="49.82865" lon="2.31053">
        <ele>98.8</ele>
        <time>2023-08-10T08:10:36Z</time>
      </trkpt>
      <trkpt lat="49.82866" lon="2.31052">
        <ele>98.7</ele>
        <time>2023-08-10T08:10:37Z</time>
      </trkpt>
      <trkpt lat="49.82867" lon="2.31051">
        <ele>98.6</ele>
        <time>2023-08-10T08:10:38Z</time>
      </trkpt>
      <trkpt lat="49.82867" lon="2.31049">
        <ele>98.5</ele>
        <time>2023-08-10T08:10:39Z</time>
      </trkpt>
      <trkpt lat="49.82868" lon="2.31047">
        <ele>98.4</ele>
        <time>2023-08-10T08:10:41Z</time>
      </trkpt>
      <trkpt lat="49.82869" lon="2.31045">
        <ele>98.3</ele>
        <time>2023-08-10T08:10:42Z</time>
      </trkpt>
      <trkpt lat="49.8287" lon="2.31042">
        <ele>98.1</ele>
        <time>2023-08-10T08:10:43Z</time>
      </trkpt>
      <trkpt lat="49.8287" lon="2.31041">
        <ele>98</ele>
        <time>2023-08-10T08:10:44Z</time>
      </trkpt>
      <trkpt lat="49.82871" lon="2.31039">
        <ele>97.9</ele>
        <time>2023-08-10T08:10:45Z</time>
      </trkpt>
      <trkpt lat="49.82871" lon="2.31037">
        <ele>97.7</ele>
        <time>2023-08-10T08:10:47Z</time>
      </trkpt>
      <trkpt lat="49.82872" lon="2.31035">
        <ele>97.6</ele>
        <time>2023-08-10T08:10:48Z</time>
      </trkpt>
      <trkpt lat="49.82872" lon="2.31033">
        <ele>97.5</ele>
        <time>2023-08-10T08:10:49Z</time>
      </trkpt>
      <trkpt lat="49.82872" lon="2.31032">
        <ele>97.4</ele>
        <time>2023-08-10T08:10:50Z</time>
      </trkpt>
      <trkpt lat="49.82873" lon="2.3103">
        <ele>97.3</ele>
        <time>2023-08-10T08:10:51Z</time>
      </trkpt>
      <trkpt lat="49.82873" lon="2.31027">
        <ele>97.1</ele>
        <time>2023-08-10T08:10:52Z</time>
      </trkpt>
      <trkpt lat="49.82873" lon="2.31026">
        <ele>97</ele>
        <time>2023-08-10T08:10:54Z</time>
      </trkpt>
      <trkpt lat="49.82874" lon="2.31025">
        <ele>97</ele>
        <time>2023-08-10T08:10:55Z</time>
      </trkpt>
      <trkpt lat="49.82874" lon="2.31023">
        <ele>96.9</ele>
        <time>2023-08-10T08:10:56Z</time>
      </trkpt>
      <trkpt lat="49.82874" lon="2.31021">
        <ele>96.8</ele>
        <time>2023-08-10T08:10:57Z</time>
      </trkpt>
      <trkpt lat="49.82875" lon="2.3102">
        <ele>96.7</ele>
        <time>2023-08-10T08:10:58Z</time>
      </trkpt>
      <trkpt lat="49.82875" lon="2.31017">
        <ele>96.5</ele>
        <time>2023-08-10T08:10:59Z</time>
      </trkpt>
      <trkpt lat="49.82876" lon="2.31015">
        <ele>96.4</ele>
        <time>2023-08-10T08:11:00Z</time>
      </trkpt>
      <trkpt lat="49.82876" lon="2.31014">
        <ele>96.3</ele>
        <time>2023-08-10T08:11:02Z</time>
      </trkpt>
      <trkpt lat="49.82876" lon="2.31013">
        <ele>96.3</ele>
        <time>2023-08-10T08:11:03Z</time>
      </trkpt>
      <trkpt lat="49.82877" lon="2.31011">
        <ele>96.2</ele>
        <time>2023-08-10T08:11:04Z</time>
      </trkpt>
      <trkpt lat="49.82877" lon="2.3101">
        <ele>96.1</ele>
        <time>2023-08-10T08:11:05Z</time>
      </trkpt>
      <trkpt lat="49.82877" lon="2.31007">
        <ele>95.9</ele>
        <time>2023-08-10T08:11:07Z</time>
      </trkpt>
      <trkpt lat="49.82878" lon="2.31005">
        <ele>95.8</ele>
        <time>2023-08-10T08:11:08Z</time>
      </trkpt>
      <trkpt lat="49.82878" lon="2.31002">
        <ele>95.6</ele>
        <time>2023-08-10T08:11:09Z</time>
      </trkpt>
      <trkpt lat="49.82878" lon="2.31">
        <ele>95.6</ele>
        <time>2023-08-10T08:11:11Z</time>
      </trkpt>
      <trkpt lat="49.82879" lon="2.30999">
        <ele>95.5</ele>
        <time>2023-08-10T08:11:12Z</time>
      </trkpt>
      <trkpt lat="49.82879" lon="2.30998">
        <ele>95.4</ele>
        <time>2023-08-10T08:11:13Z</time>
      </trkpt>
      <trkpt lat="49.82879" lon="2.30996">
        <ele>95.3</ele>
        <time>2023-08-10T08:11:14Z</time>
      </trkpt>
      <trkpt lat="49.8288" lon="2.30994">
        <ele>95.2</ele>
        <time>2023-08-10T08:11:15Z</time>
      </trkpt>
      <trkpt lat="49.82881" lon="2.30992">
        <ele>95</ele>
        <time>2023-08-10T08:11:16Z</time>
      </trkpt>
      <trkpt lat="49.82881" lon="2.30991">
        <ele>94.9</ele>
        <time>2023-08-10T08:11:17Z</time>
      </trkpt>
      <trkpt lat="49.82882" lon="2.30989">
        <ele>94.9</ele>
        <time>2023-08-10T08:11:18Z</time>
      </trkpt>
      <trkpt lat="49.82883" lon="2.30986">
        <ele>94.6</ele>
        <time>2023-08-10T08:11:20Z</time>
      </trkpt>
      <trkpt lat="49.82883" lon="2.30985">
        <ele>94.6</ele>
        <time>2023-08-10T08:11:21Z</time>
      </trkpt>
      <trkpt lat="49.82884" lon="2.30984">
        <ele>94.5</ele>
        <time>2023-08-10T08:11:22Z</time>
      </trkpt>
      <trkpt lat="49.82884" lon="2.30981">
        <ele>94.3</ele>
        <time>2023-08-10T08:11:24Z</time>
      </trkpt>
      <trkpt lat="49.82885" lon="2.3098">
        <ele>94.2</ele>
        <time>2023-08-10T08:11:25Z</time>
      </trkpt>
      <trkpt lat="49.82885" lon="2.30979">
        <ele>94.1</ele>
        <time>2023-08-10T08:11:26Z</time>
      </trkpt>
      <trkpt lat="49.82885" lon="2.30977">
        <ele>94</ele>
        <time>2023-08-10T08:11:28Z</time>
      </trkpt>
      <trkpt lat="49.82886" lon="2.30975">
        <ele>93.9</ele>
        <time>2023-08-10T08:11:29Z</time>
      </trkpt>
      <trkpt lat="49.82886" lon="2.30973">
        <ele>93.8</ele>
        <time>2023-08-10T08:11:30Z</time>
      </trkpt>
      <trkpt lat="49.82886" lon="2.30971">
        <ele>93.6</ele>
        <time>2023-08-10T08:11:31Z</time>
      </trkpt>
      <trkpt lat="49.82887" lon="2.3097">
        <ele>93.5</ele>
        <time>2023-08-10T08:11:32Z</time>
      </trkpt>
      <trkpt lat="49.82887" lon="2.30968">
        <ele>93.4</ele>
        <time>2023-08-10T08:11:33Z</time>
      </trkpt>
      <trkpt lat="49.82888" lon="2.30967">
        <ele>93.3</ele>
        <time>2023-08-10T08:11:34Z</time>
      </trkpt>
      <trkpt lat="49.82888" lon="2.30965">
        <ele>93.2</ele>
        <time>2023-08-10T08:11:36Z</time>
      </trkpt>
      <trkpt lat="49.82888" lon="2.30963">
        <ele>93.1</ele>
        <time>2023-08-10T08:11:37Z</time>
      </trkpt>
      <trkpt lat="49.82888" lon="2.30962">
        <ele>92.9</ele>
        <time>2023-08-10T08:11:38Z</time>
      </trkpt>
      <trkpt lat="49.82889" lon="2.3096">
        <ele>92.8</ele>
        <time>2023-08-10T08:11:39Z</time>
      </trkpt>
      <trkpt lat="49.82889" lon="2.30958">
        <ele>92.7</ele>
        <time>2023-08-10T08:11:41Z</time>
      </trkpt>
      <trkpt lat="49.82889" lon="2.30956">
        <ele>92.6</ele>
        <time>2023-08-10T08:11:42Z</time>
      </trkpt>
      <trkpt lat="49.8289" lon="2.30955">
        <ele>92.4</ele>
        <time>2023-08-10T08:11:43Z</time>
      </trkpt>
      <trkpt lat="49.82891" lon="2.30953">
        <ele>92.3</ele>
        <time>2023-08-10T08:11:45Z</time>
      </trkpt>
      <trkpt lat="49.82891" lon="2.30952">
        <ele>92.2</ele>
        <time>2023-08-10T08:11:46Z</time>
      </trkpt>
      <trkpt lat="49.82891" lon="2.3095">
        <ele>92.1</ele>
        <time>2023-08-10T08:11:47Z</time>
      </trkpt>
      <trkpt lat="49.82892" lon="2.30948">
        <ele>92</ele>
        <time>2023-08-10T08:11:48Z</time>
      </trkpt>
      <trkpt lat="49.82892" lon="2.30947">
        <ele>91.8</ele>
        <time>2023-08-10T08:11:49Z</time>
      </trkpt>
      <trkpt lat="49.82892" lon="2.30945">
        <ele>91.7</ele>
        <time>2023-08-10T08:11:50Z</time>
      </trkpt>
      <trkpt lat="49.82892" lon="2.30944">
        <ele>91.6</ele>
        <time>2023-08-10T08:11:51Z</time>
      </trkpt>
      <trkpt lat="49.82893" lon="2.30941">
        <ele>91.4</ele>
        <time>2023-08-10T08:11:53Z</time>
      </trkpt>
      <trkpt lat="49.82893" lon="2.30939">
        <ele>91.3</ele>
        <time>2023-08-10T08:11:55Z</time>
      </trkpt>
      <trkpt lat="49.82893" lon="2.30937">
        <ele>91.1</ele>
        <time>2023-08-10T08:11:56Z</time>
      </trkpt>
      <trkpt lat="49.82893" lon="2.30936">
        <ele>91</ele>
        <time>2023-08-10T08:11:57Z</time>
      </trkpt>
      <trkpt lat="49.82893" lon="2.30934">
        <ele>90.8</ele>
        <time>2023-08-10T08:11:58Z</time>
      </trkpt>
      <trkpt lat="49.82893" lon="2.30932">
        <ele>90.7</ele>
        <time>2023-08-10T08:11:59Z</time>
      </trkpt>
      <trkpt lat="49.82893" lon="2.30931">
        <ele>90.6</ele>
        <time>2023-08-10T08:12:00Z</time>
      </trkpt>
      <trkpt lat="49.82893" lon="2.30928">
        <ele>90.4</ele>
        <time>2023-08-10T08:12:02Z</time>
      </trkpt>
      <trkpt lat="49.82893" lon="2.30926">
        <ele>90.3</ele>
        <time>2023-08-10T08:12:03Z</time>
      </trkpt>
      <trkpt lat="49.82892" lon="2.30925">
        <ele>90.2</ele>
        <time>2023-08-10T08:12:04Z</time>
      </trkpt>
      <trkpt lat="49.82892" lon="2.30924">
        <ele>90</ele>
        <time>2023-08-10T08:12:05Z</time>
      </trkpt>
      <trkpt lat="49.82892" lon="2.30922">
        <ele>89.9</ele>
        <time>2023-08-10T08:12:06Z</time>
      </trkpt>
      <trkpt lat="49.82892" lon="2.3092">
        <ele>89.7</ele>
        <time>2023-08-10T08:12:08Z</time>
      </trkpt>
      <trkpt lat="49.82891" lon="2.30918">
        <ele>89.5</ele>
        <time>2023-08-10T08:12:09Z</time>
      </trkpt>
      <trkpt lat="49.82891" lon="2.30916">
        <ele>89.4</ele>
        <time>2023-08-10T08:12:10Z</time>
      </trkpt>
      <trkpt lat="49.8289" lon="2.30915">
        <ele>89.3</ele>
        <time>2023-08-10T08:12:11Z</time>
      </trkpt>
      <trkpt lat="49.8289" lon="2.30913">
        <ele>89.1</ele>
        <time>2023-08-10T08:12:12Z</time>
      </trkpt>
      <trkpt lat="49.8289" lon="2.3091">
        <ele>88.9</ele>
        <time>2023-08-10T08:12:14Z</time>
      </trkpt>
      <trkpt lat="49.82889" lon="2.30908">
        <ele>88.7</ele>
        <time>2023-08-10T08:12:15Z</time>
      </trkpt>
      <trkpt lat="49.82889" lon="2.30906">
        <ele>88.6</ele>
        <time>2023-08-10T08:12:16Z</time>
      </trkpt>
      <trkpt lat="49.82888" lon="2.30904">
        <ele>88.4</ele>
        <time>2023-08-10T08:12:17Z</time>
      </trkpt>
      <trkpt lat="49.82888" lon="2.30901">
        <ele>88.2</ele>
        <time>2023-08-10T08:12:19Z</time>
      </trkpt>
      <trkpt lat="49.82887" lon="2.30899">
        <ele>88</ele>
        <time>2023-08-10T08:12:20Z</time>
      </trkpt>
      <trkpt lat="49.82886" lon="2.30897">
        <ele>87.9</ele>
        <time>2023-08-10T08:12:21Z</time>
      </trkpt>
      <trkpt lat="49.82886" lon="2.30894">
        <ele>87.7</ele>
        <time>2023-08-10T08:12:22Z</time>
      </trkpt>
      <trkpt lat="49.82885" lon="2.30893">
        <ele>87.6</ele>
        <time>2023-08-10T08:12:23Z</time>
      </trkpt>
      <trkpt lat="49.82885" lon="2.30892">
        <ele>87.5</ele>
        <time>2023-08-10T08:12:24Z</time>
      </trkpt>
      <trkpt lat="49.82884" lon="2.30888">
        <ele>87.3</ele>
        <time>2023-08-10T08:12:25Z</time>
      </trkpt>
      <trkpt lat="49.82884" lon="2.30887">
        <ele>87.2</ele>
        <time>2023-08-10T08:12:27Z</time>
      </trkpt>
      <trkpt lat="49.82884" lon="2.30885">
        <ele>87.1</ele>
        <time>2023-08-10T08:12:28Z</time>
      </trkpt>
      <trkpt lat="49.82883" lon="2.30884">
        <ele>87</ele>
        <time>2023-08-10T08:12:29Z</time>
      </trkpt>
      <trkpt lat="49.82883" lon="2.30882">
        <ele>86.9</ele>
        <time>2023-08-10T08:12:30Z</time>
      </trkpt>
      <trkpt lat="49.82883" lon="2.30881">
        <ele>86.8</ele>
        <time>2023-08-10T08:12:31Z</time>
      </trkpt>
      <trkpt lat="49.82882" lon="2.30879">
        <ele>86.7</ele>
        <time>2023-08-10T08:12:33Z</time>
      </trkpt>
      <trkpt lat="49.82882" lon="2.30877">
        <ele>86.6</ele>
        <time>2023-08-10T08:12:34Z</time>
      </trkpt>
      <trkpt lat="49.82882" lon="2.30875">
        <ele>86.5</ele>
        <time>2023-08-10T08:12:35Z</time>
      </trkpt>
      <trkpt lat="49.82882" lon="2.30874">
        <ele>86.4</ele>
        <time>2023-08-10T08:12:36Z</time>
      </trkpt>
      <trkpt lat="49.82883" lon="2.30872">
        <ele>86.3</ele>
        <time>2023-08-10T08:12:37Z</time>
      </trkpt>
      <trkpt lat="49.82883" lon="2.30871">
        <ele>86.2</ele>
        <time>2023-08-10T08:12:38Z</time>
      </trkpt>
      <trkpt lat="49.82882" lon="2.30869">
        <ele>84.9</ele>
        <time>2023-08-10T08:12:40Z</time>
      </trkpt>
      <trkpt lat="49.82881" lon="2.30868">
        <ele>84.8</ele>
        <time>2023-08-10T08:12:42Z</time>
      </trkpt>
      <trkpt lat="49.82881" lon="2.30867">
        <ele>84.8</ele>
        <time>2023-08-10T08:12:43Z</time>
      </trkpt>
      <trkpt lat="49.8288" lon="2.30867">
        <ele>84.7</ele>
        <time>2023-08-10T08:12:44Z</time>
      </trkpt>
      <trkpt lat="49.8288" lon="2.30866">
        <ele>84.7</ele>
        <time>2023-08-10T08:12:45Z</time>
      </trkpt>
      <trkpt lat="49.82879" lon="2.30864">
        <ele>84.7</ele>
        <time>2023-08-10T08:12:46Z</time>
      </trkpt>
      <trkpt lat="49.8288" lon="2.30863">
        <ele>84.6</ele>
        <time>2023-08-10T08:12:47Z</time>
      </trkpt>
      <trkpt lat="49.8288" lon="2.30864">
        <ele>84.6</ele>
        <time>2023-08-10T08:12:49Z</time>
      </trkpt>
      <trkpt lat="49.8288" lon="2.30864">
        <ele>84.6</ele>
        <time>2023-08-10T08:12:50Z</time>
      </trkpt>
      <trkpt lat="49.8288" lon="2.30864">
        <ele>84.6</ele>
        <time>2023-08-10T08:12:52Z</time>
      </trkpt>
      <trkpt lat="49.8288" lon="2.30864">
        <ele>84.6</ele>
        <time>2023-08-10T08:12:53Z</time>
      </trkpt>
      <trkpt lat="49.8288" lon="2.30864">
        <ele>84.6</ele>
        <time>2023-08-10T08:12:55Z</time>
      </trkpt>
      <trkpt lat="49.8288" lon="2.30864">
        <ele>84.6</ele>
        <time>2023-08-10T08:12:56Z</time>
      </trkpt>
      <trkpt lat="49.8288" lon="2.30864">
        <ele>84.6</ele>
        <time>2023-08-10T08:12:58Z</time>
      </trkpt>
      <trkpt lat="49.8288" lon="2.30865">
        <ele>84.6</ele>
        <time>2023-08-10T08:12:59Z</time>
      </trkpt>
      <trkpt lat="49.8288" lon="2.30865">
        <ele>84.6</ele>
        <time>2023-08-10T08:13:01Z</time>
      </trkpt>
      <trkpt lat="49.8288" lon="2.30865">
        <ele>84.6</ele>
        <time>2023-08-10T08:13:02Z</time>
      </trkpt>
      <trkpt lat="49.8288" lon="2.30865">
        <ele>84.6</ele>
        <time>2023-08-10T08:13:03Z</time>
      </trkpt>
      <trkpt lat="49.8288" lon="2.30865">
        <ele>84.6</ele>
        <time>2023-08-10T08:13:04Z</time>
      </trkpt>
      <trkpt lat="49.8288" lon="2.30865">
        <ele>84.6</ele>
        <time>2023-08-10T08:13:05Z</time>
      </trkpt>
      <trkpt lat="49.8288" lon="2.30865">
        <ele>84.6</ele>
        <time>2023-08-10T08:13:06Z</time>
      </trkpt>
      <trkpt lat="49.8288" lon="2.30866">
        <ele>84.6</ele>
        <time>2023-08-10T08:13:07Z</time>
      </trkpt>
      <trkpt lat="49.8288" lon="2.30866">
        <ele>84.6</ele>
        <time>2023-08-10T08:13:08Z</time>
      </trkpt>
      <trkpt lat="49.8288" lon="2.30866">
        <ele>84.6</ele>
        <time>2023-08-10T08:13:09Z</time>
      </trkpt>
      <trkpt lat="49.8288" lon="2.30866">
        <ele>84.5</ele>
        <time>2023-08-10T08:13:10Z</time>
      </trkpt>
      <trkpt lat="49.8288" lon="2.30866">
        <ele>84.5</ele>
        <time>2023-08-10T08:13:11Z</time>
      </trkpt>
      <trkpt lat="49.8288" lon="2.30866">
        <ele>84.5</ele>
        <time>2023-08-10T08:13:12Z</time>
      </trkpt>
      <trkpt lat="49.8288" lon="2.30866">
        <ele>84.5</ele>
        <time>2023-08-10T08:13:13Z</time>
      </trkpt>
      <trkpt lat="49.8288" lon="2.30867">
        <ele>84.5</ele>
        <time>2023-08-10T08:13:14Z</time>
      </trkpt>
      <trkpt lat="49.8288" lon="2.30867">
        <ele>84.5</ele>
        <time>2023-08-10T08:13:15Z</time>
      </trkpt>
      <trkpt lat="49.8288" lon="2.30867">
        <ele>84.5</ele>
        <time>2023-08-10T08:13:16Z</time>
      </trkpt>
      <trkpt lat="49.8288" lon="2.30867">
        <ele>84.5</ele>
        <time>2023-08-10T08:13:17Z</time>
      </trkpt>
      <trkpt lat="49.8288" lon="2.30867">
        <ele>84.5</ele>
        <time>2023-08-10T08:13:18Z</time>
      </trkpt>
      <trkpt lat="49.8288" lon="2.30867">
        <ele>84.5</ele>
        <time>2023-08-10T08:13:19Z</time>
      </trkpt>
      <trkpt lat="49.8288" lon="2.30867">
        <ele>84.5</ele>
        <time>2023-08-10T08:13:20Z</time>
      </trkpt>
      <trkpt lat="49.8288" lon="2.30867">
        <ele>84.5</ele>
        <time>2023-08-10T08:13:21Z</time>
      </trkpt>
      <trkpt lat="49.8288" lon="2.30868">
        <ele>84.5</ele>
        <time>2023-08-10T08:13:22Z</time>
      </trkpt>
      <trkpt lat="49.8288" lon="2.30868">
        <ele>84.5</ele>
        <time>2023-08-10T08:13:23Z</time>
      </trkpt>
      <trkpt lat="49.8288" lon="2.30868">
        <ele>84.5</ele>
        <time>2023-08-10T08:13:24Z</time>
      </trkpt>
      <trkpt lat="49.8288" lon="2.30868">
        <ele>84.5</ele>
        <time>2023-08-10T08:13:25Z</time>
      </trkpt>
      <trkpt lat="49.8288" lon="2.30868">
        <ele>84.5</ele>
        <time>2023-08-10T08:13:26Z</time>
      </trkpt>
      <trkpt lat="49.8288" lon="2.30868">
        <ele>84.5</ele>
        <time>2023-08-10T08:13:27Z</time>
      </trkpt>
      <trkpt lat="49.8288" lon="2.30868">
        <ele>84.5</ele>
        <time>2023-08-10T08:13:28Z</time>
      </trkpt>
      <trkpt lat="49.8288" lon="2.30869">
        <ele>84.5</ele>
        <time>2023-08-10T08:13:29Z</time>
      </trkpt>
      <trkpt lat="49.8288" lon="2.30869">
        <ele>84.5</ele>
        <time>2023-08-10T08:13:30Z</time>
      </trkpt>
      <trkpt lat="49.8288" lon="2.30869">
        <ele>84.5</ele>
        <time>2023-08-10T08:13:31Z</time>
      </trkpt>
      <trkpt lat="49.8288" lon="2.30869">
        <ele>84.5</ele>
        <time>2023-08-10T08:13:32Z</time>
      </trkpt>
      <trkpt lat="49.8288" lon="2.30869">
        <ele>84.4</ele>
        <time>2023-08-10T08:13:33Z</time>
      </trkpt>
      <trkpt lat="49.8288" lon="2.30869">
        <ele>84.4</ele>
        <time>2023-08-10T08:13:34Z</time>
      </trkpt>
      <trkpt lat="49.8288" lon="2.30869">
        <ele>84.4</ele>
        <time>2023-08-10T08:13:35Z</time>
      </trkpt>
      <trkpt lat="49.8288" lon="2.3087">
        <ele>84.4</ele>
        <time>2023-08-10T08:13:36Z</time>
      </trkpt>
      <trkpt lat="49.8288" lon="2.3087">
        <ele>84.4</ele>
        <time>2023-08-10T08:13:37Z</time>
      </trkpt>
      <trkpt lat="49.8288" lon="2.3087">
        <ele>84.4</ele>
        <time>2023-08-10T08:13:38Z</time>
      </trkpt>
      <trkpt lat="49.8288" lon="2.3087">
        <ele>84.4</ele>
        <time>2023-08-10T08:13:39Z</time>
      </trkpt>
      <trkpt lat="49.8288" lon="2.3087">
        <ele>84.4</ele>
        <time>2023-08-10T08:13:40Z</time>
      </trkpt>
      <trkpt lat="49.8288" lon="2.3087">
        <ele>84.4</ele>
        <time>2023-08-10T08:13:41Z</time>
      </trkpt>
      <trkpt lat="49.8288" lon="2.3087">
        <ele>84.4</ele>
        <time>2023-08-10T08:13:42Z</time>
      </trkpt>
      <trkpt lat="49.8288" lon="2.30871">
        <ele>84.4</ele>
        <time>2023-08-10T08:13:43Z</time>
      </trkpt>
      <trkpt lat="49.8288" lon="2.30871">
        <ele>84.4</ele>
        <time>2023-08-10T08:13:44Z</time>
      </trkpt>
      <trkpt lat="49.8288" lon="2.30871">
        <ele>84.4</ele>
        <time>2023-08-10T08:13:45Z</time>
      </trkpt>
      <trkpt lat="49.8288" lon="2.30871">
        <ele>84.4</ele>
        <time>2023-08-10T08:13:46Z</time>
      </trkpt>
      <trkpt lat="49.8288" lon="2.30871">
        <ele>84.4</ele>
        <time>2023-08-10T08:13:47Z</time>
      </trkpt>
      <trkpt lat="49.8288" lon="2.30871">
        <ele>84.4</ele>
        <time>2023-08-10T08:13:48Z</time>
      </trkpt>
      <trkpt lat="49.8288" lon="2.30871">
        <ele>84.4</ele>
        <time>2023-08-10T08:13:49Z</time>
      </trkpt>
      <trkpt lat="49.8288" lon="2.30871">
        <ele>84.4</ele>
        <time>2023-08-10T08:13:50Z</time>
      </trkpt>
      <trkpt lat="49.8288" lon="2.30872">
        <ele>84.4</ele>
        <time>2023-08-10T08:13:51Z</time>
      </trkpt>
      <trkpt lat="49.82881" lon="2.30872">
        <ele>84.4</ele>
        <time>2023-08-10T08:13:52Z</time>
      </trkpt>
      <trkpt lat="49.82881" lon="2.30872">
        <ele>84.4</ele>
        <time>2023-08-10T08:13:53Z</time>
      </trkpt>
      <trkpt lat="49.82881" lon="2.30872">
        <ele>84.4</ele>
        <time>2023-08-10T08:13:54Z</time>
      </trkpt>
      <trkpt lat="49.82881" lon="2.30872">
        <ele>84.4</ele>
        <time>2023-08-10T08:13:55Z</time>
      </trkpt>
      <trkpt lat="49.82881" lon="2.30872">
        <ele>84.3</ele>
        <time>2023-08-10T08:13:56Z</time>
      </trkpt>
      <trkpt lat="49.82881" lon="2.30872">
        <ele>84.3</ele>
        <time>2023-08-10T08:13:57Z</time>
      </trkpt>
      <trkpt lat="49.82881" lon="2.30873">
        <ele>84.3</ele>
        <time>2023-08-10T08:13:58Z</time>
      </trkpt>
      <trkpt lat="49.82881" lon="2.30873">
        <ele>84.3</ele>
        <time>2023-08-10T08:13:59Z</time>
      </trkpt>
      <trkpt lat="49.82881" lon="2.30873">
        <ele>84.3</ele>
        <time>2023-08-10T08:14:00Z</time>
      </trkpt>
      <trkpt lat="49.82881" lon="2.30873">
        <ele>84.3</ele>
        <time>2023-08-10T08:14:01Z</time>
      </trkpt>
      <trkpt lat="49.82881" lon="2.30873">
        <ele>84.3</ele>
        <time>2023-08-10T08:14:02Z</time>
      </trkpt>
      <trkpt lat="49.82881" lon="2.30873">
        <ele>84.3</ele>
        <time>2023-08-10T08:14:03Z</time>
      </trkpt>
      <trkpt lat="49.82881" lon="2.30873">
        <ele>84.3</ele>
        <time>2023-08-10T08:14:04Z</time>
      </trkpt>
      <trkpt lat="49.82881" lon="2.30874">
        <ele>84.3</ele>
        <time>2023-08-10T08:14:05Z</time>
      </trkpt>
      <trkpt lat="49.82881" lon="2.30874">
        <ele>84.3</ele>
        <time>2023-08-10T08:14:06Z</time>
      </trkpt>
      <trkpt lat="49.82881" lon="2.30874">
        <ele>84.3</ele>
        <time>2023-08-10T08:14:07Z</time>
      </trkpt>
      <trkpt lat="49.82881" lon="2.30874">
        <ele>84.3</ele>
        <time>2023-08-10T08:14:08Z</time>
      </trkpt>
      <trkpt lat="49.82881" lon="2.30874">
        <ele>84.3</ele>
        <time>2023-08-10T08:14:09Z</time>
      </trkpt>
      <trkpt lat="49.82881" lon="2.30874">
        <ele>84.3</ele>
        <time>2023-08-10T08:14:10Z</time>
      </trkpt>
      <trkpt lat="49.82881" lon="2.30874">
        <ele>84.3</ele>
        <time>2023-08-10T08:14:11Z</time>
      </trkpt>
      <trkpt lat="49.82881" lon="2.30875">
        <ele>84.3</ele>
        <time>2023-08-10T08:14:12Z</time>
      </trkpt>
      <trkpt lat="49.82881" lon="2.30875">
        <ele>84.3</ele>
        <time>2023-08-10T08:14:13Z</time>
      </trkpt>
      <trkpt lat="49.82881" lon="2.30875">
        <ele>84.3</ele>
        <time>2023-08-10T08:14:14Z</time>
      </trkpt>
      <trkpt lat="49.82881" lon="2.30875">
        <ele>84.3</ele>
        <time>2023-08-10T08:14:15Z</time>
      </trkpt>
      <trkpt lat="49.82881" lon="2.30875">
        <ele>84.3</ele>
        <time>2023-08-10T08:14:16Z</time>
      </trkpt>
      <trkpt lat="49.82881" lon="2.30875">
        <ele>84.3</ele>
        <time>2023-08-10T08:14:17Z</time>
      </trkpt>
      <trkpt lat="49.82881" lon="2.30875">
        <ele>84.3</ele>
        <time>2023-08-10T08:14:18Z</time>
      </trkpt>
      <trkpt lat="49.82881" lon="2.30876">
        <ele>84.3</ele>
        <time>2023-08-10T08:14:19Z</time>
      </trkpt>
      <trkpt lat="49.82881" lon="2.30876">
        <ele>84.3</ele>
        <time>2023-08-10T08:14:20Z</time>
      </trkpt>
      <trkpt lat="49.82881" lon="2.30876">
        <ele>84.3</ele>
        <time>2023-08-10T08:14:21Z</time>
      </trkpt>
      <trkpt lat="49.82881" lon="2.30876">
        <ele>84.2</ele>
        <time>2023-08-10T08:14:22Z</time>
      </trkpt>
      <trkpt lat="49.82881" lon="2.30876">
        <ele>84.2</ele>
        <time>2023-08-10T08:14:23Z</time>
      </trkpt>
      <trkpt lat="49.82881" lon="2.30876">
        <ele>84.2</ele>
        <time>2023-08-10T08:14:24Z</time>
      </trkpt>
      <trkpt lat="49.82881" lon="2.30876">
        <ele>84.2</ele>
        <time>2023-08-10T08:14:25Z</time>
      </trkpt>
      <trkpt lat="49.82881" lon="2.30876">
        <ele>84.2</ele>
        <time>2023-08-10T08:14:26Z</time>
      </trkpt>
      <trkpt lat="49.82881" lon="2.30877">
        <ele>84.2</ele>
        <time>2023-08-10T08:14:27Z</time>
      </trkpt>
      <trkpt lat="49.82881" lon="2.30877">
        <ele>84.2</ele>
        <time>2023-08-10T08:14:28Z</time>
      </trkpt>
      <trkpt lat="49.82881" lon="2.30877">
        <ele>84.2</ele>
        <time>2023-08-10T08:14:29Z</time>
      </trkpt>
      <trkpt lat="49.82881" lon="2.30877">
        <ele>84.2</ele>
        <time>2023-08-10T08:14:30Z</time>
      </trkpt>
      <trkpt lat="49.82881" lon="2.30877">
        <ele>84.2</ele>
        <time>2023-08-10T08:14:31Z</time>
      </trkpt>
      <trkpt lat="49.82881" lon="2.30877">
        <ele>84.2</ele>
        <time>2023-08-10T08:14:32Z</time>
      </trkpt>
      <trkpt lat="49.82881" lon="2.30877">
        <ele>84.2</ele>
        <time>2023-08-10T08:14:33Z</time>
      </trkpt>
      <trkpt lat="49.82881" lon="2.30878">
        <ele>84.2</ele>
        <time>2023-08-10T08:14:34Z</time>
      </trkpt>
      <trkpt lat="49.82881" lon="2.30878">
        <ele>84.2</ele>
        <time>2023-08-10T08:14:35Z</time>
      </trkpt>
      <trkpt lat="49.82881" lon="2.30878">
        <ele>84.2</ele>
        <time>2023-08-10T08:14:36Z</time>
      </trkpt>
      <trkpt lat="49.82881" lon="2.30878">
        <ele>84.2</ele>
        <time>2023-08-10T08:14:37Z</time>
      </trkpt>
      <trkpt lat="49.82881" lon="2.30878">
        <ele>84.2</ele>
        <time>2023-08-10T08:14:38Z</time>
      </trkpt>
      <trkpt lat="49.82881" lon="2.30878">
        <ele>84.2</ele>
        <time>2023-08-10T08:14:39Z</time>
      </trkpt>
      <trkpt lat="49.82881" lon="2.30878">
        <ele>84.2</ele>
        <time>2023-08-10T08:14:40Z</time>
      </trkpt>
      <trkpt lat="49.82881" lon="2.30879">
        <ele>84.2</ele>
        <time>2023-08-10T08:14:41Z</time>
      </trkpt>
      <trkpt lat="49.82881" lon="2.30879">
        <ele>84.2</ele>
        <time>2023-08-10T08:14:42Z</time>
      </trkpt>
      <trkpt lat="49.82881" lon="2.30879">
        <ele>84.2</ele>
        <time>2023-08-10T08:14:43Z</time>
      </trkpt>
      <trkpt lat="49.82881" lon="2.30879">
        <ele>84.2</ele>
        <time>2023-08-10T08:14:44Z</time>
      </trkpt>
      <trkpt lat="49.82881" lon="2.30879">
        <ele>84.2</ele>
        <time>2023-08-10T08:14:45Z</time>
      </trkpt>
      <trkpt lat="49.82881" lon="2.30879">
        <ele>84.2</ele>
        <time>2023-08-10T08:14:46Z</time>
      </trkpt>
      <trkpt lat="49.82881" lon="2.30879">
        <ele>84.1</ele>
        <time>2023-08-10T08:14:47Z</time>
      </trkpt>
      <trkpt lat="49.82881" lon="2.3088">
        <ele>84.1</ele>
        <time>2023-08-10T08:14:48Z</time>
      </trkpt>
      <trkpt lat="49.82881" lon="2.3088">
        <ele>84.1</ele>
        <time>2023-08-10T08:14:49Z</time>
      </trkpt>
      <trkpt lat="49.82881" lon="2.3088">
        <ele>84.1</ele>
        <time>2023-08-10T08:14:50Z</time>
      </trkpt>
      <trkpt lat="49.82881" lon="2.3088">
        <ele>84.1</ele>
        <time>2023-08-10T08:14:51Z</time>
      </trkpt>
      <trkpt lat="49.82881" lon="2.3088">
        <ele>84.1</ele>
        <time>2023-08-10T08:14:52Z</time>
      </trkpt>
      <trkpt lat="49.82882" lon="2.3088">
        <ele>84.1</ele>
        <time>2023-08-10T08:14:53Z</time>
      </trkpt>
      <trkpt lat="49.82881" lon="2.30885">
        <ele>84</ele>
        <time>2023-08-10T08:14:54Z</time>
      </trkpt>
      <trkpt lat="49.82881" lon="2.30887">
        <ele>84</ele>
        <time>2023-08-10T08:14:55Z</time>
      </trkpt>
      <trkpt lat="49.82881" lon="2.30887">
        <ele>84</ele>
        <time>2023-08-10T08:14:56Z</time>
      </trkpt>
      <trkpt lat="49.82881" lon="2.30887">
        <ele>83.9</ele>
        <time>2023-08-10T08:14:57Z</time>
      </trkpt>
      <trkpt lat="49.82881" lon="2.30887">
        <ele>83.9</ele>
        <time>2023-08-10T08:14:58Z</time>
      </trkpt>
      <trkpt lat="49.82881" lon="2.30887">
        <ele>83.9</ele>
        <time>2023-08-10T08:14:59Z</time>
      </trkpt>
      <trkpt lat="49.82881" lon="2.30887">
        <ele>83.9</ele>
        <time>2023-08-10T08:15:00Z</time>
      </trkpt>
      <trkpt lat="49.82881" lon="2.30887">
        <ele>83.9</ele>
        <time>2023-08-10T08:15:01Z</time>
      </trkpt>
      <trkpt lat="49.82881" lon="2.30887">
        <ele>83.9</ele>
        <time>2023-08-10T08:15:02Z</time>
      </trkpt>
      <trkpt lat="49.82881" lon="2.30887">
        <ele>83.9</ele>
        <time>2023-08-10T08:15:03Z</time>
      </trkpt>
      <trkpt lat="49.82881" lon="2.30887">
        <ele>83.9</ele>
        <time>2023-08-10T08:15:04Z</time>
      </trkpt>
      <trkpt lat="49.82881" lon="2.30887">
        <ele>83.9</ele>
        <time>2023-08-10T08:15:05Z</time>
      </trkpt>
      <trkpt lat="49.82881" lon="2.30887">
        <ele>83.9</ele>
        <time>2023-08-10T08:15:06Z</time>
      </trkpt>
      <trkpt lat="49.82881" lon="2.30887">
        <ele>83.9</ele>
        <time>2023-08-10T08:15:07Z</time>
      </trkpt>
      <trkpt lat="49.82881" lon="2.30887">
        <ele>83.9</ele>
        <time>2023-08-10T08:15:08Z</time>
      </trkpt>
      <trkpt lat="49.82881" lon="2.30887">
        <ele>83.9</ele>
        <time>2023-08-10T08:15:09Z</time>
      </trkpt>
      <trkpt lat="49.82881" lon="2.30887">
        <ele>83.9</ele>
        <time>2023-08-10T08:15:10Z</time>
      </trkpt>
      <trkpt lat="49.82881" lon="2.30886">
        <ele>83.9</ele>
        <time>2023-08-10T08:15:12Z</time>
      </trkpt>
      <trkpt lat="49.82882" lon="2.30886">
        <ele>83.9</ele>
        <time>2023-08-10T08:15:13Z</time>
      </trkpt>
      <trkpt lat="49.82882" lon="2.30886">
        <ele>83.9</ele>
        <time>2023-08-10T08:15:14Z</time>
      </trkpt>
      <trkpt lat="49.82882" lon="2.30886">
        <ele>83.9</ele>
        <time>2023-08-10T08:15:15Z</time>
      </trkpt>
      <trkpt lat="49.82882" lon="2.30886">
        <ele>83.9</ele>
        <time>2023-08-10T08:15:16Z</time>
      </trkpt>
      <trkpt lat="49.82882" lon="2.30886">
        <ele>83.9</ele>
        <time>2023-08-10T08:15:17Z</time>
      </trkpt>
      <trkpt lat="49.82882" lon="2.30886">
        <ele>83.9</ele>
        <time>2023-08-10T08:15:18Z</time>
      </trkpt>
      <trkpt lat="49.82882" lon="2.30886">
        <ele>83.9</ele>
        <time>2023-08-10T08:15:19Z</time>
      </trkpt>
      <trkpt lat="49.82882" lon="2.30886">
        <ele>83.9</ele>
        <time>2023-08-10T08:15:20Z</time>
      </trkpt>
      <trkpt lat="49.82882" lon="2.30886">
        <ele>83.9</ele>
        <time>2023-08-10T08:15:21Z</time>
      </trkpt>
      <trkpt lat="49.82882" lon="2.30886">
        <ele>83.9</ele>
        <time>2023-08-10T08:15:22Z</time>
      </trkpt>
      <trkpt lat="49.82882" lon="2.30886">
        <ele>83.9</ele>
        <time>2023-08-10T08:15:23Z</time>
      </trkpt>
      <trkpt lat="49.82882" lon="2.30886">
        <ele>83.9</ele>
        <time>2023-08-10T08:15:24Z</time>
      </trkpt>
      <trkpt lat="49.82882" lon="2.30886">
        <ele>83.9</ele>
        <time>2023-08-10T08:15:25Z</time>
      </trkpt>
      <trkpt lat="49.82882" lon="2.30886">
        <ele>83.9</ele>
        <time>2023-08-10T08:15:26Z</time>
      </trkpt>
      <trkpt lat="49.82882" lon="2.30886">
        <ele>83.9</ele>
        <time>2023-08-10T08:15:27Z</time>
      </trkpt>
      <trkpt lat="49.82882" lon="2.30886">
        <ele>83.9</ele>
        <time>2023-08-10T08:15:28Z</time>
      </trkpt>
      <trkpt lat="49.82882" lon="2.30886">
        <ele>83.9</ele>
        <time>2023-08-10T08:15:29Z</time>
      </trkpt>
      <trkpt lat="49.82882" lon="2.30886">
        <ele>83.9</ele>
        <time>2023-08-10T08:15:30Z</time>
      </trkpt>
      <trkpt lat="49.82882" lon="2.30886">
        <ele>83.9</ele>
        <time>2023-08-10T08:15:31Z</time>
      </trkpt>
      <trkpt lat="49.82882" lon="2.30886">
        <ele>83.9</ele>
        <time>2023-08-10T08:15:32Z</time>
      </trkpt>
      <trkpt lat="49.82882" lon="2.30886">
        <ele>83.9</ele>
        <time>2023-08-10T08:15:33Z</time>
      </trkpt>
      <trkpt lat="49.82882" lon="2.30886">
        <ele>83.9</ele>
        <time>2023-08-10T08:15:34Z</time>
      </trkpt>
      <trkpt lat="49.82882" lon="2.30886">
        <ele>83.9</ele>
        <time>2023-08-10T08:15:35Z</time>
      </trkpt>
      <trkpt lat="49.82881" lon="2.30884">
        <ele>83.8</ele>
        <time>2023-08-10T08:15:36Z</time>
      </trkpt>
      <trkpt lat="49.8288" lon="2.30881">
        <ele>83.8</ele>
        <time>2023-08-10T08:15:37Z</time>
      </trkpt>
      <trkpt lat="49.82879" lon="2.30879">
        <ele>83.7</ele>
        <time>2023-08-10T08:15:38Z</time>
      </trkpt>
      <trkpt lat="49.8288" lon="2.30884">
        <ele>83.6</ele>
        <time>2023-08-10T08:15:40Z</time>
      </trkpt>
      <trkpt lat="49.8288" lon="2.30884">
        <ele>83.6</ele>
        <time>2023-08-10T08:15:41Z</time>
      </trkpt>
      <trkpt lat="49.82879" lon="2.30882">
        <ele>83.5</ele>
        <time>2023-08-10T08:15:42Z</time>
      </trkpt>
      <trkpt lat="49.82878" lon="2.3088">
        <ele>83.5</ele>
        <time>2023-08-10T08:15:44Z</time>
      </trkpt>
      <trkpt lat="49.82878" lon="2.30879">
        <ele>83.4</ele>
        <time>2023-08-10T08:15:45Z</time>
      </trkpt>
      <trkpt lat="49.82877" lon="2.30878">
        <ele>83.4</ele>
        <time>2023-08-10T08:15:47Z</time>
      </trkpt>
      <trkpt lat="49.82877" lon="2.30878">
        <ele>83.4</ele>
        <time>2023-08-10T08:15:48Z</time>
      </trkpt>
      <trkpt lat="49.82876" lon="2.30878">
        <ele>83.4</ele>
        <time>2023-08-10T08:15:49Z</time>
      </trkpt>
      <trkpt lat="49.82876" lon="2.30877">
        <ele>83.4</ele>
        <time>2023-08-10T08:15:50Z</time>
      </trkpt>
      <trkpt lat="49.82876" lon="2.30877">
        <ele>83.3</ele>
        <time>2023-08-10T08:15:51Z</time>
      </trkpt>
      <trkpt lat="49.82877" lon="2.30876">
        <ele>83.3</ele>
        <time>2023-08-10T08:15:52Z</time>
      </trkpt>
      <trkpt lat="49.82878" lon="2.30875">
        <ele>83.3</ele>
        <time>2023-08-10T08:15:53Z</time>
      </trkpt>
      <trkpt lat="49.82877" lon="2.30873">
        <ele>83.2</ele>
        <time>2023-08-10T08:15:55Z</time>
      </trkpt>
      <trkpt lat="49.82878" lon="2.30873">
        <ele>83.2</ele>
        <time>2023-08-10T08:15:56Z</time>
      </trkpt>
      <trkpt lat="49.82878" lon="2.30873">
        <ele>83.2</ele>
        <time>2023-08-10T08:15:57Z</time>
      </trkpt>
      <trkpt lat="49.82878" lon="2.30874">
        <ele>83.2</ele>
        <time>2023-08-10T08:15:58Z</time>
      </trkpt>
      <trkpt lat="49.82877" lon="2.30874">
        <ele>83.1</ele>
        <time>2023-08-10T08:16:00Z</time>
      </trkpt>
      <trkpt lat="49.82876" lon="2.30874">
        <ele>83.1</ele>
        <time>2023-08-10T08:16:01Z</time>
      </trkpt>
      <trkpt lat="49.82876" lon="2.30874">
        <ele>83.1</ele>
        <time>2023-08-10T08:16:02Z</time>
      </trkpt>
      <trkpt lat="49.82876" lon="2.30874">
        <ele>83.1</ele>
        <time>2023-08-10T08:16:03Z</time>
      </trkpt>
      <trkpt lat="49.82875" lon="2.30874">
        <ele>83</ele>
        <time>2023-08-10T08:16:05Z</time>
      </trkpt>
      <trkpt lat="49.82874" lon="2.30874">
        <ele>83</ele>
        <time>2023-08-10T08:16:06Z</time>
      </trkpt>
      <trkpt lat="49.82873" lon="2.30875">
        <ele>82.9</ele>
        <time>2023-08-10T08:16:07Z</time>
      </trkpt>
      <trkpt lat="49.82872" lon="2.30875">
        <ele>82.9</ele>
        <time>2023-08-10T08:16:08Z</time>
      </trkpt>
      <trkpt lat="49.82871" lon="2.30875">
        <ele>82.9</ele>
        <time>2023-08-10T08:16:09Z</time>
      </trkpt>
      <trkpt lat="49.8287" lon="2.30875">
        <ele>82.8</ele>
        <time>2023-08-10T08:16:10Z</time>
      </trkpt>
      <trkpt lat="49.82869" lon="2.30876">
        <ele>82.8</ele>
        <time>2023-08-10T08:16:11Z</time>
      </trkpt>
      <trkpt lat="49.82869" lon="2.30876">
        <ele>82.7</ele>
        <time>2023-08-10T08:16:13Z</time>
      </trkpt>
      <trkpt lat="49.82868" lon="2.30876">
        <ele>82.7</ele>
        <time>2023-08-10T08:16:14Z</time>
      </trkpt>
      <trkpt lat="49.82867" lon="2.30877">
        <ele>82.6</ele>
        <time>2023-08-10T08:16:15Z</time>
      </trkpt>
      <trkpt lat="49.82866" lon="2.30877">
        <ele>82.6</ele>
        <time>2023-08-10T08:16:16Z</time>
      </trkpt>
      <trkpt lat="49.82864" lon="2.30878">
        <ele>82.5</ele>
        <time>2023-08-10T08:16:17Z</time>
      </trkpt>
      <trkpt lat="49.82862" lon="2.30879">
        <ele>82.3</ele>
        <time>2023-08-10T08:16:18Z</time>
      </trkpt>
      <trkpt lat="49.82861" lon="2.3088">
        <ele>82.2</ele>
        <time>2023-08-10T08:16:20Z</time>
      </trkpt>
      <trkpt lat="49.8286" lon="2.30881">
        <ele>82.2</ele>
        <time>2023-08-10T08:16:21Z</time>
      </trkpt>
      <trkpt lat="49.82859" lon="2.30881">
        <ele>82.1</ele>
        <time>2023-08-10T08:16:22Z</time>
      </trkpt>
      <trkpt lat="49.82858" lon="2.30882">
        <ele>82</ele>
        <time>2023-08-10T08:16:23Z</time>
      </trkpt>
      <trkpt lat="49.82857" lon="2.30882">
        <ele>82</ele>
        <time>2023-08-10T08:16:25Z</time>
      </trkpt>
      <trkpt lat="49.82856" lon="2.30882">
        <ele>81.9</ele>
        <time>2023-08-10T08:16:26Z</time>
      </trkpt>
      <trkpt lat="49.82855" lon="2.30882">
        <ele>81.8</ele>
        <time>2023-08-10T08:16:27Z</time>
      </trkpt>
      <trkpt lat="49.82854" lon="2.30882">
        <ele>81.7</ele>
        <time>2023-08-10T08:16:29Z</time>
      </trkpt>
      <trkpt lat="49.82853" lon="2.30882">
        <ele>81.7</ele>
        <time>2023-08-10T08:16:30Z</time>
      </trkpt>
      <trkpt lat="49.82851" lon="2.30881">
        <ele>81.6</ele>
        <time>2023-08-10T08:16:31Z</time>
      </trkpt>
      <trkpt lat="49.8285" lon="2.30881">
        <ele>81.5</ele>
        <time>2023-08-10T08:16:32Z</time>
      </trkpt>
      <trkpt lat="49.8285" lon="2.3088">
        <ele>81.5</ele>
        <time>2023-08-10T08:16:33Z</time>
      </trkpt>
      <trkpt lat="49.82848" lon="2.30879">
        <ele>81.4</ele>
        <time>2023-08-10T08:16:34Z</time>
      </trkpt>
      <trkpt lat="49.82847" lon="2.30878">
        <ele>81.3</ele>
        <time>2023-08-10T08:16:35Z</time>
      </trkpt>
      <trkpt lat="49.82846" lon="2.30877">
        <ele>81.2</ele>
        <time>2023-08-10T08:16:37Z</time>
      </trkpt>
      <trkpt lat="49.82845" lon="2.30877">
        <ele>81.2</ele>
        <time>2023-08-10T08:16:38Z</time>
      </trkpt>
      <trkpt lat="49.82844" lon="2.30876">
        <ele>81.1</ele>
        <time>2023-08-10T08:16:39Z</time>
      </trkpt>
      <trkpt lat="49.82843" lon="2.30875">
        <ele>81</ele>
        <time>2023-08-10T08:16:40Z</time>
      </trkpt>
      <trkpt lat="49.82842" lon="2.30873">
        <ele>80.9</ele>
        <time>2023-08-10T08:16:41Z</time>
      </trkpt>
      <trkpt lat="49.82841" lon="2.30871">
        <ele>80.8</ele>
        <time>2023-08-10T08:16:42Z</time>
      </trkpt>
      <trkpt lat="49.8284" lon="2.3087">
        <ele>80.7</ele>
        <time>2023-08-10T08:16:44Z</time>
      </trkpt>
      <trkpt lat="49.8284" lon="2.30869">
        <ele>80.7</ele>
        <time>2023-08-10T08:16:45Z</time>
      </trkpt>
      <trkpt lat="49.82839" lon="2.30867">
        <ele>80.6</ele>
        <time>2023-08-10T08:16:46Z</time>
      </trkpt>
      <trkpt lat="49.82838" lon="2.30866">
        <ele>80.5</ele>
        <time>2023-08-10T08:16:47Z</time>
      </trkpt>
      <trkpt lat="49.82837" lon="2.30864">
        <ele>80.5</ele>
        <time>2023-08-10T08:16:48Z</time>
      </trkpt>
      <trkpt lat="49.82836" lon="2.30862">
        <ele>80.4</ele>
        <time>2023-08-10T08:16:49Z</time>
      </trkpt>
      <trkpt lat="49.82835" lon="2.3086">
        <ele>80.3</ele>
        <time>2023-08-10T08:16:50Z</time>
      </trkpt>
      <trkpt lat="49.82834" lon="2.30859">
        <ele>80.2</ele>
        <time>2023-08-10T08:16:51Z</time>
      </trkpt>
      <trkpt lat="49.82833" lon="2.30857">
        <ele>80.1</ele>
        <time>2023-08-10T08:16:53Z</time>
      </trkpt>
      <trkpt lat="49.82832" lon="2.30855">
        <ele>80.1</ele>
        <time>2023-08-10T08:16:54Z</time>
      </trkpt>
      <trkpt lat="49.82831" lon="2.30853">
        <ele>80</ele>
        <time>2023-08-10T08:16:55Z</time>
      </trkpt>
      <trkpt lat="49.82831" lon="2.30851">
        <ele>79.9</ele>
        <time>2023-08-10T08:16:56Z</time>
      </trkpt>
      <trkpt lat="49.8283" lon="2.30849">
        <ele>79.8</ele>
        <time>2023-08-10T08:16:57Z</time>
      </trkpt>
      <trkpt lat="49.82829" lon="2.30847">
        <ele>79.8</ele>
        <time>2023-08-10T08:16:58Z</time>
      </trkpt>
      <trkpt lat="49.82828" lon="2.30845">
        <ele>79.7</ele>
        <time>2023-08-10T08:16:59Z</time>
      </trkpt>
      <trkpt lat="49.82827" lon="2.30843">
        <ele>79.6</ele>
        <time>2023-08-10T08:17:01Z</time>
      </trkpt>
      <trkpt lat="49.82826" lon="2.30841">
        <ele>79.6</ele>
        <time>2023-08-10T08:17:02Z</time>
      </trkpt>
      <trkpt lat="49.82826" lon="2.30839">
        <ele>79.5</ele>
        <time>2023-08-10T08:17:03Z</time>
      </trkpt>
      <trkpt lat="49.82825" lon="2.30837">
        <ele>79.5</ele>
        <time>2023-08-10T08:17:04Z</time>
      </trkpt>
      <trkpt lat="49.82824" lon="2.30835">
        <ele>79.4</ele>
        <time>2023-08-10T08:17:05Z</time>
      </trkpt>
      <trkpt lat="49.82823" lon="2.30832">
        <ele>79.3</ele>
        <time>2023-08-10T08:17:06Z</time>
      </trkpt>
      <trkpt lat="49.82823" lon="2.3083">
        <ele>79.3</ele>
        <time>2023-08-10T08:17:07Z</time>
      </trkpt>
      <trkpt lat="49.82823" lon="2.30829">
        <ele>79.3</ele>
        <time>2023-08-10T08:17:08Z</time>
      </trkpt>
      <trkpt lat="49.82822" lon="2.30827">
        <ele>79.2</ele>
        <time>2023-08-10T08:17:10Z</time>
      </trkpt>
      <trkpt lat="49.82822" lon="2.30825">
        <ele>79.2</ele>
        <time>2023-08-10T08:17:11Z</time>
      </trkpt>
      <trkpt lat="49.82822" lon="2.30822">
        <ele>79.1</ele>
        <time>2023-08-10T08:17:12Z</time>
      </trkpt>
      <trkpt lat="49.82821" lon="2.3082">
        <ele>79.1</ele>
        <time>2023-08-10T08:17:13Z</time>
      </trkpt>
      <trkpt lat="49.82821" lon="2.30819">
        <ele>79</ele>
        <time>2023-08-10T08:17:14Z</time>
      </trkpt>
      <trkpt lat="49.8282" lon="2.30816">
        <ele>79</ele>
        <time>2023-08-10T08:17:15Z</time>
      </trkpt>
      <trkpt lat="49.8282" lon="2.30815">
        <ele>79</ele>
        <time>2023-08-10T08:17:16Z</time>
      </trkpt>
      <trkpt lat="49.8282" lon="2.30814">
        <ele>78.9</ele>
        <time>2023-08-10T08:17:17Z</time>
      </trkpt>
      <trkpt lat="49.82819" lon="2.30811">
        <ele>78.9</ele>
        <time>2023-08-10T08:17:18Z</time>
      </trkpt>
      <trkpt lat="49.82819" lon="2.3081">
        <ele>78.8</ele>
        <time>2023-08-10T08:17:20Z</time>
      </trkpt>
      <trkpt lat="49.82818" lon="2.30808">
        <ele>78.8</ele>
        <time>2023-08-10T08:17:21Z</time>
      </trkpt>
      <trkpt lat="49.82818" lon="2.30807">
        <ele>78.8</ele>
        <time>2023-08-10T08:17:22Z</time>
      </trkpt>
      <trkpt lat="49.82817" lon="2.30805">
        <ele>78.7</ele>
        <time>2023-08-10T08:17:23Z</time>
      </trkpt>
      <trkpt lat="49.82817" lon="2.30801">
        <ele>78.6</ele>
        <time>2023-08-10T08:17:25Z</time>
      </trkpt>
      <trkpt lat="49.82817" lon="2.30799">
        <ele>78.6</ele>
        <time>2023-08-10T08:17:26Z</time>
      </trkpt>
      <trkpt lat="49.82817" lon="2.30797">
        <ele>78.5</ele>
        <time>2023-08-10T08:17:27Z</time>
      </trkpt>
      <trkpt lat="49.82817" lon="2.30795">
        <ele>78.5</ele>
        <time>2023-08-10T08:17:29Z</time>
      </trkpt>
      <trkpt lat="49.82816" lon="2.30792">
        <ele>78.4</ele>
        <time>2023-08-10T08:17:30Z</time>
      </trkpt>
      <trkpt lat="49.82816" lon="2.3079">
        <ele>78.4</ele>
        <time>2023-08-10T08:17:31Z</time>
      </trkpt>
      <trkpt lat="49.82816" lon="2.30788">
        <ele>78.3</ele>
        <time>2023-08-10T08:17:32Z</time>
      </trkpt>
      <trkpt lat="49.82816" lon="2.30786">
        <ele>78.2</ele>
        <time>2023-08-10T08:17:33Z</time>
      </trkpt>
      <trkpt lat="49.82816" lon="2.30784">
        <ele>78.2</ele>
        <time>2023-08-10T08:17:34Z</time>
      </trkpt>
      <trkpt lat="49.82816" lon="2.30782">
        <ele>78.1</ele>
        <time>2023-08-10T08:17:35Z</time>
      </trkpt>
      <trkpt lat="49.82816" lon="2.30779">
        <ele>78.1</ele>
        <time>2023-08-10T08:17:36Z</time>
      </trkpt>
      <trkpt lat="49.82816" lon="2.30777">
        <ele>78</ele>
        <time>2023-08-10T08:17:38Z</time>
      </trkpt>
      <trkpt lat="49.82815" lon="2.30775">
        <ele>78</ele>
        <time>2023-08-10T08:17:39Z</time>
      </trkpt>
      <trkpt lat="49.82815" lon="2.30773">
        <ele>77.9</ele>
        <time>2023-08-10T08:17:40Z</time>
      </trkpt>
      <trkpt lat="49.82815" lon="2.30769">
        <ele>77.9</ele>
        <time>2023-08-10T08:17:41Z</time>
      </trkpt>
      <trkpt lat="49.82815" lon="2.30767">
        <ele>77.8</ele>
        <time>2023-08-10T08:17:43Z</time>
      </trkpt>
      <trkpt lat="49.82815" lon="2.30766">
        <ele>77.8</ele>
        <time>2023-08-10T08:17:44Z</time>
      </trkpt>
      <trkpt lat="49.82815" lon="2.30764">
        <ele>77.7</ele>
        <time>2023-08-10T08:17:45Z</time>
      </trkpt>
      <trkpt lat="49.82814" lon="2.30762">
        <ele>77.7</ele>
        <time>2023-08-10T08:17:46Z</time>
      </trkpt>
      <trkpt lat="49.82814" lon="2.30759">
        <ele>77.6</ele>
        <time>2023-08-10T08:17:48Z</time>
      </trkpt>
      <trkpt lat="49.82814" lon="2.30757">
        <ele>77.6</ele>
        <time>2023-08-10T08:17:49Z</time>
      </trkpt>
      <trkpt lat="49.82814" lon="2.30756">
        <ele>77.6</ele>
        <time>2023-08-10T08:17:50Z</time>
      </trkpt>
      <trkpt lat="49.82814" lon="2.30754">
        <ele>77.5</ele>
        <time>2023-08-10T08:17:51Z</time>
      </trkpt>
      <trkpt lat="49.82814" lon="2.30752">
        <ele>77.5</ele>
        <time>2023-08-10T08:17:52Z</time>
      </trkpt>
      <trkpt lat="49.82814" lon="2.30751">
        <ele>77.4</ele>
        <time>2023-08-10T08:17:53Z</time>
      </trkpt>
      <trkpt lat="49.82814" lon="2.30748">
        <ele>77.4</ele>
        <time>2023-08-10T08:17:55Z</time>
      </trkpt>
      <trkpt lat="49.82814" lon="2.30746">
        <ele>77.3</ele>
        <time>2023-08-10T08:17:56Z</time>
      </trkpt>
      <trkpt lat="49.82813" lon="2.30743">
        <ele>77.2</ele>
        <time>2023-08-10T08:17:57Z</time>
      </trkpt>
      <trkpt lat="49.82813" lon="2.30741">
        <ele>77.2</ele>
        <time>2023-08-10T08:17:58Z</time>
      </trkpt>
      <trkpt lat="49.82813" lon="2.3074">
        <ele>77.1</ele>
        <time>2023-08-10T08:17:59Z</time>
      </trkpt>
      <trkpt lat="49.82812" lon="2.30737">
        <ele>77.1</ele>
        <time>2023-08-10T08:18:00Z</time>
      </trkpt>
      <trkpt lat="49.82812" lon="2.30736">
        <ele>77</ele>
        <time>2023-08-10T08:18:01Z</time>
      </trkpt>
      <trkpt lat="49.82812" lon="2.30734">
        <ele>77</ele>
        <time>2023-08-10T08:18:02Z</time>
      </trkpt>
      <trkpt lat="49.82811" lon="2.30732">
        <ele>76.9</ele>
        <time>2023-08-10T08:18:04Z</time>
      </trkpt>
      <trkpt lat="49.82811" lon="2.3073">
        <ele>76.9</ele>
        <time>2023-08-10T08:18:05Z</time>
      </trkpt>
      <trkpt lat="49.8281" lon="2.30729">
        <ele>76.8</ele>
        <time>2023-08-10T08:18:06Z</time>
      </trkpt>
      <trkpt lat="49.8281" lon="2.30726">
        <ele>76.7</ele>
        <time>2023-08-10T08:18:07Z</time>
      </trkpt>
      <trkpt lat="49.82809" lon="2.30724">
        <ele>76.6</ele>
        <time>2023-08-10T08:18:08Z</time>
      </trkpt>
      <trkpt lat="49.82808" lon="2.30723">
        <ele>76.6</ele>
        <time>2023-08-10T08:18:09Z</time>
      </trkpt>
      <trkpt lat="49.82808" lon="2.30721">
        <ele>76.5</ele>
        <time>2023-08-10T08:18:10Z</time>
      </trkpt>
      <trkpt lat="49.82807" lon="2.3072">
        <ele>76.5</ele>
        <time>2023-08-10T08:18:12Z</time>
      </trkpt>
      <trkpt lat="49.82806" lon="2.30718">
        <ele>76.4</ele>
        <time>2023-08-10T08:18:13Z</time>
      </trkpt>
      <trkpt lat="49.82805" lon="2.30715">
        <ele>76.3</ele>
        <time>2023-08-10T08:18:14Z</time>
      </trkpt>
      <trkpt lat="49.82804" lon="2.30714">
        <ele>76.2</ele>
        <time>2023-08-10T08:18:15Z</time>
      </trkpt>
      <trkpt lat="49.82804" lon="2.30713">
        <ele>76.2</ele>
        <time>2023-08-10T08:18:16Z</time>
      </trkpt>
      <trkpt lat="49.82803" lon="2.3071">
        <ele>76.1</ele>
        <time>2023-08-10T08:18:18Z</time>
      </trkpt>
      <trkpt lat="49.82802" lon="2.30708">
        <ele>76</ele>
        <time>2023-08-10T08:18:19Z</time>
      </trkpt>
      <trkpt lat="49.82802" lon="2.30706">
        <ele>75.9</ele>
        <time>2023-08-10T08:18:20Z</time>
      </trkpt>
      <trkpt lat="49.82801" lon="2.30705">
        <ele>75.9</ele>
        <time>2023-08-10T08:18:21Z</time>
      </trkpt>
      <trkpt lat="49.82801" lon="2.30703">
        <ele>75.8</ele>
        <time>2023-08-10T08:18:23Z</time>
      </trkpt>
      <trkpt lat="49.828" lon="2.307">
        <ele>75.7</ele>
        <time>2023-08-10T08:18:24Z</time>
      </trkpt>
      <trkpt lat="49.828" lon="2.30698">
        <ele>75.6</ele>
        <time>2023-08-10T08:18:25Z</time>
      </trkpt>
      <trkpt lat="49.828" lon="2.30697">
        <ele>75.6</ele>
        <time>2023-08-10T08:18:26Z</time>
      </trkpt>
      <trkpt lat="49.82799" lon="2.30695">
        <ele>75.5</ele>
        <time>2023-08-10T08:18:27Z</time>
      </trkpt>
      <trkpt lat="49.82799" lon="2.30694">
        <ele>75.5</ele>
        <time>2023-08-10T08:18:28Z</time>
      </trkpt>
      <trkpt lat="49.82799" lon="2.30692">
        <ele>75.4</ele>
        <time>2023-08-10T08:18:29Z</time>
      </trkpt>
      <trkpt lat="49.82799" lon="2.30689">
        <ele>75.3</ele>
        <time>2023-08-10T08:18:31Z</time>
      </trkpt>
      <trkpt lat="49.82798" lon="2.30688">
        <ele>75.2</ele>
        <time>2023-08-10T08:18:32Z</time>
      </trkpt>
      <trkpt lat="49.82798" lon="2.30686">
        <ele>75.2</ele>
        <time>2023-08-10T08:18:33Z</time>
      </trkpt>
      <trkpt lat="49.82798" lon="2.30684">
        <ele>75.1</ele>
        <time>2023-08-10T08:18:34Z</time>
      </trkpt>
      <trkpt lat="49.82797" lon="2.30682">
        <ele>75</ele>
        <time>2023-08-10T08:18:36Z</time>
      </trkpt>
      <trkpt lat="49.82797" lon="2.30678">
        <ele>74.9</ele>
        <time>2023-08-10T08:18:37Z</time>
      </trkpt>
      <trkpt lat="49.82797" lon="2.30677">
        <ele>74.9</ele>
        <time>2023-08-10T08:18:38Z</time>
      </trkpt>
      <trkpt lat="49.82796" lon="2.30676">
        <ele>74.8</ele>
        <time>2023-08-10T08:18:39Z</time>
      </trkpt>
      <trkpt lat="49.82796" lon="2.30672">
        <ele>74.7</ele>
        <time>2023-08-10T08:18:40Z</time>
      </trkpt>
      <trkpt lat="49.82795" lon="2.30671">
        <ele>74.7</ele>
        <time>2023-08-10T08:18:41Z</time>
      </trkpt>
      <trkpt lat="49.82795" lon="2.3067">
        <ele>74.6</ele>
        <time>2023-08-10T08:18:42Z</time>
      </trkpt>
      <trkpt lat="49.82794" lon="2.30667">
        <ele>74.5</ele>
        <time>2023-08-10T08:18:43Z</time>
      </trkpt>
      <trkpt lat="49.82794" lon="2.30666">
        <ele>74.4</ele>
        <time>2023-08-10T08:18:45Z</time>
      </trkpt>
      <trkpt lat="49.82793" lon="2.30665">
        <ele>74.4</ele>
        <time>2023-08-10T08:18:46Z</time>
      </trkpt>
      <trkpt lat="49.82792" lon="2.30662">
        <ele>74.3</ele>
        <time>2023-08-10T08:18:47Z</time>
      </trkpt>
      <trkpt lat="49.82792" lon="2.30661">
        <ele>74.2</ele>
        <time>2023-08-10T08:18:48Z</time>
      </trkpt>
      <trkpt lat="49.82791" lon="2.3066">
        <ele>74.2</ele>
        <time>2023-08-10T08:18:49Z</time>
      </trkpt>
      <trkpt lat="49.8279" lon="2.30657">
        <ele>74.1</ele>
        <time>2023-08-10T08:18:50Z</time>
      </trkpt>
      <trkpt lat="49.8279" lon="2.30656">
        <ele>74</ele>
        <time>2023-08-10T08:18:51Z</time>
      </trkpt>
      <trkpt lat="49.82789" lon="2.30655">
        <ele>74</ele>
        <time>2023-08-10T08:18:52Z</time>
      </trkpt>
      <trkpt lat="49.82788" lon="2.30653">
        <ele>73.9</ele>
        <time>2023-08-10T08:18:54Z</time>
      </trkpt>
      <trkpt lat="49.82787" lon="2.30652">
        <ele>73.8</ele>
        <time>2023-08-10T08:18:55Z</time>
      </trkpt>
      <trkpt lat="49.82786" lon="2.3065">
        <ele>73.7</ele>
        <time>2023-08-10T08:18:56Z</time>
      </trkpt>
      <trkpt lat="49.82786" lon="2.30648">
        <ele>73.7</ele>
        <time>2023-08-10T08:18:57Z</time>
      </trkpt>
      <trkpt lat="49.82785" lon="2.30646">
        <ele>73.6</ele>
        <time>2023-08-10T08:18:58Z</time>
      </trkpt>
      <trkpt lat="49.82785" lon="2.30645">
        <ele>73.5</ele>
        <time>2023-08-10T08:18:59Z</time>
      </trkpt>
      <trkpt lat="49.82784" lon="2.30642">
        <ele>73.4</ele>
        <time>2023-08-10T08:19:01Z</time>
      </trkpt>
      <trkpt lat="49.82783" lon="2.3064">
        <ele>73.3</ele>
        <time>2023-08-10T08:19:02Z</time>
      </trkpt>
      <trkpt lat="49.82783" lon="2.30638">
        <ele>73.3</ele>
        <time>2023-08-10T08:19:03Z</time>
      </trkpt>
      <trkpt lat="49.82782" lon="2.30635">
        <ele>73.1</ele>
        <time>2023-08-10T08:19:05Z</time>
      </trkpt>
      <trkpt lat="49.8278" lon="2.30632">
        <ele>73</ele>
        <time>2023-08-10T08:19:07Z</time>
      </trkpt>
      <trkpt lat="49.8278" lon="2.30631">
        <ele>73</ele>
        <time>2023-08-10T08:19:08Z</time>
      </trkpt>
      <trkpt lat="49.8278" lon="2.3063">
        <ele>72.9</ele>
        <time>2023-08-10T08:19:09Z</time>
      </trkpt>
      <trkpt lat="49.82778" lon="2.30627">
        <ele>72.8</ele>
        <time>2023-08-10T08:19:10Z</time>
      </trkpt>
      <trkpt lat="49.82778" lon="2.30626">
        <ele>72.8</ele>
        <time>2023-08-10T08:19:11Z</time>
      </trkpt>
      <trkpt lat="49.82777" lon="2.30625">
        <ele>72.7</ele>
        <time>2023-08-10T08:19:12Z</time>
      </trkpt>
      <trkpt lat="49.82777" lon="2.30624">
        <ele>72.6</ele>
        <time>2023-08-10T08:19:13Z</time>
      </trkpt>
      <trkpt lat="49.82776" lon="2.30622">
        <ele>72.6</ele>
        <time>2023-08-10T08:19:14Z</time>
      </trkpt>
      <trkpt lat="49.82776" lon="2.3062">
        <ele>72.5</ele>
        <time>2023-08-10T08:19:16Z</time>
      </trkpt>
      <trkpt lat="49.82775" lon="2.30619">
        <ele>72.4</ele>
        <time>2023-08-10T08:19:17Z</time>
      </trkpt>
      <trkpt lat="49.82774" lon="2.30617">
        <ele>72.4</ele>
        <time>2023-08-10T08:19:18Z</time>
      </trkpt>
      <trkpt lat="49.82774" lon="2.30616">
        <ele>72.3</ele>
        <time>2023-08-10T08:19:19Z</time>
      </trkpt>
      <trkpt lat="49.82773" lon="2.30614">
        <ele>72.2</ele>
        <time>2023-08-10T08:19:20Z</time>
      </trkpt>
      <trkpt lat="49.82772" lon="2.30613">
        <ele>72.2</ele>
        <time>2023-08-10T08:19:21Z</time>
      </trkpt>
      <trkpt lat="49.82772" lon="2.30611">
        <ele>72.1</ele>
        <time>2023-08-10T08:19:22Z</time>
      </trkpt>
      <trkpt lat="49.8277" lon="2.30609">
        <ele>72</ele>
        <time>2023-08-10T08:19:24Z</time>
      </trkpt>
      <trkpt lat="49.8277" lon="2.30608">
        <ele>71.9</ele>
        <time>2023-08-10T08:19:25Z</time>
      </trkpt>
      <trkpt lat="49.82769" lon="2.30607">
        <ele>71.9</ele>
        <time>2023-08-10T08:19:26Z</time>
      </trkpt>
      <trkpt lat="49.82769" lon="2.30606">
        <ele>71.8</ele>
        <time>2023-08-10T08:19:27Z</time>
      </trkpt>
      <trkpt lat="49.82768" lon="2.30605">
        <ele>71.8</ele>
        <time>2023-08-10T08:19:28Z</time>
      </trkpt>
      <trkpt lat="49.82768" lon="2.30604">
        <ele>71.7</ele>
        <time>2023-08-10T08:19:29Z</time>
      </trkpt>
      <trkpt lat="49.82767" lon="2.30602">
        <ele>71.6</ele>
        <time>2023-08-10T08:19:31Z</time>
      </trkpt>
      <trkpt lat="49.82767" lon="2.30601">
        <ele>71.6</ele>
        <time>2023-08-10T08:19:32Z</time>
      </trkpt>
      <trkpt lat="49.82766" lon="2.306">
        <ele>71.5</ele>
        <time>2023-08-10T08:19:33Z</time>
      </trkpt>
      <trkpt lat="49.82766" lon="2.30599">
        <ele>71.5</ele>
        <time>2023-08-10T08:19:34Z</time>
      </trkpt>
      <trkpt lat="49.82764" lon="2.30597">
        <ele>71.4</ele>
        <time>2023-08-10T08:19:35Z</time>
      </trkpt>
      <trkpt lat="49.82764" lon="2.30596">
        <ele>71.4</ele>
        <time>2023-08-10T08:19:36Z</time>
      </trkpt>
      <trkpt lat="49.82764" lon="2.30595">
        <ele>71.3</ele>
        <time>2023-08-10T08:19:37Z</time>
      </trkpt>
      <trkpt lat="49.82763" lon="2.30594">
        <ele>71.3</ele>
        <time>2023-08-10T08:19:39Z</time>
      </trkpt>
      <trkpt lat="49.82763" lon="2.30593">
        <ele>71.2</ele>
        <time>2023-08-10T08:19:40Z</time>
      </trkpt>
      <trkpt lat="49.82762" lon="2.30592">
        <ele>71.2</ele>
        <time>2023-08-10T08:19:41Z</time>
      </trkpt>
      <trkpt lat="49.82762" lon="2.30592">
        <ele>71.1</ele>
        <time>2023-08-10T08:19:42Z</time>
      </trkpt>
      <trkpt lat="49.82761" lon="2.30591">
        <ele>71.1</ele>
        <time>2023-08-10T08:19:43Z</time>
      </trkpt>
      <trkpt lat="49.82761" lon="2.3059">
        <ele>71</ele>
        <time>2023-08-10T08:19:44Z</time>
      </trkpt>
      <trkpt lat="49.8276" lon="2.30588">
        <ele>71</ele>
        <time>2023-08-10T08:19:45Z</time>
      </trkpt>
      <trkpt lat="49.82759" lon="2.30587">
        <ele>70.9</ele>
        <time>2023-08-10T08:19:47Z</time>
      </trkpt>
      <trkpt lat="49.82758" lon="2.30586">
        <ele>70.8</ele>
        <time>2023-08-10T08:19:48Z</time>
      </trkpt>
      <trkpt lat="49.82758" lon="2.30585">
        <ele>70.8</ele>
        <time>2023-08-10T08:19:49Z</time>
      </trkpt>
      <trkpt lat="49.82757" lon="2.30584">
        <ele>70.7</ele>
        <time>2023-08-10T08:19:50Z</time>
      </trkpt>
      <trkpt lat="49.82756" lon="2.30583">
        <ele>70.6</ele>
        <time>2023-08-10T08:19:51Z</time>
      </trkpt>
      <trkpt lat="49.82756" lon="2.30582">
        <ele>70.6</ele>
        <time>2023-08-10T08:19:52Z</time>
      </trkpt>
      <trkpt lat="49.82755" lon="2.30581">
        <ele>70.5</ele>
        <time>2023-08-10T08:19:54Z</time>
      </trkpt>
      <trkpt lat="49.82754" lon="2.30579">
        <ele>70.4</ele>
        <time>2023-08-10T08:19:55Z</time>
      </trkpt>
      <trkpt lat="49.82753" lon="2.30578">
        <ele>70.4</ele>
        <time>2023-08-10T08:19:56Z</time>
      </trkpt>
      <trkpt lat="49.82752" lon="2.30577">
        <ele>70.3</ele>
        <time>2023-08-10T08:19:57Z</time>
      </trkpt>
      <trkpt lat="49.82751" lon="2.30576">
        <ele>70.2</ele>
        <time>2023-08-10T08:19:58Z</time>
      </trkpt>
      <trkpt lat="49.82751" lon="2.30574">
        <ele>70.1</ele>
        <time>2023-08-10T08:19:59Z</time>
      </trkpt>
      <trkpt lat="49.8275" lon="2.30573">
        <ele>70</ele>
        <time>2023-08-10T08:20:00Z</time>
      </trkpt>
      <trkpt lat="49.82748" lon="2.30571">
        <ele>69.9</ele>
        <time>2023-08-10T08:20:01Z</time>
      </trkpt>
      <trkpt lat="49.82748" lon="2.3057">
        <ele>69.8</ele>
        <time>2023-08-10T08:20:03Z</time>
      </trkpt>
      <trkpt lat="49.82747" lon="2.30569">
        <ele>69.8</ele>
        <time>2023-08-10T08:20:04Z</time>
      </trkpt>
      <trkpt lat="49.82746" lon="2.30567">
        <ele>69.7</ele>
        <time>2023-08-10T08:20:05Z</time>
      </trkpt>
      <trkpt lat="49.82745" lon="2.30566">
        <ele>69.6</ele>
        <time>2023-08-10T08:20:06Z</time>
      </trkpt>
      <trkpt lat="49.82745" lon="2.30565">
        <ele>69.5</ele>
        <time>2023-08-10T08:20:07Z</time>
      </trkpt>
      <trkpt lat="49.82743" lon="2.30562">
        <ele>69.4</ele>
        <time>2023-08-10T08:20:08Z</time>
      </trkpt>
      <trkpt lat="49.82743" lon="2.30561">
        <ele>69.3</ele>
        <time>2023-08-10T08:20:09Z</time>
      </trkpt>
      <trkpt lat="49.82742" lon="2.3056">
        <ele>69.3</ele>
        <time>2023-08-10T08:20:10Z</time>
      </trkpt>
      <trkpt lat="49.82741" lon="2.30559">
        <ele>69.2</ele>
        <time>2023-08-10T08:20:12Z</time>
      </trkpt>
      <trkpt lat="49.8274" lon="2.30557">
        <ele>69.1</ele>
        <time>2023-08-10T08:20:13Z</time>
      </trkpt>
      <trkpt lat="49.8274" lon="2.30556">
        <ele>69</ele>
        <time>2023-08-10T08:20:14Z</time>
      </trkpt>
      <trkpt lat="49.82739" lon="2.30555">
        <ele>69</ele>
        <time>2023-08-10T08:20:15Z</time>
      </trkpt>
      <trkpt lat="49.82738" lon="2.30554">
        <ele>68.9</ele>
        <time>2023-08-10T08:20:16Z</time>
      </trkpt>
      <trkpt lat="49.82738" lon="2.30553">
        <ele>68.8</ele>
        <time>2023-08-10T08:20:17Z</time>
      </trkpt>
      <trkpt lat="49.82737" lon="2.30552">
        <ele>68.8</ele>
        <time>2023-08-10T08:20:18Z</time>
      </trkpt>
      <trkpt lat="49.82736" lon="2.3055">
        <ele>68.7</ele>
        <time>2023-08-10T08:20:20Z</time>
      </trkpt>
      <trkpt lat="49.82736" lon="2.30549">
        <ele>68.6</ele>
        <time>2023-08-10T08:20:21Z</time>
      </trkpt>
      <trkpt lat="49.82735" lon="2.30547">
        <ele>68.6</ele>
        <time>2023-08-10T08:20:22Z</time>
      </trkpt>
      <trkpt lat="49.82735" lon="2.30546">
        <ele>68.5</ele>
        <time>2023-08-10T08:20:23Z</time>
      </trkpt>
      <trkpt lat="49.82734" lon="2.30544">
        <ele>68.4</ele>
        <time>2023-08-10T08:20:25Z</time>
      </trkpt>
      <trkpt lat="49.82733" lon="2.30542">
        <ele>68.3</ele>
        <time>2023-08-10T08:20:26Z</time>
      </trkpt>
      <trkpt lat="49.82733" lon="2.30541">
        <ele>68.3</ele>
        <time>2023-08-10T08:20:27Z</time>
      </trkpt>
      <trkpt lat="49.82733" lon="2.30539">
        <ele>68.2</ele>
        <time>2023-08-10T08:20:28Z</time>
      </trkpt>
      <trkpt lat="49.82732" lon="2.30538">
        <ele>68.1</ele>
        <time>2023-08-10T08:20:30Z</time>
      </trkpt>
      <trkpt lat="49.82732" lon="2.30536">
        <ele>68.1</ele>
        <time>2023-08-10T08:20:31Z</time>
      </trkpt>
      <trkpt lat="49.82731" lon="2.30534">
        <ele>68</ele>
        <time>2023-08-10T08:20:32Z</time>
      </trkpt>
      <trkpt lat="49.82731" lon="2.30533">
        <ele>67.9</ele>
        <time>2023-08-10T08:20:33Z</time>
      </trkpt>
      <trkpt lat="49.8273" lon="2.30531">
        <ele>67.9</ele>
        <time>2023-08-10T08:20:34Z</time>
      </trkpt>
      <trkpt lat="49.8273" lon="2.30529">
        <ele>67.8</ele>
        <time>2023-08-10T08:20:35Z</time>
      </trkpt>
      <trkpt lat="49.8273" lon="2.30526">
        <ele>67.7</ele>
        <time>2023-08-10T08:20:37Z</time>
      </trkpt>
      <trkpt lat="49.82729" lon="2.30525">
        <ele>67.7</ele>
        <time>2023-08-10T08:20:38Z</time>
      </trkpt>
      <trkpt lat="49.82729" lon="2.30524">
        <ele>67.6</ele>
        <time>2023-08-10T08:20:39Z</time>
      </trkpt>
      <trkpt lat="49.82729" lon="2.30521">
        <ele>67.5</ele>
        <time>2023-08-10T08:20:40Z</time>
      </trkpt>
      <trkpt lat="49.82729" lon="2.30519">
        <ele>67.5</ele>
        <time>2023-08-10T08:20:41Z</time>
      </trkpt>
      <trkpt lat="49.82728" lon="2.30518">
        <ele>67.4</ele>
        <time>2023-08-10T08:20:42Z</time>
      </trkpt>
      <trkpt lat="49.82728" lon="2.30516">
        <ele>67.4</ele>
        <time>2023-08-10T08:20:43Z</time>
      </trkpt>
      <trkpt lat="49.82728" lon="2.30514">
        <ele>67.3</ele>
        <time>2023-08-10T08:20:44Z</time>
      </trkpt>
      <trkpt lat="49.82728" lon="2.30512">
        <ele>67.3</ele>
        <time>2023-08-10T08:20:46Z</time>
      </trkpt>
      <trkpt lat="49.82727" lon="2.3051">
        <ele>67.2</ele>
        <time>2023-08-10T08:20:47Z</time>
      </trkpt>
      <trkpt lat="49.82727" lon="2.30508">
        <ele>67.1</ele>
        <time>2023-08-10T08:20:48Z</time>
      </trkpt>
      <trkpt lat="49.82726" lon="2.30506">
        <ele>67.1</ele>
        <time>2023-08-10T08:20:49Z</time>
      </trkpt>
      <trkpt lat="49.82725" lon="2.30504">
        <ele>67</ele>
        <time>2023-08-10T08:20:50Z</time>
      </trkpt>
      <trkpt lat="49.82725" lon="2.30503">
        <ele>67</ele>
        <time>2023-08-10T08:20:51Z</time>
      </trkpt>
      <trkpt lat="49.82724" lon="2.30502">
        <ele>67</ele>
        <time>2023-08-10T08:20:53Z</time>
      </trkpt>
      <trkpt lat="49.82723" lon="2.30501">
        <ele>66.9</ele>
        <time>2023-08-10T08:20:54Z</time>
      </trkpt>
      <trkpt lat="49.82722" lon="2.30499">
        <ele>66.9</ele>
        <time>2023-08-10T08:20:55Z</time>
      </trkpt>
      <trkpt lat="49.82721" lon="2.30498">
        <ele>66.8</ele>
        <time>2023-08-10T08:20:56Z</time>
      </trkpt>
      <trkpt lat="49.8272" lon="2.30497">
        <ele>66.8</ele>
        <time>2023-08-10T08:20:57Z</time>
      </trkpt>
      <trkpt lat="49.8272" lon="2.30497">
        <ele>66.8</ele>
        <time>2023-08-10T08:20:58Z</time>
      </trkpt>
      <trkpt lat="49.82719" lon="2.30496">
        <ele>66.7</ele>
        <time>2023-08-10T08:21:00Z</time>
      </trkpt>
      <trkpt lat="49.82718" lon="2.30495">
        <ele>66.7</ele>
        <time>2023-08-10T08:21:01Z</time>
      </trkpt>
      <trkpt lat="49.82717" lon="2.30494">
        <ele>66.6</ele>
        <time>2023-08-10T08:21:02Z</time>
      </trkpt>
      <trkpt lat="49.82716" lon="2.30493">
        <ele>66.6</ele>
        <time>2023-08-10T08:21:03Z</time>
      </trkpt>
      <trkpt lat="49.82715" lon="2.30492">
        <ele>66.6</ele>
        <time>2023-08-10T08:21:04Z</time>
      </trkpt>
      <trkpt lat="49.82715" lon="2.30491">
        <ele>66.6</ele>
        <time>2023-08-10T08:21:05Z</time>
      </trkpt>
      <trkpt lat="49.82714" lon="2.3049">
        <ele>66.6</ele>
        <time>2023-08-10T08:21:06Z</time>
      </trkpt>
      <trkpt lat="49.82713" lon="2.30489">
        <ele>66.6</ele>
        <time>2023-08-10T08:21:08Z</time>
      </trkpt>
      <trkpt lat="49.82713" lon="2.30488">
        <ele>66.6</ele>
        <time>2023-08-10T08:21:09Z</time>
      </trkpt>
      <trkpt lat="49.82712" lon="2.30487">
        <ele>66.6</ele>
        <time>2023-08-10T08:21:10Z</time>
      </trkpt>
      <trkpt lat="49.82712" lon="2.30486">
        <ele>66.6</ele>
        <time>2023-08-10T08:21:11Z</time>
      </trkpt>
      <trkpt lat="49.82711" lon="2.30485">
        <ele>66.6</ele>
        <time>2023-08-10T08:21:13Z</time>
      </trkpt>
      <trkpt lat="49.82711" lon="2.30484">
        <ele>66.6</ele>
        <time>2023-08-10T08:21:14Z</time>
      </trkpt>
      <trkpt lat="49.8271" lon="2.30483">
        <ele>66.6</ele>
        <time>2023-08-10T08:21:15Z</time>
      </trkpt>
      <trkpt lat="49.8271" lon="2.30482">
        <ele>66.6</ele>
        <time>2023-08-10T08:21:17Z</time>
      </trkpt>
      <trkpt lat="49.82709" lon="2.30481">
        <ele>66.6</ele>
        <time>2023-08-10T08:21:18Z</time>
      </trkpt>
      <trkpt lat="49.82709" lon="2.3048">
        <ele>66.5</ele>
        <time>2023-08-10T08:21:19Z</time>
      </trkpt>
      <trkpt lat="49.82709" lon="2.30479">
        <ele>66.5</ele>
        <time>2023-08-10T08:21:20Z</time>
      </trkpt>
      <trkpt lat="49.82709" lon="2.30479">
        <ele>66.5</ele>
        <time>2023-08-10T08:21:21Z</time>
      </trkpt>
      <trkpt lat="49.82709" lon="2.30479">
        <ele>66.5</ele>
        <time>2023-08-10T08:21:22Z</time>
      </trkpt>
      <trkpt lat="49.82709" lon="2.30479">
        <ele>66.5</ele>
        <time>2023-08-10T08:21:23Z</time>
      </trkpt>
      <trkpt lat="49.82709" lon="2.30479">
        <ele>66.5</ele>
        <time>2023-08-10T08:21:25Z</time>
      </trkpt>
      <trkpt lat="49.82709" lon="2.30479">
        <ele>66.5</ele>
        <time>2023-08-10T08:21:26Z</time>
      </trkpt>
      <trkpt lat="49.8271" lon="2.30479">
        <ele>66.5</ele>
        <time>2023-08-10T08:21:28Z</time>
      </trkpt>
      <trkpt lat="49.8271" lon="2.30479">
        <ele>66.5</ele>
        <time>2023-08-10T08:21:29Z</time>
      </trkpt>
      <trkpt lat="49.8271" lon="2.30479">
        <ele>66.5</ele>
        <time>2023-08-10T08:21:31Z</time>
      </trkpt>
      <trkpt lat="49.8271" lon="2.30479">
        <ele>66.5</ele>
        <time>2023-08-10T08:21:32Z</time>
      </trkpt>
      <trkpt lat="49.8271" lon="2.30479">
        <ele>66.5</ele>
        <time>2023-08-10T08:21:33Z</time>
      </trkpt>
      <trkpt lat="49.8271" lon="2.30479">
        <ele>66.5</ele>
        <time>2023-08-10T08:21:35Z</time>
      </trkpt>
      <trkpt lat="49.8271" lon="2.30479">
        <ele>66.5</ele>
        <time>2023-08-10T08:21:36Z</time>
      </trkpt>
      <trkpt lat="49.8271" lon="2.30479">
        <ele>66.5</ele>
        <time>2023-08-10T08:21:38Z</time>
      </trkpt>
      <trkpt lat="49.82711" lon="2.30479">
        <ele>66.5</ele>
        <time>2023-08-10T08:21:39Z</time>
      </trkpt>
      <trkpt lat="49.82711" lon="2.30479">
        <ele>66.5</ele>
        <time>2023-08-10T08:21:41Z</time>
      </trkpt>
      <trkpt lat="49.82711" lon="2.30478">
        <ele>66.5</ele>
        <time>2023-08-10T08:21:42Z</time>
      </trkpt>
      <trkpt lat="49.82711" lon="2.30478">
        <ele>66.5</ele>
        <time>2023-08-10T08:21:43Z</time>
      </trkpt>
      <trkpt lat="49.82711" lon="2.30478">
        <ele>66.5</ele>
        <time>2023-08-10T08:21:44Z</time>
      </trkpt>
      <trkpt lat="49.82711" lon="2.30478">
        <ele>66.5</ele>
        <time>2023-08-10T08:21:45Z</time>
      </trkpt>
      <trkpt lat="49.82711" lon="2.30478">
        <ele>66.5</ele>
        <time>2023-08-10T08:21:46Z</time>
      </trkpt>
      <trkpt lat="49.82712" lon="2.30478">
        <ele>66.5</ele>
        <time>2023-08-10T08:21:47Z</time>
      </trkpt>
      <trkpt lat="49.82712" lon="2.30478">
        <ele>66.5</ele>
        <time>2023-08-10T08:21:48Z</time>
      </trkpt>
      <trkpt lat="49.82712" lon="2.30478">
        <ele>66.5</ele>
        <time>2023-08-10T08:21:49Z</time>
      </trkpt>
      <trkpt lat="49.82712" lon="2.30478">
        <ele>66.5</ele>
        <time>2023-08-10T08:21:50Z</time>
      </trkpt>
      <trkpt lat="49.82712" lon="2.30478">
        <ele>66.5</ele>
        <time>2023-08-10T08:21:51Z</time>
      </trkpt>
      <trkpt lat="49.82712" lon="2.30478">
        <ele>66.5</ele>
        <time>2023-08-10T08:21:52Z</time>
      </trkpt>
      <trkpt lat="49.82712" lon="2.30478">
        <ele>66.5</ele>
        <time>2023-08-10T08:21:53Z</time>
      </trkpt>
      <trkpt lat="49.82712" lon="2.30478">
        <ele>66.5</ele>
        <time>2023-08-10T08:21:54Z</time>
      </trkpt>
      <trkpt lat="49.82713" lon="2.30478">
        <ele>66.5</ele>
        <time>2023-08-10T08:21:55Z</time>
      </trkpt>
      <trkpt lat="49.82713" lon="2.30478">
        <ele>66.5</ele>
        <time>2023-08-10T08:21:56Z</time>
      </trkpt>
      <trkpt lat="49.82713" lon="2.30478">
        <ele>66.5</ele>
        <time>2023-08-10T08:21:57Z</time>
      </trkpt>
      <trkpt lat="49.82713" lon="2.30478">
        <ele>66.5</ele>
        <time>2023-08-10T08:21:58Z</time>
      </trkpt>
      <trkpt lat="49.82715" lon="2.30478">
        <ele>66.5</ele>
        <time>2023-08-10T08:21:59Z</time>
      </trkpt>
      <trkpt lat="49.82716" lon="2.30478">
        <ele>66.5</ele>
        <time>2023-08-10T08:22:00Z</time>
      </trkpt>
      <trkpt lat="49.82716" lon="2.30477">
        <ele>66.5</ele>
        <time>2023-08-10T08:22:01Z</time>
      </trkpt>
      <trkpt lat="49.82717" lon="2.30476">
        <ele>66.5</ele>
        <time>2023-08-10T08:22:02Z</time>
      </trkpt>
      <trkpt lat="49.82717" lon="2.30475">
        <ele>66.5</ele>
        <time>2023-08-10T08:22:03Z</time>
      </trkpt>
      <trkpt lat="49.82717" lon="2.30474">
        <ele>66.5</ele>
        <time>2023-08-10T08:22:04Z</time>
      </trkpt>
      <trkpt lat="49.82718" lon="2.30473">
        <ele>66.5</ele>
        <time>2023-08-10T08:22:05Z</time>
      </trkpt>
      <trkpt lat="49.82718" lon="2.30472">
        <ele>66.5</ele>
        <time>2023-08-10T08:22:06Z</time>
      </trkpt>
      <trkpt lat="49.82718" lon="2.30472">
        <ele>66.5</ele>
        <time>2023-08-10T08:22:07Z</time>
      </trkpt>
      <trkpt lat="49.82717" lon="2.30472">
        <ele>66.5</ele>
        <time>2023-08-10T08:22:08Z</time>
      </trkpt>
      <trkpt lat="49.82717" lon="2.30472">
        <ele>66.5</ele>
        <time>2023-08-10T08:22:09Z</time>
      </trkpt>
      <trkpt lat="49.82717" lon="2.30472">
        <ele>66.5</ele>
        <time>2023-08-10T08:22:10Z</time>
      </trkpt>
      <trkpt lat="49.82717" lon="2.30472">
        <ele>66.5</ele>
        <time>2023-08-10T08:22:11Z</time>
      </trkpt>
      <trkpt lat="49.82717" lon="2.30473">
        <ele>66.5</ele>
        <time>2023-08-10T08:22:12Z</time>
      </trkpt>
      <trkpt lat="49.82717" lon="2.30473">
        <ele>66.5</ele>
        <time>2023-08-10T08:22:13Z</time>
      </trkpt>
      <trkpt lat="49.82717" lon="2.30472">
        <ele>66.5</ele>
        <time>2023-08-10T08:22:15Z</time>
      </trkpt>
      <trkpt lat="49.82717" lon="2.30472">
        <ele>66.5</ele>
        <time>2023-08-10T08:22:16Z</time>
      </trkpt>
      <trkpt lat="49.82717" lon="2.30472">
        <ele>66.5</ele>
        <time>2023-08-10T08:22:17Z</time>
      </trkpt>
      <trkpt lat="49.82718" lon="2.30471">
        <ele>66.5</ele>
        <time>2023-08-10T08:22:18Z</time>
      </trkpt>
      <trkpt lat="49.82719" lon="2.3047">
        <ele>66.5</ele>
        <time>2023-08-10T08:22:19Z</time>
      </trkpt>
      <trkpt lat="49.82719" lon="2.30468">
        <ele>66.5</ele>
        <time>2023-08-10T08:22:20Z</time>
      </trkpt>
      <trkpt lat="49.82721" lon="2.30466">
        <ele>66.5</ele>
        <time>2023-08-10T08:22:21Z</time>
      </trkpt>
      <trkpt lat="49.82722" lon="2.30464">
        <ele>66.5</ele>
        <time>2023-08-10T08:22:23Z</time>
      </trkpt>
      <trkpt lat="49.82723" lon="2.30463">
        <ele>66.5</ele>
        <time>2023-08-10T08:22:24Z</time>
      </trkpt>
      <trkpt lat="49.82724" lon="2.30461">
        <ele>66.5</ele>
        <time>2023-08-10T08:22:25Z</time>
      </trkpt>
      <trkpt lat="49.82725" lon="2.30459">
        <ele>66.5</ele>
        <time>2023-08-10T08:22:26Z</time>
      </trkpt>
      <trkpt lat="49.82726" lon="2.30458">
        <ele>66.5</ele>
        <time>2023-08-10T08:22:27Z</time>
      </trkpt>
      <trkpt lat="49.82727" lon="2.30456">
        <ele>66.5</ele>
        <time>2023-08-10T08:22:28Z</time>
      </trkpt>
      <trkpt lat="49.82728" lon="2.30454">
        <ele>66.5</ele>
        <time>2023-08-10T08:22:29Z</time>
      </trkpt>
      <trkpt lat="49.82729" lon="2.30452">
        <ele>66.5</ele>
        <time>2023-08-10T08:22:30Z</time>
      </trkpt>
      <trkpt lat="49.8273" lon="2.3045">
        <ele>66.5</ele>
        <time>2023-08-10T08:22:32Z</time>
      </trkpt>
      <trkpt lat="49.82731" lon="2.30448">
        <ele>66.5</ele>
        <time>2023-08-10T08:22:33Z</time>
      </trkpt>
      <trkpt lat="49.82732" lon="2.30446">
        <ele>66.5</ele>
        <time>2023-08-10T08:22:34Z</time>
      </trkpt>
      <trkpt lat="49.82733" lon="2.30445">
        <ele>66.5</ele>
        <time>2023-08-10T08:22:35Z</time>
      </trkpt>
      <trkpt lat="49.82733" lon="2.30444">
        <ele>66.5</ele>
        <time>2023-08-10T08:22:36Z</time>
      </trkpt>
      <trkpt lat="49.82735" lon="2.30442">
        <ele>66.5</ele>
        <time>2023-08-10T08:22:37Z</time>
      </trkpt>
      <trkpt lat="49.82735" lon="2.30441">
        <ele>66.5</ele>
        <time>2023-08-10T08:22:38Z</time>
      </trkpt>
      <trkpt lat="49.82736" lon="2.3044">
        <ele>66.5</ele>
        <time>2023-08-10T08:22:39Z</time>
      </trkpt>
      <trkpt lat="49.82737" lon="2.30438">
        <ele>66.5</ele>
        <time>2023-08-10T08:22:41Z</time>
      </trkpt>
      <trkpt lat="49.82737" lon="2.30436">
        <ele>66.5</ele>
        <time>2023-08-10T08:22:42Z</time>
      </trkpt>
      <trkpt lat="49.82738" lon="2.30432">
        <ele>66.5</ele>
        <time>2023-08-10T08:22:43Z</time>
      </trkpt>
      <trkpt lat="49.82738" lon="2.30431">
        <ele>66.5</ele>
        <time>2023-08-10T08:22:44Z</time>
      </trkpt>
      <trkpt lat="49.82739" lon="2.3043">
        <ele>66.5</ele>
        <time>2023-08-10T08:22:45Z</time>
      </trkpt>
      <trkpt lat="49.82739" lon="2.30426">
        <ele>66.5</ele>
        <time>2023-08-10T08:22:46Z</time>
      </trkpt>
      <trkpt lat="49.82739" lon="2.30425">
        <ele>66.5</ele>
        <time>2023-08-10T08:22:47Z</time>
      </trkpt>
      <trkpt lat="49.82739" lon="2.30424">
        <ele>66.5</ele>
        <time>2023-08-10T08:22:48Z</time>
      </trkpt>
      <trkpt lat="49.8274" lon="2.3042">
        <ele>66.5</ele>
        <time>2023-08-10T08:22:49Z</time>
      </trkpt>
      <trkpt lat="49.8274" lon="2.30419">
        <ele>66.5</ele>
        <time>2023-08-10T08:22:51Z</time>
      </trkpt>
      <trkpt lat="49.82741" lon="2.30417">
        <ele>66.5</ele>
        <time>2023-08-10T08:22:52Z</time>
      </trkpt>
      <trkpt lat="49.82741" lon="2.30415">
        <ele>66.5</ele>
        <time>2023-08-10T08:22:53Z</time>
      </trkpt>
      <trkpt lat="49.82741" lon="2.30413">
        <ele>66.5</ele>
        <time>2023-08-10T08:22:54Z</time>
      </trkpt>
      <trkpt lat="49.82742" lon="2.30411">
        <ele>66.5</ele>
        <time>2023-08-10T08:22:55Z</time>
      </trkpt>
      <trkpt lat="49.82742" lon="2.3041">
        <ele>66.5</ele>
        <time>2023-08-10T08:22:56Z</time>
      </trkpt>
      <trkpt lat="49.82743" lon="2.30408">
        <ele>66.5</ele>
        <time>2023-08-10T08:22:58Z</time>
      </trkpt>
      <trkpt lat="49.82743" lon="2.30404">
        <ele>66.5</ele>
        <time>2023-08-10T08:22:59Z</time>
      </trkpt>
      <trkpt lat="49.82743" lon="2.30403">
        <ele>66.5</ele>
        <time>2023-08-10T08:23:00Z</time>
      </trkpt>
      <trkpt lat="49.82743" lon="2.30402">
        <ele>66.5</ele>
        <time>2023-08-10T08:23:01Z</time>
      </trkpt>
      <trkpt lat="49.82744" lon="2.304">
        <ele>66.5</ele>
        <time>2023-08-10T08:23:02Z</time>
      </trkpt>
      <trkpt lat="49.82744" lon="2.30397">
        <ele>66.5</ele>
        <time>2023-08-10T08:23:04Z</time>
      </trkpt>
      <trkpt lat="49.82744" lon="2.30395">
        <ele>66.6</ele>
        <time>2023-08-10T08:23:05Z</time>
      </trkpt>
      <trkpt lat="49.82745" lon="2.30393">
        <ele>66.6</ele>
        <time>2023-08-10T08:23:06Z</time>
      </trkpt>
      <trkpt lat="49.82745" lon="2.3039">
        <ele>66.6</ele>
        <time>2023-08-10T08:23:07Z</time>
      </trkpt>
      <trkpt lat="49.82746" lon="2.30389">
        <ele>66.6</ele>
        <time>2023-08-10T08:23:08Z</time>
      </trkpt>
      <trkpt lat="49.82746" lon="2.30388">
        <ele>66.6</ele>
        <time>2023-08-10T08:23:09Z</time>
      </trkpt>
      <trkpt lat="49.82746" lon="2.30386">
        <ele>66.6</ele>
        <time>2023-08-10T08:23:10Z</time>
      </trkpt>
      <trkpt lat="49.82746" lon="2.30384">
        <ele>66.6</ele>
        <time>2023-08-10T08:23:11Z</time>
      </trkpt>
      <trkpt lat="49.82747" lon="2.30381">
        <ele>66.6</ele>
        <time>2023-08-10T08:23:13Z</time>
      </trkpt>
      <trkpt lat="49.82747" lon="2.30379">
        <ele>66.6</ele>
        <time>2023-08-10T08:23:14Z</time>
      </trkpt>
      <trkpt lat="49.82747" lon="2.30377">
        <ele>66.6</ele>
        <time>2023-08-10T08:23:15Z</time>
      </trkpt>
      <trkpt lat="49.82748" lon="2.30375">
        <ele>66.6</ele>
        <time>2023-08-10T08:23:17Z</time>
      </trkpt>
      <trkpt lat="49.82748" lon="2.30373">
        <ele>66.6</ele>
        <time>2023-08-10T08:23:18Z</time>
      </trkpt>
      <trkpt lat="49.82749" lon="2.30371">
        <ele>66.6</ele>
        <time>2023-08-10T08:23:19Z</time>
      </trkpt>
      <trkpt lat="49.82749" lon="2.30368">
        <ele>66.6</ele>
        <time>2023-08-10T08:23:20Z</time>
      </trkpt>
      <trkpt lat="49.8275" lon="2.30367">
        <ele>66.6</ele>
        <time>2023-08-10T08:23:21Z</time>
      </trkpt>
      <trkpt lat="49.8275" lon="2.30365">
        <ele>66.6</ele>
        <time>2023-08-10T08:23:22Z</time>
      </trkpt>
      <trkpt lat="49.82751" lon="2.30362">
        <ele>66.5</ele>
        <time>2023-08-10T08:23:23Z</time>
      </trkpt>
      <trkpt lat="49.82751" lon="2.30361">
        <ele>66.5</ele>
        <time>2023-08-10T08:23:24Z</time>
      </trkpt>
      <trkpt lat="49.82751" lon="2.3036">
        <ele>66.5</ele>
        <time>2023-08-10T08:23:25Z</time>
      </trkpt>
      <trkpt lat="49.82752" lon="2.30358">
        <ele>66.5</ele>
        <time>2023-08-10T08:23:27Z</time>
      </trkpt>
      <trkpt lat="49.82752" lon="2.30355">
        <ele>66.5</ele>
        <time>2023-08-10T08:23:28Z</time>
      </trkpt>
      <trkpt lat="49.82752" lon="2.30354">
        <ele>66.5</ele>
        <time>2023-08-10T08:23:29Z</time>
      </trkpt>
      <trkpt lat="49.82753" lon="2.30352">
        <ele>66.5</ele>
        <time>2023-08-10T08:23:30Z</time>
      </trkpt>
      <trkpt lat="49.82753" lon="2.3035">
        <ele>66.5</ele>
        <time>2023-08-10T08:23:31Z</time>
      </trkpt>
      <trkpt lat="49.82754" lon="2.30347">
        <ele>66.5</ele>
        <time>2023-08-10T08:23:33Z</time>
      </trkpt>
      <trkpt lat="49.82755" lon="2.30346">
        <ele>66.5</ele>
        <time>2023-08-10T08:23:34Z</time>
      </trkpt>
      <trkpt lat="49.82755" lon="2.30345">
        <ele>66.5</ele>
        <time>2023-08-10T08:23:35Z</time>
      </trkpt>
      <trkpt lat="49.82756" lon="2.30342">
        <ele>66.5</ele>
        <time>2023-08-10T08:23:36Z</time>
      </trkpt>
      <trkpt lat="49.82757" lon="2.30341">
        <ele>66.5</ele>
        <time>2023-08-10T08:23:38Z</time>
      </trkpt>
      <trkpt lat="49.82758" lon="2.3034">
        <ele>66.5</ele>
        <time>2023-08-10T08:23:39Z</time>
      </trkpt>
      <trkpt lat="49.82758" lon="2.30339">
        <ele>66.5</ele>
        <time>2023-08-10T08:23:40Z</time>
      </trkpt>
      <trkpt lat="49.82759" lon="2.30338">
        <ele>66.5</ele>
        <time>2023-08-10T08:23:41Z</time>
      </trkpt>
      <trkpt lat="49.82759" lon="2.30336">
        <ele>66.4</ele>
        <time>2023-08-10T08:23:42Z</time>
      </trkpt>
      <trkpt lat="49.8276" lon="2.30332">
        <ele>66.4</ele>
        <time>2023-08-10T08:23:44Z</time>
      </trkpt>
      <trkpt lat="49.8276" lon="2.30331">
        <ele>66.4</ele>
        <time>2023-08-10T08:23:45Z</time>
      </trkpt>
      <trkpt lat="49.8276" lon="2.3033">
        <ele>66.4</ele>
        <time>2023-08-10T08:23:46Z</time>
      </trkpt>
      <trkpt lat="49.8276" lon="2.30328">
        <ele>66.4</ele>
        <time>2023-08-10T08:23:47Z</time>
      </trkpt>
      <trkpt lat="49.8276" lon="2.30327">
        <ele>66.4</ele>
        <time>2023-08-10T08:23:48Z</time>
      </trkpt>
      <trkpt lat="49.82761" lon="2.30325">
        <ele>66.4</ele>
        <time>2023-08-10T08:23:50Z</time>
      </trkpt>
      <trkpt lat="49.82761" lon="2.30323">
        <ele>66.4</ele>
        <time>2023-08-10T08:23:51Z</time>
      </trkpt>
      <trkpt lat="49.82761" lon="2.30321">
        <ele>66.3</ele>
        <time>2023-08-10T08:23:52Z</time>
      </trkpt>
      <trkpt lat="49.82762" lon="2.30319">
        <ele>66.3</ele>
        <time>2023-08-10T08:23:53Z</time>
      </trkpt>
      <trkpt lat="49.82762" lon="2.30318">
        <ele>66.3</ele>
        <time>2023-08-10T08:23:54Z</time>
      </trkpt>
      <trkpt lat="49.82763" lon="2.30316">
        <ele>66.3</ele>
        <time>2023-08-10T08:23:55Z</time>
      </trkpt>
      <trkpt lat="49.82763" lon="2.30314">
        <ele>66.3</ele>
        <time>2023-08-10T08:23:57Z</time>
      </trkpt>
      <trkpt lat="49.82763" lon="2.30312">
        <ele>66.3</ele>
        <time>2023-08-10T08:23:58Z</time>
      </trkpt>
      <trkpt lat="49.82764" lon="2.3031">
        <ele>66.2</ele>
        <time>2023-08-10T08:23:59Z</time>
      </trkpt>
      <trkpt lat="49.82764" lon="2.30308">
        <ele>66.2</ele>
        <time>2023-08-10T08:24:00Z</time>
      </trkpt>
      <trkpt lat="49.82765" lon="2.30305">
        <ele>66.2</ele>
        <time>2023-08-10T08:24:01Z</time>
      </trkpt>
      <trkpt lat="49.82765" lon="2.30304">
        <ele>66.2</ele>
        <time>2023-08-10T08:24:02Z</time>
      </trkpt>
      <trkpt lat="49.82765" lon="2.30303">
        <ele>66.2</ele>
        <time>2023-08-10T08:24:03Z</time>
      </trkpt>
      <trkpt lat="49.82766" lon="2.303">
        <ele>66.2</ele>
        <time>2023-08-10T08:24:04Z</time>
      </trkpt>
      <trkpt lat="49.82766" lon="2.30299">
        <ele>66.2</ele>
        <time>2023-08-10T08:24:05Z</time>
      </trkpt>
      <trkpt lat="49.82767" lon="2.30298">
        <ele>66.2</ele>
        <time>2023-08-10T08:24:06Z</time>
      </trkpt>
      <trkpt lat="49.82767" lon="2.30296">
        <ele>66.1</ele>
        <time>2023-08-10T08:24:08Z</time>
      </trkpt>
      <trkpt lat="49.82768" lon="2.30293">
        <ele>66.1</ele>
        <time>2023-08-10T08:24:09Z</time>
      </trkpt>
      <trkpt lat="49.82768" lon="2.30291">
        <ele>66.1</ele>
        <time>2023-08-10T08:24:10Z</time>
      </trkpt>
      <trkpt lat="49.82768" lon="2.30289">
        <ele>66.1</ele>
        <time>2023-08-10T08:24:11Z</time>
      </trkpt>
      <trkpt lat="49.82769" lon="2.30286">
        <ele>66.1</ele>
        <time>2023-08-10T08:24:13Z</time>
      </trkpt>
      <trkpt lat="49.82769" lon="2.30283">
        <ele>66.1</ele>
        <time>2023-08-10T08:24:14Z</time>
      </trkpt>
      <trkpt lat="49.82769" lon="2.30282">
        <ele>66.1</ele>
        <time>2023-08-10T08:24:15Z</time>
      </trkpt>
      <trkpt lat="49.8277" lon="2.30281">
        <ele>66.1</ele>
        <time>2023-08-10T08:24:16Z</time>
      </trkpt>
      <trkpt lat="49.8277" lon="2.30277">
        <ele>66.1</ele>
        <time>2023-08-10T08:24:18Z</time>
      </trkpt>
      <trkpt lat="49.8277" lon="2.30275">
        <ele>66</ele>
        <time>2023-08-10T08:24:19Z</time>
      </trkpt>
      <trkpt lat="49.8277" lon="2.30272">
        <ele>66</ele>
        <time>2023-08-10T08:24:20Z</time>
      </trkpt>
      <trkpt lat="49.8277" lon="2.30271">
        <ele>66</ele>
        <time>2023-08-10T08:24:22Z</time>
      </trkpt>
      <trkpt lat="49.82771" lon="2.30269">
        <ele>66</ele>
        <time>2023-08-10T08:24:23Z</time>
      </trkpt>
      <trkpt lat="49.82771" lon="2.30268">
        <ele>66</ele>
        <time>2023-08-10T08:24:24Z</time>
      </trkpt>
      <trkpt lat="49.82771" lon="2.30266">
        <ele>66</ele>
        <time>2023-08-10T08:24:25Z</time>
      </trkpt>
      <trkpt lat="49.82771" lon="2.30264">
        <ele>66</ele>
        <time>2023-08-10T08:24:26Z</time>
      </trkpt>
      <trkpt lat="49.82771" lon="2.30262">
        <ele>66</ele>
        <time>2023-08-10T08:24:27Z</time>
      </trkpt>
      <trkpt lat="49.82772" lon="2.30261">
        <ele>66</ele>
        <time>2023-08-10T08:24:28Z</time>
      </trkpt>
      <trkpt lat="49.82772" lon="2.30259">
        <ele>66</ele>
        <time>2023-08-10T08:24:30Z</time>
      </trkpt>
      <trkpt lat="49.82772" lon="2.30257">
        <ele>65.9</ele>
        <time>2023-08-10T08:24:31Z</time>
      </trkpt>
      <trkpt lat="49.82772" lon="2.30255">
        <ele>65.9</ele>
        <time>2023-08-10T08:24:32Z</time>
      </trkpt>
      <trkpt lat="49.82772" lon="2.30253">
        <ele>65.9</ele>
        <time>2023-08-10T08:24:33Z</time>
      </trkpt>
      <trkpt lat="49.82772" lon="2.30251">
        <ele>65.9</ele>
        <time>2023-08-10T08:24:34Z</time>
      </trkpt>
      <trkpt lat="49.82772" lon="2.3025">
        <ele>65.9</ele>
        <time>2023-08-10T08:24:35Z</time>
      </trkpt>
      <trkpt lat="49.82772" lon="2.30248">
        <ele>65.9</ele>
        <time>2023-08-10T08:24:36Z</time>
      </trkpt>
      <trkpt lat="49.82772" lon="2.30246">
        <ele>65.8</ele>
        <time>2023-08-10T08:24:37Z</time>
      </trkpt>
      <trkpt lat="49.82772" lon="2.30244">
        <ele>65.8</ele>
        <time>2023-08-10T08:24:38Z</time>
      </trkpt>
      <trkpt lat="49.82771" lon="2.30243">
        <ele>65.8</ele>
        <time>2023-08-10T08:24:40Z</time>
      </trkpt>
      <trkpt lat="49.82771" lon="2.30241">
        <ele>65.8</ele>
        <time>2023-08-10T08:24:41Z</time>
      </trkpt>
      <trkpt lat="49.82771" lon="2.30239">
        <ele>65.8</ele>
        <time>2023-08-10T08:24:42Z</time>
      </trkpt>
      <trkpt lat="49.82771" lon="2.30237">
        <ele>65.8</ele>
        <time>2023-08-10T08:24:43Z</time>
      </trkpt>
      <trkpt lat="49.82771" lon="2.30234">
        <ele>65.7</ele>
        <time>2023-08-10T08:24:44Z</time>
      </trkpt>
      <trkpt lat="49.82771" lon="2.30233">
        <ele>65.7</ele>
        <time>2023-08-10T08:24:45Z</time>
      </trkpt>
      <trkpt lat="49.82771" lon="2.30232">
        <ele>65.7</ele>
        <time>2023-08-10T08:24:46Z</time>
      </trkpt>
      <trkpt lat="49.82771" lon="2.3023">
        <ele>65.7</ele>
        <time>2023-08-10T08:24:47Z</time>
      </trkpt>
      <trkpt lat="49.82771" lon="2.30228">
        <ele>65.7</ele>
        <time>2023-08-10T08:24:48Z</time>
      </trkpt>
      <trkpt lat="49.82771" lon="2.30226">
        <ele>65.6</ele>
        <time>2023-08-10T08:24:50Z</time>
      </trkpt>
      <trkpt lat="49.82771" lon="2.30222">
        <ele>65.6</ele>
        <time>2023-08-10T08:24:51Z</time>
      </trkpt>
      <trkpt lat="49.82771" lon="2.30221">
        <ele>65.6</ele>
        <time>2023-08-10T08:24:52Z</time>
      </trkpt>
      <trkpt lat="49.82771" lon="2.3022">
        <ele>65.6</ele>
        <time>2023-08-10T08:24:53Z</time>
      </trkpt>
      <trkpt lat="49.82771" lon="2.30217">
        <ele>65.6</ele>
        <time>2023-08-10T08:24:54Z</time>
      </trkpt>
      <trkpt lat="49.82772" lon="2.30216">
        <ele>65.6</ele>
        <time>2023-08-10T08:24:55Z</time>
      </trkpt>
      <trkpt lat="49.82772" lon="2.30214">
        <ele>65.5</ele>
        <time>2023-08-10T08:24:56Z</time>
      </trkpt>
      <trkpt lat="49.82772" lon="2.30211">
        <ele>65.5</ele>
        <time>2023-08-10T08:24:58Z</time>
      </trkpt>
      <trkpt lat="49.82772" lon="2.3021">
        <ele>65.5</ele>
        <time>2023-08-10T08:24:59Z</time>
      </trkpt>
      <trkpt lat="49.82772" lon="2.30208">
        <ele>65.5</ele>
        <time>2023-08-10T08:25:00Z</time>
      </trkpt>
      <trkpt lat="49.82772" lon="2.30205">
        <ele>65.5</ele>
        <time>2023-08-10T08:25:01Z</time>
      </trkpt>
      <trkpt lat="49.82773" lon="2.30204">
        <ele>65.4</ele>
        <time>2023-08-10T08:25:03Z</time>
      </trkpt>
      <trkpt lat="49.82773" lon="2.30203">
        <ele>65.4</ele>
        <time>2023-08-10T08:25:04Z</time>
      </trkpt>
      <trkpt lat="49.82773" lon="2.30201">
        <ele>65.4</ele>
        <time>2023-08-10T08:25:05Z</time>
      </trkpt>
      <trkpt lat="49.82773" lon="2.30199">
        <ele>65.4</ele>
        <time>2023-08-10T08:25:06Z</time>
      </trkpt>
      <trkpt lat="49.82774" lon="2.30198">
        <ele>65.4</ele>
        <time>2023-08-10T08:25:07Z</time>
      </trkpt>
      <trkpt lat="49.82774" lon="2.30196">
        <ele>65.3</ele>
        <time>2023-08-10T08:25:08Z</time>
      </trkpt>
      <trkpt lat="49.82774" lon="2.30194">
        <ele>65.3</ele>
        <time>2023-08-10T08:25:09Z</time>
      </trkpt>
      <trkpt lat="49.82774" lon="2.30192">
        <ele>65.3</ele>
        <time>2023-08-10T08:25:10Z</time>
      </trkpt>
      <trkpt lat="49.82774" lon="2.3019">
        <ele>65.3</ele>
        <time>2023-08-10T08:25:11Z</time>
      </trkpt>
      <trkpt lat="49.82774" lon="2.30188">
        <ele>65.3</ele>
        <time>2023-08-10T08:25:13Z</time>
      </trkpt>
      <trkpt lat="49.82774" lon="2.30186">
        <ele>65.2</ele>
        <time>2023-08-10T08:25:14Z</time>
      </trkpt>
      <trkpt lat="49.82774" lon="2.30185">
        <ele>65.2</ele>
        <time>2023-08-10T08:25:15Z</time>
      </trkpt>
      <trkpt lat="49.82774" lon="2.30183">
        <ele>65.2</ele>
        <time>2023-08-10T08:25:16Z</time>
      </trkpt>
      <trkpt lat="49.82774" lon="2.30181">
        <ele>65.2</ele>
        <time>2023-08-10T08:25:17Z</time>
      </trkpt>
      <trkpt lat="49.82774" lon="2.30178">
        <ele>65.1</ele>
        <time>2023-08-10T08:25:19Z</time>
      </trkpt>
      <trkpt lat="49.82774" lon="2.30176">
        <ele>65.1</ele>
        <time>2023-08-10T08:25:20Z</time>
      </trkpt>
      <trkpt lat="49.82775" lon="2.30174">
        <ele>65.1</ele>
        <time>2023-08-10T08:25:21Z</time>
      </trkpt>
      <trkpt lat="49.82775" lon="2.30172">
        <ele>65.1</ele>
        <time>2023-08-10T08:25:23Z</time>
      </trkpt>
      <trkpt lat="49.82775" lon="2.3017">
        <ele>65.1</ele>
        <time>2023-08-10T08:25:24Z</time>
      </trkpt>
      <trkpt lat="49.82775" lon="2.30169">
        <ele>65</ele>
        <time>2023-08-10T08:25:25Z</time>
      </trkpt>
      <trkpt lat="49.82775" lon="2.30167">
        <ele>65</ele>
        <time>2023-08-10T08:25:26Z</time>
      </trkpt>
      <trkpt lat="49.82776" lon="2.30164">
        <ele>65</ele>
        <time>2023-08-10T08:25:27Z</time>
      </trkpt>
      <trkpt lat="49.82776" lon="2.30162">
        <ele>65</ele>
        <time>2023-08-10T08:25:28Z</time>
      </trkpt>
      <trkpt lat="49.82776" lon="2.30161">
        <ele>65</ele>
        <time>2023-08-10T08:25:29Z</time>
      </trkpt>
      <trkpt lat="49.82776" lon="2.30158">
        <ele>64.9</ele>
        <time>2023-08-10T08:25:30Z</time>
      </trkpt>
      <trkpt lat="49.82776" lon="2.30157">
        <ele>64.9</ele>
        <time>2023-08-10T08:25:31Z</time>
      </trkpt>
      <trkpt lat="49.82776" lon="2.30155">
        <ele>64.9</ele>
        <time>2023-08-10T08:25:32Z</time>
      </trkpt>
      <trkpt lat="49.82777" lon="2.30152">
        <ele>64.9</ele>
        <time>2023-08-10T08:25:33Z</time>
      </trkpt>
      <trkpt lat="49.82777" lon="2.30151">
        <ele>64.8</ele>
        <time>2023-08-10T08:25:34Z</time>
      </trkpt>
      <trkpt lat="49.82777" lon="2.3015">
        <ele>64.8</ele>
        <time>2023-08-10T08:25:35Z</time>
      </trkpt>
      <trkpt lat="49.82778" lon="2.30147">
        <ele>64.8</ele>
        <time>2023-08-10T08:25:37Z</time>
      </trkpt>
      <trkpt lat="49.82778" lon="2.30146">
        <ele>64.8</ele>
        <time>2023-08-10T08:25:38Z</time>
      </trkpt>
      <trkpt lat="49.82778" lon="2.30144">
        <ele>64.8</ele>
        <time>2023-08-10T08:25:39Z</time>
      </trkpt>
      <trkpt lat="49.82779" lon="2.30141">
        <ele>64.7</ele>
        <time>2023-08-10T08:25:40Z</time>
      </trkpt>
      <trkpt lat="49.8278" lon="2.3014">
        <ele>64.7</ele>
        <time>2023-08-10T08:25:41Z</time>
      </trkpt>
      <trkpt lat="49.8278" lon="2.30139">
        <ele>64.7</ele>
        <time>2023-08-10T08:25:42Z</time>
      </trkpt>
      <trkpt lat="49.82781" lon="2.30137">
        <ele>64.7</ele>
        <time>2023-08-10T08:25:43Z</time>
      </trkpt>
      <trkpt lat="49.82781" lon="2.30135">
        <ele>64.7</ele>
        <time>2023-08-10T08:25:44Z</time>
      </trkpt>
      <trkpt lat="49.82783" lon="2.30133">
        <ele>64.7</ele>
        <time>2023-08-10T08:25:46Z</time>
      </trkpt>
      <trkpt lat="49.82784" lon="2.30132">
        <ele>64.7</ele>
        <time>2023-08-10T08:25:47Z</time>
      </trkpt>
      <trkpt lat="49.82785" lon="2.30129">
        <ele>64.6</ele>
        <time>2023-08-10T08:25:48Z</time>
      </trkpt>
      <trkpt lat="49.82786" lon="2.30129">
        <ele>64.6</ele>
        <time>2023-08-10T08:25:49Z</time>
      </trkpt>
      <trkpt lat="49.82786" lon="2.30128">
        <ele>64.6</ele>
        <time>2023-08-10T08:25:50Z</time>
      </trkpt>
      <trkpt lat="49.82787" lon="2.30126">
        <ele>64.6</ele>
        <time>2023-08-10T08:25:51Z</time>
      </trkpt>
      <trkpt lat="49.82788" lon="2.30124">
        <ele>64.6</ele>
        <time>2023-08-10T08:25:52Z</time>
      </trkpt>
      <trkpt lat="49.82788" lon="2.30122">
        <ele>64.6</ele>
        <time>2023-08-10T08:25:54Z</time>
      </trkpt>
      <trkpt lat="49.82788" lon="2.30119">
        <ele>64.6</ele>
        <time>2023-08-10T08:25:55Z</time>
      </trkpt>
      <trkpt lat="49.82789" lon="2.30118">
        <ele>64.6</ele>
        <time>2023-08-10T08:25:56Z</time>
      </trkpt>
      <trkpt lat="49.82789" lon="2.30116">
        <ele>64.5</ele>
        <time>2023-08-10T08:25:57Z</time>
      </trkpt>
      <trkpt lat="49.82789" lon="2.30113">
        <ele>64.5</ele>
        <time>2023-08-10T08:25:58Z</time>
      </trkpt>
      <trkpt lat="49.82789" lon="2.30112">
        <ele>64.5</ele>
        <time>2023-08-10T08:25:59Z</time>
      </trkpt>
      <trkpt lat="49.82789" lon="2.30111">
        <ele>64.5</ele>
        <time>2023-08-10T08:26:00Z</time>
      </trkpt>
      <trkpt lat="49.82789" lon="2.30107">
        <ele>64.5</ele>
        <time>2023-08-10T08:26:01Z</time>
      </trkpt>
      <trkpt lat="49.82789" lon="2.30106">
        <ele>64.5</ele>
        <time>2023-08-10T08:26:02Z</time>
      </trkpt>
      <trkpt lat="49.82789" lon="2.30105">
        <ele>64.5</ele>
        <time>2023-08-10T08:26:03Z</time>
      </trkpt>
      <trkpt lat="49.82789" lon="2.30103">
        <ele>64.5</ele>
        <time>2023-08-10T08:26:04Z</time>
      </trkpt>
      <trkpt lat="49.82789" lon="2.30101">
        <ele>64.4</ele>
        <time>2023-08-10T08:26:05Z</time>
      </trkpt>
      <trkpt lat="49.82789" lon="2.30099">
        <ele>64.4</ele>
        <time>2023-08-10T08:26:07Z</time>
      </trkpt>
      <trkpt lat="49.82789" lon="2.30096">
        <ele>64.4</ele>
        <time>2023-08-10T08:26:08Z</time>
      </trkpt>
      <trkpt lat="49.8279" lon="2.30095">
        <ele>64.4</ele>
        <time>2023-08-10T08:26:09Z</time>
      </trkpt>
      <trkpt lat="49.8279" lon="2.30093">
        <ele>64.4</ele>
        <time>2023-08-10T08:26:10Z</time>
      </trkpt>
      <trkpt lat="49.8279" lon="2.3009">
        <ele>64.3</ele>
        <time>2023-08-10T08:26:11Z</time>
      </trkpt>
      <trkpt lat="49.8279" lon="2.30089">
        <ele>64.3</ele>
        <time>2023-08-10T08:26:12Z</time>
      </trkpt>
      <trkpt lat="49.8279" lon="2.30087">
        <ele>64.3</ele>
        <time>2023-08-10T08:26:13Z</time>
      </trkpt>
      <trkpt lat="49.82791" lon="2.30084">
        <ele>64.3</ele>
        <time>2023-08-10T08:26:14Z</time>
      </trkpt>
      <trkpt lat="49.82792" lon="2.30083">
        <ele>64.3</ele>
        <time>2023-08-10T08:26:15Z</time>
      </trkpt>
      <trkpt lat="49.82792" lon="2.30082">
        <ele>64.3</ele>
        <time>2023-08-10T08:26:16Z</time>
      </trkpt>
      <trkpt lat="49.82793" lon="2.3008">
        <ele>64.3</ele>
        <time>2023-08-10T08:26:17Z</time>
      </trkpt>
      <trkpt lat="49.82793" lon="2.30077">
        <ele>64.2</ele>
        <time>2023-08-10T08:26:19Z</time>
      </trkpt>
      <trkpt lat="49.82794" lon="2.30075">
        <ele>64.2</ele>
        <time>2023-08-10T08:26:20Z</time>
      </trkpt>
      <trkpt lat="49.82795" lon="2.30073">
        <ele>64.2</ele>
        <time>2023-08-10T08:26:21Z</time>
      </trkpt>
      <trkpt lat="49.82795" lon="2.30071">
        <ele>64.2</ele>
        <time>2023-08-10T08:26:22Z</time>
      </trkpt>
      <trkpt lat="49.82796" lon="2.30069">
        <ele>64.2</ele>
        <time>2023-08-10T08:26:23Z</time>
      </trkpt>
      <trkpt lat="49.82796" lon="2.30066">
        <ele>64.2</ele>
        <time>2023-08-10T08:26:25Z</time>
      </trkpt>
      <trkpt lat="49.82797" lon="2.30064">
        <ele>64.2</ele>
        <time>2023-08-10T08:26:26Z</time>
      </trkpt>
      <trkpt lat="49.82797" lon="2.30062">
        <ele>64.1</ele>
        <time>2023-08-10T08:26:27Z</time>
      </trkpt>
      <trkpt lat="49.82798" lon="2.3006">
        <ele>64.1</ele>
        <time>2023-08-10T08:26:28Z</time>
      </trkpt>
      <trkpt lat="49.82798" lon="2.30058">
        <ele>64.1</ele>
        <time>2023-08-10T08:26:29Z</time>
      </trkpt>
      <trkpt lat="49.82798" lon="2.30055">
        <ele>64.1</ele>
        <time>2023-08-10T08:26:30Z</time>
      </trkpt>
      <trkpt lat="49.82799" lon="2.30052">
        <ele>64.1</ele>
        <time>2023-08-10T08:26:31Z</time>
      </trkpt>
      <trkpt lat="49.82799" lon="2.30051">
        <ele>64.1</ele>
        <time>2023-08-10T08:26:33Z</time>
      </trkpt>
      <trkpt lat="49.82799" lon="2.30049">
        <ele>64.1</ele>
        <time>2023-08-10T08:26:34Z</time>
      </trkpt>
      <trkpt lat="49.82799" lon="2.30046">
        <ele>64</ele>
        <time>2023-08-10T08:26:35Z</time>
      </trkpt>
      <trkpt lat="49.82799" lon="2.30045">
        <ele>64</ele>
        <time>2023-08-10T08:26:36Z</time>
      </trkpt>
      <trkpt lat="49.82799" lon="2.30043">
        <ele>64</ele>
        <time>2023-08-10T08:26:37Z</time>
      </trkpt>
      <trkpt lat="49.82799" lon="2.30041">
        <ele>64</ele>
        <time>2023-08-10T08:26:38Z</time>
      </trkpt>
      <trkpt lat="49.828" lon="2.30038">
        <ele>64</ele>
        <time>2023-08-10T08:26:39Z</time>
      </trkpt>
      <trkpt lat="49.828" lon="2.30035">
        <ele>64</ele>
        <time>2023-08-10T08:26:41Z</time>
      </trkpt>
      <trkpt lat="49.828" lon="2.30034">
        <ele>64</ele>
        <time>2023-08-10T08:26:42Z</time>
      </trkpt>
      <trkpt lat="49.828" lon="2.30033">
        <ele>64</ele>
        <time>2023-08-10T08:26:43Z</time>
      </trkpt>
      <trkpt lat="49.828" lon="2.30031">
        <ele>64</ele>
        <time>2023-08-10T08:26:44Z</time>
      </trkpt>
      <trkpt lat="49.828" lon="2.30029">
        <ele>63.9</ele>
        <time>2023-08-10T08:26:45Z</time>
      </trkpt>
      <trkpt lat="49.82801" lon="2.30028">
        <ele>63.9</ele>
        <time>2023-08-10T08:26:46Z</time>
      </trkpt>
      <trkpt lat="49.82801" lon="2.30026">
        <ele>63.9</ele>
        <time>2023-08-10T08:26:47Z</time>
      </trkpt>
      <trkpt lat="49.82801" lon="2.30024">
        <ele>63.9</ele>
        <time>2023-08-10T08:26:48Z</time>
      </trkpt>
      <trkpt lat="49.82801" lon="2.30022">
        <ele>63.9</ele>
        <time>2023-08-10T08:26:50Z</time>
      </trkpt>
      <trkpt lat="49.82801" lon="2.3002">
        <ele>63.9</ele>
        <time>2023-08-10T08:26:51Z</time>
      </trkpt>
      <trkpt lat="49.82801" lon="2.30018">
        <ele>63.9</ele>
        <time>2023-08-10T08:26:52Z</time>
      </trkpt>
      <trkpt lat="49.82801" lon="2.30017">
        <ele>63.9</ele>
        <time>2023-08-10T08:26:53Z</time>
      </trkpt>
      <trkpt lat="49.82802" lon="2.30015">
        <ele>63.9</ele>
        <time>2023-08-10T08:26:54Z</time>
      </trkpt>
      <trkpt lat="49.82802" lon="2.30013">
        <ele>63.8</ele>
        <time>2023-08-10T08:26:55Z</time>
      </trkpt>
      <trkpt lat="49.82802" lon="2.30011">
        <ele>63.8</ele>
        <time>2023-08-10T08:26:57Z</time>
      </trkpt>
      <trkpt lat="49.82802" lon="2.30009">
        <ele>63.8</ele>
        <time>2023-08-10T08:26:58Z</time>
      </trkpt>
      <trkpt lat="49.82802" lon="2.30007">
        <ele>63.8</ele>
        <time>2023-08-10T08:27:00Z</time>
      </trkpt>
      <trkpt lat="49.82803" lon="2.30006">
        <ele>63.8</ele>
        <time>2023-08-10T08:27:01Z</time>
      </trkpt>
      <trkpt lat="49.82803" lon="2.30004">
        <ele>63.8</ele>
        <time>2023-08-10T08:27:02Z</time>
      </trkpt>
      <trkpt lat="49.82803" lon="2.30002">
        <ele>63.8</ele>
        <time>2023-08-10T08:27:03Z</time>
      </trkpt>
      <trkpt lat="49.82804" lon="2.3">
        <ele>63.7</ele>
        <time>2023-08-10T08:27:05Z</time>
      </trkpt>
      <trkpt lat="49.82804" lon="2.29998">
        <ele>63.7</ele>
        <time>2023-08-10T08:27:06Z</time>
      </trkpt>
      <trkpt lat="49.82804" lon="2.29997">
        <ele>63.7</ele>
        <time>2023-08-10T08:27:07Z</time>
      </trkpt>
      <trkpt lat="49.82805" lon="2.29995">
        <ele>63.7</ele>
        <time>2023-08-10T08:27:08Z</time>
      </trkpt>
      <trkpt lat="49.82805" lon="2.29993">
        <ele>63.7</ele>
        <time>2023-08-10T08:27:09Z</time>
      </trkpt>
      <trkpt lat="49.82805" lon="2.29991">
        <ele>63.7</ele>
        <time>2023-08-10T08:27:10Z</time>
      </trkpt>
      <trkpt lat="49.82806" lon="2.29989">
        <ele>63.7</ele>
        <time>2023-08-10T08:27:12Z</time>
      </trkpt>
      <trkpt lat="49.82806" lon="2.29987">
        <ele>63.7</ele>
        <time>2023-08-10T08:27:13Z</time>
      </trkpt>
      <trkpt lat="49.82806" lon="2.29985">
        <ele>63.6</ele>
        <time>2023-08-10T08:27:14Z</time>
      </trkpt>
      <trkpt lat="49.82806" lon="2.29984">
        <ele>63.6</ele>
        <time>2023-08-10T08:27:15Z</time>
      </trkpt>
      <trkpt lat="49.82807" lon="2.29982">
        <ele>63.6</ele>
        <time>2023-08-10T08:27:16Z</time>
      </trkpt>
      <trkpt lat="49.82807" lon="2.2998">
        <ele>63.6</ele>
        <time>2023-08-10T08:27:17Z</time>
      </trkpt>
      <trkpt lat="49.82808" lon="2.29978">
        <ele>63.6</ele>
        <time>2023-08-10T08:27:18Z</time>
      </trkpt>
      <trkpt lat="49.82808" lon="2.29975">
        <ele>63.6</ele>
        <time>2023-08-10T08:27:20Z</time>
      </trkpt>
      <trkpt lat="49.82809" lon="2.29974">
        <ele>63.6</ele>
        <time>2023-08-10T08:27:21Z</time>
      </trkpt>
      <trkpt lat="49.82809" lon="2.29973">
        <ele>63.6</ele>
        <time>2023-08-10T08:27:22Z</time>
      </trkpt>
      <trkpt lat="49.82809" lon="2.29971">
        <ele>63.5</ele>
        <time>2023-08-10T08:27:23Z</time>
      </trkpt>
      <trkpt lat="49.8281" lon="2.2997">
        <ele>63.5</ele>
        <time>2023-08-10T08:27:24Z</time>
      </trkpt>
      <trkpt lat="49.82811" lon="2.29968">
        <ele>63.5</ele>
        <time>2023-08-10T08:27:25Z</time>
      </trkpt>
      <trkpt lat="49.82812" lon="2.29966">
        <ele>63.5</ele>
        <time>2023-08-10T08:27:26Z</time>
      </trkpt>
      <trkpt lat="49.82812" lon="2.29965">
        <ele>63.5</ele>
        <time>2023-08-10T08:27:28Z</time>
      </trkpt>
      <trkpt lat="49.82813" lon="2.29964">
        <ele>63.5</ele>
        <time>2023-08-10T08:27:29Z</time>
      </trkpt>
      <trkpt lat="49.82814" lon="2.29962">
        <ele>63.4</ele>
        <time>2023-08-10T08:27:30Z</time>
      </trkpt>
      <trkpt lat="49.82815" lon="2.2996">
        <ele>63.4</ele>
        <time>2023-08-10T08:27:31Z</time>
      </trkpt>
      <trkpt lat="49.82815" lon="2.29959">
        <ele>63.4</ele>
        <time>2023-08-10T08:27:32Z</time>
      </trkpt>
      <trkpt lat="49.82817" lon="2.29957">
        <ele>63.4</ele>
        <time>2023-08-10T08:27:34Z</time>
      </trkpt>
      <trkpt lat="49.82817" lon="2.29955">
        <ele>63.4</ele>
        <time>2023-08-10T08:27:35Z</time>
      </trkpt>
      <trkpt lat="49.82818" lon="2.29954">
        <ele>63.3</ele>
        <time>2023-08-10T08:27:36Z</time>
      </trkpt>
      <trkpt lat="49.82819" lon="2.29952">
        <ele>63.3</ele>
        <time>2023-08-10T08:27:38Z</time>
      </trkpt>
      <trkpt lat="49.82819" lon="2.2995">
        <ele>63.3</ele>
        <time>2023-08-10T08:27:39Z</time>
      </trkpt>
      <trkpt lat="49.8282" lon="2.29948">
        <ele>63.3</ele>
        <time>2023-08-10T08:27:40Z</time>
      </trkpt>
      <trkpt lat="49.82821" lon="2.29945">
        <ele>63.2</ele>
        <time>2023-08-10T08:27:41Z</time>
      </trkpt>
      <trkpt lat="49.82822" lon="2.29944">
        <ele>63.2</ele>
        <time>2023-08-10T08:27:42Z</time>
      </trkpt>
      <trkpt lat="49.82822" lon="2.29943">
        <ele>63.2</ele>
        <time>2023-08-10T08:27:43Z</time>
      </trkpt>
      <trkpt lat="49.82824" lon="2.2994">
        <ele>63.1</ele>
        <time>2023-08-10T08:27:44Z</time>
      </trkpt>
      <trkpt lat="49.82824" lon="2.29939">
        <ele>63.1</ele>
        <time>2023-08-10T08:27:45Z</time>
      </trkpt>
      <trkpt lat="49.82825" lon="2.29938">
        <ele>63.1</ele>
        <time>2023-08-10T08:27:46Z</time>
      </trkpt>
      <trkpt lat="49.82826" lon="2.29935">
        <ele>63</ele>
        <time>2023-08-10T08:27:47Z</time>
      </trkpt>
      <trkpt lat="49.82827" lon="2.29933">
        <ele>63</ele>
        <time>2023-08-10T08:27:49Z</time>
      </trkpt>
      <trkpt lat="49.82827" lon="2.29932">
        <ele>63</ele>
        <time>2023-08-10T08:27:50Z</time>
      </trkpt>
      <trkpt lat="49.82828" lon="2.2993">
        <ele>63</ele>
        <time>2023-08-10T08:27:51Z</time>
      </trkpt>
      <trkpt lat="49.82828" lon="2.29929">
        <ele>62.9</ele>
        <time>2023-08-10T08:27:52Z</time>
      </trkpt>
      <trkpt lat="49.82828" lon="2.29927">
        <ele>62.9</ele>
        <time>2023-08-10T08:27:53Z</time>
      </trkpt>
      <trkpt lat="49.82829" lon="2.29926">
        <ele>62.9</ele>
        <time>2023-08-10T08:27:54Z</time>
      </trkpt>
      <trkpt lat="49.82829" lon="2.29924">
        <ele>62.9</ele>
        <time>2023-08-10T08:27:55Z</time>
      </trkpt>
      <trkpt lat="49.8283" lon="2.29921">
        <ele>62.8</ele>
        <time>2023-08-10T08:27:56Z</time>
      </trkpt>
      <trkpt lat="49.8283" lon="2.2992">
        <ele>62.8</ele>
        <time>2023-08-10T08:27:58Z</time>
      </trkpt>
      <trkpt lat="49.8283" lon="2.29919">
        <ele>62.8</ele>
        <time>2023-08-10T08:27:59Z</time>
      </trkpt>
      <trkpt lat="49.82831" lon="2.29917">
        <ele>62.8</ele>
        <time>2023-08-10T08:28:00Z</time>
      </trkpt>
      <trkpt lat="49.82831" lon="2.29915">
        <ele>62.8</ele>
        <time>2023-08-10T08:28:01Z</time>
      </trkpt>
      <trkpt lat="49.82832" lon="2.29914">
        <ele>62.7</ele>
        <time>2023-08-10T08:28:02Z</time>
      </trkpt>
      <trkpt lat="49.82832" lon="2.29912">
        <ele>62.7</ele>
        <time>2023-08-10T08:28:03Z</time>
      </trkpt>
      <trkpt lat="49.82832" lon="2.29911">
        <ele>62.7</ele>
        <time>2023-08-10T08:28:04Z</time>
      </trkpt>
      <trkpt lat="49.82832" lon="2.29908">
        <ele>62.7</ele>
        <time>2023-08-10T08:28:06Z</time>
      </trkpt>
      <trkpt lat="49.82833" lon="2.29905">
        <ele>62.6</ele>
        <time>2023-08-10T08:28:07Z</time>
      </trkpt>
      <trkpt lat="49.82833" lon="2.29904">
        <ele>62.6</ele>
        <time>2023-08-10T08:28:09Z</time>
      </trkpt>
      <trkpt lat="49.82833" lon="2.29902">
        <ele>62.6</ele>
        <time>2023-08-10T08:28:10Z</time>
      </trkpt>
      <trkpt lat="49.82834" lon="2.29899">
        <ele>62.5</ele>
        <time>2023-08-10T08:28:11Z</time>
      </trkpt>
      <trkpt lat="49.82834" lon="2.29898">
        <ele>62.5</ele>
        <time>2023-08-10T08:28:12Z</time>
      </trkpt>
      <trkpt lat="49.82834" lon="2.29897">
        <ele>62.5</ele>
        <time>2023-08-10T08:28:13Z</time>
      </trkpt>
      <trkpt lat="49.82835" lon="2.29896">
        <ele>62.5</ele>
        <time>2023-08-10T08:28:14Z</time>
      </trkpt>
      <trkpt lat="49.82835" lon="2.29894">
        <ele>62.5</ele>
        <time>2023-08-10T08:28:15Z</time>
      </trkpt>
      <trkpt lat="49.82836" lon="2.29893">
        <ele>62.4</ele>
        <time>2023-08-10T08:28:16Z</time>
      </trkpt>
      <trkpt lat="49.82836" lon="2.29891">
        <ele>62.4</ele>
        <time>2023-08-10T08:28:17Z</time>
      </trkpt>
      <trkpt lat="49.82837" lon="2.2989">
        <ele>62.4</ele>
        <time>2023-08-10T08:28:18Z</time>
      </trkpt>
      <trkpt lat="49.82838" lon="2.29888">
        <ele>62.4</ele>
        <time>2023-08-10T08:28:19Z</time>
      </trkpt>
      <trkpt lat="49.82839" lon="2.29885">
        <ele>62.3</ele>
        <time>2023-08-10T08:28:20Z</time>
      </trkpt>
      <trkpt lat="49.8284" lon="2.29884">
        <ele>62.3</ele>
        <time>2023-08-10T08:28:22Z</time>
      </trkpt>
      <trkpt lat="49.82841" lon="2.29883">
        <ele>62.3</ele>
        <time>2023-08-10T08:28:23Z</time>
      </trkpt>
      <trkpt lat="49.82841" lon="2.29882">
        <ele>62.2</ele>
        <time>2023-08-10T08:28:24Z</time>
      </trkpt>
      <trkpt lat="49.82842" lon="2.2988">
        <ele>62.2</ele>
        <time>2023-08-10T08:28:25Z</time>
      </trkpt>
      <trkpt lat="49.82843" lon="2.29879">
        <ele>62.2</ele>
        <time>2023-08-10T08:28:27Z</time>
      </trkpt>
      <trkpt lat="49.82844" lon="2.29877">
        <ele>62.1</ele>
        <time>2023-08-10T08:28:28Z</time>
      </trkpt>
      <trkpt lat="49.82845" lon="2.29875">
        <ele>62.1</ele>
        <time>2023-08-10T08:28:29Z</time>
      </trkpt>
      <trkpt lat="49.82847" lon="2.29874">
        <ele>62.1</ele>
        <time>2023-08-10T08:28:30Z</time>
      </trkpt>
      <trkpt lat="49.82848" lon="2.29872">
        <ele>62.1</ele>
        <time>2023-08-10T08:28:31Z</time>
      </trkpt>
      <trkpt lat="49.82849" lon="2.2987">
        <ele>62</ele>
        <time>2023-08-10T08:28:33Z</time>
      </trkpt>
      <trkpt lat="49.8285" lon="2.29868">
        <ele>62</ele>
        <time>2023-08-10T08:28:34Z</time>
      </trkpt>
      <trkpt lat="49.82851" lon="2.29867">
        <ele>62</ele>
        <time>2023-08-10T08:28:35Z</time>
      </trkpt>
      <trkpt lat="49.82853" lon="2.29866">
        <ele>62</ele>
        <time>2023-08-10T08:28:36Z</time>
      </trkpt>
      <trkpt lat="49.82855" lon="2.29865">
        <ele>62</ele>
        <time>2023-08-10T08:28:38Z</time>
      </trkpt>
      <trkpt lat="49.82856" lon="2.29863">
        <ele>61.9</ele>
        <time>2023-08-10T08:28:39Z</time>
      </trkpt>
      <trkpt lat="49.82857" lon="2.29863">
        <ele>61.9</ele>
        <time>2023-08-10T08:28:40Z</time>
      </trkpt>
      <trkpt lat="49.82859" lon="2.29862">
        <ele>61.9</ele>
        <time>2023-08-10T08:28:41Z</time>
      </trkpt>
      <trkpt lat="49.8286" lon="2.2986">
        <ele>61.8</ele>
        <time>2023-08-10T08:28:42Z</time>
      </trkpt>
      <trkpt lat="49.82861" lon="2.29859">
        <ele>61.8</ele>
        <time>2023-08-10T08:28:43Z</time>
      </trkpt>
      <trkpt lat="49.82862" lon="2.29858">
        <ele>61.8</ele>
        <time>2023-08-10T08:28:44Z</time>
      </trkpt>
      <trkpt lat="49.82864" lon="2.29855">
        <ele>61.8</ele>
        <time>2023-08-10T08:28:45Z</time>
      </trkpt>
      <trkpt lat="49.82865" lon="2.29855">
        <ele>61.7</ele>
        <time>2023-08-10T08:28:47Z</time>
      </trkpt>
      <trkpt lat="49.82865" lon="2.29854">
        <ele>61.7</ele>
        <time>2023-08-10T08:28:48Z</time>
      </trkpt>
      <trkpt lat="49.82866" lon="2.29852">
        <ele>61.7</ele>
        <time>2023-08-10T08:28:49Z</time>
      </trkpt>
      <trkpt lat="49.82867" lon="2.29851">
        <ele>61.7</ele>
        <time>2023-08-10T08:28:50Z</time>
      </trkpt>
      <trkpt lat="49.82868" lon="2.29849">
        <ele>61.7</ele>
        <time>2023-08-10T08:28:51Z</time>
      </trkpt>
      <trkpt lat="49.82869" lon="2.29847">
        <ele>61.6</ele>
        <time>2023-08-10T08:28:53Z</time>
      </trkpt>
      <trkpt lat="49.82869" lon="2.29845">
        <ele>61.6</ele>
        <time>2023-08-10T08:28:54Z</time>
      </trkpt>
      <trkpt lat="49.8287" lon="2.29843">
        <ele>61.6</ele>
        <time>2023-08-10T08:28:55Z</time>
      </trkpt>
      <trkpt lat="49.82871" lon="2.2984">
        <ele>61.5</ele>
        <time>2023-08-10T08:28:56Z</time>
      </trkpt>
      <trkpt lat="49.82872" lon="2.29839">
        <ele>61.5</ele>
        <time>2023-08-10T08:28:57Z</time>
      </trkpt>
      <trkpt lat="49.82872" lon="2.29838">
        <ele>61.5</ele>
        <time>2023-08-10T08:28:58Z</time>
      </trkpt>
      <trkpt lat="49.82873" lon="2.29837">
        <ele>61.5</ele>
        <time>2023-08-10T08:28:59Z</time>
      </trkpt>
      <trkpt lat="49.82874" lon="2.29836">
        <ele>61.5</ele>
        <time>2023-08-10T08:29:00Z</time>
      </trkpt>
      <trkpt lat="49.82875" lon="2.29834">
        <ele>61.5</ele>
        <time>2023-08-10T08:29:02Z</time>
      </trkpt>
      <trkpt lat="49.82875" lon="2.29833">
        <ele>61.5</ele>
        <time>2023-08-10T08:29:03Z</time>
      </trkpt>
      <trkpt lat="49.82876" lon="2.29832">
        <ele>61.5</ele>
        <time>2023-08-10T08:29:04Z</time>
      </trkpt>
      <trkpt lat="49.82877" lon="2.29831">
        <ele>61.4</ele>
        <time>2023-08-10T08:29:05Z</time>
      </trkpt>
      <trkpt lat="49.82878" lon="2.2983">
        <ele>61.4</ele>
        <time>2023-08-10T08:29:06Z</time>
      </trkpt>
      <trkpt lat="49.82879" lon="2.29829">
        <ele>61.4</ele>
        <time>2023-08-10T08:29:07Z</time>
      </trkpt>
      <trkpt lat="49.8288" lon="2.29828">
        <ele>61.4</ele>
        <time>2023-08-10T08:29:08Z</time>
      </trkpt>
      <trkpt lat="49.82882" lon="2.29826">
        <ele>61.4</ele>
        <time>2023-08-10T08:29:10Z</time>
      </trkpt>
      <trkpt lat="49.82883" lon="2.29825">
        <ele>61.4</ele>
        <time>2023-08-10T08:29:11Z</time>
      </trkpt>
      <trkpt lat="49.82884" lon="2.29824">
        <ele>61.4</ele>
        <time>2023-08-10T08:29:12Z</time>
      </trkpt>
      <trkpt lat="49.82885" lon="2.29823">
        <ele>61.4</ele>
        <time>2023-08-10T08:29:13Z</time>
      </trkpt>
      <trkpt lat="49.82886" lon="2.29822">
        <ele>61.4</ele>
        <time>2023-08-10T08:29:15Z</time>
      </trkpt>
      <trkpt lat="49.82888" lon="2.29819">
        <ele>61.3</ele>
        <time>2023-08-10T08:29:16Z</time>
      </trkpt>
      <trkpt lat="49.82888" lon="2.29819">
        <ele>61.3</ele>
        <time>2023-08-10T08:29:17Z</time>
      </trkpt>
      <trkpt lat="49.82889" lon="2.29818">
        <ele>61.3</ele>
        <time>2023-08-10T08:29:18Z</time>
      </trkpt>
      <trkpt lat="49.8289" lon="2.29817">
        <ele>61.3</ele>
        <time>2023-08-10T08:29:19Z</time>
      </trkpt>
      <trkpt lat="49.82892" lon="2.29815">
        <ele>61.3</ele>
        <time>2023-08-10T08:29:21Z</time>
      </trkpt>
      <trkpt lat="49.82893" lon="2.29814">
        <ele>61.3</ele>
        <time>2023-08-10T08:29:22Z</time>
      </trkpt>
      <trkpt lat="49.82894" lon="2.29812">
        <ele>61.3</ele>
        <time>2023-08-10T08:29:24Z</time>
      </trkpt>
      <trkpt lat="49.82894" lon="2.29811">
        <ele>61.3</ele>
        <time>2023-08-10T08:29:25Z</time>
      </trkpt>
      <trkpt lat="49.82896" lon="2.29809">
        <ele>61.3</ele>
        <time>2023-08-10T08:29:26Z</time>
      </trkpt>
      <trkpt lat="49.82897" lon="2.29809">
        <ele>61.3</ele>
        <time>2023-08-10T08:29:27Z</time>
      </trkpt>
      <trkpt lat="49.82897" lon="2.29808">
        <ele>61.3</ele>
        <time>2023-08-10T08:29:28Z</time>
      </trkpt>
      <trkpt lat="49.82898" lon="2.29807">
        <ele>61.3</ele>
        <time>2023-08-10T08:29:29Z</time>
      </trkpt>
      <trkpt lat="49.82899" lon="2.29806">
        <ele>61.3</ele>
        <time>2023-08-10T08:29:30Z</time>
      </trkpt>
      <trkpt lat="49.82901" lon="2.29804">
        <ele>61.3</ele>
        <time>2023-08-10T08:29:32Z</time>
      </trkpt>
      <trkpt lat="49.82903" lon="2.29802">
        <ele>61.3</ele>
        <time>2023-08-10T08:29:33Z</time>
      </trkpt>
      <trkpt lat="49.82903" lon="2.29802">
        <ele>61.3</ele>
        <time>2023-08-10T08:29:34Z</time>
      </trkpt>
      <trkpt lat="49.82904" lon="2.29801">
        <ele>61.3</ele>
        <time>2023-08-10T08:29:35Z</time>
      </trkpt>
      <trkpt lat="49.82906" lon="2.29799">
        <ele>61.2</ele>
        <time>2023-08-10T08:29:36Z</time>
      </trkpt>
      <trkpt lat="49.82907" lon="2.29799">
        <ele>61.2</ele>
        <time>2023-08-10T08:29:37Z</time>
      </trkpt>
      <trkpt lat="49.82907" lon="2.29798">
        <ele>61.2</ele>
        <time>2023-08-10T08:29:38Z</time>
      </trkpt>
      <trkpt lat="49.82909" lon="2.29797">
        <ele>61.2</ele>
        <time>2023-08-10T08:29:39Z</time>
      </trkpt>
      <trkpt lat="49.8291" lon="2.29796">
        <ele>61.2</ele>
        <time>2023-08-10T08:29:41Z</time>
      </trkpt>
      <trkpt lat="49.82911" lon="2.29795">
        <ele>61.2</ele>
        <time>2023-08-10T08:29:42Z</time>
      </trkpt>
      <trkpt lat="49.82912" lon="2.29794">
        <ele>61.2</ele>
        <time>2023-08-10T08:29:43Z</time>
      </trkpt>
      <trkpt lat="49.82914" lon="2.29793">
        <ele>61.2</ele>
        <time>2023-08-10T08:29:44Z</time>
      </trkpt>
      <trkpt lat="49.82915" lon="2.29792">
        <ele>61.2</ele>
        <time>2023-08-10T08:29:45Z</time>
      </trkpt>
      <trkpt lat="49.82917" lon="2.29791">
        <ele>61.2</ele>
        <time>2023-08-10T08:29:47Z</time>
      </trkpt>
      <trkpt lat="49.82918" lon="2.2979">
        <ele>61.2</ele>
        <time>2023-08-10T08:29:48Z</time>
      </trkpt>
      <trkpt lat="49.82919" lon="2.2979">
        <ele>61.2</ele>
        <time>2023-08-10T08:29:49Z</time>
      </trkpt>
      <trkpt lat="49.82921" lon="2.29789">
        <ele>61.2</ele>
        <time>2023-08-10T08:29:50Z</time>
      </trkpt>
      <trkpt lat="49.82922" lon="2.29788">
        <ele>61.2</ele>
        <time>2023-08-10T08:29:51Z</time>
      </trkpt>
      <trkpt lat="49.82922" lon="2.29787">
        <ele>61.2</ele>
        <time>2023-08-10T08:29:52Z</time>
      </trkpt>
      <trkpt lat="49.82924" lon="2.29787">
        <ele>61.2</ele>
        <time>2023-08-10T08:29:53Z</time>
      </trkpt>
      <trkpt lat="49.82925" lon="2.29786">
        <ele>61.2</ele>
        <time>2023-08-10T08:29:54Z</time>
      </trkpt>
      <trkpt lat="49.82926" lon="2.29786">
        <ele>61.2</ele>
        <time>2023-08-10T08:29:56Z</time>
      </trkpt>
      <trkpt lat="49.82927" lon="2.29785">
        <ele>61.2</ele>
        <time>2023-08-10T08:29:57Z</time>
      </trkpt>
      <trkpt lat="49.82928" lon="2.29786">
        <ele>61.2</ele>
        <time>2023-08-10T08:29:58Z</time>
      </trkpt>
      <trkpt lat="49.82929" lon="2.29786">
        <ele>61.2</ele>
        <time>2023-08-10T08:29:59Z</time>
      </trkpt>
      <trkpt lat="49.8293" lon="2.29786">
        <ele>61.2</ele>
        <time>2023-08-10T08:30:00Z</time>
      </trkpt>
      <trkpt lat="49.82931" lon="2.29786">
        <ele>61.2</ele>
        <time>2023-08-10T08:30:01Z</time>
      </trkpt>
      <trkpt lat="49.82933" lon="2.29785">
        <ele>61.2</ele>
        <time>2023-08-10T08:30:03Z</time>
      </trkpt>
      <trkpt lat="49.82933" lon="2.29784">
        <ele>61.2</ele>
        <time>2023-08-10T08:30:04Z</time>
      </trkpt>
      <trkpt lat="49.82934" lon="2.29784">
        <ele>61.2</ele>
        <time>2023-08-10T08:30:05Z</time>
      </trkpt>
      <trkpt lat="49.82935" lon="2.29783">
        <ele>61.2</ele>
        <time>2023-08-10T08:30:06Z</time>
      </trkpt>
      <trkpt lat="49.82935" lon="2.29782">
        <ele>61.2</ele>
        <time>2023-08-10T08:30:07Z</time>
      </trkpt>
      <trkpt lat="49.82936" lon="2.29782">
        <ele>61.2</ele>
        <time>2023-08-10T08:30:08Z</time>
      </trkpt>
      <trkpt lat="49.82937" lon="2.29781">
        <ele>61.2</ele>
        <time>2023-08-10T08:30:10Z</time>
      </trkpt>
      <trkpt lat="49.82937" lon="2.29781">
        <ele>61.2</ele>
        <time>2023-08-10T08:30:11Z</time>
      </trkpt>
      <trkpt lat="49.82938" lon="2.2978">
        <ele>61.2</ele>
        <time>2023-08-10T08:30:12Z</time>
      </trkpt>
      <trkpt lat="49.82938" lon="2.2978">
        <ele>61.2</ele>
        <time>2023-08-10T08:30:13Z</time>
      </trkpt>
      <trkpt lat="49.82938" lon="2.29779">
        <ele>61.2</ele>
        <time>2023-08-10T08:30:15Z</time>
      </trkpt>
      <trkpt lat="49.82938" lon="2.29779">
        <ele>61.2</ele>
        <time>2023-08-10T08:30:16Z</time>
      </trkpt>
      <trkpt lat="49.82937" lon="2.29779">
        <ele>61.2</ele>
        <time>2023-08-10T08:30:17Z</time>
      </trkpt>
      <trkpt lat="49.82937" lon="2.29779">
        <ele>61.2</ele>
        <time>2023-08-10T08:30:19Z</time>
      </trkpt>
      <trkpt lat="49.82937" lon="2.29779">
        <ele>61.2</ele>
        <time>2023-08-10T08:30:20Z</time>
      </trkpt>
      <trkpt lat="49.82937" lon="2.29779">
        <ele>61.2</ele>
        <time>2023-08-10T08:30:22Z</time>
      </trkpt>
      <trkpt lat="49.82937" lon="2.29779">
        <ele>61.2</ele>
        <time>2023-08-10T08:30:23Z</time>
      </trkpt>
      <trkpt lat="49.82937" lon="2.29779">
        <ele>61.2</ele>
        <time>2023-08-10T08:30:25Z</time>
      </trkpt>
      <trkpt lat="49.82937" lon="2.29779">
        <ele>61.2</ele>
        <time>2023-08-10T08:30:26Z</time>
      </trkpt>
      <trkpt lat="49.82937" lon="2.29779">
        <ele>61.2</ele>
        <time>2023-08-10T08:30:28Z</time>
      </trkpt>
      <trkpt lat="49.82937" lon="2.29778">
        <ele>61.2</ele>
        <time>2023-08-10T08:30:29Z</time>
      </trkpt>
      <trkpt lat="49.82937" lon="2.29778">
        <ele>61.2</ele>
        <time>2023-08-10T08:30:30Z</time>
      </trkpt>
      <trkpt lat="49.82937" lon="2.29779">
        <ele>61.2</ele>
        <time>2023-08-10T08:30:32Z</time>
      </trkpt>
      <trkpt lat="49.82937" lon="2.29779">
        <ele>61.2</ele>
        <time>2023-08-10T08:30:33Z</time>
      </trkpt>
      <trkpt lat="49.82937" lon="2.2978">
        <ele>61.2</ele>
        <time>2023-08-10T08:30:34Z</time>
      </trkpt>
      <trkpt lat="49.82937" lon="2.2978">
        <ele>61.2</ele>
        <time>2023-08-10T08:30:35Z</time>
      </trkpt>
      <trkpt lat="49.82937" lon="2.2978">
        <ele>61.2</ele>
        <time>2023-08-10T08:30:36Z</time>
      </trkpt>
      <trkpt lat="49.82937" lon="2.2978">
        <ele>61.2</ele>
        <time>2023-08-10T08:30:37Z</time>
      </trkpt>
      <trkpt lat="49.82937" lon="2.2978">
        <ele>61.2</ele>
        <time>2023-08-10T08:30:38Z</time>
      </trkpt>
      <trkpt lat="49.82937" lon="2.2978">
        <ele>61.2</ele>
        <time>2023-08-10T08:30:39Z</time>
      </trkpt>
      <trkpt lat="49.82937" lon="2.2978">
        <ele>61.2</ele>
        <time>2023-08-10T08:30:40Z</time>
      </trkpt>
      <trkpt lat="49.82937" lon="2.2978">
        <ele>61.2</ele>
        <time>2023-08-10T08:30:41Z</time>
      </trkpt>
      <trkpt lat="49.82937" lon="2.2978">
        <ele>61.2</ele>
        <time>2023-08-10T08:30:42Z</time>
      </trkpt>
      <trkpt lat="49.82937" lon="2.2978">
        <ele>61.2</ele>
        <time>2023-08-10T08:30:43Z</time>
      </trkpt>
      <trkpt lat="49.82937" lon="2.2978">
        <ele>61.2</ele>
        <time>2023-08-10T08:30:44Z</time>
      </trkpt>
      <trkpt lat="49.82937" lon="2.2978">
        <ele>61.2</ele>
        <time>2023-08-10T08:30:45Z</time>
      </trkpt>
      <trkpt lat="49.82937" lon="2.2978">
        <ele>61.2</ele>
        <time>2023-08-10T08:30:46Z</time>
      </trkpt>
      <trkpt lat="49.82937" lon="2.2978">
        <ele>61.2</ele>
        <time>2023-08-10T08:30:47Z</time>
      </trkpt>
      <trkpt lat="49.82937" lon="2.2978">
        <ele>61.2</ele>
        <time>2023-08-10T08:30:48Z</time>
      </trkpt>
      <trkpt lat="49.82937" lon="2.2978">
        <ele>61.2</ele>
        <time>2023-08-10T08:30:49Z</time>
      </trkpt>
      <trkpt lat="49.82937" lon="2.2978">
        <ele>61.2</ele>
        <time>2023-08-10T08:30:50Z</time>
      </trkpt>
      <trkpt lat="49.82937" lon="2.2978">
        <ele>61.2</ele>
        <time>2023-08-10T08:30:51Z</time>
      </trkpt>
      <trkpt lat="49.82937" lon="2.2978">
        <ele>61.2</ele>
        <time>2023-08-10T08:30:52Z</time>
      </trkpt>
      <trkpt lat="49.82937" lon="2.2978">
        <ele>61.2</ele>
        <time>2023-08-10T08:30:53Z</time>
      </trkpt>
      <trkpt lat="49.82937" lon="2.2978">
        <ele>61.2</ele>
        <time>2023-08-10T08:30:54Z</time>
      </trkpt>
      <trkpt lat="49.82937" lon="2.2978">
        <ele>61.2</ele>
        <time>2023-08-10T08:30:55Z</time>
      </trkpt>
      <trkpt lat="49.82937" lon="2.2978">
        <ele>61.2</ele>
        <time>2023-08-10T08:30:56Z</time>
      </trkpt>
      <trkpt lat="49.82937" lon="2.2978">
        <ele>61.2</ele>
        <time>2023-08-10T08:30:57Z</time>
      </trkpt>
      <trkpt lat="49.82937" lon="2.2978">
        <ele>61.2</ele>
        <time>2023-08-10T08:30:58Z</time>
      </trkpt>
      <trkpt lat="49.82937" lon="2.2978">
        <ele>61.2</ele>
        <time>2023-08-10T08:30:59Z</time>
      </trkpt>
      <trkpt lat="49.82937" lon="2.2978">
        <ele>61.2</ele>
        <time>2023-08-10T08:31:00Z</time>
      </trkpt>
      <trkpt lat="49.82937" lon="2.2978">
        <ele>61.2</ele>
        <time>2023-08-10T08:31:01Z</time>
      </trkpt>
      <trkpt lat="49.82937" lon="2.2978">
        <ele>61.2</ele>
        <time>2023-08-10T08:31:02Z</time>
      </trkpt>
      <trkpt lat="49.82937" lon="2.2978">
        <ele>61.2</ele>
        <time>2023-08-10T08:31:03Z</time>
      </trkpt>
      <trkpt lat="49.82937" lon="2.2978">
        <ele>61.2</ele>
        <time>2023-08-10T08:31:04Z</time>
      </trkpt>
      <trkpt lat="49.82937" lon="2.2978">
        <ele>61.2</ele>
        <time>2023-08-10T08:31:05Z</time>
      </trkpt>
      <trkpt lat="49.82937" lon="2.2978">
        <ele>61.2</ele>
        <time>2023-08-10T08:31:06Z</time>
      </trkpt>
      <trkpt lat="49.82937" lon="2.2978">
        <ele>61.2</ele>
        <time>2023-08-10T08:31:07Z</time>
      </trkpt>
      <trkpt lat="49.82937" lon="2.2978">
        <ele>61.2</ele>
        <time>2023-08-10T08:31:08Z</time>
      </trkpt>
      <trkpt lat="49.82937" lon="2.2978">
        <ele>61.2</ele>
        <time>2023-08-10T08:31:09Z</time>
      </trkpt>
      <trkpt lat="49.82937" lon="2.2978">
        <ele>61.2</ele>
        <time>2023-08-10T08:31:10Z</time>
      </trkpt>
      <trkpt lat="49.82937" lon="2.2978">
        <ele>61.2</ele>
        <time>2023-08-10T08:31:11Z</time>
      </trkpt>
      <trkpt lat="49.82937" lon="2.2978">
        <ele>61.2</ele>
        <time>2023-08-10T08:31:12Z</time>
      </trkpt>
      <trkpt lat="49.82937" lon="2.2978">
        <ele>61.2</ele>
        <time>2023-08-10T08:31:13Z</time>
      </trkpt>
      <trkpt lat="49.82937" lon="2.2978">
        <ele>61.2</ele>
        <time>2023-08-10T08:31:14Z</time>
      </trkpt>
      <trkpt lat="49.82937" lon="2.2978">
        <ele>61.2</ele>
        <time>2023-08-10T08:31:15Z</time>
      </trkpt>
      <trkpt lat="49.82937" lon="2.2978">
        <ele>61.2</ele>
        <time>2023-08-10T08:31:16Z</time>
      </trkpt>
      <trkpt lat="49.82937" lon="2.2978">
        <ele>61.2</ele>
        <time>2023-08-10T08:31:17Z</time>
      </trkpt>
      <trkpt lat="49.82937" lon="2.2978">
        <ele>61.2</ele>
        <time>2023-08-10T08:31:18Z</time>
      </trkpt>
      <trkpt lat="49.82937" lon="2.2978">
        <ele>61.2</ele>
        <time>2023-08-10T08:31:19Z</time>
      </trkpt>
      <trkpt lat="49.82937" lon="2.2978">
        <ele>61.2</ele>
        <time>2023-08-10T08:31:20Z</time>
      </trkpt>
      <trkpt lat="49.82937" lon="2.2978">
        <ele>61.2</ele>
        <time>2023-08-10T08:31:21Z</time>
      </trkpt>
      <trkpt lat="49.82937" lon="2.2978">
        <ele>61.2</ele>
        <time>2023-08-10T08:31:22Z</time>
      </trkpt>
      <trkpt lat="49.82937" lon="2.2978">
        <ele>61.2</ele>
        <time>2023-08-10T08:31:23Z</time>
      </trkpt>
      <trkpt lat="49.82937" lon="2.2978">
        <ele>61.2</ele>
        <time>2023-08-10T08:31:24Z</time>
      </trkpt>
      <trkpt lat="49.82937" lon="2.2978">
        <ele>61.2</ele>
        <time>2023-08-10T08:31:25Z</time>
      </trkpt>
      <trkpt lat="49.82937" lon="2.2978">
        <ele>61.2</ele>
        <time>2023-08-10T08:31:26Z</time>
      </trkpt>
      <trkpt lat="49.82937" lon="2.2978">
        <ele>61.2</ele>
        <time>2023-08-10T08:31:27Z</time>
      </trkpt>
      <trkpt lat="49.82937" lon="2.2978">
        <ele>61.2</ele>
        <time>2023-08-10T08:31:28Z</time>
      </trkpt>
      <trkpt lat="49.82937" lon="2.2978">
        <ele>61.2</ele>
        <time>2023-08-10T08:31:29Z</time>
      </trkpt>
      <trkpt lat="49.82937" lon="2.2978">
        <ele>61.2</ele>
        <time>2023-08-10T08:31:30Z</time>
      </trkpt>
      <trkpt lat="49.82937" lon="2.2978">
        <ele>61.2</ele>
        <time>2023-08-10T08:31:31Z</time>
      </trkpt>
      <trkpt lat="49.82937" lon="2.2978">
        <ele>61.2</ele>
        <time>2023-08-10T08:31:32Z</time>
      </trkpt>
      <trkpt lat="49.82937" lon="2.2978">
        <ele>61.2</ele>
        <time>2023-08-10T08:31:33Z</time>
      </trkpt>
      <trkpt lat="49.82937" lon="2.2978">
        <ele>61.2</ele>
        <time>2023-08-10T08:31:34Z</time>
      </trkpt>
      <trkpt lat="49.82937" lon="2.2978">
        <ele>61.2</ele>
        <time>2023-08-10T08:31:35Z</time>
      </trkpt>
      <trkpt lat="49.82937" lon="2.2978">
        <ele>61.2</ele>
        <time>2023-08-10T08:31:36Z</time>
      </trkpt>
      <trkpt lat="49.82937" lon="2.2978">
        <ele>61.2</ele>
        <time>2023-08-10T08:31:37Z</time>
      </trkpt>
      <trkpt lat="49.82937" lon="2.2978">
        <ele>61.2</ele>
        <time>2023-08-10T08:31:38Z</time>
      </trkpt>
      <trkpt lat="49.82937" lon="2.2978">
        <ele>61.2</ele>
        <time>2023-08-10T08:31:39Z</time>
      </trkpt>
      <trkpt lat="49.82937" lon="2.2978">
        <ele>61.2</ele>
        <time>2023-08-10T08:31:40Z</time>
      </trkpt>
      <trkpt lat="49.82937" lon="2.2978">
        <ele>61.2</ele>
        <time>2023-08-10T08:31:41Z</time>
      </trkpt>
      <trkpt lat="49.82937" lon="2.2978">
        <ele>61.2</ele>
        <time>2023-08-10T08:31:42Z</time>
      </trkpt>
      <trkpt lat="49.82937" lon="2.2978">
        <ele>61.2</ele>
        <time>2023-08-10T08:31:43Z</time>
      </trkpt>
      <trkpt lat="49.82937" lon="2.2978">
        <ele>61.2</ele>
        <time>2023-08-10T08:31:44Z</time>
      </trkpt>
      <trkpt lat="49.82937" lon="2.2978">
        <ele>61.2</ele>
        <time>2023-08-10T08:31:45Z</time>
      </trkpt>
      <trkpt lat="49.82937" lon="2.2978">
        <ele>61.2</ele>
        <time>2023-08-10T08:31:46Z</time>
      </trkpt>
      <trkpt lat="49.82937" lon="2.2978">
        <ele>61.2</ele>
        <time>2023-08-10T08:31:47Z</time>
      </trkpt>
      <trkpt lat="49.82937" lon="2.2978">
        <ele>61.2</ele>
        <time>2023-08-10T08:31:48Z</time>
      </trkpt>
      <trkpt lat="49.82937" lon="2.2978">
        <ele>61.2</ele>
        <time>2023-08-10T08:31:49Z</time>
      </trkpt>
      <trkpt lat="49.82937" lon="2.2978">
        <ele>61.2</ele>
        <time>2023-08-10T08:31:50Z</time>
      </trkpt>
      <trkpt lat="49.82937" lon="2.2978">
        <ele>61.2</ele>
        <time>2023-08-10T08:31:51Z</time>
      </trkpt>
      <trkpt lat="49.82937" lon="2.2978">
        <ele>61.2</ele>
        <time>2023-08-10T08:31:52Z</time>
      </trkpt>
      <trkpt lat="49.82937" lon="2.2978">
        <ele>61.2</ele>
        <time>2023-08-10T08:31:53Z</time>
      </trkpt>
      <trkpt lat="49.82937" lon="2.2978">
        <ele>61.2</ele>
        <time>2023-08-10T08:31:54Z</time>
      </trkpt>
      <trkpt lat="49.82937" lon="2.2978">
        <ele>61.2</ele>
        <time>2023-08-10T08:31:55Z</time>
      </trkpt>
      <trkpt lat="49.82937" lon="2.2978">
        <ele>61.2</ele>
        <time>2023-08-10T08:31:56Z</time>
      </trkpt>
      <trkpt lat="49.82937" lon="2.2978">
        <ele>61.2</ele>
        <time>2023-08-10T08:31:57Z</time>
      </trkpt>
      <trkpt lat="49.82937" lon="2.2978">
        <ele>61.2</ele>
        <time>2023-08-10T08:31:58Z</time>
      </trkpt>
      <trkpt lat="49.82937" lon="2.2978">
        <ele>61.2</ele>
        <time>2023-08-10T08:31:59Z</time>
      </trkpt>
      <trkpt lat="49.82937" lon="2.2978">
        <ele>61.2</ele>
        <time>2023-08-10T08:32:00Z</time>
      </trkpt>
      <trkpt lat="49.82937" lon="2.2978">
        <ele>61.2</ele>
        <time>2023-08-10T08:32:01Z</time>
      </trkpt>
      <trkpt lat="49.82937" lon="2.2978">
        <ele>61.2</ele>
        <time>2023-08-10T08:32:02Z</time>
      </trkpt>
      <trkpt lat="49.82937" lon="2.2978">
        <ele>61.2</ele>
        <time>2023-08-10T08:32:03Z</time>
      </trkpt>
      <trkpt lat="49.82937" lon="2.2978">
        <ele>61.2</ele>
        <time>2023-08-10T08:32:04Z</time>
      </trkpt>
      <trkpt lat="49.82937" lon="2.2978">
        <ele>61.2</ele>
        <time>2023-08-10T08:32:05Z</time>
      </trkpt>
      <trkpt lat="49.82937" lon="2.2978">
        <ele>61.2</ele>
        <time>2023-08-10T08:32:06Z</time>
      </trkpt>
      <trkpt lat="49.82937" lon="2.2978">
        <ele>61.2</ele>
        <time>2023-08-10T08:32:07Z</time>
      </trkpt>
      <trkpt lat="49.82937" lon="2.2978">
        <ele>61.2</ele>
        <time>2023-08-10T08:32:08Z</time>
      </trkpt>
      <trkpt lat="49.82937" lon="2.2978">
        <ele>61.2</ele>
        <time>2023-08-10T08:32:09Z</time>
      </trkpt>
      <trkpt lat="49.82937" lon="2.2978">
        <ele>61.2</ele>
        <time>2023-08-10T08:32:10Z</time>
      </trkpt>
      <trkpt lat="49.82937" lon="2.2978">
        <ele>61.2</ele>
        <time>2023-08-10T08:32:11Z</time>
      </trkpt>
      <trkpt lat="49.82937" lon="2.2978">
        <ele>61.2</ele>
        <time>2023-08-10T08:32:12Z</time>
      </trkpt>
      <trkpt lat="49.82937" lon="2.2978">
        <ele>61.2</ele>
        <time>2023-08-10T08:32:13Z</time>
      </trkpt>
      <trkpt lat="49.82937" lon="2.2978">
        <ele>61.2</ele>
        <time>2023-08-10T08:32:14Z</time>
      </trkpt>
      <trkpt lat="49.82937" lon="2.2978">
        <ele>61.2</ele>
        <time>2023-08-10T08:32:15Z</time>
      </trkpt>
      <trkpt lat="49.82937" lon="2.2978">
        <ele>61.2</ele>
        <time>2023-08-10T08:32:16Z</time>
      </trkpt>
      <trkpt lat="49.82937" lon="2.2978">
        <ele>61.2</ele>
        <time>2023-08-10T08:32:17Z</time>
      </trkpt>
      <trkpt lat="49.82937" lon="2.2978">
        <ele>61.2</ele>
        <time>2023-08-10T08:32:18Z</time>
      </trkpt>
      <trkpt lat="49.82937" lon="2.2978">
        <ele>61.2</ele>
        <time>2023-08-10T08:32:19Z</time>
      </trkpt>
      <trkpt lat="49.82937" lon="2.2978">
        <ele>61.2</ele>
        <time>2023-08-10T08:32:20Z</time>
      </trkpt>
      <trkpt lat="49.82937" lon="2.2978">
        <ele>61.2</ele>
        <time>2023-08-10T08:32:21Z</time>
      </trkpt>
      <trkpt lat="49.82937" lon="2.2978">
        <ele>61.2</ele>
        <time>2023-08-10T08:32:22Z</time>
      </trkpt>
      <trkpt lat="49.82937" lon="2.2978">
        <ele>61.2</ele>
        <time>2023-08-10T08:32:23Z</time>
      </trkpt>
      <trkpt lat="49.82937" lon="2.2978">
        <ele>61.2</ele>
        <time>2023-08-10T08:32:24Z</time>
      </trkpt>
      <trkpt lat="49.82937" lon="2.2978">
        <ele>61.2</ele>
        <time>2023-08-10T08:32:25Z</time>
      </trkpt>
      <trkpt lat="49.82937" lon="2.2978">
        <ele>61.2</ele>
        <time>2023-08-10T08:32:26Z</time>
      </trkpt>
      <trkpt lat="49.82937" lon="2.2978">
        <ele>61.2</ele>
        <time>2023-08-10T08:32:27Z</time>
      </trkpt>
      <trkpt lat="49.82937" lon="2.2978">
        <ele>61.2</ele>
        <time>2023-08-10T08:32:28Z</time>
      </trkpt>
      <trkpt lat="49.82937" lon="2.2978">
        <ele>61.2</ele>
        <time>2023-08-10T08:32:29Z</time>
      </trkpt>
      <trkpt lat="49.82937" lon="2.2978">
        <ele>61.2</ele>
        <time>2023-08-10T08:32:30Z</time>
      </trkpt>
      <trkpt lat="49.82937" lon="2.2978">
        <ele>61.2</ele>
        <time>2023-08-10T08:32:31Z</time>
      </trkpt>
      <trkpt lat="49.82937" lon="2.2978">
        <ele>61.2</ele>
        <time>2023-08-10T08:32:32Z</time>
      </trkpt>
      <trkpt lat="49.82937" lon="2.2978">
        <ele>61.2</ele>
        <time>2023-08-10T08:32:33Z</time>
      </trkpt>
      <trkpt lat="49.82938" lon="2.2978">
        <ele>61.1</ele>
        <time>2023-08-10T08:32:34Z</time>
      </trkpt>
      <trkpt lat="49.82937" lon="2.2978">
        <ele>61.1</ele>
        <time>2023-08-10T08:32:36Z</time>
      </trkpt>
      <trkpt lat="49.82937" lon="2.29779">
        <ele>61.1</ele>
        <time>2023-08-10T08:32:37Z</time>
      </trkpt>
      <trkpt lat="49.82938" lon="2.29779">
        <ele>61.1</ele>
        <time>2023-08-10T08:32:38Z</time>
      </trkpt>
      <trkpt lat="49.82939" lon="2.29778">
        <ele>61.1</ele>
        <time>2023-08-10T08:32:39Z</time>
      </trkpt>
      <trkpt lat="49.8294" lon="2.29777">
        <ele>61.1</ele>
        <time>2023-08-10T08:32:40Z</time>
      </trkpt>
      <trkpt lat="49.82941" lon="2.29776">
        <ele>61.1</ele>
        <time>2023-08-10T08:32:41Z</time>
      </trkpt>
      <trkpt lat="49.82942" lon="2.29775">
        <ele>61.1</ele>
        <time>2023-08-10T08:32:43Z</time>
      </trkpt>
      <trkpt lat="49.82944" lon="2.29773">
        <ele>61.1</ele>
        <time>2023-08-10T08:32:44Z</time>
      </trkpt>
      <trkpt lat="49.82945" lon="2.29772">
        <ele>61.1</ele>
        <time>2023-08-10T08:32:45Z</time>
      </trkpt>
      <trkpt lat="49.82947" lon="2.29771">
        <ele>61.1</ele>
        <time>2023-08-10T08:32:46Z</time>
      </trkpt>
      <trkpt lat="49.82948" lon="2.2977">
        <ele>61.1</ele>
        <time>2023-08-10T08:32:47Z</time>
      </trkpt>
      <trkpt lat="49.8295" lon="2.29769">
        <ele>61.1</ele>
        <time>2023-08-10T08:32:48Z</time>
      </trkpt>
      <trkpt lat="49.82951" lon="2.29768">
        <ele>61.1</ele>
        <time>2023-08-10T08:32:49Z</time>
      </trkpt>
      <trkpt lat="49.82952" lon="2.29768">
        <ele>61.1</ele>
        <time>2023-08-10T08:32:50Z</time>
      </trkpt>
      <trkpt lat="49.82953" lon="2.29767">
        <ele>61.1</ele>
        <time>2023-08-10T08:32:52Z</time>
      </trkpt>
      <trkpt lat="49.82955" lon="2.29766">
        <ele>61.1</ele>
        <time>2023-08-10T08:32:53Z</time>
      </trkpt>
      <trkpt lat="49.82956" lon="2.29766">
        <ele>61.1</ele>
        <time>2023-08-10T08:32:54Z</time>
      </trkpt>
      <trkpt lat="49.82957" lon="2.29766">
        <ele>61.1</ele>
        <time>2023-08-10T08:32:55Z</time>
      </trkpt>
      <trkpt lat="49.82958" lon="2.29766">
        <ele>61.1</ele>
        <time>2023-08-10T08:32:56Z</time>
      </trkpt>
      <trkpt lat="49.82959" lon="2.29765">
        <ele>61.1</ele>
        <time>2023-08-10T08:32:57Z</time>
      </trkpt>
      <trkpt lat="49.8296" lon="2.29765">
        <ele>61.1</ele>
        <time>2023-08-10T08:32:59Z</time>
      </trkpt>
      <trkpt lat="49.82961" lon="2.29764">
        <ele>61.1</ele>
        <time>2023-08-10T08:33:00Z</time>
      </trkpt>
      <trkpt lat="49.82962" lon="2.29763">
        <ele>61.1</ele>
        <time>2023-08-10T08:33:01Z</time>
      </trkpt>
      <trkpt lat="49.82963" lon="2.29762">
        <ele>61.1</ele>
        <time>2023-08-10T08:33:02Z</time>
      </trkpt>
      <trkpt lat="49.82964" lon="2.29761">
        <ele>61.1</ele>
        <time>2023-08-10T08:33:03Z</time>
      </trkpt>
      <trkpt lat="49.82965" lon="2.29761">
        <ele>61.1</ele>
        <time>2023-08-10T08:33:04Z</time>
      </trkpt>
      <trkpt lat="49.82966" lon="2.2976">
        <ele>61.1</ele>
        <time>2023-08-10T08:33:05Z</time>
      </trkpt>
      <trkpt lat="49.82966" lon="2.2976">
        <ele>61.1</ele>
        <time>2023-08-10T08:33:06Z</time>
      </trkpt>
      <trkpt lat="49.82967" lon="2.29759">
        <ele>61.1</ele>
        <time>2023-08-10T08:33:08Z</time>
      </trkpt>
      <trkpt lat="49.82968" lon="2.29759">
        <ele>61.1</ele>
        <time>2023-08-10T08:33:09Z</time>
      </trkpt>
      <trkpt lat="49.82969" lon="2.29759">
        <ele>61.1</ele>
        <time>2023-08-10T08:33:10Z</time>
      </trkpt>
      <trkpt lat="49.82971" lon="2.29758">
        <ele>61.1</ele>
        <time>2023-08-10T08:33:11Z</time>
      </trkpt>
      <trkpt lat="49.82973" lon="2.29757">
        <ele>61.1</ele>
        <time>2023-08-10T08:33:13Z</time>
      </trkpt>
      <trkpt lat="49.82976" lon="2.29756">
        <ele>61.1</ele>
        <time>2023-08-10T08:33:14Z</time>
      </trkpt>
      <trkpt lat="49.82977" lon="2.29755">
        <ele>61.1</ele>
        <time>2023-08-10T08:33:15Z</time>
      </trkpt>
      <trkpt lat="49.82978" lon="2.29754">
        <ele>61.1</ele>
        <time>2023-08-10T08:33:16Z</time>
      </trkpt>
      <trkpt lat="49.8298" lon="2.29754">
        <ele>61.1</ele>
        <time>2023-08-10T08:33:17Z</time>
      </trkpt>
      <trkpt lat="49.82982" lon="2.29752">
        <ele>61.1</ele>
        <time>2023-08-10T08:33:18Z</time>
      </trkpt>
      <trkpt lat="49.82982" lon="2.29751">
        <ele>61.1</ele>
        <time>2023-08-10T08:33:19Z</time>
      </trkpt>
      <trkpt lat="49.82983" lon="2.29751">
        <ele>61.1</ele>
        <time>2023-08-10T08:33:20Z</time>
      </trkpt>
      <trkpt lat="49.82985" lon="2.29749">
        <ele>61.1</ele>
        <time>2023-08-10T08:33:22Z</time>
      </trkpt>
      <trkpt lat="49.82986" lon="2.29748">
        <ele>61.1</ele>
        <time>2023-08-10T08:33:23Z</time>
      </trkpt>
      <trkpt lat="49.82988" lon="2.29747">
        <ele>61.1</ele>
        <time>2023-08-10T08:33:24Z</time>
      </trkpt>
      <trkpt lat="49.82989" lon="2.29746">
        <ele>61.1</ele>
        <time>2023-08-10T08:33:25Z</time>
      </trkpt>
      <trkpt lat="49.8299" lon="2.29745">
        <ele>61.1</ele>
        <time>2023-08-10T08:33:26Z</time>
      </trkpt>
      <trkpt lat="49.82992" lon="2.29744">
        <ele>61.1</ele>
        <time>2023-08-10T08:33:27Z</time>
      </trkpt>
      <trkpt lat="49.82994" lon="2.29743">
        <ele>61</ele>
        <time>2023-08-10T08:33:28Z</time>
      </trkpt>
      <trkpt lat="49.82995" lon="2.29742">
        <ele>61</ele>
        <time>2023-08-10T08:33:30Z</time>
      </trkpt>
      <trkpt lat="49.82996" lon="2.29742">
        <ele>61</ele>
        <time>2023-08-10T08:33:31Z</time>
      </trkpt>
      <trkpt lat="49.82997" lon="2.29741">
        <ele>61</ele>
        <time>2023-08-10T08:33:32Z</time>
      </trkpt>
      <trkpt lat="49.82998" lon="2.2974">
        <ele>61</ele>
        <time>2023-08-10T08:33:33Z</time>
      </trkpt>
      <trkpt lat="49.82999" lon="2.2974">
        <ele>61</ele>
        <time>2023-08-10T08:33:34Z</time>
      </trkpt>
      <trkpt lat="49.83001" lon="2.29738">
        <ele>61</ele>
        <time>2023-08-10T08:33:35Z</time>
      </trkpt>
      <trkpt lat="49.83002" lon="2.29737">
        <ele>61</ele>
        <time>2023-08-10T08:33:36Z</time>
      </trkpt>
      <trkpt lat="49.83003" lon="2.29736">
        <ele>61</ele>
        <time>2023-08-10T08:33:38Z</time>
      </trkpt>
      <trkpt lat="49.83005" lon="2.29735">
        <ele>60.9</ele>
        <time>2023-08-10T08:33:39Z</time>
      </trkpt>
      <trkpt lat="49.83006" lon="2.29734">
        <ele>60.9</ele>
        <time>2023-08-10T08:33:40Z</time>
      </trkpt>
      <trkpt lat="49.83008" lon="2.29734">
        <ele>60.9</ele>
        <time>2023-08-10T08:33:41Z</time>
      </trkpt>
      <trkpt lat="49.8301" lon="2.29733">
        <ele>60.9</ele>
        <time>2023-08-10T08:33:43Z</time>
      </trkpt>
      <trkpt lat="49.83012" lon="2.29732">
        <ele>60.9</ele>
        <time>2023-08-10T08:33:44Z</time>
      </trkpt>
      <trkpt lat="49.83013" lon="2.29731">
        <ele>60.9</ele>
        <time>2023-08-10T08:33:45Z</time>
      </trkpt>
      <trkpt lat="49.83013" lon="2.29731">
        <ele>60.9</ele>
        <time>2023-08-10T08:33:46Z</time>
      </trkpt>
      <trkpt lat="49.83015" lon="2.2973">
        <ele>60.8</ele>
        <time>2023-08-10T08:33:48Z</time>
      </trkpt>
      <trkpt lat="49.83016" lon="2.2973">
        <ele>60.8</ele>
        <time>2023-08-10T08:33:49Z</time>
      </trkpt>
      <trkpt lat="49.83019" lon="2.29729">
        <ele>60.8</ele>
        <time>2023-08-10T08:33:50Z</time>
      </trkpt>
      <trkpt lat="49.83019" lon="2.29729">
        <ele>60.8</ele>
        <time>2023-08-10T08:33:51Z</time>
      </trkpt>
      <trkpt lat="49.8302" lon="2.29729">
        <ele>60.8</ele>
        <time>2023-08-10T08:33:52Z</time>
      </trkpt>
      <trkpt lat="49.83022" lon="2.29729">
        <ele>60.7</ele>
        <time>2023-08-10T08:33:53Z</time>
      </trkpt>
      <trkpt lat="49.83023" lon="2.29728">
        <ele>60.7</ele>
        <time>2023-08-10T08:33:55Z</time>
      </trkpt>
      <trkpt lat="49.83025" lon="2.29727">
        <ele>60.7</ele>
        <time>2023-08-10T08:33:56Z</time>
      </trkpt>
      <trkpt lat="49.83026" lon="2.29727">
        <ele>60.6</ele>
        <time>2023-08-10T08:33:57Z</time>
      </trkpt>
      <trkpt lat="49.83028" lon="2.29725">
        <ele>60.6</ele>
        <time>2023-08-10T08:33:58Z</time>
      </trkpt>
      <trkpt lat="49.83029" lon="2.29725">
        <ele>60.6</ele>
        <time>2023-08-10T08:33:59Z</time>
      </trkpt>
      <trkpt lat="49.8303" lon="2.29724">
        <ele>60.5</ele>
        <time>2023-08-10T08:34:00Z</time>
      </trkpt>
      <trkpt lat="49.83031" lon="2.29723">
        <ele>60.5</ele>
        <time>2023-08-10T08:34:02Z</time>
      </trkpt>
      <trkpt lat="49.83033" lon="2.29723">
        <ele>60.5</ele>
        <time>2023-08-10T08:34:03Z</time>
      </trkpt>
      <trkpt lat="49.83034" lon="2.29722">
        <ele>60.5</ele>
        <time>2023-08-10T08:34:04Z</time>
      </trkpt>
      <trkpt lat="49.83035" lon="2.29721">
        <ele>60.4</ele>
        <time>2023-08-10T08:34:05Z</time>
      </trkpt>
      <trkpt lat="49.83037" lon="2.29721">
        <ele>60.4</ele>
        <time>2023-08-10T08:34:06Z</time>
      </trkpt>
      <trkpt lat="49.83039" lon="2.2972">
        <ele>60.3</ele>
        <time>2023-08-10T08:34:08Z</time>
      </trkpt>
      <trkpt lat="49.83042" lon="2.2972">
        <ele>60.2</ele>
        <time>2023-08-10T08:34:09Z</time>
      </trkpt>
      <trkpt lat="49.83043" lon="2.2972">
        <ele>60.2</ele>
        <time>2023-08-10T08:34:10Z</time>
      </trkpt>
      <trkpt lat="49.83045" lon="2.2972">
        <ele>60.1</ele>
        <time>2023-08-10T08:34:11Z</time>
      </trkpt>
      <trkpt lat="49.83046" lon="2.29719">
        <ele>60.1</ele>
        <time>2023-08-10T08:34:12Z</time>
      </trkpt>
      <trkpt lat="49.83048" lon="2.29719">
        <ele>60.1</ele>
        <time>2023-08-10T08:34:13Z</time>
      </trkpt>
      <trkpt lat="49.83049" lon="2.29719">
        <ele>60</ele>
        <time>2023-08-10T08:34:14Z</time>
      </trkpt>
      <trkpt lat="49.83051" lon="2.29719">
        <ele>60</ele>
        <time>2023-08-10T08:34:16Z</time>
      </trkpt>
      <trkpt lat="49.83052" lon="2.29718">
        <ele>59.9</ele>
        <time>2023-08-10T08:34:17Z</time>
      </trkpt>
      <trkpt lat="49.83054" lon="2.29717">
        <ele>59.9</ele>
        <time>2023-08-10T08:34:18Z</time>
      </trkpt>
      <trkpt lat="49.83055" lon="2.29717">
        <ele>59.8</ele>
        <time>2023-08-10T08:34:19Z</time>
      </trkpt>
      <trkpt lat="49.83057" lon="2.29716">
        <ele>59.7</ele>
        <time>2023-08-10T08:34:20Z</time>
      </trkpt>
      <trkpt lat="49.83058" lon="2.29716">
        <ele>59.7</ele>
        <time>2023-08-10T08:34:21Z</time>
      </trkpt>
      <trkpt lat="49.83059" lon="2.29716">
        <ele>59.7</ele>
        <time>2023-08-10T08:34:22Z</time>
      </trkpt>
      <trkpt lat="49.83062" lon="2.29715">
        <ele>59.6</ele>
        <time>2023-08-10T08:34:24Z</time>
      </trkpt>
      <trkpt lat="49.83062" lon="2.29715">
        <ele>59.6</ele>
        <time>2023-08-10T08:34:25Z</time>
      </trkpt>
      <trkpt lat="49.83064" lon="2.29714">
        <ele>59.5</ele>
        <time>2023-08-10T08:34:26Z</time>
      </trkpt>
      <trkpt lat="49.83065" lon="2.29713">
        <ele>59.5</ele>
        <time>2023-08-10T08:34:27Z</time>
      </trkpt>
      <trkpt lat="49.83067" lon="2.29713">
        <ele>59.5</ele>
        <time>2023-08-10T08:34:29Z</time>
      </trkpt>
      <trkpt lat="49.83068" lon="2.29712">
        <ele>59.4</ele>
        <time>2023-08-10T08:34:30Z</time>
      </trkpt>
      <trkpt lat="49.83071" lon="2.29711">
        <ele>59.3</ele>
        <time>2023-08-10T08:34:31Z</time>
      </trkpt>
      <trkpt lat="49.83072" lon="2.2971">
        <ele>59.3</ele>
        <time>2023-08-10T08:34:32Z</time>
      </trkpt>
      <trkpt lat="49.83073" lon="2.29709">
        <ele>59.3</ele>
        <time>2023-08-10T08:34:33Z</time>
      </trkpt>
      <trkpt lat="49.83074" lon="2.29709">
        <ele>59.2</ele>
        <time>2023-08-10T08:34:34Z</time>
      </trkpt>
      <trkpt lat="49.83076" lon="2.29708">
        <ele>59.2</ele>
        <time>2023-08-10T08:34:36Z</time>
      </trkpt>
      <trkpt lat="49.83077" lon="2.29707">
        <ele>59.2</ele>
        <time>2023-08-10T08:34:37Z</time>
      </trkpt>
      <trkpt lat="49.83078" lon="2.29707">
        <ele>59.2</ele>
        <time>2023-08-10T08:34:38Z</time>
      </trkpt>
      <trkpt lat="49.83079" lon="2.29707">
        <ele>59.1</ele>
        <time>2023-08-10T08:34:39Z</time>
      </trkpt>
      <trkpt lat="49.8308" lon="2.29706">
        <ele>59.1</ele>
        <time>2023-08-10T08:34:40Z</time>
      </trkpt>
      <trkpt lat="49.83081" lon="2.29705">
        <ele>59.1</ele>
        <time>2023-08-10T08:34:41Z</time>
      </trkpt>
      <trkpt lat="49.83082" lon="2.29705">
        <ele>59.1</ele>
        <time>2023-08-10T08:34:43Z</time>
      </trkpt>
      <trkpt lat="49.83083" lon="2.29704">
        <ele>59</ele>
        <time>2023-08-10T08:34:44Z</time>
      </trkpt>
      <trkpt lat="49.83085" lon="2.29703">
        <ele>59</ele>
        <time>2023-08-10T08:34:45Z</time>
      </trkpt>
      <trkpt lat="49.83086" lon="2.29703">
        <ele>59</ele>
        <time>2023-08-10T08:34:46Z</time>
      </trkpt>
      <trkpt lat="49.83087" lon="2.29702">
        <ele>59</ele>
        <time>2023-08-10T08:34:47Z</time>
      </trkpt>
      <trkpt lat="49.83089" lon="2.29701">
        <ele>58.9</ele>
        <time>2023-08-10T08:34:48Z</time>
      </trkpt>
      <trkpt lat="49.8309" lon="2.29701">
        <ele>58.9</ele>
        <time>2023-08-10T08:34:49Z</time>
      </trkpt>
      <trkpt lat="49.83091" lon="2.29701">
        <ele>58.9</ele>
        <time>2023-08-10T08:34:50Z</time>
      </trkpt>
      <trkpt lat="49.83093" lon="2.29701">
        <ele>58.8</ele>
        <time>2023-08-10T08:34:52Z</time>
      </trkpt>
      <trkpt lat="49.83094" lon="2.297">
        <ele>58.8</ele>
        <time>2023-08-10T08:34:53Z</time>
      </trkpt>
      <trkpt lat="49.83095" lon="2.297">
        <ele>58.8</ele>
        <time>2023-08-10T08:34:54Z</time>
      </trkpt>
      <trkpt lat="49.83096" lon="2.29699">
        <ele>58.8</ele>
        <time>2023-08-10T08:34:55Z</time>
      </trkpt>
      <trkpt lat="49.83097" lon="2.29699">
        <ele>58.8</ele>
        <time>2023-08-10T08:34:56Z</time>
      </trkpt>
      <trkpt lat="49.83098" lon="2.29699">
        <ele>58.7</ele>
        <time>2023-08-10T08:34:58Z</time>
      </trkpt>
      <trkpt lat="49.83099" lon="2.29699">
        <ele>58.7</ele>
        <time>2023-08-10T08:34:59Z</time>
      </trkpt>
      <trkpt lat="49.831" lon="2.29699">
        <ele>58.7</ele>
        <time>2023-08-10T08:35:00Z</time>
      </trkpt>
      <trkpt lat="49.83101" lon="2.29699">
        <ele>58.7</ele>
        <time>2023-08-10T08:35:01Z</time>
      </trkpt>
      <trkpt lat="49.83102" lon="2.29699">
        <ele>58.6</ele>
        <time>2023-08-10T08:35:02Z</time>
      </trkpt>
      <trkpt lat="49.83103" lon="2.29699">
        <ele>58.6</ele>
        <time>2023-08-10T08:35:03Z</time>
      </trkpt>
      <trkpt lat="49.83104" lon="2.297">
        <ele>58.6</ele>
        <time>2023-08-10T08:35:04Z</time>
      </trkpt>
      <trkpt lat="49.83106" lon="2.297">
        <ele>58.6</ele>
        <time>2023-08-10T08:35:05Z</time>
      </trkpt>
      <trkpt lat="49.83107" lon="2.29701">
        <ele>58.5</ele>
        <time>2023-08-10T08:35:07Z</time>
      </trkpt>
      <trkpt lat="49.83108" lon="2.29702">
        <ele>58.5</ele>
        <time>2023-08-10T08:35:08Z</time>
      </trkpt>
      <trkpt lat="49.83109" lon="2.29702">
        <ele>58.5</ele>
        <time>2023-08-10T08:35:09Z</time>
      </trkpt>
      <trkpt lat="49.8311" lon="2.29703">
        <ele>58.4</ele>
        <time>2023-08-10T08:35:10Z</time>
      </trkpt>
      <trkpt lat="49.83112" lon="2.29704">
        <ele>58.4</ele>
        <time>2023-08-10T08:35:11Z</time>
      </trkpt>
      <trkpt lat="49.83113" lon="2.29704">
        <ele>58.4</ele>
        <time>2023-08-10T08:35:13Z</time>
      </trkpt>
      <trkpt lat="49.83114" lon="2.29705">
        <ele>58.4</ele>
        <time>2023-08-10T08:35:14Z</time>
      </trkpt>
      <trkpt lat="49.83114" lon="2.29705">
        <ele>58.4</ele>
        <time>2023-08-10T08:35:15Z</time>
      </trkpt>
      <trkpt lat="49.83116" lon="2.29706">
        <ele>58.4</ele>
        <time>2023-08-10T08:35:16Z</time>
      </trkpt>
      <trkpt lat="49.83117" lon="2.29706">
        <ele>58.4</ele>
        <time>2023-08-10T08:35:17Z</time>
      </trkpt>
      <trkpt lat="49.83118" lon="2.29707">
        <ele>58.4</ele>
        <time>2023-08-10T08:35:18Z</time>
      </trkpt>
      <trkpt lat="49.83119" lon="2.29708">
        <ele>58.4</ele>
        <time>2023-08-10T08:35:19Z</time>
      </trkpt>
      <trkpt lat="49.83121" lon="2.29709">
        <ele>58.3</ele>
        <time>2023-08-10T08:35:20Z</time>
      </trkpt>
      <trkpt lat="49.83122" lon="2.2971">
        <ele>58.3</ele>
        <time>2023-08-10T08:35:21Z</time>
      </trkpt>
      <trkpt lat="49.83122" lon="2.29712">
        <ele>58.3</ele>
        <time>2023-08-10T08:35:22Z</time>
      </trkpt>
      <trkpt lat="49.83124" lon="2.29713">
        <ele>58.3</ele>
        <time>2023-08-10T08:35:23Z</time>
      </trkpt>
      <trkpt lat="49.83125" lon="2.29714">
        <ele>58.3</ele>
        <time>2023-08-10T08:35:25Z</time>
      </trkpt>
      <trkpt lat="49.83125" lon="2.29715">
        <ele>58.3</ele>
        <time>2023-08-10T08:35:26Z</time>
      </trkpt>
      <trkpt lat="49.83127" lon="2.29716">
        <ele>58.3</ele>
        <time>2023-08-10T08:35:27Z</time>
      </trkpt>
      <trkpt lat="49.83128" lon="2.29717">
        <ele>58.3</ele>
        <time>2023-08-10T08:35:28Z</time>
      </trkpt>
      <trkpt lat="49.83129" lon="2.29718">
        <ele>58.2</ele>
        <time>2023-08-10T08:35:29Z</time>
      </trkpt>
      <trkpt lat="49.8313" lon="2.29719">
        <ele>58.2</ele>
        <time>2023-08-10T08:35:30Z</time>
      </trkpt>
      <trkpt lat="49.83131" lon="2.2972">
        <ele>58.2</ele>
        <time>2023-08-10T08:35:31Z</time>
      </trkpt>
      <trkpt lat="49.83131" lon="2.29721">
        <ele>58.2</ele>
        <time>2023-08-10T08:35:32Z</time>
      </trkpt>
      <trkpt lat="49.83133" lon="2.29723">
        <ele>58.2</ele>
        <time>2023-08-10T08:35:33Z</time>
      </trkpt>
      <trkpt lat="49.83133" lon="2.29724">
        <ele>58.2</ele>
        <time>2023-08-10T08:35:34Z</time>
      </trkpt>
      <trkpt lat="49.83134" lon="2.29725">
        <ele>58.2</ele>
        <time>2023-08-10T08:35:35Z</time>
      </trkpt>
      <trkpt lat="49.83135" lon="2.29727">
        <ele>58.2</ele>
        <time>2023-08-10T08:35:37Z</time>
      </trkpt>
      <trkpt lat="49.83136" lon="2.29728">
        <ele>58.2</ele>
        <time>2023-08-10T08:35:38Z</time>
      </trkpt>
      <trkpt lat="49.83137" lon="2.2973">
        <ele>58.2</ele>
        <time>2023-08-10T08:35:39Z</time>
      </trkpt>
      <trkpt lat="49.83138" lon="2.29731">
        <ele>58.2</ele>
        <time>2023-08-10T08:35:40Z</time>
      </trkpt>
      <trkpt lat="49.83139" lon="2.29732">
        <ele>58.2</ele>
        <time>2023-08-10T08:35:41Z</time>
      </trkpt>
      <trkpt lat="49.8314" lon="2.29734">
        <ele>58.2</ele>
        <time>2023-08-10T08:35:43Z</time>
      </trkpt>
      <trkpt lat="49.83141" lon="2.29735">
        <ele>58.2</ele>
        <time>2023-08-10T08:35:44Z</time>
      </trkpt>
      <trkpt lat="49.83143" lon="2.29736">
        <ele>58.2</ele>
        <time>2023-08-10T08:35:45Z</time>
      </trkpt>
      <trkpt lat="49.83145" lon="2.29738">
        <ele>58.1</ele>
        <time>2023-08-10T08:35:46Z</time>
      </trkpt>
      <trkpt lat="49.83145" lon="2.29739">
        <ele>58.1</ele>
        <time>2023-08-10T08:35:47Z</time>
      </trkpt>
      <trkpt lat="49.83146" lon="2.29739">
        <ele>58.1</ele>
        <time>2023-08-10T08:35:48Z</time>
      </trkpt>
      <trkpt lat="49.83147" lon="2.29741">
        <ele>58.1</ele>
        <time>2023-08-10T08:35:49Z</time>
      </trkpt>
      <trkpt lat="49.83148" lon="2.29742">
        <ele>58.1</ele>
        <time>2023-08-10T08:35:50Z</time>
      </trkpt>
      <trkpt lat="49.8315" lon="2.29744">
        <ele>58.1</ele>
        <time>2023-08-10T08:35:51Z</time>
      </trkpt>
      <trkpt lat="49.8315" lon="2.29745">
        <ele>58.1</ele>
        <time>2023-08-10T08:35:52Z</time>
      </trkpt>
      <trkpt lat="49.83151" lon="2.29746">
        <ele>58.1</ele>
        <time>2023-08-10T08:35:53Z</time>
      </trkpt>
      <trkpt lat="49.83153" lon="2.29748">
        <ele>58.1</ele>
        <time>2023-08-10T08:35:55Z</time>
      </trkpt>
      <trkpt lat="49.83153" lon="2.29749">
        <ele>58.1</ele>
        <time>2023-08-10T08:35:56Z</time>
      </trkpt>
      <trkpt lat="49.83154" lon="2.2975">
        <ele>58.1</ele>
        <time>2023-08-10T08:35:57Z</time>
      </trkpt>
      <trkpt lat="49.83156" lon="2.29751">
        <ele>58.1</ele>
        <time>2023-08-10T08:35:58Z</time>
      </trkpt>
      <trkpt lat="49.83157" lon="2.29752">
        <ele>58.1</ele>
        <time>2023-08-10T08:35:59Z</time>
      </trkpt>
      <trkpt lat="49.83157" lon="2.29753">
        <ele>58.1</ele>
        <time>2023-08-10T08:36:00Z</time>
      </trkpt>
      <trkpt lat="49.83159" lon="2.29754">
        <ele>58.1</ele>
        <time>2023-08-10T08:36:01Z</time>
      </trkpt>
      <trkpt lat="49.8316" lon="2.29755">
        <ele>58.1</ele>
        <time>2023-08-10T08:36:03Z</time>
      </trkpt>
      <trkpt lat="49.8316" lon="2.29756">
        <ele>58.1</ele>
        <time>2023-08-10T08:36:04Z</time>
      </trkpt>
      <trkpt lat="49.83161" lon="2.29757">
        <ele>58.1</ele>
        <time>2023-08-10T08:36:05Z</time>
      </trkpt>
      <trkpt lat="49.83162" lon="2.29758">
        <ele>58.1</ele>
        <time>2023-08-10T08:36:06Z</time>
      </trkpt>
      <trkpt lat="49.83163" lon="2.29759">
        <ele>58.1</ele>
        <time>2023-08-10T08:36:07Z</time>
      </trkpt>
      <trkpt lat="49.83164" lon="2.2976">
        <ele>58.1</ele>
        <time>2023-08-10T08:36:08Z</time>
      </trkpt>
      <trkpt lat="49.83166" lon="2.29762">
        <ele>58</ele>
        <time>2023-08-10T08:36:09Z</time>
      </trkpt>
      <trkpt lat="49.83167" lon="2.29763">
        <ele>58</ele>
        <time>2023-08-10T08:36:11Z</time>
      </trkpt>
      <trkpt lat="49.83168" lon="2.29764">
        <ele>58</ele>
        <time>2023-08-10T08:36:12Z</time>
      </trkpt>
      <trkpt lat="49.83169" lon="2.29766">
        <ele>58</ele>
        <time>2023-08-10T08:36:13Z</time>
      </trkpt>
      <trkpt lat="49.8317" lon="2.29767">
        <ele>58</ele>
        <time>2023-08-10T08:36:14Z</time>
      </trkpt>
      <trkpt lat="49.83171" lon="2.29768">
        <ele>58</ele>
        <time>2023-08-10T08:36:15Z</time>
      </trkpt>
      <trkpt lat="49.83172" lon="2.29771">
        <ele>58</ele>
        <time>2023-08-10T08:36:16Z</time>
      </trkpt>
      <trkpt lat="49.83173" lon="2.29772">
        <ele>58</ele>
        <time>2023-08-10T08:36:18Z</time>
      </trkpt>
      <trkpt lat="49.83174" lon="2.29773">
        <ele>58</ele>
        <time>2023-08-10T08:36:19Z</time>
      </trkpt>
      <trkpt lat="49.83174" lon="2.29774">
        <ele>58</ele>
        <time>2023-08-10T08:36:20Z</time>
      </trkpt>
      <trkpt lat="49.83175" lon="2.29775">
        <ele>58</ele>
        <time>2023-08-10T08:36:21Z</time>
      </trkpt>
      <trkpt lat="49.83177" lon="2.29778">
        <ele>58</ele>
        <time>2023-08-10T08:36:22Z</time>
      </trkpt>
      <trkpt lat="49.83178" lon="2.29779">
        <ele>58</ele>
        <time>2023-08-10T08:36:24Z</time>
      </trkpt>
      <trkpt lat="49.83178" lon="2.2978">
        <ele>58</ele>
        <time>2023-08-10T08:36:25Z</time>
      </trkpt>
      <trkpt lat="49.83179" lon="2.29781">
        <ele>58</ele>
        <time>2023-08-10T08:36:26Z</time>
      </trkpt>
      <trkpt lat="49.8318" lon="2.29782">
        <ele>58</ele>
        <time>2023-08-10T08:36:27Z</time>
      </trkpt>
      <trkpt lat="49.83181" lon="2.29784">
        <ele>58</ele>
        <time>2023-08-10T08:36:28Z</time>
      </trkpt>
      <trkpt lat="49.83182" lon="2.29785">
        <ele>57.9</ele>
        <time>2023-08-10T08:36:29Z</time>
      </trkpt>
      <trkpt lat="49.83182" lon="2.29786">
        <ele>57.9</ele>
        <time>2023-08-10T08:36:30Z</time>
      </trkpt>
      <trkpt lat="49.83184" lon="2.29788">
        <ele>57.9</ele>
        <time>2023-08-10T08:36:31Z</time>
      </trkpt>
      <trkpt lat="49.83184" lon="2.29789">
        <ele>57.9</ele>
        <time>2023-08-10T08:36:32Z</time>
      </trkpt>
      <trkpt lat="49.83185" lon="2.2979">
        <ele>57.9</ele>
        <time>2023-08-10T08:36:33Z</time>
      </trkpt>
      <trkpt lat="49.83187" lon="2.29793">
        <ele>57.9</ele>
        <time>2023-08-10T08:36:35Z</time>
      </trkpt>
      <trkpt lat="49.83188" lon="2.29794">
        <ele>57.9</ele>
        <time>2023-08-10T08:36:36Z</time>
      </trkpt>
      <trkpt lat="49.83189" lon="2.29795">
        <ele>57.9</ele>
        <time>2023-08-10T08:36:37Z</time>
      </trkpt>
      <trkpt lat="49.8319" lon="2.29796">
        <ele>57.9</ele>
        <time>2023-08-10T08:36:38Z</time>
      </trkpt>
      <trkpt lat="49.83191" lon="2.29797">
        <ele>57.9</ele>
        <time>2023-08-10T08:36:39Z</time>
      </trkpt>
      <trkpt lat="49.83192" lon="2.29799">
        <ele>57.9</ele>
        <time>2023-08-10T08:36:40Z</time>
      </trkpt>
      <trkpt lat="49.83193" lon="2.298">
        <ele>57.9</ele>
        <time>2023-08-10T08:36:41Z</time>
      </trkpt>
      <trkpt lat="49.83195" lon="2.29802">
        <ele>57.9</ele>
        <time>2023-08-10T08:36:42Z</time>
      </trkpt>
      <trkpt lat="49.83195" lon="2.29803">
        <ele>57.9</ele>
        <time>2023-08-10T08:36:44Z</time>
      </trkpt>
      <trkpt lat="49.83196" lon="2.29804">
        <ele>57.9</ele>
        <time>2023-08-10T08:36:45Z</time>
      </trkpt>
      <trkpt lat="49.83197" lon="2.29806">
        <ele>57.9</ele>
        <time>2023-08-10T08:36:46Z</time>
      </trkpt>
      <trkpt lat="49.83198" lon="2.29808">
        <ele>57.9</ele>
        <time>2023-08-10T08:36:47Z</time>
      </trkpt>
      <trkpt lat="49.83199" lon="2.2981">
        <ele>57.9</ele>
        <time>2023-08-10T08:36:48Z</time>
      </trkpt>
      <trkpt lat="49.832" lon="2.29811">
        <ele>57.9</ele>
        <time>2023-08-10T08:36:49Z</time>
      </trkpt>
      <trkpt lat="49.832" lon="2.29812">
        <ele>57.9</ele>
        <time>2023-08-10T08:36:50Z</time>
      </trkpt>
      <trkpt lat="49.83202" lon="2.29815">
        <ele>57.9</ele>
        <time>2023-08-10T08:36:51Z</time>
      </trkpt>
      <trkpt lat="49.83202" lon="2.29816">
        <ele>57.9</ele>
        <time>2023-08-10T08:36:52Z</time>
      </trkpt>
      <trkpt lat="49.83203" lon="2.29817">
        <ele>57.9</ele>
        <time>2023-08-10T08:36:53Z</time>
      </trkpt>
      <trkpt lat="49.83204" lon="2.29818">
        <ele>57.9</ele>
        <time>2023-08-10T08:36:55Z</time>
      </trkpt>
      <trkpt lat="49.83205" lon="2.2982">
        <ele>57.9</ele>
        <time>2023-08-10T08:36:56Z</time>
      </trkpt>
      <trkpt lat="49.83206" lon="2.29821">
        <ele>57.9</ele>
        <time>2023-08-10T08:36:57Z</time>
      </trkpt>
      <trkpt lat="49.83207" lon="2.29823">
        <ele>57.9</ele>
        <time>2023-08-10T08:36:58Z</time>
      </trkpt>
      <trkpt lat="49.83207" lon="2.29824">
        <ele>57.9</ele>
        <time>2023-08-10T08:36:59Z</time>
      </trkpt>
      <trkpt lat="49.83208" lon="2.29826">
        <ele>57.9</ele>
        <time>2023-08-10T08:37:00Z</time>
      </trkpt>
      <trkpt lat="49.83209" lon="2.29827">
        <ele>57.9</ele>
        <time>2023-08-10T08:37:01Z</time>
      </trkpt>
      <trkpt lat="49.8321" lon="2.29829">
        <ele>57.9</ele>
        <time>2023-08-10T08:37:03Z</time>
      </trkpt>
      <trkpt lat="49.8321" lon="2.2983">
        <ele>57.9</ele>
        <time>2023-08-10T08:37:04Z</time>
      </trkpt>
      <trkpt lat="49.83211" lon="2.29831">
        <ele>57.9</ele>
        <time>2023-08-10T08:37:05Z</time>
      </trkpt>
      <trkpt lat="49.83212" lon="2.29832">
        <ele>57.9</ele>
        <time>2023-08-10T08:37:06Z</time>
      </trkpt>
      <trkpt lat="49.83213" lon="2.29835">
        <ele>57.9</ele>
        <time>2023-08-10T08:37:07Z</time>
      </trkpt>
      <trkpt lat="49.83213" lon="2.29836">
        <ele>57.9</ele>
        <time>2023-08-10T08:37:08Z</time>
      </trkpt>
      <trkpt lat="49.83214" lon="2.29837">
        <ele>57.8</ele>
        <time>2023-08-10T08:37:09Z</time>
      </trkpt>
      <trkpt lat="49.83214" lon="2.29838">
        <ele>57.8</ele>
        <time>2023-08-10T08:37:10Z</time>
      </trkpt>
      <trkpt lat="49.83215" lon="2.29839">
        <ele>57.8</ele>
        <time>2023-08-10T08:37:11Z</time>
      </trkpt>
      <trkpt lat="49.83215" lon="2.2984">
        <ele>57.8</ele>
        <time>2023-08-10T08:37:13Z</time>
      </trkpt>
      <trkpt lat="49.83216" lon="2.29842">
        <ele>57.8</ele>
        <time>2023-08-10T08:37:14Z</time>
      </trkpt>
      <trkpt lat="49.83217" lon="2.29843">
        <ele>57.8</ele>
        <time>2023-08-10T08:37:15Z</time>
      </trkpt>
      <trkpt lat="49.83218" lon="2.29844">
        <ele>57.8</ele>
        <time>2023-08-10T08:37:16Z</time>
      </trkpt>
      <trkpt lat="49.83219" lon="2.29847">
        <ele>57.8</ele>
        <time>2023-08-10T08:37:17Z</time>
      </trkpt>
      <trkpt lat="49.83219" lon="2.29848">
        <ele>57.8</ele>
        <time>2023-08-10T08:37:18Z</time>
      </trkpt>
      <trkpt lat="49.8322" lon="2.29849">
        <ele>57.8</ele>
        <time>2023-08-10T08:37:19Z</time>
      </trkpt>
      <trkpt lat="49.8322" lon="2.2985">
        <ele>57.8</ele>
        <time>2023-08-10T08:37:20Z</time>
      </trkpt>
      <trkpt lat="49.83221" lon="2.29852">
        <ele>57.8</ele>
        <time>2023-08-10T08:37:21Z</time>
      </trkpt>
      <trkpt lat="49.83222" lon="2.29854">
        <ele>57.8</ele>
        <time>2023-08-10T08:37:23Z</time>
      </trkpt>
      <trkpt lat="49.83223" lon="2.29857">
        <ele>57.8</ele>
        <time>2023-08-10T08:37:24Z</time>
      </trkpt>
      <trkpt lat="49.83224" lon="2.29858">
        <ele>57.8</ele>
        <time>2023-08-10T08:37:25Z</time>
      </trkpt>
      <trkpt lat="49.83224" lon="2.2986">
        <ele>57.8</ele>
        <time>2023-08-10T08:37:26Z</time>
      </trkpt>
      <trkpt lat="49.83225" lon="2.29862">
        <ele>57.8</ele>
        <time>2023-08-10T08:37:27Z</time>
      </trkpt>
      <trkpt lat="49.83225" lon="2.29863">
        <ele>57.8</ele>
        <time>2023-08-10T08:37:28Z</time>
      </trkpt>
      <trkpt lat="49.83226" lon="2.29865">
        <ele>57.8</ele>
        <time>2023-08-10T08:37:29Z</time>
      </trkpt>
      <trkpt lat="49.83226" lon="2.29866">
        <ele>57.8</ele>
        <time>2023-08-10T08:37:31Z</time>
      </trkpt>
      <trkpt lat="49.83227" lon="2.29868">
        <ele>57.7</ele>
        <time>2023-08-10T08:37:32Z</time>
      </trkpt>
      <trkpt lat="49.83227" lon="2.29869">
        <ele>57.7</ele>
        <time>2023-08-10T08:37:33Z</time>
      </trkpt>
      <trkpt lat="49.83228" lon="2.29872">
        <ele>57.7</ele>
        <time>2023-08-10T08:37:34Z</time>
      </trkpt>
      <trkpt lat="49.83228" lon="2.29873">
        <ele>57.7</ele>
        <time>2023-08-10T08:37:35Z</time>
      </trkpt>
      <trkpt lat="49.83229" lon="2.29876">
        <ele>57.7</ele>
        <time>2023-08-10T08:37:37Z</time>
      </trkpt>
      <trkpt lat="49.83229" lon="2.29878">
        <ele>57.7</ele>
        <time>2023-08-10T08:37:38Z</time>
      </trkpt>
      <trkpt lat="49.8323" lon="2.2988">
        <ele>57.7</ele>
        <time>2023-08-10T08:37:39Z</time>
      </trkpt>
      <trkpt lat="49.83231" lon="2.29882">
        <ele>57.7</ele>
        <time>2023-08-10T08:37:41Z</time>
      </trkpt>
      <trkpt lat="49.83231" lon="2.29884">
        <ele>57.7</ele>
        <time>2023-08-10T08:37:42Z</time>
      </trkpt>
      <trkpt lat="49.83232" lon="2.29886">
        <ele>57.7</ele>
        <time>2023-08-10T08:37:43Z</time>
      </trkpt>
      <trkpt lat="49.83233" lon="2.29888">
        <ele>57.7</ele>
        <time>2023-08-10T08:37:44Z</time>
      </trkpt>
      <trkpt lat="49.83233" lon="2.2989">
        <ele>57.7</ele>
        <time>2023-08-10T08:37:45Z</time>
      </trkpt>
      <trkpt lat="49.83235" lon="2.29893">
        <ele>57.7</ele>
        <time>2023-08-10T08:37:46Z</time>
      </trkpt>
      <trkpt lat="49.83235" lon="2.29894">
        <ele>57.7</ele>
        <time>2023-08-10T08:37:47Z</time>
      </trkpt>
      <trkpt lat="49.83235" lon="2.29895">
        <ele>57.7</ele>
        <time>2023-08-10T08:37:48Z</time>
      </trkpt>
      <trkpt lat="49.83236" lon="2.29897">
        <ele>57.7</ele>
        <time>2023-08-10T08:37:50Z</time>
      </trkpt>
      <trkpt lat="49.83237" lon="2.29899">
        <ele>57.7</ele>
        <time>2023-08-10T08:37:51Z</time>
      </trkpt>
      <trkpt lat="49.83237" lon="2.29902">
        <ele>57.7</ele>
        <time>2023-08-10T08:37:52Z</time>
      </trkpt>
      <trkpt lat="49.83238" lon="2.29904">
        <ele>57.6</ele>
        <time>2023-08-10T08:37:53Z</time>
      </trkpt>
      <trkpt lat="49.83238" lon="2.29905">
        <ele>57.6</ele>
        <time>2023-08-10T08:37:54Z</time>
      </trkpt>
      <trkpt lat="49.83239" lon="2.29908">
        <ele>57.6</ele>
        <time>2023-08-10T08:37:55Z</time>
      </trkpt>
      <trkpt lat="49.8324" lon="2.29909">
        <ele>57.6</ele>
        <time>2023-08-10T08:37:56Z</time>
      </trkpt>
      <trkpt lat="49.8324" lon="2.2991">
        <ele>57.6</ele>
        <time>2023-08-10T08:37:57Z</time>
      </trkpt>
      <trkpt lat="49.83242" lon="2.29913">
        <ele>57.6</ele>
        <time>2023-08-10T08:37:58Z</time>
      </trkpt>
      <trkpt lat="49.83242" lon="2.29914">
        <ele>57.6</ele>
        <time>2023-08-10T08:37:59Z</time>
      </trkpt>
      <trkpt lat="49.83243" lon="2.29915">
        <ele>57.6</ele>
        <time>2023-08-10T08:38:00Z</time>
      </trkpt>
      <trkpt lat="49.83243" lon="2.29917">
        <ele>57.6</ele>
        <time>2023-08-10T08:38:01Z</time>
      </trkpt>
      <trkpt lat="49.83244" lon="2.29919">
        <ele>57.6</ele>
        <time>2023-08-10T08:38:02Z</time>
      </trkpt>
      <trkpt lat="49.83245" lon="2.2992">
        <ele>57.6</ele>
        <time>2023-08-10T08:38:04Z</time>
      </trkpt>
      <trkpt lat="49.83245" lon="2.29922">
        <ele>57.6</ele>
        <time>2023-08-10T08:38:05Z</time>
      </trkpt>
      <trkpt lat="49.83246" lon="2.29924">
        <ele>57.6</ele>
        <time>2023-08-10T08:38:06Z</time>
      </trkpt>
      <trkpt lat="49.83247" lon="2.29925">
        <ele>57.6</ele>
        <time>2023-08-10T08:38:07Z</time>
      </trkpt>
      <trkpt lat="49.83248" lon="2.29927">
        <ele>57.6</ele>
        <time>2023-08-10T08:38:08Z</time>
      </trkpt>
      <trkpt lat="49.83249" lon="2.29928">
        <ele>57.6</ele>
        <time>2023-08-10T08:38:09Z</time>
      </trkpt>
      <trkpt lat="49.8325" lon="2.29929">
        <ele>57.6</ele>
        <time>2023-08-10T08:38:10Z</time>
      </trkpt>
      <trkpt lat="49.83251" lon="2.29931">
        <ele>57.6</ele>
        <time>2023-08-10T08:38:12Z</time>
      </trkpt>
      <trkpt lat="49.83251" lon="2.29933">
        <ele>57.6</ele>
        <time>2023-08-10T08:38:13Z</time>
      </trkpt>
      <trkpt lat="49.83252" lon="2.29935">
        <ele>57.6</ele>
        <time>2023-08-10T08:38:14Z</time>
      </trkpt>
      <trkpt lat="49.83253" lon="2.29937">
        <ele>57.6</ele>
        <time>2023-08-10T08:38:15Z</time>
      </trkpt>
      <trkpt lat="49.83254" lon="2.2994">
        <ele>57.6</ele>
        <time>2023-08-10T08:38:16Z</time>
      </trkpt>
      <trkpt lat="49.83255" lon="2.29941">
        <ele>57.6</ele>
        <time>2023-08-10T08:38:17Z</time>
      </trkpt>
      <trkpt lat="49.83256" lon="2.29943">
        <ele>57.6</ele>
        <time>2023-08-10T08:38:18Z</time>
      </trkpt>
      <trkpt lat="49.83257" lon="2.29944">
        <ele>57.6</ele>
        <time>2023-08-10T08:38:19Z</time>
      </trkpt>
      <trkpt lat="49.83257" lon="2.29946">
        <ele>57.7</ele>
        <time>2023-08-10T08:38:20Z</time>
      </trkpt>
      <trkpt lat="49.83259" lon="2.29948">
        <ele>57.7</ele>
        <time>2023-08-10T08:38:22Z</time>
      </trkpt>
      <trkpt lat="49.83259" lon="2.2995">
        <ele>57.7</ele>
        <time>2023-08-10T08:38:23Z</time>
      </trkpt>
      <trkpt lat="49.8326" lon="2.29952">
        <ele>57.7</ele>
        <time>2023-08-10T08:38:24Z</time>
      </trkpt>
      <trkpt lat="49.83261" lon="2.29954">
        <ele>57.7</ele>
        <time>2023-08-10T08:38:25Z</time>
      </trkpt>
      <trkpt lat="49.83262" lon="2.29954">
        <ele>57.7</ele>
        <time>2023-08-10T08:38:26Z</time>
      </trkpt>
      <trkpt lat="49.83262" lon="2.29955">
        <ele>57.7</ele>
        <time>2023-08-10T08:38:27Z</time>
      </trkpt>
      <trkpt lat="49.83263" lon="2.29956">
        <ele>57.7</ele>
        <time>2023-08-10T08:38:28Z</time>
      </trkpt>
      <trkpt lat="49.83264" lon="2.29958">
        <ele>57.7</ele>
        <time>2023-08-10T08:38:30Z</time>
      </trkpt>
      <trkpt lat="49.83265" lon="2.2996">
        <ele>57.7</ele>
        <time>2023-08-10T08:38:31Z</time>
      </trkpt>
      <trkpt lat="49.83266" lon="2.29963">
        <ele>57.7</ele>
        <time>2023-08-10T08:38:32Z</time>
      </trkpt>
      <trkpt lat="49.83266" lon="2.29964">
        <ele>57.7</ele>
        <time>2023-08-10T08:38:33Z</time>
      </trkpt>
      <trkpt lat="49.83267" lon="2.29966">
        <ele>57.7</ele>
        <time>2023-08-10T08:38:34Z</time>
      </trkpt>
      <trkpt lat="49.83268" lon="2.29968">
        <ele>57.7</ele>
        <time>2023-08-10T08:38:36Z</time>
      </trkpt>
      <trkpt lat="49.83268" lon="2.2997">
        <ele>57.7</ele>
        <time>2023-08-10T08:38:37Z</time>
      </trkpt>
      <trkpt lat="49.83269" lon="2.29972">
        <ele>57.7</ele>
        <time>2023-08-10T08:38:38Z</time>
      </trkpt>
      <trkpt lat="49.8327" lon="2.29973">
        <ele>57.7</ele>
        <time>2023-08-10T08:38:40Z</time>
      </trkpt>
      <trkpt lat="49.8327" lon="2.29974">
        <ele>57.7</ele>
        <time>2023-08-10T08:38:41Z</time>
      </trkpt>
      <trkpt lat="49.83271" lon="2.29977">
        <ele>57.7</ele>
        <time>2023-08-10T08:38:42Z</time>
      </trkpt>
      <trkpt lat="49.83272" lon="2.29978">
        <ele>57.7</ele>
        <time>2023-08-10T08:38:43Z</time>
      </trkpt>
      <trkpt lat="49.83272" lon="2.29979">
        <ele>57.7</ele>
        <time>2023-08-10T08:38:44Z</time>
      </trkpt>
      <trkpt lat="49.83273" lon="2.29981">
        <ele>57.7</ele>
        <time>2023-08-10T08:38:45Z</time>
      </trkpt>
      <trkpt lat="49.83274" lon="2.29982">
        <ele>57.7</ele>
        <time>2023-08-10T08:38:46Z</time>
      </trkpt>
      <trkpt lat="49.83275" lon="2.29984">
        <ele>57.7</ele>
        <time>2023-08-10T08:38:48Z</time>
      </trkpt>
      <trkpt lat="49.83275" lon="2.29985">
        <ele>57.7</ele>
        <time>2023-08-10T08:38:49Z</time>
      </trkpt>
      <trkpt lat="49.83276" lon="2.29987">
        <ele>57.7</ele>
        <time>2023-08-10T08:38:50Z</time>
      </trkpt>
      <trkpt lat="49.83277" lon="2.29988">
        <ele>57.7</ele>
        <time>2023-08-10T08:38:51Z</time>
      </trkpt>
      <trkpt lat="49.83278" lon="2.2999">
        <ele>57.7</ele>
        <time>2023-08-10T08:38:53Z</time>
      </trkpt>
      <trkpt lat="49.83278" lon="2.29992">
        <ele>57.7</ele>
        <time>2023-08-10T08:38:54Z</time>
      </trkpt>
      <trkpt lat="49.83279" lon="2.29994">
        <ele>57.7</ele>
        <time>2023-08-10T08:38:55Z</time>
      </trkpt>
      <trkpt lat="49.8328" lon="2.29995">
        <ele>57.7</ele>
        <time>2023-08-10T08:38:56Z</time>
      </trkpt>
      <trkpt lat="49.83281" lon="2.29997">
        <ele>57.8</ele>
        <time>2023-08-10T08:38:57Z</time>
      </trkpt>
      <trkpt lat="49.83282" lon="2.29999">
        <ele>57.8</ele>
        <time>2023-08-10T08:38:58Z</time>
      </trkpt>
      <trkpt lat="49.83283" lon="2.30001">
        <ele>57.8</ele>
        <time>2023-08-10T08:38:59Z</time>
      </trkpt>
      <trkpt lat="49.83284" lon="2.30003">
        <ele>57.8</ele>
        <time>2023-08-10T08:39:01Z</time>
      </trkpt>
      <trkpt lat="49.83284" lon="2.30004">
        <ele>57.8</ele>
        <time>2023-08-10T08:39:02Z</time>
      </trkpt>
      <trkpt lat="49.83286" lon="2.30006">
        <ele>57.8</ele>
        <time>2023-08-10T08:39:03Z</time>
      </trkpt>
      <trkpt lat="49.83286" lon="2.30007">
        <ele>57.8</ele>
        <time>2023-08-10T08:39:04Z</time>
      </trkpt>
      <trkpt lat="49.83287" lon="2.30008">
        <ele>57.8</ele>
        <time>2023-08-10T08:39:05Z</time>
      </trkpt>
      <trkpt lat="49.83288" lon="2.30009">
        <ele>57.8</ele>
        <time>2023-08-10T08:39:06Z</time>
      </trkpt>
      <trkpt lat="49.83289" lon="2.30011">
        <ele>57.8</ele>
        <time>2023-08-10T08:39:07Z</time>
      </trkpt>
      <trkpt lat="49.8329" lon="2.30012">
        <ele>57.8</ele>
        <time>2023-08-10T08:39:08Z</time>
      </trkpt>
      <trkpt lat="49.83291" lon="2.30015">
        <ele>57.8</ele>
        <time>2023-08-10T08:39:10Z</time>
      </trkpt>
      <trkpt lat="49.83293" lon="2.30016">
        <ele>57.8</ele>
        <time>2023-08-10T08:39:11Z</time>
      </trkpt>
      <trkpt lat="49.83294" lon="2.30018">
        <ele>57.8</ele>
        <time>2023-08-10T08:39:12Z</time>
      </trkpt>
      <trkpt lat="49.83295" lon="2.3002">
        <ele>57.9</ele>
        <time>2023-08-10T08:39:13Z</time>
      </trkpt>
      <trkpt lat="49.83296" lon="2.30021">
        <ele>57.9</ele>
        <time>2023-08-10T08:39:14Z</time>
      </trkpt>
      <trkpt lat="49.83297" lon="2.30023">
        <ele>57.9</ele>
        <time>2023-08-10T08:39:15Z</time>
      </trkpt>
      <trkpt lat="49.83298" lon="2.30024">
        <ele>57.9</ele>
        <time>2023-08-10T08:39:16Z</time>
      </trkpt>
      <trkpt lat="49.83298" lon="2.30025">
        <ele>57.9</ele>
        <time>2023-08-10T08:39:17Z</time>
      </trkpt>
      <trkpt lat="49.833" lon="2.30028">
        <ele>57.9</ele>
        <time>2023-08-10T08:39:18Z</time>
      </trkpt>
      <trkpt lat="49.83301" lon="2.30029">
        <ele>57.8</ele>
        <time>2023-08-10T08:39:19Z</time>
      </trkpt>
      <trkpt lat="49.83301" lon="2.3003">
        <ele>57.8</ele>
        <time>2023-08-10T08:39:21Z</time>
      </trkpt>
      <trkpt lat="49.83302" lon="2.30031">
        <ele>57.8</ele>
        <time>2023-08-10T08:39:22Z</time>
      </trkpt>
      <trkpt lat="49.83303" lon="2.30033">
        <ele>57.8</ele>
        <time>2023-08-10T08:39:23Z</time>
      </trkpt>
      <trkpt lat="49.83304" lon="2.30034">
        <ele>57.8</ele>
        <time>2023-08-10T08:39:24Z</time>
      </trkpt>
      <trkpt lat="49.83305" lon="2.30036">
        <ele>57.8</ele>
        <time>2023-08-10T08:39:25Z</time>
      </trkpt>
      <trkpt lat="49.83305" lon="2.30037">
        <ele>57.8</ele>
        <time>2023-08-10T08:39:26Z</time>
      </trkpt>
      <trkpt lat="49.83306" lon="2.30038">
        <ele>57.8</ele>
        <time>2023-08-10T08:39:27Z</time>
      </trkpt>
      <trkpt lat="49.83306" lon="2.30041">
        <ele>57.8</ele>
        <time>2023-08-10T08:39:28Z</time>
      </trkpt>
      <trkpt lat="49.83307" lon="2.30042">
        <ele>57.8</ele>
        <time>2023-08-10T08:39:29Z</time>
      </trkpt>
      <trkpt lat="49.83307" lon="2.30043">
        <ele>57.8</ele>
        <time>2023-08-10T08:39:30Z</time>
      </trkpt>
      <trkpt lat="49.83308" lon="2.30043">
        <ele>57.8</ele>
        <time>2023-08-10T08:39:31Z</time>
      </trkpt>
      <trkpt lat="49.83309" lon="2.30047">
        <ele>57.8</ele>
        <time>2023-08-10T08:39:33Z</time>
      </trkpt>
      <trkpt lat="49.8331" lon="2.30048">
        <ele>57.7</ele>
        <time>2023-08-10T08:39:34Z</time>
      </trkpt>
      <trkpt lat="49.83311" lon="2.3005">
        <ele>57.7</ele>
        <time>2023-08-10T08:39:35Z</time>
      </trkpt>
      <trkpt lat="49.83312" lon="2.30052">
        <ele>57.7</ele>
        <time>2023-08-10T08:39:36Z</time>
      </trkpt>
      <trkpt lat="49.83313" lon="2.30054">
        <ele>57.7</ele>
        <time>2023-08-10T08:39:37Z</time>
      </trkpt>
      <trkpt lat="49.83314" lon="2.30057">
        <ele>57.7</ele>
        <time>2023-08-10T08:39:39Z</time>
      </trkpt>
      <trkpt lat="49.83315" lon="2.30058">
        <ele>57.6</ele>
        <time>2023-08-10T08:39:40Z</time>
      </trkpt>
      <trkpt lat="49.83315" lon="2.30059">
        <ele>57.6</ele>
        <time>2023-08-10T08:39:41Z</time>
      </trkpt>
      <trkpt lat="49.83316" lon="2.3006">
        <ele>57.6</ele>
        <time>2023-08-10T08:39:42Z</time>
      </trkpt>
      <trkpt lat="49.83316" lon="2.30061">
        <ele>57.6</ele>
        <time>2023-08-10T08:39:43Z</time>
      </trkpt>
      <trkpt lat="49.83317" lon="2.30063">
        <ele>57.6</ele>
        <time>2023-08-10T08:39:45Z</time>
      </trkpt>
      <trkpt lat="49.83318" lon="2.30064">
        <ele>57.6</ele>
        <time>2023-08-10T08:39:46Z</time>
      </trkpt>
      <trkpt lat="49.83319" lon="2.30067">
        <ele>57.5</ele>
        <time>2023-08-10T08:39:47Z</time>
      </trkpt>
      <trkpt lat="49.8332" lon="2.30068">
        <ele>57.5</ele>
        <time>2023-08-10T08:39:48Z</time>
      </trkpt>
      <trkpt lat="49.8332" lon="2.30069">
        <ele>57.5</ele>
        <time>2023-08-10T08:39:49Z</time>
      </trkpt>
      <trkpt lat="49.83321" lon="2.30071">
        <ele>57.5</ele>
        <time>2023-08-10T08:39:51Z</time>
      </trkpt>
      <trkpt lat="49.83322" lon="2.30073">
        <ele>57.5</ele>
        <time>2023-08-10T08:39:52Z</time>
      </trkpt>
      <trkpt lat="49.83323" lon="2.30076">
        <ele>57.5</ele>
        <time>2023-08-10T08:39:53Z</time>
      </trkpt>
      <trkpt lat="49.83323" lon="2.30077">
        <ele>57.4</ele>
        <time>2023-08-10T08:39:54Z</time>
      </trkpt>
      <trkpt lat="49.83324" lon="2.30078">
        <ele>57.4</ele>
        <time>2023-08-10T08:39:55Z</time>
      </trkpt>
      <trkpt lat="49.83325" lon="2.30081">
        <ele>57.4</ele>
        <time>2023-08-10T08:39:56Z</time>
      </trkpt>
      <trkpt lat="49.83326" lon="2.30082">
        <ele>57.4</ele>
        <time>2023-08-10T08:39:58Z</time>
      </trkpt>
      <trkpt lat="49.83327" lon="2.30082">
        <ele>57.4</ele>
        <time>2023-08-10T08:39:59Z</time>
      </trkpt>
      <trkpt lat="49.83327" lon="2.30084">
        <ele>57.4</ele>
        <time>2023-08-10T08:40:00Z</time>
      </trkpt>
      <trkpt lat="49.83328" lon="2.30085">
        <ele>57.4</ele>
        <time>2023-08-10T08:40:01Z</time>
      </trkpt>
      <trkpt lat="49.83329" lon="2.30086">
        <ele>57.3</ele>
        <time>2023-08-10T08:40:02Z</time>
      </trkpt>
      <trkpt lat="49.8333" lon="2.30089">
        <ele>57.3</ele>
        <time>2023-08-10T08:40:03Z</time>
      </trkpt>
      <trkpt lat="49.83331" lon="2.3009">
        <ele>57.3</ele>
        <time>2023-08-10T08:40:04Z</time>
      </trkpt>
      <trkpt lat="49.83331" lon="2.30091">
        <ele>57.3</ele>
        <time>2023-08-10T08:40:05Z</time>
      </trkpt>
      <trkpt lat="49.83332" lon="2.30093">
        <ele>57.3</ele>
        <time>2023-08-10T08:40:06Z</time>
      </trkpt>
      <trkpt lat="49.83332" lon="2.30094">
        <ele>57.3</ele>
        <time>2023-08-10T08:40:07Z</time>
      </trkpt>
      <trkpt lat="49.83333" lon="2.30096">
        <ele>57.3</ele>
        <time>2023-08-10T08:40:09Z</time>
      </trkpt>
      <trkpt lat="49.83335" lon="2.30096">
        <ele>57.3</ele>
        <time>2023-08-10T08:40:11Z</time>
      </trkpt>
      <trkpt lat="49.83335" lon="2.30095">
        <ele>57.2</ele>
        <time>2023-08-10T08:40:12Z</time>
      </trkpt>
      <trkpt lat="49.83335" lon="2.30095">
        <ele>57.2</ele>
        <time>2023-08-10T08:40:13Z</time>
      </trkpt>
      <trkpt lat="49.83335" lon="2.30095">
        <ele>57.2</ele>
        <time>2023-08-10T08:40:14Z</time>
      </trkpt>
      <trkpt lat="49.83335" lon="2.30096">
        <ele>57.2</ele>
        <time>2023-08-10T08:40:15Z</time>
      </trkpt>
      <trkpt lat="49.83336" lon="2.30097">
        <ele>57.2</ele>
        <time>2023-08-10T08:40:17Z</time>
      </trkpt>
      <trkpt lat="49.83336" lon="2.30098">
        <ele>57.2</ele>
        <time>2023-08-10T08:40:18Z</time>
      </trkpt>
      <trkpt lat="49.83337" lon="2.30099">
        <ele>57.2</ele>
        <time>2023-08-10T08:40:19Z</time>
      </trkpt>
      <trkpt lat="49.83337" lon="2.301">
        <ele>57.2</ele>
        <time>2023-08-10T08:40:20Z</time>
      </trkpt>
      <trkpt lat="49.83338" lon="2.30102">
        <ele>57.2</ele>
        <time>2023-08-10T08:40:21Z</time>
      </trkpt>
      <trkpt lat="49.83339" lon="2.30104">
        <ele>57.2</ele>
        <time>2023-08-10T08:40:22Z</time>
      </trkpt>
      <trkpt lat="49.8334" lon="2.30106">
        <ele>57.2</ele>
        <time>2023-08-10T08:40:24Z</time>
      </trkpt>
      <trkpt lat="49.83341" lon="2.30108">
        <ele>57.2</ele>
        <time>2023-08-10T08:40:25Z</time>
      </trkpt>
      <trkpt lat="49.83342" lon="2.3011">
        <ele>57.1</ele>
        <time>2023-08-10T08:40:26Z</time>
      </trkpt>
      <trkpt lat="49.83343" lon="2.30112">
        <ele>57.1</ele>
        <time>2023-08-10T08:40:27Z</time>
      </trkpt>
      <trkpt lat="49.83344" lon="2.30114">
        <ele>57.1</ele>
        <time>2023-08-10T08:40:28Z</time>
      </trkpt>
      <trkpt lat="49.83345" lon="2.30116">
        <ele>57.1</ele>
        <time>2023-08-10T08:40:29Z</time>
      </trkpt>
      <trkpt lat="49.83347" lon="2.30119">
        <ele>57.1</ele>
        <time>2023-08-10T08:40:31Z</time>
      </trkpt>
      <trkpt lat="49.83348" lon="2.3012">
        <ele>57.1</ele>
        <time>2023-08-10T08:40:32Z</time>
      </trkpt>
      <trkpt lat="49.8335" lon="2.30121">
        <ele>57.1</ele>
        <time>2023-08-10T08:40:34Z</time>
      </trkpt>
      <trkpt lat="49.83351" lon="2.30123">
        <ele>57.1</ele>
        <time>2023-08-10T08:40:35Z</time>
      </trkpt>
      <trkpt lat="49.83352" lon="2.30124">
        <ele>57.1</ele>
        <time>2023-08-10T08:40:36Z</time>
      </trkpt>
      <trkpt lat="49.83353" lon="2.30125">
        <ele>57.1</ele>
        <time>2023-08-10T08:40:37Z</time>
      </trkpt>
      <trkpt lat="49.83354" lon="2.30127">
        <ele>57.1</ele>
        <time>2023-08-10T08:40:38Z</time>
      </trkpt>
      <trkpt lat="49.83355" lon="2.30128">
        <ele>57.1</ele>
        <time>2023-08-10T08:40:39Z</time>
      </trkpt>
      <trkpt lat="49.83356" lon="2.30129">
        <ele>57.1</ele>
        <time>2023-08-10T08:40:40Z</time>
      </trkpt>
      <trkpt lat="49.83357" lon="2.3013">
        <ele>57.1</ele>
        <time>2023-08-10T08:40:41Z</time>
      </trkpt>
      <trkpt lat="49.83357" lon="2.30131">
        <ele>57.1</ele>
        <time>2023-08-10T08:40:42Z</time>
      </trkpt>
      <trkpt lat="49.83358" lon="2.30132">
        <ele>57.2</ele>
        <time>2023-08-10T08:40:43Z</time>
      </trkpt>
      <trkpt lat="49.83359" lon="2.30133">
        <ele>57.2</ele>
        <time>2023-08-10T08:40:44Z</time>
      </trkpt>
      <trkpt lat="49.8336" lon="2.30134">
        <ele>57.2</ele>
        <time>2023-08-10T08:40:46Z</time>
      </trkpt>
      <trkpt lat="49.83361" lon="2.30135">
        <ele>57.2</ele>
        <time>2023-08-10T08:40:47Z</time>
      </trkpt>
      <trkpt lat="49.83361" lon="2.30136">
        <ele>57.2</ele>
        <time>2023-08-10T08:40:48Z</time>
      </trkpt>
      <trkpt lat="49.83362" lon="2.30137">
        <ele>57.2</ele>
        <time>2023-08-10T08:40:49Z</time>
      </trkpt>
      <trkpt lat="49.83363" lon="2.30139">
        <ele>57.2</ele>
        <time>2023-08-10T08:40:50Z</time>
      </trkpt>
      <trkpt lat="49.83363" lon="2.3014">
        <ele>57.2</ele>
        <time>2023-08-10T08:40:51Z</time>
      </trkpt>
      <trkpt lat="49.83364" lon="2.30143">
        <ele>57.2</ele>
        <time>2023-08-10T08:40:52Z</time>
      </trkpt>
      <trkpt lat="49.83365" lon="2.30144">
        <ele>57.2</ele>
        <time>2023-08-10T08:40:54Z</time>
      </trkpt>
      <trkpt lat="49.83365" lon="2.30145">
        <ele>57.3</ele>
        <time>2023-08-10T08:40:55Z</time>
      </trkpt>
      <trkpt lat="49.83367" lon="2.30147">
        <ele>57.3</ele>
        <time>2023-08-10T08:40:56Z</time>
      </trkpt>
      <trkpt lat="49.83367" lon="2.30148">
        <ele>57.3</ele>
        <time>2023-08-10T08:40:57Z</time>
      </trkpt>
      <trkpt lat="49.83368" lon="2.3015">
        <ele>57.3</ele>
        <time>2023-08-10T08:40:58Z</time>
      </trkpt>
      <trkpt lat="49.83369" lon="2.30152">
        <ele>57.3</ele>
        <time>2023-08-10T08:40:59Z</time>
      </trkpt>
      <trkpt lat="49.8337" lon="2.30153">
        <ele>57.3</ele>
        <time>2023-08-10T08:41:00Z</time>
      </trkpt>
      <trkpt lat="49.83371" lon="2.30154">
        <ele>57.3</ele>
        <time>2023-08-10T08:41:01Z</time>
      </trkpt>
      <trkpt lat="49.83372" lon="2.30157">
        <ele>57.4</ele>
        <time>2023-08-10T08:41:02Z</time>
      </trkpt>
      <trkpt lat="49.83373" lon="2.30158">
        <ele>57.4</ele>
        <time>2023-08-10T08:41:04Z</time>
      </trkpt>
      <trkpt lat="49.83373" lon="2.30159">
        <ele>57.4</ele>
        <time>2023-08-10T08:41:05Z</time>
      </trkpt>
      <trkpt lat="49.83374" lon="2.30161">
        <ele>57.4</ele>
        <time>2023-08-10T08:41:06Z</time>
      </trkpt>
      <trkpt lat="49.83375" lon="2.30162">
        <ele>57.4</ele>
        <time>2023-08-10T08:41:07Z</time>
      </trkpt>
      <trkpt lat="49.83376" lon="2.30165">
        <ele>57.4</ele>
        <time>2023-08-10T08:41:08Z</time>
      </trkpt>
      <trkpt lat="49.83377" lon="2.30166">
        <ele>57.5</ele>
        <time>2023-08-10T08:41:09Z</time>
      </trkpt>
      <trkpt lat="49.83378" lon="2.30167">
        <ele>57.5</ele>
        <time>2023-08-10T08:41:10Z</time>
      </trkpt>
      <trkpt lat="49.83379" lon="2.30169">
        <ele>57.5</ele>
        <time>2023-08-10T08:41:11Z</time>
      </trkpt>
      <trkpt lat="49.8338" lon="2.30169">
        <ele>57.5</ele>
        <time>2023-08-10T08:41:12Z</time>
      </trkpt>
      <trkpt lat="49.8338" lon="2.3017">
        <ele>57.5</ele>
        <time>2023-08-10T08:41:13Z</time>
      </trkpt>
      <trkpt lat="49.83381" lon="2.30172">
        <ele>57.5</ele>
        <time>2023-08-10T08:41:15Z</time>
      </trkpt>
      <trkpt lat="49.83382" lon="2.30173">
        <ele>57.5</ele>
        <time>2023-08-10T08:41:16Z</time>
      </trkpt>
      <trkpt lat="49.83384" lon="2.30176">
        <ele>57.6</ele>
        <time>2023-08-10T08:41:17Z</time>
      </trkpt>
      <trkpt lat="49.83384" lon="2.30177">
        <ele>57.6</ele>
        <time>2023-08-10T08:41:18Z</time>
      </trkpt>
      <trkpt lat="49.83385" lon="2.30178">
        <ele>57.6</ele>
        <time>2023-08-10T08:41:19Z</time>
      </trkpt>
      <trkpt lat="49.83386" lon="2.30179">
        <ele>57.6</ele>
        <time>2023-08-10T08:41:20Z</time>
      </trkpt>
      <trkpt lat="49.83387" lon="2.3018">
        <ele>57.6</ele>
        <time>2023-08-10T08:41:21Z</time>
      </trkpt>
      <trkpt lat="49.83388" lon="2.30181">
        <ele>57.6</ele>
        <time>2023-08-10T08:41:22Z</time>
      </trkpt>
      <trkpt lat="49.8339" lon="2.30183">
        <ele>57.7</ele>
        <time>2023-08-10T08:41:24Z</time>
      </trkpt>
      <trkpt lat="49.83391" lon="2.30184">
        <ele>57.7</ele>
        <time>2023-08-10T08:41:25Z</time>
      </trkpt>
      <trkpt lat="49.83392" lon="2.30185">
        <ele>57.7</ele>
        <time>2023-08-10T08:41:26Z</time>
      </trkpt>
      <trkpt lat="49.83393" lon="2.30186">
        <ele>57.7</ele>
        <time>2023-08-10T08:41:27Z</time>
      </trkpt>
      <trkpt lat="49.83394" lon="2.30187">
        <ele>57.7</ele>
        <time>2023-08-10T08:41:28Z</time>
      </trkpt>
      <trkpt lat="49.83396" lon="2.30189">
        <ele>57.8</ele>
        <time>2023-08-10T08:41:29Z</time>
      </trkpt>
      <trkpt lat="49.83397" lon="2.3019">
        <ele>57.8</ele>
        <time>2023-08-10T08:41:31Z</time>
      </trkpt>
      <trkpt lat="49.83398" lon="2.30191">
        <ele>57.8</ele>
        <time>2023-08-10T08:41:32Z</time>
      </trkpt>
      <trkpt lat="49.83399" lon="2.30192">
        <ele>57.8</ele>
        <time>2023-08-10T08:41:33Z</time>
      </trkpt>
      <trkpt lat="49.834" lon="2.30193">
        <ele>57.8</ele>
        <time>2023-08-10T08:41:34Z</time>
      </trkpt>
      <trkpt lat="49.83402" lon="2.30194">
        <ele>57.8</ele>
        <time>2023-08-10T08:41:35Z</time>
      </trkpt>
      <trkpt lat="49.83403" lon="2.30195">
        <ele>57.8</ele>
        <time>2023-08-10T08:41:36Z</time>
      </trkpt>
      <trkpt lat="49.83404" lon="2.30196">
        <ele>57.8</ele>
        <time>2023-08-10T08:41:37Z</time>
      </trkpt>
      <trkpt lat="49.83405" lon="2.30198">
        <ele>57.8</ele>
        <time>2023-08-10T08:41:39Z</time>
      </trkpt>
      <trkpt lat="49.83406" lon="2.30199">
        <ele>57.9</ele>
        <time>2023-08-10T08:41:40Z</time>
      </trkpt>
      <trkpt lat="49.83406" lon="2.302">
        <ele>57.9</ele>
        <time>2023-08-10T08:41:41Z</time>
      </trkpt>
      <trkpt lat="49.83408" lon="2.30202">
        <ele>57.9</ele>
        <time>2023-08-10T08:41:42Z</time>
      </trkpt>
      <trkpt lat="49.83408" lon="2.30203">
        <ele>57.9</ele>
        <time>2023-08-10T08:41:43Z</time>
      </trkpt>
      <trkpt lat="49.83409" lon="2.30204">
        <ele>57.9</ele>
        <time>2023-08-10T08:41:44Z</time>
      </trkpt>
      <trkpt lat="49.83411" lon="2.30206">
        <ele>57.9</ele>
        <time>2023-08-10T08:41:45Z</time>
      </trkpt>
      <trkpt lat="49.83411" lon="2.30206">
        <ele>57.9</ele>
        <time>2023-08-10T08:41:46Z</time>
      </trkpt>
      <trkpt lat="49.83412" lon="2.30207">
        <ele>57.9</ele>
        <time>2023-08-10T08:41:47Z</time>
      </trkpt>
      <trkpt lat="49.83414" lon="2.30209">
        <ele>57.9</ele>
        <time>2023-08-10T08:41:48Z</time>
      </trkpt>
      <trkpt lat="49.83414" lon="2.3021">
        <ele>57.9</ele>
        <time>2023-08-10T08:41:50Z</time>
      </trkpt>
      <trkpt lat="49.83415" lon="2.30211">
        <ele>57.9</ele>
        <time>2023-08-10T08:41:51Z</time>
      </trkpt>
      <trkpt lat="49.83417" lon="2.30213">
        <ele>57.9</ele>
        <time>2023-08-10T08:41:52Z</time>
      </trkpt>
      <trkpt lat="49.83417" lon="2.30214">
        <ele>57.9</ele>
        <time>2023-08-10T08:41:53Z</time>
      </trkpt>
      <trkpt lat="49.83418" lon="2.30215">
        <ele>57.9</ele>
        <time>2023-08-10T08:41:54Z</time>
      </trkpt>
      <trkpt lat="49.8342" lon="2.30216">
        <ele>57.9</ele>
        <time>2023-08-10T08:41:55Z</time>
      </trkpt>
      <trkpt lat="49.83421" lon="2.30216">
        <ele>57.8</ele>
        <time>2023-08-10T08:41:56Z</time>
      </trkpt>
      <trkpt lat="49.83421" lon="2.30217">
        <ele>57.8</ele>
        <time>2023-08-10T08:41:57Z</time>
      </trkpt>
      <trkpt lat="49.83423" lon="2.30218">
        <ele>57.8</ele>
        <time>2023-08-10T08:41:59Z</time>
      </trkpt>
      <trkpt lat="49.83424" lon="2.30218">
        <ele>57.7</ele>
        <time>2023-08-10T08:42:00Z</time>
      </trkpt>
      <trkpt lat="49.83425" lon="2.30219">
        <ele>57.7</ele>
        <time>2023-08-10T08:42:01Z</time>
      </trkpt>
      <trkpt lat="49.83426" lon="2.30219">
        <ele>57.7</ele>
        <time>2023-08-10T08:42:02Z</time>
      </trkpt>
      <trkpt lat="49.83427" lon="2.3022">
        <ele>57.7</ele>
        <time>2023-08-10T08:42:03Z</time>
      </trkpt>
      <trkpt lat="49.83428" lon="2.3022">
        <ele>57.6</ele>
        <time>2023-08-10T08:42:04Z</time>
      </trkpt>
      <trkpt lat="49.83429" lon="2.30221">
        <ele>57.6</ele>
        <time>2023-08-10T08:42:05Z</time>
      </trkpt>
      <trkpt lat="49.8343" lon="2.30222">
        <ele>57.6</ele>
        <time>2023-08-10T08:42:06Z</time>
      </trkpt>
      <trkpt lat="49.83431" lon="2.30223">
        <ele>57.5</ele>
        <time>2023-08-10T08:42:08Z</time>
      </trkpt>
      <trkpt lat="49.83432" lon="2.30224">
        <ele>57.5</ele>
        <time>2023-08-10T08:42:09Z</time>
      </trkpt>
      <trkpt lat="49.83433" lon="2.30224">
        <ele>57.5</ele>
        <time>2023-08-10T08:42:10Z</time>
      </trkpt>
      <trkpt lat="49.83434" lon="2.30225">
        <ele>57.4</ele>
        <time>2023-08-10T08:42:11Z</time>
      </trkpt>
      <trkpt lat="49.83435" lon="2.30226">
        <ele>57.4</ele>
        <time>2023-08-10T08:42:13Z</time>
      </trkpt>
      <trkpt lat="49.83436" lon="2.30227">
        <ele>57.3</ele>
        <time>2023-08-10T08:42:14Z</time>
      </trkpt>
      <trkpt lat="49.83437" lon="2.30228">
        <ele>57.3</ele>
        <time>2023-08-10T08:42:15Z</time>
      </trkpt>
      <trkpt lat="49.83438" lon="2.30228">
        <ele>57.3</ele>
        <time>2023-08-10T08:42:16Z</time>
      </trkpt>
      <trkpt lat="49.83439" lon="2.30229">
        <ele>57.2</ele>
        <time>2023-08-10T08:42:17Z</time>
      </trkpt>
      <trkpt lat="49.8344" lon="2.30229">
        <ele>57.2</ele>
        <time>2023-08-10T08:42:18Z</time>
      </trkpt>
      <trkpt lat="49.83441" lon="2.30228">
        <ele>57.2</ele>
        <time>2023-08-10T08:42:20Z</time>
      </trkpt>
      <trkpt lat="49.83441" lon="2.30228">
        <ele>57.2</ele>
        <time>2023-08-10T08:42:21Z</time>
      </trkpt>
      <trkpt lat="49.83441" lon="2.30228">
        <ele>57.2</ele>
        <time>2023-08-10T08:42:23Z</time>
      </trkpt>
      <trkpt lat="49.83441" lon="2.30228">
        <ele>57.2</ele>
        <time>2023-08-10T08:42:24Z</time>
      </trkpt>
      <trkpt lat="49.83441" lon="2.30228">
        <ele>57.1</ele>
        <time>2023-08-10T08:42:26Z</time>
      </trkpt>
      <trkpt lat="49.83441" lon="2.30228">
        <ele>57.1</ele>
        <time>2023-08-10T08:42:27Z</time>
      </trkpt>
      <trkpt lat="49.83441" lon="2.30228">
        <ele>57.1</ele>
        <time>2023-08-10T08:42:28Z</time>
      </trkpt>
      <trkpt lat="49.83441" lon="2.30228">
        <ele>57.1</ele>
        <time>2023-08-10T08:42:30Z</time>
      </trkpt>
      <trkpt lat="49.83441" lon="2.30228">
        <ele>57.1</ele>
        <time>2023-08-10T08:42:31Z</time>
      </trkpt>
      <trkpt lat="49.83441" lon="2.30228">
        <ele>57.1</ele>
        <time>2023-08-10T08:42:33Z</time>
      </trkpt>
      <trkpt lat="49.83441" lon="2.30228">
        <ele>57.1</ele>
        <time>2023-08-10T08:42:34Z</time>
      </trkpt>
      <trkpt lat="49.83441" lon="2.30228">
        <ele>57.1</ele>
        <time>2023-08-10T08:42:36Z</time>
      </trkpt>
      <trkpt lat="49.83441" lon="2.30228">
        <ele>57.1</ele>
        <time>2023-08-10T08:42:37Z</time>
      </trkpt>
      <trkpt lat="49.83441" lon="2.30228">
        <ele>57.1</ele>
        <time>2023-08-10T08:42:38Z</time>
      </trkpt>
      <trkpt lat="49.83441" lon="2.30228">
        <ele>57.1</ele>
        <time>2023-08-10T08:42:39Z</time>
      </trkpt>
      <trkpt lat="49.83441" lon="2.30228">
        <ele>57.1</ele>
        <time>2023-08-10T08:42:40Z</time>
      </trkpt>
      <trkpt lat="49.83441" lon="2.30229">
        <ele>57.1</ele>
        <time>2023-08-10T08:42:41Z</time>
      </trkpt>
      <trkpt lat="49.83441" lon="2.30229">
        <ele>57.1</ele>
        <time>2023-08-10T08:42:42Z</time>
      </trkpt>
      <trkpt lat="49.83441" lon="2.30229">
        <ele>57.1</ele>
        <time>2023-08-10T08:42:43Z</time>
      </trkpt>
      <trkpt lat="49.83441" lon="2.30229">
        <ele>57.1</ele>
        <time>2023-08-10T08:42:44Z</time>
      </trkpt>
      <trkpt lat="49.83441" lon="2.30229">
        <ele>57.1</ele>
        <time>2023-08-10T08:42:45Z</time>
      </trkpt>
      <trkpt lat="49.83441" lon="2.30229">
        <ele>57.1</ele>
        <time>2023-08-10T08:42:46Z</time>
      </trkpt>
      <trkpt lat="49.83441" lon="2.30229">
        <ele>57.1</ele>
        <time>2023-08-10T08:42:47Z</time>
      </trkpt>
      <trkpt lat="49.8344" lon="2.30229">
        <ele>57.1</ele>
        <time>2023-08-10T08:42:48Z</time>
      </trkpt>
      <trkpt lat="49.8344" lon="2.30229">
        <ele>57.1</ele>
        <time>2023-08-10T08:42:49Z</time>
      </trkpt>
      <trkpt lat="49.8344" lon="2.30229">
        <ele>57.1</ele>
        <time>2023-08-10T08:42:50Z</time>
      </trkpt>
      <trkpt lat="49.8344" lon="2.30229">
        <ele>57.1</ele>
        <time>2023-08-10T08:42:51Z</time>
      </trkpt>
      <trkpt lat="49.8344" lon="2.30229">
        <ele>57.1</ele>
        <time>2023-08-10T08:42:52Z</time>
      </trkpt>
      <trkpt lat="49.8344" lon="2.30229">
        <ele>57.1</ele>
        <time>2023-08-10T08:42:53Z</time>
      </trkpt>
      <trkpt lat="49.8344" lon="2.30229">
        <ele>57.1</ele>
        <time>2023-08-10T08:42:54Z</time>
      </trkpt>
      <trkpt lat="49.8344" lon="2.30229">
        <ele>57.1</ele>
        <time>2023-08-10T08:42:55Z</time>
      </trkpt>
      <trkpt lat="49.8344" lon="2.30229">
        <ele>57.1</ele>
        <time>2023-08-10T08:42:56Z</time>
      </trkpt>
      <trkpt lat="49.8344" lon="2.30229">
        <ele>57.1</ele>
        <time>2023-08-10T08:42:57Z</time>
      </trkpt>
      <trkpt lat="49.8344" lon="2.30229">
        <ele>57.1</ele>
        <time>2023-08-10T08:42:58Z</time>
      </trkpt>
      <trkpt lat="49.8344" lon="2.30229">
        <ele>57.1</ele>
        <time>2023-08-10T08:42:59Z</time>
      </trkpt>
      <trkpt lat="49.8344" lon="2.30229">
        <ele>57.1</ele>
        <time>2023-08-10T08:43:00Z</time>
      </trkpt>
      <trkpt lat="49.8344" lon="2.30229">
        <ele>57.1</ele>
        <time>2023-08-10T08:43:01Z</time>
      </trkpt>
      <trkpt lat="49.8344" lon="2.30229">
        <ele>57.1</ele>
        <time>2023-08-10T08:43:02Z</time>
      </trkpt>
      <trkpt lat="49.8344" lon="2.30229">
        <ele>57.1</ele>
        <time>2023-08-10T08:43:03Z</time>
      </trkpt>
      <trkpt lat="49.8344" lon="2.30229">
        <ele>57.1</ele>
        <time>2023-08-10T08:43:04Z</time>
      </trkpt>
      <trkpt lat="49.8344" lon="2.30229">
        <ele>57.1</ele>
        <time>2023-08-10T08:43:05Z</time>
      </trkpt>
      <trkpt lat="49.8344" lon="2.30229">
        <ele>57.1</ele>
        <time>2023-08-10T08:43:06Z</time>
      </trkpt>
      <trkpt lat="49.8344" lon="2.30229">
        <ele>57.1</ele>
        <time>2023-08-10T08:43:07Z</time>
      </trkpt>
      <trkpt lat="49.8344" lon="2.30229">
        <ele>57.1</ele>
        <time>2023-08-10T08:43:08Z</time>
      </trkpt>
      <trkpt lat="49.8344" lon="2.30229">
        <ele>57.1</ele>
        <time>2023-08-10T08:43:09Z</time>
      </trkpt>
      <trkpt lat="49.8344" lon="2.30229">
        <ele>57.1</ele>
        <time>2023-08-10T08:43:10Z</time>
      </trkpt>
      <trkpt lat="49.8344" lon="2.30229">
        <ele>57.1</ele>
        <time>2023-08-10T08:43:11Z</time>
      </trkpt>
      <trkpt lat="49.8344" lon="2.30229">
        <ele>57.1</ele>
        <time>2023-08-10T08:43:12Z</time>
      </trkpt>
      <trkpt lat="49.83439" lon="2.30229">
        <ele>57.1</ele>
        <time>2023-08-10T08:43:13Z</time>
      </trkpt>
      <trkpt lat="49.83439" lon="2.30229">
        <ele>57.1</ele>
        <time>2023-08-10T08:43:14Z</time>
      </trkpt>
      <trkpt lat="49.83439" lon="2.30229">
        <ele>57.1</ele>
        <time>2023-08-10T08:43:15Z</time>
      </trkpt>
      <trkpt lat="49.83439" lon="2.30229">
        <ele>57.1</ele>
        <time>2023-08-10T08:43:16Z</time>
      </trkpt>
      <trkpt lat="49.83439" lon="2.30229">
        <ele>57.1</ele>
        <time>2023-08-10T08:43:17Z</time>
      </trkpt>
      <trkpt lat="49.83439" lon="2.30229">
        <ele>57.1</ele>
        <time>2023-08-10T08:43:18Z</time>
      </trkpt>
      <trkpt lat="49.83439" lon="2.30229">
        <ele>57.1</ele>
        <time>2023-08-10T08:43:19Z</time>
      </trkpt>
      <trkpt lat="49.83439" lon="2.30229">
        <ele>57.1</ele>
        <time>2023-08-10T08:43:20Z</time>
      </trkpt>
      <trkpt lat="49.83439" lon="2.30229">
        <ele>57.1</ele>
        <time>2023-08-10T08:43:21Z</time>
      </trkpt>
      <trkpt lat="49.83439" lon="2.30229">
        <ele>57.1</ele>
        <time>2023-08-10T08:43:22Z</time>
      </trkpt>
      <trkpt lat="49.83439" lon="2.30229">
        <ele>57.1</ele>
        <time>2023-08-10T08:43:23Z</time>
      </trkpt>
      <trkpt lat="49.83439" lon="2.30229">
        <ele>57.1</ele>
        <time>2023-08-10T08:43:24Z</time>
      </trkpt>
      <trkpt lat="49.83439" lon="2.30229">
        <ele>57.1</ele>
        <time>2023-08-10T08:43:25Z</time>
      </trkpt>
      <trkpt lat="49.83439" lon="2.30229">
        <ele>57.1</ele>
        <time>2023-08-10T08:43:26Z</time>
      </trkpt>
      <trkpt lat="49.83439" lon="2.30229">
        <ele>57.1</ele>
        <time>2023-08-10T08:43:27Z</time>
      </trkpt>
      <trkpt lat="49.83439" lon="2.30229">
        <ele>57.1</ele>
        <time>2023-08-10T08:43:28Z</time>
      </trkpt>
      <trkpt lat="49.83439" lon="2.30229">
        <ele>57.1</ele>
        <time>2023-08-10T08:43:29Z</time>
      </trkpt>
      <trkpt lat="49.83439" lon="2.30229">
        <ele>57.1</ele>
        <time>2023-08-10T08:43:30Z</time>
      </trkpt>
      <trkpt lat="49.83439" lon="2.30229">
        <ele>57.1</ele>
        <time>2023-08-10T08:43:31Z</time>
      </trkpt>
      <trkpt lat="49.83439" lon="2.30229">
        <ele>57.1</ele>
        <time>2023-08-10T08:43:32Z</time>
      </trkpt>
      <trkpt lat="49.83439" lon="2.3023">
        <ele>57.1</ele>
        <time>2023-08-10T08:43:33Z</time>
      </trkpt>
      <trkpt lat="49.83439" lon="2.30231">
        <ele>57</ele>
        <time>2023-08-10T08:43:34Z</time>
      </trkpt>
      <trkpt lat="49.8344" lon="2.30232">
        <ele>57</ele>
        <time>2023-08-10T08:43:35Z</time>
      </trkpt>
      <trkpt lat="49.83441" lon="2.30233">
        <ele>57</ele>
        <time>2023-08-10T08:43:36Z</time>
      </trkpt>
      <trkpt lat="49.83441" lon="2.30233">
        <ele>57</ele>
        <time>2023-08-10T08:43:37Z</time>
      </trkpt>
      <trkpt lat="49.83442" lon="2.30233">
        <ele>56.9</ele>
        <time>2023-08-10T08:43:39Z</time>
      </trkpt>
      <trkpt lat="49.83442" lon="2.30234">
        <ele>56.9</ele>
        <time>2023-08-10T08:43:40Z</time>
      </trkpt>
      <trkpt lat="49.83442" lon="2.30235">
        <ele>56.9</ele>
        <time>2023-08-10T08:43:42Z</time>
      </trkpt>
      <trkpt lat="49.83443" lon="2.30236">
        <ele>56.9</ele>
        <time>2023-08-10T08:43:43Z</time>
      </trkpt>
      <trkpt lat="49.83444" lon="2.30237">
        <ele>56.9</ele>
        <time>2023-08-10T08:43:44Z</time>
      </trkpt>
      <trkpt lat="49.83446" lon="2.30239">
        <ele>56.8</ele>
        <time>2023-08-10T08:43:45Z</time>
      </trkpt>
      <trkpt lat="49.83448" lon="2.3024">
        <ele>56.8</ele>
        <time>2023-08-10T08:43:47Z</time>
      </trkpt>
      <trkpt lat="49.83449" lon="2.30241">
        <ele>56.8</ele>
        <time>2023-08-10T08:43:48Z</time>
      </trkpt>
      <trkpt lat="49.8345" lon="2.30242">
        <ele>56.7</ele>
        <time>2023-08-10T08:43:49Z</time>
      </trkpt>
      <trkpt lat="49.83451" lon="2.30243">
        <ele>56.7</ele>
        <time>2023-08-10T08:43:50Z</time>
      </trkpt>
      <trkpt lat="49.83452" lon="2.30243">
        <ele>56.7</ele>
        <time>2023-08-10T08:43:51Z</time>
      </trkpt>
      <trkpt lat="49.83453" lon="2.30243">
        <ele>56.7</ele>
        <time>2023-08-10T08:43:52Z</time>
      </trkpt>
      <trkpt lat="49.83453" lon="2.30244">
        <ele>56.7</ele>
        <time>2023-08-10T08:43:53Z</time>
      </trkpt>
      <trkpt lat="49.83454" lon="2.30245">
        <ele>56.7</ele>
        <time>2023-08-10T08:43:55Z</time>
      </trkpt>
      <trkpt lat="49.83455" lon="2.30245">
        <ele>56.7</ele>
        <time>2023-08-10T08:43:56Z</time>
      </trkpt>
      <trkpt lat="49.83456" lon="2.30246">
        <ele>56.6</ele>
        <time>2023-08-10T08:43:57Z</time>
      </trkpt>
      <trkpt lat="49.83457" lon="2.30247">
        <ele>56.6</ele>
        <time>2023-08-10T08:43:58Z</time>
      </trkpt>
      <trkpt lat="49.83459" lon="2.30248">
        <ele>56.6</ele>
        <time>2023-08-10T08:44:00Z</time>
      </trkpt>
      <trkpt lat="49.83461" lon="2.3025">
        <ele>56.6</ele>
        <time>2023-08-10T08:44:01Z</time>
      </trkpt>
      <trkpt lat="49.83462" lon="2.3025">
        <ele>56.6</ele>
        <time>2023-08-10T08:44:02Z</time>
      </trkpt>
      <trkpt lat="49.83463" lon="2.30251">
        <ele>56.6</ele>
        <time>2023-08-10T08:44:04Z</time>
      </trkpt>
      <trkpt lat="49.83464" lon="2.30251">
        <ele>56.5</ele>
        <time>2023-08-10T08:44:05Z</time>
      </trkpt>
      <trkpt lat="49.83464" lon="2.30252">
        <ele>56.5</ele>
        <time>2023-08-10T08:44:06Z</time>
      </trkpt>
      <trkpt lat="49.83465" lon="2.30252">
        <ele>56.5</ele>
        <time>2023-08-10T08:44:07Z</time>
      </trkpt>
      <trkpt lat="49.83467" lon="2.30253">
        <ele>56.5</ele>
        <time>2023-08-10T08:44:08Z</time>
      </trkpt>
      <trkpt lat="49.83468" lon="2.30255">
        <ele>56.5</ele>
        <time>2023-08-10T08:44:09Z</time>
      </trkpt>
      <trkpt lat="49.83469" lon="2.30256">
        <ele>56.5</ele>
        <time>2023-08-10T08:44:10Z</time>
      </trkpt>
      <trkpt lat="49.83471" lon="2.30258">
        <ele>56.4</ele>
        <time>2023-08-10T08:44:12Z</time>
      </trkpt>
      <trkpt lat="49.83473" lon="2.3026">
        <ele>56.4</ele>
        <time>2023-08-10T08:44:13Z</time>
      </trkpt>
      <trkpt lat="49.83474" lon="2.30261">
        <ele>56.4</ele>
        <time>2023-08-10T08:44:14Z</time>
      </trkpt>
      <trkpt lat="49.83477" lon="2.30264">
        <ele>56.4</ele>
        <time>2023-08-10T08:44:15Z</time>
      </trkpt>
      <trkpt lat="49.83477" lon="2.30265">
        <ele>56.3</ele>
        <time>2023-08-10T08:44:16Z</time>
      </trkpt>
      <trkpt lat="49.83479" lon="2.30266">
        <ele>56.3</ele>
        <time>2023-08-10T08:44:17Z</time>
      </trkpt>
      <trkpt lat="49.8348" lon="2.30268">
        <ele>56.3</ele>
        <time>2023-08-10T08:44:18Z</time>
      </trkpt>
      <trkpt lat="49.83481" lon="2.30269">
        <ele>56.3</ele>
        <time>2023-08-10T08:44:19Z</time>
      </trkpt>
      <trkpt lat="49.83483" lon="2.3027">
        <ele>56.3</ele>
        <time>2023-08-10T08:44:20Z</time>
      </trkpt>
      <trkpt lat="49.83485" lon="2.30272">
        <ele>56.3</ele>
        <time>2023-08-10T08:44:21Z</time>
      </trkpt>
      <trkpt lat="49.83486" lon="2.30273">
        <ele>56.2</ele>
        <time>2023-08-10T08:44:23Z</time>
      </trkpt>
      <trkpt lat="49.83487" lon="2.30274">
        <ele>56.2</ele>
        <time>2023-08-10T08:44:24Z</time>
      </trkpt>
      <trkpt lat="49.83488" lon="2.30274">
        <ele>56.2</ele>
        <time>2023-08-10T08:44:25Z</time>
      </trkpt>
      <trkpt lat="49.83489" lon="2.30275">
        <ele>56.2</ele>
        <time>2023-08-10T08:44:26Z</time>
      </trkpt>
      <trkpt lat="49.8349" lon="2.30277">
        <ele>56.2</ele>
        <time>2023-08-10T08:44:27Z</time>
      </trkpt>
      <trkpt lat="49.83491" lon="2.30278">
        <ele>56.2</ele>
        <time>2023-08-10T08:44:28Z</time>
      </trkpt>
      <trkpt lat="49.83493" lon="2.3028">
        <ele>56.2</ele>
        <time>2023-08-10T08:44:30Z</time>
      </trkpt>
      <trkpt lat="49.83494" lon="2.30281">
        <ele>56.2</ele>
        <time>2023-08-10T08:44:31Z</time>
      </trkpt>
      <trkpt lat="49.83496" lon="2.30283">
        <ele>56.1</ele>
        <time>2023-08-10T08:44:32Z</time>
      </trkpt>
      <trkpt lat="49.83497" lon="2.30284">
        <ele>56.1</ele>
        <time>2023-08-10T08:44:33Z</time>
      </trkpt>
      <trkpt lat="49.83497" lon="2.30284">
        <ele>56.1</ele>
        <time>2023-08-10T08:44:34Z</time>
      </trkpt>
      <trkpt lat="49.83499" lon="2.30286">
        <ele>56.1</ele>
        <time>2023-08-10T08:44:35Z</time>
      </trkpt>
      <trkpt lat="49.835" lon="2.30287">
        <ele>56.1</ele>
        <time>2023-08-10T08:44:37Z</time>
      </trkpt>
      <trkpt lat="49.83501" lon="2.30288">
        <ele>56.1</ele>
        <time>2023-08-10T08:44:38Z</time>
      </trkpt>
      <trkpt lat="49.83502" lon="2.30289">
        <ele>56.1</ele>
        <time>2023-08-10T08:44:39Z</time>
      </trkpt>
      <trkpt lat="49.83503" lon="2.3029">
        <ele>56.1</ele>
        <time>2023-08-10T08:44:40Z</time>
      </trkpt>
      <trkpt lat="49.83504" lon="2.30292">
        <ele>56.1</ele>
        <time>2023-08-10T08:44:41Z</time>
      </trkpt>
      <trkpt lat="49.83505" lon="2.30293">
        <ele>56</ele>
        <time>2023-08-10T08:44:42Z</time>
      </trkpt>
      <trkpt lat="49.83507" lon="2.30294">
        <ele>56</ele>
        <time>2023-08-10T08:44:43Z</time>
      </trkpt>
      <trkpt lat="49.83508" lon="2.30295">
        <ele>56</ele>
        <time>2023-08-10T08:44:44Z</time>
      </trkpt>
      <trkpt lat="49.83509" lon="2.30297">
        <ele>56</ele>
        <time>2023-08-10T08:44:46Z</time>
      </trkpt>
      <trkpt lat="49.83511" lon="2.30298">
        <ele>56</ele>
        <time>2023-08-10T08:44:47Z</time>
      </trkpt>
      <trkpt lat="49.83512" lon="2.30298">
        <ele>56</ele>
        <time>2023-08-10T08:44:48Z</time>
      </trkpt>
      <trkpt lat="49.83513" lon="2.30299">
        <ele>56</ele>
        <time>2023-08-10T08:44:49Z</time>
      </trkpt>
      <trkpt lat="49.83514" lon="2.303">
        <ele>56</ele>
        <time>2023-08-10T08:44:50Z</time>
      </trkpt>
      <trkpt lat="49.83515" lon="2.30301">
        <ele>56</ele>
        <time>2023-08-10T08:44:51Z</time>
      </trkpt>
      <trkpt lat="49.83516" lon="2.30302">
        <ele>56</ele>
        <time>2023-08-10T08:44:52Z</time>
      </trkpt>
      <trkpt lat="49.83517" lon="2.30303">
        <ele>56</ele>
        <time>2023-08-10T08:44:53Z</time>
      </trkpt>
      <trkpt lat="49.83518" lon="2.30304">
        <ele>55.9</ele>
        <time>2023-08-10T08:44:54Z</time>
      </trkpt>
      <trkpt lat="49.83519" lon="2.30304">
        <ele>55.9</ele>
        <time>2023-08-10T08:44:55Z</time>
      </trkpt>
      <trkpt lat="49.83521" lon="2.30306">
        <ele>55.9</ele>
        <time>2023-08-10T08:44:57Z</time>
      </trkpt>
      <trkpt lat="49.83523" lon="2.30307">
        <ele>55.9</ele>
        <time>2023-08-10T08:44:58Z</time>
      </trkpt>
      <trkpt lat="49.83524" lon="2.30307">
        <ele>55.9</ele>
        <time>2023-08-10T08:44:59Z</time>
      </trkpt>
      <trkpt lat="49.83525" lon="2.30307">
        <ele>55.9</ele>
        <time>2023-08-10T08:45:00Z</time>
      </trkpt>
      <trkpt lat="49.83526" lon="2.30308">
        <ele>55.9</ele>
        <time>2023-08-10T08:45:02Z</time>
      </trkpt>
      <trkpt lat="49.83528" lon="2.30309">
        <ele>55.9</ele>
        <time>2023-08-10T08:45:03Z</time>
      </trkpt>
      <trkpt lat="49.8353" lon="2.3031">
        <ele>55.9</ele>
        <time>2023-08-10T08:45:04Z</time>
      </trkpt>
      <trkpt lat="49.83531" lon="2.3031">
        <ele>55.9</ele>
        <time>2023-08-10T08:45:05Z</time>
      </trkpt>
      <trkpt lat="49.83531" lon="2.30311">
        <ele>55.9</ele>
        <time>2023-08-10T08:45:06Z</time>
      </trkpt>
      <trkpt lat="49.83532" lon="2.30311">
        <ele>55.9</ele>
        <time>2023-08-10T08:45:07Z</time>
      </trkpt>
      <trkpt lat="49.83533" lon="2.30312">
        <ele>55.9</ele>
        <time>2023-08-10T08:45:08Z</time>
      </trkpt>
      <trkpt lat="49.83535" lon="2.30313">
        <ele>55.9</ele>
        <time>2023-08-10T08:45:10Z</time>
      </trkpt>
      <trkpt lat="49.83536" lon="2.30314">
        <ele>55.8</ele>
        <time>2023-08-10T08:45:11Z</time>
      </trkpt>
      <trkpt lat="49.83538" lon="2.30314">
        <ele>55.8</ele>
        <time>2023-08-10T08:45:13Z</time>
      </trkpt>
      <trkpt lat="49.83539" lon="2.30315">
        <ele>55.8</ele>
        <time>2023-08-10T08:45:14Z</time>
      </trkpt>
      <trkpt lat="49.8354" lon="2.30316">
        <ele>55.8</ele>
        <time>2023-08-10T08:45:15Z</time>
      </trkpt>
      <trkpt lat="49.83542" lon="2.30317">
        <ele>55.8</ele>
        <time>2023-08-10T08:45:16Z</time>
      </trkpt>
      <trkpt lat="49.83543" lon="2.30317">
        <ele>55.8</ele>
        <time>2023-08-10T08:45:17Z</time>
      </trkpt>
      <trkpt lat="49.83544" lon="2.30317">
        <ele>55.8</ele>
        <time>2023-08-10T08:45:18Z</time>
      </trkpt>
      <trkpt lat="49.83545" lon="2.30318">
        <ele>55.8</ele>
        <time>2023-08-10T08:45:19Z</time>
      </trkpt>
      <trkpt lat="49.83547" lon="2.30318">
        <ele>55.8</ele>
        <time>2023-08-10T08:45:20Z</time>
      </trkpt>
      <trkpt lat="49.83549" lon="2.30319">
        <ele>55.8</ele>
        <time>2023-08-10T08:45:22Z</time>
      </trkpt>
      <trkpt lat="49.83551" lon="2.30319">
        <ele>55.8</ele>
        <time>2023-08-10T08:45:23Z</time>
      </trkpt>
      <trkpt lat="49.83552" lon="2.30319">
        <ele>55.8</ele>
        <time>2023-08-10T08:45:24Z</time>
      </trkpt>
      <trkpt lat="49.83553" lon="2.3032">
        <ele>55.8</ele>
        <time>2023-08-10T08:45:25Z</time>
      </trkpt>
      <trkpt lat="49.83555" lon="2.3032">
        <ele>55.8</ele>
        <time>2023-08-10T08:45:26Z</time>
      </trkpt>
      <trkpt lat="49.83556" lon="2.3032">
        <ele>55.8</ele>
        <time>2023-08-10T08:45:27Z</time>
      </trkpt>
      <trkpt lat="49.83557" lon="2.30321">
        <ele>55.8</ele>
        <time>2023-08-10T08:45:28Z</time>
      </trkpt>
      <trkpt lat="49.83558" lon="2.30321">
        <ele>55.8</ele>
        <time>2023-08-10T08:45:29Z</time>
      </trkpt>
      <trkpt lat="49.83559" lon="2.30322">
        <ele>55.8</ele>
        <time>2023-08-10T08:45:30Z</time>
      </trkpt>
      <trkpt lat="49.83561" lon="2.30323">
        <ele>55.8</ele>
        <time>2023-08-10T08:45:32Z</time>
      </trkpt>
      <trkpt lat="49.83561" lon="2.30323">
        <ele>55.8</ele>
        <time>2023-08-10T08:45:33Z</time>
      </trkpt>
      <trkpt lat="49.83563" lon="2.30324">
        <ele>55.8</ele>
        <time>2023-08-10T08:45:34Z</time>
      </trkpt>
      <trkpt lat="49.83564" lon="2.30324">
        <ele>55.8</ele>
        <time>2023-08-10T08:45:35Z</time>
      </trkpt>
      <trkpt lat="49.83566" lon="2.30325">
        <ele>55.8</ele>
        <time>2023-08-10T08:45:36Z</time>
      </trkpt>
      <trkpt lat="49.83567" lon="2.30326">
        <ele>55.8</ele>
        <time>2023-08-10T08:45:37Z</time>
      </trkpt>
      <trkpt lat="49.83568" lon="2.30326">
        <ele>55.8</ele>
        <time>2023-08-10T08:45:38Z</time>
      </trkpt>
      <trkpt lat="49.83569" lon="2.30327">
        <ele>55.8</ele>
        <time>2023-08-10T08:45:39Z</time>
      </trkpt>
      <trkpt lat="49.8357" lon="2.30327">
        <ele>55.8</ele>
        <time>2023-08-10T08:45:40Z</time>
      </trkpt>
      <trkpt lat="49.83571" lon="2.30328">
        <ele>55.8</ele>
        <time>2023-08-10T08:45:41Z</time>
      </trkpt>
      <trkpt lat="49.83572" lon="2.30329">
        <ele>55.8</ele>
        <time>2023-08-10T08:45:42Z</time>
      </trkpt>
      <trkpt lat="49.83573" lon="2.3033">
        <ele>55.8</ele>
        <time>2023-08-10T08:45:43Z</time>
      </trkpt>
      <trkpt lat="49.83574" lon="2.3033">
        <ele>55.8</ele>
        <time>2023-08-10T08:45:45Z</time>
      </trkpt>
      <trkpt lat="49.83575" lon="2.30331">
        <ele>55.8</ele>
        <time>2023-08-10T08:45:46Z</time>
      </trkpt>
      <trkpt lat="49.83577" lon="2.30332">
        <ele>55.7</ele>
        <time>2023-08-10T08:45:47Z</time>
      </trkpt>
      <trkpt lat="49.83579" lon="2.30333">
        <ele>55.7</ele>
        <time>2023-08-10T08:45:48Z</time>
      </trkpt>
      <trkpt lat="49.83579" lon="2.30333">
        <ele>55.7</ele>
        <time>2023-08-10T08:45:49Z</time>
      </trkpt>
      <trkpt lat="49.8358" lon="2.30334">
        <ele>55.7</ele>
        <time>2023-08-10T08:45:50Z</time>
      </trkpt>
      <trkpt lat="49.83582" lon="2.30334">
        <ele>55.7</ele>
        <time>2023-08-10T08:45:52Z</time>
      </trkpt>
      <trkpt lat="49.83583" lon="2.30335">
        <ele>55.7</ele>
        <time>2023-08-10T08:45:53Z</time>
      </trkpt>
      <trkpt lat="49.83585" lon="2.30336">
        <ele>55.7</ele>
        <time>2023-08-10T08:45:54Z</time>
      </trkpt>
      <trkpt lat="49.83586" lon="2.30336">
        <ele>55.7</ele>
        <time>2023-08-10T08:45:55Z</time>
      </trkpt>
      <trkpt lat="49.83587" lon="2.30337">
        <ele>55.7</ele>
        <time>2023-08-10T08:45:56Z</time>
      </trkpt>
      <trkpt lat="49.83589" lon="2.30337">
        <ele>55.7</ele>
        <time>2023-08-10T08:45:57Z</time>
      </trkpt>
      <trkpt lat="49.8359" lon="2.30338">
        <ele>55.7</ele>
        <time>2023-08-10T08:45:58Z</time>
      </trkpt>
      <trkpt lat="49.8359" lon="2.30338">
        <ele>55.7</ele>
        <time>2023-08-10T08:45:59Z</time>
      </trkpt>
      <trkpt lat="49.83592" lon="2.30339">
        <ele>55.7</ele>
        <time>2023-08-10T08:46:00Z</time>
      </trkpt>
      <trkpt lat="49.83593" lon="2.3034">
        <ele>55.7</ele>
        <time>2023-08-10T08:46:01Z</time>
      </trkpt>
      <trkpt lat="49.83594" lon="2.3034">
        <ele>55.7</ele>
        <time>2023-08-10T08:46:02Z</time>
      </trkpt>
      <trkpt lat="49.83596" lon="2.30342">
        <ele>55.7</ele>
        <time>2023-08-10T08:46:03Z</time>
      </trkpt>
      <trkpt lat="49.83597" lon="2.30342">
        <ele>55.8</ele>
        <time>2023-08-10T08:46:05Z</time>
      </trkpt>
      <trkpt lat="49.83598" lon="2.30343">
        <ele>55.8</ele>
        <time>2023-08-10T08:46:06Z</time>
      </trkpt>
      <trkpt lat="49.83599" lon="2.30344">
        <ele>55.8</ele>
        <time>2023-08-10T08:46:07Z</time>
      </trkpt>
      <trkpt lat="49.836" lon="2.30344">
        <ele>55.8</ele>
        <time>2023-08-10T08:46:08Z</time>
      </trkpt>
      <trkpt lat="49.83602" lon="2.30345">
        <ele>55.8</ele>
        <time>2023-08-10T08:46:09Z</time>
      </trkpt>
      <trkpt lat="49.83603" lon="2.30346">
        <ele>55.8</ele>
        <time>2023-08-10T08:46:10Z</time>
      </trkpt>
      <trkpt lat="49.83604" lon="2.30347">
        <ele>55.8</ele>
        <time>2023-08-10T08:46:12Z</time>
      </trkpt>
      <trkpt lat="49.83605" lon="2.30348">
        <ele>55.8</ele>
        <time>2023-08-10T08:46:13Z</time>
      </trkpt>
      <trkpt lat="49.83606" lon="2.30349">
        <ele>55.8</ele>
        <time>2023-08-10T08:46:14Z</time>
      </trkpt>
      <trkpt lat="49.83607" lon="2.3035">
        <ele>55.8</ele>
        <time>2023-08-10T08:46:15Z</time>
      </trkpt>
      <trkpt lat="49.83608" lon="2.30351">
        <ele>55.8</ele>
        <time>2023-08-10T08:46:16Z</time>
      </trkpt>
      <trkpt lat="49.83609" lon="2.30352">
        <ele>55.8</ele>
        <time>2023-08-10T08:46:17Z</time>
      </trkpt>
      <trkpt lat="49.8361" lon="2.30353">
        <ele>55.8</ele>
        <time>2023-08-10T08:46:19Z</time>
      </trkpt>
      <trkpt lat="49.83611" lon="2.30354">
        <ele>55.8</ele>
        <time>2023-08-10T08:46:20Z</time>
      </trkpt>
      <trkpt lat="49.83612" lon="2.30355">
        <ele>55.8</ele>
        <time>2023-08-10T08:46:21Z</time>
      </trkpt>
      <trkpt lat="49.83613" lon="2.30356">
        <ele>55.8</ele>
        <time>2023-08-10T08:46:22Z</time>
      </trkpt>
      <trkpt lat="49.83613" lon="2.30357">
        <ele>55.8</ele>
        <time>2023-08-10T08:46:23Z</time>
      </trkpt>
      <trkpt lat="49.83614" lon="2.30358">
        <ele>55.8</ele>
        <time>2023-08-10T08:46:24Z</time>
      </trkpt>
      <trkpt lat="49.83615" lon="2.30358">
        <ele>55.9</ele>
        <time>2023-08-10T08:46:25Z</time>
      </trkpt>
      <trkpt lat="49.83617" lon="2.3036">
        <ele>55.9</ele>
        <time>2023-08-10T08:46:26Z</time>
      </trkpt>
      <trkpt lat="49.83618" lon="2.30361">
        <ele>55.9</ele>
        <time>2023-08-10T08:46:28Z</time>
      </trkpt>
      <trkpt lat="49.83618" lon="2.30361">
        <ele>55.9</ele>
        <time>2023-08-10T08:46:29Z</time>
      </trkpt>
      <trkpt lat="49.8362" lon="2.30362">
        <ele>55.9</ele>
        <time>2023-08-10T08:46:30Z</time>
      </trkpt>
      <trkpt lat="49.83621" lon="2.30363">
        <ele>55.9</ele>
        <time>2023-08-10T08:46:31Z</time>
      </trkpt>
      <trkpt lat="49.83622" lon="2.30363">
        <ele>55.9</ele>
        <time>2023-08-10T08:46:32Z</time>
      </trkpt>
      <trkpt lat="49.83623" lon="2.30363">
        <ele>55.9</ele>
        <time>2023-08-10T08:46:33Z</time>
      </trkpt>
      <trkpt lat="49.83624" lon="2.30363">
        <ele>55.9</ele>
        <time>2023-08-10T08:46:34Z</time>
      </trkpt>
      <trkpt lat="49.83625" lon="2.30363">
        <ele>55.9</ele>
        <time>2023-08-10T08:46:36Z</time>
      </trkpt>
      <trkpt lat="49.83626" lon="2.30363">
        <ele>55.9</ele>
        <time>2023-08-10T08:46:37Z</time>
      </trkpt>
      <trkpt lat="49.83627" lon="2.30364">
        <ele>55.9</ele>
        <time>2023-08-10T08:46:38Z</time>
      </trkpt>
      <trkpt lat="49.83628" lon="2.30365">
        <ele>55.9</ele>
        <time>2023-08-10T08:46:39Z</time>
      </trkpt>
      <trkpt lat="49.8363" lon="2.30366">
        <ele>56</ele>
        <time>2023-08-10T08:46:40Z</time>
      </trkpt>
      <trkpt lat="49.83631" lon="2.30366">
        <ele>56</ele>
        <time>2023-08-10T08:46:41Z</time>
      </trkpt>
      <trkpt lat="49.83631" lon="2.30367">
        <ele>56</ele>
        <time>2023-08-10T08:46:42Z</time>
      </trkpt>
      <trkpt lat="49.83633" lon="2.30366">
        <ele>56</ele>
        <time>2023-08-10T08:46:43Z</time>
      </trkpt>
      <trkpt lat="49.83634" lon="2.30367">
        <ele>56</ele>
        <time>2023-08-10T08:46:44Z</time>
      </trkpt>
      <trkpt lat="49.83636" lon="2.30367">
        <ele>56</ele>
        <time>2023-08-10T08:46:45Z</time>
      </trkpt>
      <trkpt lat="49.83637" lon="2.30368">
        <ele>56</ele>
        <time>2023-08-10T08:46:47Z</time>
      </trkpt>
      <trkpt lat="49.83638" lon="2.30368">
        <ele>56</ele>
        <time>2023-08-10T08:46:48Z</time>
      </trkpt>
      <trkpt lat="49.8364" lon="2.30369">
        <ele>56.1</ele>
        <time>2023-08-10T08:46:49Z</time>
      </trkpt>
      <trkpt lat="49.83641" lon="2.30369">
        <ele>56.1</ele>
        <time>2023-08-10T08:46:50Z</time>
      </trkpt>
      <trkpt lat="49.83642" lon="2.30369">
        <ele>56.1</ele>
        <time>2023-08-10T08:46:51Z</time>
      </trkpt>
      <trkpt lat="49.83643" lon="2.3037">
        <ele>56.1</ele>
        <time>2023-08-10T08:46:53Z</time>
      </trkpt>
      <trkpt lat="49.83645" lon="2.3037">
        <ele>56.1</ele>
        <time>2023-08-10T08:46:54Z</time>
      </trkpt>
      <trkpt lat="49.83646" lon="2.30371">
        <ele>56.1</ele>
        <time>2023-08-10T08:46:55Z</time>
      </trkpt>
      <trkpt lat="49.83647" lon="2.30372">
        <ele>56.2</ele>
        <time>2023-08-10T08:46:56Z</time>
      </trkpt>
      <trkpt lat="49.83649" lon="2.30372">
        <ele>56.2</ele>
        <time>2023-08-10T08:46:57Z</time>
      </trkpt>
      <trkpt lat="49.8365" lon="2.30373">
        <ele>56.2</ele>
        <time>2023-08-10T08:46:58Z</time>
      </trkpt>
      <trkpt lat="49.83651" lon="2.30373">
        <ele>56.2</ele>
        <time>2023-08-10T08:46:59Z</time>
      </trkpt>
      <trkpt lat="49.83652" lon="2.30373">
        <ele>56.2</ele>
        <time>2023-08-10T08:47:00Z</time>
      </trkpt>
      <trkpt lat="49.83654" lon="2.30373">
        <ele>56.3</ele>
        <time>2023-08-10T08:47:01Z</time>
      </trkpt>
      <trkpt lat="49.83656" lon="2.30373">
        <ele>56.3</ele>
        <time>2023-08-10T08:47:02Z</time>
      </trkpt>
      <trkpt lat="49.83658" lon="2.30374">
        <ele>56.3</ele>
        <time>2023-08-10T08:47:04Z</time>
      </trkpt>
      <trkpt lat="49.8366" lon="2.30374">
        <ele>56.3</ele>
        <time>2023-08-10T08:47:05Z</time>
      </trkpt>
      <trkpt lat="49.83661" lon="2.30374">
        <ele>56.4</ele>
        <time>2023-08-10T08:47:06Z</time>
      </trkpt>
      <trkpt lat="49.83663" lon="2.30374">
        <ele>56.4</ele>
        <time>2023-08-10T08:47:07Z</time>
      </trkpt>
      <trkpt lat="49.83664" lon="2.30375">
        <ele>56.4</ele>
        <time>2023-08-10T08:47:08Z</time>
      </trkpt>
      <trkpt lat="49.83665" lon="2.30376">
        <ele>56.4</ele>
        <time>2023-08-10T08:47:10Z</time>
      </trkpt>
      <trkpt lat="49.83667" lon="2.30376">
        <ele>56.4</ele>
        <time>2023-08-10T08:47:11Z</time>
      </trkpt>
      <trkpt lat="49.83668" lon="2.30377">
        <ele>56.4</ele>
        <time>2023-08-10T08:47:12Z</time>
      </trkpt>
      <trkpt lat="49.83669" lon="2.30377">
        <ele>56.4</ele>
        <time>2023-08-10T08:47:13Z</time>
      </trkpt>
      <trkpt lat="49.83671" lon="2.30378">
        <ele>56.4</ele>
        <time>2023-08-10T08:47:14Z</time>
      </trkpt>
      <trkpt lat="49.83672" lon="2.30379">
        <ele>56.4</ele>
        <time>2023-08-10T08:47:15Z</time>
      </trkpt>
      <trkpt lat="49.83673" lon="2.30379">
        <ele>56.4</ele>
        <time>2023-08-10T08:47:16Z</time>
      </trkpt>
      <trkpt lat="49.83675" lon="2.3038">
        <ele>56.4</ele>
        <time>2023-08-10T08:47:18Z</time>
      </trkpt>
      <trkpt lat="49.83676" lon="2.3038">
        <ele>56.4</ele>
        <time>2023-08-10T08:47:19Z</time>
      </trkpt>
      <trkpt lat="49.83678" lon="2.30381">
        <ele>56.4</ele>
        <time>2023-08-10T08:47:20Z</time>
      </trkpt>
      <trkpt lat="49.8368" lon="2.30382">
        <ele>56.4</ele>
        <time>2023-08-10T08:47:21Z</time>
      </trkpt>
      <trkpt lat="49.83681" lon="2.30382">
        <ele>56.4</ele>
        <time>2023-08-10T08:47:22Z</time>
      </trkpt>
      <trkpt lat="49.83681" lon="2.30383">
        <ele>56.4</ele>
        <time>2023-08-10T08:47:23Z</time>
      </trkpt>
      <trkpt lat="49.83684" lon="2.30384">
        <ele>56.4</ele>
        <time>2023-08-10T08:47:24Z</time>
      </trkpt>
      <trkpt lat="49.83685" lon="2.30385">
        <ele>56.4</ele>
        <time>2023-08-10T08:47:26Z</time>
      </trkpt>
      <trkpt lat="49.83686" lon="2.30386">
        <ele>56.4</ele>
        <time>2023-08-10T08:47:27Z</time>
      </trkpt>
      <trkpt lat="49.83687" lon="2.30388">
        <ele>56.4</ele>
        <time>2023-08-10T08:47:28Z</time>
      </trkpt>
      <trkpt lat="49.83688" lon="2.30389">
        <ele>56.4</ele>
        <time>2023-08-10T08:47:29Z</time>
      </trkpt>
      <trkpt lat="49.8369" lon="2.30391">
        <ele>56.4</ele>
        <time>2023-08-10T08:47:31Z</time>
      </trkpt>
      <trkpt lat="49.8369" lon="2.30392">
        <ele>56.4</ele>
        <time>2023-08-10T08:47:32Z</time>
      </trkpt>
      <trkpt lat="49.83691" lon="2.30392">
        <ele>56.4</ele>
        <time>2023-08-10T08:47:33Z</time>
      </trkpt>
      <trkpt lat="49.83692" lon="2.30393">
        <ele>56.4</ele>
        <time>2023-08-10T08:47:34Z</time>
      </trkpt>
      <trkpt lat="49.83693" lon="2.30394">
        <ele>56.4</ele>
        <time>2023-08-10T08:47:35Z</time>
      </trkpt>
      <trkpt lat="49.83695" lon="2.30395">
        <ele>56.4</ele>
        <time>2023-08-10T08:47:36Z</time>
      </trkpt>
      <trkpt lat="49.83696" lon="2.30395">
        <ele>56.4</ele>
        <time>2023-08-10T08:47:37Z</time>
      </trkpt>
      <trkpt lat="49.83697" lon="2.30395">
        <ele>56.4</ele>
        <time>2023-08-10T08:47:38Z</time>
      </trkpt>
      <trkpt lat="49.83698" lon="2.30395">
        <ele>56.4</ele>
        <time>2023-08-10T08:47:39Z</time>
      </trkpt>
      <trkpt lat="49.837" lon="2.30396">
        <ele>56.4</ele>
        <time>2023-08-10T08:47:40Z</time>
      </trkpt>
      <trkpt lat="49.83701" lon="2.30396">
        <ele>56.4</ele>
        <time>2023-08-10T08:47:42Z</time>
      </trkpt>
      <trkpt lat="49.83702" lon="2.30397">
        <ele>56.4</ele>
        <time>2023-08-10T08:47:43Z</time>
      </trkpt>
      <trkpt lat="49.83705" lon="2.30397">
        <ele>56.4</ele>
        <time>2023-08-10T08:47:44Z</time>
      </trkpt>
      <trkpt lat="49.83705" lon="2.30398">
        <ele>56.4</ele>
        <time>2023-08-10T08:47:45Z</time>
      </trkpt>
      <trkpt lat="49.83706" lon="2.30398">
        <ele>56.4</ele>
        <time>2023-08-10T08:47:46Z</time>
      </trkpt>
      <trkpt lat="49.83708" lon="2.30399">
        <ele>56.4</ele>
        <time>2023-08-10T08:47:47Z</time>
      </trkpt>
      <trkpt lat="49.83709" lon="2.304">
        <ele>56.5</ele>
        <time>2023-08-10T08:47:48Z</time>
      </trkpt>
      <trkpt lat="49.8371" lon="2.304">
        <ele>56.5</ele>
        <time>2023-08-10T08:47:49Z</time>
      </trkpt>
      <trkpt lat="49.83712" lon="2.30401">
        <ele>56.5</ele>
        <time>2023-08-10T08:47:50Z</time>
      </trkpt>
      <trkpt lat="49.83714" lon="2.30401">
        <ele>56.5</ele>
        <time>2023-08-10T08:47:51Z</time>
      </trkpt>
      <trkpt lat="49.83715" lon="2.30402">
        <ele>56.5</ele>
        <time>2023-08-10T08:47:53Z</time>
      </trkpt>
      <trkpt lat="49.83716" lon="2.30403">
        <ele>56.5</ele>
        <time>2023-08-10T08:47:54Z</time>
      </trkpt>
      <trkpt lat="49.83717" lon="2.30403">
        <ele>56.5</ele>
        <time>2023-08-10T08:47:55Z</time>
      </trkpt>
      <trkpt lat="49.83719" lon="2.30404">
        <ele>56.5</ele>
        <time>2023-08-10T08:47:56Z</time>
      </trkpt>
      <trkpt lat="49.8372" lon="2.30405">
        <ele>56.5</ele>
        <time>2023-08-10T08:47:57Z</time>
      </trkpt>
      <trkpt lat="49.83721" lon="2.30406">
        <ele>56.5</ele>
        <time>2023-08-10T08:47:58Z</time>
      </trkpt>
      <trkpt lat="49.83722" lon="2.30406">
        <ele>56.5</ele>
        <time>2023-08-10T08:47:59Z</time>
      </trkpt>
      <trkpt lat="49.83723" lon="2.30407">
        <ele>56.5</ele>
        <time>2023-08-10T08:48:00Z</time>
      </trkpt>
      <trkpt lat="49.83724" lon="2.30408">
        <ele>56.5</ele>
        <time>2023-08-10T08:48:01Z</time>
      </trkpt>
      <trkpt lat="49.83725" lon="2.30409">
        <ele>56.5</ele>
        <time>2023-08-10T08:48:03Z</time>
      </trkpt>
      <trkpt lat="49.83726" lon="2.3041">
        <ele>56.5</ele>
        <time>2023-08-10T08:48:04Z</time>
      </trkpt>
      <trkpt lat="49.83727" lon="2.30411">
        <ele>56.5</ele>
        <time>2023-08-10T08:48:05Z</time>
      </trkpt>
      <trkpt lat="49.83728" lon="2.30412">
        <ele>56.5</ele>
        <time>2023-08-10T08:48:06Z</time>
      </trkpt>
      <trkpt lat="49.8373" lon="2.30414">
        <ele>56.5</ele>
        <time>2023-08-10T08:48:07Z</time>
      </trkpt>
      <trkpt lat="49.83731" lon="2.30414">
        <ele>56.5</ele>
        <time>2023-08-10T08:48:08Z</time>
      </trkpt>
      <trkpt lat="49.83732" lon="2.30415">
        <ele>56.5</ele>
        <time>2023-08-10T08:48:09Z</time>
      </trkpt>
      <trkpt lat="49.83733" lon="2.30416">
        <ele>56.5</ele>
        <time>2023-08-10T08:48:11Z</time>
      </trkpt>
      <trkpt lat="49.83734" lon="2.30417">
        <ele>56.5</ele>
        <time>2023-08-10T08:48:12Z</time>
      </trkpt>
      <trkpt lat="49.83736" lon="2.30418">
        <ele>56.5</ele>
        <time>2023-08-10T08:48:13Z</time>
      </trkpt>
      <trkpt lat="49.83737" lon="2.30418">
        <ele>56.5</ele>
        <time>2023-08-10T08:48:14Z</time>
      </trkpt>
      <trkpt lat="49.83739" lon="2.30419">
        <ele>56.5</ele>
        <time>2023-08-10T08:48:15Z</time>
      </trkpt>
      <trkpt lat="49.8374" lon="2.3042">
        <ele>56.5</ele>
        <time>2023-08-10T08:48:16Z</time>
      </trkpt>
      <trkpt lat="49.83741" lon="2.3042">
        <ele>56.5</ele>
        <time>2023-08-10T08:48:17Z</time>
      </trkpt>
      <trkpt lat="49.83743" lon="2.30422">
        <ele>56.5</ele>
        <time>2023-08-10T08:48:18Z</time>
      </trkpt>
      <trkpt lat="49.83743" lon="2.30422">
        <ele>56.5</ele>
        <time>2023-08-10T08:48:19Z</time>
      </trkpt>
      <trkpt lat="49.83744" lon="2.30423">
        <ele>56.5</ele>
        <time>2023-08-10T08:48:20Z</time>
      </trkpt>
      <trkpt lat="49.83746" lon="2.30424">
        <ele>56.5</ele>
        <time>2023-08-10T08:48:22Z</time>
      </trkpt>
      <trkpt lat="49.83747" lon="2.30424">
        <ele>56.5</ele>
        <time>2023-08-10T08:48:23Z</time>
      </trkpt>
      <trkpt lat="49.83748" lon="2.30425">
        <ele>56.5</ele>
        <time>2023-08-10T08:48:24Z</time>
      </trkpt>
      <trkpt lat="49.83749" lon="2.30426">
        <ele>56.5</ele>
        <time>2023-08-10T08:48:25Z</time>
      </trkpt>
      <trkpt lat="49.83751" lon="2.30427">
        <ele>56.5</ele>
        <time>2023-08-10T08:48:27Z</time>
      </trkpt>
      <trkpt lat="49.83752" lon="2.30428">
        <ele>56.5</ele>
        <time>2023-08-10T08:48:28Z</time>
      </trkpt>
      <trkpt lat="49.83753" lon="2.30429">
        <ele>56.5</ele>
        <time>2023-08-10T08:48:29Z</time>
      </trkpt>
      <trkpt lat="49.83753" lon="2.3043">
        <ele>56.5</ele>
        <time>2023-08-10T08:48:30Z</time>
      </trkpt>
      <trkpt lat="49.83754" lon="2.30431">
        <ele>56.5</ele>
        <time>2023-08-10T08:48:31Z</time>
      </trkpt>
      <trkpt lat="49.83756" lon="2.30432">
        <ele>56.5</ele>
        <time>2023-08-10T08:48:33Z</time>
      </trkpt>
      <trkpt lat="49.83757" lon="2.30433">
        <ele>56.5</ele>
        <time>2023-08-10T08:48:34Z</time>
      </trkpt>
      <trkpt lat="49.83758" lon="2.30434">
        <ele>56.5</ele>
        <time>2023-08-10T08:48:35Z</time>
      </trkpt>
      <trkpt lat="49.83759" lon="2.30434">
        <ele>56.5</ele>
        <time>2023-08-10T08:48:36Z</time>
      </trkpt>
      <trkpt lat="49.8376" lon="2.30434">
        <ele>56.5</ele>
        <time>2023-08-10T08:48:37Z</time>
      </trkpt>
      <trkpt lat="49.83761" lon="2.30434">
        <ele>56.5</ele>
        <time>2023-08-10T08:48:38Z</time>
      </trkpt>
      <trkpt lat="49.83763" lon="2.30435">
        <ele>56.5</ele>
        <time>2023-08-10T08:48:39Z</time>
      </trkpt>
      <trkpt lat="49.83764" lon="2.30435">
        <ele>56.5</ele>
        <time>2023-08-10T08:48:40Z</time>
      </trkpt>
      <trkpt lat="49.83765" lon="2.30436">
        <ele>56.5</ele>
        <time>2023-08-10T08:48:42Z</time>
      </trkpt>
      <trkpt lat="49.83766" lon="2.30437">
        <ele>56.6</ele>
        <time>2023-08-10T08:48:43Z</time>
      </trkpt>
      <trkpt lat="49.83767" lon="2.30437">
        <ele>56.6</ele>
        <time>2023-08-10T08:48:44Z</time>
      </trkpt>
      <trkpt lat="49.83768" lon="2.30438">
        <ele>56.6</ele>
        <time>2023-08-10T08:48:45Z</time>
      </trkpt>
      <trkpt lat="49.83769" lon="2.30439">
        <ele>56.6</ele>
        <time>2023-08-10T08:48:46Z</time>
      </trkpt>
      <trkpt lat="49.8377" lon="2.3044">
        <ele>56.6</ele>
        <time>2023-08-10T08:48:47Z</time>
      </trkpt>
      <trkpt lat="49.83771" lon="2.30441">
        <ele>56.6</ele>
        <time>2023-08-10T08:48:49Z</time>
      </trkpt>
      <trkpt lat="49.83772" lon="2.30442">
        <ele>56.6</ele>
        <time>2023-08-10T08:48:50Z</time>
      </trkpt>
      <trkpt lat="49.83773" lon="2.30443">
        <ele>56.6</ele>
        <time>2023-08-10T08:48:51Z</time>
      </trkpt>
      <trkpt lat="49.83773" lon="2.30443">
        <ele>56.6</ele>
        <time>2023-08-10T08:48:52Z</time>
      </trkpt>
      <trkpt lat="49.83774" lon="2.30444">
        <ele>56.6</ele>
        <time>2023-08-10T08:48:53Z</time>
      </trkpt>
      <trkpt lat="49.83775" lon="2.30444">
        <ele>56.6</ele>
        <time>2023-08-10T08:48:54Z</time>
      </trkpt>
      <trkpt lat="49.83777" lon="2.30445">
        <ele>56.6</ele>
        <time>2023-08-10T08:48:56Z</time>
      </trkpt>
      <trkpt lat="49.83778" lon="2.30446">
        <ele>56.6</ele>
        <time>2023-08-10T08:48:57Z</time>
      </trkpt>
      <trkpt lat="49.83778" lon="2.30447">
        <ele>56.6</ele>
        <time>2023-08-10T08:48:58Z</time>
      </trkpt>
      <trkpt lat="49.83779" lon="2.30448">
        <ele>56.6</ele>
        <time>2023-08-10T08:48:59Z</time>
      </trkpt>
      <trkpt lat="49.8378" lon="2.30449">
        <ele>56.6</ele>
        <time>2023-08-10T08:49:00Z</time>
      </trkpt>
      <trkpt lat="49.83781" lon="2.3045">
        <ele>56.6</ele>
        <time>2023-08-10T08:49:01Z</time>
      </trkpt>
      <trkpt lat="49.83782" lon="2.30452">
        <ele>56.6</ele>
        <time>2023-08-10T08:49:02Z</time>
      </trkpt>
      <trkpt lat="49.83783" lon="2.30453">
        <ele>56.6</ele>
        <time>2023-08-10T08:49:04Z</time>
      </trkpt>
      <trkpt lat="49.83784" lon="2.30454">
        <ele>56.6</ele>
        <time>2023-08-10T08:49:05Z</time>
      </trkpt>
      <trkpt lat="49.83785" lon="2.30454">
        <ele>56.6</ele>
        <time>2023-08-10T08:49:06Z</time>
      </trkpt>
      <trkpt lat="49.83786" lon="2.30455">
        <ele>56.6</ele>
        <time>2023-08-10T08:49:07Z</time>
      </trkpt>
      <trkpt lat="49.83787" lon="2.30456">
        <ele>56.6</ele>
        <time>2023-08-10T08:49:08Z</time>
      </trkpt>
      <trkpt lat="49.83788" lon="2.30457">
        <ele>56.6</ele>
        <time>2023-08-10T08:49:09Z</time>
      </trkpt>
      <trkpt lat="49.83789" lon="2.30457">
        <ele>56.6</ele>
        <time>2023-08-10T08:49:10Z</time>
      </trkpt>
      <trkpt lat="49.8379" lon="2.30458">
        <ele>56.7</ele>
        <time>2023-08-10T08:49:11Z</time>
      </trkpt>
      <trkpt lat="49.83791" lon="2.30458">
        <ele>56.7</ele>
        <time>2023-08-10T08:49:13Z</time>
      </trkpt>
      <trkpt lat="49.83793" lon="2.30459">
        <ele>56.7</ele>
        <time>2023-08-10T08:49:14Z</time>
      </trkpt>
      <trkpt lat="49.83794" lon="2.30459">
        <ele>56.7</ele>
        <time>2023-08-10T08:49:15Z</time>
      </trkpt>
      <trkpt lat="49.83795" lon="2.3046">
        <ele>56.7</ele>
        <time>2023-08-10T08:49:16Z</time>
      </trkpt>
      <trkpt lat="49.83797" lon="2.3046">
        <ele>56.7</ele>
        <time>2023-08-10T08:49:18Z</time>
      </trkpt>
      <trkpt lat="49.83798" lon="2.3046">
        <ele>56.7</ele>
        <time>2023-08-10T08:49:19Z</time>
      </trkpt>
      <trkpt lat="49.83799" lon="2.30461">
        <ele>56.6</ele>
        <time>2023-08-10T08:49:20Z</time>
      </trkpt>
      <trkpt lat="49.838" lon="2.30461">
        <ele>56.6</ele>
        <time>2023-08-10T08:49:21Z</time>
      </trkpt>
      <trkpt lat="49.83801" lon="2.30462">
        <ele>56.6</ele>
        <time>2023-08-10T08:49:22Z</time>
      </trkpt>
      <trkpt lat="49.83802" lon="2.30463">
        <ele>56.6</ele>
        <time>2023-08-10T08:49:23Z</time>
      </trkpt>
      <trkpt lat="49.83803" lon="2.30464">
        <ele>56.6</ele>
        <time>2023-08-10T08:49:24Z</time>
      </trkpt>
      <trkpt lat="49.83804" lon="2.30464">
        <ele>56.6</ele>
        <time>2023-08-10T08:49:25Z</time>
      </trkpt>
      <trkpt lat="49.83805" lon="2.30465">
        <ele>56.6</ele>
        <time>2023-08-10T08:49:26Z</time>
      </trkpt>
      <trkpt lat="49.83807" lon="2.30466">
        <ele>56.6</ele>
        <time>2023-08-10T08:49:28Z</time>
      </trkpt>
      <trkpt lat="49.83808" lon="2.30467">
        <ele>56.6</ele>
        <time>2023-08-10T08:49:30Z</time>
      </trkpt>
      <trkpt lat="49.8381" lon="2.30468">
        <ele>56.6</ele>
        <time>2023-08-10T08:49:31Z</time>
      </trkpt>
      <trkpt lat="49.83812" lon="2.30469">
        <ele>56.6</ele>
        <time>2023-08-10T08:49:32Z</time>
      </trkpt>
      <trkpt lat="49.83812" lon="2.30469">
        <ele>56.6</ele>
        <time>2023-08-10T08:49:33Z</time>
      </trkpt>
      <trkpt lat="49.83813" lon="2.3047">
        <ele>56.6</ele>
        <time>2023-08-10T08:49:34Z</time>
      </trkpt>
      <trkpt lat="49.83815" lon="2.30471">
        <ele>56.6</ele>
        <time>2023-08-10T08:49:35Z</time>
      </trkpt>
      <trkpt lat="49.83816" lon="2.30472">
        <ele>56.6</ele>
        <time>2023-08-10T08:49:36Z</time>
      </trkpt>
      <trkpt lat="49.83817" lon="2.30472">
        <ele>56.6</ele>
        <time>2023-08-10T08:49:37Z</time>
      </trkpt>
      <trkpt lat="49.83819" lon="2.30473">
        <ele>56.6</ele>
        <time>2023-08-10T08:49:39Z</time>
      </trkpt>
      <trkpt lat="49.83821" lon="2.30474">
        <ele>56.6</ele>
        <time>2023-08-10T08:49:40Z</time>
      </trkpt>
      <trkpt lat="49.83822" lon="2.30475">
        <ele>56.6</ele>
        <time>2023-08-10T08:49:41Z</time>
      </trkpt>
      <trkpt lat="49.83823" lon="2.30476">
        <ele>56.6</ele>
        <time>2023-08-10T08:49:42Z</time>
      </trkpt>
      <trkpt lat="49.83824" lon="2.30476">
        <ele>56.5</ele>
        <time>2023-08-10T08:49:43Z</time>
      </trkpt>
      <trkpt lat="49.83826" lon="2.30477">
        <ele>56.5</ele>
        <time>2023-08-10T08:49:44Z</time>
      </trkpt>
      <trkpt lat="49.83827" lon="2.30478">
        <ele>56.5</ele>
        <time>2023-08-10T08:49:45Z</time>
      </trkpt>
      <trkpt lat="49.83828" lon="2.30479">
        <ele>56.5</ele>
        <time>2023-08-10T08:49:47Z</time>
      </trkpt>
      <trkpt lat="49.83829" lon="2.30479">
        <ele>56.5</ele>
        <time>2023-08-10T08:49:48Z</time>
      </trkpt>
      <trkpt lat="49.8383" lon="2.3048">
        <ele>56.5</ele>
        <time>2023-08-10T08:49:49Z</time>
      </trkpt>
      <trkpt lat="49.83831" lon="2.30481">
        <ele>56.5</ele>
        <time>2023-08-10T08:49:50Z</time>
      </trkpt>
      <trkpt lat="49.83832" lon="2.30481">
        <ele>56.5</ele>
        <time>2023-08-10T08:49:51Z</time>
      </trkpt>
      <trkpt lat="49.83833" lon="2.30482">
        <ele>56.5</ele>
        <time>2023-08-10T08:49:52Z</time>
      </trkpt>
      <trkpt lat="49.83834" lon="2.30483">
        <ele>56.5</ele>
        <time>2023-08-10T08:49:53Z</time>
      </trkpt>
      <trkpt lat="49.83835" lon="2.30484">
        <ele>56.4</ele>
        <time>2023-08-10T08:49:54Z</time>
      </trkpt>
      <trkpt lat="49.83836" lon="2.30486">
        <ele>56.4</ele>
        <time>2023-08-10T08:49:56Z</time>
      </trkpt>
      <trkpt lat="49.83838" lon="2.30487">
        <ele>56.4</ele>
        <time>2023-08-10T08:49:57Z</time>
      </trkpt>
      <trkpt lat="49.83839" lon="2.30488">
        <ele>56.4</ele>
        <time>2023-08-10T08:49:58Z</time>
      </trkpt>
      <trkpt lat="49.8384" lon="2.30488">
        <ele>56.3</ele>
        <time>2023-08-10T08:49:59Z</time>
      </trkpt>
      <trkpt lat="49.83841" lon="2.30489">
        <ele>56.3</ele>
        <time>2023-08-10T08:50:00Z</time>
      </trkpt>
      <trkpt lat="49.83842" lon="2.3049">
        <ele>56.3</ele>
        <time>2023-08-10T08:50:02Z</time>
      </trkpt>
      <trkpt lat="49.83844" lon="2.30491">
        <ele>56.3</ele>
        <time>2023-08-10T08:50:03Z</time>
      </trkpt>
      <trkpt lat="49.83845" lon="2.30493">
        <ele>56.2</ele>
        <time>2023-08-10T08:50:04Z</time>
      </trkpt>
      <trkpt lat="49.83846" lon="2.30494">
        <ele>56.2</ele>
        <time>2023-08-10T08:50:05Z</time>
      </trkpt>
      <trkpt lat="49.83847" lon="2.30495">
        <ele>56.2</ele>
        <time>2023-08-10T08:50:06Z</time>
      </trkpt>
      <trkpt lat="49.83849" lon="2.30497">
        <ele>56.1</ele>
        <time>2023-08-10T08:50:08Z</time>
      </trkpt>
      <trkpt lat="49.83849" lon="2.30498">
        <ele>56.1</ele>
        <time>2023-08-10T08:50:09Z</time>
      </trkpt>
      <trkpt lat="49.8385" lon="2.30499">
        <ele>56.1</ele>
        <time>2023-08-10T08:50:10Z</time>
      </trkpt>
      <trkpt lat="49.83851" lon="2.30499">
        <ele>56</ele>
        <time>2023-08-10T08:50:11Z</time>
      </trkpt>
      <trkpt lat="49.83852" lon="2.305">
        <ele>56</ele>
        <time>2023-08-10T08:50:12Z</time>
      </trkpt>
      <trkpt lat="49.83852" lon="2.30501">
        <ele>56</ele>
        <time>2023-08-10T08:50:13Z</time>
      </trkpt>
      <trkpt lat="49.83854" lon="2.30502">
        <ele>55.9</ele>
        <time>2023-08-10T08:50:14Z</time>
      </trkpt>
      <trkpt lat="49.83855" lon="2.30502">
        <ele>55.9</ele>
        <time>2023-08-10T08:50:15Z</time>
      </trkpt>
      <trkpt lat="49.83856" lon="2.30503">
        <ele>55.9</ele>
        <time>2023-08-10T08:50:16Z</time>
      </trkpt>
      <trkpt lat="49.83856" lon="2.30504">
        <ele>55.9</ele>
        <time>2023-08-10T08:50:18Z</time>
      </trkpt>
      <trkpt lat="49.83857" lon="2.30504">
        <ele>55.8</ele>
        <time>2023-08-10T08:50:19Z</time>
      </trkpt>
      <trkpt lat="49.83858" lon="2.30505">
        <ele>55.8</ele>
        <time>2023-08-10T08:50:20Z</time>
      </trkpt>
      <trkpt lat="49.83859" lon="2.30505">
        <ele>55.8</ele>
        <time>2023-08-10T08:50:21Z</time>
      </trkpt>
      <trkpt lat="49.8386" lon="2.30506">
        <ele>55.7</ele>
        <time>2023-08-10T08:50:22Z</time>
      </trkpt>
      <trkpt lat="49.83861" lon="2.30507">
        <ele>55.7</ele>
        <time>2023-08-10T08:50:23Z</time>
      </trkpt>
      <trkpt lat="49.83862" lon="2.30508">
        <ele>55.7</ele>
        <time>2023-08-10T08:50:24Z</time>
      </trkpt>
      <trkpt lat="49.83863" lon="2.30509">
        <ele>55.6</ele>
        <time>2023-08-10T08:50:25Z</time>
      </trkpt>
      <trkpt lat="49.83864" lon="2.3051">
        <ele>55.6</ele>
        <time>2023-08-10T08:50:26Z</time>
      </trkpt>
      <trkpt lat="49.83865" lon="2.30511">
        <ele>55.5</ele>
        <time>2023-08-10T08:50:27Z</time>
      </trkpt>
      <trkpt lat="49.83866" lon="2.30513">
        <ele>55.5</ele>
        <time>2023-08-10T08:50:29Z</time>
      </trkpt>
      <trkpt lat="49.83867" lon="2.30514">
        <ele>55.4</ele>
        <time>2023-08-10T08:50:30Z</time>
      </trkpt>
      <trkpt lat="49.83868" lon="2.30515">
        <ele>55.4</ele>
        <time>2023-08-10T08:50:31Z</time>
      </trkpt>
      <trkpt lat="49.83869" lon="2.30516">
        <ele>55.4</ele>
        <time>2023-08-10T08:50:32Z</time>
      </trkpt>
      <trkpt lat="49.8387" lon="2.30517">
        <ele>55.3</ele>
        <time>2023-08-10T08:50:33Z</time>
      </trkpt>
      <trkpt lat="49.83872" lon="2.30519">
        <ele>55.2</ele>
        <time>2023-08-10T08:50:35Z</time>
      </trkpt>
      <trkpt lat="49.83873" lon="2.30519">
        <ele>55.2</ele>
        <time>2023-08-10T08:50:36Z</time>
      </trkpt>
      <trkpt lat="49.83874" lon="2.3052">
        <ele>55.1</ele>
        <time>2023-08-10T08:50:37Z</time>
      </trkpt>
      <trkpt lat="49.83875" lon="2.30521">
        <ele>55.1</ele>
        <time>2023-08-10T08:50:38Z</time>
      </trkpt>
      <trkpt lat="49.83876" lon="2.30522">
        <ele>55.1</ele>
        <time>2023-08-10T08:50:40Z</time>
      </trkpt>
      <trkpt lat="49.83878" lon="2.30523">
        <ele>55</ele>
        <time>2023-08-10T08:50:41Z</time>
      </trkpt>
      <trkpt lat="49.83879" lon="2.30524">
        <ele>55</ele>
        <time>2023-08-10T08:50:42Z</time>
      </trkpt>
      <trkpt lat="49.83881" lon="2.30524">
        <ele>54.9</ele>
        <time>2023-08-10T08:50:43Z</time>
      </trkpt>
      <trkpt lat="49.83882" lon="2.30524">
        <ele>54.9</ele>
        <time>2023-08-10T08:50:44Z</time>
      </trkpt>
      <trkpt lat="49.83883" lon="2.30525">
        <ele>54.8</ele>
        <time>2023-08-10T08:50:45Z</time>
      </trkpt>
      <trkpt lat="49.83885" lon="2.30525">
        <ele>54.8</ele>
        <time>2023-08-10T08:50:46Z</time>
      </trkpt>
      <trkpt lat="49.83886" lon="2.30526">
        <ele>54.7</ele>
        <time>2023-08-10T08:50:47Z</time>
      </trkpt>
      <trkpt lat="49.83888" lon="2.30527">
        <ele>54.7</ele>
        <time>2023-08-10T08:50:49Z</time>
      </trkpt>
      <trkpt lat="49.83889" lon="2.30527">
        <ele>54.6</ele>
        <time>2023-08-10T08:50:50Z</time>
      </trkpt>
      <trkpt lat="49.8389" lon="2.30528">
        <ele>54.6</ele>
        <time>2023-08-10T08:50:51Z</time>
      </trkpt>
      <trkpt lat="49.83891" lon="2.30528">
        <ele>54.5</ele>
        <time>2023-08-10T08:50:52Z</time>
      </trkpt>
      <trkpt lat="49.83892" lon="2.30529">
        <ele>54.5</ele>
        <time>2023-08-10T08:50:54Z</time>
      </trkpt>
      <trkpt lat="49.83894" lon="2.3053">
        <ele>54.4</ele>
        <time>2023-08-10T08:50:55Z</time>
      </trkpt>
      <trkpt lat="49.83895" lon="2.3053">
        <ele>54.4</ele>
        <time>2023-08-10T08:50:56Z</time>
      </trkpt>
      <trkpt lat="49.83896" lon="2.3053">
        <ele>54.3</ele>
        <time>2023-08-10T08:50:57Z</time>
      </trkpt>
      <trkpt lat="49.83898" lon="2.30531">
        <ele>54.3</ele>
        <time>2023-08-10T08:50:58Z</time>
      </trkpt>
      <trkpt lat="49.83899" lon="2.30532">
        <ele>54.2</ele>
        <time>2023-08-10T08:50:59Z</time>
      </trkpt>
      <trkpt lat="49.83899" lon="2.30532">
        <ele>54.2</ele>
        <time>2023-08-10T08:51:00Z</time>
      </trkpt>
      <trkpt lat="49.839" lon="2.30532">
        <ele>54.2</ele>
        <time>2023-08-10T08:51:01Z</time>
      </trkpt>
      <trkpt lat="49.83902" lon="2.30533">
        <ele>54.1</ele>
        <time>2023-08-10T08:51:02Z</time>
      </trkpt>
      <trkpt lat="49.83903" lon="2.30534">
        <ele>54.1</ele>
        <time>2023-08-10T08:51:04Z</time>
      </trkpt>
      <trkpt lat="49.83904" lon="2.30534">
        <ele>54</ele>
        <time>2023-08-10T08:51:05Z</time>
      </trkpt>
      <trkpt lat="49.83905" lon="2.30535">
        <ele>54</ele>
        <time>2023-08-10T08:51:06Z</time>
      </trkpt>
      <trkpt lat="49.83906" lon="2.30535">
        <ele>53.9</ele>
        <time>2023-08-10T08:51:07Z</time>
      </trkpt>
      <trkpt lat="49.83907" lon="2.30536">
        <ele>53.9</ele>
        <time>2023-08-10T08:51:08Z</time>
      </trkpt>
      <trkpt lat="49.83908" lon="2.30537">
        <ele>53.8</ele>
        <time>2023-08-10T08:51:09Z</time>
      </trkpt>
      <trkpt lat="49.83909" lon="2.30537">
        <ele>53.8</ele>
        <time>2023-08-10T08:51:10Z</time>
      </trkpt>
      <trkpt lat="49.8391" lon="2.30538">
        <ele>53.8</ele>
        <time>2023-08-10T08:51:11Z</time>
      </trkpt>
      <trkpt lat="49.83911" lon="2.30539">
        <ele>53.7</ele>
        <time>2023-08-10T08:51:12Z</time>
      </trkpt>
      <trkpt lat="49.83913" lon="2.30539">
        <ele>53.7</ele>
        <time>2023-08-10T08:51:14Z</time>
      </trkpt>
      <trkpt lat="49.83915" lon="2.30541">
        <ele>53.6</ele>
        <time>2023-08-10T08:51:15Z</time>
      </trkpt>
      <trkpt lat="49.83916" lon="2.30542">
        <ele>53.6</ele>
        <time>2023-08-10T08:51:16Z</time>
      </trkpt>
      <trkpt lat="49.83917" lon="2.30543">
        <ele>53.5</ele>
        <time>2023-08-10T08:51:18Z</time>
      </trkpt>
      <trkpt lat="49.83918" lon="2.30544">
        <ele>53.5</ele>
        <time>2023-08-10T08:51:19Z</time>
      </trkpt>
      <trkpt lat="49.83919" lon="2.30544">
        <ele>53.4</ele>
        <time>2023-08-10T08:51:20Z</time>
      </trkpt>
      <trkpt lat="49.8392" lon="2.30545">
        <ele>53.4</ele>
        <time>2023-08-10T08:51:21Z</time>
      </trkpt>
      <trkpt lat="49.83921" lon="2.30546">
        <ele>53.3</ele>
        <time>2023-08-10T08:51:22Z</time>
      </trkpt>
      <trkpt lat="49.83923" lon="2.30547">
        <ele>53.3</ele>
        <time>2023-08-10T08:51:23Z</time>
      </trkpt>
      <trkpt lat="49.83924" lon="2.30548">
        <ele>53.3</ele>
        <time>2023-08-10T08:51:24Z</time>
      </trkpt>
      <trkpt lat="49.83925" lon="2.30548">
        <ele>53.2</ele>
        <time>2023-08-10T08:51:25Z</time>
      </trkpt>
      <trkpt lat="49.83926" lon="2.30548">
        <ele>53.2</ele>
        <time>2023-08-10T08:51:26Z</time>
      </trkpt>
      <trkpt lat="49.83928" lon="2.3055">
        <ele>53.1</ele>
        <time>2023-08-10T08:51:27Z</time>
      </trkpt>
      <trkpt lat="49.83929" lon="2.3055">
        <ele>53.1</ele>
        <time>2023-08-10T08:51:29Z</time>
      </trkpt>
      <trkpt lat="49.8393" lon="2.30551">
        <ele>53</ele>
        <time>2023-08-10T08:51:30Z</time>
      </trkpt>
      <trkpt lat="49.83931" lon="2.30551">
        <ele>53</ele>
        <time>2023-08-10T08:51:31Z</time>
      </trkpt>
      <trkpt lat="49.83933" lon="2.30552">
        <ele>52.9</ele>
        <time>2023-08-10T08:51:32Z</time>
      </trkpt>
      <trkpt lat="49.83934" lon="2.30552">
        <ele>52.9</ele>
        <time>2023-08-10T08:51:33Z</time>
      </trkpt>
      <trkpt lat="49.83936" lon="2.30552">
        <ele>52.8</ele>
        <time>2023-08-10T08:51:34Z</time>
      </trkpt>
      <trkpt lat="49.83937" lon="2.30553">
        <ele>52.8</ele>
        <time>2023-08-10T08:51:35Z</time>
      </trkpt>
      <trkpt lat="49.83939" lon="2.30553">
        <ele>52.7</ele>
        <time>2023-08-10T08:51:36Z</time>
      </trkpt>
      <trkpt lat="49.8394" lon="2.30554">
        <ele>52.7</ele>
        <time>2023-08-10T08:51:37Z</time>
      </trkpt>
      <trkpt lat="49.83942" lon="2.30554">
        <ele>52.7</ele>
        <time>2023-08-10T08:51:39Z</time>
      </trkpt>
      <trkpt lat="49.83943" lon="2.30555">
        <ele>52.6</ele>
        <time>2023-08-10T08:51:40Z</time>
      </trkpt>
      <trkpt lat="49.83945" lon="2.30555">
        <ele>52.6</ele>
        <time>2023-08-10T08:51:41Z</time>
      </trkpt>
      <trkpt lat="49.83947" lon="2.30556">
        <ele>52.5</ele>
        <time>2023-08-10T08:51:42Z</time>
      </trkpt>
      <trkpt lat="49.83948" lon="2.30556">
        <ele>52.5</ele>
        <time>2023-08-10T08:51:43Z</time>
      </trkpt>
      <trkpt lat="49.83949" lon="2.30556">
        <ele>52.5</ele>
        <time>2023-08-10T08:51:44Z</time>
      </trkpt>
      <trkpt lat="49.8395" lon="2.30556">
        <ele>52.5</ele>
        <time>2023-08-10T08:51:45Z</time>
      </trkpt>
      <trkpt lat="49.83951" lon="2.30557">
        <ele>52.4</ele>
        <time>2023-08-10T08:51:46Z</time>
      </trkpt>
      <trkpt lat="49.83952" lon="2.30558">
        <ele>52.4</ele>
        <time>2023-08-10T08:51:48Z</time>
      </trkpt>
      <trkpt lat="49.83954" lon="2.30558">
        <ele>52.4</ele>
        <time>2023-08-10T08:51:49Z</time>
      </trkpt>
      <trkpt lat="49.83955" lon="2.30559">
        <ele>52.4</ele>
        <time>2023-08-10T08:51:50Z</time>
      </trkpt>
      <trkpt lat="49.83956" lon="2.30559">
        <ele>52.3</ele>
        <time>2023-08-10T08:51:51Z</time>
      </trkpt>
      <trkpt lat="49.83957" lon="2.3056">
        <ele>52.3</ele>
        <time>2023-08-10T08:51:52Z</time>
      </trkpt>
      <trkpt lat="49.83958" lon="2.30561">
        <ele>52.3</ele>
        <time>2023-08-10T08:51:53Z</time>
      </trkpt>
      <trkpt lat="49.83959" lon="2.30561">
        <ele>52.3</ele>
        <time>2023-08-10T08:51:54Z</time>
      </trkpt>
      <trkpt lat="49.8396" lon="2.30563">
        <ele>52.2</ele>
        <time>2023-08-10T08:51:55Z</time>
      </trkpt>
      <trkpt lat="49.83961" lon="2.30564">
        <ele>52.2</ele>
        <time>2023-08-10T08:51:57Z</time>
      </trkpt>
      <trkpt lat="49.83962" lon="2.30564">
        <ele>52.2</ele>
        <time>2023-08-10T08:51:58Z</time>
      </trkpt>
      <trkpt lat="49.83964" lon="2.30566">
        <ele>52.2</ele>
        <time>2023-08-10T08:51:59Z</time>
      </trkpt>
      <trkpt lat="49.83964" lon="2.30567">
        <ele>52.1</ele>
        <time>2023-08-10T08:52:00Z</time>
      </trkpt>
      <trkpt lat="49.83965" lon="2.30567">
        <ele>52.1</ele>
        <time>2023-08-10T08:52:01Z</time>
      </trkpt>
      <trkpt lat="49.83967" lon="2.30568">
        <ele>52.1</ele>
        <time>2023-08-10T08:52:03Z</time>
      </trkpt>
      <trkpt lat="49.83968" lon="2.30569">
        <ele>52.1</ele>
        <time>2023-08-10T08:52:04Z</time>
      </trkpt>
      <trkpt lat="49.83969" lon="2.3057">
        <ele>52.1</ele>
        <time>2023-08-10T08:52:05Z</time>
      </trkpt>
      <trkpt lat="49.83971" lon="2.30571">
        <ele>52.1</ele>
        <time>2023-08-10T08:52:06Z</time>
      </trkpt>
      <trkpt lat="49.83972" lon="2.30572">
        <ele>52.1</ele>
        <time>2023-08-10T08:52:08Z</time>
      </trkpt>
      <trkpt lat="49.83973" lon="2.30573">
        <ele>52.1</ele>
        <time>2023-08-10T08:52:09Z</time>
      </trkpt>
      <trkpt lat="49.83975" lon="2.30574">
        <ele>52.1</ele>
        <time>2023-08-10T08:52:10Z</time>
      </trkpt>
      <trkpt lat="49.83976" lon="2.30574">
        <ele>52.1</ele>
        <time>2023-08-10T08:52:11Z</time>
      </trkpt>
      <trkpt lat="49.83978" lon="2.30575">
        <ele>52.1</ele>
        <time>2023-08-10T08:52:12Z</time>
      </trkpt>
      <trkpt lat="49.83979" lon="2.30576">
        <ele>52.1</ele>
        <time>2023-08-10T08:52:13Z</time>
      </trkpt>
      <trkpt lat="49.8398" lon="2.30576">
        <ele>52.1</ele>
        <time>2023-08-10T08:52:14Z</time>
      </trkpt>
      <trkpt lat="49.83981" lon="2.30577">
        <ele>52.1</ele>
        <time>2023-08-10T08:52:15Z</time>
      </trkpt>
      <trkpt lat="49.83983" lon="2.30578">
        <ele>52.1</ele>
        <time>2023-08-10T08:52:17Z</time>
      </trkpt>
      <trkpt lat="49.83984" lon="2.30579">
        <ele>52.1</ele>
        <time>2023-08-10T08:52:18Z</time>
      </trkpt>
      <trkpt lat="49.83984" lon="2.30579">
        <ele>52.1</ele>
        <time>2023-08-10T08:52:19Z</time>
      </trkpt>
      <trkpt lat="49.83986" lon="2.30581">
        <ele>52.1</ele>
        <time>2023-08-10T08:52:20Z</time>
      </trkpt>
      <trkpt lat="49.83987" lon="2.30581">
        <ele>52.1</ele>
        <time>2023-08-10T08:52:21Z</time>
      </trkpt>
      <trkpt lat="49.83988" lon="2.30582">
        <ele>52.2</ele>
        <time>2023-08-10T08:52:22Z</time>
      </trkpt>
      <trkpt lat="49.8399" lon="2.30582">
        <ele>52.2</ele>
        <time>2023-08-10T08:52:23Z</time>
      </trkpt>
      <trkpt lat="49.83991" lon="2.30583">
        <ele>52.2</ele>
        <time>2023-08-10T08:52:24Z</time>
      </trkpt>
      <trkpt lat="49.83992" lon="2.30583">
        <ele>52.2</ele>
        <time>2023-08-10T08:52:26Z</time>
      </trkpt>
      <trkpt lat="49.83993" lon="2.30584">
        <ele>52.2</ele>
        <time>2023-08-10T08:52:27Z</time>
      </trkpt>
      <trkpt lat="49.83994" lon="2.30584">
        <ele>52.3</ele>
        <time>2023-08-10T08:52:28Z</time>
      </trkpt>
      <trkpt lat="49.83994" lon="2.30585">
        <ele>52.3</ele>
        <time>2023-08-10T08:52:29Z</time>
      </trkpt>
      <trkpt lat="49.83997" lon="2.30586">
        <ele>52.3</ele>
        <time>2023-08-10T08:52:30Z</time>
      </trkpt>
      <trkpt lat="49.83997" lon="2.30586">
        <ele>52.3</ele>
        <time>2023-08-10T08:52:31Z</time>
      </trkpt>
      <trkpt lat="49.83998" lon="2.30587">
        <ele>52.3</ele>
        <time>2023-08-10T08:52:32Z</time>
      </trkpt>
      <trkpt lat="49.84" lon="2.30588">
        <ele>52.4</ele>
        <time>2023-08-10T08:52:33Z</time>
      </trkpt>
      <trkpt lat="49.84001" lon="2.30589">
        <ele>52.4</ele>
        <time>2023-08-10T08:52:35Z</time>
      </trkpt>
      <trkpt lat="49.84001" lon="2.30589">
        <ele>52.4</ele>
        <time>2023-08-10T08:52:36Z</time>
      </trkpt>
      <trkpt lat="49.84003" lon="2.30591">
        <ele>52.4</ele>
        <time>2023-08-10T08:52:37Z</time>
      </trkpt>
      <trkpt lat="49.84004" lon="2.30592">
        <ele>52.5</ele>
        <time>2023-08-10T08:52:38Z</time>
      </trkpt>
      <trkpt lat="49.84006" lon="2.30593">
        <ele>52.5</ele>
        <time>2023-08-10T08:52:39Z</time>
      </trkpt>
      <trkpt lat="49.84006" lon="2.30594">
        <ele>52.5</ele>
        <time>2023-08-10T08:52:40Z</time>
      </trkpt>
      <trkpt lat="49.84007" lon="2.30595">
        <ele>52.5</ele>
        <time>2023-08-10T08:52:41Z</time>
      </trkpt>
      <trkpt lat="49.84008" lon="2.30595">
        <ele>52.5</ele>
        <time>2023-08-10T08:52:42Z</time>
      </trkpt>
      <trkpt lat="49.84009" lon="2.30596">
        <ele>52.6</ele>
        <time>2023-08-10T08:52:44Z</time>
      </trkpt>
      <trkpt lat="49.8401" lon="2.30596">
        <ele>52.6</ele>
        <time>2023-08-10T08:52:45Z</time>
      </trkpt>
      <trkpt lat="49.84011" lon="2.30596">
        <ele>52.6</ele>
        <time>2023-08-10T08:52:46Z</time>
      </trkpt>
      <trkpt lat="49.84012" lon="2.30597">
        <ele>52.6</ele>
        <time>2023-08-10T08:52:47Z</time>
      </trkpt>
      <trkpt lat="49.84013" lon="2.30597">
        <ele>52.6</ele>
        <time>2023-08-10T08:52:48Z</time>
      </trkpt>
      <trkpt lat="49.84014" lon="2.30598">
        <ele>52.7</ele>
        <time>2023-08-10T08:52:49Z</time>
      </trkpt>
      <trkpt lat="49.84015" lon="2.30598">
        <ele>52.7</ele>
        <time>2023-08-10T08:52:50Z</time>
      </trkpt>
      <trkpt lat="49.84016" lon="2.30599">
        <ele>52.7</ele>
        <time>2023-08-10T08:52:51Z</time>
      </trkpt>
      <trkpt lat="49.84017" lon="2.30599">
        <ele>52.7</ele>
        <time>2023-08-10T08:52:53Z</time>
      </trkpt>
      <trkpt lat="49.84018" lon="2.306">
        <ele>52.8</ele>
        <time>2023-08-10T08:52:54Z</time>
      </trkpt>
      <trkpt lat="49.84019" lon="2.306">
        <ele>52.8</ele>
        <time>2023-08-10T08:52:55Z</time>
      </trkpt>
      <trkpt lat="49.8402" lon="2.30601">
        <ele>52.8</ele>
        <time>2023-08-10T08:52:56Z</time>
      </trkpt>
      <trkpt lat="49.84021" lon="2.30601">
        <ele>52.8</ele>
        <time>2023-08-10T08:52:57Z</time>
      </trkpt>
      <trkpt lat="49.84022" lon="2.30602">
        <ele>52.8</ele>
        <time>2023-08-10T08:52:58Z</time>
      </trkpt>
      <trkpt lat="49.84023" lon="2.30602">
        <ele>52.9</ele>
        <time>2023-08-10T08:52:59Z</time>
      </trkpt>
      <trkpt lat="49.84025" lon="2.30603">
        <ele>52.9</ele>
        <time>2023-08-10T08:53:00Z</time>
      </trkpt>
      <trkpt lat="49.84025" lon="2.30603">
        <ele>52.9</ele>
        <time>2023-08-10T08:53:02Z</time>
      </trkpt>
      <trkpt lat="49.84026" lon="2.30603">
        <ele>52.9</ele>
        <time>2023-08-10T08:53:03Z</time>
      </trkpt>
      <trkpt lat="49.84027" lon="2.30604">
        <ele>52.9</ele>
        <time>2023-08-10T08:53:04Z</time>
      </trkpt>
      <trkpt lat="49.84028" lon="2.30605">
        <ele>52.9</ele>
        <time>2023-08-10T08:53:05Z</time>
      </trkpt>
      <trkpt lat="49.84029" lon="2.30605">
        <ele>53</ele>
        <time>2023-08-10T08:53:06Z</time>
      </trkpt>
      <trkpt lat="49.84029" lon="2.30606">
        <ele>53</ele>
        <time>2023-08-10T08:53:07Z</time>
      </trkpt>
      <trkpt lat="49.8403" lon="2.30607">
        <ele>53</ele>
        <time>2023-08-10T08:53:09Z</time>
      </trkpt>
      <trkpt lat="49.84031" lon="2.30608">
        <ele>53</ele>
        <time>2023-08-10T08:53:10Z</time>
      </trkpt>
      <trkpt lat="49.84031" lon="2.30608">
        <ele>53</ele>
        <time>2023-08-10T08:53:11Z</time>
      </trkpt>
      <trkpt lat="49.84032" lon="2.30609">
        <ele>53</ele>
        <time>2023-08-10T08:53:12Z</time>
      </trkpt>
      <trkpt lat="49.84032" lon="2.30609">
        <ele>53</ele>
        <time>2023-08-10T08:53:13Z</time>
      </trkpt>
      <trkpt lat="49.84033" lon="2.3061">
        <ele>53.1</ele>
        <time>2023-08-10T08:53:15Z</time>
      </trkpt>
      <trkpt lat="49.84034" lon="2.30611">
        <ele>53.1</ele>
        <time>2023-08-10T08:53:16Z</time>
      </trkpt>
      <trkpt lat="49.84034" lon="2.30611">
        <ele>53.1</ele>
        <time>2023-08-10T08:53:17Z</time>
      </trkpt>
      <trkpt lat="49.84035" lon="2.30612">
        <ele>53.1</ele>
        <time>2023-08-10T08:53:19Z</time>
      </trkpt>
      <trkpt lat="49.84036" lon="2.30613">
        <ele>53.1</ele>
        <time>2023-08-10T08:53:20Z</time>
      </trkpt>
      <trkpt lat="49.84037" lon="2.30614">
        <ele>53.1</ele>
        <time>2023-08-10T08:53:21Z</time>
      </trkpt>
      <trkpt lat="49.84038" lon="2.30615">
        <ele>53.1</ele>
        <time>2023-08-10T08:53:22Z</time>
      </trkpt>
      <trkpt lat="49.84038" lon="2.30616">
        <ele>53.1</ele>
        <time>2023-08-10T08:53:23Z</time>
      </trkpt>
      <trkpt lat="49.84039" lon="2.30617">
        <ele>53.1</ele>
        <time>2023-08-10T08:53:24Z</time>
      </trkpt>
      <trkpt lat="49.8404" lon="2.30618">
        <ele>53.1</ele>
        <time>2023-08-10T08:53:26Z</time>
      </trkpt>
      <trkpt lat="49.84041" lon="2.30619">
        <ele>53.1</ele>
        <time>2023-08-10T08:53:27Z</time>
      </trkpt>
      <trkpt lat="49.84041" lon="2.3062">
        <ele>53.1</ele>
        <time>2023-08-10T08:53:28Z</time>
      </trkpt>
      <trkpt lat="49.84042" lon="2.3062">
        <ele>53.1</ele>
        <time>2023-08-10T08:53:29Z</time>
      </trkpt>
      <trkpt lat="49.84043" lon="2.3062">
        <ele>53.1</ele>
        <time>2023-08-10T08:53:30Z</time>
      </trkpt>
      <trkpt lat="49.84044" lon="2.30619">
        <ele>53.1</ele>
        <time>2023-08-10T08:53:32Z</time>
      </trkpt>
      <trkpt lat="49.84044" lon="2.30619">
        <ele>53.1</ele>
        <time>2023-08-10T08:53:33Z</time>
      </trkpt>
      <trkpt lat="49.84044" lon="2.30619">
        <ele>53.1</ele>
        <time>2023-08-10T08:53:35Z</time>
      </trkpt>
      <trkpt lat="49.84044" lon="2.30618">
        <ele>53</ele>
        <time>2023-08-10T08:53:36Z</time>
      </trkpt>
      <trkpt lat="49.84044" lon="2.30618">
        <ele>53</ele>
        <time>2023-08-10T08:53:37Z</time>
      </trkpt>
      <trkpt lat="49.84044" lon="2.30618">
        <ele>53</ele>
        <time>2023-08-10T08:53:39Z</time>
      </trkpt>
      <trkpt lat="49.84044" lon="2.30618">
        <ele>53</ele>
        <time>2023-08-10T08:53:40Z</time>
      </trkpt>
      <trkpt lat="49.84044" lon="2.30618">
        <ele>53</ele>
        <time>2023-08-10T08:53:41Z</time>
      </trkpt>
      <trkpt lat="49.84044" lon="2.30618">
        <ele>53</ele>
        <time>2023-08-10T08:53:42Z</time>
      </trkpt>
      <trkpt lat="49.84045" lon="2.30618">
        <ele>53</ele>
        <time>2023-08-10T08:53:43Z</time>
      </trkpt>
      <trkpt lat="49.84046" lon="2.30619">
        <ele>53</ele>
        <time>2023-08-10T08:53:45Z</time>
      </trkpt>
      <trkpt lat="49.84047" lon="2.3062">
        <ele>53</ele>
        <time>2023-08-10T08:53:46Z</time>
      </trkpt>
      <trkpt lat="49.84048" lon="2.3062">
        <ele>53</ele>
        <time>2023-08-10T08:53:47Z</time>
      </trkpt>
      <trkpt lat="49.84049" lon="2.30621">
        <ele>52.9</ele>
        <time>2023-08-10T08:53:48Z</time>
      </trkpt>
      <trkpt lat="49.8405" lon="2.30622">
        <ele>52.9</ele>
        <time>2023-08-10T08:53:49Z</time>
      </trkpt>
      <trkpt lat="49.84051" lon="2.30623">
        <ele>52.9</ele>
        <time>2023-08-10T08:53:50Z</time>
      </trkpt>
      <trkpt lat="49.84052" lon="2.30624">
        <ele>52.9</ele>
        <time>2023-08-10T08:53:51Z</time>
      </trkpt>
      <trkpt lat="49.84053" lon="2.30625">
        <ele>52.9</ele>
        <time>2023-08-10T08:53:52Z</time>
      </trkpt>
      <trkpt lat="49.84055" lon="2.30626">
        <ele>52.8</ele>
        <time>2023-08-10T08:53:54Z</time>
      </trkpt>
      <trkpt lat="49.84055" lon="2.30627">
        <ele>52.8</ele>
        <time>2023-08-10T08:53:55Z</time>
      </trkpt>
      <trkpt lat="49.84056" lon="2.30628">
        <ele>52.8</ele>
        <time>2023-08-10T08:53:56Z</time>
      </trkpt>
      <trkpt lat="49.84057" lon="2.30628">
        <ele>52.8</ele>
        <time>2023-08-10T08:53:57Z</time>
      </trkpt>
      <trkpt lat="49.84058" lon="2.30629">
        <ele>52.7</ele>
        <time>2023-08-10T08:53:58Z</time>
      </trkpt>
      <trkpt lat="49.84059" lon="2.3063">
        <ele>52.7</ele>
        <time>2023-08-10T08:53:59Z</time>
      </trkpt>
      <trkpt lat="49.8406" lon="2.3063">
        <ele>52.7</ele>
        <time>2023-08-10T08:54:00Z</time>
      </trkpt>
      <trkpt lat="49.84061" lon="2.30631">
        <ele>52.7</ele>
        <time>2023-08-10T08:54:02Z</time>
      </trkpt>
      <trkpt lat="49.84062" lon="2.30632">
        <ele>52.6</ele>
        <time>2023-08-10T08:54:03Z</time>
      </trkpt>
      <trkpt lat="49.84064" lon="2.30633">
        <ele>52.6</ele>
        <time>2023-08-10T08:54:04Z</time>
      </trkpt>
      <trkpt lat="49.84065" lon="2.30633">
        <ele>52.6</ele>
        <time>2023-08-10T08:54:05Z</time>
      </trkpt>
      <trkpt lat="49.84066" lon="2.30634">
        <ele>52.5</ele>
        <time>2023-08-10T08:54:06Z</time>
      </trkpt>
      <trkpt lat="49.84067" lon="2.30634">
        <ele>52.5</ele>
        <time>2023-08-10T08:54:07Z</time>
      </trkpt>
      <trkpt lat="49.84068" lon="2.30635">
        <ele>52.5</ele>
        <time>2023-08-10T08:54:08Z</time>
      </trkpt>
      <trkpt lat="49.84069" lon="2.30636">
        <ele>52.4</ele>
        <time>2023-08-10T08:54:09Z</time>
      </trkpt>
      <trkpt lat="49.84071" lon="2.30637">
        <ele>52.4</ele>
        <time>2023-08-10T08:54:11Z</time>
      </trkpt>
      <trkpt lat="49.84072" lon="2.30637">
        <ele>52.3</ele>
        <time>2023-08-10T08:54:12Z</time>
      </trkpt>
      <trkpt lat="49.84073" lon="2.30638">
        <ele>52.3</ele>
        <time>2023-08-10T08:54:13Z</time>
      </trkpt>
      <trkpt lat="49.84075" lon="2.30639">
        <ele>52.2</ele>
        <time>2023-08-10T08:54:14Z</time>
      </trkpt>
      <trkpt lat="49.84075" lon="2.30639">
        <ele>52.2</ele>
        <time>2023-08-10T08:54:15Z</time>
      </trkpt>
      <trkpt lat="49.84076" lon="2.3064">
        <ele>52.2</ele>
        <time>2023-08-10T08:54:16Z</time>
      </trkpt>
      <trkpt lat="49.84078" lon="2.30641">
        <ele>52.1</ele>
        <time>2023-08-10T08:54:17Z</time>
      </trkpt>
      <trkpt lat="49.84079" lon="2.30642">
        <ele>52.1</ele>
        <time>2023-08-10T08:54:18Z</time>
      </trkpt>
      <trkpt lat="49.8408" lon="2.30642">
        <ele>52.1</ele>
        <time>2023-08-10T08:54:19Z</time>
      </trkpt>
      <trkpt lat="49.84082" lon="2.30643">
        <ele>52</ele>
        <time>2023-08-10T08:54:21Z</time>
      </trkpt>
      <trkpt lat="49.84082" lon="2.30644">
        <ele>51.9</ele>
        <time>2023-08-10T08:54:22Z</time>
      </trkpt>
      <trkpt lat="49.84083" lon="2.30644">
        <ele>51.9</ele>
        <time>2023-08-10T08:54:23Z</time>
      </trkpt>
      <trkpt lat="49.84085" lon="2.30646">
        <ele>51.8</ele>
        <time>2023-08-10T08:54:24Z</time>
      </trkpt>
      <trkpt lat="49.84086" lon="2.30646">
        <ele>51.8</ele>
        <time>2023-08-10T08:54:25Z</time>
      </trkpt>
      <trkpt lat="49.84087" lon="2.30647">
        <ele>51.8</ele>
        <time>2023-08-10T08:54:26Z</time>
      </trkpt>
      <trkpt lat="49.84088" lon="2.30648">
        <ele>51.7</ele>
        <time>2023-08-10T08:54:27Z</time>
      </trkpt>
      <trkpt lat="49.84089" lon="2.30649">
        <ele>51.7</ele>
        <time>2023-08-10T08:54:29Z</time>
      </trkpt>
      <trkpt lat="49.8409" lon="2.30649">
        <ele>51.6</ele>
        <time>2023-08-10T08:54:30Z</time>
      </trkpt>
      <trkpt lat="49.84092" lon="2.3065">
        <ele>51.6</ele>
        <time>2023-08-10T08:54:31Z</time>
      </trkpt>
      <trkpt lat="49.84093" lon="2.3065">
        <ele>51.5</ele>
        <time>2023-08-10T08:54:32Z</time>
      </trkpt>
      <trkpt lat="49.84095" lon="2.30651">
        <ele>51.5</ele>
        <time>2023-08-10T08:54:33Z</time>
      </trkpt>
      <trkpt lat="49.84096" lon="2.30652">
        <ele>51.4</ele>
        <time>2023-08-10T08:54:34Z</time>
      </trkpt>
      <trkpt lat="49.84097" lon="2.30652">
        <ele>51.4</ele>
        <time>2023-08-10T08:54:35Z</time>
      </trkpt>
      <trkpt lat="49.84098" lon="2.30653">
        <ele>51.4</ele>
        <time>2023-08-10T08:54:37Z</time>
      </trkpt>
      <trkpt lat="49.841" lon="2.30654">
        <ele>51.3</ele>
        <time>2023-08-10T08:54:38Z</time>
      </trkpt>
      <trkpt lat="49.84101" lon="2.30655">
        <ele>51.3</ele>
        <time>2023-08-10T08:54:39Z</time>
      </trkpt>
      <trkpt lat="49.84102" lon="2.30656">
        <ele>51.3</ele>
        <time>2023-08-10T08:54:40Z</time>
      </trkpt>
      <trkpt lat="49.84103" lon="2.30657">
        <ele>51.2</ele>
        <time>2023-08-10T08:54:41Z</time>
      </trkpt>
      <trkpt lat="49.84105" lon="2.30658">
        <ele>51.2</ele>
        <time>2023-08-10T08:54:43Z</time>
      </trkpt>
      <trkpt lat="49.84105" lon="2.30658">
        <ele>51.2</ele>
        <time>2023-08-10T08:54:44Z</time>
      </trkpt>
      <trkpt lat="49.84106" lon="2.30659">
        <ele>51.2</ele>
        <time>2023-08-10T08:54:45Z</time>
      </trkpt>
      <trkpt lat="49.84107" lon="2.30658">
        <ele>51.1</ele>
        <time>2023-08-10T08:54:47Z</time>
      </trkpt>
      <trkpt lat="49.84107" lon="2.30658">
        <ele>51.1</ele>
        <time>2023-08-10T08:54:48Z</time>
      </trkpt>
      <trkpt lat="49.84108" lon="2.30658">
        <ele>51.1</ele>
        <time>2023-08-10T08:54:50Z</time>
      </trkpt>
      <trkpt lat="49.84108" lon="2.30658">
        <ele>51.1</ele>
        <time>2023-08-10T08:54:51Z</time>
      </trkpt>
      <trkpt lat="49.84108" lon="2.30659">
        <ele>51.2</ele>
        <time>2023-08-10T08:54:53Z</time>
      </trkpt>
      <trkpt lat="49.84108" lon="2.30659">
        <ele>51.2</ele>
        <time>2023-08-10T08:54:54Z</time>
      </trkpt>
      <trkpt lat="49.84108" lon="2.30659">
        <ele>51.2</ele>
        <time>2023-08-10T08:54:56Z</time>
      </trkpt>
      <trkpt lat="49.84108" lon="2.30658">
        <ele>51.2</ele>
        <time>2023-08-10T08:54:57Z</time>
      </trkpt>
      <trkpt lat="49.84108" lon="2.30658">
        <ele>51.2</ele>
        <time>2023-08-10T08:54:59Z</time>
      </trkpt>
      <trkpt lat="49.84108" lon="2.30658">
        <ele>51.2</ele>
        <time>2023-08-10T08:55:00Z</time>
      </trkpt>
      <trkpt lat="49.84107" lon="2.30658">
        <ele>51.2</ele>
        <time>2023-08-10T08:55:01Z</time>
      </trkpt>
      <trkpt lat="49.84107" lon="2.30658">
        <ele>51.2</ele>
        <time>2023-08-10T08:55:02Z</time>
      </trkpt>
      <trkpt lat="49.84107" lon="2.30658">
        <ele>51.2</ele>
        <time>2023-08-10T08:55:03Z</time>
      </trkpt>
      <trkpt lat="49.84107" lon="2.30658">
        <ele>51.2</ele>
        <time>2023-08-10T08:55:04Z</time>
      </trkpt>
      <trkpt lat="49.84107" lon="2.30658">
        <ele>51.2</ele>
        <time>2023-08-10T08:55:05Z</time>
      </trkpt>
      <trkpt lat="49.84107" lon="2.30658">
        <ele>51.2</ele>
        <time>2023-08-10T08:55:06Z</time>
      </trkpt>
      <trkpt lat="49.84107" lon="2.30658">
        <ele>51.2</ele>
        <time>2023-08-10T08:55:07Z</time>
      </trkpt>
      <trkpt lat="49.84107" lon="2.30658">
        <ele>51.2</ele>
        <time>2023-08-10T08:55:08Z</time>
      </trkpt>
      <trkpt lat="49.84107" lon="2.30658">
        <ele>51.2</ele>
        <time>2023-08-10T08:55:09Z</time>
      </trkpt>
      <trkpt lat="49.84107" lon="2.30658">
        <ele>51.2</ele>
        <time>2023-08-10T08:55:10Z</time>
      </trkpt>
      <trkpt lat="49.84107" lon="2.30658">
        <ele>51.2</ele>
        <time>2023-08-10T08:55:11Z</time>
      </trkpt>
      <trkpt lat="49.84107" lon="2.30658">
        <ele>51.2</ele>
        <time>2023-08-10T08:55:12Z</time>
      </trkpt>
      <trkpt lat="49.84107" lon="2.30658">
        <ele>51.2</ele>
        <time>2023-08-10T08:55:13Z</time>
      </trkpt>
      <trkpt lat="49.84107" lon="2.30658">
        <ele>51.2</ele>
        <time>2023-08-10T08:55:14Z</time>
      </trkpt>
      <trkpt lat="49.84107" lon="2.30658">
        <ele>51.2</ele>
        <time>2023-08-10T08:55:15Z</time>
      </trkpt>
      <trkpt lat="49.84107" lon="2.30658">
        <ele>51.2</ele>
        <time>2023-08-10T08:55:16Z</time>
      </trkpt>
      <trkpt lat="49.84107" lon="2.30658">
        <ele>51.2</ele>
        <time>2023-08-10T08:55:17Z</time>
      </trkpt>
      <trkpt lat="49.84107" lon="2.30658">
        <ele>51.2</ele>
        <time>2023-08-10T08:55:18Z</time>
      </trkpt>
      <trkpt lat="49.84107" lon="2.30658">
        <ele>51.2</ele>
        <time>2023-08-10T08:55:19Z</time>
      </trkpt>
      <trkpt lat="49.84107" lon="2.30658">
        <ele>51.2</ele>
        <time>2023-08-10T08:55:20Z</time>
      </trkpt>
      <trkpt lat="49.84107" lon="2.30658">
        <ele>51.2</ele>
        <time>2023-08-10T08:55:21Z</time>
      </trkpt>
      <trkpt lat="49.84107" lon="2.30658">
        <ele>51.2</ele>
        <time>2023-08-10T08:55:22Z</time>
      </trkpt>
      <trkpt lat="49.84107" lon="2.30658">
        <ele>51.2</ele>
        <time>2023-08-10T08:55:23Z</time>
      </trkpt>
      <trkpt lat="49.84107" lon="2.30658">
        <ele>51.2</ele>
        <time>2023-08-10T08:55:24Z</time>
      </trkpt>
      <trkpt lat="49.84107" lon="2.30658">
        <ele>51.2</ele>
        <time>2023-08-10T08:55:25Z</time>
      </trkpt>
      <trkpt lat="49.84107" lon="2.30658">
        <ele>51.2</ele>
        <time>2023-08-10T08:55:26Z</time>
      </trkpt>
      <trkpt lat="49.84108" lon="2.30658">
        <ele>51.2</ele>
        <time>2023-08-10T08:55:28Z</time>
      </trkpt>
      <trkpt lat="49.84108" lon="2.30658">
        <ele>51.2</ele>
        <time>2023-08-10T08:55:29Z</time>
      </trkpt>
      <trkpt lat="49.84108" lon="2.30659">
        <ele>51.3</ele>
        <time>2023-08-10T08:55:31Z</time>
      </trkpt>
      <trkpt lat="49.84109" lon="2.3066">
        <ele>51.3</ele>
        <time>2023-08-10T08:55:32Z</time>
      </trkpt>
      <trkpt lat="49.8411" lon="2.30662">
        <ele>51.3</ele>
        <time>2023-08-10T08:55:33Z</time>
      </trkpt>
      <trkpt lat="49.8411" lon="2.30663">
        <ele>51.3</ele>
        <time>2023-08-10T08:55:34Z</time>
      </trkpt>
      <trkpt lat="49.84111" lon="2.30666">
        <ele>51.4</ele>
        <time>2023-08-10T08:55:35Z</time>
      </trkpt>
      <trkpt lat="49.84111" lon="2.30668">
        <ele>51.4</ele>
        <time>2023-08-10T08:55:36Z</time>
      </trkpt>
      <trkpt lat="49.84112" lon="2.3067">
        <ele>51.5</ele>
        <time>2023-08-10T08:55:37Z</time>
      </trkpt>
      <trkpt lat="49.84112" lon="2.30672">
        <ele>51.5</ele>
        <time>2023-08-10T08:55:38Z</time>
      </trkpt>
      <trkpt lat="49.84112" lon="2.30674">
        <ele>51.5</ele>
        <time>2023-08-10T08:55:39Z</time>
      </trkpt>
      <trkpt lat="49.84112" lon="2.30676">
        <ele>51.6</ele>
        <time>2023-08-10T08:55:40Z</time>
      </trkpt>
      <trkpt lat="49.84112" lon="2.30677">
        <ele>51.6</ele>
        <time>2023-08-10T08:55:42Z</time>
      </trkpt>
      <trkpt lat="49.84113" lon="2.30679">
        <ele>51.6</ele>
        <time>2023-08-10T08:55:43Z</time>
      </trkpt>
      <trkpt lat="49.84113" lon="2.30681">
        <ele>51.7</ele>
        <time>2023-08-10T08:55:44Z</time>
      </trkpt>
      <trkpt lat="49.84113" lon="2.30682">
        <ele>51.7</ele>
        <time>2023-08-10T08:55:45Z</time>
      </trkpt>
      <trkpt lat="49.84112" lon="2.30683">
        <ele>51.7</ele>
        <time>2023-08-10T08:55:46Z</time>
      </trkpt>
      <trkpt lat="49.84112" lon="2.30684">
        <ele>51.8</ele>
        <time>2023-08-10T08:55:47Z</time>
      </trkpt>
      <trkpt lat="49.84112" lon="2.30685">
        <ele>51.8</ele>
        <time>2023-08-10T08:55:48Z</time>
      </trkpt>
      <trkpt lat="49.84111" lon="2.30687">
        <ele>51.8</ele>
        <time>2023-08-10T08:55:50Z</time>
      </trkpt>
      <trkpt lat="49.84111" lon="2.30688">
        <ele>51.8</ele>
        <time>2023-08-10T08:55:51Z</time>
      </trkpt>
      <trkpt lat="49.84111" lon="2.30688">
        <ele>51.8</ele>
        <time>2023-08-10T08:55:52Z</time>
      </trkpt>
      <trkpt lat="49.8411" lon="2.30689">
        <ele>51.9</ele>
        <time>2023-08-10T08:55:54Z</time>
      </trkpt>
      <trkpt lat="49.8411" lon="2.3069">
        <ele>51.9</ele>
        <time>2023-08-10T08:55:55Z</time>
      </trkpt>
      <trkpt lat="49.84109" lon="2.30691">
        <ele>51.9</ele>
        <time>2023-08-10T08:55:56Z</time>
      </trkpt>
      <trkpt lat="49.84109" lon="2.30692">
        <ele>51.9</ele>
        <time>2023-08-10T08:55:57Z</time>
      </trkpt>
      <trkpt lat="49.84109" lon="2.30693">
        <ele>52</ele>
        <time>2023-08-10T08:55:58Z</time>
      </trkpt>
      <trkpt lat="49.84108" lon="2.30695">
        <ele>52</ele>
        <time>2023-08-10T08:55:59Z</time>
      </trkpt>
      <trkpt lat="49.84108" lon="2.30696">
        <ele>52</ele>
        <time>2023-08-10T08:56:00Z</time>
      </trkpt>
      <trkpt lat="49.84108" lon="2.30698">
        <ele>52.1</ele>
        <time>2023-08-10T08:56:01Z</time>
      </trkpt>
      <trkpt lat="49.84108" lon="2.30699">
        <ele>52.1</ele>
        <time>2023-08-10T08:56:03Z</time>
      </trkpt>
      <trkpt lat="49.84107" lon="2.30701">
        <ele>52.2</ele>
        <time>2023-08-10T08:56:04Z</time>
      </trkpt>
      <trkpt lat="49.84107" lon="2.30703">
        <ele>52.2</ele>
        <time>2023-08-10T08:56:05Z</time>
      </trkpt>
      <trkpt lat="49.84107" lon="2.30704">
        <ele>52.2</ele>
        <time>2023-08-10T08:56:06Z</time>
      </trkpt>
      <trkpt lat="49.84107" lon="2.30706">
        <ele>52.3</ele>
        <time>2023-08-10T08:56:07Z</time>
      </trkpt>
      <trkpt lat="49.84106" lon="2.30707">
        <ele>52.3</ele>
        <time>2023-08-10T08:56:08Z</time>
      </trkpt>
      <trkpt lat="49.84106" lon="2.30709">
        <ele>52.3</ele>
        <time>2023-08-10T08:56:09Z</time>
      </trkpt>
      <trkpt lat="49.84105" lon="2.30712">
        <ele>52.4</ele>
        <time>2023-08-10T08:56:11Z</time>
      </trkpt>
      <trkpt lat="49.84105" lon="2.30713">
        <ele>52.5</ele>
        <time>2023-08-10T08:56:12Z</time>
      </trkpt>
      <trkpt lat="49.84104" lon="2.30714">
        <ele>52.5</ele>
        <time>2023-08-10T08:56:13Z</time>
      </trkpt>
      <trkpt lat="49.84104" lon="2.30715">
        <ele>52.5</ele>
        <time>2023-08-10T08:56:14Z</time>
      </trkpt>
      <trkpt lat="49.84104" lon="2.30717">
        <ele>52.6</ele>
        <time>2023-08-10T08:56:16Z</time>
      </trkpt>
      <trkpt lat="49.84103" lon="2.30718">
        <ele>52.7</ele>
        <time>2023-08-10T08:56:17Z</time>
      </trkpt>
      <trkpt lat="49.84103" lon="2.30722">
        <ele>52.8</ele>
        <time>2023-08-10T08:56:18Z</time>
      </trkpt>
      <trkpt lat="49.84102" lon="2.30723">
        <ele>52.8</ele>
        <time>2023-08-10T08:56:19Z</time>
      </trkpt>
      <trkpt lat="49.84102" lon="2.30724">
        <ele>52.8</ele>
        <time>2023-08-10T08:56:20Z</time>
      </trkpt>
      <trkpt lat="49.84101" lon="2.30727">
        <ele>52.9</ele>
        <time>2023-08-10T08:56:21Z</time>
      </trkpt>
      <trkpt lat="49.84101" lon="2.30728">
        <ele>53</ele>
        <time>2023-08-10T08:56:23Z</time>
      </trkpt>
      <trkpt lat="49.841" lon="2.30729">
        <ele>53</ele>
        <time>2023-08-10T08:56:24Z</time>
      </trkpt>
      <trkpt lat="49.84099" lon="2.30732">
        <ele>53.1</ele>
        <time>2023-08-10T08:56:25Z</time>
      </trkpt>
      <trkpt lat="49.84099" lon="2.30733">
        <ele>53.2</ele>
        <time>2023-08-10T08:56:26Z</time>
      </trkpt>
      <trkpt lat="49.84099" lon="2.30735">
        <ele>53.2</ele>
        <time>2023-08-10T08:56:27Z</time>
      </trkpt>
      <trkpt lat="49.84099" lon="2.30738">
        <ele>53.3</ele>
        <time>2023-08-10T08:56:29Z</time>
      </trkpt>
      <trkpt lat="49.84099" lon="2.3074">
        <ele>53.4</ele>
        <time>2023-08-10T08:56:30Z</time>
      </trkpt>
      <trkpt lat="49.84099" lon="2.30742">
        <ele>53.5</ele>
        <time>2023-08-10T08:56:31Z</time>
      </trkpt>
      <trkpt lat="49.84099" lon="2.30743">
        <ele>53.5</ele>
        <time>2023-08-10T08:56:33Z</time>
      </trkpt>
      <trkpt lat="49.84098" lon="2.30745">
        <ele>53.6</ele>
        <time>2023-08-10T08:56:34Z</time>
      </trkpt>
      <trkpt lat="49.84098" lon="2.30746">
        <ele>53.6</ele>
        <time>2023-08-10T08:56:35Z</time>
      </trkpt>
      <trkpt lat="49.84097" lon="2.30748">
        <ele>53.7</ele>
        <time>2023-08-10T08:56:36Z</time>
      </trkpt>
      <trkpt lat="49.84096" lon="2.30749">
        <ele>53.7</ele>
        <time>2023-08-10T08:56:37Z</time>
      </trkpt>
      <trkpt lat="49.84096" lon="2.3075">
        <ele>53.8</ele>
        <time>2023-08-10T08:56:39Z</time>
      </trkpt>
      <trkpt lat="49.84095" lon="2.30751">
        <ele>53.8</ele>
        <time>2023-08-10T08:56:40Z</time>
      </trkpt>
      <trkpt lat="49.84095" lon="2.30753">
        <ele>53.9</ele>
        <time>2023-08-10T08:56:41Z</time>
      </trkpt>
      <trkpt lat="49.84094" lon="2.30756">
        <ele>54</ele>
        <time>2023-08-10T08:56:42Z</time>
      </trkpt>
      <trkpt lat="49.84094" lon="2.30757">
        <ele>54.1</ele>
        <time>2023-08-10T08:56:43Z</time>
      </trkpt>
      <trkpt lat="49.84093" lon="2.30759">
        <ele>54.1</ele>
        <time>2023-08-10T08:56:44Z</time>
      </trkpt>
      <trkpt lat="49.84093" lon="2.30762">
        <ele>54.2</ele>
        <time>2023-08-10T08:56:46Z</time>
      </trkpt>
      <trkpt lat="49.84093" lon="2.30764">
        <ele>54.3</ele>
        <time>2023-08-10T08:56:47Z</time>
      </trkpt>
      <trkpt lat="49.84093" lon="2.30767">
        <ele>54.4</ele>
        <time>2023-08-10T08:56:48Z</time>
      </trkpt>
      <trkpt lat="49.84092" lon="2.30769">
        <ele>54.5</ele>
        <time>2023-08-10T08:56:49Z</time>
      </trkpt>
      <trkpt lat="49.84092" lon="2.30772">
        <ele>54.6</ele>
        <time>2023-08-10T08:56:50Z</time>
      </trkpt>
      <trkpt lat="49.84092" lon="2.30774">
        <ele>54.7</ele>
        <time>2023-08-10T08:56:52Z</time>
      </trkpt>
      <trkpt lat="49.84092" lon="2.30775">
        <ele>54.7</ele>
        <time>2023-08-10T08:56:53Z</time>
      </trkpt>
      <trkpt lat="49.84091" lon="2.30778">
        <ele>54.9</ele>
        <time>2023-08-10T08:56:54Z</time>
      </trkpt>
      <trkpt lat="49.84091" lon="2.30779">
        <ele>54.9</ele>
        <time>2023-08-10T08:56:55Z</time>
      </trkpt>
      <trkpt lat="49.84091" lon="2.3078">
        <ele>55</ele>
        <time>2023-08-10T08:56:56Z</time>
      </trkpt>
      <trkpt lat="49.84091" lon="2.30782">
        <ele>55</ele>
        <time>2023-08-10T08:56:58Z</time>
      </trkpt>
      <trkpt lat="49.8409" lon="2.30784">
        <ele>55.1</ele>
        <time>2023-08-10T08:56:59Z</time>
      </trkpt>
      <trkpt lat="49.8409" lon="2.30786">
        <ele>55.2</ele>
        <time>2023-08-10T08:57:00Z</time>
      </trkpt>
      <trkpt lat="49.84089" lon="2.30787">
        <ele>55.3</ele>
        <time>2023-08-10T08:57:01Z</time>
      </trkpt>
      <trkpt lat="49.84089" lon="2.30788">
        <ele>55.3</ele>
        <time>2023-08-10T08:57:02Z</time>
      </trkpt>
      <trkpt lat="49.84089" lon="2.3079">
        <ele>55.4</ele>
        <time>2023-08-10T08:57:03Z</time>
      </trkpt>
      <trkpt lat="49.84088" lon="2.30791">
        <ele>55.5</ele>
        <time>2023-08-10T08:57:04Z</time>
      </trkpt>
      <trkpt lat="49.84088" lon="2.30793">
        <ele>55.5</ele>
        <time>2023-08-10T08:57:06Z</time>
      </trkpt>
      <trkpt lat="49.84087" lon="2.30795">
        <ele>55.6</ele>
        <time>2023-08-10T08:57:07Z</time>
      </trkpt>
      <trkpt lat="49.84087" lon="2.30797">
        <ele>55.7</ele>
        <time>2023-08-10T08:57:08Z</time>
      </trkpt>
      <trkpt lat="49.84087" lon="2.30798">
        <ele>55.8</ele>
        <time>2023-08-10T08:57:09Z</time>
      </trkpt>
      <trkpt lat="49.84087" lon="2.308">
        <ele>55.8</ele>
        <time>2023-08-10T08:57:10Z</time>
      </trkpt>
      <trkpt lat="49.84086" lon="2.30802">
        <ele>55.9</ele>
        <time>2023-08-10T08:57:12Z</time>
      </trkpt>
      <trkpt lat="49.84086" lon="2.30803">
        <ele>56</ele>
        <time>2023-08-10T08:57:13Z</time>
      </trkpt>
      <trkpt lat="49.84085" lon="2.30805">
        <ele>56.1</ele>
        <time>2023-08-10T08:57:14Z</time>
      </trkpt>
      <trkpt lat="49.84085" lon="2.30807">
        <ele>56.1</ele>
        <time>2023-08-10T08:57:15Z</time>
      </trkpt>
      <trkpt lat="49.84085" lon="2.30808">
        <ele>56.2</ele>
        <time>2023-08-10T08:57:16Z</time>
      </trkpt>
      <trkpt lat="49.84084" lon="2.3081">
        <ele>56.3</ele>
        <time>2023-08-10T08:57:17Z</time>
      </trkpt>
      <trkpt lat="49.84084" lon="2.30813">
        <ele>56.4</ele>
        <time>2023-08-10T08:57:19Z</time>
      </trkpt>
      <trkpt lat="49.84083" lon="2.30814">
        <ele>56.5</ele>
        <time>2023-08-10T08:57:20Z</time>
      </trkpt>
      <trkpt lat="49.84083" lon="2.30817">
        <ele>56.6</ele>
        <time>2023-08-10T08:57:21Z</time>
      </trkpt>
      <trkpt lat="49.84082" lon="2.30818">
        <ele>56.7</ele>
        <time>2023-08-10T08:57:23Z</time>
      </trkpt>
      <trkpt lat="49.84082" lon="2.30819">
        <ele>56.7</ele>
        <time>2023-08-10T08:57:24Z</time>
      </trkpt>
      <trkpt lat="49.84081" lon="2.30821">
        <ele>56.8</ele>
        <time>2023-08-10T08:57:25Z</time>
      </trkpt>
      <trkpt lat="49.84081" lon="2.30823">
        <ele>56.9</ele>
        <time>2023-08-10T08:57:26Z</time>
      </trkpt>
      <trkpt lat="49.84081" lon="2.30824">
        <ele>57</ele>
        <time>2023-08-10T08:57:27Z</time>
      </trkpt>
      <trkpt lat="49.8408" lon="2.30827">
        <ele>57.1</ele>
        <time>2023-08-10T08:57:28Z</time>
      </trkpt>
      <trkpt lat="49.8408" lon="2.30828">
        <ele>57.2</ele>
        <time>2023-08-10T08:57:30Z</time>
      </trkpt>
      <trkpt lat="49.84079" lon="2.30829">
        <ele>57.2</ele>
        <time>2023-08-10T08:57:31Z</time>
      </trkpt>
      <trkpt lat="49.84079" lon="2.30831">
        <ele>57.3</ele>
        <time>2023-08-10T08:57:32Z</time>
      </trkpt>
      <trkpt lat="49.84078" lon="2.30833">
        <ele>57.4</ele>
        <time>2023-08-10T08:57:33Z</time>
      </trkpt>
      <trkpt lat="49.84078" lon="2.30834">
        <ele>57.5</ele>
        <time>2023-08-10T08:57:34Z</time>
      </trkpt>
      <trkpt lat="49.84077" lon="2.30836">
        <ele>57.6</ele>
        <time>2023-08-10T08:57:35Z</time>
      </trkpt>
      <trkpt lat="49.84077" lon="2.30838">
        <ele>57.7</ele>
        <time>2023-08-10T08:57:37Z</time>
      </trkpt>
      <trkpt lat="49.84077" lon="2.3084">
        <ele>57.7</ele>
        <time>2023-08-10T08:57:38Z</time>
      </trkpt>
      <trkpt lat="49.84076" lon="2.30841">
        <ele>57.8</ele>
        <time>2023-08-10T08:57:39Z</time>
      </trkpt>
      <trkpt lat="49.84076" lon="2.30843">
        <ele>57.9</ele>
        <time>2023-08-10T08:57:40Z</time>
      </trkpt>
      <trkpt lat="49.84075" lon="2.30844">
        <ele>58</ele>
        <time>2023-08-10T08:57:41Z</time>
      </trkpt>
      <trkpt lat="49.84075" lon="2.30846">
        <ele>58</ele>
        <time>2023-08-10T08:57:43Z</time>
      </trkpt>
      <trkpt lat="49.84074" lon="2.30847">
        <ele>58.1</ele>
        <time>2023-08-10T08:57:44Z</time>
      </trkpt>
      <trkpt lat="49.84074" lon="2.30849">
        <ele>58.2</ele>
        <time>2023-08-10T08:57:45Z</time>
      </trkpt>
      <trkpt lat="49.84073" lon="2.3085">
        <ele>58.3</ele>
        <time>2023-08-10T08:57:46Z</time>
      </trkpt>
      <trkpt lat="49.84073" lon="2.30852">
        <ele>58.4</ele>
        <time>2023-08-10T08:57:47Z</time>
      </trkpt>
      <trkpt lat="49.84073" lon="2.30853">
        <ele>58.4</ele>
        <time>2023-08-10T08:57:48Z</time>
      </trkpt>
      <trkpt lat="49.84072" lon="2.30855">
        <ele>58.5</ele>
        <time>2023-08-10T08:57:49Z</time>
      </trkpt>
      <trkpt lat="49.84072" lon="2.30857">
        <ele>58.6</ele>
        <time>2023-08-10T08:57:50Z</time>
      </trkpt>
      <trkpt lat="49.84072" lon="2.30859">
        <ele>58.7</ele>
        <time>2023-08-10T08:57:52Z</time>
      </trkpt>
      <trkpt lat="49.84072" lon="2.30861">
        <ele>58.8</ele>
        <time>2023-08-10T08:57:53Z</time>
      </trkpt>
      <trkpt lat="49.84071" lon="2.30862">
        <ele>58.9</ele>
        <time>2023-08-10T08:57:54Z</time>
      </trkpt>
      <trkpt lat="49.84071" lon="2.30864">
        <ele>58.9</ele>
        <time>2023-08-10T08:57:55Z</time>
      </trkpt>
      <trkpt lat="49.8407" lon="2.30865">
        <ele>59</ele>
        <time>2023-08-10T08:57:57Z</time>
      </trkpt>
      <trkpt lat="49.8407" lon="2.30867">
        <ele>59.1</ele>
        <time>2023-08-10T08:57:58Z</time>
      </trkpt>
      <trkpt lat="49.84069" lon="2.30868">
        <ele>59.2</ele>
        <time>2023-08-10T08:57:59Z</time>
      </trkpt>
      <trkpt lat="49.84069" lon="2.3087">
        <ele>59.3</ele>
        <time>2023-08-10T08:58:00Z</time>
      </trkpt>
      <trkpt lat="49.84069" lon="2.30871">
        <ele>59.3</ele>
        <time>2023-08-10T08:58:01Z</time>
      </trkpt>
      <trkpt lat="49.84068" lon="2.30873">
        <ele>59.4</ele>
        <time>2023-08-10T08:58:02Z</time>
      </trkpt>
      <trkpt lat="49.84068" lon="2.30874">
        <ele>59.5</ele>
        <time>2023-08-10T08:58:04Z</time>
      </trkpt>
      <trkpt lat="49.84067" lon="2.30876">
        <ele>59.6</ele>
        <time>2023-08-10T08:58:05Z</time>
      </trkpt>
      <trkpt lat="49.84067" lon="2.30878">
        <ele>59.7</ele>
        <time>2023-08-10T08:58:06Z</time>
      </trkpt>
      <trkpt lat="49.84067" lon="2.30879">
        <ele>59.8</ele>
        <time>2023-08-10T08:58:07Z</time>
      </trkpt>
      <trkpt lat="49.84066" lon="2.30881">
        <ele>59.9</ele>
        <time>2023-08-10T08:58:08Z</time>
      </trkpt>
      <trkpt lat="49.84066" lon="2.30883">
        <ele>60</ele>
        <time>2023-08-10T08:58:09Z</time>
      </trkpt>
      <trkpt lat="49.84066" lon="2.30886">
        <ele>60.1</ele>
        <time>2023-08-10T08:58:11Z</time>
      </trkpt>
      <trkpt lat="49.84065" lon="2.30888">
        <ele>60.2</ele>
        <time>2023-08-10T08:58:12Z</time>
      </trkpt>
      <trkpt lat="49.84065" lon="2.30889">
        <ele>60.3</ele>
        <time>2023-08-10T08:58:13Z</time>
      </trkpt>
      <trkpt lat="49.84065" lon="2.30891">
        <ele>60.4</ele>
        <time>2023-08-10T08:58:14Z</time>
      </trkpt>
      <trkpt lat="49.84065" lon="2.30892">
        <ele>60.5</ele>
        <time>2023-08-10T08:58:15Z</time>
      </trkpt>
      <trkpt lat="49.84065" lon="2.30894">
        <ele>60.5</ele>
        <time>2023-08-10T08:58:16Z</time>
      </trkpt>
      <trkpt lat="49.84064" lon="2.30897">
        <ele>60.7</ele>
        <time>2023-08-10T08:58:17Z</time>
      </trkpt>
      <trkpt lat="49.84064" lon="2.30899">
        <ele>60.8</ele>
        <time>2023-08-10T08:58:19Z</time>
      </trkpt>
      <trkpt lat="49.84064" lon="2.309">
        <ele>60.8</ele>
        <time>2023-08-10T08:58:20Z</time>
      </trkpt>
      <trkpt lat="49.84064" lon="2.30902">
        <ele>60.9</ele>
        <time>2023-08-10T08:58:21Z</time>
      </trkpt>
      <trkpt lat="49.84064" lon="2.30903">
        <ele>61</ele>
        <time>2023-08-10T08:58:22Z</time>
      </trkpt>
      <trkpt lat="49.84064" lon="2.30905">
        <ele>61.1</ele>
        <time>2023-08-10T08:58:23Z</time>
      </trkpt>
      <trkpt lat="49.84063" lon="2.30908">
        <ele>61.3</ele>
        <time>2023-08-10T08:58:24Z</time>
      </trkpt>
      <trkpt lat="49.84063" lon="2.3091">
        <ele>61.3</ele>
        <time>2023-08-10T08:58:26Z</time>
      </trkpt>
      <trkpt lat="49.84063" lon="2.30911">
        <ele>61.4</ele>
        <time>2023-08-10T08:58:27Z</time>
      </trkpt>
      <trkpt lat="49.84063" lon="2.30913">
        <ele>61.5</ele>
        <time>2023-08-10T08:58:28Z</time>
      </trkpt>
      <trkpt lat="49.84062" lon="2.30914">
        <ele>61.5</ele>
        <time>2023-08-10T08:58:29Z</time>
      </trkpt>
      <trkpt lat="49.84062" lon="2.30916">
        <ele>61.6</ele>
        <time>2023-08-10T08:58:31Z</time>
      </trkpt>
      <trkpt lat="49.84062" lon="2.30917">
        <ele>61.7</ele>
        <time>2023-08-10T08:58:32Z</time>
      </trkpt>
      <trkpt lat="49.84061" lon="2.30919">
        <ele>61.8</ele>
        <time>2023-08-10T08:58:33Z</time>
      </trkpt>
      <trkpt lat="49.84061" lon="2.3092">
        <ele>61.9</ele>
        <time>2023-08-10T08:58:34Z</time>
      </trkpt>
      <trkpt lat="49.84061" lon="2.30921">
        <ele>61.9</ele>
        <time>2023-08-10T08:58:35Z</time>
      </trkpt>
      <trkpt lat="49.8406" lon="2.30923">
        <ele>62</ele>
        <time>2023-08-10T08:58:36Z</time>
      </trkpt>
      <trkpt lat="49.8406" lon="2.30924">
        <ele>62</ele>
        <time>2023-08-10T08:58:37Z</time>
      </trkpt>
      <trkpt lat="49.8406" lon="2.30925">
        <ele>62.1</ele>
        <time>2023-08-10T08:58:38Z</time>
      </trkpt>
      <trkpt lat="49.84059" lon="2.30926">
        <ele>62.2</ele>
        <time>2023-08-10T08:58:39Z</time>
      </trkpt>
      <trkpt lat="49.84059" lon="2.30928">
        <ele>62.3</ele>
        <time>2023-08-10T08:58:41Z</time>
      </trkpt>
      <trkpt lat="49.84058" lon="2.30929">
        <ele>62.3</ele>
        <time>2023-08-10T08:58:43Z</time>
      </trkpt>
      <trkpt lat="49.84058" lon="2.3093">
        <ele>62.4</ele>
        <time>2023-08-10T08:58:44Z</time>
      </trkpt>
      <trkpt lat="49.84057" lon="2.30932">
        <ele>62.5</ele>
        <time>2023-08-10T08:58:45Z</time>
      </trkpt>
      <trkpt lat="49.84057" lon="2.30933">
        <ele>62.6</ele>
        <time>2023-08-10T08:58:46Z</time>
      </trkpt>
      <trkpt lat="49.84056" lon="2.30934">
        <ele>62.6</ele>
        <time>2023-08-10T08:58:47Z</time>
      </trkpt>
      <trkpt lat="49.84056" lon="2.30935">
        <ele>62.7</ele>
        <time>2023-08-10T08:58:48Z</time>
      </trkpt>
      <trkpt lat="49.84055" lon="2.30937">
        <ele>62.8</ele>
        <time>2023-08-10T08:58:50Z</time>
      </trkpt>
      <trkpt lat="49.84055" lon="2.30938">
        <ele>62.8</ele>
        <time>2023-08-10T08:58:51Z</time>
      </trkpt>
      <trkpt lat="49.84054" lon="2.3094">
        <ele>62.9</ele>
        <time>2023-08-10T08:58:52Z</time>
      </trkpt>
      <trkpt lat="49.84054" lon="2.30941">
        <ele>63</ele>
        <time>2023-08-10T08:58:53Z</time>
      </trkpt>
      <trkpt lat="49.84054" lon="2.30942">
        <ele>63</ele>
        <time>2023-08-10T08:58:54Z</time>
      </trkpt>
      <trkpt lat="49.84054" lon="2.30943">
        <ele>63.1</ele>
        <time>2023-08-10T08:58:56Z</time>
      </trkpt>
      <trkpt lat="49.84053" lon="2.30943">
        <ele>63.1</ele>
        <time>2023-08-10T08:58:57Z</time>
      </trkpt>
      <trkpt lat="49.84053" lon="2.30943">
        <ele>63.1</ele>
        <time>2023-08-10T08:58:58Z</time>
      </trkpt>
      <trkpt lat="49.84053" lon="2.30943">
        <ele>63.1</ele>
        <time>2023-08-10T08:59:00Z</time>
      </trkpt>
      <trkpt lat="49.84053" lon="2.30944">
        <ele>63.2</ele>
        <time>2023-08-10T08:59:01Z</time>
      </trkpt>
      <trkpt lat="49.84053" lon="2.30944">
        <ele>63.2</ele>
        <time>2023-08-10T08:59:02Z</time>
      </trkpt>
      <trkpt lat="49.84052" lon="2.30945">
        <ele>63.2</ele>
        <time>2023-08-10T08:59:03Z</time>
      </trkpt>
      <trkpt lat="49.84052" lon="2.30946">
        <ele>63.3</ele>
        <time>2023-08-10T08:59:04Z</time>
      </trkpt>
      <trkpt lat="49.84052" lon="2.30947">
        <ele>63.3</ele>
        <time>2023-08-10T08:59:06Z</time>
      </trkpt>
      <trkpt lat="49.84051" lon="2.30948">
        <ele>63.4</ele>
        <time>2023-08-10T08:59:07Z</time>
      </trkpt>
      <trkpt lat="49.8405" lon="2.30949">
        <ele>63.5</ele>
        <time>2023-08-10T08:59:08Z</time>
      </trkpt>
      <trkpt lat="49.8405" lon="2.30949">
        <ele>63.5</ele>
        <time>2023-08-10T08:59:09Z</time>
      </trkpt>
      <trkpt lat="49.84048" lon="2.3095">
        <ele>63.6</ele>
        <time>2023-08-10T08:59:10Z</time>
      </trkpt>
      <trkpt lat="49.84048" lon="2.3095">
        <ele>63.7</ele>
        <time>2023-08-10T08:59:12Z</time>
      </trkpt>
      <trkpt lat="49.84047" lon="2.30951">
        <ele>63.7</ele>
        <time>2023-08-10T08:59:13Z</time>
      </trkpt>
      <trkpt lat="49.84046" lon="2.30951">
        <ele>63.8</ele>
        <time>2023-08-10T08:59:14Z</time>
      </trkpt>
      <trkpt lat="49.84045" lon="2.30952">
        <ele>63.9</ele>
        <time>2023-08-10T08:59:15Z</time>
      </trkpt>
      <trkpt lat="49.84044" lon="2.30953">
        <ele>64</ele>
        <time>2023-08-10T08:59:16Z</time>
      </trkpt>
      <trkpt lat="49.84044" lon="2.30955">
        <ele>64.1</ele>
        <time>2023-08-10T08:59:17Z</time>
      </trkpt>
      <trkpt lat="49.84042" lon="2.30957">
        <ele>64.2</ele>
        <time>2023-08-10T08:59:19Z</time>
      </trkpt>
      <trkpt lat="49.84042" lon="2.30959">
        <ele>64.3</ele>
        <time>2023-08-10T08:59:20Z</time>
      </trkpt>
      <trkpt lat="49.84042" lon="2.3096">
        <ele>64.4</ele>
        <time>2023-08-10T08:59:21Z</time>
      </trkpt>
      <trkpt lat="49.84041" lon="2.30963">
        <ele>64.6</ele>
        <time>2023-08-10T08:59:22Z</time>
      </trkpt>
      <trkpt lat="49.84041" lon="2.30964">
        <ele>64.6</ele>
        <time>2023-08-10T08:59:23Z</time>
      </trkpt>
      <trkpt lat="49.84041" lon="2.30966">
        <ele>64.7</ele>
        <time>2023-08-10T08:59:24Z</time>
      </trkpt>
      <trkpt lat="49.8404" lon="2.30967">
        <ele>64.8</ele>
        <time>2023-08-10T08:59:26Z</time>
      </trkpt>
      <trkpt lat="49.8404" lon="2.30969">
        <ele>64.9</ele>
        <time>2023-08-10T08:59:27Z</time>
      </trkpt>
      <trkpt lat="49.8404" lon="2.30971">
        <ele>65</ele>
        <time>2023-08-10T08:59:28Z</time>
      </trkpt>
      <trkpt lat="49.84039" lon="2.30972">
        <ele>65.1</ele>
        <time>2023-08-10T08:59:29Z</time>
      </trkpt>
      <trkpt lat="49.84039" lon="2.30974">
        <ele>65.2</ele>
        <time>2023-08-10T08:59:31Z</time>
      </trkpt>
      <trkpt lat="49.84038" lon="2.30975">
        <ele>65.3</ele>
        <time>2023-08-10T08:59:32Z</time>
      </trkpt>
      <trkpt lat="49.84038" lon="2.30976">
        <ele>65.3</ele>
        <time>2023-08-10T08:59:33Z</time>
      </trkpt>
      <trkpt lat="49.84037" lon="2.30978">
        <ele>65.4</ele>
        <time>2023-08-10T08:59:34Z</time>
      </trkpt>
      <trkpt lat="49.84037" lon="2.3098">
        <ele>65.5</ele>
        <time>2023-08-10T08:59:35Z</time>
      </trkpt>
      <trkpt lat="49.84036" lon="2.30981">
        <ele>65.6</ele>
        <time>2023-08-10T08:59:36Z</time>
      </trkpt>
      <trkpt lat="49.84036" lon="2.30982">
        <ele>65.7</ele>
        <time>2023-08-10T08:59:37Z</time>
      </trkpt>
      <trkpt lat="49.84035" lon="2.30984">
        <ele>65.8</ele>
        <time>2023-08-10T08:59:39Z</time>
      </trkpt>
      <trkpt lat="49.84035" lon="2.30985">
        <ele>65.9</ele>
        <time>2023-08-10T08:59:40Z</time>
      </trkpt>
      <trkpt lat="49.84034" lon="2.30986">
        <ele>66</ele>
        <time>2023-08-10T08:59:41Z</time>
      </trkpt>
      <trkpt lat="49.84034" lon="2.30988">
        <ele>66.1</ele>
        <time>2023-08-10T08:59:42Z</time>
      </trkpt>
      <trkpt lat="49.84033" lon="2.3099">
        <ele>66.3</ele>
        <time>2023-08-10T08:59:43Z</time>
      </trkpt>
      <trkpt lat="49.84033" lon="2.30992">
        <ele>66.4</ele>
        <time>2023-08-10T08:59:45Z</time>
      </trkpt>
      <trkpt lat="49.84032" lon="2.30993">
        <ele>66.4</ele>
        <time>2023-08-10T08:59:46Z</time>
      </trkpt>
      <trkpt lat="49.84032" lon="2.30994">
        <ele>66.5</ele>
        <time>2023-08-10T08:59:47Z</time>
      </trkpt>
      <trkpt lat="49.84031" lon="2.30996">
        <ele>66.7</ele>
        <time>2023-08-10T08:59:48Z</time>
      </trkpt>
      <trkpt lat="49.84031" lon="2.30997">
        <ele>66.7</ele>
        <time>2023-08-10T08:59:49Z</time>
      </trkpt>
      <trkpt lat="49.8403" lon="2.30998">
        <ele>66.8</ele>
        <time>2023-08-10T08:59:50Z</time>
      </trkpt>
      <trkpt lat="49.8403" lon="2.31">
        <ele>67</ele>
        <time>2023-08-10T08:59:52Z</time>
      </trkpt>
      <trkpt lat="49.84029" lon="2.31001">
        <ele>67.1</ele>
        <time>2023-08-10T08:59:53Z</time>
      </trkpt>
      <trkpt lat="49.84029" lon="2.31002">
        <ele>67.1</ele>
        <time>2023-08-10T08:59:54Z</time>
      </trkpt>
      <trkpt lat="49.84028" lon="2.31004">
        <ele>67.3</ele>
        <time>2023-08-10T08:59:55Z</time>
      </trkpt>
      <trkpt lat="49.84027" lon="2.31005">
        <ele>67.4</ele>
        <time>2023-08-10T08:59:56Z</time>
      </trkpt>
      <trkpt lat="49.84027" lon="2.31006">
        <ele>67.5</ele>
        <time>2023-08-10T08:59:57Z</time>
      </trkpt>
      <trkpt lat="49.84026" lon="2.31008">
        <ele>67.6</ele>
        <time>2023-08-10T08:59:58Z</time>
      </trkpt>
      <trkpt lat="49.84025" lon="2.31009">
        <ele>67.7</ele>
        <time>2023-08-10T09:00:00Z</time>
      </trkpt>
      <trkpt lat="49.84025" lon="2.3101">
        <ele>67.8</ele>
        <time>2023-08-10T09:00:01Z</time>
      </trkpt>
      <trkpt lat="49.84024" lon="2.31011">
        <ele>67.9</ele>
        <time>2023-08-10T09:00:02Z</time>
      </trkpt>
      <trkpt lat="49.84024" lon="2.31012">
        <ele>68</ele>
        <time>2023-08-10T09:00:03Z</time>
      </trkpt>
      <trkpt lat="49.84023" lon="2.31013">
        <ele>68.1</ele>
        <time>2023-08-10T09:00:04Z</time>
      </trkpt>
      <trkpt lat="49.84023" lon="2.31015">
        <ele>68.3</ele>
        <time>2023-08-10T09:00:05Z</time>
      </trkpt>
      <trkpt lat="49.84022" lon="2.31017">
        <ele>68.4</ele>
        <time>2023-08-10T09:00:07Z</time>
      </trkpt>
      <trkpt lat="49.84021" lon="2.31018">
        <ele>68.5</ele>
        <time>2023-08-10T09:00:08Z</time>
      </trkpt>
      <trkpt lat="49.84021" lon="2.31019">
        <ele>68.6</ele>
        <time>2023-08-10T09:00:09Z</time>
      </trkpt>
      <trkpt lat="49.8402" lon="2.3102">
        <ele>68.7</ele>
        <time>2023-08-10T09:00:10Z</time>
      </trkpt>
      <trkpt lat="49.8402" lon="2.31021">
        <ele>68.8</ele>
        <time>2023-08-10T09:00:11Z</time>
      </trkpt>
      <trkpt lat="49.84019" lon="2.31023">
        <ele>68.9</ele>
        <time>2023-08-10T09:00:12Z</time>
      </trkpt>
      <trkpt lat="49.84019" lon="2.31024">
        <ele>69</ele>
        <time>2023-08-10T09:00:14Z</time>
      </trkpt>
      <trkpt lat="49.84018" lon="2.31025">
        <ele>69.1</ele>
        <time>2023-08-10T09:00:15Z</time>
      </trkpt>
      <trkpt lat="49.84018" lon="2.31026">
        <ele>69.2</ele>
        <time>2023-08-10T09:00:16Z</time>
      </trkpt>
      <trkpt lat="49.84017" lon="2.31027">
        <ele>69.3</ele>
        <time>2023-08-10T09:00:17Z</time>
      </trkpt>
      <trkpt lat="49.84017" lon="2.31028">
        <ele>69.4</ele>
        <time>2023-08-10T09:00:18Z</time>
      </trkpt>
      <trkpt lat="49.84016" lon="2.31028">
        <ele>69.5</ele>
        <time>2023-08-10T09:00:19Z</time>
      </trkpt>
      <trkpt lat="49.84015" lon="2.31029">
        <ele>69.6</ele>
        <time>2023-08-10T09:00:21Z</time>
      </trkpt>
      <trkpt lat="49.84015" lon="2.3103">
        <ele>69.7</ele>
        <time>2023-08-10T09:00:22Z</time>
      </trkpt>
      <trkpt lat="49.84014" lon="2.31031">
        <ele>69.7</ele>
        <time>2023-08-10T09:00:23Z</time>
      </trkpt>
      <trkpt lat="49.84013" lon="2.31032">
        <ele>69.8</ele>
        <time>2023-08-10T09:00:24Z</time>
      </trkpt>
      <trkpt lat="49.84013" lon="2.31032">
        <ele>69.9</ele>
        <time>2023-08-10T09:00:25Z</time>
      </trkpt>
      <trkpt lat="49.84012" lon="2.31033">
        <ele>70</ele>
        <time>2023-08-10T09:00:26Z</time>
      </trkpt>
      <trkpt lat="49.84011" lon="2.31035">
        <ele>70.2</ele>
        <time>2023-08-10T09:00:28Z</time>
      </trkpt>
      <trkpt lat="49.84011" lon="2.31036">
        <ele>70.3</ele>
        <time>2023-08-10T09:00:29Z</time>
      </trkpt>
      <trkpt lat="49.8401" lon="2.31037">
        <ele>70.3</ele>
        <time>2023-08-10T09:00:30Z</time>
      </trkpt>
      <trkpt lat="49.84009" lon="2.31038">
        <ele>70.5</ele>
        <time>2023-08-10T09:00:31Z</time>
      </trkpt>
      <trkpt lat="49.84008" lon="2.31039">
        <ele>70.6</ele>
        <time>2023-08-10T09:00:32Z</time>
      </trkpt>
      <trkpt lat="49.84008" lon="2.3104">
        <ele>70.7</ele>
        <time>2023-08-10T09:00:33Z</time>
      </trkpt>
      <trkpt lat="49.84007" lon="2.31041">
        <ele>70.8</ele>
        <time>2023-08-10T09:00:34Z</time>
      </trkpt>
      <trkpt lat="49.84006" lon="2.31042">
        <ele>70.9</ele>
        <time>2023-08-10T09:00:36Z</time>
      </trkpt>
      <trkpt lat="49.84005" lon="2.31043">
        <ele>71</ele>
        <time>2023-08-10T09:00:37Z</time>
      </trkpt>
      <trkpt lat="49.84005" lon="2.31044">
        <ele>71.1</ele>
        <time>2023-08-10T09:00:38Z</time>
      </trkpt>
      <trkpt lat="49.84004" lon="2.31045">
        <ele>71.1</ele>
        <time>2023-08-10T09:00:39Z</time>
      </trkpt>
      <trkpt lat="49.84003" lon="2.31046">
        <ele>71.2</ele>
        <time>2023-08-10T09:00:41Z</time>
      </trkpt>
      <trkpt lat="49.84003" lon="2.31047">
        <ele>71.3</ele>
        <time>2023-08-10T09:00:42Z</time>
      </trkpt>
      <trkpt lat="49.84002" lon="2.31048">
        <ele>71.4</ele>
        <time>2023-08-10T09:00:43Z</time>
      </trkpt>
      <trkpt lat="49.84001" lon="2.31049">
        <ele>71.4</ele>
        <time>2023-08-10T09:00:44Z</time>
      </trkpt>
      <trkpt lat="49.84001" lon="2.31049">
        <ele>71.5</ele>
        <time>2023-08-10T09:00:45Z</time>
      </trkpt>
      <trkpt lat="49.84" lon="2.31049">
        <ele>71.6</ele>
        <time>2023-08-10T09:00:46Z</time>
      </trkpt>
      <trkpt lat="49.83999" lon="2.3105">
        <ele>71.6</ele>
        <time>2023-08-10T09:00:47Z</time>
      </trkpt>
      <trkpt lat="49.83999" lon="2.3105">
        <ele>71.7</ele>
        <time>2023-08-10T09:00:49Z</time>
      </trkpt>
      <trkpt lat="49.83998" lon="2.31049">
        <ele>71.7</ele>
        <time>2023-08-10T09:00:50Z</time>
      </trkpt>
      <trkpt lat="49.83999" lon="2.31049">
        <ele>71.7</ele>
        <time>2023-08-10T09:00:52Z</time>
      </trkpt>
      <trkpt lat="49.83998" lon="2.31049">
        <ele>71.7</ele>
        <time>2023-08-10T09:00:53Z</time>
      </trkpt>
      <trkpt lat="49.83998" lon="2.31049">
        <ele>71.7</ele>
        <time>2023-08-10T09:00:55Z</time>
      </trkpt>
      <trkpt lat="49.83998" lon="2.31049">
        <ele>71.7</ele>
        <time>2023-08-10T09:00:56Z</time>
      </trkpt>
      <trkpt lat="49.83999" lon="2.31049">
        <ele>71.7</ele>
        <time>2023-08-10T09:00:58Z</time>
      </trkpt>
      <trkpt lat="49.83999" lon="2.31049">
        <ele>71.7</ele>
        <time>2023-08-10T09:00:59Z</time>
      </trkpt>
      <trkpt lat="49.83999" lon="2.3105">
        <ele>71.7</ele>
        <time>2023-08-10T09:01:00Z</time>
      </trkpt>
      <trkpt lat="49.83999" lon="2.3105">
        <ele>71.8</ele>
        <time>2023-08-10T09:01:02Z</time>
      </trkpt>
      <trkpt lat="49.83999" lon="2.3105">
        <ele>71.8</ele>
        <time>2023-08-10T09:01:03Z</time>
      </trkpt>
      <trkpt lat="49.83999" lon="2.3105">
        <ele>71.8</ele>
        <time>2023-08-10T09:01:04Z</time>
      </trkpt>
      <trkpt lat="49.83999" lon="2.31049">
        <ele>71.8</ele>
        <time>2023-08-10T09:01:05Z</time>
      </trkpt>
      <trkpt lat="49.83999" lon="2.31049">
        <ele>71.8</ele>
        <time>2023-08-10T09:01:06Z</time>
      </trkpt>
      <trkpt lat="49.83999" lon="2.31049">
        <ele>71.8</ele>
        <time>2023-08-10T09:01:07Z</time>
      </trkpt>
      <trkpt lat="49.83999" lon="2.31049">
        <ele>71.8</ele>
        <time>2023-08-10T09:01:08Z</time>
      </trkpt>
      <trkpt lat="49.83999" lon="2.31049">
        <ele>71.8</ele>
        <time>2023-08-10T09:01:09Z</time>
      </trkpt>
      <trkpt lat="49.83999" lon="2.31049">
        <ele>71.8</ele>
        <time>2023-08-10T09:01:10Z</time>
      </trkpt>
      <trkpt lat="49.83999" lon="2.31049">
        <ele>71.8</ele>
        <time>2023-08-10T09:01:11Z</time>
      </trkpt>
      <trkpt lat="49.83999" lon="2.31049">
        <ele>71.8</ele>
        <time>2023-08-10T09:01:12Z</time>
      </trkpt>
      <trkpt lat="49.83999" lon="2.31049">
        <ele>71.8</ele>
        <time>2023-08-10T09:01:13Z</time>
      </trkpt>
      <trkpt lat="49.83999" lon="2.31049">
        <ele>71.8</ele>
        <time>2023-08-10T09:01:14Z</time>
      </trkpt>
      <trkpt lat="49.83999" lon="2.31049">
        <ele>71.8</ele>
        <time>2023-08-10T09:01:15Z</time>
      </trkpt>
      <trkpt lat="49.83999" lon="2.31049">
        <ele>71.8</ele>
        <time>2023-08-10T09:01:16Z</time>
      </trkpt>
      <trkpt lat="49.83999" lon="2.31049">
        <ele>71.8</ele>
        <time>2023-08-10T09:01:17Z</time>
      </trkpt>
      <trkpt lat="49.83999" lon="2.31049">
        <ele>71.8</ele>
        <time>2023-08-10T09:01:18Z</time>
      </trkpt>
      <trkpt lat="49.83999" lon="2.31049">
        <ele>71.8</ele>
        <time>2023-08-10T09:01:19Z</time>
      </trkpt>
      <trkpt lat="49.83999" lon="2.31049">
        <ele>71.8</ele>
        <time>2023-08-10T09:01:20Z</time>
      </trkpt>
      <trkpt lat="49.83999" lon="2.31049">
        <ele>71.8</ele>
        <time>2023-08-10T09:01:21Z</time>
      </trkpt>
      <trkpt lat="49.83999" lon="2.31049">
        <ele>71.8</ele>
        <time>2023-08-10T09:01:22Z</time>
      </trkpt>
      <trkpt lat="49.83999" lon="2.31049">
        <ele>71.8</ele>
        <time>2023-08-10T09:01:23Z</time>
      </trkpt>
      <trkpt lat="49.83999" lon="2.31049">
        <ele>71.8</ele>
        <time>2023-08-10T09:01:24Z</time>
      </trkpt>
      <trkpt lat="49.83999" lon="2.31049">
        <ele>71.8</ele>
        <time>2023-08-10T09:01:25Z</time>
      </trkpt>
      <trkpt lat="49.83999" lon="2.31049">
        <ele>71.8</ele>
        <time>2023-08-10T09:01:26Z</time>
      </trkpt>
      <trkpt lat="49.83999" lon="2.31049">
        <ele>71.8</ele>
        <time>2023-08-10T09:01:27Z</time>
      </trkpt>
      <trkpt lat="49.83999" lon="2.31049">
        <ele>71.8</ele>
        <time>2023-08-10T09:01:28Z</time>
      </trkpt>
      <trkpt lat="49.83999" lon="2.31049">
        <ele>71.8</ele>
        <time>2023-08-10T09:01:29Z</time>
      </trkpt>
      <trkpt lat="49.83999" lon="2.31049">
        <ele>71.8</ele>
        <time>2023-08-10T09:01:30Z</time>
      </trkpt>
      <trkpt lat="49.83999" lon="2.31049">
        <ele>71.8</ele>
        <time>2023-08-10T09:01:31Z</time>
      </trkpt>
      <trkpt lat="49.83999" lon="2.31049">
        <ele>71.8</ele>
        <time>2023-08-10T09:01:32Z</time>
      </trkpt>
      <trkpt lat="49.83999" lon="2.31049">
        <ele>71.8</ele>
        <time>2023-08-10T09:01:33Z</time>
      </trkpt>
      <trkpt lat="49.83999" lon="2.31049">
        <ele>71.8</ele>
        <time>2023-08-10T09:01:34Z</time>
      </trkpt>
      <trkpt lat="49.83999" lon="2.31049">
        <ele>71.8</ele>
        <time>2023-08-10T09:01:35Z</time>
      </trkpt>
      <trkpt lat="49.83999" lon="2.31049">
        <ele>71.8</ele>
        <time>2023-08-10T09:01:36Z</time>
      </trkpt>
      <trkpt lat="49.83999" lon="2.31049">
        <ele>71.8</ele>
        <time>2023-08-10T09:01:37Z</time>
      </trkpt>
      <trkpt lat="49.83999" lon="2.31049">
        <ele>71.8</ele>
        <time>2023-08-10T09:01:38Z</time>
      </trkpt>
      <trkpt lat="49.83999" lon="2.31049">
        <ele>71.8</ele>
        <time>2023-08-10T09:01:39Z</time>
      </trkpt>
      <trkpt lat="49.83999" lon="2.31049">
        <ele>71.8</ele>
        <time>2023-08-10T09:01:40Z</time>
      </trkpt>
      <trkpt lat="49.83999" lon="2.31049">
        <ele>71.8</ele>
        <time>2023-08-10T09:01:41Z</time>
      </trkpt>
      <trkpt lat="49.83999" lon="2.31049">
        <ele>71.8</ele>
        <time>2023-08-10T09:01:42Z</time>
      </trkpt>
      <trkpt lat="49.83999" lon="2.31049">
        <ele>71.8</ele>
        <time>2023-08-10T09:01:43Z</time>
      </trkpt>
      <trkpt lat="49.83999" lon="2.31049">
        <ele>71.8</ele>
        <time>2023-08-10T09:01:44Z</time>
      </trkpt>
      <trkpt lat="49.83999" lon="2.31049">
        <ele>71.8</ele>
        <time>2023-08-10T09:01:45Z</time>
      </trkpt>
      <trkpt lat="49.84001" lon="2.31051">
        <ele>72</ele>
        <time>2023-08-10T09:01:46Z</time>
      </trkpt>
      <trkpt lat="49.84" lon="2.3105">
        <ele>72</ele>
        <time>2023-08-10T09:01:47Z</time>
      </trkpt>
      <trkpt lat="49.84" lon="2.3105">
        <ele>72.1</ele>
        <time>2023-08-10T09:01:48Z</time>
      </trkpt>
      <trkpt lat="49.84" lon="2.31051">
        <ele>72.1</ele>
        <time>2023-08-10T09:01:49Z</time>
      </trkpt>
      <trkpt lat="49.83999" lon="2.31051">
        <ele>72.1</ele>
        <time>2023-08-10T09:01:50Z</time>
      </trkpt>
      <trkpt lat="49.83999" lon="2.31051">
        <ele>72.1</ele>
        <time>2023-08-10T09:01:52Z</time>
      </trkpt>
      <trkpt lat="49.83998" lon="2.31052">
        <ele>72.2</ele>
        <time>2023-08-10T09:01:53Z</time>
      </trkpt>
      <trkpt lat="49.83998" lon="2.31052">
        <ele>72.3</ele>
        <time>2023-08-10T09:01:54Z</time>
      </trkpt>
      <trkpt lat="49.83997" lon="2.31052">
        <ele>72.3</ele>
        <time>2023-08-10T09:01:55Z</time>
      </trkpt>
      <trkpt lat="49.83996" lon="2.31053">
        <ele>72.4</ele>
        <time>2023-08-10T09:01:56Z</time>
      </trkpt>
      <trkpt lat="49.83995" lon="2.31053">
        <ele>72.6</ele>
        <time>2023-08-10T09:01:58Z</time>
      </trkpt>
      <trkpt lat="49.83993" lon="2.31053">
        <ele>72.6</ele>
        <time>2023-08-10T09:01:59Z</time>
      </trkpt>
      <trkpt lat="49.83992" lon="2.31053">
        <ele>72.6</ele>
        <time>2023-08-10T09:02:00Z</time>
      </trkpt>
      <trkpt lat="49.83991" lon="2.31052">
        <ele>72.6</ele>
        <time>2023-08-10T09:02:01Z</time>
      </trkpt>
      <trkpt lat="49.83991" lon="2.31052">
        <ele>72.6</ele>
        <time>2023-08-10T09:02:02Z</time>
      </trkpt>
      <trkpt lat="49.8399" lon="2.31051">
        <ele>72.6</ele>
        <time>2023-08-10T09:02:04Z</time>
      </trkpt>
      <trkpt lat="49.8399" lon="2.31051">
        <ele>72.7</ele>
        <time>2023-08-10T09:02:05Z</time>
      </trkpt>
      <trkpt lat="49.8399" lon="2.31051">
        <ele>72.7</ele>
        <time>2023-08-10T09:02:07Z</time>
      </trkpt>
      <trkpt lat="49.8399" lon="2.31051">
        <ele>72.7</ele>
        <time>2023-08-10T09:02:08Z</time>
      </trkpt>
      <trkpt lat="49.83989" lon="2.31051">
        <ele>72.7</ele>
        <time>2023-08-10T09:02:09Z</time>
      </trkpt>
      <trkpt lat="49.83989" lon="2.3105">
        <ele>72.7</ele>
        <time>2023-08-10T09:02:10Z</time>
      </trkpt>
      <trkpt lat="49.83989" lon="2.3105">
        <ele>72.7</ele>
        <time>2023-08-10T09:02:12Z</time>
      </trkpt>
      <trkpt lat="49.83989" lon="2.31051">
        <ele>72.7</ele>
        <time>2023-08-10T09:02:13Z</time>
      </trkpt>
      <trkpt lat="49.83989" lon="2.31051">
        <ele>72.7</ele>
        <time>2023-08-10T09:02:14Z</time>
      </trkpt>
      <trkpt lat="49.83988" lon="2.31051">
        <ele>72.7</ele>
        <time>2023-08-10T09:02:15Z</time>
      </trkpt>
      <trkpt lat="49.83988" lon="2.31051">
        <ele>72.7</ele>
        <time>2023-08-10T09:02:16Z</time>
      </trkpt>
      <trkpt lat="49.83987" lon="2.31051">
        <ele>72.7</ele>
        <time>2023-08-10T09:02:17Z</time>
      </trkpt>
      <trkpt lat="49.83987" lon="2.31051">
        <ele>72.7</ele>
        <time>2023-08-10T09:02:18Z</time>
      </trkpt>
      <trkpt lat="49.83985" lon="2.31051">
        <ele>72.7</ele>
        <time>2023-08-10T09:02:20Z</time>
      </trkpt>
      <trkpt lat="49.83984" lon="2.3105">
        <ele>72.7</ele>
        <time>2023-08-10T09:02:21Z</time>
      </trkpt>
      <trkpt lat="49.83983" lon="2.3105">
        <ele>72.8</ele>
        <time>2023-08-10T09:02:22Z</time>
      </trkpt>
      <trkpt lat="49.83981" lon="2.3105">
        <ele>72.8</ele>
        <time>2023-08-10T09:02:24Z</time>
      </trkpt>
      <trkpt lat="49.8398" lon="2.3105">
        <ele>72.9</ele>
        <time>2023-08-10T09:02:25Z</time>
      </trkpt>
      <trkpt lat="49.83978" lon="2.3105">
        <ele>73</ele>
        <time>2023-08-10T09:02:26Z</time>
      </trkpt>
      <trkpt lat="49.83977" lon="2.3105">
        <ele>73.1</ele>
        <time>2023-08-10T09:02:27Z</time>
      </trkpt>
      <trkpt lat="49.83975" lon="2.3105">
        <ele>73.2</ele>
        <time>2023-08-10T09:02:28Z</time>
      </trkpt>
      <trkpt lat="49.83974" lon="2.31051">
        <ele>73.3</ele>
        <time>2023-08-10T09:02:29Z</time>
      </trkpt>
      <trkpt lat="49.83972" lon="2.31051">
        <ele>73.4</ele>
        <time>2023-08-10T09:02:31Z</time>
      </trkpt>
      <trkpt lat="49.83971" lon="2.31051">
        <ele>73.5</ele>
        <time>2023-08-10T09:02:32Z</time>
      </trkpt>
      <trkpt lat="49.83969" lon="2.31051">
        <ele>73.6</ele>
        <time>2023-08-10T09:02:33Z</time>
      </trkpt>
      <trkpt lat="49.83967" lon="2.31052">
        <ele>73.7</ele>
        <time>2023-08-10T09:02:34Z</time>
      </trkpt>
      <trkpt lat="49.83966" lon="2.31052">
        <ele>73.8</ele>
        <time>2023-08-10T09:02:35Z</time>
      </trkpt>
      <trkpt lat="49.83965" lon="2.31052">
        <ele>73.9</ele>
        <time>2023-08-10T09:02:36Z</time>
      </trkpt>
      <trkpt lat="49.83964" lon="2.31051">
        <ele>74</ele>
        <time>2023-08-10T09:02:37Z</time>
      </trkpt>
      <trkpt lat="49.83963" lon="2.31051">
        <ele>74.1</ele>
        <time>2023-08-10T09:02:39Z</time>
      </trkpt>
      <trkpt lat="49.83961" lon="2.31051">
        <ele>74.1</ele>
        <time>2023-08-10T09:02:40Z</time>
      </trkpt>
      <trkpt lat="49.83961" lon="2.31051">
        <ele>74.2</ele>
        <time>2023-08-10T09:02:41Z</time>
      </trkpt>
      <trkpt lat="49.8396" lon="2.31051">
        <ele>74.2</ele>
        <time>2023-08-10T09:02:42Z</time>
      </trkpt>
      <trkpt lat="49.83959" lon="2.31051">
        <ele>74.3</ele>
        <time>2023-08-10T09:02:43Z</time>
      </trkpt>
      <trkpt lat="49.83958" lon="2.31051">
        <ele>74.4</ele>
        <time>2023-08-10T09:02:45Z</time>
      </trkpt>
      <trkpt lat="49.83957" lon="2.31051">
        <ele>74.5</ele>
        <time>2023-08-10T09:02:46Z</time>
      </trkpt>
      <trkpt lat="49.83956" lon="2.3105">
        <ele>74.5</ele>
        <time>2023-08-10T09:02:47Z</time>
      </trkpt>
      <trkpt lat="49.83955" lon="2.3105">
        <ele>74.6</ele>
        <time>2023-08-10T09:02:48Z</time>
      </trkpt>
      <trkpt lat="49.83954" lon="2.3105">
        <ele>74.7</ele>
        <time>2023-08-10T09:02:49Z</time>
      </trkpt>
      <trkpt lat="49.83953" lon="2.3105">
        <ele>74.7</ele>
        <time>2023-08-10T09:02:50Z</time>
      </trkpt>
      <trkpt lat="49.83952" lon="2.31049">
        <ele>74.8</ele>
        <time>2023-08-10T09:02:51Z</time>
      </trkpt>
      <trkpt lat="49.83951" lon="2.31049">
        <ele>74.8</ele>
        <time>2023-08-10T09:02:53Z</time>
      </trkpt>
      <trkpt lat="49.8395" lon="2.31048">
        <ele>74.9</ele>
        <time>2023-08-10T09:02:54Z</time>
      </trkpt>
      <trkpt lat="49.83949" lon="2.31048">
        <ele>75</ele>
        <time>2023-08-10T09:02:55Z</time>
      </trkpt>
      <trkpt lat="49.83948" lon="2.31047">
        <ele>75</ele>
        <time>2023-08-10T09:02:56Z</time>
      </trkpt>
      <trkpt lat="49.83947" lon="2.31047">
        <ele>75.1</ele>
        <time>2023-08-10T09:02:57Z</time>
      </trkpt>
      <trkpt lat="49.83946" lon="2.31046">
        <ele>75.2</ele>
        <time>2023-08-10T09:02:59Z</time>
      </trkpt>
      <trkpt lat="49.83945" lon="2.31045">
        <ele>75.2</ele>
        <time>2023-08-10T09:03:00Z</time>
      </trkpt>
      <trkpt lat="49.83944" lon="2.31044">
        <ele>75.3</ele>
        <time>2023-08-10T09:03:01Z</time>
      </trkpt>
      <trkpt lat="49.83943" lon="2.31043">
        <ele>75.4</ele>
        <time>2023-08-10T09:03:02Z</time>
      </trkpt>
      <trkpt lat="49.83942" lon="2.31042">
        <ele>75.4</ele>
        <time>2023-08-10T09:03:03Z</time>
      </trkpt>
      <trkpt lat="49.83941" lon="2.31041">
        <ele>75.5</ele>
        <time>2023-08-10T09:03:04Z</time>
      </trkpt>
      <trkpt lat="49.8394" lon="2.3104">
        <ele>75.6</ele>
        <time>2023-08-10T09:03:05Z</time>
      </trkpt>
      <trkpt lat="49.83939" lon="2.31038">
        <ele>75.7</ele>
        <time>2023-08-10T09:03:06Z</time>
      </trkpt>
      <trkpt lat="49.83938" lon="2.31037">
        <ele>75.8</ele>
        <time>2023-08-10T09:03:08Z</time>
      </trkpt>
      <trkpt lat="49.83937" lon="2.31036">
        <ele>75.9</ele>
        <time>2023-08-10T09:03:09Z</time>
      </trkpt>
      <trkpt lat="49.83936" lon="2.31035">
        <ele>76</ele>
        <time>2023-08-10T09:03:10Z</time>
      </trkpt>
      <trkpt lat="49.83934" lon="2.31034">
        <ele>76.1</ele>
        <time>2023-08-10T09:03:11Z</time>
      </trkpt>
      <trkpt lat="49.83933" lon="2.31033">
        <ele>76.1</ele>
        <time>2023-08-10T09:03:12Z</time>
      </trkpt>
      <trkpt lat="49.83932" lon="2.31032">
        <ele>76.2</ele>
        <time>2023-08-10T09:03:13Z</time>
      </trkpt>
      <trkpt lat="49.8393" lon="2.31031">
        <ele>76.4</ele>
        <time>2023-08-10T09:03:14Z</time>
      </trkpt>
      <trkpt lat="49.83929" lon="2.3103">
        <ele>76.5</ele>
        <time>2023-08-10T09:03:16Z</time>
      </trkpt>
      <trkpt lat="49.83928" lon="2.31029">
        <ele>76.5</ele>
        <time>2023-08-10T09:03:17Z</time>
      </trkpt>
      <trkpt lat="49.83927" lon="2.31029">
        <ele>76.6</ele>
        <time>2023-08-10T09:03:18Z</time>
      </trkpt>
      <trkpt lat="49.83926" lon="2.31028">
        <ele>76.7</ele>
        <time>2023-08-10T09:03:19Z</time>
      </trkpt>
      <trkpt lat="49.83925" lon="2.31027">
        <ele>76.8</ele>
        <time>2023-08-10T09:03:20Z</time>
      </trkpt>
      <trkpt lat="49.83924" lon="2.31027">
        <ele>76.8</ele>
        <time>2023-08-10T09:03:21Z</time>
      </trkpt>
      <trkpt lat="49.83922" lon="2.31026">
        <ele>76.9</ele>
        <time>2023-08-10T09:03:23Z</time>
      </trkpt>
      <trkpt lat="49.83921" lon="2.31025">
        <ele>77.1</ele>
        <time>2023-08-10T09:03:24Z</time>
      </trkpt>
      <trkpt lat="49.8392" lon="2.31025">
        <ele>77.1</ele>
        <time>2023-08-10T09:03:25Z</time>
      </trkpt>
      <trkpt lat="49.83918" lon="2.31024">
        <ele>77.3</ele>
        <time>2023-08-10T09:03:26Z</time>
      </trkpt>
      <trkpt lat="49.83917" lon="2.31023">
        <ele>77.3</ele>
        <time>2023-08-10T09:03:27Z</time>
      </trkpt>
      <trkpt lat="49.83916" lon="2.31023">
        <ele>77.4</ele>
        <time>2023-08-10T09:03:28Z</time>
      </trkpt>
      <trkpt lat="49.83915" lon="2.31022">
        <ele>77.5</ele>
        <time>2023-08-10T09:03:30Z</time>
      </trkpt>
      <trkpt lat="49.83914" lon="2.31021">
        <ele>77.6</ele>
        <time>2023-08-10T09:03:31Z</time>
      </trkpt>
      <trkpt lat="49.83912" lon="2.31021">
        <ele>77.7</ele>
        <time>2023-08-10T09:03:32Z</time>
      </trkpt>
      <trkpt lat="49.83911" lon="2.3102">
        <ele>77.8</ele>
        <time>2023-08-10T09:03:33Z</time>
      </trkpt>
      <trkpt lat="49.8391" lon="2.31019">
        <ele>77.8</ele>
        <time>2023-08-10T09:03:34Z</time>
      </trkpt>
      <trkpt lat="49.83908" lon="2.31018">
        <ele>78</ele>
        <time>2023-08-10T09:03:35Z</time>
      </trkpt>
      <trkpt lat="49.83908" lon="2.31018">
        <ele>78</ele>
        <time>2023-08-10T09:03:37Z</time>
      </trkpt>
      <trkpt lat="49.83907" lon="2.31018">
        <ele>78.1</ele>
        <time>2023-08-10T09:03:38Z</time>
      </trkpt>
      <trkpt lat="49.83906" lon="2.31017">
        <ele>78.2</ele>
        <time>2023-08-10T09:03:39Z</time>
      </trkpt>
      <trkpt lat="49.83905" lon="2.31017">
        <ele>78.3</ele>
        <time>2023-08-10T09:03:40Z</time>
      </trkpt>
      <trkpt lat="49.83903" lon="2.31017">
        <ele>78.4</ele>
        <time>2023-08-10T09:03:41Z</time>
      </trkpt>
      <trkpt lat="49.83902" lon="2.31017">
        <ele>78.4</ele>
        <time>2023-08-10T09:03:42Z</time>
      </trkpt>
      <trkpt lat="49.83901" lon="2.31017">
        <ele>78.5</ele>
        <time>2023-08-10T09:03:43Z</time>
      </trkpt>
      <trkpt lat="49.839" lon="2.31017">
        <ele>78.6</ele>
        <time>2023-08-10T09:03:45Z</time>
      </trkpt>
      <trkpt lat="49.83899" lon="2.31017">
        <ele>78.7</ele>
        <time>2023-08-10T09:03:46Z</time>
      </trkpt>
      <trkpt lat="49.83898" lon="2.31016">
        <ele>78.8</ele>
        <time>2023-08-10T09:03:47Z</time>
      </trkpt>
      <trkpt lat="49.83897" lon="2.31016">
        <ele>78.9</ele>
        <time>2023-08-10T09:03:48Z</time>
      </trkpt>
      <trkpt lat="49.83896" lon="2.31016">
        <ele>78.9</ele>
        <time>2023-08-10T09:03:49Z</time>
      </trkpt>
      <trkpt lat="49.83895" lon="2.31017">
        <ele>79</ele>
        <time>2023-08-10T09:03:50Z</time>
      </trkpt>
      <trkpt lat="49.83894" lon="2.31017">
        <ele>79.1</ele>
        <time>2023-08-10T09:03:51Z</time>
      </trkpt>
      <trkpt lat="49.83893" lon="2.31017">
        <ele>79.2</ele>
        <time>2023-08-10T09:03:53Z</time>
      </trkpt>
      <trkpt lat="49.83891" lon="2.31017">
        <ele>79.3</ele>
        <time>2023-08-10T09:03:54Z</time>
      </trkpt>
      <trkpt lat="49.8389" lon="2.31017">
        <ele>79.4</ele>
        <time>2023-08-10T09:03:55Z</time>
      </trkpt>
      <trkpt lat="49.83889" lon="2.31018">
        <ele>79.5</ele>
        <time>2023-08-10T09:03:56Z</time>
      </trkpt>
      <trkpt lat="49.83888" lon="2.31018">
        <ele>79.5</ele>
        <time>2023-08-10T09:03:57Z</time>
      </trkpt>
      <trkpt lat="49.83887" lon="2.31018">
        <ele>79.6</ele>
        <time>2023-08-10T09:03:58Z</time>
      </trkpt>
      <trkpt lat="49.83886" lon="2.31018">
        <ele>79.7</ele>
        <time>2023-08-10T09:04:00Z</time>
      </trkpt>
      <trkpt lat="49.83885" lon="2.31018">
        <ele>79.8</ele>
        <time>2023-08-10T09:04:01Z</time>
      </trkpt>
      <trkpt lat="49.83884" lon="2.31018">
        <ele>79.9</ele>
        <time>2023-08-10T09:04:03Z</time>
      </trkpt>
      <trkpt lat="49.83883" lon="2.31018">
        <ele>79.9</ele>
        <time>2023-08-10T09:04:04Z</time>
      </trkpt>
      <trkpt lat="49.83882" lon="2.31017">
        <ele>80</ele>
        <time>2023-08-10T09:04:05Z</time>
      </trkpt>
      <trkpt lat="49.83881" lon="2.31017">
        <ele>80.1</ele>
        <time>2023-08-10T09:04:06Z</time>
      </trkpt>
      <trkpt lat="49.8388" lon="2.31016">
        <ele>80.2</ele>
        <time>2023-08-10T09:04:07Z</time>
      </trkpt>
      <trkpt lat="49.83879" lon="2.31015">
        <ele>80.3</ele>
        <time>2023-08-10T09:04:08Z</time>
      </trkpt>
      <trkpt lat="49.83878" lon="2.31015">
        <ele>80.4</ele>
        <time>2023-08-10T09:04:10Z</time>
      </trkpt>
      <trkpt lat="49.83877" lon="2.31014">
        <ele>80.4</ele>
        <time>2023-08-10T09:04:11Z</time>
      </trkpt>
      <trkpt lat="49.83877" lon="2.31013">
        <ele>80.5</ele>
        <time>2023-08-10T09:04:12Z</time>
      </trkpt>
      <trkpt lat="49.83876" lon="2.31012">
        <ele>80.6</ele>
        <time>2023-08-10T09:04:13Z</time>
      </trkpt>
      <trkpt lat="49.83875" lon="2.31011">
        <ele>80.7</ele>
        <time>2023-08-10T09:04:14Z</time>
      </trkpt>
      <trkpt lat="49.83873" lon="2.3101">
        <ele>80.8</ele>
        <time>2023-08-10T09:04:16Z</time>
      </trkpt>
      <trkpt lat="49.83872" lon="2.3101">
        <ele>80.9</ele>
        <time>2023-08-10T09:04:17Z</time>
      </trkpt>
      <trkpt lat="49.83871" lon="2.31009">
        <ele>81</ele>
        <time>2023-08-10T09:04:18Z</time>
      </trkpt>
      <trkpt lat="49.8387" lon="2.31009">
        <ele>81.1</ele>
        <time>2023-08-10T09:04:19Z</time>
      </trkpt>
      <trkpt lat="49.8387" lon="2.31008">
        <ele>81.1</ele>
        <time>2023-08-10T09:04:20Z</time>
      </trkpt>
      <trkpt lat="49.83869" lon="2.31007">
        <ele>81.2</ele>
        <time>2023-08-10T09:04:21Z</time>
      </trkpt>
      <trkpt lat="49.83868" lon="2.31007">
        <ele>81.3</ele>
        <time>2023-08-10T09:04:23Z</time>
      </trkpt>
      <trkpt lat="49.83867" lon="2.31006">
        <ele>81.4</ele>
        <time>2023-08-10T09:04:24Z</time>
      </trkpt>
      <trkpt lat="49.83866" lon="2.31005">
        <ele>81.5</ele>
        <time>2023-08-10T09:04:25Z</time>
      </trkpt>
      <trkpt lat="49.83865" lon="2.31005">
        <ele>81.5</ele>
        <time>2023-08-10T09:04:26Z</time>
      </trkpt>
      <trkpt lat="49.83864" lon="2.31004">
        <ele>81.6</ele>
        <time>2023-08-10T09:04:27Z</time>
      </trkpt>
      <trkpt lat="49.83863" lon="2.31004">
        <ele>81.7</ele>
        <time>2023-08-10T09:04:28Z</time>
      </trkpt>
      <trkpt lat="49.83862" lon="2.31003">
        <ele>81.8</ele>
        <time>2023-08-10T09:04:29Z</time>
      </trkpt>
      <trkpt lat="49.83861" lon="2.31003">
        <ele>81.8</ele>
        <time>2023-08-10T09:04:31Z</time>
      </trkpt>
      <trkpt lat="49.8386" lon="2.31002">
        <ele>81.9</ele>
        <time>2023-08-10T09:04:32Z</time>
      </trkpt>
      <trkpt lat="49.83859" lon="2.31001">
        <ele>82</ele>
        <time>2023-08-10T09:04:33Z</time>
      </trkpt>
      <trkpt lat="49.83858" lon="2.31001">
        <ele>82.1</ele>
        <time>2023-08-10T09:04:34Z</time>
      </trkpt>
      <trkpt lat="49.83857" lon="2.31001">
        <ele>82.2</ele>
        <time>2023-08-10T09:04:35Z</time>
      </trkpt>
      <trkpt lat="49.83856" lon="2.31001">
        <ele>82.2</ele>
        <time>2023-08-10T09:04:36Z</time>
      </trkpt>
      <trkpt lat="49.83855" lon="2.31001">
        <ele>82.3</ele>
        <time>2023-08-10T09:04:38Z</time>
      </trkpt>
      <trkpt lat="49.83854" lon="2.31001">
        <ele>82.4</ele>
        <time>2023-08-10T09:04:39Z</time>
      </trkpt>
      <trkpt lat="49.83853" lon="2.31001">
        <ele>82.5</ele>
        <time>2023-08-10T09:04:40Z</time>
      </trkpt>
      <trkpt lat="49.83852" lon="2.31001">
        <ele>82.6</ele>
        <time>2023-08-10T09:04:41Z</time>
      </trkpt>
      <trkpt lat="49.83851" lon="2.31">
        <ele>82.7</ele>
        <time>2023-08-10T09:04:43Z</time>
      </trkpt>
      <trkpt lat="49.8385" lon="2.31">
        <ele>82.8</ele>
        <time>2023-08-10T09:04:44Z</time>
      </trkpt>
      <trkpt lat="49.83849" lon="2.31">
        <ele>82.9</ele>
        <time>2023-08-10T09:04:45Z</time>
      </trkpt>
      <trkpt lat="49.83848" lon="2.31">
        <ele>82.9</ele>
        <time>2023-08-10T09:04:46Z</time>
      </trkpt>
      <trkpt lat="49.83847" lon="2.30999">
        <ele>83</ele>
        <time>2023-08-10T09:04:47Z</time>
      </trkpt>
      <trkpt lat="49.83846" lon="2.30999">
        <ele>83.1</ele>
        <time>2023-08-10T09:04:49Z</time>
      </trkpt>
      <trkpt lat="49.83845" lon="2.30999">
        <ele>83.2</ele>
        <time>2023-08-10T09:04:50Z</time>
      </trkpt>
      <trkpt lat="49.83844" lon="2.30998">
        <ele>83.3</ele>
        <time>2023-08-10T09:04:51Z</time>
      </trkpt>
      <trkpt lat="49.83843" lon="2.30998">
        <ele>83.4</ele>
        <time>2023-08-10T09:04:52Z</time>
      </trkpt>
      <trkpt lat="49.83842" lon="2.30998">
        <ele>83.4</ele>
        <time>2023-08-10T09:04:53Z</time>
      </trkpt>
      <trkpt lat="49.83841" lon="2.30998">
        <ele>83.5</ele>
        <time>2023-08-10T09:04:54Z</time>
      </trkpt>
      <trkpt lat="49.8384" lon="2.30997">
        <ele>83.6</ele>
        <time>2023-08-10T09:04:55Z</time>
      </trkpt>
      <trkpt lat="49.83839" lon="2.30997">
        <ele>83.7</ele>
        <time>2023-08-10T09:04:57Z</time>
      </trkpt>
      <trkpt lat="49.83837" lon="2.30997">
        <ele>83.8</ele>
        <time>2023-08-10T09:04:58Z</time>
      </trkpt>
      <trkpt lat="49.83836" lon="2.30997">
        <ele>83.9</ele>
        <time>2023-08-10T09:04:59Z</time>
      </trkpt>
      <trkpt lat="49.83835" lon="2.30997">
        <ele>84</ele>
        <time>2023-08-10T09:05:00Z</time>
      </trkpt>
      <trkpt lat="49.83834" lon="2.30996">
        <ele>84.1</ele>
        <time>2023-08-10T09:05:01Z</time>
      </trkpt>
      <trkpt lat="49.83833" lon="2.30996">
        <ele>84.1</ele>
        <time>2023-08-10T09:05:03Z</time>
      </trkpt>
      <trkpt lat="49.83832" lon="2.30996">
        <ele>84.2</ele>
        <time>2023-08-10T09:05:04Z</time>
      </trkpt>
      <trkpt lat="49.83831" lon="2.30996">
        <ele>84.3</ele>
        <time>2023-08-10T09:05:05Z</time>
      </trkpt>
      <trkpt lat="49.8383" lon="2.30996">
        <ele>84.4</ele>
        <time>2023-08-10T09:05:06Z</time>
      </trkpt>
      <trkpt lat="49.83829" lon="2.30996">
        <ele>84.5</ele>
        <time>2023-08-10T09:05:07Z</time>
      </trkpt>
      <trkpt lat="49.83828" lon="2.30996">
        <ele>84.6</ele>
        <time>2023-08-10T09:05:09Z</time>
      </trkpt>
      <trkpt lat="49.83827" lon="2.30996">
        <ele>84.6</ele>
        <time>2023-08-10T09:05:10Z</time>
      </trkpt>
      <trkpt lat="49.83826" lon="2.30996">
        <ele>84.7</ele>
        <time>2023-08-10T09:05:11Z</time>
      </trkpt>
      <trkpt lat="49.83825" lon="2.30996">
        <ele>84.8</ele>
        <time>2023-08-10T09:05:12Z</time>
      </trkpt>
      <trkpt lat="49.83824" lon="2.30996">
        <ele>84.9</ele>
        <time>2023-08-10T09:05:13Z</time>
      </trkpt>
      <trkpt lat="49.83824" lon="2.30996">
        <ele>84.9</ele>
        <time>2023-08-10T09:05:14Z</time>
      </trkpt>
      <trkpt lat="49.83822" lon="2.30996">
        <ele>85</ele>
        <time>2023-08-10T09:05:15Z</time>
      </trkpt>
      <trkpt lat="49.83821" lon="2.30996">
        <ele>85.1</ele>
        <time>2023-08-10T09:05:17Z</time>
      </trkpt>
      <trkpt lat="49.8382" lon="2.30996">
        <ele>85.2</ele>
        <time>2023-08-10T09:05:18Z</time>
      </trkpt>
      <trkpt lat="49.83819" lon="2.30996">
        <ele>85.3</ele>
        <time>2023-08-10T09:05:19Z</time>
      </trkpt>
      <trkpt lat="49.83818" lon="2.30996">
        <ele>85.4</ele>
        <time>2023-08-10T09:05:20Z</time>
      </trkpt>
      <trkpt lat="49.83817" lon="2.30997">
        <ele>85.5</ele>
        <time>2023-08-10T09:05:22Z</time>
      </trkpt>
      <trkpt lat="49.83816" lon="2.30997">
        <ele>85.6</ele>
        <time>2023-08-10T09:05:23Z</time>
      </trkpt>
      <trkpt lat="49.83815" lon="2.30997">
        <ele>85.7</ele>
        <time>2023-08-10T09:05:24Z</time>
      </trkpt>
      <trkpt lat="49.83814" lon="2.30997">
        <ele>85.7</ele>
        <time>2023-08-10T09:05:25Z</time>
      </trkpt>
      <trkpt lat="49.83813" lon="2.30997">
        <ele>85.8</ele>
        <time>2023-08-10T09:05:26Z</time>
      </trkpt>
      <trkpt lat="49.83812" lon="2.30997">
        <ele>85.9</ele>
        <time>2023-08-10T09:05:27Z</time>
      </trkpt>
      <trkpt lat="49.8381" lon="2.30997">
        <ele>86</ele>
        <time>2023-08-10T09:05:28Z</time>
      </trkpt>
      <trkpt lat="49.83809" lon="2.30997">
        <ele>86.1</ele>
        <time>2023-08-10T09:05:30Z</time>
      </trkpt>
      <trkpt lat="49.83808" lon="2.30998">
        <ele>86.2</ele>
        <time>2023-08-10T09:05:31Z</time>
      </trkpt>
      <trkpt lat="49.83807" lon="2.30998">
        <ele>86.3</ele>
        <time>2023-08-10T09:05:32Z</time>
      </trkpt>
      <trkpt lat="49.83806" lon="2.30998">
        <ele>86.4</ele>
        <time>2023-08-10T09:05:33Z</time>
      </trkpt>
      <trkpt lat="49.83805" lon="2.30998">
        <ele>86.5</ele>
        <time>2023-08-10T09:05:34Z</time>
      </trkpt>
      <trkpt lat="49.83804" lon="2.30998">
        <ele>86.6</ele>
        <time>2023-08-10T09:05:35Z</time>
      </trkpt>
      <trkpt lat="49.83802" lon="2.30997">
        <ele>86.7</ele>
        <time>2023-08-10T09:05:37Z</time>
      </trkpt>
      <trkpt lat="49.83801" lon="2.30997">
        <ele>86.8</ele>
        <time>2023-08-10T09:05:38Z</time>
      </trkpt>
      <trkpt lat="49.838" lon="2.30997">
        <ele>86.9</ele>
        <time>2023-08-10T09:05:39Z</time>
      </trkpt>
      <trkpt lat="49.83799" lon="2.30997">
        <ele>87</ele>
        <time>2023-08-10T09:05:40Z</time>
      </trkpt>
      <trkpt lat="49.83798" lon="2.30997">
        <ele>87.1</ele>
        <time>2023-08-10T09:05:42Z</time>
      </trkpt>
      <trkpt lat="49.83797" lon="2.30997">
        <ele>87.2</ele>
        <time>2023-08-10T09:05:43Z</time>
      </trkpt>
      <trkpt lat="49.83796" lon="2.30997">
        <ele>87.3</ele>
        <time>2023-08-10T09:05:44Z</time>
      </trkpt>
      <trkpt lat="49.83796" lon="2.30997">
        <ele>87.4</ele>
        <time>2023-08-10T09:05:45Z</time>
      </trkpt>
      <trkpt lat="49.83795" lon="2.30996">
        <ele>87.4</ele>
        <time>2023-08-10T09:05:46Z</time>
      </trkpt>
      <trkpt lat="49.83794" lon="2.30996">
        <ele>87.5</ele>
        <time>2023-08-10T09:05:48Z</time>
      </trkpt>
      <trkpt lat="49.83793" lon="2.30996">
        <ele>87.6</ele>
        <time>2023-08-10T09:05:49Z</time>
      </trkpt>
      <trkpt lat="49.83792" lon="2.30995">
        <ele>87.7</ele>
        <time>2023-08-10T09:05:50Z</time>
      </trkpt>
      <trkpt lat="49.83791" lon="2.30995">
        <ele>87.8</ele>
        <time>2023-08-10T09:05:51Z</time>
      </trkpt>
      <trkpt lat="49.8379" lon="2.30995">
        <ele>87.8</ele>
        <time>2023-08-10T09:05:53Z</time>
      </trkpt>
      <trkpt lat="49.8379" lon="2.30995">
        <ele>87.9</ele>
        <time>2023-08-10T09:05:54Z</time>
      </trkpt>
      <trkpt lat="49.83789" lon="2.30995">
        <ele>88</ele>
        <time>2023-08-10T09:05:55Z</time>
      </trkpt>
      <trkpt lat="49.83788" lon="2.30995">
        <ele>88</ele>
        <time>2023-08-10T09:05:56Z</time>
      </trkpt>
      <trkpt lat="49.83788" lon="2.30996">
        <ele>88.1</ele>
        <time>2023-08-10T09:05:57Z</time>
      </trkpt>
      <trkpt lat="49.83787" lon="2.30996">
        <ele>88.2</ele>
        <time>2023-08-10T09:05:59Z</time>
      </trkpt>
      <trkpt lat="49.83786" lon="2.30996">
        <ele>88.2</ele>
        <time>2023-08-10T09:06:00Z</time>
      </trkpt>
      <trkpt lat="49.83786" lon="2.30997">
        <ele>88.2</ele>
        <time>2023-08-10T09:06:02Z</time>
      </trkpt>
      <trkpt lat="49.83786" lon="2.30997">
        <ele>88.2</ele>
        <time>2023-08-10T09:06:03Z</time>
      </trkpt>
      <trkpt lat="49.83785" lon="2.30997">
        <ele>88.2</ele>
        <time>2023-08-10T09:06:04Z</time>
      </trkpt>
      <trkpt lat="49.83785" lon="2.30997">
        <ele>88.2</ele>
        <time>2023-08-10T09:06:06Z</time>
      </trkpt>
      <trkpt lat="49.83785" lon="2.30997">
        <ele>88.2</ele>
        <time>2023-08-10T09:06:07Z</time>
      </trkpt>
      <trkpt lat="49.83785" lon="2.30997">
        <ele>88.2</ele>
        <time>2023-08-10T09:06:09Z</time>
      </trkpt>
      <trkpt lat="49.83785" lon="2.30997">
        <ele>88.2</ele>
        <time>2023-08-10T09:06:10Z</time>
      </trkpt>
      <trkpt lat="49.83785" lon="2.30997">
        <ele>88.2</ele>
        <time>2023-08-10T09:06:12Z</time>
      </trkpt>
      <trkpt lat="49.83785" lon="2.30997">
        <ele>88.2</ele>
        <time>2023-08-10T09:06:13Z</time>
      </trkpt>
      <trkpt lat="49.83785" lon="2.30997">
        <ele>88.2</ele>
        <time>2023-08-10T09:06:15Z</time>
      </trkpt>
      <trkpt lat="49.83785" lon="2.30997">
        <ele>88.2</ele>
        <time>2023-08-10T09:06:16Z</time>
      </trkpt>
      <trkpt lat="49.83785" lon="2.30997">
        <ele>88.2</ele>
        <time>2023-08-10T09:06:17Z</time>
      </trkpt>
      <trkpt lat="49.83785" lon="2.30998">
        <ele>88.2</ele>
        <time>2023-08-10T09:06:18Z</time>
      </trkpt>
      <trkpt lat="49.83786" lon="2.30998">
        <ele>88.2</ele>
        <time>2023-08-10T09:06:19Z</time>
      </trkpt>
      <trkpt lat="49.83786" lon="2.30998">
        <ele>88.2</ele>
        <time>2023-08-10T09:06:20Z</time>
      </trkpt>
      <trkpt lat="49.83785" lon="2.30998">
        <ele>88.2</ele>
        <time>2023-08-10T09:06:21Z</time>
      </trkpt>
      <trkpt lat="49.83785" lon="2.30998">
        <ele>88.2</ele>
        <time>2023-08-10T09:06:22Z</time>
      </trkpt>
      <trkpt lat="49.83786" lon="2.30998">
        <ele>88.2</ele>
        <time>2023-08-10T09:06:23Z</time>
      </trkpt>
      <trkpt lat="49.83786" lon="2.30998">
        <ele>88.2</ele>
        <time>2023-08-10T09:06:24Z</time>
      </trkpt>
      <trkpt lat="49.83786" lon="2.30998">
        <ele>88.2</ele>
        <time>2023-08-10T09:06:25Z</time>
      </trkpt>
      <trkpt lat="49.83786" lon="2.30998">
        <ele>88.2</ele>
        <time>2023-08-10T09:06:26Z</time>
      </trkpt>
      <trkpt lat="49.83786" lon="2.30998">
        <ele>88.2</ele>
        <time>2023-08-10T09:06:27Z</time>
      </trkpt>
      <trkpt lat="49.83786" lon="2.30998">
        <ele>88.2</ele>
        <time>2023-08-10T09:06:28Z</time>
      </trkpt>
      <trkpt lat="49.83786" lon="2.30998">
        <ele>88.2</ele>
        <time>2023-08-10T09:06:29Z</time>
      </trkpt>
      <trkpt lat="49.83786" lon="2.30998">
        <ele>88.2</ele>
        <time>2023-08-10T09:06:30Z</time>
      </trkpt>
      <trkpt lat="49.83786" lon="2.30998">
        <ele>88.2</ele>
        <time>2023-08-10T09:06:31Z</time>
      </trkpt>
      <trkpt lat="49.83786" lon="2.30998">
        <ele>88.2</ele>
        <time>2023-08-10T09:06:32Z</time>
      </trkpt>
      <trkpt lat="49.83786" lon="2.30998">
        <ele>88.2</ele>
        <time>2023-08-10T09:06:33Z</time>
      </trkpt>
      <trkpt lat="49.83786" lon="2.30998">
        <ele>88.2</ele>
        <time>2023-08-10T09:06:34Z</time>
      </trkpt>
      <trkpt lat="49.83786" lon="2.30998">
        <ele>88.2</ele>
        <time>2023-08-10T09:06:35Z</time>
      </trkpt>
      <trkpt lat="49.83786" lon="2.30998">
        <ele>88.2</ele>
        <time>2023-08-10T09:06:36Z</time>
      </trkpt>
      <trkpt lat="49.83786" lon="2.30998">
        <ele>88.2</ele>
        <time>2023-08-10T09:06:37Z</time>
      </trkpt>
      <trkpt lat="49.83786" lon="2.30998">
        <ele>88.2</ele>
        <time>2023-08-10T09:06:38Z</time>
      </trkpt>
      <trkpt lat="49.83786" lon="2.30998">
        <ele>88.2</ele>
        <time>2023-08-10T09:06:39Z</time>
      </trkpt>
      <trkpt lat="49.83786" lon="2.30998">
        <ele>88.2</ele>
        <time>2023-08-10T09:06:40Z</time>
      </trkpt>
      <trkpt lat="49.83786" lon="2.30998">
        <ele>88.2</ele>
        <time>2023-08-10T09:06:41Z</time>
      </trkpt>
      <trkpt lat="49.83786" lon="2.30998">
        <ele>88.2</ele>
        <time>2023-08-10T09:06:42Z</time>
      </trkpt>
      <trkpt lat="49.83786" lon="2.30998">
        <ele>88.2</ele>
        <time>2023-08-10T09:06:43Z</time>
      </trkpt>
      <trkpt lat="49.83786" lon="2.30998">
        <ele>88.2</ele>
        <time>2023-08-10T09:06:44Z</time>
      </trkpt>
      <trkpt lat="49.83786" lon="2.30998">
        <ele>88.2</ele>
        <time>2023-08-10T09:06:45Z</time>
      </trkpt>
      <trkpt lat="49.83786" lon="2.30998">
        <ele>88.2</ele>
        <time>2023-08-10T09:06:46Z</time>
      </trkpt>
      <trkpt lat="49.83786" lon="2.30998">
        <ele>88.2</ele>
        <time>2023-08-10T09:06:47Z</time>
      </trkpt>
      <trkpt lat="49.83786" lon="2.30998">
        <ele>88.2</ele>
        <time>2023-08-10T09:06:48Z</time>
      </trkpt>
      <trkpt lat="49.83788" lon="2.30999">
        <ele>88.2</ele>
        <time>2023-08-10T09:06:49Z</time>
      </trkpt>
      <trkpt lat="49.83789" lon="2.31">
        <ele>88.2</ele>
        <time>2023-08-10T09:06:50Z</time>
      </trkpt>
      <trkpt lat="49.83789" lon="2.31001">
        <ele>88.2</ele>
        <time>2023-08-10T09:06:51Z</time>
      </trkpt>
      <trkpt lat="49.83789" lon="2.31002">
        <ele>88.2</ele>
        <time>2023-08-10T09:06:52Z</time>
      </trkpt>
      <trkpt lat="49.83789" lon="2.31003">
        <ele>88.2</ele>
        <time>2023-08-10T09:06:53Z</time>
      </trkpt>
      <trkpt lat="49.83789" lon="2.31004">
        <ele>88.2</ele>
        <time>2023-08-10T09:06:54Z</time>
      </trkpt>
      <trkpt lat="49.83788" lon="2.31005">
        <ele>88.2</ele>
        <time>2023-08-10T09:06:55Z</time>
      </trkpt>
      <trkpt lat="49.83788" lon="2.31006">
        <ele>88.2</ele>
        <time>2023-08-10T09:06:57Z</time>
      </trkpt>
      <trkpt lat="49.83788" lon="2.31007">
        <ele>88.2</ele>
        <time>2023-08-10T09:06:58Z</time>
      </trkpt>
      <trkpt lat="49.83787" lon="2.31008">
        <ele>88.2</ele>
        <time>2023-08-10T09:06:59Z</time>
      </trkpt>
      <trkpt lat="49.83787" lon="2.31011">
        <ele>88.2</ele>
        <time>2023-08-10T09:07:00Z</time>
      </trkpt>
      <trkpt lat="49.83786" lon="2.31013">
        <ele>87.9</ele>
        <time>2023-08-10T09:07:01Z</time>
      </trkpt>
      <trkpt lat="49.83786" lon="2.31014">
        <ele>88</ele>
        <time>2023-08-10T09:07:02Z</time>
      </trkpt>
      <trkpt lat="49.83786" lon="2.31017">
        <ele>88</ele>
        <time>2023-08-10T09:07:04Z</time>
      </trkpt>
      <trkpt lat="49.83785" lon="2.31019">
        <ele>88</ele>
        <time>2023-08-10T09:07:05Z</time>
      </trkpt>
      <trkpt lat="49.83785" lon="2.3102">
        <ele>88</ele>
        <time>2023-08-10T09:07:07Z</time>
      </trkpt>
      <trkpt lat="49.83785" lon="2.31022">
        <ele>88</ele>
        <time>2023-08-10T09:07:08Z</time>
      </trkpt>
      <trkpt lat="49.83784" lon="2.31023">
        <ele>88</ele>
        <time>2023-08-10T09:07:09Z</time>
      </trkpt>
      <trkpt lat="49.83784" lon="2.31024">
        <ele>88</ele>
        <time>2023-08-10T09:07:10Z</time>
      </trkpt>
      <trkpt lat="49.83784" lon="2.31026">
        <ele>88.1</ele>
        <time>2023-08-10T09:07:11Z</time>
      </trkpt>
      <trkpt lat="49.83784" lon="2.31027">
        <ele>88.1</ele>
        <time>2023-08-10T09:07:12Z</time>
      </trkpt>
      <trkpt lat="49.83784" lon="2.31028">
        <ele>88.1</ele>
        <time>2023-08-10T09:07:13Z</time>
      </trkpt>
      <trkpt lat="49.83785" lon="2.31029">
        <ele>88.1</ele>
        <time>2023-08-10T09:07:15Z</time>
      </trkpt>
      <trkpt lat="49.83785" lon="2.3103">
        <ele>88.1</ele>
        <time>2023-08-10T09:07:16Z</time>
      </trkpt>
      <trkpt lat="49.83785" lon="2.3103">
        <ele>88.1</ele>
        <time>2023-08-10T09:07:17Z</time>
      </trkpt>
      <trkpt lat="49.83785" lon="2.31032">
        <ele>88.1</ele>
        <time>2023-08-10T09:07:19Z</time>
      </trkpt>
      <trkpt lat="49.83785" lon="2.31033">
        <ele>88.1</ele>
        <time>2023-08-10T09:07:20Z</time>
      </trkpt>
      <trkpt lat="49.83786" lon="2.31034">
        <ele>88.1</ele>
        <time>2023-08-10T09:07:21Z</time>
      </trkpt>
      <trkpt lat="49.83786" lon="2.31035">
        <ele>88.2</ele>
        <time>2023-08-10T09:07:22Z</time>
      </trkpt>
      <trkpt lat="49.83787" lon="2.31036">
        <ele>88.2</ele>
        <time>2023-08-10T09:07:23Z</time>
      </trkpt>
      <trkpt lat="49.83788" lon="2.31037">
        <ele>88.2</ele>
        <time>2023-08-10T09:07:25Z</time>
      </trkpt>
      <trkpt lat="49.83788" lon="2.31038">
        <ele>88.2</ele>
        <time>2023-08-10T09:07:26Z</time>
      </trkpt>
      <trkpt lat="49.83789" lon="2.31039">
        <ele>88.2</ele>
        <time>2023-08-10T09:07:27Z</time>
      </trkpt>
      <trkpt lat="49.83789" lon="2.31039">
        <ele>88.2</ele>
        <time>2023-08-10T09:07:28Z</time>
      </trkpt>
      <trkpt lat="49.8379" lon="2.3104">
        <ele>88.2</ele>
        <time>2023-08-10T09:07:29Z</time>
      </trkpt>
      <trkpt lat="49.83791" lon="2.31042">
        <ele>88.3</ele>
        <time>2023-08-10T09:07:30Z</time>
      </trkpt>
      <trkpt lat="49.83792" lon="2.31043">
        <ele>88.3</ele>
        <time>2023-08-10T09:07:32Z</time>
      </trkpt>
      <trkpt lat="49.83792" lon="2.31044">
        <ele>88.3</ele>
        <time>2023-08-10T09:07:33Z</time>
      </trkpt>
      <trkpt lat="49.83793" lon="2.31045">
        <ele>88.3</ele>
        <time>2023-08-10T09:07:34Z</time>
      </trkpt>
      <trkpt lat="49.83794" lon="2.31046">
        <ele>88.3</ele>
        <time>2023-08-10T09:07:35Z</time>
      </trkpt>
      <trkpt lat="49.83794" lon="2.31048">
        <ele>88.3</ele>
        <time>2023-08-10T09:07:36Z</time>
      </trkpt>
      <trkpt lat="49.83795" lon="2.31049">
        <ele>88.4</ele>
        <time>2023-08-10T09:07:38Z</time>
      </trkpt>
      <trkpt lat="49.83795" lon="2.3105">
        <ele>88.4</ele>
        <time>2023-08-10T09:07:39Z</time>
      </trkpt>
      <trkpt lat="49.83796" lon="2.31051">
        <ele>88.4</ele>
        <time>2023-08-10T09:07:40Z</time>
      </trkpt>
      <trkpt lat="49.83796" lon="2.31052">
        <ele>88.4</ele>
        <time>2023-08-10T09:07:41Z</time>
      </trkpt>
      <trkpt lat="49.83797" lon="2.31053">
        <ele>88.4</ele>
        <time>2023-08-10T09:07:42Z</time>
      </trkpt>
      <trkpt lat="49.83797" lon="2.31054">
        <ele>88.4</ele>
        <time>2023-08-10T09:07:43Z</time>
      </trkpt>
      <trkpt lat="49.83797" lon="2.31054">
        <ele>88.4</ele>
        <time>2023-08-10T09:07:45Z</time>
      </trkpt>
      <trkpt lat="49.83797" lon="2.31055">
        <ele>88.4</ele>
        <time>2023-08-10T09:07:46Z</time>
      </trkpt>
      <trkpt lat="49.83798" lon="2.31056">
        <ele>88.4</ele>
        <time>2023-08-10T09:07:47Z</time>
      </trkpt>
      <trkpt lat="49.83798" lon="2.31057">
        <ele>88.5</ele>
        <time>2023-08-10T09:07:48Z</time>
      </trkpt>
      <trkpt lat="49.83798" lon="2.31058">
        <ele>88.5</ele>
        <time>2023-08-10T09:07:49Z</time>
      </trkpt>
      <trkpt lat="49.83798" lon="2.31059">
        <ele>88.5</ele>
        <time>2023-08-10T09:07:51Z</time>
      </trkpt>
      <trkpt lat="49.83798" lon="2.3106">
        <ele>88.5</ele>
        <time>2023-08-10T09:07:52Z</time>
      </trkpt>
      <trkpt lat="49.83799" lon="2.31061">
        <ele>88.5</ele>
        <time>2023-08-10T09:07:53Z</time>
      </trkpt>
      <trkpt lat="49.83799" lon="2.31062">
        <ele>88.5</ele>
        <time>2023-08-10T09:07:54Z</time>
      </trkpt>
      <trkpt lat="49.83799" lon="2.31064">
        <ele>88.6</ele>
        <time>2023-08-10T09:07:55Z</time>
      </trkpt>
      <trkpt lat="49.838" lon="2.31065">
        <ele>88.6</ele>
        <time>2023-08-10T09:07:56Z</time>
      </trkpt>
      <trkpt lat="49.838" lon="2.31066">
        <ele>88.6</ele>
        <time>2023-08-10T09:07:57Z</time>
      </trkpt>
      <trkpt lat="49.838" lon="2.31068">
        <ele>88.7</ele>
        <time>2023-08-10T09:07:58Z</time>
      </trkpt>
      <trkpt lat="49.838" lon="2.3107">
        <ele>88.7</ele>
        <time>2023-08-10T09:08:00Z</time>
      </trkpt>
      <trkpt lat="49.83801" lon="2.31072">
        <ele>88.8</ele>
        <time>2023-08-10T09:08:01Z</time>
      </trkpt>
      <trkpt lat="49.83801" lon="2.31073">
        <ele>88.8</ele>
        <time>2023-08-10T09:08:02Z</time>
      </trkpt>
      <trkpt lat="49.83801" lon="2.31075">
        <ele>88.9</ele>
        <time>2023-08-10T09:08:03Z</time>
      </trkpt>
      <trkpt lat="49.83801" lon="2.31076">
        <ele>88.9</ele>
        <time>2023-08-10T09:08:04Z</time>
      </trkpt>
      <trkpt lat="49.83802" lon="2.31077">
        <ele>88.9</ele>
        <time>2023-08-10T09:08:05Z</time>
      </trkpt>
      <trkpt lat="49.83802" lon="2.31079">
        <ele>89</ele>
        <time>2023-08-10T09:08:06Z</time>
      </trkpt>
      <trkpt lat="49.83802" lon="2.31081">
        <ele>89</ele>
        <time>2023-08-10T09:08:08Z</time>
      </trkpt>
      <trkpt lat="49.83802" lon="2.31082">
        <ele>89.1</ele>
        <time>2023-08-10T09:08:09Z</time>
      </trkpt>
      <trkpt lat="49.83802" lon="2.31084">
        <ele>89.1</ele>
        <time>2023-08-10T09:08:10Z</time>
      </trkpt>
      <trkpt lat="49.83802" lon="2.31085">
        <ele>89.2</ele>
        <time>2023-08-10T09:08:11Z</time>
      </trkpt>
      <trkpt lat="49.83803" lon="2.31087">
        <ele>89.2</ele>
        <time>2023-08-10T09:08:12Z</time>
      </trkpt>
      <trkpt lat="49.83803" lon="2.31088">
        <ele>89.2</ele>
        <time>2023-08-10T09:08:14Z</time>
      </trkpt>
      <trkpt lat="49.83803" lon="2.3109">
        <ele>89.3</ele>
        <time>2023-08-10T09:08:15Z</time>
      </trkpt>
      <trkpt lat="49.83804" lon="2.31091">
        <ele>89.3</ele>
        <time>2023-08-10T09:08:16Z</time>
      </trkpt>
      <trkpt lat="49.83804" lon="2.31092">
        <ele>89.4</ele>
        <time>2023-08-10T09:08:17Z</time>
      </trkpt>
      <trkpt lat="49.83806" lon="2.31095">
        <ele>89.5</ele>
        <time>2023-08-10T09:08:19Z</time>
      </trkpt>
      <trkpt lat="49.83806" lon="2.31096">
        <ele>89.5</ele>
        <time>2023-08-10T09:08:20Z</time>
      </trkpt>
      <trkpt lat="49.83806" lon="2.31097">
        <ele>89.6</ele>
        <time>2023-08-10T09:08:21Z</time>
      </trkpt>
      <trkpt lat="49.83807" lon="2.31099">
        <ele>89.6</ele>
        <time>2023-08-10T09:08:22Z</time>
      </trkpt>
      <trkpt lat="49.83807" lon="2.311">
        <ele>89.7</ele>
        <time>2023-08-10T09:08:23Z</time>
      </trkpt>
      <trkpt lat="49.83808" lon="2.31102">
        <ele>89.7</ele>
        <time>2023-08-10T09:08:24Z</time>
      </trkpt>
      <trkpt lat="49.83808" lon="2.31104">
        <ele>89.8</ele>
        <time>2023-08-10T09:08:26Z</time>
      </trkpt>
      <trkpt lat="49.83809" lon="2.31107">
        <ele>89.9</ele>
        <time>2023-08-10T09:08:27Z</time>
      </trkpt>
      <trkpt lat="49.83809" lon="2.31108">
        <ele>90</ele>
        <time>2023-08-10T09:08:28Z</time>
      </trkpt>
      <trkpt lat="49.8381" lon="2.3111">
        <ele>90</ele>
        <time>2023-08-10T09:08:29Z</time>
      </trkpt>
      <trkpt lat="49.8381" lon="2.31112">
        <ele>90.1</ele>
        <time>2023-08-10T09:08:31Z</time>
      </trkpt>
      <trkpt lat="49.8381" lon="2.31114">
        <ele>90.2</ele>
        <time>2023-08-10T09:08:32Z</time>
      </trkpt>
      <trkpt lat="49.83811" lon="2.31115">
        <ele>90.2</ele>
        <time>2023-08-10T09:08:33Z</time>
      </trkpt>
      <trkpt lat="49.83811" lon="2.31116">
        <ele>90.3</ele>
        <time>2023-08-10T09:08:34Z</time>
      </trkpt>
      <trkpt lat="49.83811" lon="2.31118">
        <ele>90.3</ele>
        <time>2023-08-10T09:08:36Z</time>
      </trkpt>
      <trkpt lat="49.83812" lon="2.3112">
        <ele>90.4</ele>
        <time>2023-08-10T09:08:37Z</time>
      </trkpt>
      <trkpt lat="49.83812" lon="2.31121">
        <ele>90.4</ele>
        <time>2023-08-10T09:08:38Z</time>
      </trkpt>
      <trkpt lat="49.83812" lon="2.31123">
        <ele>90.5</ele>
        <time>2023-08-10T09:08:39Z</time>
      </trkpt>
      <trkpt lat="49.83813" lon="2.31124">
        <ele>90.5</ele>
        <time>2023-08-10T09:08:40Z</time>
      </trkpt>
      <trkpt lat="49.83813" lon="2.31125">
        <ele>90.6</ele>
        <time>2023-08-10T09:08:41Z</time>
      </trkpt>
      <trkpt lat="49.83813" lon="2.31127">
        <ele>90.6</ele>
        <time>2023-08-10T09:08:42Z</time>
      </trkpt>
      <trkpt lat="49.83814" lon="2.31128">
        <ele>90.7</ele>
        <time>2023-08-10T09:08:43Z</time>
      </trkpt>
      <trkpt lat="49.83814" lon="2.3113">
        <ele>90.7</ele>
        <time>2023-08-10T09:08:45Z</time>
      </trkpt>
      <trkpt lat="49.83814" lon="2.31131">
        <ele>90.8</ele>
        <time>2023-08-10T09:08:46Z</time>
      </trkpt>
      <trkpt lat="49.83814" lon="2.31133">
        <ele>90.9</ele>
        <time>2023-08-10T09:08:47Z</time>
      </trkpt>
      <trkpt lat="49.83815" lon="2.31134">
        <ele>90.9</ele>
        <time>2023-08-10T09:08:48Z</time>
      </trkpt>
      <trkpt lat="49.83815" lon="2.31135">
        <ele>91</ele>
        <time>2023-08-10T09:08:49Z</time>
      </trkpt>
      <trkpt lat="49.83816" lon="2.31137">
        <ele>91</ele>
        <time>2023-08-10T09:08:50Z</time>
      </trkpt>
      <trkpt lat="49.83817" lon="2.31138">
        <ele>91.1</ele>
        <time>2023-08-10T09:08:52Z</time>
      </trkpt>
      <trkpt lat="49.83817" lon="2.3114">
        <ele>91.1</ele>
        <time>2023-08-10T09:08:53Z</time>
      </trkpt>
      <trkpt lat="49.83818" lon="2.31141">
        <ele>91.2</ele>
        <time>2023-08-10T09:08:54Z</time>
      </trkpt>
      <trkpt lat="49.83818" lon="2.31142">
        <ele>91.3</ele>
        <time>2023-08-10T09:08:55Z</time>
      </trkpt>
      <trkpt lat="49.83819" lon="2.31144">
        <ele>91.3</ele>
        <time>2023-08-10T09:08:56Z</time>
      </trkpt>
      <trkpt lat="49.83819" lon="2.31145">
        <ele>91.4</ele>
        <time>2023-08-10T09:08:57Z</time>
      </trkpt>
      <trkpt lat="49.8382" lon="2.31147">
        <ele>91.4</ele>
        <time>2023-08-10T09:08:59Z</time>
      </trkpt>
      <trkpt lat="49.8382" lon="2.31149">
        <ele>91.5</ele>
        <time>2023-08-10T09:09:00Z</time>
      </trkpt>
      <trkpt lat="49.8382" lon="2.3115">
        <ele>91.5</ele>
        <time>2023-08-10T09:09:01Z</time>
      </trkpt>
      <trkpt lat="49.83821" lon="2.31151">
        <ele>91.6</ele>
        <time>2023-08-10T09:09:02Z</time>
      </trkpt>
      <trkpt lat="49.83821" lon="2.31153">
        <ele>91.7</ele>
        <time>2023-08-10T09:09:04Z</time>
      </trkpt>
      <trkpt lat="49.83821" lon="2.31155">
        <ele>91.7</ele>
        <time>2023-08-10T09:09:05Z</time>
      </trkpt>
      <trkpt lat="49.83821" lon="2.31156">
        <ele>91.8</ele>
        <time>2023-08-10T09:09:06Z</time>
      </trkpt>
      <trkpt lat="49.83821" lon="2.31157">
        <ele>91.8</ele>
        <time>2023-08-10T09:09:07Z</time>
      </trkpt>
      <trkpt lat="49.83822" lon="2.31159">
        <ele>91.9</ele>
        <time>2023-08-10T09:09:08Z</time>
      </trkpt>
      <trkpt lat="49.83822" lon="2.31161">
        <ele>91.9</ele>
        <time>2023-08-10T09:09:09Z</time>
      </trkpt>
      <trkpt lat="49.83822" lon="2.31162">
        <ele>92</ele>
        <time>2023-08-10T09:09:11Z</time>
      </trkpt>
      <trkpt lat="49.83822" lon="2.31164">
        <ele>92.1</ele>
        <time>2023-08-10T09:09:12Z</time>
      </trkpt>
      <trkpt lat="49.83823" lon="2.31165">
        <ele>92.1</ele>
        <time>2023-08-10T09:09:13Z</time>
      </trkpt>
      <trkpt lat="49.83823" lon="2.31166">
        <ele>92.1</ele>
        <time>2023-08-10T09:09:14Z</time>
      </trkpt>
      <trkpt lat="49.83823" lon="2.31168">
        <ele>92.2</ele>
        <time>2023-08-10T09:09:15Z</time>
      </trkpt>
      <trkpt lat="49.83823" lon="2.3117">
        <ele>92.3</ele>
        <time>2023-08-10T09:09:16Z</time>
      </trkpt>
      <trkpt lat="49.83823" lon="2.31171">
        <ele>92.3</ele>
        <time>2023-08-10T09:09:17Z</time>
      </trkpt>
      <trkpt lat="49.83823" lon="2.31173">
        <ele>92.4</ele>
        <time>2023-08-10T09:09:19Z</time>
      </trkpt>
      <trkpt lat="49.83824" lon="2.31174">
        <ele>92.4</ele>
        <time>2023-08-10T09:09:20Z</time>
      </trkpt>
      <trkpt lat="49.83824" lon="2.31176">
        <ele>92.5</ele>
        <time>2023-08-10T09:09:21Z</time>
      </trkpt>
      <trkpt lat="49.83824" lon="2.31177">
        <ele>92.5</ele>
        <time>2023-08-10T09:09:22Z</time>
      </trkpt>
      <trkpt lat="49.83824" lon="2.31179">
        <ele>92.6</ele>
        <time>2023-08-10T09:09:23Z</time>
      </trkpt>
      <trkpt lat="49.83824" lon="2.3118">
        <ele>92.6</ele>
        <time>2023-08-10T09:09:24Z</time>
      </trkpt>
      <trkpt lat="49.83825" lon="2.31182">
        <ele>92.7</ele>
        <time>2023-08-10T09:09:26Z</time>
      </trkpt>
      <trkpt lat="49.83825" lon="2.31183">
        <ele>92.7</ele>
        <time>2023-08-10T09:09:27Z</time>
      </trkpt>
      <trkpt lat="49.83825" lon="2.31185">
        <ele>92.8</ele>
        <time>2023-08-10T09:09:28Z</time>
      </trkpt>
      <trkpt lat="49.83826" lon="2.31186">
        <ele>92.8</ele>
        <time>2023-08-10T09:09:29Z</time>
      </trkpt>
      <trkpt lat="49.83826" lon="2.31187">
        <ele>92.8</ele>
        <time>2023-08-10T09:09:30Z</time>
      </trkpt>
      <trkpt lat="49.83826" lon="2.31188">
        <ele>92.9</ele>
        <time>2023-08-10T09:09:31Z</time>
      </trkpt>
      <trkpt lat="49.83827" lon="2.3119">
        <ele>92.9</ele>
        <time>2023-08-10T09:09:33Z</time>
      </trkpt>
      <trkpt lat="49.83827" lon="2.31192">
        <ele>93</ele>
        <time>2023-08-10T09:09:34Z</time>
      </trkpt>
      <trkpt lat="49.83828" lon="2.31194">
        <ele>93</ele>
        <time>2023-08-10T09:09:35Z</time>
      </trkpt>
      <trkpt lat="49.83828" lon="2.31195">
        <ele>93.1</ele>
        <time>2023-08-10T09:09:36Z</time>
      </trkpt>
      <trkpt lat="49.83828" lon="2.31197">
        <ele>93.1</ele>
        <time>2023-08-10T09:09:37Z</time>
      </trkpt>
      <trkpt lat="49.83829" lon="2.31198">
        <ele>93.2</ele>
        <time>2023-08-10T09:09:39Z</time>
      </trkpt>
      <trkpt lat="49.83829" lon="2.312">
        <ele>93.2</ele>
        <time>2023-08-10T09:09:40Z</time>
      </trkpt>
      <trkpt lat="49.8383" lon="2.31202">
        <ele>93.3</ele>
        <time>2023-08-10T09:09:41Z</time>
      </trkpt>
      <trkpt lat="49.8383" lon="2.31203">
        <ele>93.3</ele>
        <time>2023-08-10T09:09:42Z</time>
      </trkpt>
      <trkpt lat="49.83831" lon="2.31206">
        <ele>93.4</ele>
        <time>2023-08-10T09:09:43Z</time>
      </trkpt>
      <trkpt lat="49.83832" lon="2.31207">
        <ele>93.5</ele>
        <time>2023-08-10T09:09:44Z</time>
      </trkpt>
      <trkpt lat="49.83832" lon="2.31208">
        <ele>93.5</ele>
        <time>2023-08-10T09:09:45Z</time>
      </trkpt>
      <trkpt lat="49.83833" lon="2.31212">
        <ele>93.6</ele>
        <time>2023-08-10T09:09:46Z</time>
      </trkpt>
      <trkpt lat="49.83834" lon="2.31213">
        <ele>93.6</ele>
        <time>2023-08-10T09:09:48Z</time>
      </trkpt>
      <trkpt lat="49.83834" lon="2.31215">
        <ele>93.7</ele>
        <time>2023-08-10T09:09:49Z</time>
      </trkpt>
      <trkpt lat="49.83835" lon="2.31216">
        <ele>93.7</ele>
        <time>2023-08-10T09:09:50Z</time>
      </trkpt>
      <trkpt lat="49.83835" lon="2.31218">
        <ele>93.8</ele>
        <time>2023-08-10T09:09:51Z</time>
      </trkpt>
      <trkpt lat="49.83836" lon="2.3122">
        <ele>93.8</ele>
        <time>2023-08-10T09:09:52Z</time>
      </trkpt>
      <trkpt lat="49.83836" lon="2.31222">
        <ele>93.9</ele>
        <time>2023-08-10T09:09:54Z</time>
      </trkpt>
      <trkpt lat="49.83837" lon="2.31224">
        <ele>93.9</ele>
        <time>2023-08-10T09:09:55Z</time>
      </trkpt>
      <trkpt lat="49.83837" lon="2.31225">
        <ele>93.9</ele>
        <time>2023-08-10T09:09:56Z</time>
      </trkpt>
      <trkpt lat="49.83837" lon="2.31227">
        <ele>94</ele>
        <time>2023-08-10T09:09:57Z</time>
      </trkpt>
      <trkpt lat="49.83838" lon="2.3123">
        <ele>94</ele>
        <time>2023-08-10T09:09:59Z</time>
      </trkpt>
      <trkpt lat="49.83838" lon="2.31232">
        <ele>94.1</ele>
        <time>2023-08-10T09:10:00Z</time>
      </trkpt>
      <trkpt lat="49.83838" lon="2.31233">
        <ele>94.1</ele>
        <time>2023-08-10T09:10:01Z</time>
      </trkpt>
      <trkpt lat="49.83838" lon="2.31235">
        <ele>94.1</ele>
        <time>2023-08-10T09:10:02Z</time>
      </trkpt>
      <trkpt lat="49.83839" lon="2.31236">
        <ele>94.1</ele>
        <time>2023-08-10T09:10:03Z</time>
      </trkpt>
      <trkpt lat="49.83839" lon="2.31238">
        <ele>94.2</ele>
        <time>2023-08-10T09:10:04Z</time>
      </trkpt>
      <trkpt lat="49.8384" lon="2.31241">
        <ele>94.2</ele>
        <time>2023-08-10T09:10:05Z</time>
      </trkpt>
      <trkpt lat="49.8384" lon="2.31243">
        <ele>94.2</ele>
        <time>2023-08-10T09:10:07Z</time>
      </trkpt>
      <trkpt lat="49.8384" lon="2.31244">
        <ele>94.2</ele>
        <time>2023-08-10T09:10:08Z</time>
      </trkpt>
      <trkpt lat="49.83841" lon="2.31245">
        <ele>94.2</ele>
        <time>2023-08-10T09:10:09Z</time>
      </trkpt>
      <trkpt lat="49.83841" lon="2.31246">
        <ele>94.3</ele>
        <time>2023-08-10T09:10:10Z</time>
      </trkpt>
      <trkpt lat="49.83842" lon="2.31248">
        <ele>94.3</ele>
        <time>2023-08-10T09:10:12Z</time>
      </trkpt>
      <trkpt lat="49.83842" lon="2.31249">
        <ele>94.3</ele>
        <time>2023-08-10T09:10:13Z</time>
      </trkpt>
      <trkpt lat="49.83843" lon="2.31251">
        <ele>94.3</ele>
        <time>2023-08-10T09:10:14Z</time>
      </trkpt>
      <trkpt lat="49.83843" lon="2.31252">
        <ele>94.3</ele>
        <time>2023-08-10T09:10:15Z</time>
      </trkpt>
      <trkpt lat="49.83844" lon="2.31253">
        <ele>94.3</ele>
        <time>2023-08-10T09:10:16Z</time>
      </trkpt>
      <trkpt lat="49.83844" lon="2.31254">
        <ele>94.3</ele>
        <time>2023-08-10T09:10:17Z</time>
      </trkpt>
      <trkpt lat="49.83844" lon="2.31256">
        <ele>94.3</ele>
        <time>2023-08-10T09:10:18Z</time>
      </trkpt>
      <trkpt lat="49.83845" lon="2.31257">
        <ele>94.3</ele>
        <time>2023-08-10T09:10:20Z</time>
      </trkpt>
      <trkpt lat="49.83845" lon="2.31259">
        <ele>94.3</ele>
        <time>2023-08-10T09:10:21Z</time>
      </trkpt>
      <trkpt lat="49.83845" lon="2.3126">
        <ele>94.3</ele>
        <time>2023-08-10T09:10:22Z</time>
      </trkpt>
      <trkpt lat="49.83846" lon="2.31261">
        <ele>94.3</ele>
        <time>2023-08-10T09:10:23Z</time>
      </trkpt>
      <trkpt lat="49.83846" lon="2.31264">
        <ele>94.3</ele>
        <time>2023-08-10T09:10:24Z</time>
      </trkpt>
      <trkpt lat="49.83846" lon="2.31266">
        <ele>94.3</ele>
        <time>2023-08-10T09:10:26Z</time>
      </trkpt>
      <trkpt lat="49.83846" lon="2.31267">
        <ele>94.3</ele>
        <time>2023-08-10T09:10:27Z</time>
      </trkpt>
      <trkpt lat="49.83846" lon="2.31269">
        <ele>94.3</ele>
        <time>2023-08-10T09:10:28Z</time>
      </trkpt>
      <trkpt lat="49.83846" lon="2.31271">
        <ele>94.3</ele>
        <time>2023-08-10T09:10:29Z</time>
      </trkpt>
      <trkpt lat="49.83846" lon="2.31273">
        <ele>94.3</ele>
        <time>2023-08-10T09:10:30Z</time>
      </trkpt>
      <trkpt lat="49.83845" lon="2.31275">
        <ele>94.3</ele>
        <time>2023-08-10T09:10:31Z</time>
      </trkpt>
      <trkpt lat="49.83845" lon="2.31277">
        <ele>94.3</ele>
        <time>2023-08-10T09:10:33Z</time>
      </trkpt>
      <trkpt lat="49.83845" lon="2.3128">
        <ele>94.2</ele>
        <time>2023-08-10T09:10:34Z</time>
      </trkpt>
      <trkpt lat="49.83845" lon="2.31281">
        <ele>94.2</ele>
        <time>2023-08-10T09:10:35Z</time>
      </trkpt>
      <trkpt lat="49.83845" lon="2.31282">
        <ele>94.2</ele>
        <time>2023-08-10T09:10:36Z</time>
      </trkpt>
      <trkpt lat="49.83845" lon="2.31284">
        <ele>94.2</ele>
        <time>2023-08-10T09:10:37Z</time>
      </trkpt>
      <trkpt lat="49.83845" lon="2.31286">
        <ele>94.2</ele>
        <time>2023-08-10T09:10:38Z</time>
      </trkpt>
      <trkpt lat="49.83845" lon="2.31288">
        <ele>94.2</ele>
        <time>2023-08-10T09:10:40Z</time>
      </trkpt>
      <trkpt lat="49.83845" lon="2.31289">
        <ele>94.2</ele>
        <time>2023-08-10T09:10:41Z</time>
      </trkpt>
      <trkpt lat="49.83845" lon="2.31291">
        <ele>94.1</ele>
        <time>2023-08-10T09:10:42Z</time>
      </trkpt>
      <trkpt lat="49.83845" lon="2.31292">
        <ele>94.1</ele>
        <time>2023-08-10T09:10:43Z</time>
      </trkpt>
      <trkpt lat="49.83845" lon="2.31294">
        <ele>94.1</ele>
        <time>2023-08-10T09:10:44Z</time>
      </trkpt>
      <trkpt lat="49.83845" lon="2.31295">
        <ele>94.1</ele>
        <time>2023-08-10T09:10:45Z</time>
      </trkpt>
      <trkpt lat="49.83845" lon="2.31297">
        <ele>94.1</ele>
        <time>2023-08-10T09:10:47Z</time>
      </trkpt>
      <trkpt lat="49.83845" lon="2.31299">
        <ele>94.1</ele>
        <time>2023-08-10T09:10:48Z</time>
      </trkpt>
      <trkpt lat="49.83845" lon="2.31301">
        <ele>94</ele>
        <time>2023-08-10T09:10:49Z</time>
      </trkpt>
      <trkpt lat="49.83845" lon="2.31302">
        <ele>94</ele>
        <time>2023-08-10T09:10:50Z</time>
      </trkpt>
      <trkpt lat="49.83845" lon="2.31304">
        <ele>94</ele>
        <time>2023-08-10T09:10:51Z</time>
      </trkpt>
      <trkpt lat="49.83845" lon="2.31306">
        <ele>94</ele>
        <time>2023-08-10T09:10:52Z</time>
      </trkpt>
      <trkpt lat="49.83845" lon="2.31308">
        <ele>94</ele>
        <time>2023-08-10T09:10:54Z</time>
      </trkpt>
      <trkpt lat="49.83845" lon="2.31309">
        <ele>94</ele>
        <time>2023-08-10T09:10:55Z</time>
      </trkpt>
      <trkpt lat="49.83844" lon="2.31311">
        <ele>94</ele>
        <time>2023-08-10T09:10:56Z</time>
      </trkpt>
      <trkpt lat="49.83844" lon="2.31313">
        <ele>94</ele>
        <time>2023-08-10T09:10:57Z</time>
      </trkpt>
      <trkpt lat="49.83844" lon="2.31317">
        <ele>94</ele>
        <time>2023-08-10T09:10:58Z</time>
      </trkpt>
      <trkpt lat="49.83844" lon="2.31319">
        <ele>94.1</ele>
        <time>2023-08-10T09:11:00Z</time>
      </trkpt>
      <trkpt lat="49.83845" lon="2.31321">
        <ele>94.2</ele>
        <time>2023-08-10T09:11:01Z</time>
      </trkpt>
      <trkpt lat="49.83845" lon="2.31323">
        <ele>94.2</ele>
        <time>2023-08-10T09:11:02Z</time>
      </trkpt>
      <trkpt lat="49.83845" lon="2.31326">
        <ele>94.3</ele>
        <time>2023-08-10T09:11:03Z</time>
      </trkpt>
      <trkpt lat="49.83845" lon="2.31328">
        <ele>94.3</ele>
        <time>2023-08-10T09:11:04Z</time>
      </trkpt>
      <trkpt lat="49.83845" lon="2.31331">
        <ele>94.4</ele>
        <time>2023-08-10T09:11:05Z</time>
      </trkpt>
      <trkpt lat="49.83844" lon="2.31333">
        <ele>94.4</ele>
        <time>2023-08-10T09:11:07Z</time>
      </trkpt>
      <trkpt lat="49.83843" lon="2.31334">
        <ele>94.5</ele>
        <time>2023-08-10T09:11:08Z</time>
      </trkpt>
      <trkpt lat="49.83842" lon="2.31336">
        <ele>94.6</ele>
        <time>2023-08-10T09:11:09Z</time>
      </trkpt>
      <trkpt lat="49.83842" lon="2.31338">
        <ele>94.6</ele>
        <time>2023-08-10T09:11:10Z</time>
      </trkpt>
      <trkpt lat="49.83841" lon="2.31339">
        <ele>94.7</ele>
        <time>2023-08-10T09:11:11Z</time>
      </trkpt>
      <trkpt lat="49.8384" lon="2.3134">
        <ele>94.8</ele>
        <time>2023-08-10T09:11:12Z</time>
      </trkpt>
      <trkpt lat="49.83839" lon="2.31341">
        <ele>94.8</ele>
        <time>2023-08-10T09:11:14Z</time>
      </trkpt>
      <trkpt lat="49.83838" lon="2.31342">
        <ele>94.9</ele>
        <time>2023-08-10T09:11:15Z</time>
      </trkpt>
      <trkpt lat="49.83837" lon="2.31343">
        <ele>94.9</ele>
        <time>2023-08-10T09:11:16Z</time>
      </trkpt>
      <trkpt lat="49.83837" lon="2.31344">
        <ele>95</ele>
        <time>2023-08-10T09:11:17Z</time>
      </trkpt>
      <trkpt lat="49.83836" lon="2.31344">
        <ele>95</ele>
        <time>2023-08-10T09:11:18Z</time>
      </trkpt>
      <trkpt lat="49.83836" lon="2.31345">
        <ele>95</ele>
        <time>2023-08-10T09:11:19Z</time>
      </trkpt>
      <trkpt lat="49.83835" lon="2.31345">
        <ele>95.1</ele>
        <time>2023-08-10T09:11:20Z</time>
      </trkpt>
      <trkpt lat="49.83834" lon="2.31346">
        <ele>95.1</ele>
        <time>2023-08-10T09:11:22Z</time>
      </trkpt>
      <trkpt lat="49.83834" lon="2.31346">
        <ele>95.1</ele>
        <time>2023-08-10T09:11:23Z</time>
      </trkpt>
      <trkpt lat="49.83834" lon="2.31346">
        <ele>95.1</ele>
        <time>2023-08-10T09:11:24Z</time>
      </trkpt>
      <trkpt lat="49.83833" lon="2.31346">
        <ele>95.2</ele>
        <time>2023-08-10T09:11:25Z</time>
      </trkpt>
      <trkpt lat="49.83833" lon="2.31347">
        <ele>95.2</ele>
        <time>2023-08-10T09:11:26Z</time>
      </trkpt>
      <trkpt lat="49.83832" lon="2.31348">
        <ele>95.2</ele>
        <time>2023-08-10T09:11:27Z</time>
      </trkpt>
      <trkpt lat="49.83831" lon="2.31349">
        <ele>95.3</ele>
        <time>2023-08-10T09:11:28Z</time>
      </trkpt>
      <trkpt lat="49.83831" lon="2.3135">
        <ele>95.3</ele>
        <time>2023-08-10T09:11:30Z</time>
      </trkpt>
      <trkpt lat="49.8383" lon="2.3135">
        <ele>95.4</ele>
        <time>2023-08-10T09:11:31Z</time>
      </trkpt>
      <trkpt lat="49.83829" lon="2.31351">
        <ele>95.4</ele>
        <time>2023-08-10T09:11:32Z</time>
      </trkpt>
      <trkpt lat="49.83829" lon="2.31352">
        <ele>95.5</ele>
        <time>2023-08-10T09:11:33Z</time>
      </trkpt>
      <trkpt lat="49.83828" lon="2.31353">
        <ele>95.5</ele>
        <time>2023-08-10T09:11:34Z</time>
      </trkpt>
      <trkpt lat="49.83827" lon="2.31354">
        <ele>95.6</ele>
        <time>2023-08-10T09:11:36Z</time>
      </trkpt>
      <trkpt lat="49.83827" lon="2.31355">
        <ele>95.6</ele>
        <time>2023-08-10T09:11:37Z</time>
      </trkpt>
      <trkpt lat="49.83826" lon="2.31355">
        <ele>95.7</ele>
        <time>2023-08-10T09:11:38Z</time>
      </trkpt>
      <trkpt lat="49.83826" lon="2.31356">
        <ele>95.7</ele>
        <time>2023-08-10T09:11:39Z</time>
      </trkpt>
      <trkpt lat="49.83826" lon="2.31356">
        <ele>95.7</ele>
        <time>2023-08-10T09:11:40Z</time>
      </trkpt>
      <trkpt lat="49.83825" lon="2.31357">
        <ele>95.8</ele>
        <time>2023-08-10T09:11:41Z</time>
      </trkpt>
      <trkpt lat="49.83824" lon="2.31358">
        <ele>95.8</ele>
        <time>2023-08-10T09:11:42Z</time>
      </trkpt>
      <trkpt lat="49.83824" lon="2.31359">
        <ele>95.9</ele>
        <time>2023-08-10T09:11:44Z</time>
      </trkpt>
      <trkpt lat="49.83823" lon="2.3136">
        <ele>95.9</ele>
        <time>2023-08-10T09:11:45Z</time>
      </trkpt>
      <trkpt lat="49.83823" lon="2.31361">
        <ele>96</ele>
        <time>2023-08-10T09:11:46Z</time>
      </trkpt>
      <trkpt lat="49.83822" lon="2.31361">
        <ele>96</ele>
        <time>2023-08-10T09:11:47Z</time>
      </trkpt>
      <trkpt lat="49.83822" lon="2.31362">
        <ele>96</ele>
        <time>2023-08-10T09:11:48Z</time>
      </trkpt>
      <trkpt lat="49.83821" lon="2.31363">
        <ele>96.1</ele>
        <time>2023-08-10T09:11:50Z</time>
      </trkpt>
      <trkpt lat="49.8382" lon="2.31365">
        <ele>96.2</ele>
        <time>2023-08-10T09:11:51Z</time>
      </trkpt>
      <trkpt lat="49.8382" lon="2.31366">
        <ele>96.2</ele>
        <time>2023-08-10T09:11:52Z</time>
      </trkpt>
      <trkpt lat="49.83819" lon="2.31367">
        <ele>96.3</ele>
        <time>2023-08-10T09:11:54Z</time>
      </trkpt>
      <trkpt lat="49.83818" lon="2.31369">
        <ele>96.4</ele>
        <time>2023-08-10T09:11:55Z</time>
      </trkpt>
      <trkpt lat="49.83818" lon="2.31371">
        <ele>96.5</ele>
        <time>2023-08-10T09:11:56Z</time>
      </trkpt>
      <trkpt lat="49.83817" lon="2.31372">
        <ele>96.5</ele>
        <time>2023-08-10T09:11:58Z</time>
      </trkpt>
      <trkpt lat="49.83817" lon="2.31373">
        <ele>96.6</ele>
        <time>2023-08-10T09:11:59Z</time>
      </trkpt>
      <trkpt lat="49.83816" lon="2.31374">
        <ele>96.7</ele>
        <time>2023-08-10T09:12:00Z</time>
      </trkpt>
      <trkpt lat="49.83815" lon="2.31375">
        <ele>96.7</ele>
        <time>2023-08-10T09:12:01Z</time>
      </trkpt>
      <trkpt lat="49.83815" lon="2.31377">
        <ele>96.8</ele>
        <time>2023-08-10T09:12:02Z</time>
      </trkpt>
      <trkpt lat="49.83814" lon="2.31378">
        <ele>96.9</ele>
        <time>2023-08-10T09:12:03Z</time>
      </trkpt>
      <trkpt lat="49.83814" lon="2.31378">
        <ele>96.9</ele>
        <time>2023-08-10T09:12:04Z</time>
      </trkpt>
      <trkpt lat="49.83813" lon="2.31379">
        <ele>97</ele>
        <time>2023-08-10T09:12:05Z</time>
      </trkpt>
      <trkpt lat="49.83812" lon="2.3138">
        <ele>97</ele>
        <time>2023-08-10T09:12:07Z</time>
      </trkpt>
      <trkpt lat="49.83812" lon="2.31381">
        <ele>97.1</ele>
        <time>2023-08-10T09:12:08Z</time>
      </trkpt>
      <trkpt lat="49.83811" lon="2.31382">
        <ele>97.2</ele>
        <time>2023-08-10T09:12:09Z</time>
      </trkpt>
      <trkpt lat="49.8381" lon="2.31383">
        <ele>97.3</ele>
        <time>2023-08-10T09:12:10Z</time>
      </trkpt>
      <trkpt lat="49.8381" lon="2.31384">
        <ele>97.3</ele>
        <time>2023-08-10T09:12:11Z</time>
      </trkpt>
      <trkpt lat="49.83809" lon="2.31386">
        <ele>97.4</ele>
        <time>2023-08-10T09:12:13Z</time>
      </trkpt>
      <trkpt lat="49.83808" lon="2.31387">
        <ele>97.5</ele>
        <time>2023-08-10T09:12:14Z</time>
      </trkpt>
      <trkpt lat="49.83807" lon="2.31388">
        <ele>97.5</ele>
        <time>2023-08-10T09:12:15Z</time>
      </trkpt>
      <trkpt lat="49.83807" lon="2.31388">
        <ele>97.6</ele>
        <time>2023-08-10T09:12:16Z</time>
      </trkpt>
      <trkpt lat="49.83806" lon="2.3139">
        <ele>97.7</ele>
        <time>2023-08-10T09:12:17Z</time>
      </trkpt>
      <trkpt lat="49.83806" lon="2.31391">
        <ele>97.7</ele>
        <time>2023-08-10T09:12:18Z</time>
      </trkpt>
      <trkpt lat="49.83805" lon="2.31391">
        <ele>97.8</ele>
        <time>2023-08-10T09:12:19Z</time>
      </trkpt>
      <trkpt lat="49.83804" lon="2.31392">
        <ele>97.9</ele>
        <time>2023-08-10T09:12:21Z</time>
      </trkpt>
      <trkpt lat="49.83804" lon="2.31393">
        <ele>97.9</ele>
        <time>2023-08-10T09:12:22Z</time>
      </trkpt>
      <trkpt lat="49.83803" lon="2.31394">
        <ele>98</ele>
        <time>2023-08-10T09:12:23Z</time>
      </trkpt>
      <trkpt lat="49.83802" lon="2.31395">
        <ele>98.1</ele>
        <time>2023-08-10T09:12:24Z</time>
      </trkpt>
      <trkpt lat="49.83801" lon="2.31396">
        <ele>98.2</ele>
        <time>2023-08-10T09:12:25Z</time>
      </trkpt>
      <trkpt lat="49.83801" lon="2.31397">
        <ele>98.2</ele>
        <time>2023-08-10T09:12:26Z</time>
      </trkpt>
      <trkpt lat="49.838" lon="2.31398">
        <ele>98.3</ele>
        <time>2023-08-10T09:12:27Z</time>
      </trkpt>
      <trkpt lat="49.838" lon="2.31399">
        <ele>98.4</ele>
        <time>2023-08-10T09:12:28Z</time>
      </trkpt>
      <trkpt lat="49.83799" lon="2.314">
        <ele>98.5</ele>
        <time>2023-08-10T09:12:29Z</time>
      </trkpt>
      <trkpt lat="49.83798" lon="2.31401">
        <ele>98.5</ele>
        <time>2023-08-10T09:12:31Z</time>
      </trkpt>
      <trkpt lat="49.83797" lon="2.31403">
        <ele>98.7</ele>
        <time>2023-08-10T09:12:32Z</time>
      </trkpt>
      <trkpt lat="49.83797" lon="2.31403">
        <ele>98.8</ele>
        <time>2023-08-10T09:12:33Z</time>
      </trkpt>
      <trkpt lat="49.83796" lon="2.31404">
        <ele>98.8</ele>
        <time>2023-08-10T09:12:34Z</time>
      </trkpt>
      <trkpt lat="49.83796" lon="2.31405">
        <ele>98.9</ele>
        <time>2023-08-10T09:12:35Z</time>
      </trkpt>
      <trkpt lat="49.83795" lon="2.31405">
        <ele>98.9</ele>
        <time>2023-08-10T09:12:36Z</time>
      </trkpt>
      <trkpt lat="49.83794" lon="2.31406">
        <ele>99</ele>
        <time>2023-08-10T09:12:37Z</time>
      </trkpt>
      <trkpt lat="49.83794" lon="2.31407">
        <ele>99.1</ele>
        <time>2023-08-10T09:12:38Z</time>
      </trkpt>
      <trkpt lat="49.83793" lon="2.31408">
        <ele>99.2</ele>
        <time>2023-08-10T09:12:40Z</time>
      </trkpt>
      <trkpt lat="49.83792" lon="2.31409">
        <ele>99.3</ele>
        <time>2023-08-10T09:12:41Z</time>
      </trkpt>
      <trkpt lat="49.83791" lon="2.3141">
        <ele>99.4</ele>
        <time>2023-08-10T09:12:42Z</time>
      </trkpt>
      <trkpt lat="49.8379" lon="2.3141">
        <ele>99.5</ele>
        <time>2023-08-10T09:12:43Z</time>
      </trkpt>
      <trkpt lat="49.8379" lon="2.31411">
        <ele>99.5</ele>
        <time>2023-08-10T09:12:44Z</time>
      </trkpt>
      <trkpt lat="49.83789" lon="2.31412">
        <ele>100</ele>
        <time>2023-08-10T09:12:45Z</time>
      </trkpt>
      <trkpt lat="49.83788" lon="2.31413">
        <ele>100.1</ele>
        <time>2023-08-10T09:12:47Z</time>
      </trkpt>
      <trkpt lat="49.83787" lon="2.31414">
        <ele>100.1</ele>
        <time>2023-08-10T09:12:48Z</time>
      </trkpt>
      <trkpt lat="49.83786" lon="2.31415">
        <ele>100.2</ele>
        <time>2023-08-10T09:12:49Z</time>
      </trkpt>
      <trkpt lat="49.83785" lon="2.31415">
        <ele>100.2</ele>
        <time>2023-08-10T09:12:50Z</time>
      </trkpt>
      <trkpt lat="49.83785" lon="2.31416">
        <ele>100.3</ele>
        <time>2023-08-10T09:12:51Z</time>
      </trkpt>
      <trkpt lat="49.83784" lon="2.31418">
        <ele>100.3</ele>
        <time>2023-08-10T09:12:52Z</time>
      </trkpt>
      <trkpt lat="49.83784" lon="2.31419">
        <ele>100.4</ele>
        <time>2023-08-10T09:12:53Z</time>
      </trkpt>
      <trkpt lat="49.83783" lon="2.3142">
        <ele>100.5</ele>
        <time>2023-08-10T09:12:55Z</time>
      </trkpt>
      <trkpt lat="49.83782" lon="2.31421">
        <ele>100.5</ele>
        <time>2023-08-10T09:12:56Z</time>
      </trkpt>
      <trkpt lat="49.83781" lon="2.31421">
        <ele>100.6</ele>
        <time>2023-08-10T09:12:57Z</time>
      </trkpt>
      <trkpt lat="49.83781" lon="2.31423">
        <ele>100.6</ele>
        <time>2023-08-10T09:12:58Z</time>
      </trkpt>
      <trkpt lat="49.8378" lon="2.31423">
        <ele>100.7</ele>
        <time>2023-08-10T09:12:59Z</time>
      </trkpt>
      <trkpt lat="49.83779" lon="2.31424">
        <ele>100.7</ele>
        <time>2023-08-10T09:13:00Z</time>
      </trkpt>
      <trkpt lat="49.83778" lon="2.31426">
        <ele>100.8</ele>
        <time>2023-08-10T09:13:02Z</time>
      </trkpt>
      <trkpt lat="49.83777" lon="2.31427">
        <ele>100.9</ele>
        <time>2023-08-10T09:13:03Z</time>
      </trkpt>
      <trkpt lat="49.83776" lon="2.31428">
        <ele>100.9</ele>
        <time>2023-08-10T09:13:04Z</time>
      </trkpt>
      <trkpt lat="49.83776" lon="2.31429">
        <ele>101</ele>
        <time>2023-08-10T09:13:06Z</time>
      </trkpt>
      <trkpt lat="49.83775" lon="2.3143">
        <ele>101.1</ele>
        <time>2023-08-10T09:13:07Z</time>
      </trkpt>
      <trkpt lat="49.83774" lon="2.31431">
        <ele>101.1</ele>
        <time>2023-08-10T09:13:08Z</time>
      </trkpt>
      <trkpt lat="49.83773" lon="2.31432">
        <ele>101.2</ele>
        <time>2023-08-10T09:13:09Z</time>
      </trkpt>
      <trkpt lat="49.83772" lon="2.31433">
        <ele>101.2</ele>
        <time>2023-08-10T09:13:10Z</time>
      </trkpt>
      <trkpt lat="49.83771" lon="2.31434">
        <ele>101.3</ele>
        <time>2023-08-10T09:13:11Z</time>
      </trkpt>
      <trkpt lat="49.83771" lon="2.31434">
        <ele>101.3</ele>
        <time>2023-08-10T09:13:12Z</time>
      </trkpt>
      <trkpt lat="49.8377" lon="2.31435">
        <ele>101.4</ele>
        <time>2023-08-10T09:13:14Z</time>
      </trkpt>
      <trkpt lat="49.83769" lon="2.31436">
        <ele>101.5</ele>
        <time>2023-08-10T09:13:15Z</time>
      </trkpt>
      <trkpt lat="49.83768" lon="2.31437">
        <ele>101.5</ele>
        <time>2023-08-10T09:13:16Z</time>
      </trkpt>
      <trkpt lat="49.83767" lon="2.31437">
        <ele>101.6</ele>
        <time>2023-08-10T09:13:17Z</time>
      </trkpt>
      <trkpt lat="49.83766" lon="2.31438">
        <ele>101.6</ele>
        <time>2023-08-10T09:13:18Z</time>
      </trkpt>
      <trkpt lat="49.83765" lon="2.31438">
        <ele>101.7</ele>
        <time>2023-08-10T09:13:19Z</time>
      </trkpt>
      <trkpt lat="49.83764" lon="2.31439">
        <ele>101.8</ele>
        <time>2023-08-10T09:13:21Z</time>
      </trkpt>
      <trkpt lat="49.83762" lon="2.31441">
        <ele>101.9</ele>
        <time>2023-08-10T09:13:22Z</time>
      </trkpt>
      <trkpt lat="49.83762" lon="2.31441">
        <ele>101.9</ele>
        <time>2023-08-10T09:13:23Z</time>
      </trkpt>
      <trkpt lat="49.83761" lon="2.31442">
        <ele>102</ele>
        <time>2023-08-10T09:13:24Z</time>
      </trkpt>
      <trkpt lat="49.8376" lon="2.31443">
        <ele>102.1</ele>
        <time>2023-08-10T09:13:26Z</time>
      </trkpt>
      <trkpt lat="49.83759" lon="2.31444">
        <ele>102.1</ele>
        <time>2023-08-10T09:13:27Z</time>
      </trkpt>
      <trkpt lat="49.83758" lon="2.31445">
        <ele>102.2</ele>
        <time>2023-08-10T09:13:28Z</time>
      </trkpt>
      <trkpt lat="49.83757" lon="2.31445">
        <ele>102.2</ele>
        <time>2023-08-10T09:13:29Z</time>
      </trkpt>
      <trkpt lat="49.83757" lon="2.31446">
        <ele>102.3</ele>
        <time>2023-08-10T09:13:30Z</time>
      </trkpt>
      <trkpt lat="49.83756" lon="2.31446">
        <ele>102.3</ele>
        <time>2023-08-10T09:13:31Z</time>
      </trkpt>
      <trkpt lat="49.83755" lon="2.31447">
        <ele>102.4</ele>
        <time>2023-08-10T09:13:32Z</time>
      </trkpt>
      <trkpt lat="49.83754" lon="2.31447">
        <ele>102.4</ele>
        <time>2023-08-10T09:13:33Z</time>
      </trkpt>
      <trkpt lat="49.83753" lon="2.31448">
        <ele>102.5</ele>
        <time>2023-08-10T09:13:35Z</time>
      </trkpt>
      <trkpt lat="49.83752" lon="2.31449">
        <ele>102.6</ele>
        <time>2023-08-10T09:13:36Z</time>
      </trkpt>
      <trkpt lat="49.83752" lon="2.3145">
        <ele>102.6</ele>
        <time>2023-08-10T09:13:37Z</time>
      </trkpt>
      <trkpt lat="49.83751" lon="2.3145">
        <ele>102.7</ele>
        <time>2023-08-10T09:13:38Z</time>
      </trkpt>
      <trkpt lat="49.8375" lon="2.31452">
        <ele>102.8</ele>
        <time>2023-08-10T09:13:40Z</time>
      </trkpt>
      <trkpt lat="49.83749" lon="2.31453">
        <ele>102.9</ele>
        <time>2023-08-10T09:13:41Z</time>
      </trkpt>
      <trkpt lat="49.83748" lon="2.31454">
        <ele>102.9</ele>
        <time>2023-08-10T09:13:42Z</time>
      </trkpt>
      <trkpt lat="49.83747" lon="2.31455">
        <ele>103</ele>
        <time>2023-08-10T09:13:43Z</time>
      </trkpt>
      <trkpt lat="49.83746" lon="2.31456">
        <ele>103.1</ele>
        <time>2023-08-10T09:13:44Z</time>
      </trkpt>
      <trkpt lat="49.83745" lon="2.31456">
        <ele>103.1</ele>
        <time>2023-08-10T09:13:45Z</time>
      </trkpt>
      <trkpt lat="49.83744" lon="2.31458">
        <ele>103.2</ele>
        <time>2023-08-10T09:13:47Z</time>
      </trkpt>
      <trkpt lat="49.83743" lon="2.31459">
        <ele>103.3</ele>
        <time>2023-08-10T09:13:48Z</time>
      </trkpt>
      <trkpt lat="49.83743" lon="2.3146">
        <ele>103.4</ele>
        <time>2023-08-10T09:13:49Z</time>
      </trkpt>
      <trkpt lat="49.83742" lon="2.31461">
        <ele>103.4</ele>
        <time>2023-08-10T09:13:50Z</time>
      </trkpt>
      <trkpt lat="49.83741" lon="2.31462">
        <ele>103.5</ele>
        <time>2023-08-10T09:13:52Z</time>
      </trkpt>
      <trkpt lat="49.8374" lon="2.31463">
        <ele>103.6</ele>
        <time>2023-08-10T09:13:53Z</time>
      </trkpt>
      <trkpt lat="49.8374" lon="2.31464">
        <ele>103.6</ele>
        <time>2023-08-10T09:13:54Z</time>
      </trkpt>
      <trkpt lat="49.83739" lon="2.31465">
        <ele>103.7</ele>
        <time>2023-08-10T09:13:55Z</time>
      </trkpt>
      <trkpt lat="49.83739" lon="2.31466">
        <ele>103.7</ele>
        <time>2023-08-10T09:13:56Z</time>
      </trkpt>
      <trkpt lat="49.83738" lon="2.31467">
        <ele>103.8</ele>
        <time>2023-08-10T09:13:57Z</time>
      </trkpt>
      <trkpt lat="49.83737" lon="2.31468">
        <ele>103.9</ele>
        <time>2023-08-10T09:13:59Z</time>
      </trkpt>
      <trkpt lat="49.83736" lon="2.31469">
        <ele>103.9</ele>
        <time>2023-08-10T09:14:00Z</time>
      </trkpt>
      <trkpt lat="49.83735" lon="2.31469">
        <ele>104</ele>
        <time>2023-08-10T09:14:01Z</time>
      </trkpt>
      <trkpt lat="49.83734" lon="2.31469">
        <ele>104.1</ele>
        <time>2023-08-10T09:14:02Z</time>
      </trkpt>
      <trkpt lat="49.83733" lon="2.31469">
        <ele>104.1</ele>
        <time>2023-08-10T09:14:03Z</time>
      </trkpt>
      <trkpt lat="49.83732" lon="2.31469">
        <ele>104.2</ele>
        <time>2023-08-10T09:14:04Z</time>
      </trkpt>
      <trkpt lat="49.83731" lon="2.31469">
        <ele>104.3</ele>
        <time>2023-08-10T09:14:05Z</time>
      </trkpt>
      <trkpt lat="49.8373" lon="2.31468">
        <ele>104.3</ele>
        <time>2023-08-10T09:14:06Z</time>
      </trkpt>
      <trkpt lat="49.83728" lon="2.31468">
        <ele>104.4</ele>
        <time>2023-08-10T09:14:08Z</time>
      </trkpt>
      <trkpt lat="49.83727" lon="2.31467">
        <ele>104.5</ele>
        <time>2023-08-10T09:14:09Z</time>
      </trkpt>
      <trkpt lat="49.83726" lon="2.31466">
        <ele>104.6</ele>
        <time>2023-08-10T09:14:10Z</time>
      </trkpt>
      <trkpt lat="49.83724" lon="2.31465">
        <ele>104.7</ele>
        <time>2023-08-10T09:14:11Z</time>
      </trkpt>
      <trkpt lat="49.83723" lon="2.31464">
        <ele>104.7</ele>
        <time>2023-08-10T09:14:12Z</time>
      </trkpt>
      <trkpt lat="49.83722" lon="2.31462">
        <ele>104.8</ele>
        <time>2023-08-10T09:14:13Z</time>
      </trkpt>
      <trkpt lat="49.83721" lon="2.31461">
        <ele>104.8</ele>
        <time>2023-08-10T09:14:14Z</time>
      </trkpt>
      <trkpt lat="49.8372" lon="2.3146">
        <ele>104.9</ele>
        <time>2023-08-10T09:14:16Z</time>
      </trkpt>
      <trkpt lat="49.83719" lon="2.31458">
        <ele>104.9</ele>
        <time>2023-08-10T09:14:17Z</time>
      </trkpt>
      <trkpt lat="49.83717" lon="2.31456">
        <ele>104.9</ele>
        <time>2023-08-10T09:14:18Z</time>
      </trkpt>
      <trkpt lat="49.83717" lon="2.31455">
        <ele>105</ele>
        <time>2023-08-10T09:14:19Z</time>
      </trkpt>
      <trkpt lat="49.83716" lon="2.31454">
        <ele>105</ele>
        <time>2023-08-10T09:14:20Z</time>
      </trkpt>
      <trkpt lat="49.83715" lon="2.31452">
        <ele>105</ele>
        <time>2023-08-10T09:14:21Z</time>
      </trkpt>
      <trkpt lat="49.83714" lon="2.31451">
        <ele>105.1</ele>
        <time>2023-08-10T09:14:22Z</time>
      </trkpt>
      <trkpt lat="49.83712" lon="2.31449">
        <ele>105.1</ele>
        <time>2023-08-10T09:14:24Z</time>
      </trkpt>
      <trkpt lat="49.83711" lon="2.31447">
        <ele>105.1</ele>
        <time>2023-08-10T09:14:25Z</time>
      </trkpt>
      <trkpt lat="49.8371" lon="2.31445">
        <ele>105.2</ele>
        <time>2023-08-10T09:14:26Z</time>
      </trkpt>
      <trkpt lat="49.83709" lon="2.31444">
        <ele>105.2</ele>
        <time>2023-08-10T09:14:27Z</time>
      </trkpt>
      <trkpt lat="49.83708" lon="2.31442">
        <ele>105.3</ele>
        <time>2023-08-10T09:14:28Z</time>
      </trkpt>
      <trkpt lat="49.83707" lon="2.31441">
        <ele>105.3</ele>
        <time>2023-08-10T09:14:29Z</time>
      </trkpt>
      <trkpt lat="49.83706" lon="2.3144">
        <ele>105.3</ele>
        <time>2023-08-10T09:14:30Z</time>
      </trkpt>
      <trkpt lat="49.83705" lon="2.31438">
        <ele>105.3</ele>
        <time>2023-08-10T09:14:32Z</time>
      </trkpt>
      <trkpt lat="49.83704" lon="2.31437">
        <ele>105.4</ele>
        <time>2023-08-10T09:14:33Z</time>
      </trkpt>
      <trkpt lat="49.83702" lon="2.31435">
        <ele>105.4</ele>
        <time>2023-08-10T09:14:35Z</time>
      </trkpt>
      <trkpt lat="49.83701" lon="2.31433">
        <ele>105.4</ele>
        <time>2023-08-10T09:14:36Z</time>
      </trkpt>
      <trkpt lat="49.837" lon="2.31431">
        <ele>105.4</ele>
        <time>2023-08-10T09:14:37Z</time>
      </trkpt>
      <trkpt lat="49.837" lon="2.3143">
        <ele>105.5</ele>
        <time>2023-08-10T09:14:38Z</time>
      </trkpt>
      <trkpt lat="49.83699" lon="2.31429">
        <ele>105.5</ele>
        <time>2023-08-10T09:14:39Z</time>
      </trkpt>
      <trkpt lat="49.83698" lon="2.31426">
        <ele>105.5</ele>
        <time>2023-08-10T09:14:40Z</time>
      </trkpt>
      <trkpt lat="49.83697" lon="2.31425">
        <ele>105.5</ele>
        <time>2023-08-10T09:14:42Z</time>
      </trkpt>
      <trkpt lat="49.83696" lon="2.31424">
        <ele>105.5</ele>
        <time>2023-08-10T09:14:43Z</time>
      </trkpt>
      <trkpt lat="49.83695" lon="2.31422">
        <ele>105.6</ele>
        <time>2023-08-10T09:14:44Z</time>
      </trkpt>
      <trkpt lat="49.83694" lon="2.31421">
        <ele>105.6</ele>
        <time>2023-08-10T09:14:45Z</time>
      </trkpt>
      <trkpt lat="49.83694" lon="2.3142">
        <ele>105.6</ele>
        <time>2023-08-10T09:14:46Z</time>
      </trkpt>
      <trkpt lat="49.83692" lon="2.31418">
        <ele>105.6</ele>
        <time>2023-08-10T09:14:48Z</time>
      </trkpt>
      <trkpt lat="49.83692" lon="2.31417">
        <ele>105.7</ele>
        <time>2023-08-10T09:14:49Z</time>
      </trkpt>
      <trkpt lat="49.83691" lon="2.31416">
        <ele>105.7</ele>
        <time>2023-08-10T09:14:50Z</time>
      </trkpt>
      <trkpt lat="49.8369" lon="2.31415">
        <ele>105.7</ele>
        <time>2023-08-10T09:14:51Z</time>
      </trkpt>
      <trkpt lat="49.8369" lon="2.31414">
        <ele>105.7</ele>
        <time>2023-08-10T09:14:52Z</time>
      </trkpt>
      <trkpt lat="49.83689" lon="2.31412">
        <ele>105.7</ele>
        <time>2023-08-10T09:14:53Z</time>
      </trkpt>
      <trkpt lat="49.83688" lon="2.31411">
        <ele>105.7</ele>
        <time>2023-08-10T09:14:54Z</time>
      </trkpt>
      <trkpt lat="49.83688" lon="2.3141">
        <ele>105.7</ele>
        <time>2023-08-10T09:14:55Z</time>
      </trkpt>
      <trkpt lat="49.83687" lon="2.31408">
        <ele>105.8</ele>
        <time>2023-08-10T09:14:57Z</time>
      </trkpt>
      <trkpt lat="49.83685" lon="2.31406">
        <ele>105.8</ele>
        <time>2023-08-10T09:14:58Z</time>
      </trkpt>
      <trkpt lat="49.83685" lon="2.31405">
        <ele>105.8</ele>
        <time>2023-08-10T09:14:59Z</time>
      </trkpt>
      <trkpt lat="49.83684" lon="2.31404">
        <ele>105.8</ele>
        <time>2023-08-10T09:15:00Z</time>
      </trkpt>
      <trkpt lat="49.83682" lon="2.31403">
        <ele>105.8</ele>
        <time>2023-08-10T09:15:01Z</time>
      </trkpt>
      <trkpt lat="49.83682" lon="2.31402">
        <ele>105.8</ele>
        <time>2023-08-10T09:15:03Z</time>
      </trkpt>
      <trkpt lat="49.83681" lon="2.31401">
        <ele>105.9</ele>
        <time>2023-08-10T09:15:04Z</time>
      </trkpt>
      <trkpt lat="49.83679" lon="2.31399">
        <ele>105.9</ele>
        <time>2023-08-10T09:15:05Z</time>
      </trkpt>
      <trkpt lat="49.83679" lon="2.31398">
        <ele>105.9</ele>
        <time>2023-08-10T09:15:06Z</time>
      </trkpt>
      <trkpt lat="49.83678" lon="2.31397">
        <ele>105.9</ele>
        <time>2023-08-10T09:15:07Z</time>
      </trkpt>
      <trkpt lat="49.83677" lon="2.31395">
        <ele>105.9</ele>
        <time>2023-08-10T09:15:09Z</time>
      </trkpt>
      <trkpt lat="49.83676" lon="2.31394">
        <ele>105.9</ele>
        <time>2023-08-10T09:15:10Z</time>
      </trkpt>
      <trkpt lat="49.83676" lon="2.31393">
        <ele>105.9</ele>
        <time>2023-08-10T09:15:11Z</time>
      </trkpt>
      <trkpt lat="49.83675" lon="2.31392">
        <ele>106</ele>
        <time>2023-08-10T09:15:12Z</time>
      </trkpt>
      <trkpt lat="49.83675" lon="2.31391">
        <ele>106</ele>
        <time>2023-08-10T09:15:13Z</time>
      </trkpt>
      <trkpt lat="49.83674" lon="2.3139">
        <ele>106</ele>
        <time>2023-08-10T09:15:14Z</time>
      </trkpt>
      <trkpt lat="49.83673" lon="2.31389">
        <ele>106</ele>
        <time>2023-08-10T09:15:15Z</time>
      </trkpt>
      <trkpt lat="49.83672" lon="2.31388">
        <ele>106</ele>
        <time>2023-08-10T09:15:16Z</time>
      </trkpt>
      <trkpt lat="49.83671" lon="2.31386">
        <ele>106</ele>
        <time>2023-08-10T09:15:18Z</time>
      </trkpt>
      <trkpt lat="49.83671" lon="2.31384">
        <ele>106</ele>
        <time>2023-08-10T09:15:20Z</time>
      </trkpt>
      <trkpt lat="49.83671" lon="2.31382">
        <ele>106</ele>
        <time>2023-08-10T09:15:21Z</time>
      </trkpt>
      <trkpt lat="49.83671" lon="2.31381">
        <ele>106.1</ele>
        <time>2023-08-10T09:15:22Z</time>
      </trkpt>
      <trkpt lat="49.83671" lon="2.31379">
        <ele>106.1</ele>
        <time>2023-08-10T09:15:23Z</time>
      </trkpt>
      <trkpt lat="49.83672" lon="2.31378">
        <ele>106.1</ele>
        <time>2023-08-10T09:15:24Z</time>
      </trkpt>
      <trkpt lat="49.83672" lon="2.31376">
        <ele>106.1</ele>
        <time>2023-08-10T09:15:25Z</time>
      </trkpt>
      <trkpt lat="49.83673" lon="2.31374">
        <ele>106.1</ele>
        <time>2023-08-10T09:15:26Z</time>
      </trkpt>
      <trkpt lat="49.83673" lon="2.31372">
        <ele>106</ele>
        <time>2023-08-10T09:15:28Z</time>
      </trkpt>
      <trkpt lat="49.83674" lon="2.31371">
        <ele>106</ele>
        <time>2023-08-10T09:15:29Z</time>
      </trkpt>
      <trkpt lat="49.83675" lon="2.3137">
        <ele>105.9</ele>
        <time>2023-08-10T09:15:30Z</time>
      </trkpt>
      <trkpt lat="49.83676" lon="2.31369">
        <ele>105.9</ele>
        <time>2023-08-10T09:15:32Z</time>
      </trkpt>
      <trkpt lat="49.83676" lon="2.31368">
        <ele>105.9</ele>
        <time>2023-08-10T09:15:33Z</time>
      </trkpt>
      <trkpt lat="49.83676" lon="2.31368">
        <ele>105.8</ele>
        <time>2023-08-10T09:15:34Z</time>
      </trkpt>
      <trkpt lat="49.83676" lon="2.31368">
        <ele>105.8</ele>
        <time>2023-08-10T09:15:36Z</time>
      </trkpt>
      <trkpt lat="49.83677" lon="2.31368">
        <ele>105.8</ele>
        <time>2023-08-10T09:15:37Z</time>
      </trkpt>
      <trkpt lat="49.83677" lon="2.31368">
        <ele>105.8</ele>
        <time>2023-08-10T09:15:39Z</time>
      </trkpt>
      <trkpt lat="49.83677" lon="2.31368">
        <ele>105.8</ele>
        <time>2023-08-10T09:15:40Z</time>
      </trkpt>
      <trkpt lat="49.83677" lon="2.31368">
        <ele>105.8</ele>
        <time>2023-08-10T09:15:41Z</time>
      </trkpt>
      <trkpt lat="49.83677" lon="2.31368">
        <ele>105.8</ele>
        <time>2023-08-10T09:15:43Z</time>
      </trkpt>
      <trkpt lat="49.83677" lon="2.31368">
        <ele>105.8</ele>
        <time>2023-08-10T09:15:44Z</time>
      </trkpt>
      <trkpt lat="49.83677" lon="2.31368">
        <ele>105.8</ele>
        <time>2023-08-10T09:15:46Z</time>
      </trkpt>
      <trkpt lat="49.83677" lon="2.31368">
        <ele>105.8</ele>
        <time>2023-08-10T09:15:47Z</time>
      </trkpt>
      <trkpt lat="49.83677" lon="2.31369">
        <ele>105.8</ele>
        <time>2023-08-10T09:15:48Z</time>
      </trkpt>
      <trkpt lat="49.83677" lon="2.31369">
        <ele>105.8</ele>
        <time>2023-08-10T09:15:49Z</time>
      </trkpt>
      <trkpt lat="49.83677" lon="2.3137">
        <ele>105.7</ele>
        <time>2023-08-10T09:15:50Z</time>
      </trkpt>
      <trkpt lat="49.83677" lon="2.3137">
        <ele>105.7</ele>
        <time>2023-08-10T09:15:51Z</time>
      </trkpt>
      <trkpt lat="49.83677" lon="2.3137">
        <ele>105.7</ele>
        <time>2023-08-10T09:15:52Z</time>
      </trkpt>
      <trkpt lat="49.83677" lon="2.31369">
        <ele>105.7</ele>
        <time>2023-08-10T09:15:53Z</time>
      </trkpt>
      <trkpt lat="49.83677" lon="2.31369">
        <ele>105.7</ele>
        <time>2023-08-10T09:15:54Z</time>
      </trkpt>
      <trkpt lat="49.83677" lon="2.31369">
        <ele>105.7</ele>
        <time>2023-08-10T09:15:55Z</time>
      </trkpt>
      <trkpt lat="49.83677" lon="2.31369">
        <ele>105.7</ele>
        <time>2023-08-10T09:15:56Z</time>
      </trkpt>
      <trkpt lat="49.83677" lon="2.31369">
        <ele>105.7</ele>
        <time>2023-08-10T09:15:57Z</time>
      </trkpt>
      <trkpt lat="49.83677" lon="2.31369">
        <ele>105.7</ele>
        <time>2023-08-10T09:15:58Z</time>
      </trkpt>
      <trkpt lat="49.83677" lon="2.31369">
        <ele>105.7</ele>
        <time>2023-08-10T09:15:59Z</time>
      </trkpt>
      <trkpt lat="49.83677" lon="2.31369">
        <ele>105.7</ele>
        <time>2023-08-10T09:16:00Z</time>
      </trkpt>
      <trkpt lat="49.83677" lon="2.31369">
        <ele>105.7</ele>
        <time>2023-08-10T09:16:01Z</time>
      </trkpt>
      <trkpt lat="49.83677" lon="2.31369">
        <ele>105.7</ele>
        <time>2023-08-10T09:16:02Z</time>
      </trkpt>
      <trkpt lat="49.83677" lon="2.31369">
        <ele>105.7</ele>
        <time>2023-08-10T09:16:03Z</time>
      </trkpt>
      <trkpt lat="49.83677" lon="2.31369">
        <ele>105.7</ele>
        <time>2023-08-10T09:16:04Z</time>
      </trkpt>
      <trkpt lat="49.83677" lon="2.31369">
        <ele>105.7</ele>
        <time>2023-08-10T09:16:05Z</time>
      </trkpt>
      <trkpt lat="49.83677" lon="2.31369">
        <ele>105.7</ele>
        <time>2023-08-10T09:16:06Z</time>
      </trkpt>
      <trkpt lat="49.83677" lon="2.31369">
        <ele>105.7</ele>
        <time>2023-08-10T09:16:07Z</time>
      </trkpt>
      <trkpt lat="49.83677" lon="2.31369">
        <ele>105.7</ele>
        <time>2023-08-10T09:16:08Z</time>
      </trkpt>
      <trkpt lat="49.83677" lon="2.31367">
        <ele>105.6</ele>
        <time>2023-08-10T09:16:10Z</time>
      </trkpt>
      <trkpt lat="49.83677" lon="2.31367">
        <ele>105.6</ele>
        <time>2023-08-10T09:16:12Z</time>
      </trkpt>
      <trkpt lat="49.83678" lon="2.31367">
        <ele>105.6</ele>
        <time>2023-08-10T09:16:13Z</time>
      </trkpt>
      <trkpt lat="49.83678" lon="2.31368">
        <ele>105.6</ele>
        <time>2023-08-10T09:16:14Z</time>
      </trkpt>
      <trkpt lat="49.83678" lon="2.31369">
        <ele>105.5</ele>
        <time>2023-08-10T09:16:15Z</time>
      </trkpt>
      <trkpt lat="49.83678" lon="2.31369">
        <ele>105.5</ele>
        <time>2023-08-10T09:16:16Z</time>
      </trkpt>
      <trkpt lat="49.83678" lon="2.31369">
        <ele>105.5</ele>
        <time>2023-08-10T09:16:17Z</time>
      </trkpt>
      <trkpt lat="49.83678" lon="2.31369">
        <ele>105.5</ele>
        <time>2023-08-10T09:16:18Z</time>
      </trkpt>
      <trkpt lat="49.83678" lon="2.31369">
        <ele>105.5</ele>
        <time>2023-08-10T09:16:19Z</time>
      </trkpt>
      <trkpt lat="49.83678" lon="2.31369">
        <ele>105.5</ele>
        <time>2023-08-10T09:16:20Z</time>
      </trkpt>
      <trkpt lat="49.83678" lon="2.31369">
        <ele>105.5</ele>
        <time>2023-08-10T09:16:21Z</time>
      </trkpt>
      <trkpt lat="49.83678" lon="2.31369">
        <ele>105.5</ele>
        <time>2023-08-10T09:16:22Z</time>
      </trkpt>
      <trkpt lat="49.83678" lon="2.31369">
        <ele>105.5</ele>
        <time>2023-08-10T09:16:23Z</time>
      </trkpt>
      <trkpt lat="49.83678" lon="2.31369">
        <ele>105.5</ele>
        <time>2023-08-10T09:16:24Z</time>
      </trkpt>
      <trkpt lat="49.83678" lon="2.31369">
        <ele>105.5</ele>
        <time>2023-08-10T09:16:25Z</time>
      </trkpt>
      <trkpt lat="49.83678" lon="2.31369">
        <ele>105.5</ele>
        <time>2023-08-10T09:16:26Z</time>
      </trkpt>
      <trkpt lat="49.83678" lon="2.31369">
        <ele>105.5</ele>
        <time>2023-08-10T09:16:27Z</time>
      </trkpt>
      <trkpt lat="49.83678" lon="2.31369">
        <ele>105.5</ele>
        <time>2023-08-10T09:16:28Z</time>
      </trkpt>
      <trkpt lat="49.83678" lon="2.31369">
        <ele>105.5</ele>
        <time>2023-08-10T09:16:29Z</time>
      </trkpt>
      <trkpt lat="49.83678" lon="2.31369">
        <ele>105.5</ele>
        <time>2023-08-10T09:16:30Z</time>
      </trkpt>
      <trkpt lat="49.83678" lon="2.31369">
        <ele>105.5</ele>
        <time>2023-08-10T09:16:31Z</time>
      </trkpt>
      <trkpt lat="49.83678" lon="2.31369">
        <ele>105.5</ele>
        <time>2023-08-10T09:16:32Z</time>
      </trkpt>
      <trkpt lat="49.83678" lon="2.31369">
        <ele>105.5</ele>
        <time>2023-08-10T09:16:33Z</time>
      </trkpt>
      <trkpt lat="49.83678" lon="2.31369">
        <ele>105.5</ele>
        <time>2023-08-10T09:16:34Z</time>
      </trkpt>
      <trkpt lat="49.83678" lon="2.31369">
        <ele>105.5</ele>
        <time>2023-08-10T09:16:35Z</time>
      </trkpt>
      <trkpt lat="49.83678" lon="2.31369">
        <ele>105.5</ele>
        <time>2023-08-10T09:16:36Z</time>
      </trkpt>
      <trkpt lat="49.83678" lon="2.31369">
        <ele>105.5</ele>
        <time>2023-08-10T09:16:37Z</time>
      </trkpt>
      <trkpt lat="49.83678" lon="2.31369">
        <ele>105.5</ele>
        <time>2023-08-10T09:16:38Z</time>
      </trkpt>
      <trkpt lat="49.83678" lon="2.31369">
        <ele>105.5</ele>
        <time>2023-08-10T09:16:39Z</time>
      </trkpt>
      <trkpt lat="49.83678" lon="2.31369">
        <ele>105.5</ele>
        <time>2023-08-10T09:16:40Z</time>
      </trkpt>
      <trkpt lat="49.83678" lon="2.31369">
        <ele>105.5</ele>
        <time>2023-08-10T09:16:41Z</time>
      </trkpt>
      <trkpt lat="49.83678" lon="2.31369">
        <ele>105.5</ele>
        <time>2023-08-10T09:16:42Z</time>
      </trkpt>
      <trkpt lat="49.83678" lon="2.31369">
        <ele>105.5</ele>
        <time>2023-08-10T09:16:43Z</time>
      </trkpt>
      <trkpt lat="49.83678" lon="2.31369">
        <ele>105.5</ele>
        <time>2023-08-10T09:16:44Z</time>
      </trkpt>
      <trkpt lat="49.83678" lon="2.31369">
        <ele>105.5</ele>
        <time>2023-08-10T09:16:45Z</time>
      </trkpt>
      <trkpt lat="49.83678" lon="2.31369">
        <ele>105.5</ele>
        <time>2023-08-10T09:16:46Z</time>
      </trkpt>
      <trkpt lat="49.83678" lon="2.31369">
        <ele>105.5</ele>
        <time>2023-08-10T09:16:47Z</time>
      </trkpt>
      <trkpt lat="49.83678" lon="2.31369">
        <ele>105.5</ele>
        <time>2023-08-10T09:16:48Z</time>
      </trkpt>
      <trkpt lat="49.83678" lon="2.31369">
        <ele>105.5</ele>
        <time>2023-08-10T09:16:49Z</time>
      </trkpt>
      <trkpt lat="49.83678" lon="2.31369">
        <ele>105.5</ele>
        <time>2023-08-10T09:16:50Z</time>
      </trkpt>
      <trkpt lat="49.83678" lon="2.31369">
        <ele>105.5</ele>
        <time>2023-08-10T09:16:51Z</time>
      </trkpt>
      <trkpt lat="49.83678" lon="2.31369">
        <ele>105.5</ele>
        <time>2023-08-10T09:16:52Z</time>
      </trkpt>
      <trkpt lat="49.83678" lon="2.31369">
        <ele>105.5</ele>
        <time>2023-08-10T09:16:53Z</time>
      </trkpt>
      <trkpt lat="49.83678" lon="2.31369">
        <ele>105.5</ele>
        <time>2023-08-10T09:16:54Z</time>
      </trkpt>
      <trkpt lat="49.83678" lon="2.31369">
        <ele>105.5</ele>
        <time>2023-08-10T09:16:55Z</time>
      </trkpt>
      <trkpt lat="49.83678" lon="2.31369">
        <ele>105.5</ele>
        <time>2023-08-10T09:16:56Z</time>
      </trkpt>
      <trkpt lat="49.83678" lon="2.31369">
        <ele>105.5</ele>
        <time>2023-08-10T09:16:57Z</time>
      </trkpt>
      <trkpt lat="49.83678" lon="2.31369">
        <ele>105.5</ele>
        <time>2023-08-10T09:16:58Z</time>
      </trkpt>
      <trkpt lat="49.83678" lon="2.31369">
        <ele>105.5</ele>
        <time>2023-08-10T09:16:59Z</time>
      </trkpt>
      <trkpt lat="49.83678" lon="2.31369">
        <ele>105.5</ele>
        <time>2023-08-10T09:17:00Z</time>
      </trkpt>
      <trkpt lat="49.83678" lon="2.31369">
        <ele>105.5</ele>
        <time>2023-08-10T09:17:01Z</time>
      </trkpt>
      <trkpt lat="49.83678" lon="2.31369">
        <ele>105.5</ele>
        <time>2023-08-10T09:17:02Z</time>
      </trkpt>
      <trkpt lat="49.83678" lon="2.31369">
        <ele>105.5</ele>
        <time>2023-08-10T09:17:03Z</time>
      </trkpt>
      <trkpt lat="49.83678" lon="2.31369">
        <ele>105.5</ele>
        <time>2023-08-10T09:17:04Z</time>
      </trkpt>
      <trkpt lat="49.83678" lon="2.31369">
        <ele>105.5</ele>
        <time>2023-08-10T09:17:05Z</time>
      </trkpt>
      <trkpt lat="49.83678" lon="2.31369">
        <ele>105.5</ele>
        <time>2023-08-10T09:17:06Z</time>
      </trkpt>
      <trkpt lat="49.83678" lon="2.31369">
        <ele>105.5</ele>
        <time>2023-08-10T09:17:07Z</time>
      </trkpt>
      <trkpt lat="49.83678" lon="2.31369">
        <ele>105.5</ele>
        <time>2023-08-10T09:17:08Z</time>
      </trkpt>
      <trkpt lat="49.83678" lon="2.31369">
        <ele>105.5</ele>
        <time>2023-08-10T09:17:09Z</time>
      </trkpt>
      <trkpt lat="49.83678" lon="2.31369">
        <ele>105.5</ele>
        <time>2023-08-10T09:17:10Z</time>
      </trkpt>
      <trkpt lat="49.83678" lon="2.31369">
        <ele>105.5</ele>
        <time>2023-08-10T09:17:11Z</time>
      </trkpt>
      <trkpt lat="49.83678" lon="2.31369">
        <ele>105.5</ele>
        <time>2023-08-10T09:17:12Z</time>
      </trkpt>
      <trkpt lat="49.83678" lon="2.31369">
        <ele>105.5</ele>
        <time>2023-08-10T09:17:13Z</time>
      </trkpt>
      <trkpt lat="49.83678" lon="2.31369">
        <ele>105.5</ele>
        <time>2023-08-10T09:17:14Z</time>
      </trkpt>
      <trkpt lat="49.83678" lon="2.31369">
        <ele>105.5</ele>
        <time>2023-08-10T09:17:15Z</time>
      </trkpt>
      <trkpt lat="49.83678" lon="2.31369">
        <ele>105.5</ele>
        <time>2023-08-10T09:17:16Z</time>
      </trkpt>
      <trkpt lat="49.83678" lon="2.31369">
        <ele>105.5</ele>
        <time>2023-08-10T09:17:17Z</time>
      </trkpt>
      <trkpt lat="49.83678" lon="2.31369">
        <ele>105.5</ele>
        <time>2023-08-10T09:17:18Z</time>
      </trkpt>
      <trkpt lat="49.83679" lon="2.31369">
        <ele>105.5</ele>
        <time>2023-08-10T09:17:19Z</time>
      </trkpt>
      <trkpt lat="49.83681" lon="2.31368">
        <ele>105.4</ele>
        <time>2023-08-10T09:17:20Z</time>
      </trkpt>
      <trkpt lat="49.83682" lon="2.31367">
        <ele>105.4</ele>
        <time>2023-08-10T09:17:21Z</time>
      </trkpt>
      <trkpt lat="49.83682" lon="2.31367">
        <ele>105.3</ele>
        <time>2023-08-10T09:17:22Z</time>
      </trkpt>
      <trkpt lat="49.83683" lon="2.31366">
        <ele>105.3</ele>
        <time>2023-08-10T09:17:23Z</time>
      </trkpt>
      <trkpt lat="49.83685" lon="2.31365">
        <ele>105.2</ele>
        <time>2023-08-10T09:17:25Z</time>
      </trkpt>
      <trkpt lat="49.83686" lon="2.31364">
        <ele>105.1</ele>
        <time>2023-08-10T09:17:26Z</time>
      </trkpt>
      <trkpt lat="49.83689" lon="2.31362">
        <ele>105</ele>
        <time>2023-08-10T09:17:28Z</time>
      </trkpt>
      <trkpt lat="49.83691" lon="2.31361">
        <ele>104.9</ele>
        <time>2023-08-10T09:17:29Z</time>
      </trkpt>
      <trkpt lat="49.83693" lon="2.3136">
        <ele>104.8</ele>
        <time>2023-08-10T09:17:31Z</time>
      </trkpt>
      <trkpt lat="49.83693" lon="2.3136">
        <ele>104.8</ele>
        <time>2023-08-10T09:17:32Z</time>
      </trkpt>
      <trkpt lat="49.83693" lon="2.3136">
        <ele>104.8</ele>
        <time>2023-08-10T09:17:34Z</time>
      </trkpt>
      <trkpt lat="49.83692" lon="2.3136">
        <ele>104.8</ele>
        <time>2023-08-10T09:17:36Z</time>
      </trkpt>
      <trkpt lat="49.83692" lon="2.3136">
        <ele>104.8</ele>
        <time>2023-08-10T09:17:38Z</time>
      </trkpt>
    </trkseg>
  </trk>
</gpx>